<?xml version='1.0' encoding='UTF-8'?><gpx version="1.1" creator="JPX - https://github.com/jenetics/jpx" xmlns="http://www.topografix.com/GPX/1/1"><trk><trkseg><trkpt lat="45.7062389" lon="11.5646694"><ele>110.0</ele><time>2026-04-26T08:42:08.47Z</time></trkpt><trkpt lat="45.7061615" lon="11.5648052"><ele>110.0</ele><time>2026-04-26T08:43:26.47Z</time></trkpt><trkpt lat="45.7061382" lon="11.5649769"><ele>110.0</ele><time>2026-04-26T08:43:28.47Z</time></trkpt><trkpt lat="45.7061026" lon="11.5651514"><ele>110.0</ele><time>2026-04-26T08:43:30.471Z</time></trkpt><trkpt lat="45.7060592" lon="11.5653278"><ele>109.66666666666666</ele><time>2026-04-26T08:43:32.47Z</time></trkpt><trkpt lat="45.7060504" lon="11.5654265"><ele>109.33333333333333</ele><time>2026-04-26T08:43:33.47Z</time></trkpt><trkpt lat="45.7060243" lon="11.5655432"><ele>109.0</ele><time>2026-04-26T08:43:34.47Z</time></trkpt><trkpt lat="45.7060065" lon="11.56566"><ele>108.66666666666666</ele><time>2026-04-26T08:43:35.471Z</time></trkpt><trkpt lat="45.7060088" lon="11.5657707"><ele>108.33333333333333</ele><time>2026-04-26T08:43:36.471Z</time></trkpt><trkpt lat="45.7060031" lon="11.5658883"><ele>108.0</ele><time>2026-04-26T08:43:37.47Z</time></trkpt><trkpt lat="45.7059904" lon="11.5660186"><ele>108.0</ele><time>2026-04-26T08:43:38.47Z</time></trkpt><trkpt lat="45.7060055" lon="11.5661526"><ele>108.0</ele><time>2026-04-26T08:43:39.47Z</time></trkpt><trkpt lat="45.7060146" lon="11.5662782"><ele>108.0</ele><time>2026-04-26T08:43:40.47Z</time></trkpt><trkpt lat="45.7060201" lon="11.5663845"><ele>108.0</ele><time>2026-04-26T08:43:41.47Z</time></trkpt><trkpt lat="45.7059946" lon="11.5665283"><ele>108.0</ele><time>2026-04-26T08:43:43.47Z</time></trkpt><trkpt lat="45.7059644" lon="11.5666413"><ele>108.0</ele><time>2026-04-26T08:43:46.47Z</time></trkpt><trkpt lat="45.7060358" lon="11.5666408"><ele>108.0</ele><time>2026-04-26T08:43:49.47Z</time></trkpt><trkpt lat="45.7061007" lon="11.5667721"><ele>108.00000000000001</ele><time>2026-04-26T08:43:57.471Z</time></trkpt><trkpt lat="45.706125" lon="11.5668699"><ele>108.00000000000001</ele><time>2026-04-26T08:43:58.47Z</time></trkpt><trkpt lat="45.7061514" lon="11.5669831"><ele>108.0</ele><time>2026-04-26T08:43:59.47Z</time></trkpt><trkpt lat="45.7061753" lon="11.5671156"><ele>108.0</ele><time>2026-04-26T08:44:00.47Z</time></trkpt><trkpt lat="45.7062056" lon="11.5672575"><ele>107.80000000000001</ele><time>2026-04-26T08:44:01.471Z</time></trkpt><trkpt lat="45.7062362" lon="11.5673979"><ele>107.60000000000001</ele><time>2026-04-26T08:44:02.471Z</time></trkpt><trkpt lat="45.7062682" lon="11.5675506"><ele>107.39999999999999</ele><time>2026-04-26T08:44:03.47Z</time></trkpt><trkpt lat="45.7062886" lon="11.5677183"><ele>107.19999999999999</ele><time>2026-04-26T08:44:04.471Z</time></trkpt><trkpt lat="45.7063236" lon="11.5678773"><ele>107.0</ele><time>2026-04-26T08:44:05.47Z</time></trkpt><trkpt lat="45.7063459" lon="11.5680368"><ele>106.8</ele><time>2026-04-26T08:44:06.47Z</time></trkpt><trkpt lat="45.7063774" lon="11.5681719"><ele>106.6</ele><time>2026-04-26T08:44:07.47Z</time></trkpt><trkpt lat="45.7064081" lon="11.5683002"><ele>106.39999999999999</ele><time>2026-04-26T08:44:08.47Z</time></trkpt><trkpt lat="45.7064357" lon="11.5684374"><ele>106.19999999999999</ele><time>2026-04-26T08:44:09.47Z</time></trkpt><trkpt lat="45.7064557" lon="11.5685758"><ele>106.0</ele><time>2026-04-26T08:44:10.471Z</time></trkpt><trkpt lat="45.7064857" lon="11.5687354"><ele>106.0</ele><time>2026-04-26T08:44:11.471Z</time></trkpt><trkpt lat="45.7065102" lon="11.5689063"><ele>106.0</ele><time>2026-04-26T08:44:12.47Z</time></trkpt><trkpt lat="45.7064988" lon="11.5691021"><ele>106.0</ele><time>2026-04-26T08:44:13.47Z</time></trkpt><trkpt lat="45.7064833" lon="11.5692675"><ele>106.0</ele><time>2026-04-26T08:44:14.47Z</time></trkpt><trkpt lat="45.7064676" lon="11.5694623"><ele>106.5</ele><time>2026-04-26T08:44:15.471Z</time></trkpt><trkpt lat="45.7064505" lon="11.5696723"><ele>107.0</ele><time>2026-04-26T08:44:16.471Z</time></trkpt><trkpt lat="45.7064264" lon="11.5698723"><ele>107.5</ele><time>2026-04-26T08:44:17.47Z</time></trkpt><trkpt lat="45.7064187" lon="11.5700791"><ele>108.0</ele><time>2026-04-26T08:44:18.471Z</time></trkpt><trkpt lat="45.7064067" lon="11.5702794"><ele>108.5</ele><time>2026-04-26T08:44:19.47Z</time></trkpt><trkpt lat="45.7064124" lon="11.5704763"><ele>109.0</ele><time>2026-04-26T08:44:20.47Z</time></trkpt><trkpt lat="45.7064379" lon="11.5706667"><ele>109.5</ele><time>2026-04-26T08:44:21.47Z</time></trkpt><trkpt lat="45.7064781" lon="11.5708525"><ele>110.0</ele><time>2026-04-26T08:44:22.47Z</time></trkpt><trkpt lat="45.7065372" lon="11.571031"><ele>110.25</ele><time>2026-04-26T08:44:23.47Z</time></trkpt><trkpt lat="45.7066179" lon="11.571196"><ele>110.5</ele><time>2026-04-26T08:44:24.47Z</time></trkpt><trkpt lat="45.7067187" lon="11.5713416"><ele>110.75</ele><time>2026-04-26T08:44:25.47Z</time></trkpt><trkpt lat="45.7068323" lon="11.5714684"><ele>111.0</ele><time>2026-04-26T08:44:26.47Z</time></trkpt><trkpt lat="45.7069602" lon="11.571579"><ele>112.66666666666666</ele><time>2026-04-26T08:44:27.47Z</time></trkpt><trkpt lat="45.7070911" lon="11.5716699"><ele>114.33333333333333</ele><time>2026-04-26T08:44:28.471Z</time></trkpt><trkpt lat="45.7072424" lon="11.5717654"><ele>116.0</ele><time>2026-04-26T08:44:29.47Z</time></trkpt><trkpt lat="45.7073943" lon="11.5718597"><ele>116.0</ele><time>2026-04-26T08:44:30.47Z</time></trkpt><trkpt lat="45.7075491" lon="11.5719316"><ele>116.0</ele><time>2026-04-26T08:44:31.47Z</time></trkpt><trkpt lat="45.7077035" lon="11.572005"><ele>116.0</ele><time>2026-04-26T08:44:32.47Z</time></trkpt><trkpt lat="45.7078585" lon="11.5720691"><ele>116.66666666666666</ele><time>2026-04-26T08:44:33.47Z</time></trkpt><trkpt lat="45.7080223" lon="11.5721172"><ele>117.33333333333334</ele><time>2026-04-26T08:44:34.47Z</time></trkpt><trkpt lat="45.7081828" lon="11.5721637"><ele>118.0</ele><time>2026-04-26T08:44:35.47Z</time></trkpt><trkpt lat="45.7083453" lon="11.5722047"><ele>118.0</ele><time>2026-04-26T08:44:36.47Z</time></trkpt><trkpt lat="45.7085047" lon="11.5722426"><ele>118.0</ele><time>2026-04-26T08:44:37.47Z</time></trkpt><trkpt lat="45.7086519" lon="11.5722659"><ele>118.0</ele><time>2026-04-26T08:44:38.47Z</time></trkpt><trkpt lat="45.7088068" lon="11.5722889"><ele>118.75</ele><time>2026-04-26T08:44:39.471Z</time></trkpt><trkpt lat="45.7089543" lon="11.5723096"><ele>119.5</ele><time>2026-04-26T08:44:40.471Z</time></trkpt><trkpt lat="45.7090998" lon="11.5723272"><ele>120.25</ele><time>2026-04-26T08:44:41.47Z</time></trkpt><trkpt lat="45.7092411" lon="11.5723482"><ele>121.0</ele><time>2026-04-26T08:44:42.47Z</time></trkpt><trkpt lat="45.709376" lon="11.5723721"><ele>123.75</ele><time>2026-04-26T08:44:43.47Z</time></trkpt><trkpt lat="45.7095042" lon="11.5723928"><ele>126.5</ele><time>2026-04-26T08:44:44.47Z</time></trkpt><trkpt lat="45.7096247" lon="11.572421"><ele>129.25</ele><time>2026-04-26T08:44:45.47Z</time></trkpt><trkpt lat="45.7097383" lon="11.5724898"><ele>132.0</ele><time>2026-04-26T08:44:46.471Z</time></trkpt><trkpt lat="45.7098191" lon="11.5726231"><ele>132.0</ele><time>2026-04-26T08:44:47.47Z</time></trkpt><trkpt lat="45.7098824" lon="11.5727827"><ele>132.0</ele><time>2026-04-26T08:44:48.471Z</time></trkpt><trkpt lat="45.709939" lon="11.5729562"><ele>132.0</ele><time>2026-04-26T08:44:49.471Z</time></trkpt><trkpt lat="45.7099763" lon="11.573091"><ele>132.0</ele><time>2026-04-26T08:44:50.471Z</time></trkpt><trkpt lat="45.7100253" lon="11.5732419"><ele>131.0</ele><time>2026-04-26T08:44:51.47Z</time></trkpt><trkpt lat="45.7100875" lon="11.5733866"><ele>130.0</ele><time>2026-04-26T08:44:52.47Z</time></trkpt><trkpt lat="45.7101493" lon="11.5735336"><ele>129.0</ele><time>2026-04-26T08:44:53.47Z</time></trkpt><trkpt lat="45.7102003" lon="11.5736889"><ele>128.0</ele><time>2026-04-26T08:44:54.47Z</time></trkpt><trkpt lat="45.7102548" lon="11.5738661"><ele>131.66666666666666</ele><time>2026-04-26T08:44:55.47Z</time></trkpt><trkpt lat="45.7102979" lon="11.5740624"><ele>135.33333333333334</ele><time>2026-04-26T08:44:56.47Z</time></trkpt><trkpt lat="45.7103471" lon="11.5742816"><ele>139.0</ele><time>2026-04-26T08:44:57.471Z</time></trkpt><trkpt lat="45.71039" lon="11.5744807"><ele>137.33333333333334</ele><time>2026-04-26T08:44:58.47Z</time></trkpt><trkpt lat="45.7104543" lon="11.5746933"><ele>135.66666666666666</ele><time>2026-04-26T08:44:59.471Z</time></trkpt><trkpt lat="45.7105243" lon="11.5748963"><ele>134.0</ele><time>2026-04-26T08:45:00.471Z</time></trkpt><trkpt lat="45.7106022" lon="11.5751007"><ele>134.0</ele><time>2026-04-26T08:45:01.47Z</time></trkpt><trkpt lat="45.7106862" lon="11.5752877"><ele>134.0</ele><time>2026-04-26T08:45:02.471Z</time></trkpt><trkpt lat="45.7107869" lon="11.5754745"><ele>134.0</ele><time>2026-04-26T08:45:03.47Z</time></trkpt><trkpt lat="45.7109094" lon="11.5756076"><ele>133.5</ele><time>2026-04-26T08:45:04.471Z</time></trkpt><trkpt lat="45.711029" lon="11.5757034"><ele>133.0</ele><time>2026-04-26T08:45:05.47Z</time></trkpt><trkpt lat="45.711175" lon="11.5757608"><ele>132.5</ele><time>2026-04-26T08:45:06.47Z</time></trkpt><trkpt lat="45.7113284" lon="11.5757732"><ele>132.0</ele><time>2026-04-26T08:45:07.47Z</time></trkpt><trkpt lat="45.7114889" lon="11.575749"><ele>134.0</ele><time>2026-04-26T08:45:08.471Z</time></trkpt><trkpt lat="45.7116558" lon="11.5757102"><ele>136.0</ele><time>2026-04-26T08:45:09.471Z</time></trkpt><trkpt lat="45.7118161" lon="11.5756691"><ele>138.0</ele><time>2026-04-26T08:45:10.47Z</time></trkpt><trkpt lat="45.7119719" lon="11.575622"><ele>140.66666666666666</ele><time>2026-04-26T08:45:11.47Z</time></trkpt><trkpt lat="45.7121339" lon="11.5755786"><ele>143.33333333333331</ele><time>2026-04-26T08:45:12.47Z</time></trkpt><trkpt lat="45.7122879" lon="11.5755359"><ele>146.0</ele><time>2026-04-26T08:45:13.47Z</time></trkpt><trkpt lat="45.7124448" lon="11.5754978"><ele>146.0</ele><time>2026-04-26T08:45:14.47Z</time></trkpt><trkpt lat="45.7125968" lon="11.5754649"><ele>146.0</ele><time>2026-04-26T08:45:15.47Z</time></trkpt><trkpt lat="45.7127413" lon="11.575413"><ele>146.0</ele><time>2026-04-26T08:45:16.471Z</time></trkpt><trkpt lat="45.7128883" lon="11.5753557"><ele>150.0</ele><time>2026-04-26T08:45:17.471Z</time></trkpt><trkpt lat="45.7130342" lon="11.575272"><ele>154.0</ele><time>2026-04-26T08:45:18.471Z</time></trkpt><trkpt lat="45.7131784" lon="11.5751814"><ele>158.0</ele><time>2026-04-26T08:45:19.471Z</time></trkpt><trkpt lat="45.7133281" lon="11.5750966"><ele>158.0</ele><time>2026-04-26T08:45:20.471Z</time></trkpt><trkpt lat="45.7134743" lon="11.5750047"><ele>158.0</ele><time>2026-04-26T08:45:21.47Z</time></trkpt><trkpt lat="45.713622" lon="11.5749025"><ele>158.0</ele><time>2026-04-26T08:45:22.47Z</time></trkpt><trkpt lat="45.7137675" lon="11.5748098"><ele>158.25</ele><time>2026-04-26T08:45:23.47Z</time></trkpt><trkpt lat="45.7139011" lon="11.5747281"><ele>158.5</ele><time>2026-04-26T08:45:24.47Z</time></trkpt><trkpt lat="45.7140213" lon="11.5746653"><ele>158.75</ele><time>2026-04-26T08:45:25.471Z</time></trkpt><trkpt lat="45.7141439" lon="11.574625"><ele>159.0</ele><time>2026-04-26T08:45:26.471Z</time></trkpt><trkpt lat="45.7142648" lon="11.5746026"><ele>159.0</ele><time>2026-04-26T08:45:27.47Z</time></trkpt><trkpt lat="45.7144024" lon="11.57461"><ele>159.0</ele><time>2026-04-26T08:45:28.471Z</time></trkpt><trkpt lat="45.7145343" lon="11.5746336"><ele>159.0</ele><time>2026-04-26T08:45:29.47Z</time></trkpt><trkpt lat="45.714675" lon="11.5746693"><ele>159.0</ele><time>2026-04-26T08:45:30.47Z</time></trkpt><trkpt lat="45.7148089" lon="11.5747161"><ele>159.33333333333334</ele><time>2026-04-26T08:45:31.471Z</time></trkpt><trkpt lat="45.7149567" lon="11.5747744"><ele>159.66666666666669</ele><time>2026-04-26T08:45:32.47Z</time></trkpt><trkpt lat="45.7151006" lon="11.5748274"><ele>160.0</ele><time>2026-04-26T08:45:33.47Z</time></trkpt><trkpt lat="45.7152533" lon="11.5748773"><ele>160.0</ele><time>2026-04-26T08:45:34.47Z</time></trkpt><trkpt lat="45.7154118" lon="11.5749311"><ele>160.0</ele><time>2026-04-26T08:45:35.471Z</time></trkpt><trkpt lat="45.7155652" lon="11.574977"><ele>160.0</ele><time>2026-04-26T08:45:36.47Z</time></trkpt><trkpt lat="45.7157189" lon="11.5750251"><ele>160.0</ele><time>2026-04-26T08:45:37.47Z</time></trkpt><trkpt lat="45.7158834" lon="11.5750814"><ele>160.0</ele><time>2026-04-26T08:45:38.471Z</time></trkpt><trkpt lat="45.7160519" lon="11.5751382"><ele>160.0</ele><time>2026-04-26T08:45:39.471Z</time></trkpt><trkpt lat="45.7162221" lon="11.5751956"><ele>161.0</ele><time>2026-04-26T08:45:40.47Z</time></trkpt><trkpt lat="45.7163784" lon="11.5752725"><ele>162.0</ele><time>2026-04-26T08:45:41.47Z</time></trkpt><trkpt lat="45.7165368" lon="11.5753744"><ele>163.0</ele><time>2026-04-26T08:45:42.47Z</time></trkpt><trkpt lat="45.7166694" lon="11.5755266"><ele>163.0</ele><time>2026-04-26T08:45:43.471Z</time></trkpt><trkpt lat="45.7168064" lon="11.575654"><ele>163.0</ele><time>2026-04-26T08:45:44.471Z</time></trkpt><trkpt lat="45.7169527" lon="11.5757268"><ele>163.0</ele><time>2026-04-26T08:45:45.47Z</time></trkpt><trkpt lat="45.7171169" lon="11.575766"><ele>166.66666666666669</ele><time>2026-04-26T08:45:46.47Z</time></trkpt><trkpt lat="45.7172732" lon="11.5757846"><ele>170.33333333333334</ele><time>2026-04-26T08:45:47.471Z</time></trkpt><trkpt lat="45.7174413" lon="11.5758124"><ele>174.0</ele><time>2026-04-26T08:45:48.47Z</time></trkpt><trkpt lat="45.7176104" lon="11.5758343"><ele>178.33333333333334</ele><time>2026-04-26T08:45:49.471Z</time></trkpt><trkpt lat="45.7177699" lon="11.5758606"><ele>182.66666666666669</ele><time>2026-04-26T08:45:50.47Z</time></trkpt><trkpt lat="45.7179293" lon="11.5759003"><ele>187.0</ele><time>2026-04-26T08:45:51.47Z</time></trkpt><trkpt lat="45.7180975" lon="11.5759422"><ele>187.0</ele><time>2026-04-26T08:45:52.47Z</time></trkpt><trkpt lat="45.7182639" lon="11.5759814"><ele>187.0</ele><time>2026-04-26T08:45:53.47Z</time></trkpt><trkpt lat="45.7184268" lon="11.5760142"><ele>187.0</ele><time>2026-04-26T08:45:54.471Z</time></trkpt><trkpt lat="45.7185887" lon="11.5760566"><ele>189.0</ele><time>2026-04-26T08:45:55.47Z</time></trkpt><trkpt lat="45.7187559" lon="11.5760945"><ele>191.0</ele><time>2026-04-26T08:45:56.47Z</time></trkpt><trkpt lat="45.7189176" lon="11.5761395"><ele>193.0</ele><time>2026-04-26T08:45:57.47Z</time></trkpt><trkpt lat="45.7190786" lon="11.5761832"><ele>192.66666666666666</ele><time>2026-04-26T08:45:58.47Z</time></trkpt><trkpt lat="45.7192319" lon="11.5762377"><ele>192.33333333333331</ele><time>2026-04-26T08:45:59.47Z</time></trkpt><trkpt lat="45.7193868" lon="11.5763232"><ele>192.0</ele><time>2026-04-26T08:46:00.471Z</time></trkpt><trkpt lat="45.7195467" lon="11.5764191"><ele>192.0</ele><time>2026-04-26T08:46:01.47Z</time></trkpt><trkpt lat="45.7196962" lon="11.576522"><ele>192.0</ele><time>2026-04-26T08:46:02.471Z</time></trkpt><trkpt lat="45.7198395" lon="11.5766485"><ele>192.0</ele><time>2026-04-26T08:46:03.47Z</time></trkpt><trkpt lat="45.7199806" lon="11.5767955"><ele>192.0</ele><time>2026-04-26T08:46:04.47Z</time></trkpt><trkpt lat="45.7201241" lon="11.5769378"><ele>192.0</ele><time>2026-04-26T08:46:05.471Z</time></trkpt><trkpt lat="45.7202504" lon="11.5771054"><ele>192.0</ele><time>2026-04-26T08:46:06.47Z</time></trkpt><trkpt lat="45.7203749" lon="11.5772907"><ele>193.0</ele><time>2026-04-26T08:46:07.47Z</time></trkpt><trkpt lat="45.7204934" lon="11.5774783"><ele>194.0</ele><time>2026-04-26T08:46:08.47Z</time></trkpt><trkpt lat="45.7206227" lon="11.5776557"><ele>195.0</ele><time>2026-04-26T08:46:09.47Z</time></trkpt><trkpt lat="45.720756" lon="11.5778159"><ele>195.66666666666669</ele><time>2026-04-26T08:46:10.47Z</time></trkpt><trkpt lat="45.7209033" lon="11.5779612"><ele>196.33333333333334</ele><time>2026-04-26T08:46:11.47Z</time></trkpt><trkpt lat="45.7210515" lon="11.5780858"><ele>197.0</ele><time>2026-04-26T08:46:12.47Z</time></trkpt><trkpt lat="45.721211" lon="11.5781997"><ele>197.0</ele><time>2026-04-26T08:46:13.47Z</time></trkpt><trkpt lat="45.7213759" lon="11.5783101"><ele>197.0</ele><time>2026-04-26T08:46:14.47Z</time></trkpt><trkpt lat="45.721528" lon="11.5784216"><ele>197.0</ele><time>2026-04-26T08:46:15.47Z</time></trkpt><trkpt lat="45.7216846" lon="11.5785445"><ele>195.0</ele><time>2026-04-26T08:46:16.47Z</time></trkpt><trkpt lat="45.7218358" lon="11.5786865"><ele>193.0</ele><time>2026-04-26T08:46:17.47Z</time></trkpt><trkpt lat="45.7219455" lon="11.578874"><ele>191.0</ele><time>2026-04-26T08:46:18.47Z</time></trkpt><trkpt lat="45.722057" lon="11.5790742"><ele>195.0</ele><time>2026-04-26T08:46:19.47Z</time></trkpt><trkpt lat="45.7221752" lon="11.5792685"><ele>199.0</ele><time>2026-04-26T08:46:20.47Z</time></trkpt><trkpt lat="45.7222969" lon="11.57946"><ele>203.0</ele><time>2026-04-26T08:46:21.47Z</time></trkpt><trkpt lat="45.7224319" lon="11.5796222"><ele>203.0</ele><time>2026-04-26T08:46:22.471Z</time></trkpt><trkpt lat="45.7225884" lon="11.5797493"><ele>203.0</ele><time>2026-04-26T08:46:23.47Z</time></trkpt><trkpt lat="45.722756" lon="11.5798565"><ele>203.0</ele><time>2026-04-26T08:46:24.47Z</time></trkpt><trkpt lat="45.7229206" lon="11.5799668"><ele>205.66666666666669</ele><time>2026-04-26T08:46:25.47Z</time></trkpt><trkpt lat="45.7230874" lon="11.5800782"><ele>208.33333333333331</ele><time>2026-04-26T08:46:26.47Z</time></trkpt><trkpt lat="45.7232591" lon="11.5801922"><ele>211.0</ele><time>2026-04-26T08:46:27.47Z</time></trkpt><trkpt lat="45.7234325" lon="11.580309"><ele>211.33333333333331</ele><time>2026-04-26T08:46:28.47Z</time></trkpt><trkpt lat="45.7236201" lon="11.5804164"><ele>211.66666666666669</ele><time>2026-04-26T08:46:29.47Z</time></trkpt><trkpt lat="45.7237957" lon="11.5805306"><ele>212.0</ele><time>2026-04-26T08:46:30.471Z</time></trkpt><trkpt lat="45.723976" lon="11.5806433"><ele>212.0</ele><time>2026-04-26T08:46:31.47Z</time></trkpt><trkpt lat="45.7241494" lon="11.5807449"><ele>212.0</ele><time>2026-04-26T08:46:32.47Z</time></trkpt><trkpt lat="45.7242966" lon="11.5808665"><ele>212.0</ele><time>2026-04-26T08:46:33.471Z</time></trkpt><trkpt lat="45.7244256" lon="11.5810382"><ele>215.0</ele><time>2026-04-26T08:46:34.47Z</time></trkpt><trkpt lat="45.7245228" lon="11.581256"><ele>218.0</ele><time>2026-04-26T08:46:35.471Z</time></trkpt><trkpt lat="45.7246071" lon="11.5814936"><ele>221.0</ele><time>2026-04-26T08:46:36.47Z</time></trkpt><trkpt lat="45.724686" lon="11.5817271"><ele>221.0</ele><time>2026-04-26T08:46:37.471Z</time></trkpt><trkpt lat="45.7247569" lon="11.5819502"><ele>221.0</ele><time>2026-04-26T08:46:38.47Z</time></trkpt><trkpt lat="45.7248293" lon="11.5821602"><ele>221.0</ele><time>2026-04-26T08:46:39.47Z</time></trkpt><trkpt lat="45.7248741" lon="11.5823108"><ele>221.0</ele><time>2026-04-26T08:46:40.47Z</time></trkpt><trkpt lat="45.7249064" lon="11.5824739"><ele>221.5</ele><time>2026-04-26T08:46:41.47Z</time></trkpt><trkpt lat="45.7249045" lon="11.5826516"><ele>222.0</ele><time>2026-04-26T08:46:42.471Z</time></trkpt><trkpt lat="45.7248744" lon="11.5828298"><ele>222.5</ele><time>2026-04-26T08:46:43.47Z</time></trkpt><trkpt lat="45.7248216" lon="11.5829861"><ele>223.0</ele><time>2026-04-26T08:46:44.47Z</time></trkpt><trkpt lat="45.7247799" lon="11.5831345"><ele>224.5</ele><time>2026-04-26T08:46:45.47Z</time></trkpt><trkpt lat="45.7247584" lon="11.5832915"><ele>226.0</ele><time>2026-04-26T08:46:46.47Z</time></trkpt><trkpt lat="45.7247648" lon="11.5834575"><ele>227.5</ele><time>2026-04-26T08:46:47.47Z</time></trkpt><trkpt lat="45.724799" lon="11.5836243"><ele>229.0</ele><time>2026-04-26T08:46:48.47Z</time></trkpt><trkpt lat="45.724853" lon="11.5837884"><ele>229.5</ele><time>2026-04-26T08:46:49.471Z</time></trkpt><trkpt lat="45.7249151" lon="11.5839432"><ele>230.0</ele><time>2026-04-26T08:46:50.471Z</time></trkpt><trkpt lat="45.7249978" lon="11.5840637"><ele>230.5</ele><time>2026-04-26T08:46:51.47Z</time></trkpt><trkpt lat="45.7251003" lon="11.5841353"><ele>231.0</ele><time>2026-04-26T08:46:52.47Z</time></trkpt><trkpt lat="45.7252158" lon="11.5841913"><ele>232.75</ele><time>2026-04-26T08:46:53.47Z</time></trkpt><trkpt lat="45.7253336" lon="11.5842306"><ele>234.5</ele><time>2026-04-26T08:46:54.47Z</time></trkpt><trkpt lat="45.7254518" lon="11.584265"><ele>236.25</ele><time>2026-04-26T08:46:55.47Z</time></trkpt><trkpt lat="45.7255745" lon="11.5843026"><ele>238.0</ele><time>2026-04-26T08:46:56.47Z</time></trkpt><trkpt lat="45.7256972" lon="11.584343"><ele>238.0</ele><time>2026-04-26T08:46:57.47Z</time></trkpt><trkpt lat="45.7258208" lon="11.5843867"><ele>238.0</ele><time>2026-04-26T08:46:58.471Z</time></trkpt><trkpt lat="45.7259501" lon="11.5844264"><ele>238.0</ele><time>2026-04-26T08:46:59.47Z</time></trkpt><trkpt lat="45.7260788" lon="11.5844657"><ele>238.0</ele><time>2026-04-26T08:47:00.47Z</time></trkpt><trkpt lat="45.7262059" lon="11.5845004"><ele>239.75</ele><time>2026-04-26T08:47:01.471Z</time></trkpt><trkpt lat="45.7263358" lon="11.5845443"><ele>241.5</ele><time>2026-04-26T08:47:02.47Z</time></trkpt><trkpt lat="45.7264699" lon="11.5845953"><ele>243.25</ele><time>2026-04-26T08:47:03.47Z</time></trkpt><trkpt lat="45.7265992" lon="11.5846324"><ele>245.0</ele><time>2026-04-26T08:47:04.471Z</time></trkpt><trkpt lat="45.7267203" lon="11.5846582"><ele>245.0</ele><time>2026-04-26T08:47:05.47Z</time></trkpt><trkpt lat="45.726846" lon="11.584661"><ele>245.0</ele><time>2026-04-26T08:47:06.47Z</time></trkpt><trkpt lat="45.7269573" lon="11.5846455"><ele>245.0</ele><time>2026-04-26T08:47:07.471Z</time></trkpt><trkpt lat="45.7270781" lon="11.5846248"><ele>245.0</ele><time>2026-04-26T08:47:08.471Z</time></trkpt><trkpt lat="45.7272001" lon="11.5845912"><ele>245.8</ele><time>2026-04-26T08:47:09.47Z</time></trkpt><trkpt lat="45.7273145" lon="11.5845467"><ele>246.6</ele><time>2026-04-26T08:47:10.471Z</time></trkpt><trkpt lat="45.7274203" lon="11.5845155"><ele>247.39999999999998</ele><time>2026-04-26T08:47:11.47Z</time></trkpt><trkpt lat="45.727525" lon="11.5844802"><ele>248.2</ele><time>2026-04-26T08:47:12.47Z</time></trkpt><trkpt lat="45.7276231" lon="11.5844503"><ele>249.0</ele><time>2026-04-26T08:47:13.471Z</time></trkpt><trkpt lat="45.7277246" lon="11.5844201"><ele>251.2</ele><time>2026-04-26T08:47:14.47Z</time></trkpt><trkpt lat="45.7278202" lon="11.5843943"><ele>253.39999999999998</ele><time>2026-04-26T08:47:15.471Z</time></trkpt><trkpt lat="45.7279173" lon="11.5843654"><ele>255.6</ele><time>2026-04-26T08:47:16.47Z</time></trkpt><trkpt lat="45.7280219" lon="11.5843463"><ele>257.8</ele><time>2026-04-26T08:47:17.47Z</time></trkpt><trkpt lat="45.7281344" lon="11.5843121"><ele>260.0</ele><time>2026-04-26T08:47:18.47Z</time></trkpt><trkpt lat="45.7282427" lon="11.5842819"><ele>260.0</ele><time>2026-04-26T08:47:19.47Z</time></trkpt><trkpt lat="45.7283506" lon="11.5842561"><ele>260.0</ele><time>2026-04-26T08:47:20.47Z</time></trkpt><trkpt lat="45.7284609" lon="11.5842431"><ele>260.0</ele><time>2026-04-26T08:47:21.47Z</time></trkpt><trkpt lat="45.728566" lon="11.5842445"><ele>260.0</ele><time>2026-04-26T08:47:22.471Z</time></trkpt><trkpt lat="45.7286707" lon="11.5842599"><ele>260.0</ele><time>2026-04-26T08:47:23.47Z</time></trkpt><trkpt lat="45.7287702" lon="11.5842719"><ele>262.8</ele><time>2026-04-26T08:47:24.47Z</time></trkpt><trkpt lat="45.7288725" lon="11.5842844"><ele>265.6</ele><time>2026-04-26T08:47:25.47Z</time></trkpt><trkpt lat="45.7289806" lon="11.5842748"><ele>268.4</ele><time>2026-04-26T08:47:26.471Z</time></trkpt><trkpt lat="45.7290879" lon="11.5842676"><ele>271.2</ele><time>2026-04-26T08:47:27.47Z</time></trkpt><trkpt lat="45.7291951" lon="11.5842462"><ele>274.0</ele><time>2026-04-26T08:47:28.47Z</time></trkpt><trkpt lat="45.7293006" lon="11.5842018"><ele>276.0</ele><time>2026-04-26T08:47:29.47Z</time></trkpt><trkpt lat="45.7294041" lon="11.5841344"><ele>278.0</ele><time>2026-04-26T08:47:30.471Z</time></trkpt><trkpt lat="45.7294944" lon="11.5840619"><ele>280.0</ele><time>2026-04-26T08:47:31.47Z</time></trkpt><trkpt lat="45.729581" lon="11.5839967"><ele>282.0</ele><time>2026-04-26T08:47:32.47Z</time></trkpt><trkpt lat="45.7296617" lon="11.5839331"><ele>284.0</ele><time>2026-04-26T08:47:33.471Z</time></trkpt><trkpt lat="45.7297295" lon="11.5838871"><ele>284.0</ele><time>2026-04-26T08:47:34.47Z</time></trkpt><trkpt lat="45.7298127" lon="11.5838297"><ele>284.0</ele><time>2026-04-26T08:47:36.471Z</time></trkpt><trkpt lat="45.7299193" lon="11.5838471"><ele>284.0</ele><time>2026-04-26T08:47:38.47Z</time></trkpt><trkpt lat="45.7299877" lon="11.5838936"><ele>284.0</ele><time>2026-04-26T08:47:39.47Z</time></trkpt><trkpt lat="45.7300664" lon="11.5839376"><ele>284.0</ele><time>2026-04-26T08:47:40.47Z</time></trkpt><trkpt lat="45.7301579" lon="11.5839761"><ele>284.4</ele><time>2026-04-26T08:47:41.47Z</time></trkpt><trkpt lat="45.730253" lon="11.5840124"><ele>284.79999999999995</ele><time>2026-04-26T08:47:42.471Z</time></trkpt><trkpt lat="45.7303337" lon="11.5839991"><ele>285.20000000000005</ele><time>2026-04-26T08:47:43.47Z</time></trkpt><trkpt lat="45.7304291" lon="11.5839744"><ele>285.6</ele><time>2026-04-26T08:47:44.47Z</time></trkpt><trkpt lat="45.7305236" lon="11.5839293"><ele>286.0</ele><time>2026-04-26T08:47:45.471Z</time></trkpt><trkpt lat="45.7306156" lon="11.5838741"><ele>286.0</ele><time>2026-04-26T08:47:46.47Z</time></trkpt><trkpt lat="45.7307149" lon="11.5838008"><ele>286.0</ele><time>2026-04-26T08:47:47.471Z</time></trkpt><trkpt lat="45.7308073" lon="11.5836981"><ele>286.0</ele><time>2026-04-26T08:47:48.471Z</time></trkpt><trkpt lat="45.7308939" lon="11.5835971"><ele>286.0</ele><time>2026-04-26T08:47:49.47Z</time></trkpt><trkpt lat="45.7309819" lon="11.5834701"><ele>285.75</ele><time>2026-04-26T08:47:50.471Z</time></trkpt><trkpt lat="45.7310736" lon="11.5833414"><ele>285.5</ele><time>2026-04-26T08:47:51.471Z</time></trkpt><trkpt lat="45.7311603" lon="11.5832078"><ele>285.25</ele><time>2026-04-26T08:47:52.471Z</time></trkpt><trkpt lat="45.731246" lon="11.5830733"><ele>285.0</ele><time>2026-04-26T08:47:53.47Z</time></trkpt><trkpt lat="45.7313385" lon="11.5829395"><ele>286.0</ele><time>2026-04-26T08:47:54.47Z</time></trkpt><trkpt lat="45.7314344" lon="11.5828198"><ele>287.0</ele><time>2026-04-26T08:47:55.47Z</time></trkpt><trkpt lat="45.7315317" lon="11.5827132"><ele>288.0</ele><time>2026-04-26T08:47:56.47Z</time></trkpt><trkpt lat="45.7316366" lon="11.5826277"><ele>289.0</ele><time>2026-04-26T08:47:57.47Z</time></trkpt><trkpt lat="45.7317597" lon="11.5826047"><ele>289.0</ele><time>2026-04-26T08:47:58.47Z</time></trkpt><trkpt lat="45.7318853" lon="11.5826052"><ele>289.0</ele><time>2026-04-26T08:47:59.471Z</time></trkpt><trkpt lat="45.7320251" lon="11.5826257"><ele>289.0</ele><time>2026-04-26T08:48:00.47Z</time></trkpt><trkpt lat="45.7321661" lon="11.5826526"><ele>289.0</ele><time>2026-04-26T08:48:01.47Z</time></trkpt><trkpt lat="45.7323168" lon="11.5827067"><ele>288.0</ele><time>2026-04-26T08:48:02.47Z</time></trkpt><trkpt lat="45.7324603" lon="11.5827532"><ele>287.0</ele><time>2026-04-26T08:48:03.471Z</time></trkpt><trkpt lat="45.7326044" lon="11.5828049"><ele>286.0</ele><time>2026-04-26T08:48:04.47Z</time></trkpt><trkpt lat="45.732755" lon="11.5828542"><ele>286.0</ele><time>2026-04-26T08:48:05.47Z</time></trkpt><trkpt lat="45.7329037" lon="11.5829092"><ele>286.0</ele><time>2026-04-26T08:48:06.47Z</time></trkpt><trkpt lat="45.733052" lon="11.5829623"><ele>286.0</ele><time>2026-04-26T08:48:07.471Z</time></trkpt><trkpt lat="45.7332005" lon="11.5830161"><ele>286.0</ele><time>2026-04-26T08:48:08.47Z</time></trkpt><trkpt lat="45.7333531" lon="11.5830784"><ele>286.0</ele><time>2026-04-26T08:48:09.471Z</time></trkpt><trkpt lat="45.7335031" lon="11.5831251"><ele>286.0</ele><time>2026-04-26T08:48:10.471Z</time></trkpt><trkpt lat="45.7336546" lon="11.5831852"><ele>286.0</ele><time>2026-04-26T08:48:11.47Z</time></trkpt><trkpt lat="45.7337952" lon="11.5832311"><ele>286.0</ele><time>2026-04-26T08:48:12.471Z</time></trkpt><trkpt lat="45.7339321" lon="11.5832722"><ele>286.0</ele><time>2026-04-26T08:48:13.47Z</time></trkpt><trkpt lat="45.7340678" lon="11.58329"><ele>286.0</ele><time>2026-04-26T08:48:14.47Z</time></trkpt><trkpt lat="45.734204" lon="11.5832885"><ele>286.0</ele><time>2026-04-26T08:48:15.47Z</time></trkpt><trkpt lat="45.7343447" lon="11.5832715"><ele>286.0</ele><time>2026-04-26T08:48:16.47Z</time></trkpt><trkpt lat="45.7344902" lon="11.5831999"><ele>286.0</ele><time>2026-04-26T08:48:17.47Z</time></trkpt><trkpt lat="45.7346296" lon="11.58313"><ele>286.0</ele><time>2026-04-26T08:48:18.47Z</time></trkpt><trkpt lat="45.7347704" lon="11.5830306"><ele>287.3333333333333</ele><time>2026-04-26T08:48:19.47Z</time></trkpt><trkpt lat="45.7349098" lon="11.5829204"><ele>288.6666666666667</ele><time>2026-04-26T08:48:20.47Z</time></trkpt><trkpt lat="45.7350503" lon="11.5828157"><ele>290.0</ele><time>2026-04-26T08:48:21.47Z</time></trkpt><trkpt lat="45.7351827" lon="11.5827177"><ele>291.6666666666667</ele><time>2026-04-26T08:48:22.47Z</time></trkpt><trkpt lat="45.7353185" lon="11.5826212"><ele>293.3333333333333</ele><time>2026-04-26T08:48:23.47Z</time></trkpt><trkpt lat="45.7354557" lon="11.5825358"><ele>295.0</ele><time>2026-04-26T08:48:24.47Z</time></trkpt><trkpt lat="45.735596" lon="11.5824384"><ele>295.0</ele><time>2026-04-26T08:48:25.47Z</time></trkpt><trkpt lat="45.7357211" lon="11.5823397"><ele>295.0</ele><time>2026-04-26T08:48:26.471Z</time></trkpt><trkpt lat="45.7358451" lon="11.5822614"><ele>295.0</ele><time>2026-04-26T08:48:27.47Z</time></trkpt><trkpt lat="45.735988" lon="11.5821764"><ele>295.0</ele><time>2026-04-26T08:48:28.47Z</time></trkpt><trkpt lat="45.7361267" lon="11.5821363"><ele>294.5</ele><time>2026-04-26T08:48:29.471Z</time></trkpt><trkpt lat="45.7362657" lon="11.5821489"><ele>294.0</ele><time>2026-04-26T08:48:30.47Z</time></trkpt><trkpt lat="45.7364035" lon="11.5822025"><ele>293.5</ele><time>2026-04-26T08:48:31.471Z</time></trkpt><trkpt lat="45.736533" lon="11.5822628"><ele>293.0</ele><time>2026-04-26T08:48:32.47Z</time></trkpt><trkpt lat="45.7366559" lon="11.582331"><ele>293.0</ele><time>2026-04-26T08:48:33.47Z</time></trkpt><trkpt lat="45.736784" lon="11.5823954"><ele>293.0</ele><time>2026-04-26T08:48:34.47Z</time></trkpt><trkpt lat="45.7369236" lon="11.5824444"><ele>293.0</ele><time>2026-04-26T08:48:35.471Z</time></trkpt><trkpt lat="45.737062" lon="11.5824635"><ele>293.0</ele><time>2026-04-26T08:48:36.47Z</time></trkpt><trkpt lat="45.7372075" lon="11.5824479"><ele>293.5</ele><time>2026-04-26T08:48:37.47Z</time></trkpt><trkpt lat="45.7373536" lon="11.5824127"><ele>294.0</ele><time>2026-04-26T08:48:38.47Z</time></trkpt><trkpt lat="45.7375011" lon="11.5823725"><ele>294.5</ele><time>2026-04-26T08:48:39.47Z</time></trkpt><trkpt lat="45.7376441" lon="11.5823391"><ele>295.0</ele><time>2026-04-26T08:48:40.47Z</time></trkpt><trkpt lat="45.7377784" lon="11.5823231"><ele>296.0</ele><time>2026-04-26T08:48:41.47Z</time></trkpt><trkpt lat="45.7379136" lon="11.5823241"><ele>297.0</ele><time>2026-04-26T08:48:42.47Z</time></trkpt><trkpt lat="45.738032" lon="11.5823289"><ele>298.0</ele><time>2026-04-26T08:48:43.47Z</time></trkpt><trkpt lat="45.7381476" lon="11.5823389"><ele>299.0</ele><time>2026-04-26T08:48:44.47Z</time></trkpt><trkpt lat="45.7382593" lon="11.582362"><ele>299.0</ele><time>2026-04-26T08:48:45.47Z</time></trkpt><trkpt lat="45.7383692" lon="11.582395"><ele>299.0</ele><time>2026-04-26T08:48:46.47Z</time></trkpt><trkpt lat="45.73848" lon="11.5824503"><ele>299.0</ele><time>2026-04-26T08:48:47.471Z</time></trkpt><trkpt lat="45.7385865" lon="11.5824954"><ele>299.0</ele><time>2026-04-26T08:48:48.47Z</time></trkpt><trkpt lat="45.7387014" lon="11.5825147"><ele>298.0</ele><time>2026-04-26T08:48:49.47Z</time></trkpt><trkpt lat="45.7388173" lon="11.5825031"><ele>297.0</ele><time>2026-04-26T08:48:50.47Z</time></trkpt><trkpt lat="45.7389239" lon="11.5824646"><ele>296.0</ele><time>2026-04-26T08:48:51.47Z</time></trkpt><trkpt lat="45.7390376" lon="11.5824056"><ele>295.0</ele><time>2026-04-26T08:48:52.471Z</time></trkpt><trkpt lat="45.7391342" lon="11.5823132"><ele>295.0</ele><time>2026-04-26T08:48:53.47Z</time></trkpt><trkpt lat="45.7391858" lon="11.5821779"><ele>295.0</ele><time>2026-04-26T08:48:54.471Z</time></trkpt><trkpt lat="45.739253" lon="11.5820284"><ele>295.0</ele><time>2026-04-26T08:48:55.471Z</time></trkpt><trkpt lat="45.7393219" lon="11.5818798"><ele>295.0</ele><time>2026-04-26T08:48:56.47Z</time></trkpt><trkpt lat="45.7394007" lon="11.5817484"><ele>292.0</ele><time>2026-04-26T08:48:57.47Z</time></trkpt><trkpt lat="45.7394998" lon="11.5816247"><ele>289.0</ele><time>2026-04-26T08:48:58.47Z</time></trkpt><trkpt lat="45.7396044" lon="11.5815341"><ele>286.0</ele><time>2026-04-26T08:48:59.47Z</time></trkpt><trkpt lat="45.7396925" lon="11.5814623"><ele>283.0</ele><time>2026-04-26T08:49:00.47Z</time></trkpt><trkpt lat="45.7397797" lon="11.5813842"><ele>283.0</ele><time>2026-04-26T08:49:01.47Z</time></trkpt><trkpt lat="45.7398549" lon="11.5812754"><ele>283.0</ele><time>2026-04-26T08:49:02.471Z</time></trkpt><trkpt lat="45.7399176" lon="11.5811374"><ele>283.0</ele><time>2026-04-26T08:49:03.47Z</time></trkpt><trkpt lat="45.7399801" lon="11.5809826"><ele>283.0</ele><time>2026-04-26T08:49:04.47Z</time></trkpt><trkpt lat="45.7400322" lon="11.5808392"><ele>285.5</ele><time>2026-04-26T08:49:05.47Z</time></trkpt><trkpt lat="45.7401037" lon="11.5807216"><ele>288.0</ele><time>2026-04-26T08:49:06.47Z</time></trkpt><trkpt lat="45.7401984" lon="11.5805983"><ele>290.5</ele><time>2026-04-26T08:49:07.47Z</time></trkpt><trkpt lat="45.7403166" lon="11.580476"><ele>293.0</ele><time>2026-04-26T08:49:08.47Z</time></trkpt><trkpt lat="45.7404635" lon="11.5803551"><ele>291.33333333333337</ele><time>2026-04-26T08:49:09.471Z</time></trkpt><trkpt lat="45.7406264" lon="11.5802282"><ele>289.6666666666667</ele><time>2026-04-26T08:49:10.471Z</time></trkpt><trkpt lat="45.7408136" lon="11.5801239"><ele>288.0</ele><time>2026-04-26T08:49:11.471Z</time></trkpt><trkpt lat="45.7410157" lon="11.5800382"><ele>286.6666666666667</ele><time>2026-04-26T08:49:12.47Z</time></trkpt><trkpt lat="45.741212" lon="11.5799648"><ele>285.33333333333337</ele><time>2026-04-26T08:49:13.47Z</time></trkpt><trkpt lat="45.7413957" lon="11.57991"><ele>284.0</ele><time>2026-04-26T08:49:14.47Z</time></trkpt><trkpt lat="45.7415719" lon="11.5798602"><ele>284.0</ele><time>2026-04-26T08:49:15.47Z</time></trkpt><trkpt lat="45.7417418" lon="11.5798384"><ele>284.0</ele><time>2026-04-26T08:49:16.471Z</time></trkpt><trkpt lat="45.7419084" lon="11.5798642"><ele>284.0</ele><time>2026-04-26T08:49:17.47Z</time></trkpt><trkpt lat="45.7420699" lon="11.579922"><ele>285.6666666666667</ele><time>2026-04-26T08:49:18.47Z</time></trkpt><trkpt lat="45.742222" lon="11.5799659"><ele>287.3333333333333</ele><time>2026-04-26T08:49:19.47Z</time></trkpt><trkpt lat="45.7423713" lon="11.5799816"><ele>289.0</ele><time>2026-04-26T08:49:20.47Z</time></trkpt><trkpt lat="45.742518" lon="11.5799623"><ele>289.0</ele><time>2026-04-26T08:49:21.471Z</time></trkpt><trkpt lat="45.7426571" lon="11.5798757"><ele>289.0</ele><time>2026-04-26T08:49:22.47Z</time></trkpt><trkpt lat="45.7427989" lon="11.5797722"><ele>289.0</ele><time>2026-04-26T08:49:23.471Z</time></trkpt><trkpt lat="45.7429342" lon="11.5796514"><ele>289.3333333333333</ele><time>2026-04-26T08:49:24.471Z</time></trkpt><trkpt lat="45.7430472" lon="11.5794746"><ele>289.6666666666667</ele><time>2026-04-26T08:49:25.47Z</time></trkpt><trkpt lat="45.7431543" lon="11.5792735"><ele>290.0</ele><time>2026-04-26T08:49:26.47Z</time></trkpt><trkpt lat="45.7432388" lon="11.5790787"><ele>290.0</ele><time>2026-04-26T08:49:27.47Z</time></trkpt><trkpt lat="45.743328" lon="11.5789082"><ele>290.0</ele><time>2026-04-26T08:49:28.47Z</time></trkpt><trkpt lat="45.7434366" lon="11.5787778"><ele>290.0</ele><time>2026-04-26T08:49:29.47Z</time></trkpt><trkpt lat="45.7435629" lon="11.5786764"><ele>290.0</ele><time>2026-04-26T08:49:30.471Z</time></trkpt><trkpt lat="45.7437017" lon="11.5785831"><ele>291.6666666666667</ele><time>2026-04-26T08:49:31.47Z</time></trkpt><trkpt lat="45.7438456" lon="11.5784918"><ele>293.3333333333333</ele><time>2026-04-26T08:49:32.47Z</time></trkpt><trkpt lat="45.7439877" lon="11.578401"><ele>295.0</ele><time>2026-04-26T08:49:33.47Z</time></trkpt><trkpt lat="45.7441312" lon="11.5783128"><ele>295.0</ele><time>2026-04-26T08:49:34.471Z</time></trkpt><trkpt lat="45.7442679" lon="11.5782354"><ele>295.0</ele><time>2026-04-26T08:49:35.47Z</time></trkpt><trkpt lat="45.7443883" lon="11.5781531"><ele>295.0</ele><time>2026-04-26T08:49:36.471Z</time></trkpt><trkpt lat="45.7444954" lon="11.5780471"><ele>295.0</ele><time>2026-04-26T08:49:37.47Z</time></trkpt><trkpt lat="45.7445879" lon="11.5779101"><ele>294.0</ele><time>2026-04-26T08:49:38.47Z</time></trkpt><trkpt lat="45.7446537" lon="11.5777353"><ele>293.0</ele><time>2026-04-26T08:49:39.471Z</time></trkpt><trkpt lat="45.7447045" lon="11.5775247"><ele>292.0</ele><time>2026-04-26T08:49:40.47Z</time></trkpt><trkpt lat="45.744745" lon="11.5773022"><ele>292.0</ele><time>2026-04-26T08:49:41.47Z</time></trkpt><trkpt lat="45.7447855" lon="11.5770768"><ele>292.0</ele><time>2026-04-26T08:49:42.47Z</time></trkpt><trkpt lat="45.7448297" lon="11.5768471"><ele>292.0</ele><time>2026-04-26T08:49:43.47Z</time></trkpt><trkpt lat="45.7448745" lon="11.5766177"><ele>292.3333333333333</ele><time>2026-04-26T08:49:44.47Z</time></trkpt><trkpt lat="45.7449267" lon="11.576382"><ele>292.6666666666667</ele><time>2026-04-26T08:49:45.47Z</time></trkpt><trkpt lat="45.7449878" lon="11.5761574"><ele>293.0</ele><time>2026-04-26T08:49:46.471Z</time></trkpt><trkpt lat="45.7450652" lon="11.5759318"><ele>293.0</ele><time>2026-04-26T08:49:47.471Z</time></trkpt><trkpt lat="45.7451525" lon="11.5756987"><ele>293.0</ele><time>2026-04-26T08:49:48.471Z</time></trkpt><trkpt lat="45.7452368" lon="11.5754719"><ele>293.0</ele><time>2026-04-26T08:49:49.47Z</time></trkpt><trkpt lat="45.745298" lon="11.5752379"><ele>298.0</ele><time>2026-04-26T08:49:50.47Z</time></trkpt><trkpt lat="45.7453521" lon="11.5749806"><ele>303.0</ele><time>2026-04-26T08:49:51.47Z</time></trkpt><trkpt lat="45.7453993" lon="11.5747245"><ele>308.0</ele><time>2026-04-26T08:49:52.471Z</time></trkpt><trkpt lat="45.7454361" lon="11.5744693"><ele>308.33333333333337</ele><time>2026-04-26T08:49:53.47Z</time></trkpt><trkpt lat="45.7454661" lon="11.5742139"><ele>308.6666666666667</ele><time>2026-04-26T08:49:54.47Z</time></trkpt><trkpt lat="45.7454948" lon="11.5739658"><ele>309.0</ele><time>2026-04-26T08:49:55.471Z</time></trkpt><trkpt lat="45.7455253" lon="11.5737394"><ele>308.0</ele><time>2026-04-26T08:49:56.471Z</time></trkpt><trkpt lat="45.7455583" lon="11.5735359"><ele>307.0</ele><time>2026-04-26T08:49:57.47Z</time></trkpt><trkpt lat="45.7455852" lon="11.573343"><ele>306.0</ele><time>2026-04-26T08:49:58.47Z</time></trkpt><trkpt lat="45.7456406" lon="11.5731948"><ele>305.0</ele><time>2026-04-26T08:49:59.47Z</time></trkpt><trkpt lat="45.7457234" lon="11.5730801"><ele>305.0</ele><time>2026-04-26T08:50:00.47Z</time></trkpt><trkpt lat="45.7458249" lon="11.5730233"><ele>305.0</ele><time>2026-04-26T08:50:01.471Z</time></trkpt><trkpt lat="45.7459361" lon="11.5730427"><ele>305.0</ele><time>2026-04-26T08:50:02.471Z</time></trkpt><trkpt lat="45.7460501" lon="11.5731192"><ele>305.0</ele><time>2026-04-26T08:50:03.47Z</time></trkpt><trkpt lat="45.7461322" lon="11.5732549"><ele>305.25</ele><time>2026-04-26T08:50:04.471Z</time></trkpt><trkpt lat="45.7462214" lon="11.5734118"><ele>305.5</ele><time>2026-04-26T08:50:05.47Z</time></trkpt><trkpt lat="45.7463181" lon="11.5735674"><ele>305.75</ele><time>2026-04-26T08:50:06.471Z</time></trkpt><trkpt lat="45.7464469" lon="11.5736985"><ele>306.0</ele><time>2026-04-26T08:50:07.47Z</time></trkpt><trkpt lat="45.7466007" lon="11.573787"><ele>309.6666666666667</ele><time>2026-04-26T08:50:08.471Z</time></trkpt><trkpt lat="45.7467737" lon="11.5738401"><ele>313.33333333333337</ele><time>2026-04-26T08:50:09.471Z</time></trkpt><trkpt lat="45.7469469" lon="11.5738754"><ele>317.0</ele><time>2026-04-26T08:50:10.47Z</time></trkpt><trkpt lat="45.7471185" lon="11.5738823"><ele>318.6666666666667</ele><time>2026-04-26T08:50:11.47Z</time></trkpt><trkpt lat="45.7472948" lon="11.5738905"><ele>320.3333333333333</ele><time>2026-04-26T08:50:12.47Z</time></trkpt><trkpt lat="45.7474751" lon="11.5738914"><ele>322.0</ele><time>2026-04-26T08:50:13.47Z</time></trkpt><trkpt lat="45.7476472" lon="11.5738895"><ele>323.3333333333333</ele><time>2026-04-26T08:50:14.47Z</time></trkpt><trkpt lat="45.7478207" lon="11.5738896"><ele>324.6666666666667</ele><time>2026-04-26T08:50:15.47Z</time></trkpt><trkpt lat="45.7479846" lon="11.5739021"><ele>326.0</ele><time>2026-04-26T08:50:16.471Z</time></trkpt><trkpt lat="45.7481376" lon="11.5739565"><ele>326.0</ele><time>2026-04-26T08:50:17.471Z</time></trkpt><trkpt lat="45.7482891" lon="11.574026"><ele>326.0</ele><time>2026-04-26T08:50:18.471Z</time></trkpt><trkpt lat="45.7484192" lon="11.5741347"><ele>326.0</ele><time>2026-04-26T08:50:19.471Z</time></trkpt><trkpt lat="45.7485516" lon="11.5742649"><ele>328.75</ele><time>2026-04-26T08:50:20.471Z</time></trkpt><trkpt lat="45.7486764" lon="11.5743516"><ele>331.5</ele><time>2026-04-26T08:50:21.471Z</time></trkpt><trkpt lat="45.7488178" lon="11.5743944"><ele>334.25</ele><time>2026-04-26T08:50:22.47Z</time></trkpt><trkpt lat="45.7489668" lon="11.5744077"><ele>337.0</ele><time>2026-04-26T08:50:23.471Z</time></trkpt><trkpt lat="45.749122" lon="11.5743543"><ele>337.0</ele><time>2026-04-26T08:50:24.471Z</time></trkpt><trkpt lat="45.7492403" lon="11.5742654"><ele>337.0</ele><time>2026-04-26T08:50:25.47Z</time></trkpt><trkpt lat="45.7493303" lon="11.574142"><ele>337.0</ele><time>2026-04-26T08:50:26.47Z</time></trkpt><trkpt lat="45.749374" lon="11.5737826"><ele>342.3333333333333</ele><time>2026-04-26T08:50:27.471Z</time></trkpt><trkpt lat="45.7494238" lon="11.5735313"><ele>347.6666666666667</ele><time>2026-04-26T08:50:28.47Z</time></trkpt><trkpt lat="45.749469" lon="11.57325"><ele>353.0</ele><time>2026-04-26T08:50:29.471Z</time></trkpt><trkpt lat="45.7494691" lon="11.5730286"><ele>352.0</ele><time>2026-04-26T08:50:30.47Z</time></trkpt><trkpt lat="45.7495083" lon="11.5728307"><ele>351.0</ele><time>2026-04-26T08:50:31.471Z</time></trkpt><trkpt lat="45.7495444" lon="11.5726464"><ele>350.0</ele><time>2026-04-26T08:50:32.47Z</time></trkpt><trkpt lat="45.7496208" lon="11.5724823"><ele>349.0</ele><time>2026-04-26T08:50:33.47Z</time></trkpt><trkpt lat="45.7497141" lon="11.5723582"><ele>349.0</ele><time>2026-04-26T08:50:34.47Z</time></trkpt><trkpt lat="45.7498271" lon="11.5722707"><ele>349.0</ele><time>2026-04-26T08:50:35.47Z</time></trkpt><trkpt lat="45.7499533" lon="11.5722587"><ele>349.0</ele><time>2026-04-26T08:50:36.47Z</time></trkpt><trkpt lat="45.7500753" lon="11.5723225"><ele>349.0</ele><time>2026-04-26T08:50:37.471Z</time></trkpt><trkpt lat="45.7501831" lon="11.5724439"><ele>350.0</ele><time>2026-04-26T08:50:38.47Z</time></trkpt><trkpt lat="45.7503059" lon="11.5725808"><ele>351.0</ele><time>2026-04-26T08:50:39.47Z</time></trkpt><trkpt lat="45.7504274" lon="11.5727295"><ele>352.0</ele><time>2026-04-26T08:50:40.47Z</time></trkpt><trkpt lat="45.7505604" lon="11.5728686"><ele>352.0</ele><time>2026-04-26T08:50:41.47Z</time></trkpt><trkpt lat="45.7506837" lon="11.5730045"><ele>352.0</ele><time>2026-04-26T08:50:42.47Z</time></trkpt><trkpt lat="45.7507956" lon="11.5731395"><ele>352.0</ele><time>2026-04-26T08:50:43.47Z</time></trkpt><trkpt lat="45.7508387" lon="11.5733264"><ele>352.0</ele><time>2026-04-26T08:50:44.47Z</time></trkpt><trkpt lat="45.7508648" lon="11.5735165"><ele>352.5</ele><time>2026-04-26T08:50:45.47Z</time></trkpt><trkpt lat="45.7508995" lon="11.5737247"><ele>353.0</ele><time>2026-04-26T08:50:46.47Z</time></trkpt><trkpt lat="45.7509464" lon="11.5739132"><ele>353.5</ele><time>2026-04-26T08:50:47.471Z</time></trkpt><trkpt lat="45.7510384" lon="11.5740393"><ele>354.0</ele><time>2026-04-26T08:50:48.47Z</time></trkpt><trkpt lat="45.751163" lon="11.5741337"><ele>354.0</ele><time>2026-04-26T08:50:49.47Z</time></trkpt><trkpt lat="45.7512845" lon="11.5741818"><ele>354.0</ele><time>2026-04-26T08:50:50.47Z</time></trkpt><trkpt lat="45.7514191" lon="11.5741299"><ele>354.0</ele><time>2026-04-26T08:50:51.47Z</time></trkpt><trkpt lat="45.7515544" lon="11.5740991"><ele>354.0</ele><time>2026-04-26T08:50:52.47Z</time></trkpt><trkpt lat="45.7516746" lon="11.5740625"><ele>354.0</ele><time>2026-04-26T08:50:53.47Z</time></trkpt><trkpt lat="45.7517931" lon="11.5740293"><ele>354.0</ele><time>2026-04-26T08:50:54.471Z</time></trkpt><trkpt lat="45.7519047" lon="11.5740083"><ele>354.0</ele><time>2026-04-26T08:50:55.47Z</time></trkpt><trkpt lat="45.7520095" lon="11.5739884"><ele>354.0</ele><time>2026-04-26T08:50:56.471Z</time></trkpt><trkpt lat="45.7521127" lon="11.5739595"><ele>354.0</ele><time>2026-04-26T08:50:57.47Z</time></trkpt><trkpt lat="45.7522257" lon="11.5739286"><ele>353.79999999999995</ele><time>2026-04-26T08:50:58.471Z</time></trkpt><trkpt lat="45.7523261" lon="11.5739053"><ele>353.59999999999997</ele><time>2026-04-26T08:50:59.47Z</time></trkpt><trkpt lat="45.7524193" lon="11.5738707"><ele>353.4</ele><time>2026-04-26T08:51:00.47Z</time></trkpt><trkpt lat="45.7525045" lon="11.5738151"><ele>353.2</ele><time>2026-04-26T08:51:01.471Z</time></trkpt><trkpt lat="45.7525676" lon="11.5737501"><ele>353.0</ele><time>2026-04-26T08:51:02.47Z</time></trkpt><trkpt lat="45.7526609" lon="11.5736719"><ele>353.5</ele><time>2026-04-26T08:51:03.47Z</time></trkpt><trkpt lat="45.7527131" lon="11.5735812"><ele>354.0</ele><time>2026-04-26T08:51:04.471Z</time></trkpt><trkpt lat="45.7527867" lon="11.5734848"><ele>354.5</ele><time>2026-04-26T08:51:05.47Z</time></trkpt><trkpt lat="45.7528489" lon="11.5733867"><ele>355.0</ele><time>2026-04-26T08:51:06.47Z</time></trkpt><trkpt lat="45.7528898" lon="11.5732733"><ele>355.5</ele><time>2026-04-26T08:51:07.471Z</time></trkpt><trkpt lat="45.7529268" lon="11.5731718"><ele>356.0</ele><time>2026-04-26T08:51:08.47Z</time></trkpt><trkpt lat="45.7529641" lon="11.5730676"><ele>356.0</ele><time>2026-04-26T08:51:09.471Z</time></trkpt><trkpt lat="45.7530114" lon="11.5729533"><ele>356.0</ele><time>2026-04-26T08:51:10.471Z</time></trkpt><trkpt lat="45.7530629" lon="11.5728524"><ele>356.0</ele><time>2026-04-26T08:51:11.471Z</time></trkpt><trkpt lat="45.753128" lon="11.5727339"><ele>356.0</ele><time>2026-04-26T08:51:12.471Z</time></trkpt><trkpt lat="45.7531873" lon="11.5725912"><ele>356.0</ele><time>2026-04-26T08:51:13.47Z</time></trkpt><trkpt lat="45.7532523" lon="11.57246"><ele>360.6</ele><time>2026-04-26T08:51:14.471Z</time></trkpt><trkpt lat="45.7533257" lon="11.5723483"><ele>365.20000000000005</ele><time>2026-04-26T08:51:15.471Z</time></trkpt><trkpt lat="45.7533684" lon="11.5722753"><ele>369.79999999999995</ele><time>2026-04-26T08:51:16.47Z</time></trkpt><trkpt lat="45.7534229" lon="11.5721795"><ele>374.4</ele><time>2026-04-26T08:51:18.47Z</time></trkpt><trkpt lat="45.7535246" lon="11.5720586"><ele>379.0</ele><time>2026-04-26T08:51:20.471Z</time></trkpt><trkpt lat="45.7535949" lon="11.5719804"><ele>379.6</ele><time>2026-04-26T08:51:21.471Z</time></trkpt><trkpt lat="45.7536517" lon="11.5718709"><ele>380.2</ele><time>2026-04-26T08:51:22.47Z</time></trkpt><trkpt lat="45.753733" lon="11.5717636"><ele>380.8</ele><time>2026-04-26T08:51:23.47Z</time></trkpt><trkpt lat="45.7538154" lon="11.5716602"><ele>381.40000000000003</ele><time>2026-04-26T08:51:24.47Z</time></trkpt><trkpt lat="45.7538854" lon="11.5715498"><ele>382.0</ele><time>2026-04-26T08:51:25.471Z</time></trkpt><trkpt lat="45.7539288" lon="11.5714419"><ele>382.0</ele><time>2026-04-26T08:51:26.47Z</time></trkpt><trkpt lat="45.753962" lon="11.5713228"><ele>382.0</ele><time>2026-04-26T08:51:27.47Z</time></trkpt><trkpt lat="45.7540021" lon="11.5711981"><ele>382.0</ele><time>2026-04-26T08:51:28.47Z</time></trkpt><trkpt lat="45.7540624" lon="11.5711199"><ele>382.0</ele><time>2026-04-26T08:51:29.47Z</time></trkpt><trkpt lat="45.7540914" lon="11.5710249"><ele>382.0</ele><time>2026-04-26T08:51:30.47Z</time></trkpt><trkpt lat="45.7541171" lon="11.5709276"><ele>382.0</ele><time>2026-04-26T08:51:31.471Z</time></trkpt><trkpt lat="45.7541461" lon="11.5708215"><ele>384.0</ele><time>2026-04-26T08:51:32.47Z</time></trkpt><trkpt lat="45.7541789" lon="11.5707192"><ele>386.0</ele><time>2026-04-26T08:51:33.47Z</time></trkpt><trkpt lat="45.754204" lon="11.5706168"><ele>388.0</ele><time>2026-04-26T08:51:34.47Z</time></trkpt><trkpt lat="45.7542317" lon="11.5705143"><ele>390.0</ele><time>2026-04-26T08:51:35.47Z</time></trkpt><trkpt lat="45.7542637" lon="11.5704115"><ele>392.00000000000006</ele><time>2026-04-26T08:51:36.47Z</time></trkpt><trkpt lat="45.7543088" lon="11.5703165"><ele>394.0</ele><time>2026-04-26T08:51:37.47Z</time></trkpt><trkpt lat="45.7543703" lon="11.5702302"><ele>396.79999999999995</ele><time>2026-04-26T08:51:38.47Z</time></trkpt><trkpt lat="45.754438" lon="11.5701526"><ele>399.59999999999997</ele><time>2026-04-26T08:51:39.47Z</time></trkpt><trkpt lat="45.7545142" lon="11.5700803"><ele>402.4</ele><time>2026-04-26T08:51:40.47Z</time></trkpt><trkpt lat="45.7546011" lon="11.5700082"><ele>405.2</ele><time>2026-04-26T08:51:41.471Z</time></trkpt><trkpt lat="45.7546938" lon="11.5699484"><ele>408.0</ele><time>2026-04-26T08:51:42.47Z</time></trkpt><trkpt lat="45.7547927" lon="11.5699002"><ele>408.0</ele><time>2026-04-26T08:51:43.47Z</time></trkpt><trkpt lat="45.7549012" lon="11.5698584"><ele>408.0</ele><time>2026-04-26T08:51:44.47Z</time></trkpt><trkpt lat="45.7550115" lon="11.5698166"><ele>408.0</ele><time>2026-04-26T08:51:45.47Z</time></trkpt><trkpt lat="45.7551094" lon="11.5697814"><ele>408.0</ele><time>2026-04-26T08:51:46.471Z</time></trkpt><trkpt lat="45.7551841" lon="11.5697596"><ele>408.0</ele><time>2026-04-26T08:51:47.47Z</time></trkpt><trkpt lat="45.7552652" lon="11.5697334"><ele>407.2</ele><time>2026-04-26T08:51:48.47Z</time></trkpt><trkpt lat="45.7553413" lon="11.5696977"><ele>406.4</ele><time>2026-04-26T08:51:49.47Z</time></trkpt><trkpt lat="45.7554249" lon="11.569658"><ele>405.59999999999997</ele><time>2026-04-26T08:51:50.47Z</time></trkpt><trkpt lat="45.7555139" lon="11.5696074"><ele>404.79999999999995</ele><time>2026-04-26T08:51:51.47Z</time></trkpt><trkpt lat="45.7556052" lon="11.5695484"><ele>404.0</ele><time>2026-04-26T08:51:52.471Z</time></trkpt><trkpt lat="45.7556929" lon="11.5694964"><ele>404.0</ele><time>2026-04-26T08:51:53.47Z</time></trkpt><trkpt lat="45.7557741" lon="11.5694452"><ele>404.0</ele><time>2026-04-26T08:51:54.47Z</time></trkpt><trkpt lat="45.7558492" lon="11.5693817"><ele>404.0</ele><time>2026-04-26T08:51:55.47Z</time></trkpt><trkpt lat="45.755934" lon="11.5693224"><ele>404.0</ele><time>2026-04-26T08:51:56.47Z</time></trkpt><trkpt lat="45.7560174" lon="11.5692669"><ele>404.0</ele><time>2026-04-26T08:51:57.471Z</time></trkpt><trkpt lat="45.7560974" lon="11.5692085"><ele>403.8333333333333</ele><time>2026-04-26T08:51:58.47Z</time></trkpt><trkpt lat="45.7561721" lon="11.5691688"><ele>403.66666666666663</ele><time>2026-04-26T08:51:59.47Z</time></trkpt><trkpt lat="45.756249" lon="11.5691149"><ele>403.5</ele><time>2026-04-26T08:52:00.47Z</time></trkpt><trkpt lat="45.7563249" lon="11.5690648"><ele>403.33333333333337</ele><time>2026-04-26T08:52:01.47Z</time></trkpt><trkpt lat="45.7564116" lon="11.569015"><ele>403.1666666666667</ele><time>2026-04-26T08:52:02.471Z</time></trkpt><trkpt lat="45.7565046" lon="11.5689526"><ele>403.0</ele><time>2026-04-26T08:52:03.47Z</time></trkpt><trkpt lat="45.7565959" lon="11.5688746"><ele>403.0</ele><time>2026-04-26T08:52:04.47Z</time></trkpt><trkpt lat="45.7566886" lon="11.5687944"><ele>403.0</ele><time>2026-04-26T08:52:05.47Z</time></trkpt><trkpt lat="45.7567773" lon="11.5686969"><ele>403.0</ele><time>2026-04-26T08:52:06.47Z</time></trkpt><trkpt lat="45.7568668" lon="11.5686146"><ele>403.0</ele><time>2026-04-26T08:52:07.471Z</time></trkpt><trkpt lat="45.756962" lon="11.5685431"><ele>403.0</ele><time>2026-04-26T08:52:08.47Z</time></trkpt><trkpt lat="45.7570653" lon="11.5684709"><ele>403.25</ele><time>2026-04-26T08:52:09.47Z</time></trkpt><trkpt lat="45.7571767" lon="11.5684035"><ele>403.5</ele><time>2026-04-26T08:52:10.47Z</time></trkpt><trkpt lat="45.7572847" lon="11.5683538"><ele>403.75</ele><time>2026-04-26T08:52:11.47Z</time></trkpt><trkpt lat="45.7574114" lon="11.5683283"><ele>404.0</ele><time>2026-04-26T08:52:12.47Z</time></trkpt><trkpt lat="45.7575337" lon="11.5683073"><ele>404.0</ele><time>2026-04-26T08:52:13.47Z</time></trkpt><trkpt lat="45.757664" lon="11.5682803"><ele>404.0</ele><time>2026-04-26T08:52:14.47Z</time></trkpt><trkpt lat="45.7577905" lon="11.5682647"><ele>404.0</ele><time>2026-04-26T08:52:15.47Z</time></trkpt><trkpt lat="45.7579255" lon="11.5682478"><ele>404.0</ele><time>2026-04-26T08:52:16.47Z</time></trkpt><trkpt lat="45.758058" lon="11.5682254"><ele>406.0</ele><time>2026-04-26T08:52:17.47Z</time></trkpt><trkpt lat="45.7581838" lon="11.5681843"><ele>408.0</ele><time>2026-04-26T08:52:18.47Z</time></trkpt><trkpt lat="45.7583056" lon="11.5681393"><ele>410.0</ele><time>2026-04-26T08:52:19.47Z</time></trkpt><trkpt lat="45.7584368" lon="11.5680716"><ele>412.0</ele><time>2026-04-26T08:52:20.47Z</time></trkpt><trkpt lat="45.7585625" lon="11.5679876"><ele>413.0</ele><time>2026-04-26T08:52:21.471Z</time></trkpt><trkpt lat="45.7586878" lon="11.5678838"><ele>414.0</ele><time>2026-04-26T08:52:22.47Z</time></trkpt><trkpt lat="45.7588069" lon="11.5677577"><ele>415.0</ele><time>2026-04-26T08:52:23.47Z</time></trkpt><trkpt lat="45.7589271" lon="11.5676235"><ele>416.0</ele><time>2026-04-26T08:52:24.471Z</time></trkpt><trkpt lat="45.759047" lon="11.5674814"><ele>416.0</ele><time>2026-04-26T08:52:25.47Z</time></trkpt><trkpt lat="45.7591732" lon="11.5673444"><ele>416.0</ele><time>2026-04-26T08:52:26.47Z</time></trkpt><trkpt lat="45.759301" lon="11.5672042"><ele>416.0</ele><time>2026-04-26T08:52:27.471Z</time></trkpt><trkpt lat="45.7594262" lon="11.5670599"><ele>419.3333333333333</ele><time>2026-04-26T08:52:28.47Z</time></trkpt><trkpt lat="45.7595569" lon="11.5669089"><ele>422.66666666666663</ele><time>2026-04-26T08:52:29.47Z</time></trkpt><trkpt lat="45.75969" lon="11.5667588"><ele>426.0</ele><time>2026-04-26T08:52:30.47Z</time></trkpt><trkpt lat="45.7598066" lon="11.5666263"><ele>426.0</ele><time>2026-04-26T08:52:31.47Z</time></trkpt><trkpt lat="45.7599207" lon="11.5664992"><ele>426.0</ele><time>2026-04-26T08:52:32.47Z</time></trkpt><trkpt lat="45.7600172" lon="11.5663802"><ele>426.0</ele><time>2026-04-26T08:52:33.47Z</time></trkpt><trkpt lat="45.7601014" lon="11.5662793"><ele>426.0</ele><time>2026-04-26T08:52:34.471Z</time></trkpt><trkpt lat="45.7601927" lon="11.5661928"><ele>425.6</ele><time>2026-04-26T08:52:35.471Z</time></trkpt><trkpt lat="45.760277" lon="11.5661357"><ele>425.20000000000005</ele><time>2026-04-26T08:52:36.471Z</time></trkpt><trkpt lat="45.7603664" lon="11.5661073"><ele>424.79999999999995</ele><time>2026-04-26T08:52:37.47Z</time></trkpt><trkpt lat="45.76045" lon="11.5661161"><ele>424.4</ele><time>2026-04-26T08:52:38.47Z</time></trkpt><trkpt lat="45.7605271" lon="11.5661817"><ele>424.0</ele><time>2026-04-26T08:52:39.47Z</time></trkpt><trkpt lat="45.7606084" lon="11.5662736"><ele>425.4</ele><time>2026-04-26T08:52:40.47Z</time></trkpt><trkpt lat="45.7606806" lon="11.5663836"><ele>426.79999999999995</ele><time>2026-04-26T08:52:41.471Z</time></trkpt><trkpt lat="45.7607517" lon="11.5664907"><ele>428.20000000000005</ele><time>2026-04-26T08:52:42.471Z</time></trkpt><trkpt lat="45.7608311" lon="11.5665947"><ele>429.6</ele><time>2026-04-26T08:52:43.47Z</time></trkpt><trkpt lat="45.7609154" lon="11.5666989"><ele>431.0</ele><time>2026-04-26T08:52:44.47Z</time></trkpt><trkpt lat="45.7610226" lon="11.5668017"><ele>431.0</ele><time>2026-04-26T08:52:45.47Z</time></trkpt><trkpt lat="45.7611344" lon="11.5669147"><ele>431.0</ele><time>2026-04-26T08:52:46.47Z</time></trkpt><trkpt lat="45.7612471" lon="11.5670373"><ele>431.0</ele><time>2026-04-26T08:52:47.471Z</time></trkpt><trkpt lat="45.7613642" lon="11.5671758"><ele>431.0</ele><time>2026-04-26T08:52:48.47Z</time></trkpt><trkpt lat="45.7614847" lon="11.5673096"><ele>433.0</ele><time>2026-04-26T08:52:49.47Z</time></trkpt><trkpt lat="45.7616087" lon="11.5674373"><ele>435.0</ele><time>2026-04-26T08:52:50.47Z</time></trkpt><trkpt lat="45.7617277" lon="11.5675568"><ele>437.0</ele><time>2026-04-26T08:52:51.47Z</time></trkpt><trkpt lat="45.7618622" lon="11.5676545"><ele>439.0</ele><time>2026-04-26T08:52:52.471Z</time></trkpt><trkpt lat="45.7620008" lon="11.5676986"><ele>441.0</ele><time>2026-04-26T08:52:53.471Z</time></trkpt><trkpt lat="45.7621455" lon="11.5676915"><ele>443.0</ele><time>2026-04-26T08:52:54.47Z</time></trkpt><trkpt lat="45.7622848" lon="11.5676338"><ele>445.0</ele><time>2026-04-26T08:52:55.47Z</time></trkpt><trkpt lat="45.7624185" lon="11.5675341"><ele>447.0</ele><time>2026-04-26T08:52:56.47Z</time></trkpt><trkpt lat="45.7625346" lon="11.567409"><ele>447.0</ele><time>2026-04-26T08:52:57.47Z</time></trkpt><trkpt lat="45.7626373" lon="11.5672616"><ele>447.0</ele><time>2026-04-26T08:52:58.47Z</time></trkpt><trkpt lat="45.7627344" lon="11.5670758"><ele>447.0</ele><time>2026-04-26T08:52:59.47Z</time></trkpt><trkpt lat="45.7628357" lon="11.5669018"><ele>448.5</ele><time>2026-04-26T08:53:00.471Z</time></trkpt><trkpt lat="45.762931" lon="11.5667247"><ele>450.0</ele><time>2026-04-26T08:53:01.471Z</time></trkpt><trkpt lat="45.7630285" lon="11.5665596"><ele>451.5</ele><time>2026-04-26T08:53:02.47Z</time></trkpt><trkpt lat="45.7631069" lon="11.566403"><ele>453.0</ele><time>2026-04-26T08:53:03.47Z</time></trkpt><trkpt lat="45.7631868" lon="11.566257"><ele>451.5</ele><time>2026-04-26T08:53:04.47Z</time></trkpt><trkpt lat="45.7632634" lon="11.5661143"><ele>450.0</ele><time>2026-04-26T08:53:05.471Z</time></trkpt><trkpt lat="45.7633594" lon="11.566007"><ele>448.5</ele><time>2026-04-26T08:53:06.47Z</time></trkpt><trkpt lat="45.763469" lon="11.5659124"><ele>447.0</ele><time>2026-04-26T08:53:07.47Z</time></trkpt><trkpt lat="45.763577" lon="11.5658112"><ele>448.6</ele><time>2026-04-26T08:53:08.47Z</time></trkpt><trkpt lat="45.7636672" lon="11.5657138"><ele>450.20000000000005</ele><time>2026-04-26T08:53:09.47Z</time></trkpt><trkpt lat="45.7637452" lon="11.5655993"><ele>451.8</ele><time>2026-04-26T08:53:10.47Z</time></trkpt><trkpt lat="45.7637983" lon="11.5654963"><ele>453.4</ele><time>2026-04-26T08:53:11.471Z</time></trkpt><trkpt lat="45.7638464" lon="11.5654019"><ele>455.0</ele><time>2026-04-26T08:53:12.47Z</time></trkpt><trkpt lat="45.7639054" lon="11.5652846"><ele>455.0</ele><time>2026-04-26T08:53:14.47Z</time></trkpt><trkpt lat="45.763978" lon="11.5653245"><ele>455.0</ele><time>2026-04-26T08:53:16.47Z</time></trkpt><trkpt lat="45.7639749" lon="11.5655365"><ele>455.0</ele><time>2026-04-26T08:53:18.47Z</time></trkpt><trkpt lat="45.7639511" lon="11.5657003"><ele>455.0</ele><time>2026-04-26T08:53:19.47Z</time></trkpt><trkpt lat="45.7639337" lon="11.5659035"><ele>456.3333333333333</ele><time>2026-04-26T08:53:20.471Z</time></trkpt><trkpt lat="45.7639217" lon="11.5661302"><ele>457.66666666666663</ele><time>2026-04-26T08:53:21.471Z</time></trkpt><trkpt lat="45.763911" lon="11.5663963"><ele>459.0</ele><time>2026-04-26T08:53:22.471Z</time></trkpt><trkpt lat="45.7638808" lon="11.5666477"><ele>460.75</ele><time>2026-04-26T08:53:23.47Z</time></trkpt><trkpt lat="45.7638427" lon="11.5668813"><ele>462.5</ele><time>2026-04-26T08:53:24.47Z</time></trkpt><trkpt lat="45.7637466" lon="11.567021"><ele>464.25</ele><time>2026-04-26T08:53:25.47Z</time></trkpt><trkpt lat="45.7636844" lon="11.5671902"><ele>466.0</ele><time>2026-04-26T08:53:26.47Z</time></trkpt><trkpt lat="45.7637119" lon="11.5672754"><ele>466.0</ele><time>2026-04-26T08:53:27.47Z</time></trkpt><trkpt lat="45.7637792" lon="11.5673418"><ele>466.0</ele><time>2026-04-26T08:53:28.47Z</time></trkpt><trkpt lat="45.7638754" lon="11.5673408"><ele>466.0</ele><time>2026-04-26T08:53:29.47Z</time></trkpt><trkpt lat="45.7639672" lon="11.567232"><ele>466.0</ele><time>2026-04-26T08:53:30.47Z</time></trkpt><trkpt lat="45.7640571" lon="11.5670902"><ele>466.0</ele><time>2026-04-26T08:53:31.47Z</time></trkpt><trkpt lat="45.7641187" lon="11.5669117"><ele>466.0</ele><time>2026-04-26T08:53:32.471Z</time></trkpt><trkpt lat="45.7641546" lon="11.5667112"><ele>466.0</ele><time>2026-04-26T08:53:33.47Z</time></trkpt><trkpt lat="45.7641943" lon="11.5665085"><ele>466.0</ele><time>2026-04-26T08:53:34.47Z</time></trkpt><trkpt lat="45.7642279" lon="11.5663221"><ele>466.0</ele><time>2026-04-26T08:53:35.47Z</time></trkpt><trkpt lat="45.7642642" lon="11.5661665"><ele>465.8</ele><time>2026-04-26T08:53:36.47Z</time></trkpt><trkpt lat="45.7643093" lon="11.5660366"><ele>465.6</ele><time>2026-04-26T08:53:37.471Z</time></trkpt><trkpt lat="45.7643837" lon="11.5659884"><ele>465.4</ele><time>2026-04-26T08:53:38.471Z</time></trkpt><trkpt lat="45.7644715" lon="11.5660102"><ele>465.2</ele><time>2026-04-26T08:53:39.47Z</time></trkpt><trkpt lat="45.7645395" lon="11.5661008"><ele>465.0</ele><time>2026-04-26T08:53:40.47Z</time></trkpt><trkpt lat="45.7645997" lon="11.5662325"><ele>467.0</ele><time>2026-04-26T08:53:41.471Z</time></trkpt><trkpt lat="45.7646556" lon="11.5663926"><ele>469.0</ele><time>2026-04-26T08:53:42.47Z</time></trkpt><trkpt lat="45.7647218" lon="11.5665538"><ele>471.0</ele><time>2026-04-26T08:53:43.47Z</time></trkpt><trkpt lat="45.7647958" lon="11.5667276"><ele>473.0</ele><time>2026-04-26T08:53:44.471Z</time></trkpt><trkpt lat="45.7649002" lon="11.5668607"><ele>473.0</ele><time>2026-04-26T08:53:45.47Z</time></trkpt><trkpt lat="45.7650095" lon="11.5669474"><ele>473.0</ele><time>2026-04-26T08:53:46.47Z</time></trkpt><trkpt lat="45.7651189" lon="11.5670008"><ele>473.0</ele><time>2026-04-26T08:53:47.47Z</time></trkpt><trkpt lat="45.7652561" lon="11.56697"><ele>473.0</ele><time>2026-04-26T08:53:48.47Z</time></trkpt><trkpt lat="45.7653843" lon="11.5669154"><ele>476.75</ele><time>2026-04-26T08:53:49.47Z</time></trkpt><trkpt lat="45.7655052" lon="11.5668311"><ele>480.5</ele><time>2026-04-26T08:53:50.47Z</time></trkpt><trkpt lat="45.7656102" lon="11.5667213"><ele>484.25</ele><time>2026-04-26T08:53:51.471Z</time></trkpt><trkpt lat="45.7656923" lon="11.5665691"><ele>488.0</ele><time>2026-04-26T08:53:52.471Z</time></trkpt><trkpt lat="45.7657525" lon="11.5663945"><ele>488.0</ele><time>2026-04-26T08:53:53.47Z</time></trkpt><trkpt lat="45.7657856" lon="11.5662052"><ele>488.0</ele><time>2026-04-26T08:53:54.471Z</time></trkpt><trkpt lat="45.7657984" lon="11.565999"><ele>488.0</ele><time>2026-04-26T08:53:55.47Z</time></trkpt><trkpt lat="45.7658145" lon="11.5657959"><ele>488.0</ele><time>2026-04-26T08:53:56.47Z</time></trkpt><trkpt lat="45.76583" lon="11.5655863"><ele>486.0</ele><time>2026-04-26T08:53:57.47Z</time></trkpt><trkpt lat="45.7658472" lon="11.5653716"><ele>484.0</ele><time>2026-04-26T08:53:58.47Z</time></trkpt><trkpt lat="45.7658745" lon="11.56515"><ele>482.0</ele><time>2026-04-26T08:53:59.47Z</time></trkpt><trkpt lat="45.7658949" lon="11.5649363"><ele>480.3333333333333</ele><time>2026-04-26T08:54:00.47Z</time></trkpt><trkpt lat="45.7659129" lon="11.564705"><ele>478.66666666666663</ele><time>2026-04-26T08:54:01.471Z</time></trkpt><trkpt lat="45.765935" lon="11.564483"><ele>477.0</ele><time>2026-04-26T08:54:02.47Z</time></trkpt><trkpt lat="45.7659504" lon="11.5642674"><ele>476.25</ele><time>2026-04-26T08:54:03.471Z</time></trkpt><trkpt lat="45.7659612" lon="11.5640592"><ele>475.5</ele><time>2026-04-26T08:54:04.47Z</time></trkpt><trkpt lat="45.7659892" lon="11.5638851"><ele>474.75</ele><time>2026-04-26T08:54:05.47Z</time></trkpt><trkpt lat="45.7660167" lon="11.5637401"><ele>474.0</ele><time>2026-04-26T08:54:06.471Z</time></trkpt><trkpt lat="45.7661107" lon="11.5637115"><ele>474.0</ele><time>2026-04-26T08:54:07.47Z</time></trkpt><trkpt lat="45.7661961" lon="11.5637391"><ele>474.0</ele><time>2026-04-26T08:54:08.47Z</time></trkpt><trkpt lat="45.7662751" lon="11.5638248"><ele>474.0</ele><time>2026-04-26T08:54:09.47Z</time></trkpt><trkpt lat="45.7663493" lon="11.5639492"><ele>474.0</ele><time>2026-04-26T08:54:10.471Z</time></trkpt><trkpt lat="45.7664202" lon="11.5641023"><ele>474.0</ele><time>2026-04-26T08:54:11.471Z</time></trkpt><trkpt lat="45.7665069" lon="11.5642423"><ele>474.0</ele><time>2026-04-26T08:54:12.471Z</time></trkpt><trkpt lat="45.7665994" lon="11.5644159"><ele>474.0</ele><time>2026-04-26T08:54:13.47Z</time></trkpt><trkpt lat="45.7666804" lon="11.5645878"><ele>474.0</ele><time>2026-04-26T08:54:14.47Z</time></trkpt><trkpt lat="45.7667567" lon="11.5647673"><ele>474.0</ele><time>2026-04-26T08:54:15.471Z</time></trkpt><trkpt lat="45.7668386" lon="11.5649588"><ele>470.66666666666663</ele><time>2026-04-26T08:54:16.47Z</time></trkpt><trkpt lat="45.7669018" lon="11.5651542"><ele>467.3333333333333</ele><time>2026-04-26T08:54:17.47Z</time></trkpt><trkpt lat="45.7669833" lon="11.5653782"><ele>464.0</ele><time>2026-04-26T08:54:18.47Z</time></trkpt><trkpt lat="45.7670621" lon="11.5655772"><ele>472.0</ele><time>2026-04-26T08:54:19.471Z</time></trkpt><trkpt lat="45.7671461" lon="11.5657796"><ele>480.0</ele><time>2026-04-26T08:54:20.47Z</time></trkpt><trkpt lat="45.7672365" lon="11.5659805"><ele>488.0</ele><time>2026-04-26T08:54:21.471Z</time></trkpt><trkpt lat="45.7673501" lon="11.5661647"><ele>489.0</ele><time>2026-04-26T08:54:22.471Z</time></trkpt><trkpt lat="45.7674665" lon="11.5663466"><ele>490.0</ele><time>2026-04-26T08:54:23.47Z</time></trkpt><trkpt lat="45.767646" lon="11.5664083"><ele>491.0</ele><time>2026-04-26T08:54:24.47Z</time></trkpt><trkpt lat="45.7677997" lon="11.5665046"><ele>491.0</ele><time>2026-04-26T08:54:25.47Z</time></trkpt><trkpt lat="45.7679392" lon="11.566595"><ele>491.0</ele><time>2026-04-26T08:54:26.47Z</time></trkpt><trkpt lat="45.7680683" lon="11.5667054"><ele>491.0</ele><time>2026-04-26T08:54:27.471Z</time></trkpt><trkpt lat="45.7681821" lon="11.5668045"><ele>491.0</ele><time>2026-04-26T08:54:28.47Z</time></trkpt><trkpt lat="45.7682875" lon="11.56689"><ele>491.0</ele><time>2026-04-26T08:54:29.47Z</time></trkpt><trkpt lat="45.768392" lon="11.5669244"><ele>491.0</ele><time>2026-04-26T08:54:30.471Z</time></trkpt><trkpt lat="45.7685285" lon="11.5669377"><ele>491.0</ele><time>2026-04-26T08:54:31.47Z</time></trkpt><trkpt lat="45.7686532" lon="11.5669306"><ele>491.0</ele><time>2026-04-26T08:54:32.471Z</time></trkpt><trkpt lat="45.7687395" lon="11.5668217"><ele>498.66666666666663</ele><time>2026-04-26T08:54:33.471Z</time></trkpt><trkpt lat="45.7688113" lon="11.5666174"><ele>506.33333333333337</ele><time>2026-04-26T08:54:34.47Z</time></trkpt><trkpt lat="45.7688597" lon="11.5664276"><ele>514.0</ele><time>2026-04-26T08:54:35.47Z</time></trkpt><trkpt lat="45.7688964" lon="11.5662159"><ele>514.5</ele><time>2026-04-26T08:54:36.471Z</time></trkpt><trkpt lat="45.7688992" lon="11.566029"><ele>515.0</ele><time>2026-04-26T08:54:37.47Z</time></trkpt><trkpt lat="45.7688894" lon="11.5658534"><ele>515.5</ele><time>2026-04-26T08:54:38.471Z</time></trkpt><trkpt lat="45.7688791" lon="11.5656815"><ele>516.0</ele><time>2026-04-26T08:54:39.47Z</time></trkpt><trkpt lat="45.7688861" lon="11.5655313"><ele>516.0</ele><time>2026-04-26T08:54:40.471Z</time></trkpt><trkpt lat="45.7689172" lon="11.565377"><ele>516.0</ele><time>2026-04-26T08:54:41.47Z</time></trkpt><trkpt lat="45.7689516" lon="11.5652048"><ele>516.0</ele><time>2026-04-26T08:54:42.47Z</time></trkpt><trkpt lat="45.7689682" lon="11.5650194"><ele>516.0</ele><time>2026-04-26T08:54:43.47Z</time></trkpt><trkpt lat="45.7689819" lon="11.56482"><ele>515.0</ele><time>2026-04-26T08:54:44.47Z</time></trkpt><trkpt lat="45.7689983" lon="11.5646237"><ele>514.0</ele><time>2026-04-26T08:54:45.471Z</time></trkpt><trkpt lat="45.7690257" lon="11.5644529"><ele>513.0</ele><time>2026-04-26T08:54:46.471Z</time></trkpt><trkpt lat="45.7691002" lon="11.5642872"><ele>512.0</ele><time>2026-04-26T08:54:47.47Z</time></trkpt><trkpt lat="45.7691794" lon="11.5641039"><ele>510.3333333333333</ele><time>2026-04-26T08:54:48.471Z</time></trkpt><trkpt lat="45.7692525" lon="11.5638995"><ele>508.66666666666663</ele><time>2026-04-26T08:54:49.47Z</time></trkpt><trkpt lat="45.7693201" lon="11.5636912"><ele>507.0</ele><time>2026-04-26T08:54:50.47Z</time></trkpt><trkpt lat="45.769384" lon="11.5634695"><ele>517.6666666666666</ele><time>2026-04-26T08:54:51.47Z</time></trkpt><trkpt lat="45.7694406" lon="11.5632418"><ele>528.3333333333333</ele><time>2026-04-26T08:54:52.471Z</time></trkpt><trkpt lat="45.7695023" lon="11.5630135"><ele>539.0</ele><time>2026-04-26T08:54:53.47Z</time></trkpt><trkpt lat="45.7695641" lon="11.5627846"><ele>539.0</ele><time>2026-04-26T08:54:54.47Z</time></trkpt><trkpt lat="45.7696323" lon="11.5625608"><ele>539.0</ele><time>2026-04-26T08:54:55.47Z</time></trkpt><trkpt lat="45.7696618" lon="11.5623396"><ele>539.0</ele><time>2026-04-26T08:54:56.47Z</time></trkpt><trkpt lat="45.7696717" lon="11.5621064"><ele>537.3333333333333</ele><time>2026-04-26T08:54:57.47Z</time></trkpt><trkpt lat="45.7696731" lon="11.5618731"><ele>535.6666666666666</ele><time>2026-04-26T08:54:58.47Z</time></trkpt><trkpt lat="45.7696831" lon="11.5616519"><ele>534.0</ele><time>2026-04-26T08:54:59.47Z</time></trkpt><trkpt lat="45.7697224" lon="11.5614608"><ele>534.0</ele><time>2026-04-26T08:55:00.47Z</time></trkpt><trkpt lat="45.7697587" lon="11.5613146"><ele>534.0</ele><time>2026-04-26T08:55:01.471Z</time></trkpt><trkpt lat="45.7697971" lon="11.5612029"><ele>534.0</ele><time>2026-04-26T08:55:02.47Z</time></trkpt><trkpt lat="45.7698233" lon="11.5611188"><ele>534.0</ele><time>2026-04-26T08:55:03.471Z</time></trkpt><trkpt lat="45.7698918" lon="11.5610788"><ele>534.0</ele><time>2026-04-26T08:55:05.471Z</time></trkpt><trkpt lat="45.7699042" lon="11.5612385"><ele>534.0</ele><time>2026-04-26T08:55:07.471Z</time></trkpt><trkpt lat="45.7698975" lon="11.5613515"><ele>534.0</ele><time>2026-04-26T08:55:08.47Z</time></trkpt><trkpt lat="45.7698466" lon="11.5615022"><ele>534.0</ele><time>2026-04-26T08:55:09.471Z</time></trkpt><trkpt lat="45.7698315" lon="11.5616438"><ele>534.0</ele><time>2026-04-26T08:55:10.471Z</time></trkpt><trkpt lat="45.7698276" lon="11.5618101"><ele>534.0</ele><time>2026-04-26T08:55:11.47Z</time></trkpt><trkpt lat="45.7698283" lon="11.5619656"><ele>534.0</ele><time>2026-04-26T08:55:12.47Z</time></trkpt><trkpt lat="45.7698584" lon="11.5621104"><ele>535.0</ele><time>2026-04-26T08:55:13.47Z</time></trkpt><trkpt lat="45.7698892" lon="11.5622545"><ele>536.0</ele><time>2026-04-26T08:55:14.47Z</time></trkpt><trkpt lat="45.769913" lon="11.5623982"><ele>537.0</ele><time>2026-04-26T08:55:15.47Z</time></trkpt><trkpt lat="45.7699202" lon="11.5625314"><ele>538.0</ele><time>2026-04-26T08:55:16.47Z</time></trkpt><trkpt lat="45.769926" lon="11.562683"><ele>539.0</ele><time>2026-04-26T08:55:17.47Z</time></trkpt><trkpt lat="45.769935" lon="11.5628241"><ele>540.25</ele><time>2026-04-26T08:55:18.471Z</time></trkpt><trkpt lat="45.769932" lon="11.5629884"><ele>541.5</ele><time>2026-04-26T08:55:19.471Z</time></trkpt><trkpt lat="45.7699226" lon="11.5631524"><ele>542.75</ele><time>2026-04-26T08:55:20.47Z</time></trkpt><trkpt lat="45.7698969" lon="11.5633047"><ele>544.0</ele><time>2026-04-26T08:55:21.47Z</time></trkpt><trkpt lat="45.7698429" lon="11.5634943"><ele>544.0</ele><time>2026-04-26T08:55:22.47Z</time></trkpt><trkpt lat="45.7698161" lon="11.5636544"><ele>544.0</ele><time>2026-04-26T08:55:23.47Z</time></trkpt><trkpt lat="45.7697896" lon="11.5638172"><ele>544.0</ele><time>2026-04-26T08:55:24.47Z</time></trkpt><trkpt lat="45.7697794" lon="11.5639902"><ele>544.0</ele><time>2026-04-26T08:55:25.471Z</time></trkpt><trkpt lat="45.7697407" lon="11.5641563"><ele>547.2</ele><time>2026-04-26T08:55:26.47Z</time></trkpt><trkpt lat="45.7697358" lon="11.564323"><ele>550.4</ele><time>2026-04-26T08:55:27.47Z</time></trkpt><trkpt lat="45.7697221" lon="11.5644596"><ele>553.6</ele><time>2026-04-26T08:55:28.47Z</time></trkpt><trkpt lat="45.7697115" lon="11.5645784"><ele>556.8</ele><time>2026-04-26T08:55:29.47Z</time></trkpt><trkpt lat="45.7696984" lon="11.5646951"><ele>560.0</ele><time>2026-04-26T08:55:30.47Z</time></trkpt><trkpt lat="45.7696865" lon="11.5648077"><ele>561.6666666666666</ele><time>2026-04-26T08:55:31.47Z</time></trkpt><trkpt lat="45.7696817" lon="11.5649056"><ele>563.3333333333333</ele><time>2026-04-26T08:55:32.47Z</time></trkpt><trkpt lat="45.7696599" lon="11.5649907"><ele>565.0</ele><time>2026-04-26T08:55:33.47Z</time></trkpt><trkpt lat="45.7696472" lon="11.5651408"><ele>566.6666666666666</ele><time>2026-04-26T08:55:35.47Z</time></trkpt><trkpt lat="45.7696722" lon="11.5652379"><ele>568.3333333333334</ele><time>2026-04-26T08:55:37.471Z</time></trkpt><trkpt lat="45.7697533" lon="11.5652314"><ele>570.0</ele><time>2026-04-26T08:55:39.47Z</time></trkpt><trkpt lat="45.7698181" lon="11.565151"><ele>570.0</ele><time>2026-04-26T08:55:40.47Z</time></trkpt><trkpt lat="45.7698312" lon="11.5649656"><ele>570.0</ele><time>2026-04-26T08:55:41.47Z</time></trkpt><trkpt lat="45.7698738" lon="11.5647991"><ele>570.0</ele><time>2026-04-26T08:55:42.47Z</time></trkpt><trkpt lat="45.7698928" lon="11.5646149"><ele>570.0</ele><time>2026-04-26T08:55:43.47Z</time></trkpt><trkpt lat="45.7699058" lon="11.5644214"><ele>567.5</ele><time>2026-04-26T08:55:44.471Z</time></trkpt><trkpt lat="45.7699359" lon="11.5642586"><ele>565.0</ele><time>2026-04-26T08:55:45.471Z</time></trkpt><trkpt lat="45.7699599" lon="11.5641042"><ele>562.5</ele><time>2026-04-26T08:55:46.47Z</time></trkpt><trkpt lat="45.7699865" lon="11.5639546"><ele>560.0</ele><time>2026-04-26T08:55:47.471Z</time></trkpt><trkpt lat="45.7700223" lon="11.563793"><ele>554.6666666666666</ele><time>2026-04-26T08:55:48.47Z</time></trkpt><trkpt lat="45.7700701" lon="11.5636215"><ele>549.3333333333334</ele><time>2026-04-26T08:55:49.47Z</time></trkpt><trkpt lat="45.770129" lon="11.563438"><ele>544.0</ele><time>2026-04-26T08:55:50.47Z</time></trkpt><trkpt lat="45.7701838" lon="11.5631808"><ele>560.6666666666667</ele><time>2026-04-26T08:55:51.47Z</time></trkpt><trkpt lat="45.7702553" lon="11.5629295"><ele>577.3333333333334</ele><time>2026-04-26T08:55:52.471Z</time></trkpt><trkpt lat="45.7703335" lon="11.5626905"><ele>594.0</ele><time>2026-04-26T08:55:53.47Z</time></trkpt><trkpt lat="45.7703978" lon="11.5624591"><ele>594.0</ele><time>2026-04-26T08:55:54.471Z</time></trkpt><trkpt lat="45.7704543" lon="11.5622016"><ele>594.0</ele><time>2026-04-26T08:55:55.47Z</time></trkpt><trkpt lat="45.770502" lon="11.5619538"><ele>594.0</ele><time>2026-04-26T08:55:56.47Z</time></trkpt><trkpt lat="45.7705536" lon="11.5616811"><ele>592.0</ele><time>2026-04-26T08:55:57.47Z</time></trkpt><trkpt lat="45.7706177" lon="11.5614101"><ele>590.0</ele><time>2026-04-26T08:55:58.47Z</time></trkpt><trkpt lat="45.7706669" lon="11.5611425"><ele>588.0</ele><time>2026-04-26T08:55:59.471Z</time></trkpt><trkpt lat="45.7707277" lon="11.5608629"><ele>585.6666666666666</ele><time>2026-04-26T08:56:00.47Z</time></trkpt><trkpt lat="45.770797" lon="11.5606035"><ele>583.3333333333333</ele><time>2026-04-26T08:56:01.47Z</time></trkpt><trkpt lat="45.7708591" lon="11.5603683"><ele>581.0</ele><time>2026-04-26T08:56:02.47Z</time></trkpt><trkpt lat="45.7709211" lon="11.5601556"><ele>578.75</ele><time>2026-04-26T08:56:03.471Z</time></trkpt><trkpt lat="45.7709717" lon="11.5599595"><ele>576.5</ele><time>2026-04-26T08:56:04.47Z</time></trkpt><trkpt lat="45.7709783" lon="11.5597732"><ele>574.25</ele><time>2026-04-26T08:56:05.47Z</time></trkpt><trkpt lat="45.7710127" lon="11.5596258"><ele>572.0</ele><time>2026-04-26T08:56:06.47Z</time></trkpt><trkpt lat="45.7710555" lon="11.5595507"><ele>572.0</ele><time>2026-04-26T08:56:07.47Z</time></trkpt><trkpt lat="45.7711302" lon="11.5597069"><ele>572.0</ele><time>2026-04-26T08:56:10.47Z</time></trkpt><trkpt lat="45.771093" lon="11.5598522"><ele>572.0</ele><time>2026-04-26T08:56:11.47Z</time></trkpt><trkpt lat="45.7710256" lon="11.5600072"><ele>572.0</ele><time>2026-04-26T08:56:12.471Z</time></trkpt><trkpt lat="45.7709601" lon="11.5601967"><ele>575.0</ele><time>2026-04-26T08:56:13.471Z</time></trkpt><trkpt lat="45.7709127" lon="11.5604065"><ele>578.0</ele><time>2026-04-26T08:56:14.47Z</time></trkpt><trkpt lat="45.7708993" lon="11.5606269"><ele>581.0</ele><time>2026-04-26T08:56:15.47Z</time></trkpt><trkpt lat="45.7708596" lon="11.5608435"><ele>581.0</ele><time>2026-04-26T08:56:16.47Z</time></trkpt><trkpt lat="45.7708364" lon="11.5610642"><ele>581.0</ele><time>2026-04-26T08:56:17.47Z</time></trkpt><trkpt lat="45.7708257" lon="11.5613108"><ele>581.0</ele><time>2026-04-26T08:56:18.47Z</time></trkpt><trkpt lat="45.7708195" lon="11.5615469"><ele>583.3333333333333</ele><time>2026-04-26T08:56:19.47Z</time></trkpt><trkpt lat="45.7708074" lon="11.5617888"><ele>585.6666666666666</ele><time>2026-04-26T08:56:20.47Z</time></trkpt><trkpt lat="45.7707975" lon="11.5620459"><ele>588.0</ele><time>2026-04-26T08:56:21.471Z</time></trkpt><trkpt lat="45.7707912" lon="11.5622879"><ele>589.5</ele><time>2026-04-26T08:56:22.47Z</time></trkpt><trkpt lat="45.7707871" lon="11.5625126"><ele>591.0</ele><time>2026-04-26T08:56:23.47Z</time></trkpt><trkpt lat="45.77078" lon="11.5626995"><ele>592.5</ele><time>2026-04-26T08:56:24.471Z</time></trkpt><trkpt lat="45.7707741" lon="11.5628687"><ele>594.0</ele><time>2026-04-26T08:56:25.47Z</time></trkpt><trkpt lat="45.7707757" lon="11.5629975"><ele>594.0</ele><time>2026-04-26T08:56:26.471Z</time></trkpt><trkpt lat="45.7707974" lon="11.5630889"><ele>594.0</ele><time>2026-04-26T08:56:27.47Z</time></trkpt><trkpt lat="45.7708993" lon="11.5630752"><ele>594.0</ele><time>2026-04-26T08:56:29.47Z</time></trkpt><trkpt lat="45.770929" lon="11.5629747"><ele>594.0</ele><time>2026-04-26T08:56:30.471Z</time></trkpt><trkpt lat="45.7709545" lon="11.5628483"><ele>594.0</ele><time>2026-04-26T08:56:31.471Z</time></trkpt><trkpt lat="45.7709758" lon="11.5626778"><ele>594.0</ele><time>2026-04-26T08:56:32.471Z</time></trkpt><trkpt lat="45.7709858" lon="11.5624947"><ele>594.0</ele><time>2026-04-26T08:56:33.471Z</time></trkpt><trkpt lat="45.771002" lon="11.5623087"><ele>594.0</ele><time>2026-04-26T08:56:34.471Z</time></trkpt><trkpt lat="45.7710255" lon="11.5620901"><ele>594.0</ele><time>2026-04-26T08:56:35.47Z</time></trkpt><trkpt lat="45.771051" lon="11.5618393"><ele>600.0</ele><time>2026-04-26T08:56:36.47Z</time></trkpt><trkpt lat="45.7710893" lon="11.5615839"><ele>606.0</ele><time>2026-04-26T08:56:37.47Z</time></trkpt><trkpt lat="45.7711419" lon="11.5613371"><ele>612.0</ele><time>2026-04-26T08:56:38.47Z</time></trkpt><trkpt lat="45.7712062" lon="11.5611048"><ele>612.0</ele><time>2026-04-26T08:56:39.47Z</time></trkpt><trkpt lat="45.7712926" lon="11.5608896"><ele>612.0</ele><time>2026-04-26T08:56:40.47Z</time></trkpt><trkpt lat="45.7713964" lon="11.5607058"><ele>612.0</ele><time>2026-04-26T08:56:41.471Z</time></trkpt><trkpt lat="45.7714748" lon="11.5605481"><ele>612.0</ele><time>2026-04-26T08:56:42.471Z</time></trkpt><trkpt lat="45.771564" lon="11.5604224"><ele>612.0</ele><time>2026-04-26T08:56:43.47Z</time></trkpt><trkpt lat="45.7716623" lon="11.5603486"><ele>612.0</ele><time>2026-04-26T08:56:44.47Z</time></trkpt><trkpt lat="45.7717772" lon="11.5603463"><ele>612.0</ele><time>2026-04-26T08:56:45.471Z</time></trkpt><trkpt lat="45.7719063" lon="11.5603879"><ele>613.3333333333334</ele><time>2026-04-26T08:56:46.471Z</time></trkpt><trkpt lat="45.7720383" lon="11.5604557"><ele>614.6666666666667</ele><time>2026-04-26T08:56:47.47Z</time></trkpt><trkpt lat="45.7721795" lon="11.5605379"><ele>616.0</ele><time>2026-04-26T08:56:48.47Z</time></trkpt><trkpt lat="45.7723211" lon="11.5606403"><ele>616.0</ele><time>2026-04-26T08:56:49.47Z</time></trkpt><trkpt lat="45.7724812" lon="11.5607468"><ele>616.0</ele><time>2026-04-26T08:56:50.47Z</time></trkpt><trkpt lat="45.772638" lon="11.5608523"><ele>616.0</ele><time>2026-04-26T08:56:51.47Z</time></trkpt><trkpt lat="45.7727992" lon="11.5609376"><ele>617.0</ele><time>2026-04-26T08:56:52.47Z</time></trkpt><trkpt lat="45.7729559" lon="11.5610286"><ele>618.0</ele><time>2026-04-26T08:56:53.47Z</time></trkpt><trkpt lat="45.7731011" lon="11.5611209"><ele>619.0</ele><time>2026-04-26T08:56:54.47Z</time></trkpt><trkpt lat="45.7732583" lon="11.5612174"><ele>621.5</ele><time>2026-04-26T08:56:55.47Z</time></trkpt><trkpt lat="45.7733993" lon="11.5613042"><ele>624.0</ele><time>2026-04-26T08:56:56.471Z</time></trkpt><trkpt lat="45.7735317" lon="11.5613821"><ele>626.5</ele><time>2026-04-26T08:56:57.47Z</time></trkpt><trkpt lat="45.7736422" lon="11.5614616"><ele>629.0</ele><time>2026-04-26T08:56:58.47Z</time></trkpt><trkpt lat="45.7737105" lon="11.5615626"><ele>629.0</ele><time>2026-04-26T08:56:59.47Z</time></trkpt><trkpt lat="45.7737267" lon="11.5616738"><ele>629.0</ele><time>2026-04-26T08:57:00.47Z</time></trkpt><trkpt lat="45.7737275" lon="11.5617933"><ele>629.0</ele><time>2026-04-26T08:57:01.47Z</time></trkpt><trkpt lat="45.7736315" lon="11.5618244"><ele>629.0</ele><time>2026-04-26T08:57:02.47Z</time></trkpt><trkpt lat="45.7735327" lon="11.5618655"><ele>629.0</ele><time>2026-04-26T08:57:03.471Z</time></trkpt><trkpt lat="45.7734183" lon="11.5619168"><ele>630.0</ele><time>2026-04-26T08:57:04.471Z</time></trkpt><trkpt lat="45.7733215" lon="11.5619825"><ele>631.0</ele><time>2026-04-26T08:57:05.47Z</time></trkpt><trkpt lat="45.7732102" lon="11.5621115"><ele>632.0</ele><time>2026-04-26T08:57:06.47Z</time></trkpt><trkpt lat="45.7731287" lon="11.5622704"><ele>633.0</ele><time>2026-04-26T08:57:07.47Z</time></trkpt><trkpt lat="45.7731009" lon="11.5624519"><ele>636.0</ele><time>2026-04-26T08:57:08.471Z</time></trkpt><trkpt lat="45.7730737" lon="11.5626621"><ele>639.0</ele><time>2026-04-26T08:57:09.47Z</time></trkpt><trkpt lat="45.7730348" lon="11.562875"><ele>642.0</ele><time>2026-04-26T08:57:10.471Z</time></trkpt><trkpt lat="45.7729742" lon="11.5630716"><ele>645.3333333333334</ele><time>2026-04-26T08:57:11.471Z</time></trkpt><trkpt lat="45.7729017" lon="11.5632694"><ele>648.6666666666667</ele><time>2026-04-26T08:57:12.47Z</time></trkpt><trkpt lat="45.7728214" lon="11.5634613"><ele>652.0</ele><time>2026-04-26T08:57:13.47Z</time></trkpt><trkpt lat="45.7727463" lon="11.5636567"><ele>651.6666666666667</ele><time>2026-04-26T08:57:14.47Z</time></trkpt><trkpt lat="45.7726873" lon="11.5638625"><ele>651.3333333333334</ele><time>2026-04-26T08:57:15.47Z</time></trkpt><trkpt lat="45.7726237" lon="11.5640952"><ele>651.0</ele><time>2026-04-26T08:57:16.47Z</time></trkpt><trkpt lat="45.7725705" lon="11.5643041"><ele>651.0</ele><time>2026-04-26T08:57:17.471Z</time></trkpt><trkpt lat="45.7724855" lon="11.5644572"><ele>651.0</ele><time>2026-04-26T08:57:18.471Z</time></trkpt><trkpt lat="45.7724033" lon="11.5646024"><ele>651.0</ele><time>2026-04-26T08:57:19.471Z</time></trkpt><trkpt lat="45.7723374" lon="11.5647431"><ele>651.0</ele><time>2026-04-26T08:57:20.47Z</time></trkpt><trkpt lat="45.772282" lon="11.5648914"><ele>653.25</ele><time>2026-04-26T08:57:21.47Z</time></trkpt><trkpt lat="45.7722496" lon="11.5650395"><ele>655.5</ele><time>2026-04-26T08:57:22.47Z</time></trkpt><trkpt lat="45.7722414" lon="11.5652015"><ele>657.75</ele><time>2026-04-26T08:57:23.47Z</time></trkpt><trkpt lat="45.7722705" lon="11.5653599"><ele>660.0</ele><time>2026-04-26T08:57:24.471Z</time></trkpt><trkpt lat="45.7723548" lon="11.5655087"><ele>660.25</ele><time>2026-04-26T08:57:25.471Z</time></trkpt><trkpt lat="45.7724335" lon="11.5656662"><ele>660.5</ele><time>2026-04-26T08:57:26.471Z</time></trkpt><trkpt lat="45.7725074" lon="11.5658197"><ele>660.75</ele><time>2026-04-26T08:57:27.47Z</time></trkpt><trkpt lat="45.7725862" lon="11.5659839"><ele>661.0</ele><time>2026-04-26T08:57:28.47Z</time></trkpt><trkpt lat="45.7726591" lon="11.5661428"><ele>664.0</ele><time>2026-04-26T08:57:29.471Z</time></trkpt><trkpt lat="45.7727486" lon="11.5662971"><ele>667.0</ele><time>2026-04-26T08:57:30.47Z</time></trkpt><trkpt lat="45.7728244" lon="11.5664589"><ele>670.0</ele><time>2026-04-26T08:57:31.47Z</time></trkpt><trkpt lat="45.7729008" lon="11.5666383"><ele>673.0</ele><time>2026-04-26T08:57:32.47Z</time></trkpt><trkpt lat="45.7729505" lon="11.5668433"><ele>670.6666666666667</ele><time>2026-04-26T08:57:33.471Z</time></trkpt><trkpt lat="45.7729808" lon="11.5670753"><ele>668.3333333333334</ele><time>2026-04-26T08:57:34.471Z</time></trkpt><trkpt lat="45.7730137" lon="11.5673097"><ele>666.0</ele><time>2026-04-26T08:57:35.47Z</time></trkpt><trkpt lat="45.7730471" lon="11.5675429"><ele>666.0</ele><time>2026-04-26T08:57:36.47Z</time></trkpt><trkpt lat="45.7730953" lon="11.5677673"><ele>666.0</ele><time>2026-04-26T08:57:37.471Z</time></trkpt><trkpt lat="45.7731582" lon="11.5679607"><ele>666.0</ele><time>2026-04-26T08:57:38.471Z</time></trkpt><trkpt lat="45.7732548" lon="11.5681178"><ele>664.6666666666666</ele><time>2026-04-26T08:57:39.47Z</time></trkpt><trkpt lat="45.7733803" lon="11.5682444"><ele>663.3333333333333</ele><time>2026-04-26T08:57:40.471Z</time></trkpt><trkpt lat="45.7735253" lon="11.5683287"><ele>662.0</ele><time>2026-04-26T08:57:41.471Z</time></trkpt><trkpt lat="45.7736719" lon="11.5684026"><ele>666.6666666666666</ele><time>2026-04-26T08:57:42.471Z</time></trkpt><trkpt lat="45.7738192" lon="11.5684849"><ele>671.3333333333334</ele><time>2026-04-26T08:57:43.47Z</time></trkpt><trkpt lat="45.7739634" lon="11.5685888"><ele>676.0</ele><time>2026-04-26T08:57:44.471Z</time></trkpt><trkpt lat="45.7740816" lon="11.5687458"><ele>676.0</ele><time>2026-04-26T08:57:45.47Z</time></trkpt><trkpt lat="45.7741886" lon="11.5689258"><ele>676.0</ele><time>2026-04-26T08:57:46.47Z</time></trkpt><trkpt lat="45.774288" lon="11.569135"><ele>676.0</ele><time>2026-04-26T08:57:47.47Z</time></trkpt><trkpt lat="45.7743571" lon="11.5693186"><ele>678.5999999999999</ele><time>2026-04-26T08:57:48.471Z</time></trkpt><trkpt lat="45.7744046" lon="11.5695053"><ele>681.2</ele><time>2026-04-26T08:57:49.471Z</time></trkpt><trkpt lat="45.774446" lon="11.5696448"><ele>683.8</ele><time>2026-04-26T08:57:50.47Z</time></trkpt><trkpt lat="45.7745006" lon="11.5697245"><ele>686.4000000000001</ele><time>2026-04-26T08:57:51.47Z</time></trkpt><trkpt lat="45.7745667" lon="11.5697332"><ele>689.0</ele><time>2026-04-26T08:57:52.47Z</time></trkpt><trkpt lat="45.7746218" lon="11.5696606"><ele>691.0</ele><time>2026-04-26T08:57:53.47Z</time></trkpt><trkpt lat="45.7746539" lon="11.5695195"><ele>693.0</ele><time>2026-04-26T08:57:54.47Z</time></trkpt><trkpt lat="45.774643" lon="11.5693575"><ele>695.0</ele><time>2026-04-26T08:57:55.47Z</time></trkpt><trkpt lat="45.7746425" lon="11.5691862"><ele>697.0</ele><time>2026-04-26T08:57:56.47Z</time></trkpt><trkpt lat="45.7746327" lon="11.5689911"><ele>697.0</ele><time>2026-04-26T08:57:57.47Z</time></trkpt><trkpt lat="45.7746186" lon="11.5687858"><ele>697.0</ele><time>2026-04-26T08:57:58.471Z</time></trkpt><trkpt lat="45.7745807" lon="11.5685855"><ele>697.0</ele><time>2026-04-26T08:57:59.47Z</time></trkpt><trkpt lat="45.7745276" lon="11.5683864"><ele>697.0</ele><time>2026-04-26T08:58:00.47Z</time></trkpt><trkpt lat="45.774479" lon="11.5681827"><ele>699.0</ele><time>2026-04-26T08:58:01.471Z</time></trkpt><trkpt lat="45.7744269" lon="11.5679659"><ele>701.0</ele><time>2026-04-26T08:58:02.47Z</time></trkpt><trkpt lat="45.7743983" lon="11.5677428"><ele>703.0</ele><time>2026-04-26T08:58:03.471Z</time></trkpt><trkpt lat="45.774379" lon="11.5675292"><ele>699.5</ele><time>2026-04-26T08:58:04.47Z</time></trkpt><trkpt lat="45.7743513" lon="11.567303"><ele>696.0</ele><time>2026-04-26T08:58:05.47Z</time></trkpt><trkpt lat="45.7743421" lon="11.5671072"><ele>692.5</ele><time>2026-04-26T08:58:06.47Z</time></trkpt><trkpt lat="45.7743394" lon="11.5669255"><ele>689.0</ele><time>2026-04-26T08:58:07.47Z</time></trkpt><trkpt lat="45.7743517" lon="11.566767"><ele>690.6666666666666</ele><time>2026-04-26T08:58:08.47Z</time></trkpt><trkpt lat="45.774356" lon="11.5666065"><ele>692.3333333333333</ele><time>2026-04-26T08:58:09.471Z</time></trkpt><trkpt lat="45.7744136" lon="11.5665502"><ele>694.0</ele><time>2026-04-26T08:58:10.47Z</time></trkpt><trkpt lat="45.7744864" lon="11.5665514"><ele>695.6666666666666</ele><time>2026-04-26T08:58:11.471Z</time></trkpt><trkpt lat="45.774536" lon="11.5666156"><ele>697.3333333333334</ele><time>2026-04-26T08:58:12.47Z</time></trkpt><trkpt lat="45.7745459" lon="11.5667311"><ele>699.0</ele><time>2026-04-26T08:58:13.47Z</time></trkpt><trkpt lat="45.7745365" lon="11.5668764"><ele>700.5</ele><time>2026-04-26T08:58:14.47Z</time></trkpt><trkpt lat="45.7745374" lon="11.5670501"><ele>702.0</ele><time>2026-04-26T08:58:15.47Z</time></trkpt><trkpt lat="45.7745383" lon="11.5672429"><ele>703.5</ele><time>2026-04-26T08:58:16.471Z</time></trkpt><trkpt lat="45.7745617" lon="11.5674101"><ele>705.0</ele><time>2026-04-26T08:58:17.471Z</time></trkpt><trkpt lat="45.7746152" lon="11.5675612"><ele>705.0</ele><time>2026-04-26T08:58:18.471Z</time></trkpt><trkpt lat="45.7746914" lon="11.567683"><ele>705.0</ele><time>2026-04-26T08:58:19.47Z</time></trkpt><trkpt lat="45.7747894" lon="11.5677922"><ele>705.0</ele><time>2026-04-26T08:58:20.47Z</time></trkpt><trkpt lat="45.7749123" lon="11.5678853"><ele>705.0</ele><time>2026-04-26T08:58:21.471Z</time></trkpt><trkpt lat="45.7749971" lon="11.5680389"><ele>704.5</ele><time>2026-04-26T08:58:22.47Z</time></trkpt><trkpt lat="45.7750824" lon="11.5682007"><ele>704.0</ele><time>2026-04-26T08:58:23.47Z</time></trkpt><trkpt lat="45.7751631" lon="11.5683532"><ele>703.5</ele><time>2026-04-26T08:58:24.47Z</time></trkpt><trkpt lat="45.7752387" lon="11.5685005"><ele>703.0</ele><time>2026-04-26T08:58:25.47Z</time></trkpt><trkpt lat="45.7753031" lon="11.5686448"><ele>706.4</ele><time>2026-04-26T08:58:26.47Z</time></trkpt><trkpt lat="45.7753624" lon="11.5687812"><ele>709.8</ele><time>2026-04-26T08:58:27.47Z</time></trkpt><trkpt lat="45.7754124" lon="11.568883"><ele>713.2</ele><time>2026-04-26T08:58:28.47Z</time></trkpt><trkpt lat="45.7754674" lon="11.5689751"><ele>716.6</ele><time>2026-04-26T08:58:29.47Z</time></trkpt><trkpt lat="45.7755464" lon="11.5690577"><ele>720.0</ele><time>2026-04-26T08:58:30.47Z</time></trkpt><trkpt lat="45.7756413" lon="11.5691063"><ele>720.0</ele><time>2026-04-26T08:58:31.47Z</time></trkpt><trkpt lat="45.7757453" lon="11.569124"><ele>720.0</ele><time>2026-04-26T08:58:32.47Z</time></trkpt><trkpt lat="45.7758567" lon="11.5691278"><ele>720.0</ele><time>2026-04-26T08:58:33.47Z</time></trkpt><trkpt lat="45.7759704" lon="11.569131"><ele>720.0</ele><time>2026-04-26T08:58:34.47Z</time></trkpt><trkpt lat="45.7760848" lon="11.56909"><ele>720.0</ele><time>2026-04-26T08:58:35.47Z</time></trkpt><trkpt lat="45.7761899" lon="11.5690248"><ele>722.0</ele><time>2026-04-26T08:58:36.47Z</time></trkpt><trkpt lat="45.7762968" lon="11.5689535"><ele>724.0</ele><time>2026-04-26T08:58:37.47Z</time></trkpt><trkpt lat="45.7764122" lon="11.5688885"><ele>726.0</ele><time>2026-04-26T08:58:38.47Z</time></trkpt><trkpt lat="45.7765191" lon="11.5688254"><ele>728.0</ele><time>2026-04-26T08:58:39.47Z</time></trkpt><trkpt lat="45.7766289" lon="11.5687852"><ele>728.0</ele><time>2026-04-26T08:58:40.471Z</time></trkpt><trkpt lat="45.7767454" lon="11.5687537"><ele>728.0</ele><time>2026-04-26T08:58:41.47Z</time></trkpt><trkpt lat="45.7768698" lon="11.5687337"><ele>728.0</ele><time>2026-04-26T08:58:42.47Z</time></trkpt><trkpt lat="45.7769857" lon="11.5687147"><ele>728.0</ele><time>2026-04-26T08:58:43.471Z</time></trkpt><trkpt lat="45.7771005" lon="11.5686996"><ele>730.75</ele><time>2026-04-26T08:58:44.471Z</time></trkpt><trkpt lat="45.7772244" lon="11.5686801"><ele>733.5</ele><time>2026-04-26T08:58:45.47Z</time></trkpt><trkpt lat="45.7773415" lon="11.5686628"><ele>736.25</ele><time>2026-04-26T08:58:46.47Z</time></trkpt><trkpt lat="45.7774663" lon="11.5686508"><ele>739.0</ele><time>2026-04-26T08:58:47.471Z</time></trkpt><trkpt lat="45.7775861" lon="11.5686477"><ele>740.0</ele><time>2026-04-26T08:58:48.47Z</time></trkpt><trkpt lat="45.7777124" lon="11.5686403"><ele>741.0</ele><time>2026-04-26T08:58:49.471Z</time></trkpt><trkpt lat="45.7778472" lon="11.5686329"><ele>742.0</ele><time>2026-04-26T08:58:50.47Z</time></trkpt><trkpt lat="45.7779776" lon="11.5686342"><ele>743.0</ele><time>2026-04-26T08:58:51.471Z</time></trkpt><trkpt lat="45.7781031" lon="11.5686361"><ele>743.0</ele><time>2026-04-26T08:58:52.47Z</time></trkpt><trkpt lat="45.7782325" lon="11.5686391"><ele>743.0</ele><time>2026-04-26T08:58:53.47Z</time></trkpt><trkpt lat="45.7783766" lon="11.5686307"><ele>743.0</ele><time>2026-04-26T08:58:54.471Z</time></trkpt><trkpt lat="45.7785091" lon="11.5686338"><ele>743.0</ele><time>2026-04-26T08:58:55.471Z</time></trkpt><trkpt lat="45.778652" lon="11.5686388"><ele>745.0</ele><time>2026-04-26T08:58:56.471Z</time></trkpt><trkpt lat="45.7788034" lon="11.5686486"><ele>747.0</ele><time>2026-04-26T08:58:57.47Z</time></trkpt><trkpt lat="45.7789453" lon="11.5686475"><ele>749.0</ele><time>2026-04-26T08:58:58.471Z</time></trkpt><trkpt lat="45.7790882" lon="11.5686518"><ele>751.0</ele><time>2026-04-26T08:58:59.471Z</time></trkpt><trkpt lat="45.7792223" lon="11.5686609"><ele>751.0</ele><time>2026-04-26T08:59:00.47Z</time></trkpt><trkpt lat="45.7793454" lon="11.5686727"><ele>751.0</ele><time>2026-04-26T08:59:01.471Z</time></trkpt><trkpt lat="45.7794627" lon="11.56868"><ele>751.0</ele><time>2026-04-26T08:59:02.47Z</time></trkpt><trkpt lat="45.7795803" lon="11.5686926"><ele>751.0</ele><time>2026-04-26T08:59:03.47Z</time></trkpt><trkpt lat="45.7796944" lon="11.5687153"><ele>752.75</ele><time>2026-04-26T08:59:04.47Z</time></trkpt><trkpt lat="45.7798084" lon="11.5687383"><ele>754.5</ele><time>2026-04-26T08:59:05.47Z</time></trkpt><trkpt lat="45.7799299" lon="11.5687368"><ele>756.25</ele><time>2026-04-26T08:59:06.47Z</time></trkpt><trkpt lat="45.7800587" lon="11.568717"><ele>758.0</ele><time>2026-04-26T08:59:07.47Z</time></trkpt><trkpt lat="45.7801836" lon="11.5686936"><ele>763.0</ele><time>2026-04-26T08:59:08.471Z</time></trkpt><trkpt lat="45.7803105" lon="11.5686653"><ele>768.0</ele><time>2026-04-26T08:59:09.47Z</time></trkpt><trkpt lat="45.7804396" lon="11.5686348"><ele>773.0</ele><time>2026-04-26T08:59:10.47Z</time></trkpt><trkpt lat="45.7805681" lon="11.5686087"><ele>778.0</ele><time>2026-04-26T08:59:11.47Z</time></trkpt><trkpt lat="45.780699" lon="11.5685796"><ele>778.0</ele><time>2026-04-26T08:59:12.471Z</time></trkpt><trkpt lat="45.7808239" lon="11.568547"><ele>778.0</ele><time>2026-04-26T08:59:13.471Z</time></trkpt><trkpt lat="45.7809522" lon="11.5685192"><ele>778.0</ele><time>2026-04-26T08:59:14.471Z</time></trkpt><trkpt lat="45.7810793" lon="11.5684964"><ele>778.0</ele><time>2026-04-26T08:59:15.47Z</time></trkpt><trkpt lat="45.7812123" lon="11.5684833"><ele>780.75</ele><time>2026-04-26T08:59:16.47Z</time></trkpt><trkpt lat="45.7813464" lon="11.5684774"><ele>783.5</ele><time>2026-04-26T08:59:17.471Z</time></trkpt><trkpt lat="45.7814708" lon="11.5684812"><ele>786.25</ele><time>2026-04-26T08:59:18.47Z</time></trkpt><trkpt lat="45.7815949" lon="11.5684882"><ele>789.0</ele><time>2026-04-26T08:59:19.471Z</time></trkpt><trkpt lat="45.7817178" lon="11.5685035"><ele>789.25</ele><time>2026-04-26T08:59:20.471Z</time></trkpt><trkpt lat="45.7818522" lon="11.5685297"><ele>789.5</ele><time>2026-04-26T08:59:21.471Z</time></trkpt><trkpt lat="45.7819802" lon="11.5685684"><ele>789.75</ele><time>2026-04-26T08:59:22.47Z</time></trkpt><trkpt lat="45.7821104" lon="11.5686119"><ele>790.0</ele><time>2026-04-26T08:59:23.471Z</time></trkpt><trkpt lat="45.7822316" lon="11.5686803"><ele>791.5</ele><time>2026-04-26T08:59:24.47Z</time></trkpt><trkpt lat="45.7823515" lon="11.5687531"><ele>793.0</ele><time>2026-04-26T08:59:25.47Z</time></trkpt><trkpt lat="45.7824762" lon="11.5688275"><ele>794.5</ele><time>2026-04-26T08:59:26.47Z</time></trkpt><trkpt lat="45.7825885" lon="11.5688895"><ele>796.0</ele><time>2026-04-26T08:59:27.471Z</time></trkpt><trkpt lat="45.7826972" lon="11.5689556"><ele>796.5999999999999</ele><time>2026-04-26T08:59:28.47Z</time></trkpt><trkpt lat="45.7827953" lon="11.5690133"><ele>797.2</ele><time>2026-04-26T08:59:29.47Z</time></trkpt><trkpt lat="45.7828895" lon="11.5690722"><ele>797.8</ele><time>2026-04-26T08:59:30.471Z</time></trkpt><trkpt lat="45.7829752" lon="11.5691147"><ele>798.4000000000001</ele><time>2026-04-26T08:59:31.47Z</time></trkpt><trkpt lat="45.7830437" lon="11.5691622"><ele>799.0</ele><time>2026-04-26T08:59:32.47Z</time></trkpt><trkpt lat="45.7831075" lon="11.5692249"><ele>798.9999999999999</ele><time>2026-04-26T08:59:33.471Z</time></trkpt><trkpt lat="45.7831588" lon="11.5692926"><ele>799.0</ele><time>2026-04-26T08:59:34.47Z</time></trkpt><trkpt lat="45.7831894" lon="11.5693796"><ele>799.0</ele><time>2026-04-26T08:59:35.47Z</time></trkpt><trkpt lat="45.7832231" lon="11.5695416"><ele>799.0</ele><time>2026-04-26T08:59:37.471Z</time></trkpt><trkpt lat="45.7832797" lon="11.5696301"><ele>798.9999999999999</ele><time>2026-04-26T08:59:40.47Z</time></trkpt><trkpt lat="45.7833623" lon="11.5696175"><ele>799.0</ele><time>2026-04-26T08:59:42.471Z</time></trkpt><trkpt lat="45.7834811" lon="11.5695246"><ele>799.2</ele><time>2026-04-26T08:59:44.47Z</time></trkpt><trkpt lat="45.7835693" lon="11.5694846"><ele>799.4000000000001</ele><time>2026-04-26T08:59:45.471Z</time></trkpt><trkpt lat="45.7836749" lon="11.5694559"><ele>799.6</ele><time>2026-04-26T08:59:46.47Z</time></trkpt><trkpt lat="45.7837918" lon="11.5694264"><ele>799.8</ele><time>2026-04-26T08:59:47.47Z</time></trkpt><trkpt lat="45.7839048" lon="11.5693727"><ele>800.0</ele><time>2026-04-26T08:59:48.47Z</time></trkpt><trkpt lat="45.784027" lon="11.56933"><ele>800.0</ele><time>2026-04-26T08:59:49.47Z</time></trkpt><trkpt lat="45.7841514" lon="11.5692664"><ele>800.0</ele><time>2026-04-26T08:59:50.47Z</time></trkpt><trkpt lat="45.7842742" lon="11.5692042"><ele>800.0</ele><time>2026-04-26T08:59:51.471Z</time></trkpt><trkpt lat="45.7844011" lon="11.5691448"><ele>800.0</ele><time>2026-04-26T08:59:52.471Z</time></trkpt><trkpt lat="45.7845323" lon="11.5690915"><ele>804.25</ele><time>2026-04-26T08:59:53.47Z</time></trkpt><trkpt lat="45.7846684" lon="11.569041"><ele>808.5</ele><time>2026-04-26T08:59:54.47Z</time></trkpt><trkpt lat="45.7848046" lon="11.5689845"><ele>812.75</ele><time>2026-04-26T08:59:55.47Z</time></trkpt><trkpt lat="45.7849387" lon="11.5689236"><ele>817.0</ele><time>2026-04-26T08:59:56.47Z</time></trkpt><trkpt lat="45.7850792" lon="11.5688577"><ele>817.3333333333333</ele><time>2026-04-26T08:59:57.47Z</time></trkpt><trkpt lat="45.7852135" lon="11.5687637"><ele>817.6666666666667</ele><time>2026-04-26T08:59:58.47Z</time></trkpt><trkpt lat="45.7853381" lon="11.5686484"><ele>818.0</ele><time>2026-04-26T08:59:59.471Z</time></trkpt><trkpt lat="45.7854679" lon="11.5685247"><ele>818.0</ele><time>2026-04-26T09:00:00.47Z</time></trkpt><trkpt lat="45.7856065" lon="11.5684072"><ele>818.0</ele><time>2026-04-26T09:00:01.47Z</time></trkpt><trkpt lat="45.785743" lon="11.5682857"><ele>818.0</ele><time>2026-04-26T09:00:02.47Z</time></trkpt><trkpt lat="45.7858802" lon="11.5681822"><ele>816.0</ele><time>2026-04-26T09:00:03.47Z</time></trkpt><trkpt lat="45.7860301" lon="11.5680586"><ele>814.0</ele><time>2026-04-26T09:00:04.47Z</time></trkpt><trkpt lat="45.7861589" lon="11.5679601"><ele>812.0</ele><time>2026-04-26T09:00:05.47Z</time></trkpt><trkpt lat="45.7863029" lon="11.5678385"><ele>812.0</ele><time>2026-04-26T09:00:06.47Z</time></trkpt><trkpt lat="45.7864648" lon="11.5677453"><ele>812.0</ele><time>2026-04-26T09:00:07.471Z</time></trkpt><trkpt lat="45.7866206" lon="11.5676461"><ele>812.0</ele><time>2026-04-26T09:00:08.471Z</time></trkpt><trkpt lat="45.786781" lon="11.5675398"><ele>822.6666666666667</ele><time>2026-04-26T09:00:09.47Z</time></trkpt><trkpt lat="45.7869382" lon="11.5674255"><ele>833.3333333333333</ele><time>2026-04-26T09:00:10.47Z</time></trkpt><trkpt lat="45.7870945" lon="11.5673385"><ele>844.0</ele><time>2026-04-26T09:00:11.47Z</time></trkpt><trkpt lat="45.7872474" lon="11.567239"><ele>844.0</ele><time>2026-04-26T09:00:12.47Z</time></trkpt><trkpt lat="45.7873764" lon="11.5671226"><ele>844.0</ele><time>2026-04-26T09:00:13.47Z</time></trkpt><trkpt lat="45.7874959" lon="11.5669547"><ele>844.0</ele><time>2026-04-26T09:00:14.47Z</time></trkpt><trkpt lat="45.7876209" lon="11.5667665"><ele>843.3333333333333</ele><time>2026-04-26T09:00:15.47Z</time></trkpt><trkpt lat="45.7877185" lon="11.5665727"><ele>842.6666666666667</ele><time>2026-04-26T09:00:16.47Z</time></trkpt><trkpt lat="45.7878282" lon="11.5663779"><ele>842.0</ele><time>2026-04-26T09:00:17.47Z</time></trkpt><trkpt lat="45.7879394" lon="11.5661874"><ele>837.0</ele><time>2026-04-26T09:00:18.47Z</time></trkpt><trkpt lat="45.7880568" lon="11.5660038"><ele>832.0</ele><time>2026-04-26T09:00:19.471Z</time></trkpt><trkpt lat="45.7881904" lon="11.5658372"><ele>827.0</ele><time>2026-04-26T09:00:20.47Z</time></trkpt><trkpt lat="45.7883209" lon="11.5656688"><ele>827.0</ele><time>2026-04-26T09:00:21.471Z</time></trkpt><trkpt lat="45.7884475" lon="11.5654915"><ele>827.0</ele><time>2026-04-26T09:00:22.47Z</time></trkpt><trkpt lat="45.7885508" lon="11.5653105"><ele>827.0</ele><time>2026-04-26T09:00:23.47Z</time></trkpt><trkpt lat="45.7886241" lon="11.5651066"><ele>829.6666666666667</ele><time>2026-04-26T09:00:24.471Z</time></trkpt><trkpt lat="45.7886837" lon="11.5648917"><ele>832.3333333333333</ele><time>2026-04-26T09:00:25.471Z</time></trkpt><trkpt lat="45.788745" lon="11.564647"><ele>835.0</ele><time>2026-04-26T09:00:26.47Z</time></trkpt><trkpt lat="45.7887874" lon="11.5643949"><ele>835.0</ele><time>2026-04-26T09:00:27.47Z</time></trkpt><trkpt lat="45.7888391" lon="11.5641471"><ele>835.0</ele><time>2026-04-26T09:00:28.47Z</time></trkpt><trkpt lat="45.7889206" lon="11.5639395"><ele>835.0</ele><time>2026-04-26T09:00:29.471Z</time></trkpt><trkpt lat="45.7890138" lon="11.5637259"><ele>831.3333333333333</ele><time>2026-04-26T09:00:30.47Z</time></trkpt><trkpt lat="45.789131" lon="11.5635425"><ele>827.6666666666667</ele><time>2026-04-26T09:00:31.471Z</time></trkpt><trkpt lat="45.7892295" lon="11.563354"><ele>824.0</ele><time>2026-04-26T09:00:32.47Z</time></trkpt><trkpt lat="45.7893236" lon="11.5631467"><ele>828.3333333333334</ele><time>2026-04-26T09:00:33.471Z</time></trkpt><trkpt lat="45.789402" lon="11.5629358"><ele>832.6666666666667</ele><time>2026-04-26T09:00:34.47Z</time></trkpt><trkpt lat="45.7894579" lon="11.5626964"><ele>837.0</ele><time>2026-04-26T09:00:35.47Z</time></trkpt><trkpt lat="45.7894881" lon="11.5624925"><ele>837.0</ele><time>2026-04-26T09:00:36.47Z</time></trkpt><trkpt lat="45.7895115" lon="11.562289"><ele>837.0</ele><time>2026-04-26T09:00:37.471Z</time></trkpt><trkpt lat="45.7895374" lon="11.5621021"><ele>837.0</ele><time>2026-04-26T09:00:38.47Z</time></trkpt><trkpt lat="45.789579" lon="11.5619268"><ele>837.0</ele><time>2026-04-26T09:00:39.47Z</time></trkpt><trkpt lat="45.7896235" lon="11.5617593"><ele>835.25</ele><time>2026-04-26T09:00:40.471Z</time></trkpt><trkpt lat="45.7896708" lon="11.5616114"><ele>833.5</ele><time>2026-04-26T09:00:41.471Z</time></trkpt><trkpt lat="45.7897196" lon="11.5614628"><ele>831.75</ele><time>2026-04-26T09:00:42.47Z</time></trkpt><trkpt lat="45.7897765" lon="11.5613227"><ele>830.0</ele><time>2026-04-26T09:00:43.47Z</time></trkpt><trkpt lat="45.7898232" lon="11.5611797"><ele>829.75</ele><time>2026-04-26T09:00:44.47Z</time></trkpt><trkpt lat="45.7898416" lon="11.5610274"><ele>829.5</ele><time>2026-04-26T09:00:45.47Z</time></trkpt><trkpt lat="45.7898644" lon="11.5608777"><ele>829.25</ele><time>2026-04-26T09:00:46.471Z</time></trkpt><trkpt lat="45.7898694" lon="11.5607112"><ele>829.0</ele><time>2026-04-26T09:00:47.471Z</time></trkpt><trkpt lat="45.7898594" lon="11.5605229"><ele>830.25</ele><time>2026-04-26T09:00:48.47Z</time></trkpt><trkpt lat="45.7898661" lon="11.5603324"><ele>831.5</ele><time>2026-04-26T09:00:49.47Z</time></trkpt><trkpt lat="45.7898567" lon="11.5601455"><ele>832.75</ele><time>2026-04-26T09:00:50.47Z</time></trkpt><trkpt lat="45.789859" lon="11.5599659"><ele>834.0</ele><time>2026-04-26T09:00:51.471Z</time></trkpt><trkpt lat="45.7898483" lon="11.5597813"><ele>834.0</ele><time>2026-04-26T09:00:52.47Z</time></trkpt><trkpt lat="45.7898421" lon="11.5595944"><ele>834.0</ele><time>2026-04-26T09:00:53.471Z</time></trkpt><trkpt lat="45.7898409" lon="11.5593944"><ele>834.0</ele><time>2026-04-26T09:00:54.471Z</time></trkpt><trkpt lat="45.7898475" lon="11.5591988"><ele>834.0</ele><time>2026-04-26T09:00:55.471Z</time></trkpt><trkpt lat="45.7898449" lon="11.5589946"><ele>835.25</ele><time>2026-04-26T09:00:56.47Z</time></trkpt><trkpt lat="45.7898485" lon="11.5587885"><ele>836.5</ele><time>2026-04-26T09:00:57.471Z</time></trkpt><trkpt lat="45.7898577" lon="11.5585922"><ele>837.75</ele><time>2026-04-26T09:00:58.47Z</time></trkpt><trkpt lat="45.7898568" lon="11.5583844"><ele>839.0</ele><time>2026-04-26T09:00:59.47Z</time></trkpt><trkpt lat="45.7898437" lon="11.5581741"><ele>840.5</ele><time>2026-04-26T09:01:00.471Z</time></trkpt><trkpt lat="45.7898393" lon="11.5579825"><ele>842.0</ele><time>2026-04-26T09:01:01.47Z</time></trkpt><trkpt lat="45.7898355" lon="11.5578021"><ele>843.5</ele><time>2026-04-26T09:01:02.47Z</time></trkpt><trkpt lat="45.7898225" lon="11.5576149"><ele>845.0</ele><time>2026-04-26T09:01:03.471Z</time></trkpt><trkpt lat="45.789807" lon="11.5574439"><ele>846.8</ele><time>2026-04-26T09:01:04.47Z</time></trkpt><trkpt lat="45.7897539" lon="11.5572644"><ele>848.6</ele><time>2026-04-26T09:01:05.47Z</time></trkpt><trkpt lat="45.7897461" lon="11.5571066"><ele>850.4000000000001</ele><time>2026-04-26T09:01:06.471Z</time></trkpt><trkpt lat="45.7897398" lon="11.5569985"><ele>852.2</ele><time>2026-04-26T09:01:07.47Z</time></trkpt><trkpt lat="45.7897368" lon="11.5568986"><ele>854.0</ele><time>2026-04-26T09:01:08.47Z</time></trkpt><trkpt lat="45.7897967" lon="11.5568079"><ele>854.0</ele><time>2026-04-26T09:01:10.471Z</time></trkpt><trkpt lat="45.789866" lon="11.5569497"><ele>854.0000000000001</ele><time>2026-04-26T09:01:12.471Z</time></trkpt><trkpt lat="45.7898782" lon="11.5570629"><ele>854.0000000000001</ele><time>2026-04-26T09:01:13.471Z</time></trkpt><trkpt lat="45.7898926" lon="11.557204"><ele>854.0</ele><time>2026-04-26T09:01:14.47Z</time></trkpt><trkpt lat="45.7899107" lon="11.5573548"><ele>854.0</ele><time>2026-04-26T09:01:15.471Z</time></trkpt><trkpt lat="45.7899496" lon="11.5575007"><ele>854.0</ele><time>2026-04-26T09:01:16.47Z</time></trkpt><trkpt lat="45.7899845" lon="11.5576603"><ele>854.0000000000001</ele><time>2026-04-26T09:01:17.471Z</time></trkpt><trkpt lat="45.790021" lon="11.5578048"><ele>854.0000000000001</ele><time>2026-04-26T09:01:18.47Z</time></trkpt><trkpt lat="45.7900518" lon="11.5579305"><ele>854.0</ele><time>2026-04-26T09:01:19.47Z</time></trkpt><trkpt lat="45.7900858" lon="11.5580548"><ele>854.0</ele><time>2026-04-26T09:01:20.47Z</time></trkpt><trkpt lat="45.7901301" lon="11.5581458"><ele>859.4000000000001</ele><time>2026-04-26T09:01:21.471Z</time></trkpt><trkpt lat="45.7902332" lon="11.5581094"><ele>864.8000000000001</ele><time>2026-04-26T09:01:23.47Z</time></trkpt><trkpt lat="45.7902421" lon="11.5580142"><ele>870.1999999999999</ele><time>2026-04-26T09:01:24.471Z</time></trkpt><trkpt lat="45.7902382" lon="11.5578789"><ele>875.5999999999999</ele><time>2026-04-26T09:01:25.47Z</time></trkpt><trkpt lat="45.7902207" lon="11.5577157"><ele>881.0</ele><time>2026-04-26T09:01:26.47Z</time></trkpt><trkpt lat="45.790192" lon="11.5575137"><ele>873.3333333333334</ele><time>2026-04-26T09:01:27.47Z</time></trkpt><trkpt lat="45.7901613" lon="11.557302"><ele>865.6666666666667</ele><time>2026-04-26T09:01:28.471Z</time></trkpt><trkpt lat="45.790145" lon="11.5570739"><ele>858.0</ele><time>2026-04-26T09:01:29.47Z</time></trkpt><trkpt lat="45.7901365" lon="11.5568246"><ele>858.0</ele><time>2026-04-26T09:01:30.47Z</time></trkpt><trkpt lat="45.7901247" lon="11.5565749"><ele>858.0</ele><time>2026-04-26T09:01:31.47Z</time></trkpt><trkpt lat="45.7901017" lon="11.5563241"><ele>858.0</ele><time>2026-04-26T09:01:32.471Z</time></trkpt><trkpt lat="45.7900661" lon="11.5560746"><ele>861.6666666666667</ele><time>2026-04-26T09:01:33.471Z</time></trkpt><trkpt lat="45.7900262" lon="11.5558261"><ele>865.3333333333334</ele><time>2026-04-26T09:01:34.47Z</time></trkpt><trkpt lat="45.7899837" lon="11.5555786"><ele>869.0</ele><time>2026-04-26T09:01:35.47Z</time></trkpt><trkpt lat="45.7899305" lon="11.5553312"><ele>872.3333333333334</ele><time>2026-04-26T09:01:36.47Z</time></trkpt><trkpt lat="45.7898785" lon="11.5550957"><ele>875.6666666666667</ele><time>2026-04-26T09:01:37.471Z</time></trkpt><trkpt lat="45.7898334" lon="11.5548811"><ele>879.0</ele><time>2026-04-26T09:01:38.47Z</time></trkpt><trkpt lat="45.7897704" lon="11.5546804"><ele>879.25</ele><time>2026-04-26T09:01:39.47Z</time></trkpt><trkpt lat="45.7897167" lon="11.55449"><ele>879.5</ele><time>2026-04-26T09:01:40.47Z</time></trkpt><trkpt lat="45.789671" lon="11.5543078"><ele>879.75</ele><time>2026-04-26T09:01:41.47Z</time></trkpt><trkpt lat="45.7896225" lon="11.554142"><ele>880.0</ele><time>2026-04-26T09:01:42.47Z</time></trkpt><trkpt lat="45.7895837" lon="11.5539794"><ele>880.0</ele><time>2026-04-26T09:01:43.47Z</time></trkpt><trkpt lat="45.7895492" lon="11.5538363"><ele>880.0</ele><time>2026-04-26T09:01:44.47Z</time></trkpt><trkpt lat="45.789514" lon="11.5537103"><ele>880.0</ele><time>2026-04-26T09:01:45.47Z</time></trkpt><trkpt lat="45.7894896" lon="11.5536047"><ele>880.0</ele><time>2026-04-26T09:01:46.471Z</time></trkpt><trkpt lat="45.7895211" lon="11.5534636"><ele>880.0</ele><time>2026-04-26T09:01:48.471Z</time></trkpt><trkpt lat="45.7896116" lon="11.5534744"><ele>880.3333333333333</ele><time>2026-04-26T09:01:50.47Z</time></trkpt><trkpt lat="45.789709" lon="11.553568"><ele>880.6666666666666</ele><time>2026-04-26T09:01:52.47Z</time></trkpt><trkpt lat="45.7898149" lon="11.5536065"><ele>881.0</ele><time>2026-04-26T09:01:54.47Z</time></trkpt><trkpt lat="45.7898654" lon="11.5535524"><ele>881.3333333333333</ele><time>2026-04-26T09:01:56.47Z</time></trkpt><trkpt lat="45.789806" lon="11.5534912"><ele>881.6666666666666</ele><time>2026-04-26T09:01:59.47Z</time></trkpt><trkpt lat="45.7897431" lon="11.5534531"><ele>882.0</ele><time>2026-04-26T09:02:01.47Z</time></trkpt><trkpt lat="45.7897209" lon="11.5533561"><ele>882.0</ele><time>2026-04-26T09:02:03.471Z</time></trkpt><trkpt lat="45.7897126" lon="11.5532359"><ele>882.0</ele><time>2026-04-26T09:02:05.47Z</time></trkpt><trkpt lat="45.7896507" lon="11.5531016"><ele>882.0</ele><time>2026-04-26T09:02:07.47Z</time></trkpt><trkpt lat="45.7896133" lon="11.553028"><ele>882.0</ele><time>2026-04-26T09:02:08.471Z</time></trkpt><trkpt lat="45.7895268" lon="11.5529026"><ele>882.0</ele><time>2026-04-26T09:02:10.47Z</time></trkpt><trkpt lat="45.789505" lon="11.552813"><ele>882.0</ele><time>2026-04-26T09:02:11.47Z</time></trkpt><trkpt lat="45.789462" lon="11.5526601"><ele>885.0</ele><time>2026-04-26T09:02:13.471Z</time></trkpt><trkpt lat="45.7895261" lon="11.5525953"><ele>888.0</ele><time>2026-04-26T09:02:15.47Z</time></trkpt><trkpt lat="45.7896305" lon="11.5526593"><ele>891.0</ele><time>2026-04-26T09:02:17.471Z</time></trkpt><trkpt lat="45.789739" lon="11.5526943"><ele>894.0</ele><time>2026-04-26T09:02:19.47Z</time></trkpt><trkpt lat="45.7897292" lon="11.5525551"><ele>897.0</ele><time>2026-04-26T09:02:23.471Z</time></trkpt><trkpt lat="45.7896292" lon="11.5524147"><ele>897.0</ele><time>2026-04-26T09:02:25.47Z</time></trkpt><trkpt lat="45.7895659" lon="11.5523116"><ele>897.0</ele><time>2026-04-26T09:02:26.47Z</time></trkpt><trkpt lat="45.789507" lon="11.5522058"><ele>897.0</ele><time>2026-04-26T09:02:27.471Z</time></trkpt><trkpt lat="45.7894445" lon="11.5520804"><ele>897.0</ele><time>2026-04-26T09:02:28.471Z</time></trkpt><trkpt lat="45.789387" lon="11.5519537"><ele>897.0</ele><time>2026-04-26T09:02:29.47Z</time></trkpt><trkpt lat="45.7893176" lon="11.5518143"><ele>897.3333333333334</ele><time>2026-04-26T09:02:30.47Z</time></trkpt><trkpt lat="45.7892736" lon="11.5516931"><ele>897.6666666666667</ele><time>2026-04-26T09:02:31.47Z</time></trkpt><trkpt lat="45.7892179" lon="11.5515646"><ele>898.0</ele><time>2026-04-26T09:02:32.47Z</time></trkpt><trkpt lat="45.7891704" lon="11.5514463"><ele>898.3333333333334</ele><time>2026-04-26T09:02:33.47Z</time></trkpt><trkpt lat="45.7891387" lon="11.5513388"><ele>898.6666666666667</ele><time>2026-04-26T09:02:34.47Z</time></trkpt><trkpt lat="45.78911" lon="11.5512494"><ele>899.0</ele><time>2026-04-26T09:02:35.47Z</time></trkpt><trkpt lat="45.7891886" lon="11.5512271"><ele>899.0</ele><time>2026-04-26T09:02:37.47Z</time></trkpt><trkpt lat="45.7892766" lon="11.5513524"><ele>899.0000000000001</ele><time>2026-04-26T09:02:39.471Z</time></trkpt><trkpt lat="45.7893424" lon="11.5514696"><ele>899.0000000000001</ele><time>2026-04-26T09:02:40.47Z</time></trkpt><trkpt lat="45.7894231" lon="11.551572"><ele>899.0</ele><time>2026-04-26T09:02:41.47Z</time></trkpt><trkpt lat="45.7894976" lon="11.5516731"><ele>899.0</ele><time>2026-04-26T09:02:42.471Z</time></trkpt><trkpt lat="45.7895721" lon="11.5517642"><ele>902.6</ele><time>2026-04-26T09:02:43.47Z</time></trkpt><trkpt lat="45.789633" lon="11.5518121"><ele>906.2</ele><time>2026-04-26T09:02:44.47Z</time></trkpt><trkpt lat="45.7896797" lon="11.5517086"><ele>909.8000000000001</ele><time>2026-04-26T09:02:46.471Z</time></trkpt><trkpt lat="45.7895878" lon="11.5515771"><ele>913.4000000000001</ele><time>2026-04-26T09:02:48.47Z</time></trkpt><trkpt lat="45.7895255" lon="11.5514905"><ele>917.0</ele><time>2026-04-26T09:02:49.47Z</time></trkpt><trkpt lat="45.7894722" lon="11.5513839"><ele>917.0000000000001</ele><time>2026-04-26T09:02:50.47Z</time></trkpt><trkpt lat="45.7894175" lon="11.5512806"><ele>917.0</ele><time>2026-04-26T09:02:51.47Z</time></trkpt><trkpt lat="45.7893743" lon="11.5511737"><ele>917.0</ele><time>2026-04-26T09:02:52.471Z</time></trkpt><trkpt lat="45.7893492" lon="11.5510663"><ele>917.0</ele><time>2026-04-26T09:02:53.47Z</time></trkpt><trkpt lat="45.78933" lon="11.5509575"><ele>917.0000000000001</ele><time>2026-04-26T09:02:54.47Z</time></trkpt><trkpt lat="45.7893261" lon="11.5508489"><ele>917.0</ele><time>2026-04-26T09:02:55.471Z</time></trkpt><trkpt lat="45.7893575" lon="11.5507144"><ele>920.6</ele><time>2026-04-26T09:02:57.47Z</time></trkpt><trkpt lat="45.7894208" lon="11.5507711"><ele>924.2</ele><time>2026-04-26T09:03:00.47Z</time></trkpt><trkpt lat="45.7894384" lon="11.5509045"><ele>927.8</ele><time>2026-04-26T09:03:02.47Z</time></trkpt><trkpt lat="45.7894927" lon="11.5510159"><ele>931.4</ele><time>2026-04-26T09:03:04.47Z</time></trkpt><trkpt lat="45.7895756" lon="11.5511187"><ele>935.0</ele><time>2026-04-26T09:03:06.47Z</time></trkpt><trkpt lat="45.789673" lon="11.5511738"><ele>932.4285714285716</ele><time>2026-04-26T09:03:08.47Z</time></trkpt><trkpt lat="45.7897364" lon="11.5512111"><ele>929.8571428571429</ele><time>2026-04-26T09:03:09.47Z</time></trkpt><trkpt lat="45.7898" lon="11.551245"><ele>927.2857142857143</ele><time>2026-04-26T09:03:10.47Z</time></trkpt><trkpt lat="45.7898654" lon="11.5512682"><ele>924.7142857142858</ele><time>2026-04-26T09:03:11.471Z</time></trkpt><trkpt lat="45.7899369" lon="11.55126"><ele>922.1428571428571</ele><time>2026-04-26T09:03:12.47Z</time></trkpt><trkpt lat="45.7900068" lon="11.5512535"><ele>919.5714285714286</ele><time>2026-04-26T09:03:13.47Z</time></trkpt><trkpt lat="45.7900834" lon="11.5512459"><ele>917.0</ele><time>2026-04-26T09:03:14.47Z</time></trkpt><trkpt lat="45.7901526" lon="11.5512247"><ele>920.0000000000001</ele><time>2026-04-26T09:03:15.471Z</time></trkpt><trkpt lat="45.7902108" lon="11.5511227"><ele>923.0</ele><time>2026-04-26T09:03:17.471Z</time></trkpt><trkpt lat="45.7901765" lon="11.550996"><ele>926.0</ele><time>2026-04-26T09:03:19.47Z</time></trkpt><trkpt lat="45.790149" lon="11.5508987"><ele>929.0</ele><time>2026-04-26T09:03:20.471Z</time></trkpt><trkpt lat="45.7901033" lon="11.5508053"><ele>932.0000000000001</ele><time>2026-04-26T09:03:21.47Z</time></trkpt><trkpt lat="45.7900867" lon="11.5507087"><ele>935.0</ele><time>2026-04-26T09:03:22.47Z</time></trkpt><trkpt lat="45.7901244" lon="11.5505723"><ele>937.0000000000001</ele><time>2026-04-26T09:03:24.47Z</time></trkpt><trkpt lat="45.7902376" lon="11.5504915"><ele>939.0</ele><time>2026-04-26T09:03:26.47Z</time></trkpt><trkpt lat="45.7903036" lon="11.550462"><ele>941.0</ele><time>2026-04-26T09:03:27.47Z</time></trkpt><trkpt lat="45.790377" lon="11.5504159"><ele>943.0</ele><time>2026-04-26T09:03:28.47Z</time></trkpt><trkpt lat="45.7904502" lon="11.5503701"><ele>945.0000000000001</ele><time>2026-04-26T09:03:29.471Z</time></trkpt><trkpt lat="45.7905265" lon="11.5503292"><ele>947.0</ele><time>2026-04-26T09:03:30.471Z</time></trkpt><trkpt lat="45.790607" lon="11.5502774"><ele>948.5000000000001</ele><time>2026-04-26T09:03:31.471Z</time></trkpt><trkpt lat="45.7906793" lon="11.550234"><ele>950.0</ele><time>2026-04-26T09:03:32.47Z</time></trkpt><trkpt lat="45.7907583" lon="11.5502065"><ele>951.5</ele><time>2026-04-26T09:03:33.47Z</time></trkpt><trkpt lat="45.7908464" lon="11.5501717"><ele>953.0</ele><time>2026-04-26T09:03:34.47Z</time></trkpt><trkpt lat="45.7909384" lon="11.5501518"><ele>954.5000000000001</ele><time>2026-04-26T09:03:35.47Z</time></trkpt><trkpt lat="45.7910223" lon="11.5501485"><ele>956.0</ele><time>2026-04-26T09:03:36.47Z</time></trkpt><trkpt lat="45.7911113" lon="11.5501475"><ele>958.5999999999999</ele><time>2026-04-26T09:03:37.47Z</time></trkpt><trkpt lat="45.7911983" lon="11.5501519"><ele>961.1999999999999</ele><time>2026-04-26T09:03:38.47Z</time></trkpt><trkpt lat="45.7912853" lon="11.5501562"><ele>963.8000000000001</ele><time>2026-04-26T09:03:39.47Z</time></trkpt><trkpt lat="45.7913629" lon="11.550149"><ele>966.4000000000001</ele><time>2026-04-26T09:03:40.47Z</time></trkpt><trkpt lat="45.791432" lon="11.5501209"><ele>969.0</ele><time>2026-04-26T09:03:41.47Z</time></trkpt><trkpt lat="45.7914772" lon="11.5499508"><ele>969.0</ele><time>2026-04-26T09:03:43.47Z</time></trkpt><trkpt lat="45.7914612" lon="11.5498513"><ele>969.0000000000001</ele><time>2026-04-26T09:03:44.47Z</time></trkpt><trkpt lat="45.7914495" lon="11.5497266"><ele>969.0000000000001</ele><time>2026-04-26T09:03:45.471Z</time></trkpt><trkpt lat="45.7914337" lon="11.5496022"><ele>969.0</ele><time>2026-04-26T09:03:46.471Z</time></trkpt><trkpt lat="45.7913919" lon="11.5494626"><ele>969.0</ele><time>2026-04-26T09:03:47.47Z</time></trkpt><trkpt lat="45.7913918" lon="11.5493023"><ele>971.3333333333334</ele><time>2026-04-26T09:03:49.47Z</time></trkpt><trkpt lat="45.7914949" lon="11.5492458"><ele>973.6666666666667</ele><time>2026-04-26T09:03:51.471Z</time></trkpt><trkpt lat="45.7915624" lon="11.5492874"><ele>976.0</ele><time>2026-04-26T09:03:52.471Z</time></trkpt><trkpt lat="45.7916448" lon="11.549338"><ele>978.3333333333334</ele><time>2026-04-26T09:03:53.47Z</time></trkpt><trkpt lat="45.7917239" lon="11.5493969"><ele>980.6666666666667</ele><time>2026-04-26T09:03:54.47Z</time></trkpt><trkpt lat="45.7917997" lon="11.5494514"><ele>983.0</ele><time>2026-04-26T09:03:55.47Z</time></trkpt><trkpt lat="45.7918634" lon="11.5494928"><ele>984.0</ele><time>2026-04-26T09:03:56.47Z</time></trkpt><trkpt lat="45.7919395" lon="11.5493971"><ele>985.0</ele><time>2026-04-26T09:03:58.47Z</time></trkpt><trkpt lat="45.7919213" lon="11.5491942"><ele>986.0</ele><time>2026-04-26T09:04:00.47Z</time></trkpt><trkpt lat="45.7919086" lon="11.5490903"><ele>987.0</ele><time>2026-04-26T09:04:01.471Z</time></trkpt><trkpt lat="45.7919857" lon="11.5489483"><ele>988.0</ele><time>2026-04-26T09:04:03.471Z</time></trkpt><trkpt lat="45.7920458" lon="11.5488949"><ele>988.0</ele><time>2026-04-26T09:04:04.471Z</time></trkpt><trkpt lat="45.7921268" lon="11.5488223"><ele>988.0</ele><time>2026-04-26T09:04:05.47Z</time></trkpt><trkpt lat="45.7922012" lon="11.5487419"><ele>988.0</ele><time>2026-04-26T09:04:06.471Z</time></trkpt><trkpt lat="45.7922853" lon="11.5486511"><ele>988.0</ele><time>2026-04-26T09:04:07.471Z</time></trkpt><trkpt lat="45.792367" lon="11.5485721"><ele>988.0</ele><time>2026-04-26T09:04:08.47Z</time></trkpt><trkpt lat="45.7924495" lon="11.5484935"><ele>990.4</ele><time>2026-04-26T09:04:09.47Z</time></trkpt><trkpt lat="45.7925383" lon="11.5484169"><ele>992.8</ele><time>2026-04-26T09:04:10.47Z</time></trkpt><trkpt lat="45.7926163" lon="11.5483273"><ele>995.2</ele><time>2026-04-26T09:04:11.471Z</time></trkpt><trkpt lat="45.7926945" lon="11.548245"><ele>997.6</ele><time>2026-04-26T09:04:12.47Z</time></trkpt><trkpt lat="45.7927776" lon="11.5481955"><ele>1000.0</ele><time>2026-04-26T09:04:13.47Z</time></trkpt><trkpt lat="45.7928654" lon="11.5481708"><ele>1002.4</ele><time>2026-04-26T09:04:14.47Z</time></trkpt><trkpt lat="45.7929518" lon="11.5481515"><ele>1004.8</ele><time>2026-04-26T09:04:15.47Z</time></trkpt><trkpt lat="45.793037" lon="11.5481694"><ele>1007.2</ele><time>2026-04-26T09:04:16.47Z</time></trkpt><trkpt lat="45.7931322" lon="11.5481755"><ele>1009.6</ele><time>2026-04-26T09:04:17.47Z</time></trkpt><trkpt lat="45.7932276" lon="11.5482017"><ele>1012.0</ele><time>2026-04-26T09:04:18.47Z</time></trkpt><trkpt lat="45.7933365" lon="11.5482385"><ele>1012.0</ele><time>2026-04-26T09:04:19.471Z</time></trkpt><trkpt lat="45.793445" lon="11.5482637"><ele>1012.0</ele><time>2026-04-26T09:04:20.47Z</time></trkpt><trkpt lat="45.7935398" lon="11.5483245"><ele>1012.0</ele><time>2026-04-26T09:04:21.47Z</time></trkpt><trkpt lat="45.793636" lon="11.5483505"><ele>1012.0</ele><time>2026-04-26T09:04:22.471Z</time></trkpt><trkpt lat="45.7937338" lon="11.5483721"><ele>1012.0</ele><time>2026-04-26T09:04:23.471Z</time></trkpt><trkpt lat="45.7938442" lon="11.5483793"><ele>1014.1666666666666</ele><time>2026-04-26T09:04:24.47Z</time></trkpt><trkpt lat="45.7939451" lon="11.5483669"><ele>1016.3333333333333</ele><time>2026-04-26T09:04:25.471Z</time></trkpt><trkpt lat="45.7940154" lon="11.5483352"><ele>1018.5</ele><time>2026-04-26T09:04:26.47Z</time></trkpt><trkpt lat="45.7940809" lon="11.5482918"><ele>1020.6666666666667</ele><time>2026-04-26T09:04:27.47Z</time></trkpt><trkpt lat="45.7941211" lon="11.5482174"><ele>1022.8333333333334</ele><time>2026-04-26T09:04:28.47Z</time></trkpt><trkpt lat="45.794154" lon="11.5481051"><ele>1025.0</ele><time>2026-04-26T09:04:29.471Z</time></trkpt><trkpt lat="45.79415" lon="11.548001"><ele>1025.0</ele><time>2026-04-26T09:04:30.471Z</time></trkpt><trkpt lat="45.7941527" lon="11.5478953"><ele>1025.0</ele><time>2026-04-26T09:04:31.47Z</time></trkpt><trkpt lat="45.794172" lon="11.5478064"><ele>1025.0</ele><time>2026-04-26T09:04:32.47Z</time></trkpt><trkpt lat="45.794247" lon="11.5477518"><ele>1025.0</ele><time>2026-04-26T09:04:34.47Z</time></trkpt><trkpt lat="45.7943429" lon="11.5478523"><ele>1025.0</ele><time>2026-04-26T09:04:36.47Z</time></trkpt><trkpt lat="45.7944029" lon="11.5479171"><ele>1025.0</ele><time>2026-04-26T09:04:37.47Z</time></trkpt><trkpt lat="45.7944648" lon="11.5479836"><ele>1028.5</ele><time>2026-04-26T09:04:38.47Z</time></trkpt><trkpt lat="45.7945176" lon="11.5480508"><ele>1032.0</ele><time>2026-04-26T09:04:39.47Z</time></trkpt><trkpt lat="45.7945759" lon="11.5481353"><ele>1035.5</ele><time>2026-04-26T09:04:40.47Z</time></trkpt><trkpt lat="45.7946251" lon="11.5482272"><ele>1039.0</ele><time>2026-04-26T09:04:41.47Z</time></trkpt><trkpt lat="45.7946656" lon="11.5483293"><ele>1042.5</ele><time>2026-04-26T09:04:42.471Z</time></trkpt><trkpt lat="45.7947082" lon="11.5484232"><ele>1046.0</ele><time>2026-04-26T09:04:43.47Z</time></trkpt><trkpt lat="45.7947561" lon="11.5484909"><ele>1046.0</ele><time>2026-04-26T09:04:44.47Z</time></trkpt><trkpt lat="45.7948258" lon="11.5484149"><ele>1046.0</ele><time>2026-04-26T09:04:46.47Z</time></trkpt><trkpt lat="45.7948668" lon="11.5482381"><ele>1046.0</ele><time>2026-04-26T09:04:48.471Z</time></trkpt><trkpt lat="45.7948715" lon="11.5481476"><ele>1046.0</ele><time>2026-04-26T09:04:49.47Z</time></trkpt><trkpt lat="45.794878" lon="11.5480459"><ele>1046.0</ele><time>2026-04-26T09:04:50.471Z</time></trkpt><trkpt lat="45.7948842" lon="11.5478619"><ele>1047.3999999999999</ele><time>2026-04-26T09:04:52.47Z</time></trkpt><trkpt lat="45.7948907" lon="11.5477633"><ele>1048.8</ele><time>2026-04-26T09:04:53.471Z</time></trkpt><trkpt lat="45.7949093" lon="11.5476691"><ele>1050.1999999999998</ele><time>2026-04-26T09:04:54.471Z</time></trkpt><trkpt lat="45.7949559" lon="11.5475106"><ele>1051.6</ele><time>2026-04-26T09:04:56.47Z</time></trkpt><trkpt lat="45.7949962" lon="11.5473715"><ele>1053.0</ele><time>2026-04-26T09:04:58.471Z</time></trkpt><trkpt lat="45.7951008" lon="11.5473725"><ele>1053.0</ele><time>2026-04-26T09:05:00.471Z</time></trkpt><trkpt lat="45.7951682" lon="11.5475047"><ele>1053.0</ele><time>2026-04-26T09:05:02.471Z</time></trkpt><trkpt lat="45.7952174" lon="11.5475896"><ele>1053.0</ele><time>2026-04-26T09:05:03.471Z</time></trkpt><trkpt lat="45.7952623" lon="11.5476672"><ele>1053.0</ele><time>2026-04-26T09:05:04.47Z</time></trkpt><trkpt lat="45.7953159" lon="11.5477334"><ele>1053.0</ele><time>2026-04-26T09:05:05.47Z</time></trkpt><trkpt lat="45.7953684" lon="11.5478046"><ele>1053.0</ele><time>2026-04-26T09:05:06.47Z</time></trkpt><trkpt lat="45.7954302" lon="11.5478829"><ele>1055.1666666666667</ele><time>2026-04-26T09:05:07.47Z</time></trkpt><trkpt lat="45.7954878" lon="11.5479245"><ele>1057.3333333333333</ele><time>2026-04-26T09:05:08.47Z</time></trkpt><trkpt lat="45.7955833" lon="11.5478798"><ele>1059.5</ele><time>2026-04-26T09:05:10.47Z</time></trkpt><trkpt lat="45.7955871" lon="11.5477053"><ele>1061.6666666666665</ele><time>2026-04-26T09:05:12.47Z</time></trkpt><trkpt lat="45.795599" lon="11.5476152"><ele>1063.8333333333333</ele><time>2026-04-26T09:05:13.47Z</time></trkpt><trkpt lat="45.7956822" lon="11.5475619"><ele>1066.0</ele><time>2026-04-26T09:05:15.47Z</time></trkpt><trkpt lat="45.795795" lon="11.5476391"><ele>1067.8333333333333</ele><time>2026-04-26T09:05:17.47Z</time></trkpt><trkpt lat="45.7958531" lon="11.547697"><ele>1069.6666666666665</ele><time>2026-04-26T09:05:18.47Z</time></trkpt><trkpt lat="45.7959031" lon="11.5477531"><ele>1071.5</ele><time>2026-04-26T09:05:19.47Z</time></trkpt><trkpt lat="45.7959761" lon="11.54781"><ele>1073.3333333333333</ele><time>2026-04-26T09:05:21.47Z</time></trkpt><trkpt lat="45.7960139" lon="11.5476995"><ele>1075.1666666666667</ele><time>2026-04-26T09:05:24.47Z</time></trkpt><trkpt lat="45.7959529" lon="11.547555"><ele>1077.0</ele><time>2026-04-26T09:05:26.471Z</time></trkpt><trkpt lat="45.7959193" lon="11.5474596"><ele>1077.0</ele><time>2026-04-26T09:05:27.47Z</time></trkpt><trkpt lat="45.7958876" lon="11.5473572"><ele>1077.0</ele><time>2026-04-26T09:05:28.47Z</time></trkpt><trkpt lat="45.7958629" lon="11.5472615"><ele>1077.0</ele><time>2026-04-26T09:05:29.471Z</time></trkpt><trkpt lat="45.7958366" lon="11.5471705"><ele>1077.0</ele><time>2026-04-26T09:05:30.471Z</time></trkpt><trkpt lat="45.7958114" lon="11.5470823"><ele>1077.0</ele><time>2026-04-26T09:05:31.47Z</time></trkpt><trkpt lat="45.7958636" lon="11.5470038"><ele>1077.0</ele><time>2026-04-26T09:05:33.47Z</time></trkpt><trkpt lat="45.7959305" lon="11.5470903"><ele>1077.0</ele><time>2026-04-26T09:05:35.47Z</time></trkpt><trkpt lat="45.7959985" lon="11.5472598"><ele>1077.0</ele><time>2026-04-26T09:05:37.47Z</time></trkpt><trkpt lat="45.7960446" lon="11.5473254"><ele>1077.0</ele><time>2026-04-26T09:05:38.47Z</time></trkpt><trkpt lat="45.7961018" lon="11.5474112"><ele>1077.0</ele><time>2026-04-26T09:05:39.47Z</time></trkpt><trkpt lat="45.7961638" lon="11.5474802"><ele>1077.0</ele><time>2026-04-26T09:05:40.47Z</time></trkpt><trkpt lat="45.7962335" lon="11.5475481"><ele>1077.0</ele><time>2026-04-26T09:05:41.47Z</time></trkpt><trkpt lat="45.7963007" lon="11.5476232"><ele>1079.0</ele><time>2026-04-26T09:05:42.471Z</time></trkpt><trkpt lat="45.7963727" lon="11.5476828"><ele>1081.0</ele><time>2026-04-26T09:05:43.47Z</time></trkpt><trkpt lat="45.7964606" lon="11.5477386"><ele>1083.0</ele><time>2026-04-26T09:05:44.471Z</time></trkpt><trkpt lat="45.7965505" lon="11.5477702"><ele>1085.0</ele><time>2026-04-26T09:05:45.47Z</time></trkpt><trkpt lat="45.7966443" lon="11.5478042"><ele>1087.0</ele><time>2026-04-26T09:05:46.471Z</time></trkpt><trkpt lat="45.7967412" lon="11.5478366"><ele>1086.2</ele><time>2026-04-26T09:05:47.47Z</time></trkpt><trkpt lat="45.7968379" lon="11.5478513"><ele>1085.4</ele><time>2026-04-26T09:05:48.471Z</time></trkpt><trkpt lat="45.7969355" lon="11.5478788"><ele>1084.6</ele><time>2026-04-26T09:05:49.47Z</time></trkpt><trkpt lat="45.7970313" lon="11.5479036"><ele>1083.8</ele><time>2026-04-26T09:05:50.47Z</time></trkpt><trkpt lat="45.7971321" lon="11.5479453"><ele>1083.0</ele><time>2026-04-26T09:05:51.47Z</time></trkpt><trkpt lat="45.7972333" lon="11.547997"><ele>1083.0</ele><time>2026-04-26T09:05:52.47Z</time></trkpt><trkpt lat="45.7973316" lon="11.5480484"><ele>1083.0</ele><time>2026-04-26T09:05:53.471Z</time></trkpt><trkpt lat="45.7974321" lon="11.5480929"><ele>1083.0</ele><time>2026-04-26T09:05:54.471Z</time></trkpt><trkpt lat="45.7975383" lon="11.5481198"><ele>1083.0</ele><time>2026-04-26T09:05:55.47Z</time></trkpt><trkpt lat="45.7976449" lon="11.5481349"><ele>1083.0</ele><time>2026-04-26T09:05:56.47Z</time></trkpt><trkpt lat="45.7977556" lon="11.5481648"><ele>1088.0</ele><time>2026-04-26T09:05:57.47Z</time></trkpt><trkpt lat="45.7978484" lon="11.5482293"><ele>1093.0</ele><time>2026-04-26T09:05:58.471Z</time></trkpt><trkpt lat="45.7979097" lon="11.5483487"><ele>1098.0</ele><time>2026-04-26T09:05:59.47Z</time></trkpt><trkpt lat="45.7979575" lon="11.5484837"><ele>1103.0</ele><time>2026-04-26T09:06:00.47Z</time></trkpt><trkpt lat="45.7980189" lon="11.548606"><ele>1108.0</ele><time>2026-04-26T09:06:01.47Z</time></trkpt><trkpt lat="45.7980968" lon="11.5487083"><ele>1106.2</ele><time>2026-04-26T09:06:02.47Z</time></trkpt><trkpt lat="45.79819" lon="11.5487761"><ele>1104.4</ele><time>2026-04-26T09:06:03.47Z</time></trkpt><trkpt lat="45.7982929" lon="11.5488334"><ele>1102.6000000000001</ele><time>2026-04-26T09:06:04.47Z</time></trkpt><trkpt lat="45.798373" lon="11.5489227"><ele>1100.8</ele><time>2026-04-26T09:06:05.47Z</time></trkpt><trkpt lat="45.7984168" lon="11.5490501"><ele>1099.0</ele><time>2026-04-26T09:06:06.47Z</time></trkpt><trkpt lat="45.7983945" lon="11.5491797"><ele>1099.0</ele><time>2026-04-26T09:06:07.47Z</time></trkpt><trkpt lat="45.7983553" lon="11.5493172"><ele>1099.0</ele><time>2026-04-26T09:06:08.47Z</time></trkpt><trkpt lat="45.7983492" lon="11.5494652"><ele>1099.0</ele><time>2026-04-26T09:06:09.47Z</time></trkpt><trkpt lat="45.7983602" lon="11.5496088"><ele>1099.0</ele><time>2026-04-26T09:06:10.47Z</time></trkpt><trkpt lat="45.7983972" lon="11.549736"><ele>1099.0</ele><time>2026-04-26T09:06:11.47Z</time></trkpt><trkpt lat="45.7984604" lon="11.549857"><ele>1102.0</ele><time>2026-04-26T09:06:12.47Z</time></trkpt><trkpt lat="45.7985415" lon="11.5499619"><ele>1105.0</ele><time>2026-04-26T09:06:13.47Z</time></trkpt><trkpt lat="45.7986338" lon="11.550052"><ele>1108.0</ele><time>2026-04-26T09:06:14.47Z</time></trkpt><trkpt lat="45.7987348" lon="11.5501394"><ele>1111.0</ele><time>2026-04-26T09:06:15.47Z</time></trkpt><trkpt lat="45.7988385" lon="11.5502066"><ele>1111.0</ele><time>2026-04-26T09:06:16.471Z</time></trkpt><trkpt lat="45.7989504" lon="11.5502694"><ele>1111.0</ele><time>2026-04-26T09:06:17.47Z</time></trkpt><trkpt lat="45.7990542" lon="11.5503086"><ele>1111.0</ele><time>2026-04-26T09:06:18.47Z</time></trkpt><trkpt lat="45.7991654" lon="11.5503355"><ele>1111.0</ele><time>2026-04-26T09:06:19.47Z</time></trkpt><trkpt lat="45.7992684" lon="11.5503368"><ele>1111.0</ele><time>2026-04-26T09:06:20.47Z</time></trkpt><trkpt lat="45.799372" lon="11.5502988"><ele>1109.75</ele><time>2026-04-26T09:06:21.47Z</time></trkpt><trkpt lat="45.799462" lon="11.5502371"><ele>1108.5</ele><time>2026-04-26T09:06:22.47Z</time></trkpt><trkpt lat="45.7995642" lon="11.5501234"><ele>1107.25</ele><time>2026-04-26T09:06:23.47Z</time></trkpt><trkpt lat="45.7996462" lon="11.5500061"><ele>1106.0</ele><time>2026-04-26T09:06:24.471Z</time></trkpt><trkpt lat="45.7997307" lon="11.5498866"><ele>1106.0</ele><time>2026-04-26T09:06:25.47Z</time></trkpt><trkpt lat="45.7998141" lon="11.5497511"><ele>1106.0</ele><time>2026-04-26T09:06:26.47Z</time></trkpt><trkpt lat="45.7999044" lon="11.5496651"><ele>1106.0</ele><time>2026-04-26T09:06:27.47Z</time></trkpt><trkpt lat="45.8000124" lon="11.5496278"><ele>1106.0</ele><time>2026-04-26T09:06:28.47Z</time></trkpt><trkpt lat="45.8001271" lon="11.5496267"><ele>1104.8</ele><time>2026-04-26T09:06:29.471Z</time></trkpt><trkpt lat="45.8002356" lon="11.5496117"><ele>1103.6</ele><time>2026-04-26T09:06:30.47Z</time></trkpt><trkpt lat="45.8003415" lon="11.549586"><ele>1102.4</ele><time>2026-04-26T09:06:31.471Z</time></trkpt><trkpt lat="45.8004209" lon="11.5494706"><ele>1101.2</ele><time>2026-04-26T09:06:32.47Z</time></trkpt><trkpt lat="45.8005004" lon="11.5493633"><ele>1100.0</ele><time>2026-04-26T09:06:33.47Z</time></trkpt><trkpt lat="45.8006151" lon="11.5492783"><ele>1103.75</ele><time>2026-04-26T09:06:34.471Z</time></trkpt><trkpt lat="45.800733" lon="11.5492312"><ele>1107.5</ele><time>2026-04-26T09:06:35.47Z</time></trkpt><trkpt lat="45.8008642" lon="11.5492044"><ele>1111.25</ele><time>2026-04-26T09:06:36.47Z</time></trkpt><trkpt lat="45.8010006" lon="11.5491817"><ele>1115.0</ele><time>2026-04-26T09:06:37.47Z</time></trkpt><trkpt lat="45.8011297" lon="11.5491539"><ele>1115.25</ele><time>2026-04-26T09:06:38.47Z</time></trkpt><trkpt lat="45.8012692" lon="11.549093"><ele>1115.5</ele><time>2026-04-26T09:06:39.47Z</time></trkpt><trkpt lat="45.8013892" lon="11.5490458"><ele>1115.75</ele><time>2026-04-26T09:06:40.47Z</time></trkpt><trkpt lat="45.8014793" lon="11.5489818"><ele>1116.0</ele><time>2026-04-26T09:06:41.471Z</time></trkpt><trkpt lat="45.8015685" lon="11.5489076"><ele>1116.0</ele><time>2026-04-26T09:06:42.47Z</time></trkpt><trkpt lat="45.801655" lon="11.5488734"><ele>1116.0</ele><time>2026-04-26T09:06:43.47Z</time></trkpt><trkpt lat="45.8017366" lon="11.548895"><ele>1116.0</ele><time>2026-04-26T09:06:44.471Z</time></trkpt><trkpt lat="45.8018117" lon="11.5489893"><ele>1116.0</ele><time>2026-04-26T09:06:45.47Z</time></trkpt><trkpt lat="45.8018711" lon="11.5490871"><ele>1116.0</ele><time>2026-04-26T09:06:46.47Z</time></trkpt><trkpt lat="45.8018757" lon="11.5492599"><ele>1119.8</ele><time>2026-04-26T09:06:47.471Z</time></trkpt><trkpt lat="45.8018719" lon="11.5494176"><ele>1123.6</ele><time>2026-04-26T09:06:48.47Z</time></trkpt><trkpt lat="45.8018607" lon="11.5495657"><ele>1127.4</ele><time>2026-04-26T09:06:49.47Z</time></trkpt><trkpt lat="45.8018919" lon="11.5497197"><ele>1131.2</ele><time>2026-04-26T09:06:50.47Z</time></trkpt><trkpt lat="45.8019182" lon="11.5498491"><ele>1135.0</ele><time>2026-04-26T09:06:51.47Z</time></trkpt><trkpt lat="45.8019883" lon="11.5499554"><ele>1135.0</ele><time>2026-04-26T09:06:52.471Z</time></trkpt><trkpt lat="45.802101" lon="11.5500182"><ele>1135.0</ele><time>2026-04-26T09:06:53.47Z</time></trkpt><trkpt lat="45.8021854" lon="11.5501237"><ele>1135.0</ele><time>2026-04-26T09:06:54.471Z</time></trkpt><trkpt lat="45.8022598" lon="11.5502295"><ele>1135.0</ele><time>2026-04-26T09:06:55.471Z</time></trkpt><trkpt lat="45.8023314" lon="11.5503425"><ele>1135.0</ele><time>2026-04-26T09:06:56.471Z</time></trkpt><trkpt lat="45.8023528" lon="11.5505257"><ele>1133.75</ele><time>2026-04-26T09:06:57.47Z</time></trkpt><trkpt lat="45.8023664" lon="11.550698"><ele>1132.5</ele><time>2026-04-26T09:06:58.471Z</time></trkpt><trkpt lat="45.8023794" lon="11.5508659"><ele>1131.25</ele><time>2026-04-26T09:06:59.471Z</time></trkpt><trkpt lat="45.8024074" lon="11.5510494"><ele>1130.0</ele><time>2026-04-26T09:07:00.47Z</time></trkpt><trkpt lat="45.8024268" lon="11.5512118"><ele>1128.75</ele><time>2026-04-26T09:07:01.47Z</time></trkpt><trkpt lat="45.8024589" lon="11.5513846"><ele>1127.5</ele><time>2026-04-26T09:07:02.47Z</time></trkpt><trkpt lat="45.8024971" lon="11.5515552"><ele>1126.25</ele><time>2026-04-26T09:07:03.471Z</time></trkpt><trkpt lat="45.8025336" lon="11.5517319"><ele>1125.0</ele><time>2026-04-26T09:07:04.471Z</time></trkpt><trkpt lat="45.802578" lon="11.5519032"><ele>1125.0</ele><time>2026-04-26T09:07:05.47Z</time></trkpt><trkpt lat="45.8026382" lon="11.5520375"><ele>1125.0</ele><time>2026-04-26T09:07:06.47Z</time></trkpt><trkpt lat="45.8027301" lon="11.5521661"><ele>1125.0</ele><time>2026-04-26T09:07:07.471Z</time></trkpt><trkpt lat="45.8028421" lon="11.552298"><ele>1125.0</ele><time>2026-04-26T09:07:08.47Z</time></trkpt><trkpt lat="45.8029461" lon="11.5524099"><ele>1129.75</ele><time>2026-04-26T09:07:09.47Z</time></trkpt><trkpt lat="45.8030414" lon="11.5525199"><ele>1134.5</ele><time>2026-04-26T09:07:10.47Z</time></trkpt><trkpt lat="45.8031474" lon="11.5526144"><ele>1139.25</ele><time>2026-04-26T09:07:11.471Z</time></trkpt><trkpt lat="45.8032539" lon="11.5527255"><ele>1144.0</ele><time>2026-04-26T09:07:12.471Z</time></trkpt><trkpt lat="45.8033509" lon="11.5528267"><ele>1140.25</ele><time>2026-04-26T09:07:13.47Z</time></trkpt><trkpt lat="45.8034328" lon="11.5529428"><ele>1136.5</ele><time>2026-04-26T09:07:14.47Z</time></trkpt><trkpt lat="45.8035035" lon="11.5530873"><ele>1132.75</ele><time>2026-04-26T09:07:15.47Z</time></trkpt><trkpt lat="45.8035583" lon="11.5532568"><ele>1129.0</ele><time>2026-04-26T09:07:16.47Z</time></trkpt><trkpt lat="45.8036122" lon="11.5534254"><ele>1132.5</ele><time>2026-04-26T09:07:17.471Z</time></trkpt><trkpt lat="45.8036858" lon="11.5536199"><ele>1136.0</ele><time>2026-04-26T09:07:18.47Z</time></trkpt><trkpt lat="45.8037416" lon="11.5537962"><ele>1139.5</ele><time>2026-04-26T09:07:19.47Z</time></trkpt><trkpt lat="45.8038098" lon="11.5539464"><ele>1143.0</ele><time>2026-04-26T09:07:20.471Z</time></trkpt><trkpt lat="45.8038828" lon="11.5540802"><ele>1143.0</ele><time>2026-04-26T09:07:21.471Z</time></trkpt><trkpt lat="45.8039675" lon="11.5541986"><ele>1143.0</ele><time>2026-04-26T09:07:22.471Z</time></trkpt><trkpt lat="45.8040492" lon="11.5543048"><ele>1143.0</ele><time>2026-04-26T09:07:23.47Z</time></trkpt><trkpt lat="45.8041554" lon="11.5543598"><ele>1143.0</ele><time>2026-04-26T09:07:24.47Z</time></trkpt><trkpt lat="45.8042582" lon="11.5544327"><ele>1144.75</ele><time>2026-04-26T09:07:25.47Z</time></trkpt><trkpt lat="45.8043564" lon="11.554509"><ele>1146.5</ele><time>2026-04-26T09:07:26.47Z</time></trkpt><trkpt lat="45.8044544" lon="11.5545693"><ele>1148.25</ele><time>2026-04-26T09:07:27.47Z</time></trkpt><trkpt lat="45.8045745" lon="11.5546335"><ele>1150.0</ele><time>2026-04-26T09:07:28.47Z</time></trkpt><trkpt lat="45.80468" lon="11.5547383"><ele>1150.0</ele><time>2026-04-26T09:07:29.47Z</time></trkpt><trkpt lat="45.8048214" lon="11.5548682"><ele>1150.0</ele><time>2026-04-26T09:07:30.47Z</time></trkpt><trkpt lat="45.8049173" lon="11.5549862"><ele>1150.0</ele><time>2026-04-26T09:07:31.47Z</time></trkpt><trkpt lat="45.8049909" lon="11.5551126"><ele>1150.0</ele><time>2026-04-26T09:07:32.47Z</time></trkpt><trkpt lat="45.8051071" lon="11.5552748"><ele>1151.75</ele><time>2026-04-26T09:07:33.47Z</time></trkpt><trkpt lat="45.8052058" lon="11.5554216"><ele>1153.5</ele><time>2026-04-26T09:07:34.471Z</time></trkpt><trkpt lat="45.8053059" lon="11.5555963"><ele>1155.25</ele><time>2026-04-26T09:07:35.47Z</time></trkpt><trkpt lat="45.8053946" lon="11.5557661"><ele>1157.0</ele><time>2026-04-26T09:07:36.47Z</time></trkpt><trkpt lat="45.8055036" lon="11.5559271"><ele>1157.0</ele><time>2026-04-26T09:07:37.471Z</time></trkpt><trkpt lat="45.8056198" lon="11.5560633"><ele>1157.0</ele><time>2026-04-26T09:07:38.47Z</time></trkpt><trkpt lat="45.8057325" lon="11.5562021"><ele>1157.0</ele><time>2026-04-26T09:07:39.47Z</time></trkpt><trkpt lat="45.8058536" lon="11.5563308"><ele>1157.0</ele><time>2026-04-26T09:07:40.471Z</time></trkpt><trkpt lat="45.805965" lon="11.5564625"><ele>1158.25</ele><time>2026-04-26T09:07:41.47Z</time></trkpt><trkpt lat="45.8060752" lon="11.5565829"><ele>1159.5</ele><time>2026-04-26T09:07:42.47Z</time></trkpt><trkpt lat="45.8061943" lon="11.5567177"><ele>1160.75</ele><time>2026-04-26T09:07:43.47Z</time></trkpt><trkpt lat="45.8063011" lon="11.5568548"><ele>1162.0</ele><time>2026-04-26T09:07:44.47Z</time></trkpt><trkpt lat="45.8064012" lon="11.5569739"><ele>1157.25</ele><time>2026-04-26T09:07:45.47Z</time></trkpt><trkpt lat="45.806498" lon="11.5570993"><ele>1152.5</ele><time>2026-04-26T09:07:46.471Z</time></trkpt><trkpt lat="45.8065936" lon="11.5571915"><ele>1147.75</ele><time>2026-04-26T09:07:47.471Z</time></trkpt><trkpt lat="45.8066932" lon="11.5572903"><ele>1143.0</ele><time>2026-04-26T09:07:48.47Z</time></trkpt><trkpt lat="45.806819" lon="11.5573189"><ele>1148.75</ele><time>2026-04-26T09:07:49.471Z</time></trkpt><trkpt lat="45.806932" lon="11.5574406"><ele>1154.5</ele><time>2026-04-26T09:07:50.47Z</time></trkpt><trkpt lat="45.8070551" lon="11.5575551"><ele>1160.25</ele><time>2026-04-26T09:07:51.47Z</time></trkpt><trkpt lat="45.8071427" lon="11.5576789"><ele>1166.0</ele><time>2026-04-26T09:07:52.47Z</time></trkpt><trkpt lat="45.8072162" lon="11.5577879"><ele>1161.0</ele><time>2026-04-26T09:07:53.47Z</time></trkpt><trkpt lat="45.807323" lon="11.5579372"><ele>1156.0</ele><time>2026-04-26T09:07:54.47Z</time></trkpt><trkpt lat="45.8074004" lon="11.5580356"><ele>1151.0</ele><time>2026-04-26T09:07:55.471Z</time></trkpt><trkpt lat="45.8074902" lon="11.5581321"><ele>1146.0</ele><time>2026-04-26T09:07:56.47Z</time></trkpt><trkpt lat="45.8075966" lon="11.5581874"><ele>1148.25</ele><time>2026-04-26T09:07:57.47Z</time></trkpt><trkpt lat="45.8077223" lon="11.5582263"><ele>1150.5</ele><time>2026-04-26T09:07:58.47Z</time></trkpt><trkpt lat="45.8078497" lon="11.5582641"><ele>1152.75</ele><time>2026-04-26T09:07:59.47Z</time></trkpt><trkpt lat="45.8079711" lon="11.5582631"><ele>1155.0</ele><time>2026-04-26T09:08:00.47Z</time></trkpt><trkpt lat="45.8081169" lon="11.5582653"><ele>1155.0</ele><time>2026-04-26T09:08:01.47Z</time></trkpt><trkpt lat="45.8082212" lon="11.5582321"><ele>1155.0</ele><time>2026-04-26T09:08:02.47Z</time></trkpt><trkpt lat="45.8083263" lon="11.5581832"><ele>1155.0</ele><time>2026-04-26T09:08:03.47Z</time></trkpt><trkpt lat="45.8084236" lon="11.5581386"><ele>1155.0</ele><time>2026-04-26T09:08:04.47Z</time></trkpt><trkpt lat="45.8085039" lon="11.5580853"><ele>1155.0</ele><time>2026-04-26T09:08:05.47Z</time></trkpt><trkpt lat="45.8085646" lon="11.5580264"><ele>1157.6</ele><time>2026-04-26T09:08:06.47Z</time></trkpt><trkpt lat="45.8086232" lon="11.5579687"><ele>1160.2</ele><time>2026-04-26T09:08:07.471Z</time></trkpt><trkpt lat="45.8087002" lon="11.5578927"><ele>1162.8</ele><time>2026-04-26T09:08:09.47Z</time></trkpt><trkpt lat="45.8087519" lon="11.5578272"><ele>1165.4</ele><time>2026-04-26T09:08:11.471Z</time></trkpt><trkpt lat="45.8088394" lon="11.5577651"><ele>1168.0</ele><time>2026-04-26T09:08:14.47Z</time></trkpt><trkpt lat="45.8089737" lon="11.5577375"><ele>1169.25</ele><time>2026-04-26T09:08:16.47Z</time></trkpt><trkpt lat="45.8091095" lon="11.5576991"><ele>1170.5</ele><time>2026-04-26T09:08:18.47Z</time></trkpt><trkpt lat="45.8092541" lon="11.5576813"><ele>1171.75</ele><time>2026-04-26T09:08:19.471Z</time></trkpt><trkpt lat="45.8093581" lon="11.557657"><ele>1173.0</ele><time>2026-04-26T09:08:20.471Z</time></trkpt><trkpt lat="45.8094715" lon="11.5576311"><ele>1173.0</ele><time>2026-04-26T09:08:21.471Z</time></trkpt><trkpt lat="45.8095902" lon="11.5576477"><ele>1173.0</ele><time>2026-04-26T09:08:22.471Z</time></trkpt><trkpt lat="45.8097103" lon="11.5576678"><ele>1173.0</ele><time>2026-04-26T09:08:23.47Z</time></trkpt><trkpt lat="45.8098435" lon="11.5576766"><ele>1173.0</ele><time>2026-04-26T09:08:24.47Z</time></trkpt><trkpt lat="45.8099461" lon="11.5576755"><ele>1173.0</ele><time>2026-04-26T09:08:25.47Z</time></trkpt><trkpt lat="45.8100517" lon="11.557652"><ele>1173.0</ele><time>2026-04-26T09:08:26.471Z</time></trkpt><trkpt lat="45.8101456" lon="11.5575922"><ele>1173.0</ele><time>2026-04-26T09:08:27.47Z</time></trkpt><trkpt lat="45.8102375" lon="11.5575213"><ele>1173.0</ele><time>2026-04-26T09:08:28.47Z</time></trkpt><trkpt lat="45.8103358" lon="11.5574248"><ele>1173.0</ele><time>2026-04-26T09:08:29.471Z</time></trkpt><trkpt lat="45.8104376" lon="11.5573333"><ele>1173.25</ele><time>2026-04-26T09:08:30.47Z</time></trkpt><trkpt lat="45.810547" lon="11.5572498"><ele>1173.5</ele><time>2026-04-26T09:08:31.47Z</time></trkpt><trkpt lat="45.8106484" lon="11.5571649"><ele>1173.75</ele><time>2026-04-26T09:08:32.47Z</time></trkpt><trkpt lat="45.8107474" lon="11.5570786"><ele>1174.0</ele><time>2026-04-26T09:08:33.47Z</time></trkpt><trkpt lat="45.810839" lon="11.5570109"><ele>1175.6666666666665</ele><time>2026-04-26T09:08:34.47Z</time></trkpt><trkpt lat="45.8109197" lon="11.5569701"><ele>1177.3333333333333</ele><time>2026-04-26T09:08:35.471Z</time></trkpt><trkpt lat="45.811002" lon="11.5569498"><ele>1179.0</ele><time>2026-04-26T09:08:36.471Z</time></trkpt><trkpt lat="45.8110857" lon="11.5569442"><ele>1180.6666666666667</ele><time>2026-04-26T09:08:37.47Z</time></trkpt><trkpt lat="45.8111741" lon="11.5569688"><ele>1182.3333333333335</ele><time>2026-04-26T09:08:38.471Z</time></trkpt><trkpt lat="45.8112739" lon="11.5569866"><ele>1184.0</ele><time>2026-04-26T09:08:39.471Z</time></trkpt><trkpt lat="45.8113761" lon="11.5569943"><ele>1184.3333333333335</ele><time>2026-04-26T09:08:40.47Z</time></trkpt><trkpt lat="45.8114687" lon="11.5570268"><ele>1184.6666666666667</ele><time>2026-04-26T09:08:41.47Z</time></trkpt><trkpt lat="45.8115465" lon="11.5570746"><ele>1185.0</ele><time>2026-04-26T09:08:42.47Z</time></trkpt><trkpt lat="45.8116245" lon="11.5571366"><ele>1185.3333333333333</ele><time>2026-04-26T09:08:43.47Z</time></trkpt><trkpt lat="45.8116976" lon="11.557199"><ele>1185.6666666666665</ele><time>2026-04-26T09:08:44.47Z</time></trkpt><trkpt lat="45.811749" lon="11.5572828"><ele>1186.0</ele><time>2026-04-26T09:08:45.471Z</time></trkpt><trkpt lat="45.8117976" lon="11.5573598"><ele>1185.2</ele><time>2026-04-26T09:08:46.471Z</time></trkpt><trkpt lat="45.8118536" lon="11.557429"><ele>1184.3999999999999</ele><time>2026-04-26T09:08:47.471Z</time></trkpt><trkpt lat="45.811953" lon="11.5575145"><ele>1183.6</ele><time>2026-04-26T09:08:49.471Z</time></trkpt><trkpt lat="45.8120439" lon="11.5575589"><ele>1182.8</ele><time>2026-04-26T09:08:51.47Z</time></trkpt><trkpt lat="45.8121194" lon="11.557613"><ele>1182.0</ele><time>2026-04-26T09:08:53.47Z</time></trkpt><trkpt lat="45.812211" lon="11.5576897"><ele>1182.0</ele><time>2026-04-26T09:08:55.47Z</time></trkpt><trkpt lat="45.8122744" lon="11.557718"><ele>1182.0</ele><time>2026-04-26T09:08:56.47Z</time></trkpt><trkpt lat="45.8123413" lon="11.5577731"><ele>1182.0</ele><time>2026-04-26T09:08:57.47Z</time></trkpt><trkpt lat="45.8124132" lon="11.5578546"><ele>1182.0</ele><time>2026-04-26T09:08:58.47Z</time></trkpt><trkpt lat="45.8124817" lon="11.5579272"><ele>1182.0</ele><time>2026-04-26T09:08:59.47Z</time></trkpt><trkpt lat="45.8125629" lon="11.5580166"><ele>1182.0</ele><time>2026-04-26T09:09:00.47Z</time></trkpt><trkpt lat="45.8126575" lon="11.5581081"><ele>1180.25</ele><time>2026-04-26T09:09:01.47Z</time></trkpt><trkpt lat="45.8127431" lon="11.5582042"><ele>1178.5</ele><time>2026-04-26T09:09:02.47Z</time></trkpt><trkpt lat="45.8128182" lon="11.5583154"><ele>1176.75</ele><time>2026-04-26T09:09:03.47Z</time></trkpt><trkpt lat="45.8128963" lon="11.5584425"><ele>1175.0</ele><time>2026-04-26T09:09:04.47Z</time></trkpt><trkpt lat="45.8129824" lon="11.5585994"><ele>1173.0</ele><time>2026-04-26T09:09:05.471Z</time></trkpt><trkpt lat="45.8130727" lon="11.5587417"><ele>1171.0</ele><time>2026-04-26T09:09:06.47Z</time></trkpt><trkpt lat="45.813182" lon="11.5588903"><ele>1169.0</ele><time>2026-04-26T09:09:07.47Z</time></trkpt><trkpt lat="45.8133069" lon="11.5590153"><ele>1167.0</ele><time>2026-04-26T09:09:08.47Z</time></trkpt><trkpt lat="45.8134277" lon="11.559123"><ele>1169.25</ele><time>2026-04-26T09:09:09.47Z</time></trkpt><trkpt lat="45.8135512" lon="11.5592215"><ele>1171.5</ele><time>2026-04-26T09:09:10.471Z</time></trkpt><trkpt lat="45.8136767" lon="11.5593058"><ele>1173.75</ele><time>2026-04-26T09:09:11.47Z</time></trkpt><trkpt lat="45.8137937" lon="11.5593809"><ele>1176.0</ele><time>2026-04-26T09:09:12.47Z</time></trkpt><trkpt lat="45.8138999" lon="11.5594573"><ele>1175.25</ele><time>2026-04-26T09:09:13.471Z</time></trkpt><trkpt lat="45.8140021" lon="11.5595394"><ele>1174.5</ele><time>2026-04-26T09:09:14.47Z</time></trkpt><trkpt lat="45.8140846" lon="11.5596357"><ele>1173.75</ele><time>2026-04-26T09:09:15.47Z</time></trkpt><trkpt lat="45.8141611" lon="11.5597538"><ele>1173.0</ele><time>2026-04-26T09:09:16.471Z</time></trkpt><trkpt lat="45.8142388" lon="11.5598925"><ele>1173.0</ele><time>2026-04-26T09:09:17.471Z</time></trkpt><trkpt lat="45.8143061" lon="11.5600327"><ele>1173.0</ele><time>2026-04-26T09:09:18.47Z</time></trkpt><trkpt lat="45.8143717" lon="11.5601577"><ele>1173.0</ele><time>2026-04-26T09:09:19.47Z</time></trkpt><trkpt lat="45.8144254" lon="11.5602527"><ele>1173.0</ele><time>2026-04-26T09:09:20.471Z</time></trkpt><trkpt lat="45.8144837" lon="11.5603443"><ele>1173.0</ele><time>2026-04-26T09:09:21.471Z</time></trkpt><trkpt lat="45.8145463" lon="11.560411"><ele>1173.5714285714287</ele><time>2026-04-26T09:09:22.47Z</time></trkpt><trkpt lat="45.8146048" lon="11.5604732"><ele>1174.142857142857</ele><time>2026-04-26T09:09:23.47Z</time></trkpt><trkpt lat="45.8146543" lon="11.5605372"><ele>1174.7142857142858</ele><time>2026-04-26T09:09:24.47Z</time></trkpt><trkpt lat="45.8146952" lon="11.560609"><ele>1175.2857142857142</ele><time>2026-04-26T09:09:25.471Z</time></trkpt><trkpt lat="45.8147499" lon="11.5606841"><ele>1175.857142857143</ele><time>2026-04-26T09:09:26.47Z</time></trkpt><trkpt lat="45.8147991" lon="11.5607682"><ele>1176.4285714285716</ele><time>2026-04-26T09:09:27.47Z</time></trkpt><trkpt lat="45.8148427" lon="11.5608607"><ele>1177.0</ele><time>2026-04-26T09:09:28.471Z</time></trkpt><trkpt lat="45.8148905" lon="11.5609481"><ele>1177.0</ele><time>2026-04-26T09:09:29.47Z</time></trkpt><trkpt lat="45.8149424" lon="11.5610342"><ele>1177.0</ele><time>2026-04-26T09:09:30.47Z</time></trkpt><trkpt lat="45.8149894" lon="11.5611084"><ele>1177.0</ele><time>2026-04-26T09:09:31.47Z</time></trkpt><trkpt lat="45.8150371" lon="11.5611735"><ele>1177.0</ele><time>2026-04-26T09:09:32.47Z</time></trkpt><trkpt lat="45.8150934" lon="11.56126"><ele>1177.0</ele><time>2026-04-26T09:09:33.47Z</time></trkpt><trkpt lat="45.8151473" lon="11.5613472"><ele>1177.0</ele><time>2026-04-26T09:09:34.47Z</time></trkpt><trkpt lat="45.8152064" lon="11.5614288"><ele>1177.2857142857142</ele><time>2026-04-26T09:09:35.47Z</time></trkpt><trkpt lat="45.8152535" lon="11.5615039"><ele>1177.5714285714284</ele><time>2026-04-26T09:09:36.471Z</time></trkpt><trkpt lat="45.8152995" lon="11.5615931"><ele>1177.8571428571427</ele><time>2026-04-26T09:09:37.471Z</time></trkpt><trkpt lat="45.815338" lon="11.5616679"><ele>1178.142857142857</ele><time>2026-04-26T09:09:38.47Z</time></trkpt><trkpt lat="45.8153821" lon="11.561755"><ele>1178.4285714285713</ele><time>2026-04-26T09:09:39.47Z</time></trkpt><trkpt lat="45.8154246" lon="11.5618414"><ele>1178.7142857142856</ele><time>2026-04-26T09:09:40.47Z</time></trkpt><trkpt lat="45.8154706" lon="11.5619263"><ele>1179.0</ele><time>2026-04-26T09:09:41.47Z</time></trkpt><trkpt lat="45.8155119" lon="11.5620271"><ele>1178.1666666666667</ele><time>2026-04-26T09:09:42.47Z</time></trkpt><trkpt lat="45.8155642" lon="11.5621401"><ele>1177.3333333333333</ele><time>2026-04-26T09:09:43.47Z</time></trkpt><trkpt lat="45.8156026" lon="11.562232"><ele>1176.5</ele><time>2026-04-26T09:09:44.47Z</time></trkpt><trkpt lat="45.8156432" lon="11.5623294"><ele>1175.6666666666665</ele><time>2026-04-26T09:09:45.47Z</time></trkpt><trkpt lat="45.8156889" lon="11.5624224"><ele>1174.8333333333333</ele><time>2026-04-26T09:09:46.47Z</time></trkpt><trkpt lat="45.8157382" lon="11.562501"><ele>1174.0</ele><time>2026-04-26T09:09:47.47Z</time></trkpt><trkpt lat="45.815824" lon="11.56263"><ele>1174.0</ele><time>2026-04-26T09:09:49.471Z</time></trkpt><trkpt lat="45.8158926" lon="11.5626882"><ele>1174.0</ele><time>2026-04-26T09:09:50.47Z</time></trkpt><trkpt lat="45.815949" lon="11.5627492"><ele>1174.0</ele><time>2026-04-26T09:09:51.47Z</time></trkpt><trkpt lat="45.816004" lon="11.5628035"><ele>1174.0</ele><time>2026-04-26T09:09:52.47Z</time></trkpt><trkpt lat="45.8161002" lon="11.5629044"><ele>1174.0</ele><time>2026-04-26T09:09:54.471Z</time></trkpt><trkpt lat="45.8161454" lon="11.5629712"><ele>1174.0</ele><time>2026-04-26T09:09:55.471Z</time></trkpt><trkpt lat="45.8162291" lon="11.5630656"><ele>1173.0</ele><time>2026-04-26T09:09:57.471Z</time></trkpt><trkpt lat="45.8162791" lon="11.5631309"><ele>1172.0</ele><time>2026-04-26T09:09:58.47Z</time></trkpt><trkpt lat="45.8163783" lon="11.5632439"><ele>1171.0</ele><time>2026-04-26T09:10:00.471Z</time></trkpt><trkpt lat="45.8164357" lon="11.563308"><ele>1170.0</ele><time>2026-04-26T09:10:01.471Z</time></trkpt><trkpt lat="45.8165024" lon="11.5633851"><ele>1169.0</ele><time>2026-04-26T09:10:02.471Z</time></trkpt><trkpt lat="45.8165794" lon="11.5634446"><ele>1168.0</ele><time>2026-04-26T09:10:03.471Z</time></trkpt><trkpt lat="45.8166643" lon="11.5635075"><ele>1168.0</ele><time>2026-04-26T09:10:04.47Z</time></trkpt><trkpt lat="45.8167473" lon="11.5635725"><ele>1168.0</ele><time>2026-04-26T09:10:05.47Z</time></trkpt><trkpt lat="45.8168306" lon="11.5636351"><ele>1168.0</ele><time>2026-04-26T09:10:06.47Z</time></trkpt><trkpt lat="45.8169103" lon="11.5637061"><ele>1168.0</ele><time>2026-04-26T09:10:07.47Z</time></trkpt><trkpt lat="45.8169812" lon="11.5637628"><ele>1168.0</ele><time>2026-04-26T09:10:08.47Z</time></trkpt><trkpt lat="45.8170576" lon="11.5638166"><ele>1168.0</ele><time>2026-04-26T09:10:09.471Z</time></trkpt><trkpt lat="45.8171228" lon="11.5638779"><ele>1167.8333333333333</ele><time>2026-04-26T09:10:10.47Z</time></trkpt><trkpt lat="45.8171836" lon="11.5639438"><ele>1167.6666666666665</ele><time>2026-04-26T09:10:11.47Z</time></trkpt><trkpt lat="45.8172294" lon="11.5640067"><ele>1167.5</ele><time>2026-04-26T09:10:12.47Z</time></trkpt><trkpt lat="45.8172795" lon="11.5640785"><ele>1167.3333333333333</ele><time>2026-04-26T09:10:13.47Z</time></trkpt><trkpt lat="45.817324" lon="11.5641744"><ele>1167.1666666666667</ele><time>2026-04-26T09:10:14.47Z</time></trkpt><trkpt lat="45.8173718" lon="11.5642929"><ele>1167.0</ele><time>2026-04-26T09:10:15.471Z</time></trkpt><trkpt lat="45.8174053" lon="11.5644288"><ele>1166.0</ele><time>2026-04-26T09:10:16.471Z</time></trkpt><trkpt lat="45.8174349" lon="11.5645853"><ele>1165.0</ele><time>2026-04-26T09:10:17.47Z</time></trkpt><trkpt lat="45.8174775" lon="11.5647555"><ele>1164.0</ele><time>2026-04-26T09:10:18.47Z</time></trkpt><trkpt lat="45.8175171" lon="11.5649195"><ele>1163.0</ele><time>2026-04-26T09:10:19.47Z</time></trkpt><trkpt lat="45.8175605" lon="11.5650878"><ele>1163.0</ele><time>2026-04-26T09:10:20.47Z</time></trkpt><trkpt lat="45.8175941" lon="11.5652301"><ele>1163.0</ele><time>2026-04-26T09:10:21.47Z</time></trkpt><trkpt lat="45.817639" lon="11.5653763"><ele>1163.0</ele><time>2026-04-26T09:10:22.47Z</time></trkpt><trkpt lat="45.8176795" lon="11.5655077"><ele>1163.0</ele><time>2026-04-26T09:10:23.471Z</time></trkpt><trkpt lat="45.8177329" lon="11.5656361"><ele>1163.0</ele><time>2026-04-26T09:10:24.47Z</time></trkpt><trkpt lat="45.8178117" lon="11.5657571"><ele>1162.6</ele><time>2026-04-26T09:10:25.47Z</time></trkpt><trkpt lat="45.8178891" lon="11.5658623"><ele>1162.1999999999998</ele><time>2026-04-26T09:10:26.47Z</time></trkpt><trkpt lat="45.8179776" lon="11.565948"><ele>1161.8</ele><time>2026-04-26T09:10:27.47Z</time></trkpt><trkpt lat="45.8180612" lon="11.566018"><ele>1161.3999999999999</ele><time>2026-04-26T09:10:28.471Z</time></trkpt><trkpt lat="45.8181382" lon="11.5660717"><ele>1161.0</ele><time>2026-04-26T09:10:29.47Z</time></trkpt><trkpt lat="45.8182183" lon="11.5661138"><ele>1161.0</ele><time>2026-04-26T09:10:30.471Z</time></trkpt><trkpt lat="45.8183042" lon="11.5661388"><ele>1161.0</ele><time>2026-04-26T09:10:31.471Z</time></trkpt><trkpt lat="45.8183893" lon="11.5661645"><ele>1161.0</ele><time>2026-04-26T09:10:32.47Z</time></trkpt><trkpt lat="45.8184764" lon="11.5661942"><ele>1161.0</ele><time>2026-04-26T09:10:33.471Z</time></trkpt><trkpt lat="45.8185565" lon="11.5662188"><ele>1161.0</ele><time>2026-04-26T09:10:34.47Z</time></trkpt><trkpt lat="45.8186404" lon="11.5662161"><ele>1161.0</ele><time>2026-04-26T09:10:35.471Z</time></trkpt><trkpt lat="45.8187312" lon="11.5661904"><ele>1160.8</ele><time>2026-04-26T09:10:36.47Z</time></trkpt><trkpt lat="45.8188362" lon="11.5661416"><ele>1160.6</ele><time>2026-04-26T09:10:37.47Z</time></trkpt><trkpt lat="45.8189457" lon="11.5660938"><ele>1160.4</ele><time>2026-04-26T09:10:38.47Z</time></trkpt><trkpt lat="45.8190362" lon="11.5660617"><ele>1160.2</ele><time>2026-04-26T09:10:39.471Z</time></trkpt><trkpt lat="45.8191463" lon="11.5661047"><ele>1160.0</ele><time>2026-04-26T09:10:40.47Z</time></trkpt><trkpt lat="45.8192423" lon="11.5661032"><ele>1160.2</ele><time>2026-04-26T09:10:41.47Z</time></trkpt><trkpt lat="45.8193491" lon="11.5660962"><ele>1160.4</ele><time>2026-04-26T09:10:42.47Z</time></trkpt><trkpt lat="45.8194625" lon="11.5660815"><ele>1160.6</ele><time>2026-04-26T09:10:43.471Z</time></trkpt><trkpt lat="45.8195739" lon="11.5660788"><ele>1160.8</ele><time>2026-04-26T09:10:44.47Z</time></trkpt><trkpt lat="45.8196897" lon="11.5660687"><ele>1161.0</ele><time>2026-04-26T09:10:45.47Z</time></trkpt><trkpt lat="45.8198035" lon="11.5660748"><ele>1161.0</ele><time>2026-04-26T09:10:46.47Z</time></trkpt><trkpt lat="45.8199176" lon="11.566077"><ele>1161.0</ele><time>2026-04-26T09:10:47.47Z</time></trkpt><trkpt lat="45.8200331" lon="11.5660732"><ele>1161.0</ele><time>2026-04-26T09:10:48.47Z</time></trkpt><trkpt lat="45.8201484" lon="11.5660776"><ele>1161.0</ele><time>2026-04-26T09:10:49.47Z</time></trkpt><trkpt lat="45.8202656" lon="11.5660749"><ele>1161.5</ele><time>2026-04-26T09:10:50.47Z</time></trkpt><trkpt lat="45.8203792" lon="11.5660641"><ele>1162.0</ele><time>2026-04-26T09:10:51.47Z</time></trkpt><trkpt lat="45.8204997" lon="11.5660626"><ele>1162.5</ele><time>2026-04-26T09:10:52.471Z</time></trkpt><trkpt lat="45.8206189" lon="11.5660657"><ele>1163.0</ele><time>2026-04-26T09:10:53.47Z</time></trkpt><trkpt lat="45.8207386" lon="11.566079"><ele>1163.0</ele><time>2026-04-26T09:10:54.471Z</time></trkpt><trkpt lat="45.8208425" lon="11.5661137"><ele>1163.0</ele><time>2026-04-26T09:10:55.47Z</time></trkpt><trkpt lat="45.8209413" lon="11.5661598"><ele>1163.0</ele><time>2026-04-26T09:10:56.471Z</time></trkpt><trkpt lat="45.8210698" lon="11.5662172"><ele>1163.0</ele><time>2026-04-26T09:10:57.471Z</time></trkpt><trkpt lat="45.8211824" lon="11.5662786"><ele>1162.25</ele><time>2026-04-26T09:10:58.471Z</time></trkpt><trkpt lat="45.8213022" lon="11.5663301"><ele>1161.5</ele><time>2026-04-26T09:10:59.47Z</time></trkpt><trkpt lat="45.8214144" lon="11.5663915"><ele>1160.75</ele><time>2026-04-26T09:11:00.47Z</time></trkpt><trkpt lat="45.821527" lon="11.5664541"><ele>1160.0</ele><time>2026-04-26T09:11:01.471Z</time></trkpt><trkpt lat="45.8216461" lon="11.5665174"><ele>1160.0</ele><time>2026-04-26T09:11:02.47Z</time></trkpt><trkpt lat="45.8217736" lon="11.5665658"><ele>1160.0</ele><time>2026-04-26T09:11:03.47Z</time></trkpt><trkpt lat="45.8219074" lon="11.566619"><ele>1160.0</ele><time>2026-04-26T09:11:04.47Z</time></trkpt><trkpt lat="45.8220435" lon="11.5666651"><ele>1160.0</ele><time>2026-04-26T09:11:05.471Z</time></trkpt><trkpt lat="45.8221864" lon="11.5667179"><ele>1159.0</ele><time>2026-04-26T09:11:06.47Z</time></trkpt><trkpt lat="45.8223146" lon="11.5667635"><ele>1158.0</ele><time>2026-04-26T09:11:07.47Z</time></trkpt><trkpt lat="45.8224489" lon="11.5667978"><ele>1157.0</ele><time>2026-04-26T09:11:08.47Z</time></trkpt><trkpt lat="45.8225759" lon="11.5668275"><ele>1156.0</ele><time>2026-04-26T09:11:09.47Z</time></trkpt><trkpt lat="45.8226988" lon="11.5668616"><ele>1155.75</ele><time>2026-04-26T09:11:10.47Z</time></trkpt><trkpt lat="45.8228271" lon="11.5669037"><ele>1155.5</ele><time>2026-04-26T09:11:11.47Z</time></trkpt><trkpt lat="45.8229546" lon="11.5669719"><ele>1155.25</ele><time>2026-04-26T09:11:12.47Z</time></trkpt><trkpt lat="45.8230798" lon="11.5670248"><ele>1155.0</ele><time>2026-04-26T09:11:13.47Z</time></trkpt><trkpt lat="45.8232013" lon="11.5670717"><ele>1154.75</ele><time>2026-04-26T09:11:14.47Z</time></trkpt><trkpt lat="45.8233206" lon="11.567099"><ele>1154.5</ele><time>2026-04-26T09:11:15.471Z</time></trkpt><trkpt lat="45.8234474" lon="11.5670866"><ele>1154.25</ele><time>2026-04-26T09:11:16.47Z</time></trkpt><trkpt lat="45.8235788" lon="11.5670791"><ele>1154.0</ele><time>2026-04-26T09:11:17.47Z</time></trkpt><trkpt lat="45.8237248" lon="11.5670408"><ele>1154.25</ele><time>2026-04-26T09:11:18.471Z</time></trkpt><trkpt lat="45.8238669" lon="11.5669921"><ele>1154.5</ele><time>2026-04-26T09:11:19.47Z</time></trkpt><trkpt lat="45.824013" lon="11.5669552"><ele>1154.75</ele><time>2026-04-26T09:11:20.47Z</time></trkpt><trkpt lat="45.8241634" lon="11.5669303"><ele>1155.0</ele><time>2026-04-26T09:11:21.47Z</time></trkpt><trkpt lat="45.8242897" lon="11.5669082"><ele>1155.25</ele><time>2026-04-26T09:11:22.47Z</time></trkpt><trkpt lat="45.8244161" lon="11.566897"><ele>1155.5</ele><time>2026-04-26T09:11:23.47Z</time></trkpt><trkpt lat="45.8245318" lon="11.5668914"><ele>1155.75</ele><time>2026-04-26T09:11:24.47Z</time></trkpt><trkpt lat="45.8246427" lon="11.5668953"><ele>1156.0</ele><time>2026-04-26T09:11:25.47Z</time></trkpt><trkpt lat="45.8247576" lon="11.5669006"><ele>1156.0</ele><time>2026-04-26T09:11:26.471Z</time></trkpt><trkpt lat="45.8248643" lon="11.5669223"><ele>1156.0</ele><time>2026-04-26T09:11:27.471Z</time></trkpt><trkpt lat="45.8249628" lon="11.5669533"><ele>1156.0</ele><time>2026-04-26T09:11:28.471Z</time></trkpt><trkpt lat="45.8250775" lon="11.5669947"><ele>1156.0</ele><time>2026-04-26T09:11:29.47Z</time></trkpt><trkpt lat="45.8251772" lon="11.5670444"><ele>1156.0</ele><time>2026-04-26T09:11:30.47Z</time></trkpt><trkpt lat="45.8252694" lon="11.5671011"><ele>1153.6</ele><time>2026-04-26T09:11:31.47Z</time></trkpt><trkpt lat="45.8253706" lon="11.5671586"><ele>1151.1999999999998</ele><time>2026-04-26T09:11:32.47Z</time></trkpt><trkpt lat="45.8254624" lon="11.5672129"><ele>1148.8000000000002</ele><time>2026-04-26T09:11:33.47Z</time></trkpt><trkpt lat="45.8255577" lon="11.5672771"><ele>1146.4</ele><time>2026-04-26T09:11:34.47Z</time></trkpt><trkpt lat="45.8256457" lon="11.5673328"><ele>1144.0</ele><time>2026-04-26T09:11:35.47Z</time></trkpt><trkpt lat="45.8257364" lon="11.5673823"><ele>1144.0</ele><time>2026-04-26T09:11:36.47Z</time></trkpt><trkpt lat="45.8258308" lon="11.5674384"><ele>1144.0</ele><time>2026-04-26T09:11:37.47Z</time></trkpt><trkpt lat="45.8259121" lon="11.5675013"><ele>1144.0</ele><time>2026-04-26T09:11:38.47Z</time></trkpt><trkpt lat="45.826" lon="11.567568"><ele>1144.0</ele><time>2026-04-26T09:11:39.47Z</time></trkpt><trkpt lat="45.826084" lon="11.5676761"><ele>1144.0</ele><time>2026-04-26T09:11:40.47Z</time></trkpt><trkpt lat="45.8261594" lon="11.5677936"><ele>1143.2</ele><time>2026-04-26T09:11:41.471Z</time></trkpt><trkpt lat="45.8262449" lon="11.5679148"><ele>1142.4</ele><time>2026-04-26T09:11:42.471Z</time></trkpt><trkpt lat="45.8263302" lon="11.5680357"><ele>1141.6</ele><time>2026-04-26T09:11:43.47Z</time></trkpt><trkpt lat="45.8264051" lon="11.5681385"><ele>1140.8</ele><time>2026-04-26T09:11:44.47Z</time></trkpt><trkpt lat="45.8264824" lon="11.5682315"><ele>1140.0</ele><time>2026-04-26T09:11:45.47Z</time></trkpt><trkpt lat="45.8265598" lon="11.5683171"><ele>1140.0</ele><time>2026-04-26T09:11:46.47Z</time></trkpt><trkpt lat="45.8266353" lon="11.5683975"><ele>1140.0</ele><time>2026-04-26T09:11:47.47Z</time></trkpt><trkpt lat="45.8267183" lon="11.5684748"><ele>1140.0</ele><time>2026-04-26T09:11:48.47Z</time></trkpt><trkpt lat="45.8268053" lon="11.5685461"><ele>1140.0</ele><time>2026-04-26T09:11:49.471Z</time></trkpt><trkpt lat="45.8268915" lon="11.5686298"><ele>1140.0</ele><time>2026-04-26T09:11:50.471Z</time></trkpt><trkpt lat="45.8269813" lon="11.5687022"><ele>1140.2</ele><time>2026-04-26T09:11:51.47Z</time></trkpt><trkpt lat="45.8270605" lon="11.5687699"><ele>1140.4</ele><time>2026-04-26T09:11:52.47Z</time></trkpt><trkpt lat="45.8271531" lon="11.5688454"><ele>1140.6</ele><time>2026-04-26T09:11:53.47Z</time></trkpt><trkpt lat="45.8272251" lon="11.5689137"><ele>1140.8</ele><time>2026-04-26T09:11:54.47Z</time></trkpt><trkpt lat="45.8273067" lon="11.5689816"><ele>1141.0</ele><time>2026-04-26T09:11:55.471Z</time></trkpt><trkpt lat="45.827384" lon="11.5690409"><ele>1141.0</ele><time>2026-04-26T09:11:56.47Z</time></trkpt><trkpt lat="45.827444" lon="11.5690962"><ele>1141.0</ele><time>2026-04-26T09:11:57.47Z</time></trkpt><trkpt lat="45.827522" lon="11.5691622"><ele>1141.0</ele><time>2026-04-26T09:11:58.47Z</time></trkpt><trkpt lat="45.8275933" lon="11.5692217"><ele>1141.0</ele><time>2026-04-26T09:11:59.47Z</time></trkpt><trkpt lat="45.8276754" lon="11.5692692"><ele>1141.0</ele><time>2026-04-26T09:12:00.47Z</time></trkpt><trkpt lat="45.8277546" lon="11.5692975"><ele>1141.0</ele><time>2026-04-26T09:12:01.47Z</time></trkpt><trkpt lat="45.8278353" lon="11.5693182"><ele>1140.0</ele><time>2026-04-26T09:12:02.47Z</time></trkpt><trkpt lat="45.8279232" lon="11.5692632"><ele>1139.0</ele><time>2026-04-26T09:12:03.471Z</time></trkpt><trkpt lat="45.8280218" lon="11.5692344"><ele>1138.0</ele><time>2026-04-26T09:12:04.47Z</time></trkpt><trkpt lat="45.828113" lon="11.5691938"><ele>1137.0</ele><time>2026-04-26T09:12:05.47Z</time></trkpt><trkpt lat="45.828202" lon="11.5691209"><ele>1136.0</ele><time>2026-04-26T09:12:06.47Z</time></trkpt><trkpt lat="45.8282883" lon="11.5690566"><ele>1136.0</ele><time>2026-04-26T09:12:07.47Z</time></trkpt><trkpt lat="45.8283888" lon="11.5689996"><ele>1136.0</ele><time>2026-04-26T09:12:08.47Z</time></trkpt><trkpt lat="45.8284663" lon="11.5689958"><ele>1136.0</ele><time>2026-04-26T09:12:09.471Z</time></trkpt><trkpt lat="45.8285833" lon="11.5690027"><ele>1136.0</ele><time>2026-04-26T09:12:10.47Z</time></trkpt><trkpt lat="45.8286508" lon="11.5690736"><ele>1136.0</ele><time>2026-04-26T09:12:11.47Z</time></trkpt><trkpt lat="45.828715" lon="11.5691681"><ele>1136.3333333333335</ele><time>2026-04-26T09:12:13.47Z</time></trkpt><trkpt lat="45.8288191" lon="11.5692368"><ele>1136.6666666666667</ele><time>2026-04-26T09:12:14.47Z</time></trkpt><trkpt lat="45.8289249" lon="11.5692743"><ele>1137.0</ele><time>2026-04-26T09:12:16.471Z</time></trkpt><trkpt lat="45.8289944" lon="11.5692962"><ele>1137.3333333333333</ele><time>2026-04-26T09:12:18.47Z</time></trkpt><trkpt lat="45.829051" lon="11.5693445"><ele>1137.6666666666665</ele><time>2026-04-26T09:12:19.47Z</time></trkpt><trkpt lat="45.8291131" lon="11.5693693"><ele>1138.0</ele><time>2026-04-26T09:12:20.47Z</time></trkpt><trkpt lat="45.8292498" lon="11.5694203"><ele>1140.5</ele><time>2026-04-26T09:12:22.47Z</time></trkpt><trkpt lat="45.8293494" lon="11.5694012"><ele>1143.0</ele><time>2026-04-26T09:12:23.47Z</time></trkpt><trkpt lat="45.8294785" lon="11.5694363"><ele>1145.5</ele><time>2026-04-26T09:12:24.471Z</time></trkpt><trkpt lat="45.8295964" lon="11.5694822"><ele>1148.0</ele><time>2026-04-26T09:12:25.47Z</time></trkpt><trkpt lat="45.8296985" lon="11.5695389"><ele>1141.25</ele><time>2026-04-26T09:12:26.471Z</time></trkpt><trkpt lat="45.8297987" lon="11.569595"><ele>1134.5</ele><time>2026-04-26T09:12:27.471Z</time></trkpt><trkpt lat="45.829916" lon="11.5696687"><ele>1127.75</ele><time>2026-04-26T09:12:28.47Z</time></trkpt><trkpt lat="45.8300112" lon="11.5697333"><ele>1121.0</ele><time>2026-04-26T09:12:29.471Z</time></trkpt><trkpt lat="45.8301101" lon="11.5697995"><ele>1122.0</ele><time>2026-04-26T09:12:30.47Z</time></trkpt><trkpt lat="45.8301871" lon="11.5698819"><ele>1123.0</ele><time>2026-04-26T09:12:31.47Z</time></trkpt><trkpt lat="45.8303475" lon="11.5699163"><ele>1124.0</ele><time>2026-04-26T09:12:32.471Z</time></trkpt><trkpt lat="45.8304439" lon="11.5699746"><ele>1125.0</ele><time>2026-04-26T09:12:33.47Z</time></trkpt><trkpt lat="45.830573" lon="11.5700111"><ele>1125.0</ele><time>2026-04-26T09:12:34.47Z</time></trkpt><trkpt lat="45.830718" lon="11.570027"><ele>1125.0</ele><time>2026-04-26T09:12:35.47Z</time></trkpt><trkpt lat="45.8308172" lon="11.5700625"><ele>1125.0</ele><time>2026-04-26T09:12:36.47Z</time></trkpt><trkpt lat="45.8309336" lon="11.5700822"><ele>1125.0</ele><time>2026-04-26T09:12:37.47Z</time></trkpt><trkpt lat="45.8310573" lon="11.5701189"><ele>1125.0</ele><time>2026-04-26T09:12:38.47Z</time></trkpt><trkpt lat="45.8311718" lon="11.5701465"><ele>1125.0</ele><time>2026-04-26T09:12:39.47Z</time></trkpt><trkpt lat="45.8312695" lon="11.5701347"><ele>1125.0</ele><time>2026-04-26T09:12:40.47Z</time></trkpt><trkpt lat="45.831406" lon="11.5701583"><ele>1125.0</ele><time>2026-04-26T09:12:41.47Z</time></trkpt><trkpt lat="45.8315322" lon="11.5701786"><ele>1125.0</ele><time>2026-04-26T09:12:42.47Z</time></trkpt><trkpt lat="45.8316635" lon="11.5701956"><ele>1125.0</ele><time>2026-04-26T09:12:43.471Z</time></trkpt><trkpt lat="45.8318003" lon="11.5701906"><ele>1125.0</ele><time>2026-04-26T09:12:44.47Z</time></trkpt><trkpt lat="45.8319281" lon="11.5701956"><ele>1125.0</ele><time>2026-04-26T09:12:45.47Z</time></trkpt><trkpt lat="45.8320457" lon="11.5701792"><ele>1122.8</ele><time>2026-04-26T09:12:46.47Z</time></trkpt><trkpt lat="45.8321397" lon="11.5701748"><ele>1120.6</ele><time>2026-04-26T09:12:47.47Z</time></trkpt><trkpt lat="45.8322475" lon="11.5701556"><ele>1118.4</ele><time>2026-04-26T09:12:48.47Z</time></trkpt><trkpt lat="45.8323525" lon="11.5701404"><ele>1116.2</ele><time>2026-04-26T09:12:49.47Z</time></trkpt><trkpt lat="45.8324701" lon="11.570091"><ele>1114.0</ele><time>2026-04-26T09:12:50.471Z</time></trkpt><trkpt lat="45.8325811" lon="11.5700542"><ele>1108.25</ele><time>2026-04-26T09:12:51.47Z</time></trkpt><trkpt lat="45.8326947" lon="11.5699518"><ele>1102.5</ele><time>2026-04-26T09:12:52.47Z</time></trkpt><trkpt lat="45.8328108" lon="11.569909"><ele>1096.75</ele><time>2026-04-26T09:12:53.47Z</time></trkpt><trkpt lat="45.8329229" lon="11.5698468"><ele>1091.0</ele><time>2026-04-26T09:12:54.47Z</time></trkpt><trkpt lat="45.8330495" lon="11.5698241"><ele>1091.0</ele><time>2026-04-26T09:12:55.47Z</time></trkpt><trkpt lat="45.8331723" lon="11.5697788"><ele>1091.0</ele><time>2026-04-26T09:12:56.47Z</time></trkpt><trkpt lat="45.8333082" lon="11.5696918"><ele>1091.0</ele><time>2026-04-26T09:12:57.47Z</time></trkpt><trkpt lat="45.8334243" lon="11.5696308"><ele>1091.0</ele><time>2026-04-26T09:12:58.47Z</time></trkpt><trkpt lat="45.8335006" lon="11.5696001"><ele>1086.5</ele><time>2026-04-26T09:12:59.471Z</time></trkpt><trkpt lat="45.8336045" lon="11.5695504"><ele>1082.0</ele><time>2026-04-26T09:13:00.47Z</time></trkpt><trkpt lat="45.8337692" lon="11.5694779"><ele>1077.5</ele><time>2026-04-26T09:13:01.47Z</time></trkpt><trkpt lat="45.8338889" lon="11.5694307"><ele>1073.0</ele><time>2026-04-26T09:13:02.47Z</time></trkpt><trkpt lat="45.8339692" lon="11.5694095"><ele>1074.4</ele><time>2026-04-26T09:13:03.47Z</time></trkpt><trkpt lat="45.8340861" lon="11.5693845"><ele>1075.8</ele><time>2026-04-26T09:13:04.47Z</time></trkpt><trkpt lat="45.8341571" lon="11.5692712"><ele>1077.2</ele><time>2026-04-26T09:13:05.47Z</time></trkpt><trkpt lat="45.834244" lon="11.5692239"><ele>1078.6</ele><time>2026-04-26T09:13:06.47Z</time></trkpt><trkpt lat="45.8343653" lon="11.5691869"><ele>1080.0</ele><time>2026-04-26T09:13:07.47Z</time></trkpt><trkpt lat="45.8344875" lon="11.569095"><ele>1080.0</ele><time>2026-04-26T09:13:08.47Z</time></trkpt><trkpt lat="45.8345963" lon="11.5690266"><ele>1080.0</ele><time>2026-04-26T09:13:09.471Z</time></trkpt><trkpt lat="45.8346986" lon="11.568926"><ele>1080.0</ele><time>2026-04-26T09:13:10.47Z</time></trkpt><trkpt lat="45.83481" lon="11.5688303"><ele>1080.0</ele><time>2026-04-26T09:13:11.47Z</time></trkpt><trkpt lat="45.8349074" lon="11.5687235"><ele>1075.2</ele><time>2026-04-26T09:13:12.471Z</time></trkpt><trkpt lat="45.8350038" lon="11.5685995"><ele>1070.4</ele><time>2026-04-26T09:13:13.471Z</time></trkpt><trkpt lat="45.8350638" lon="11.5684636"><ele>1065.6</ele><time>2026-04-26T09:13:14.47Z</time></trkpt><trkpt lat="45.8351222" lon="11.5683379"><ele>1060.8</ele><time>2026-04-26T09:13:15.47Z</time></trkpt><trkpt lat="45.8351634" lon="11.5682121"><ele>1056.0</ele><time>2026-04-26T09:13:16.47Z</time></trkpt><trkpt lat="45.8352178" lon="11.5680747"><ele>1056.0</ele><time>2026-04-26T09:13:17.47Z</time></trkpt><trkpt lat="45.8352621" lon="11.5679488"><ele>1056.0</ele><time>2026-04-26T09:13:18.47Z</time></trkpt><trkpt lat="45.8353055" lon="11.5678004"><ele>1056.0</ele><time>2026-04-26T09:13:19.47Z</time></trkpt><trkpt lat="45.8353265" lon="11.5676476"><ele>1056.0</ele><time>2026-04-26T09:13:20.47Z</time></trkpt><trkpt lat="45.8353419" lon="11.5674997"><ele>1056.0</ele><time>2026-04-26T09:13:21.471Z</time></trkpt><trkpt lat="45.8353555" lon="11.5673773"><ele>1056.8</ele><time>2026-04-26T09:13:22.47Z</time></trkpt><trkpt lat="45.8353597" lon="11.5672341"><ele>1057.6</ele><time>2026-04-26T09:13:23.47Z</time></trkpt><trkpt lat="45.8353495" lon="11.567112"><ele>1058.4</ele><time>2026-04-26T09:13:24.471Z</time></trkpt><trkpt lat="45.8353347" lon="11.5669888"><ele>1059.2</ele><time>2026-04-26T09:13:25.47Z</time></trkpt><trkpt lat="45.8353215" lon="11.5668478"><ele>1060.0</ele><time>2026-04-26T09:13:26.471Z</time></trkpt><trkpt lat="45.8353088" lon="11.5667179"><ele>1060.4</ele><time>2026-04-26T09:13:27.471Z</time></trkpt><trkpt lat="45.8353032" lon="11.5665846"><ele>1060.8</ele><time>2026-04-26T09:13:28.47Z</time></trkpt><trkpt lat="45.8352607" lon="11.5664499"><ele>1061.2</ele><time>2026-04-26T09:13:29.47Z</time></trkpt><trkpt lat="45.8352267" lon="11.5663196"><ele>1061.6</ele><time>2026-04-26T09:13:30.47Z</time></trkpt><trkpt lat="45.8351789" lon="11.5661955"><ele>1062.0</ele><time>2026-04-26T09:13:31.47Z</time></trkpt><trkpt lat="45.835146" lon="11.5660832"><ele>1068.5</ele><time>2026-04-26T09:13:32.471Z</time></trkpt><trkpt lat="45.8350941" lon="11.5659253"><ele>1075.0</ele><time>2026-04-26T09:13:33.47Z</time></trkpt><trkpt lat="45.8350418" lon="11.5657779"><ele>1081.5</ele><time>2026-04-26T09:13:34.471Z</time></trkpt><trkpt lat="45.8349852" lon="11.5656562"><ele>1088.0</ele><time>2026-04-26T09:13:35.471Z</time></trkpt><trkpt lat="45.8349072" lon="11.5655066"><ele>1088.0</ele><time>2026-04-26T09:13:36.47Z</time></trkpt><trkpt lat="45.8348248" lon="11.5653827"><ele>1088.0</ele><time>2026-04-26T09:13:37.47Z</time></trkpt><trkpt lat="45.8347567" lon="11.5652461"><ele>1088.0</ele><time>2026-04-26T09:13:38.47Z</time></trkpt><trkpt lat="45.8346911" lon="11.5650981"><ele>1088.0</ele><time>2026-04-26T09:13:39.47Z</time></trkpt><trkpt lat="45.8346216" lon="11.5649768"><ele>1084.25</ele><time>2026-04-26T09:13:40.47Z</time></trkpt><trkpt lat="45.8345511" lon="11.5648423"><ele>1080.5</ele><time>2026-04-26T09:13:41.47Z</time></trkpt><trkpt lat="45.8344695" lon="11.5647181"><ele>1076.75</ele><time>2026-04-26T09:13:42.47Z</time></trkpt><trkpt lat="45.8343912" lon="11.564594"><ele>1073.0</ele><time>2026-04-26T09:13:43.47Z</time></trkpt><trkpt lat="45.8343166" lon="11.5644611"><ele>1075.0</ele><time>2026-04-26T09:13:44.47Z</time></trkpt><trkpt lat="45.8342454" lon="11.5643299"><ele>1077.0</ele><time>2026-04-26T09:13:45.47Z</time></trkpt><trkpt lat="45.8341793" lon="11.5642018"><ele>1079.0</ele><time>2026-04-26T09:13:46.47Z</time></trkpt><trkpt lat="45.8341093" lon="11.5640745"><ele>1081.0</ele><time>2026-04-26T09:13:47.47Z</time></trkpt><trkpt lat="45.8340619" lon="11.5639482"><ele>1083.0</ele><time>2026-04-26T09:13:48.471Z</time></trkpt><trkpt lat="45.8340202" lon="11.5638149"><ele>1078.75</ele><time>2026-04-26T09:13:49.47Z</time></trkpt><trkpt lat="45.8339854" lon="11.5636545"><ele>1074.5</ele><time>2026-04-26T09:13:50.47Z</time></trkpt><trkpt lat="45.8339598" lon="11.5634944"><ele>1070.25</ele><time>2026-04-26T09:13:51.471Z</time></trkpt><trkpt lat="45.8339506" lon="11.5633242"><ele>1066.0</ele><time>2026-04-26T09:13:52.471Z</time></trkpt><trkpt lat="45.8339511" lon="11.5631546"><ele>1066.0</ele><time>2026-04-26T09:13:53.47Z</time></trkpt><trkpt lat="45.8339558" lon="11.5629733"><ele>1066.0</ele><time>2026-04-26T09:13:54.47Z</time></trkpt><trkpt lat="45.8339594" lon="11.5628063"><ele>1066.0</ele><time>2026-04-26T09:13:55.47Z</time></trkpt><trkpt lat="45.8339638" lon="11.5626374"><ele>1066.0</ele><time>2026-04-26T09:13:56.47Z</time></trkpt><trkpt lat="45.833994" lon="11.5624988"><ele>1066.25</ele><time>2026-04-26T09:13:57.47Z</time></trkpt><trkpt lat="45.834038" lon="11.5623674"><ele>1066.5</ele><time>2026-04-26T09:13:58.47Z</time></trkpt><trkpt lat="45.8341023" lon="11.5622362"><ele>1066.75</ele><time>2026-04-26T09:13:59.471Z</time></trkpt><trkpt lat="45.8341794" lon="11.562088"><ele>1067.0</ele><time>2026-04-26T09:14:00.47Z</time></trkpt><trkpt lat="45.8342363" lon="11.5619241"><ele>1068.6</ele><time>2026-04-26T09:14:01.47Z</time></trkpt><trkpt lat="45.834285" lon="11.5617621"><ele>1070.2</ele><time>2026-04-26T09:14:02.47Z</time></trkpt><trkpt lat="45.8343324" lon="11.5616217"><ele>1071.8</ele><time>2026-04-26T09:14:03.47Z</time></trkpt><trkpt lat="45.8343957" lon="11.5615101"><ele>1073.4</ele><time>2026-04-26T09:14:04.471Z</time></trkpt><trkpt lat="45.8344602" lon="11.5614225"><ele>1075.0</ele><time>2026-04-26T09:14:05.47Z</time></trkpt><trkpt lat="45.8345421" lon="11.5613613"><ele>1072.6666666666665</ele><time>2026-04-26T09:14:06.47Z</time></trkpt><trkpt lat="45.8346377" lon="11.5613367"><ele>1070.3333333333333</ele><time>2026-04-26T09:14:07.47Z</time></trkpt><trkpt lat="45.8347308" lon="11.561335"><ele>1068.0</ele><time>2026-04-26T09:14:08.471Z</time></trkpt><trkpt lat="45.8348208" lon="11.5613221"><ele>1065.6666666666667</ele><time>2026-04-26T09:14:09.47Z</time></trkpt><trkpt lat="45.8348945" lon="11.5612922"><ele>1063.3333333333335</ele><time>2026-04-26T09:14:10.47Z</time></trkpt><trkpt lat="45.8349637" lon="11.5612358"><ele>1061.0</ele><time>2026-04-26T09:14:11.47Z</time></trkpt><trkpt lat="45.835023" lon="11.5611626"><ele>1061.0</ele><time>2026-04-26T09:14:12.471Z</time></trkpt><trkpt lat="45.835054" lon="11.56106"><ele>1061.0</ele><time>2026-04-26T09:14:13.47Z</time></trkpt><trkpt lat="45.8350733" lon="11.5609452"><ele>1061.0</ele><time>2026-04-26T09:14:14.47Z</time></trkpt><trkpt lat="45.8350872" lon="11.5608357"><ele>1061.0</ele><time>2026-04-26T09:14:15.47Z</time></trkpt><trkpt lat="45.8351009" lon="11.5607251"><ele>1061.0</ele><time>2026-04-26T09:14:16.47Z</time></trkpt><trkpt lat="45.8351156" lon="11.5606215"><ele>1061.0</ele><time>2026-04-26T09:14:17.47Z</time></trkpt><trkpt lat="45.8351136" lon="11.5605271"><ele>1061.0</ele><time>2026-04-26T09:14:18.47Z</time></trkpt><trkpt lat="45.8351182" lon="11.5604325"><ele>1061.0</ele><time>2026-04-26T09:14:19.47Z</time></trkpt><trkpt lat="45.8351007" lon="11.5602629"><ele>1061.0</ele><time>2026-04-26T09:14:21.471Z</time></trkpt><trkpt lat="45.8350533" lon="11.5601227"><ele>1061.0</ele><time>2026-04-26T09:14:23.471Z</time></trkpt><trkpt lat="45.8350204" lon="11.5600184"><ele>1061.0</ele><time>2026-04-26T09:14:24.471Z</time></trkpt><trkpt lat="45.8349881" lon="11.559916"><ele>1061.5</ele><time>2026-04-26T09:14:25.471Z</time></trkpt><trkpt lat="45.8349824" lon="11.5598048"><ele>1062.0</ele><time>2026-04-26T09:14:26.47Z</time></trkpt><trkpt lat="45.8349749" lon="11.5596854"><ele>1062.5</ele><time>2026-04-26T09:14:27.47Z</time></trkpt><trkpt lat="45.834983" lon="11.5595575"><ele>1063.0</ele><time>2026-04-26T09:14:28.47Z</time></trkpt><trkpt lat="45.8349752" lon="11.5594469"><ele>1063.5</ele><time>2026-04-26T09:14:29.47Z</time></trkpt><trkpt lat="45.8349835" lon="11.5593402"><ele>1064.0</ele><time>2026-04-26T09:14:30.47Z</time></trkpt><trkpt lat="45.835" lon="11.5592502"><ele>1064.2</ele><time>2026-04-26T09:14:31.47Z</time></trkpt><trkpt lat="45.8350375" lon="11.559112"><ele>1064.4</ele><time>2026-04-26T09:14:33.47Z</time></trkpt><trkpt lat="45.8350685" lon="11.5590113"><ele>1064.6</ele><time>2026-04-26T09:14:35.471Z</time></trkpt><trkpt lat="45.835139" lon="11.5589455"><ele>1064.8</ele><time>2026-04-26T09:14:37.471Z</time></trkpt><trkpt lat="45.8352525" lon="11.5589534"><ele>1065.0</ele><time>2026-04-26T09:14:39.47Z</time></trkpt><trkpt lat="45.8353088" lon="11.559028"><ele>1068.6</ele><time>2026-04-26T09:14:40.47Z</time></trkpt><trkpt lat="45.8353495" lon="11.5591567"><ele>1072.2</ele><time>2026-04-26T09:14:41.47Z</time></trkpt><trkpt lat="45.8353907" lon="11.5592975"><ele>1075.8</ele><time>2026-04-26T09:14:42.471Z</time></trkpt><trkpt lat="45.835441" lon="11.5594313"><ele>1079.4</ele><time>2026-04-26T09:14:43.47Z</time></trkpt><trkpt lat="45.8354934" lon="11.5595656"><ele>1083.0</ele><time>2026-04-26T09:14:44.47Z</time></trkpt><trkpt lat="45.8355576" lon="11.5597046"><ele>1083.0</ele><time>2026-04-26T09:14:45.471Z</time></trkpt><trkpt lat="45.8356139" lon="11.5598235"><ele>1083.0</ele><time>2026-04-26T09:14:46.47Z</time></trkpt><trkpt lat="45.8356612" lon="11.559949"><ele>1083.0</ele><time>2026-04-26T09:14:47.47Z</time></trkpt><trkpt lat="45.8357182" lon="11.5601015"><ele>1083.0</ele><time>2026-04-26T09:14:48.47Z</time></trkpt><trkpt lat="45.8357629" lon="11.5602287"><ele>1083.0</ele><time>2026-04-26T09:14:49.471Z</time></trkpt><trkpt lat="45.8358006" lon="11.5603724"><ele>1081.6</ele><time>2026-04-26T09:14:50.47Z</time></trkpt><trkpt lat="45.8358468" lon="11.5604656"><ele>1080.1999999999998</ele><time>2026-04-26T09:14:51.47Z</time></trkpt><trkpt lat="45.8358934" lon="11.5606175"><ele>1078.8</ele><time>2026-04-26T09:14:52.47Z</time></trkpt><trkpt lat="45.8359366" lon="11.5607488"><ele>1077.3999999999999</ele><time>2026-04-26T09:14:53.47Z</time></trkpt><trkpt lat="45.8359752" lon="11.5608881"><ele>1076.0</ele><time>2026-04-26T09:14:54.47Z</time></trkpt><trkpt lat="45.8360101" lon="11.5610219"><ele>1082.3333333333335</ele><time>2026-04-26T09:14:55.471Z</time></trkpt><trkpt lat="45.8360494" lon="11.5611439"><ele>1088.6666666666667</ele><time>2026-04-26T09:14:56.47Z</time></trkpt><trkpt lat="45.8360965" lon="11.5612188"><ele>1095.0</ele><time>2026-04-26T09:14:57.47Z</time></trkpt><trkpt lat="45.8361251" lon="11.5613536"><ele>1101.3333333333333</ele><time>2026-04-26T09:14:59.47Z</time></trkpt><trkpt lat="45.8361521" lon="11.5614421"><ele>1107.6666666666665</ele><time>2026-04-26T09:15:01.47Z</time></trkpt><trkpt lat="45.8361779" lon="11.5615477"><ele>1114.0</ele><time>2026-04-26T09:15:10.47Z</time></trkpt><trkpt lat="45.8361924" lon="11.5616517"><ele>1114.0</ele><time>2026-04-26T09:15:13.47Z</time></trkpt><trkpt lat="45.83623" lon="11.5617806"><ele>1114.0</ele><time>2026-04-26T09:15:16.47Z</time></trkpt><trkpt lat="45.8362525" lon="11.5618883"><ele>1114.0</ele><time>2026-04-26T09:15:18.47Z</time></trkpt><trkpt lat="45.8363247" lon="11.5620856"><ele>1114.0</ele><time>2026-04-26T09:15:20.47Z</time></trkpt><trkpt lat="45.8363512" lon="11.562177"><ele>1114.0</ele><time>2026-04-26T09:15:21.47Z</time></trkpt><trkpt lat="45.8363867" lon="11.562269"><ele>1113.0</ele><time>2026-04-26T09:15:22.471Z</time></trkpt><trkpt lat="45.8364116" lon="11.562352"><ele>1112.0</ele><time>2026-04-26T09:15:23.47Z</time></trkpt><trkpt lat="45.836494" lon="11.5625222"><ele>1111.0</ele><time>2026-04-26T09:15:25.471Z</time></trkpt><trkpt lat="45.8365379" lon="11.5626052"><ele>1110.0</ele><time>2026-04-26T09:15:26.47Z</time></trkpt><trkpt lat="45.8365924" lon="11.5626758"><ele>1109.0</ele><time>2026-04-26T09:15:27.47Z</time></trkpt><trkpt lat="45.8366378" lon="11.5627656"><ele>1108.0</ele><time>2026-04-26T09:15:28.47Z</time></trkpt><trkpt lat="45.8366975" lon="11.5628478"><ele>1106.6666666666665</ele><time>2026-04-26T09:15:29.471Z</time></trkpt><trkpt lat="45.8367532" lon="11.5629355"><ele>1105.3333333333333</ele><time>2026-04-26T09:15:30.47Z</time></trkpt><trkpt lat="45.8368181" lon="11.5630219"><ele>1104.0</ele><time>2026-04-26T09:15:31.47Z</time></trkpt><trkpt lat="45.8369017" lon="11.5630875"><ele>1102.6666666666667</ele><time>2026-04-26T09:15:32.47Z</time></trkpt><trkpt lat="45.8369728" lon="11.56317"><ele>1101.3333333333335</ele><time>2026-04-26T09:15:33.471Z</time></trkpt><trkpt lat="45.8370448" lon="11.5632331"><ele>1100.0</ele><time>2026-04-26T09:15:34.47Z</time></trkpt><trkpt lat="45.8371238" lon="11.5632969"><ele>1101.1666666666667</ele><time>2026-04-26T09:15:35.47Z</time></trkpt><trkpt lat="45.8371806" lon="11.563377"><ele>1102.3333333333335</ele><time>2026-04-26T09:15:36.47Z</time></trkpt><trkpt lat="45.837267" lon="11.5634418"><ele>1103.5</ele><time>2026-04-26T09:15:37.47Z</time></trkpt><trkpt lat="45.8373201" lon="11.5635319"><ele>1104.6666666666667</ele><time>2026-04-26T09:15:38.471Z</time></trkpt><trkpt lat="45.8373801" lon="11.5636289"><ele>1105.8333333333333</ele><time>2026-04-26T09:15:39.47Z</time></trkpt><trkpt lat="45.8374449" lon="11.5637163"><ele>1107.0</ele><time>2026-04-26T09:15:40.47Z</time></trkpt><trkpt lat="45.8375053" lon="11.5637812"><ele>1107.0</ele><time>2026-04-26T09:15:41.47Z</time></trkpt><trkpt lat="45.8375533" lon="11.5638629"><ele>1107.0</ele><time>2026-04-26T09:15:42.47Z</time></trkpt><trkpt lat="45.8376148" lon="11.56393"><ele>1107.0</ele><time>2026-04-26T09:15:43.47Z</time></trkpt><trkpt lat="45.8376723" lon="11.5639917"><ele>1107.0</ele><time>2026-04-26T09:15:44.471Z</time></trkpt><trkpt lat="45.8377304" lon="11.5640374"><ele>1107.0</ele><time>2026-04-26T09:15:45.47Z</time></trkpt><trkpt lat="45.8377957" lon="11.5640646"><ele>1107.0</ele><time>2026-04-26T09:15:46.47Z</time></trkpt><trkpt lat="45.8379105" lon="11.5640835"><ele>1111.1666666666667</ele><time>2026-04-26T09:15:48.47Z</time></trkpt><trkpt lat="45.8379808" lon="11.5640997"><ele>1115.3333333333333</ele><time>2026-04-26T09:15:49.47Z</time></trkpt><trkpt lat="45.8381017" lon="11.5641395"><ele>1119.5</ele><time>2026-04-26T09:15:51.47Z</time></trkpt><trkpt lat="45.8381741" lon="11.5641739"><ele>1123.6666666666665</ele><time>2026-04-26T09:15:52.47Z</time></trkpt><trkpt lat="45.8382467" lon="11.5642003"><ele>1127.8333333333333</ele><time>2026-04-26T09:15:53.47Z</time></trkpt><trkpt lat="45.8383251" lon="11.5642393"><ele>1132.0</ele><time>2026-04-26T09:15:54.471Z</time></trkpt><trkpt lat="45.8384027" lon="11.5642626"><ele>1134.8333333333333</ele><time>2026-04-26T09:15:55.47Z</time></trkpt><trkpt lat="45.8384844" lon="11.564288"><ele>1137.6666666666665</ele><time>2026-04-26T09:15:56.471Z</time></trkpt><trkpt lat="45.838557" lon="11.5643211"><ele>1140.5</ele><time>2026-04-26T09:15:57.471Z</time></trkpt><trkpt lat="45.8386563" lon="11.5643341"><ele>1143.3333333333333</ele><time>2026-04-26T09:15:58.47Z</time></trkpt><trkpt lat="45.83875" lon="11.564342"><ele>1146.1666666666667</ele><time>2026-04-26T09:15:59.47Z</time></trkpt><trkpt lat="45.8388364" lon="11.5643588"><ele>1149.0</ele><time>2026-04-26T09:16:00.47Z</time></trkpt><trkpt lat="45.8389404" lon="11.5643822"><ele>1149.0</ele><time>2026-04-26T09:16:01.471Z</time></trkpt><trkpt lat="45.8390333" lon="11.5644004"><ele>1149.0</ele><time>2026-04-26T09:16:02.471Z</time></trkpt><trkpt lat="45.8391131" lon="11.5644343"><ele>1149.0</ele><time>2026-04-26T09:16:03.47Z</time></trkpt><trkpt lat="45.8392193" lon="11.5644419"><ele>1149.0</ele><time>2026-04-26T09:16:04.47Z</time></trkpt><trkpt lat="45.83932" lon="11.5644585"><ele>1149.0</ele><time>2026-04-26T09:16:05.47Z</time></trkpt><trkpt lat="45.8394088" lon="11.5644679"><ele>1148.0</ele><time>2026-04-26T09:16:06.47Z</time></trkpt><trkpt lat="45.8394994" lon="11.5644761"><ele>1147.0</ele><time>2026-04-26T09:16:07.47Z</time></trkpt><trkpt lat="45.8396552" lon="11.5644978"><ele>1146.0</ele><time>2026-04-26T09:16:09.47Z</time></trkpt><trkpt lat="45.8397513" lon="11.5645195"><ele>1145.0</ele><time>2026-04-26T09:16:10.471Z</time></trkpt><trkpt lat="45.839832" lon="11.564545"><ele>1144.0</ele><time>2026-04-26T09:16:11.47Z</time></trkpt><trkpt lat="45.8399051" lon="11.5645877"><ele>1144.0</ele><time>2026-04-26T09:16:12.471Z</time></trkpt><trkpt lat="45.8399731" lon="11.5646268"><ele>1144.0</ele><time>2026-04-26T09:16:13.471Z</time></trkpt><trkpt lat="45.8400467" lon="11.5646545"><ele>1144.0</ele><time>2026-04-26T09:16:14.471Z</time></trkpt><trkpt lat="45.8401132" lon="11.5646928"><ele>1144.0</ele><time>2026-04-26T09:16:15.47Z</time></trkpt><trkpt lat="45.8401904" lon="11.5647904"><ele>1144.0</ele><time>2026-04-26T09:16:16.47Z</time></trkpt><trkpt lat="45.8402928" lon="11.5648454"><ele>1144.0</ele><time>2026-04-26T09:16:17.47Z</time></trkpt><trkpt lat="45.8403747" lon="11.564933"><ele>1147.8333333333333</ele><time>2026-04-26T09:16:18.47Z</time></trkpt><trkpt lat="45.8404456" lon="11.5649845"><ele>1151.6666666666665</ele><time>2026-04-26T09:16:19.471Z</time></trkpt><trkpt lat="45.8405128" lon="11.5650468"><ele>1155.5</ele><time>2026-04-26T09:16:20.471Z</time></trkpt><trkpt lat="45.8405866" lon="11.5651011"><ele>1159.3333333333333</ele><time>2026-04-26T09:16:21.47Z</time></trkpt><trkpt lat="45.8406555" lon="11.5651718"><ele>1163.1666666666667</ele><time>2026-04-26T09:16:22.47Z</time></trkpt><trkpt lat="45.84072" lon="11.5652501"><ele>1167.0</ele><time>2026-04-26T09:16:23.47Z</time></trkpt><trkpt lat="45.8407887" lon="11.5653318"><ele>1165.6</ele><time>2026-04-26T09:16:24.47Z</time></trkpt><trkpt lat="45.8408618" lon="11.5654242"><ele>1164.2</ele><time>2026-04-26T09:16:25.471Z</time></trkpt><trkpt lat="45.8409301" lon="11.5655399"><ele>1162.8</ele><time>2026-04-26T09:16:26.47Z</time></trkpt><trkpt lat="45.8409897" lon="11.5656554"><ele>1161.4</ele><time>2026-04-26T09:16:27.47Z</time></trkpt><trkpt lat="45.8410417" lon="11.5657763"><ele>1160.0</ele><time>2026-04-26T09:16:28.47Z</time></trkpt><trkpt lat="45.8410827" lon="11.5659011"><ele>1163.4</ele><time>2026-04-26T09:16:29.471Z</time></trkpt><trkpt lat="45.8411449" lon="11.5660318"><ele>1166.8</ele><time>2026-04-26T09:16:30.47Z</time></trkpt><trkpt lat="45.8411834" lon="11.5661499"><ele>1170.2</ele><time>2026-04-26T09:16:31.47Z</time></trkpt><trkpt lat="45.8412325" lon="11.5663076"><ele>1173.6</ele><time>2026-04-26T09:16:32.47Z</time></trkpt><trkpt lat="45.8412688" lon="11.5664342"><ele>1177.0</ele><time>2026-04-26T09:16:33.47Z</time></trkpt><trkpt lat="45.8413108" lon="11.566542"><ele>1177.0</ele><time>2026-04-26T09:16:34.471Z</time></trkpt><trkpt lat="45.8413859" lon="11.5666786"><ele>1177.0</ele><time>2026-04-26T09:16:35.47Z</time></trkpt><trkpt lat="45.8414454" lon="11.566776"><ele>1177.0</ele><time>2026-04-26T09:16:36.47Z</time></trkpt><trkpt lat="45.8415037" lon="11.5668127"><ele>1177.0</ele><time>2026-04-26T09:17:29.47Z</time></trkpt><trkpt lat="45.8415171" lon="11.5669031"><ele>1177.0</ele><time>2026-04-26T09:18:39.47Z</time></trkpt><trkpt lat="45.8415664" lon="11.5670041"><ele>1177.0</ele><time>2026-04-26T09:19:14.471Z</time></trkpt><trkpt lat="45.841601" lon="11.5670922"><ele>1175.8333333333333</ele><time>2026-04-26T09:19:25.47Z</time></trkpt><trkpt lat="45.8416397" lon="11.5671723"><ele>1174.6666666666665</ele><time>2026-04-26T09:19:29.471Z</time></trkpt><trkpt lat="45.8416955" lon="11.5672573"><ele>1173.5</ele><time>2026-04-26T09:19:35.471Z</time></trkpt><trkpt lat="45.8416932" lon="11.567349"><ele>1172.3333333333333</ele><time>2026-04-26T09:19:37.47Z</time></trkpt><trkpt lat="45.8416419" lon="11.5674198"><ele>1171.1666666666667</ele><time>2026-04-26T09:19:39.471Z</time></trkpt><trkpt lat="45.841566" lon="11.5674704"><ele>1170.0</ele><time>2026-04-26T09:19:41.47Z</time></trkpt><trkpt lat="45.8414951" lon="11.5675314"><ele>1170.0</ele><time>2026-04-26T09:19:43.47Z</time></trkpt><trkpt lat="45.8414394" lon="11.567606"><ele>1170.0</ele><time>2026-04-26T09:19:45.471Z</time></trkpt><trkpt lat="45.8413935" lon="11.5676901"><ele>1170.0</ele><time>2026-04-26T09:19:47.47Z</time></trkpt><trkpt lat="45.841348" lon="11.5677685"><ele>1170.0</ele><time>2026-04-26T09:19:49.471Z</time></trkpt><trkpt lat="45.8412801" lon="11.5678228"><ele>1170.0</ele><time>2026-04-26T09:19:51.47Z</time></trkpt><trkpt lat="45.8412179" lon="11.5678465"><ele>1170.0</ele><time>2026-04-26T09:19:53.47Z</time></trkpt><trkpt lat="45.8411261" lon="11.5678574"><ele>1170.8333333333333</ele><time>2026-04-26T09:19:55.47Z</time></trkpt><trkpt lat="45.8410574" lon="11.5679173"><ele>1171.6666666666667</ele><time>2026-04-26T09:19:57.471Z</time></trkpt><trkpt lat="45.8409952" lon="11.567934"><ele>1172.5</ele><time>2026-04-26T09:19:58.47Z</time></trkpt><trkpt lat="45.8409232" lon="11.5680138"><ele>1173.3333333333335</ele><time>2026-04-26T09:20:00.471Z</time></trkpt><trkpt lat="45.8408552" lon="11.5680908"><ele>1174.1666666666667</ele><time>2026-04-26T09:20:02.47Z</time></trkpt><trkpt lat="45.8407915" lon="11.5681922"><ele>1175.0</ele><time>2026-04-26T09:20:04.47Z</time></trkpt><trkpt lat="45.8407313" lon="11.5682924"><ele>1174.5</ele><time>2026-04-26T09:20:06.47Z</time></trkpt><trkpt lat="45.8406861" lon="11.5683913"><ele>1174.0</ele><time>2026-04-26T09:20:07.471Z</time></trkpt><trkpt lat="45.8406456" lon="11.5684648"><ele>1173.5</ele><time>2026-04-26T09:20:08.471Z</time></trkpt><trkpt lat="45.840607" lon="11.5685519"><ele>1173.0</ele><time>2026-04-26T09:20:09.47Z</time></trkpt><trkpt lat="45.8405611" lon="11.5686225"><ele>1172.5</ele><time>2026-04-26T09:20:10.47Z</time></trkpt><trkpt lat="45.8404226" lon="11.5687026"><ele>1172.0</ele><time>2026-04-26T09:20:11.471Z</time></trkpt><trkpt lat="45.8403209" lon="11.5687865"><ele>1172.0</ele><time>2026-04-26T09:20:12.47Z</time></trkpt><trkpt lat="45.8402577" lon="11.5688516"><ele>1172.0</ele><time>2026-04-26T09:20:13.47Z</time></trkpt><trkpt lat="45.8401587" lon="11.5690134"><ele>1172.0</ele><time>2026-04-26T09:20:15.47Z</time></trkpt><trkpt lat="45.8401147" lon="11.5690993"><ele>1172.0</ele><time>2026-04-26T09:20:16.47Z</time></trkpt><trkpt lat="45.840074" lon="11.5691815"><ele>1172.0</ele><time>2026-04-26T09:20:17.471Z</time></trkpt><trkpt lat="45.8400236" lon="11.5693521"><ele>1172.0</ele><time>2026-04-26T09:20:19.471Z</time></trkpt><trkpt lat="45.8399789" lon="11.5695003"><ele>1172.0</ele><time>2026-04-26T09:20:20.47Z</time></trkpt><trkpt lat="45.8399432" lon="11.5695991"><ele>1172.0</ele><time>2026-04-26T09:20:21.471Z</time></trkpt><trkpt lat="45.8399054" lon="11.5698004"><ele>1172.0</ele><time>2026-04-26T09:20:23.471Z</time></trkpt><trkpt lat="45.839878" lon="11.5699119"><ele>1172.0</ele><time>2026-04-26T09:20:24.47Z</time></trkpt><trkpt lat="45.8398366" lon="11.5700593"><ele>1172.0</ele><time>2026-04-26T09:20:25.47Z</time></trkpt><trkpt lat="45.8398028" lon="11.5701757"><ele>1172.0</ele><time>2026-04-26T09:20:26.471Z</time></trkpt><trkpt lat="45.8396719" lon="11.5703809"><ele>1172.0</ele><time>2026-04-26T09:20:28.47Z</time></trkpt><trkpt lat="45.8396383" lon="11.570469"><ele>1172.0</ele><time>2026-04-26T09:20:29.47Z</time></trkpt><trkpt lat="45.839597" lon="11.5705487"><ele>1172.0</ele><time>2026-04-26T09:20:30.47Z</time></trkpt><trkpt lat="45.839566" lon="11.5706743"><ele>1173.8333333333335</ele><time>2026-04-26T09:20:31.47Z</time></trkpt><trkpt lat="45.8395432" lon="11.5707729"><ele>1175.6666666666667</ele><time>2026-04-26T09:20:32.471Z</time></trkpt><trkpt lat="45.8395099" lon="11.5709124"><ele>1177.5</ele><time>2026-04-26T09:20:33.471Z</time></trkpt><trkpt lat="45.8394817" lon="11.5710125"><ele>1179.3333333333333</ele><time>2026-04-26T09:20:34.471Z</time></trkpt><trkpt lat="45.8394737" lon="11.5711145"><ele>1181.1666666666665</ele><time>2026-04-26T09:20:35.47Z</time></trkpt><trkpt lat="45.8394503" lon="11.5712074"><ele>1183.0</ele><time>2026-04-26T09:20:36.47Z</time></trkpt><trkpt lat="45.8394606" lon="11.5712992"><ele>1184.1666666666665</ele><time>2026-04-26T09:20:37.471Z</time></trkpt><trkpt lat="45.8394408" lon="11.5714011"><ele>1185.3333333333333</ele><time>2026-04-26T09:20:38.47Z</time></trkpt><trkpt lat="45.8393717" lon="11.5715935"><ele>1186.5</ele><time>2026-04-26T09:20:39.47Z</time></trkpt><trkpt lat="45.8393541" lon="11.5717027"><ele>1187.6666666666667</ele><time>2026-04-26T09:20:40.471Z</time></trkpt><trkpt lat="45.8393258" lon="11.5717879"><ele>1188.8333333333335</ele><time>2026-04-26T09:20:41.471Z</time></trkpt><trkpt lat="45.8392985" lon="11.5718795"><ele>1190.0</ele><time>2026-04-26T09:20:42.471Z</time></trkpt><trkpt lat="45.8392455" lon="11.5720049"><ele>1185.8</ele><time>2026-04-26T09:20:43.47Z</time></trkpt><trkpt lat="45.8392272" lon="11.5720995"><ele>1181.6</ele><time>2026-04-26T09:20:44.47Z</time></trkpt><trkpt lat="45.8391435" lon="11.5722949"><ele>1177.4</ele><time>2026-04-26T09:20:46.471Z</time></trkpt><trkpt lat="45.8391089" lon="11.5724112"><ele>1173.2</ele><time>2026-04-26T09:20:47.47Z</time></trkpt><trkpt lat="45.8390456" lon="11.5725727"><ele>1169.0</ele><time>2026-04-26T09:20:48.47Z</time></trkpt><trkpt lat="45.8390079" lon="11.5726788"><ele>1169.0</ele><time>2026-04-26T09:20:49.47Z</time></trkpt><trkpt lat="45.8389596" lon="11.5728059"><ele>1169.0</ele><time>2026-04-26T09:20:50.47Z</time></trkpt><trkpt lat="45.8389165" lon="11.5729135"><ele>1169.0</ele><time>2026-04-26T09:20:51.47Z</time></trkpt><trkpt lat="45.8388803" lon="11.5730421"><ele>1169.0</ele><time>2026-04-26T09:20:52.471Z</time></trkpt><trkpt lat="45.8388403" lon="11.5731551"><ele>1169.0</ele><time>2026-04-26T09:20:53.47Z</time></trkpt><trkpt lat="45.8387945" lon="11.5732689"><ele>1171.6000000000001</ele><time>2026-04-26T09:20:54.47Z</time></trkpt><trkpt lat="45.8387543" lon="11.5733803"><ele>1174.2</ele><time>2026-04-26T09:20:55.471Z</time></trkpt><trkpt lat="45.8387027" lon="11.5734834"><ele>1176.8000000000002</ele><time>2026-04-26T09:20:56.47Z</time></trkpt><trkpt lat="45.8386432" lon="11.5736077"><ele>1179.4</ele><time>2026-04-26T09:20:57.471Z</time></trkpt><trkpt lat="45.8385919" lon="11.573735"><ele>1182.0</ele><time>2026-04-26T09:20:58.47Z</time></trkpt><trkpt lat="45.8385257" lon="11.5738333"><ele>1183.3333333333333</ele><time>2026-04-26T09:20:59.47Z</time></trkpt><trkpt lat="45.8384801" lon="11.5739505"><ele>1184.6666666666667</ele><time>2026-04-26T09:21:00.47Z</time></trkpt><trkpt lat="45.8384305" lon="11.5740734"><ele>1186.0</ele><time>2026-04-26T09:21:01.47Z</time></trkpt><trkpt lat="45.8384009" lon="11.5741813"><ele>1187.3333333333335</ele><time>2026-04-26T09:21:02.47Z</time></trkpt><trkpt lat="45.8383571" lon="11.5742791"><ele>1188.6666666666667</ele><time>2026-04-26T09:21:03.47Z</time></trkpt><trkpt lat="45.8383296" lon="11.574368"><ele>1190.0</ele><time>2026-04-26T09:21:04.47Z</time></trkpt><trkpt lat="45.8383844" lon="11.5744648"><ele>1189.6</ele><time>2026-04-26T09:21:07.471Z</time></trkpt><trkpt lat="45.8385259" lon="11.5745629"><ele>1189.2</ele><time>2026-04-26T09:21:09.47Z</time></trkpt><trkpt lat="45.838609" lon="11.5746169"><ele>1188.8</ele><time>2026-04-26T09:21:10.471Z</time></trkpt><trkpt lat="45.838687" lon="11.5746745"><ele>1188.4</ele><time>2026-04-26T09:21:11.47Z</time></trkpt><trkpt lat="45.83876" lon="11.5747235"><ele>1188.0</ele><time>2026-04-26T09:21:12.47Z</time></trkpt><trkpt lat="45.8388198" lon="11.5747715"><ele>1188.0</ele><time>2026-04-26T09:21:13.471Z</time></trkpt><trkpt lat="45.8388583" lon="11.5749073"><ele>1188.0</ele><time>2026-04-26T09:21:15.47Z</time></trkpt><trkpt lat="45.8388722" lon="11.5750019"><ele>1188.0</ele><time>2026-04-26T09:21:16.47Z</time></trkpt><trkpt lat="45.8388541" lon="11.5751261"><ele>1188.0</ele><time>2026-04-26T09:21:17.471Z</time></trkpt><trkpt lat="45.8388554" lon="11.5752468"><ele>1188.0</ele><time>2026-04-26T09:21:18.47Z</time></trkpt><trkpt lat="45.8388628" lon="11.575376"><ele>1188.0</ele><time>2026-04-26T09:21:19.47Z</time></trkpt><trkpt lat="45.8388582" lon="11.5755001"><ele>1187.0</ele><time>2026-04-26T09:21:20.47Z</time></trkpt><trkpt lat="45.8388466" lon="11.5756107"><ele>1186.0</ele><time>2026-04-26T09:21:21.47Z</time></trkpt><trkpt lat="45.8388054" lon="11.5757105"><ele>1185.0</ele><time>2026-04-26T09:21:22.471Z</time></trkpt><trkpt lat="45.8388163" lon="11.5758281"><ele>1184.0</ele><time>2026-04-26T09:21:23.47Z</time></trkpt><trkpt lat="45.8388213" lon="11.5759474"><ele>1183.0</ele><time>2026-04-26T09:21:24.47Z</time></trkpt><trkpt lat="45.8388221" lon="11.5760578"><ele>1182.0</ele><time>2026-04-26T09:21:25.47Z</time></trkpt><trkpt lat="45.8388547" lon="11.5761866"><ele>1181.3333333333333</ele><time>2026-04-26T09:21:26.47Z</time></trkpt><trkpt lat="45.8388758" lon="11.5763198"><ele>1180.6666666666667</ele><time>2026-04-26T09:21:27.471Z</time></trkpt><trkpt lat="45.8388954" lon="11.5764436"><ele>1180.0</ele><time>2026-04-26T09:21:28.47Z</time></trkpt><trkpt lat="45.8388955" lon="11.5765709"><ele>1179.3333333333335</ele><time>2026-04-26T09:21:29.47Z</time></trkpt><trkpt lat="45.8389031" lon="11.5766935"><ele>1178.6666666666667</ele><time>2026-04-26T09:21:30.47Z</time></trkpt><trkpt lat="45.838925" lon="11.5767973"><ele>1178.0</ele><time>2026-04-26T09:21:31.47Z</time></trkpt><trkpt lat="45.838942" lon="11.5769287"><ele>1178.2</ele><time>2026-04-26T09:21:32.47Z</time></trkpt><trkpt lat="45.8389551" lon="11.5770844"><ele>1178.4</ele><time>2026-04-26T09:21:33.47Z</time></trkpt><trkpt lat="45.8389664" lon="11.5772298"><ele>1178.6000000000001</ele><time>2026-04-26T09:21:34.47Z</time></trkpt><trkpt lat="45.8389874" lon="11.5773761"><ele>1178.8</ele><time>2026-04-26T09:21:35.47Z</time></trkpt><trkpt lat="45.8389773" lon="11.5775119"><ele>1179.0</ele><time>2026-04-26T09:21:36.471Z</time></trkpt><trkpt lat="45.8389549" lon="11.5776345"><ele>1179.0</ele><time>2026-04-26T09:21:37.47Z</time></trkpt><trkpt lat="45.8389177" lon="11.5777482"><ele>1179.0</ele><time>2026-04-26T09:21:38.47Z</time></trkpt><trkpt lat="45.8388587" lon="11.5778878"><ele>1179.0</ele><time>2026-04-26T09:21:39.47Z</time></trkpt><trkpt lat="45.8388055" lon="11.5780066"><ele>1179.0</ele><time>2026-04-26T09:21:40.47Z</time></trkpt><trkpt lat="45.8387542" lon="11.5780847"><ele>1179.0</ele><time>2026-04-26T09:21:41.47Z</time></trkpt><trkpt lat="45.8387007" lon="11.5781882"><ele>1181.75</ele><time>2026-04-26T09:21:42.47Z</time></trkpt><trkpt lat="45.8386271" lon="11.5783011"><ele>1184.5</ele><time>2026-04-26T09:21:43.47Z</time></trkpt><trkpt lat="45.8385699" lon="11.578409"><ele>1187.25</ele><time>2026-04-26T09:21:44.471Z</time></trkpt><trkpt lat="45.8385366" lon="11.5785981"><ele>1190.0</ele><time>2026-04-26T09:21:45.47Z</time></trkpt><trkpt lat="45.838484" lon="11.5787514"><ele>1186.4</ele><time>2026-04-26T09:21:46.471Z</time></trkpt><trkpt lat="45.8384278" lon="11.5788753"><ele>1182.8</ele><time>2026-04-26T09:21:47.47Z</time></trkpt><trkpt lat="45.8383758" lon="11.5790066"><ele>1179.2</ele><time>2026-04-26T09:21:48.47Z</time></trkpt><trkpt lat="45.8382855" lon="11.5791295"><ele>1175.6</ele><time>2026-04-26T09:21:49.47Z</time></trkpt><trkpt lat="45.8382351" lon="11.5792777"><ele>1172.0</ele><time>2026-04-26T09:21:50.47Z</time></trkpt><trkpt lat="45.8381999" lon="11.5794244"><ele>1176.5</ele><time>2026-04-26T09:21:51.47Z</time></trkpt><trkpt lat="45.8381181" lon="11.5795854"><ele>1181.0</ele><time>2026-04-26T09:21:52.471Z</time></trkpt><trkpt lat="45.8380813" lon="11.5797375"><ele>1185.5</ele><time>2026-04-26T09:21:53.47Z</time></trkpt><trkpt lat="45.8380304" lon="11.5798858"><ele>1190.0</ele><time>2026-04-26T09:21:54.47Z</time></trkpt><trkpt lat="45.8379986" lon="11.5800148"><ele>1190.0</ele><time>2026-04-26T09:21:55.471Z</time></trkpt><trkpt lat="45.8379599" lon="11.5801411"><ele>1190.0</ele><time>2026-04-26T09:21:56.47Z</time></trkpt><trkpt lat="45.8379249" lon="11.5802653"><ele>1190.0</ele><time>2026-04-26T09:21:57.47Z</time></trkpt><trkpt lat="45.8378782" lon="11.580413"><ele>1190.0</ele><time>2026-04-26T09:21:58.47Z</time></trkpt><trkpt lat="45.8378477" lon="11.5805421"><ele>1190.0</ele><time>2026-04-26T09:21:59.47Z</time></trkpt><trkpt lat="45.8377924" lon="11.5806897"><ele>1188.5</ele><time>2026-04-26T09:22:00.47Z</time></trkpt><trkpt lat="45.8377234" lon="11.5808356"><ele>1187.0</ele><time>2026-04-26T09:22:01.47Z</time></trkpt><trkpt lat="45.8376586" lon="11.5809577"><ele>1185.5</ele><time>2026-04-26T09:22:02.47Z</time></trkpt><trkpt lat="45.8375923" lon="11.5810898"><ele>1184.0</ele><time>2026-04-26T09:22:03.471Z</time></trkpt><trkpt lat="45.8375218" lon="11.5812144"><ele>1184.0</ele><time>2026-04-26T09:22:04.47Z</time></trkpt><trkpt lat="45.8374484" lon="11.5813576"><ele>1184.0</ele><time>2026-04-26T09:22:05.47Z</time></trkpt><trkpt lat="45.8373593" lon="11.581462"><ele>1184.0</ele><time>2026-04-26T09:22:06.47Z</time></trkpt><trkpt lat="45.8372858" lon="11.5815503"><ele>1184.0</ele><time>2026-04-26T09:22:07.47Z</time></trkpt><trkpt lat="45.8372108" lon="11.5816382"><ele>1184.0</ele><time>2026-04-26T09:22:08.47Z</time></trkpt><trkpt lat="45.8371707" lon="11.5817302"><ele>1184.0</ele><time>2026-04-26T09:22:09.47Z</time></trkpt><trkpt lat="45.8370962" lon="11.5818558"><ele>1184.0</ele><time>2026-04-26T09:22:10.47Z</time></trkpt><trkpt lat="45.8370631" lon="11.5819506"><ele>1184.0</ele><time>2026-04-26T09:22:11.47Z</time></trkpt><trkpt lat="45.8370394" lon="11.5820367"><ele>1184.0</ele><time>2026-04-26T09:22:12.47Z</time></trkpt><trkpt lat="45.8370464" lon="11.5821341"><ele>1184.0</ele><time>2026-04-26T09:22:13.47Z</time></trkpt><trkpt lat="45.8370706" lon="11.5822296"><ele>1184.0</ele><time>2026-04-26T09:22:14.47Z</time></trkpt><trkpt lat="45.8371093" lon="11.5824336"><ele>1183.8</ele><time>2026-04-26T09:22:16.47Z</time></trkpt><trkpt lat="45.83712" lon="11.582548"><ele>1183.6000000000001</ele><time>2026-04-26T09:22:17.47Z</time></trkpt><trkpt lat="45.8371606" lon="11.5826563"><ele>1183.4</ele><time>2026-04-26T09:22:18.47Z</time></trkpt><trkpt lat="45.8372599" lon="11.5827989"><ele>1183.2</ele><time>2026-04-26T09:22:20.471Z</time></trkpt><trkpt lat="45.8373404" lon="11.5828642"><ele>1183.0</ele><time>2026-04-26T09:22:21.47Z</time></trkpt><trkpt lat="45.8373925" lon="11.5829166"><ele>1182.0</ele><time>2026-04-26T09:22:22.471Z</time></trkpt><trkpt lat="45.8374765" lon="11.5829932"><ele>1181.0</ele><time>2026-04-26T09:22:23.47Z</time></trkpt><trkpt lat="45.8376294" lon="11.5831149"><ele>1180.0</ele><time>2026-04-26T09:22:24.47Z</time></trkpt><trkpt lat="45.8377322" lon="11.5831603"><ele>1179.0</ele><time>2026-04-26T09:22:25.47Z</time></trkpt><trkpt lat="45.8378424" lon="11.5832334"><ele>1179.0</ele><time>2026-04-26T09:22:26.471Z</time></trkpt><trkpt lat="45.8379364" lon="11.5833081"><ele>1179.0</ele><time>2026-04-26T09:22:27.47Z</time></trkpt><trkpt lat="45.8380261" lon="11.5833989"><ele>1179.0</ele><time>2026-04-26T09:22:28.47Z</time></trkpt><trkpt lat="45.8381086" lon="11.5834565"><ele>1179.0</ele><time>2026-04-26T09:22:29.47Z</time></trkpt><trkpt lat="45.8381986" lon="11.5835334"><ele>1179.0</ele><time>2026-04-26T09:22:30.47Z</time></trkpt><trkpt lat="45.8382845" lon="11.5835969"><ele>1179.0</ele><time>2026-04-26T09:22:31.47Z</time></trkpt><trkpt lat="45.8383526" lon="11.583677"><ele>1179.0</ele><time>2026-04-26T09:22:32.47Z</time></trkpt><trkpt lat="45.8384609" lon="11.5837534"><ele>1179.0</ele><time>2026-04-26T09:22:33.47Z</time></trkpt><trkpt lat="45.8385669" lon="11.5838124"><ele>1179.0</ele><time>2026-04-26T09:22:34.471Z</time></trkpt><trkpt lat="45.8386682" lon="11.5838683"><ele>1179.0</ele><time>2026-04-26T09:22:35.471Z</time></trkpt><trkpt lat="45.8387598" lon="11.5839063"><ele>1177.2</ele><time>2026-04-26T09:22:36.471Z</time></trkpt><trkpt lat="45.8388322" lon="11.5839651"><ele>1175.4</ele><time>2026-04-26T09:22:37.47Z</time></trkpt><trkpt lat="45.838899" lon="11.5840505"><ele>1173.6</ele><time>2026-04-26T09:22:38.47Z</time></trkpt><trkpt lat="45.8389702" lon="11.5841369"><ele>1171.8</ele><time>2026-04-26T09:22:39.471Z</time></trkpt><trkpt lat="45.8390462" lon="11.5842593"><ele>1170.0</ele><time>2026-04-26T09:22:40.471Z</time></trkpt><trkpt lat="45.8390878" lon="11.5843553"><ele>1170.0</ele><time>2026-04-26T09:22:41.47Z</time></trkpt><trkpt lat="45.839165" lon="11.5844727"><ele>1170.0</ele><time>2026-04-26T09:22:42.471Z</time></trkpt><trkpt lat="45.8392233" lon="11.5845875"><ele>1170.0</ele><time>2026-04-26T09:22:43.47Z</time></trkpt><trkpt lat="45.8392903" lon="11.5847241"><ele>1170.0</ele><time>2026-04-26T09:22:44.47Z</time></trkpt><trkpt lat="45.8393489" lon="11.5848419"><ele>1170.0</ele><time>2026-04-26T09:22:45.471Z</time></trkpt><trkpt lat="45.8394134" lon="11.584982"><ele>1168.75</ele><time>2026-04-26T09:22:46.471Z</time></trkpt><trkpt lat="45.8395097" lon="11.5850966"><ele>1167.5</ele><time>2026-04-26T09:22:47.47Z</time></trkpt><trkpt lat="45.8396005" lon="11.5852349"><ele>1166.25</ele><time>2026-04-26T09:22:48.47Z</time></trkpt><trkpt lat="45.8396843" lon="11.585358"><ele>1165.0</ele><time>2026-04-26T09:22:49.47Z</time></trkpt><trkpt lat="45.8397515" lon="11.5854883"><ele>1165.0</ele><time>2026-04-26T09:22:50.47Z</time></trkpt><trkpt lat="45.8398005" lon="11.5856188"><ele>1165.0</ele><time>2026-04-26T09:22:51.471Z</time></trkpt><trkpt lat="45.8398605" lon="11.5857457"><ele>1165.0</ele><time>2026-04-26T09:22:52.47Z</time></trkpt><trkpt lat="45.8399234" lon="11.5858812"><ele>1165.0</ele><time>2026-04-26T09:22:53.47Z</time></trkpt><trkpt lat="45.8399717" lon="11.5860044"><ele>1165.0</ele><time>2026-04-26T09:22:54.47Z</time></trkpt><trkpt lat="45.840015" lon="11.5861118"><ele>1161.25</ele><time>2026-04-26T09:22:55.471Z</time></trkpt><trkpt lat="45.8400662" lon="11.5862325"><ele>1157.5</ele><time>2026-04-26T09:22:56.471Z</time></trkpt><trkpt lat="45.8401049" lon="11.5863622"><ele>1153.75</ele><time>2026-04-26T09:22:57.47Z</time></trkpt><trkpt lat="45.8401457" lon="11.5864963"><ele>1150.0</ele><time>2026-04-26T09:22:58.47Z</time></trkpt><trkpt lat="45.8402098" lon="11.5866964"><ele>1155.75</ele><time>2026-04-26T09:22:59.47Z</time></trkpt><trkpt lat="45.8402552" lon="11.5869015"><ele>1161.5</ele><time>2026-04-26T09:23:00.47Z</time></trkpt><trkpt lat="45.8403153" lon="11.587061"><ele>1167.25</ele><time>2026-04-26T09:23:01.47Z</time></trkpt><trkpt lat="45.8403927" lon="11.5872418"><ele>1173.0</ele><time>2026-04-26T09:23:02.47Z</time></trkpt><trkpt lat="45.8404526" lon="11.5874065"><ele>1173.0</ele><time>2026-04-26T09:23:03.47Z</time></trkpt><trkpt lat="45.840512" lon="11.5875246"><ele>1173.0</ele><time>2026-04-26T09:23:04.47Z</time></trkpt><trkpt lat="45.840553" lon="11.5876622"><ele>1173.0</ele><time>2026-04-26T09:23:05.47Z</time></trkpt><trkpt lat="45.8405846" lon="11.5878156"><ele>1173.0</ele><time>2026-04-26T09:23:06.47Z</time></trkpt><trkpt lat="45.8406175" lon="11.5879507"><ele>1173.0</ele><time>2026-04-26T09:23:07.471Z</time></trkpt><trkpt lat="45.8406325" lon="11.5880553"><ele>1171.4</ele><time>2026-04-26T09:23:08.47Z</time></trkpt><trkpt lat="45.8406802" lon="11.5881492"><ele>1169.8</ele><time>2026-04-26T09:23:09.47Z</time></trkpt><trkpt lat="45.8407412" lon="11.5882181"><ele>1168.2</ele><time>2026-04-26T09:23:10.47Z</time></trkpt><trkpt lat="45.8408618" lon="11.5882878"><ele>1166.6</ele><time>2026-04-26T09:23:11.47Z</time></trkpt><trkpt lat="45.8409659" lon="11.5883114"><ele>1165.0</ele><time>2026-04-26T09:23:12.47Z</time></trkpt><trkpt lat="45.8410699" lon="11.5883218"><ele>1165.0</ele><time>2026-04-26T09:23:13.471Z</time></trkpt><trkpt lat="45.8411822" lon="11.5883685"><ele>1165.0</ele><time>2026-04-26T09:23:14.471Z</time></trkpt><trkpt lat="45.8412845" lon="11.5884111"><ele>1165.0</ele><time>2026-04-26T09:23:15.471Z</time></trkpt><trkpt lat="45.8413876" lon="11.5884324"><ele>1165.0</ele><time>2026-04-26T09:23:16.47Z</time></trkpt><trkpt lat="45.8414778" lon="11.5884543"><ele>1165.0</ele><time>2026-04-26T09:23:17.47Z</time></trkpt><trkpt lat="45.8415882" lon="11.5884533"><ele>1165.0</ele><time>2026-04-26T09:23:18.471Z</time></trkpt><trkpt lat="45.8416883" lon="11.5884554"><ele>1165.0</ele><time>2026-04-26T09:23:19.47Z</time></trkpt><trkpt lat="45.8417801" lon="11.5884434"><ele>1165.0</ele><time>2026-04-26T09:23:20.47Z</time></trkpt><trkpt lat="45.8418891" lon="11.5884582"><ele>1165.0</ele><time>2026-04-26T09:23:21.47Z</time></trkpt><trkpt lat="45.8419879" lon="11.5884829"><ele>1165.0</ele><time>2026-04-26T09:23:22.47Z</time></trkpt><trkpt lat="45.8421135" lon="11.5885542"><ele>1166.6666666666665</ele><time>2026-04-26T09:23:23.47Z</time></trkpt><trkpt lat="45.8421857" lon="11.5886047"><ele>1168.3333333333333</ele><time>2026-04-26T09:23:24.47Z</time></trkpt><trkpt lat="45.8422681" lon="11.5886722"><ele>1170.0</ele><time>2026-04-26T09:23:25.47Z</time></trkpt><trkpt lat="45.8423369" lon="11.5887408"><ele>1171.6666666666667</ele><time>2026-04-26T09:23:26.47Z</time></trkpt><trkpt lat="45.8424169" lon="11.5887954"><ele>1173.3333333333335</ele><time>2026-04-26T09:23:27.47Z</time></trkpt><trkpt lat="45.8424951" lon="11.5888637"><ele>1175.0</ele><time>2026-04-26T09:23:28.471Z</time></trkpt><trkpt lat="45.8426031" lon="11.5889363"><ele>1172.75</ele><time>2026-04-26T09:23:29.471Z</time></trkpt><trkpt lat="45.8426872" lon="11.5890223"><ele>1170.5</ele><time>2026-04-26T09:23:30.471Z</time></trkpt><trkpt lat="45.8427889" lon="11.5891074"><ele>1168.25</ele><time>2026-04-26T09:23:31.471Z</time></trkpt><trkpt lat="45.8428868" lon="11.5891752"><ele>1166.0</ele><time>2026-04-26T09:23:32.47Z</time></trkpt><trkpt lat="45.8429949" lon="11.5892587"><ele>1166.0</ele><time>2026-04-26T09:23:33.47Z</time></trkpt><trkpt lat="45.8431065" lon="11.5893396"><ele>1166.0</ele><time>2026-04-26T09:23:34.471Z</time></trkpt><trkpt lat="45.8431885" lon="11.5894133"><ele>1166.0</ele><time>2026-04-26T09:23:35.47Z</time></trkpt><trkpt lat="45.8432731" lon="11.5894736"><ele>1166.0</ele><time>2026-04-26T09:23:36.471Z</time></trkpt><trkpt lat="45.843362" lon="11.5895507"><ele>1166.0</ele><time>2026-04-26T09:23:37.47Z</time></trkpt><trkpt lat="45.8434597" lon="11.5896576"><ele>1165.3999999999999</ele><time>2026-04-26T09:23:38.47Z</time></trkpt><trkpt lat="45.8435551" lon="11.5897553"><ele>1164.8</ele><time>2026-04-26T09:23:39.47Z</time></trkpt><trkpt lat="45.8436464" lon="11.58985"><ele>1164.1999999999998</ele><time>2026-04-26T09:23:40.471Z</time></trkpt><trkpt lat="45.8437266" lon="11.5898526"><ele>1163.6</ele><time>2026-04-26T09:23:41.47Z</time></trkpt><trkpt lat="45.8437956" lon="11.5898643"><ele>1163.0</ele><time>2026-04-26T09:23:42.47Z</time></trkpt><trkpt lat="45.8438664" lon="11.5898737"><ele>1163.0</ele><time>2026-04-26T09:23:43.47Z</time></trkpt><trkpt lat="45.8439515" lon="11.5898666"><ele>1163.0</ele><time>2026-04-26T09:23:44.47Z</time></trkpt><trkpt lat="45.8440732" lon="11.5897726"><ele>1163.0</ele><time>2026-04-26T09:23:46.47Z</time></trkpt><trkpt lat="45.8441291" lon="11.589699"><ele>1163.0</ele><time>2026-04-26T09:23:47.47Z</time></trkpt><trkpt lat="45.8441682" lon="11.5895924"><ele>1163.0</ele><time>2026-04-26T09:23:48.47Z</time></trkpt><trkpt lat="45.8441653" lon="11.5894424"><ele>1163.2</ele><time>2026-04-26T09:23:49.47Z</time></trkpt><trkpt lat="45.8441755" lon="11.5892885"><ele>1163.4</ele><time>2026-04-26T09:23:50.47Z</time></trkpt><trkpt lat="45.8442054" lon="11.5891579"><ele>1163.6000000000001</ele><time>2026-04-26T09:23:52.47Z</time></trkpt><trkpt lat="45.8442534" lon="11.5889973"><ele>1163.8</ele><time>2026-04-26T09:23:54.47Z</time></trkpt><trkpt lat="45.8443205" lon="11.5889166"><ele>1164.0</ele><time>2026-04-26T09:23:55.47Z</time></trkpt><trkpt lat="45.8443751" lon="11.5888561"><ele>1164.0</ele><time>2026-04-26T09:23:56.471Z</time></trkpt><trkpt lat="45.8444258" lon="11.5887872"><ele>1164.0</ele><time>2026-04-26T09:23:57.47Z</time></trkpt><trkpt lat="45.8444813" lon="11.5887412"><ele>1164.0</ele><time>2026-04-26T09:23:58.47Z</time></trkpt><trkpt lat="45.8445935" lon="11.5887051"><ele>1164.0</ele><time>2026-04-26T09:24:00.471Z</time></trkpt><trkpt lat="45.8446541" lon="11.588735"><ele>1164.0</ele><time>2026-04-26T09:24:01.47Z</time></trkpt><trkpt lat="45.8447094" lon="11.5887852"><ele>1164.0</ele><time>2026-04-26T09:24:02.47Z</time></trkpt><trkpt lat="45.8447706" lon="11.5888793"><ele>1164.0</ele><time>2026-04-26T09:24:03.47Z</time></trkpt><trkpt lat="45.8448354" lon="11.5889509"><ele>1164.0</ele><time>2026-04-26T09:24:04.471Z</time></trkpt><trkpt lat="45.844906" lon="11.5890009"><ele>1164.0</ele><time>2026-04-26T09:24:05.471Z</time></trkpt><trkpt lat="45.8449771" lon="11.5890562"><ele>1164.0</ele><time>2026-04-26T09:24:06.471Z</time></trkpt><trkpt lat="45.8450672" lon="11.5891013"><ele>1164.0</ele><time>2026-04-26T09:24:07.471Z</time></trkpt><trkpt lat="45.8451478" lon="11.5891634"><ele>1164.0</ele><time>2026-04-26T09:24:08.47Z</time></trkpt><trkpt lat="45.8452291" lon="11.589221"><ele>1163.2</ele><time>2026-04-26T09:24:09.47Z</time></trkpt><trkpt lat="45.8453208" lon="11.5892794"><ele>1162.4</ele><time>2026-04-26T09:24:10.471Z</time></trkpt><trkpt lat="45.8454116" lon="11.5893207"><ele>1161.6</ele><time>2026-04-26T09:24:11.471Z</time></trkpt><trkpt lat="45.8454947" lon="11.5893787"><ele>1160.8</ele><time>2026-04-26T09:24:12.47Z</time></trkpt><trkpt lat="45.8455758" lon="11.5894484"><ele>1160.0</ele><time>2026-04-26T09:24:13.47Z</time></trkpt><trkpt lat="45.8456526" lon="11.5895229"><ele>1160.0</ele><time>2026-04-26T09:24:14.47Z</time></trkpt><trkpt lat="45.8457612" lon="11.5896379"><ele>1160.0</ele><time>2026-04-26T09:24:15.47Z</time></trkpt><trkpt lat="45.8458295" lon="11.589695"><ele>1160.0</ele><time>2026-04-26T09:24:16.47Z</time></trkpt><trkpt lat="45.8459313" lon="11.5897646"><ele>1160.0</ele><time>2026-04-26T09:24:17.47Z</time></trkpt><trkpt lat="45.8460301" lon="11.5898401"><ele>1160.0</ele><time>2026-04-26T09:24:18.47Z</time></trkpt><trkpt lat="45.8461384" lon="11.5898568"><ele>1160.4</ele><time>2026-04-26T09:24:19.471Z</time></trkpt><trkpt lat="45.8462142" lon="11.5898711"><ele>1160.8</ele><time>2026-04-26T09:24:20.471Z</time></trkpt><trkpt lat="45.8463106" lon="11.5898849"><ele>1161.2</ele><time>2026-04-26T09:24:21.471Z</time></trkpt><trkpt lat="45.8463929" lon="11.5898989"><ele>1161.6</ele><time>2026-04-26T09:24:22.471Z</time></trkpt><trkpt lat="45.846529" lon="11.5899544"><ele>1162.0</ele><time>2026-04-26T09:24:24.47Z</time></trkpt><trkpt lat="45.8466038" lon="11.5900219"><ele>1162.0</ele><time>2026-04-26T09:24:25.47Z</time></trkpt><trkpt lat="45.8467353" lon="11.5900784"><ele>1162.0</ele><time>2026-04-26T09:24:27.471Z</time></trkpt><trkpt lat="45.846867" lon="11.5901497"><ele>1162.0</ele><time>2026-04-26T09:24:28.47Z</time></trkpt><trkpt lat="45.8469569" lon="11.5901462"><ele>1162.0</ele><time>2026-04-26T09:24:29.47Z</time></trkpt><trkpt lat="45.8470435" lon="11.5901399"><ele>1161.0</ele><time>2026-04-26T09:24:30.47Z</time></trkpt><trkpt lat="45.8471077" lon="11.5901494"><ele>1160.0</ele><time>2026-04-26T09:24:31.47Z</time></trkpt><trkpt lat="45.8471781" lon="11.5902108"><ele>1159.0</ele><time>2026-04-26T09:24:33.47Z</time></trkpt><trkpt lat="45.8472273" lon="11.5903404"><ele>1158.0</ele><time>2026-04-26T09:24:35.47Z</time></trkpt><trkpt lat="45.8472078" lon="11.590491"><ele>1157.0</ele><time>2026-04-26T09:24:37.47Z</time></trkpt><trkpt lat="45.8471873" lon="11.5906447"><ele>1157.0</ele><time>2026-04-26T09:24:39.47Z</time></trkpt><trkpt lat="45.8472114" lon="11.5907311"><ele>1157.0</ele><time>2026-04-26T09:24:40.47Z</time></trkpt><trkpt lat="45.8472507" lon="11.5908339"><ele>1157.0</ele><time>2026-04-26T09:24:41.47Z</time></trkpt><trkpt lat="45.8473111" lon="11.5909289"><ele>1157.0</ele><time>2026-04-26T09:24:42.47Z</time></trkpt><trkpt lat="45.847344" lon="11.5910077"><ele>1157.0</ele><time>2026-04-26T09:24:43.47Z</time></trkpt><trkpt lat="45.8473858" lon="11.5910909"><ele>1157.0</ele><time>2026-04-26T09:24:44.471Z</time></trkpt><trkpt lat="45.8474821" lon="11.5911745"><ele>1154.0</ele><time>2026-04-26T09:24:45.47Z</time></trkpt><trkpt lat="45.8475449" lon="11.5912401"><ele>1151.0</ele><time>2026-04-26T09:24:46.47Z</time></trkpt><trkpt lat="45.8476253" lon="11.5912878"><ele>1148.0</ele><time>2026-04-26T09:24:47.471Z</time></trkpt><trkpt lat="45.847692" lon="11.5913128"><ele>1145.0</ele><time>2026-04-26T09:24:48.47Z</time></trkpt><trkpt lat="45.8478132" lon="11.5913574"><ele>1142.0</ele><time>2026-04-26T09:24:49.471Z</time></trkpt><trkpt lat="45.8478933" lon="11.5913619"><ele>1139.0</ele><time>2026-04-26T09:24:50.471Z</time></trkpt><trkpt lat="45.8479742" lon="11.5913519"><ele>1138.2</ele><time>2026-04-26T09:24:51.471Z</time></trkpt><trkpt lat="45.8480493" lon="11.5912947"><ele>1137.4</ele><time>2026-04-26T09:24:52.471Z</time></trkpt><trkpt lat="45.8481399" lon="11.5912713"><ele>1136.6</ele><time>2026-04-26T09:24:53.47Z</time></trkpt><trkpt lat="45.8482531" lon="11.5911414"><ele>1135.8</ele><time>2026-04-26T09:24:55.47Z</time></trkpt><trkpt lat="45.8483455" lon="11.5910723"><ele>1135.0</ele><time>2026-04-26T09:24:56.471Z</time></trkpt><trkpt lat="45.8484194" lon="11.5910408"><ele>1137.0</ele><time>2026-04-26T09:24:57.47Z</time></trkpt><trkpt lat="45.848499" lon="11.5910137"><ele>1139.0</ele><time>2026-04-26T09:24:58.471Z</time></trkpt><trkpt lat="45.8485929" lon="11.591027"><ele>1141.0</ele><time>2026-04-26T09:24:59.471Z</time></trkpt><trkpt lat="45.8487048" lon="11.5910185"><ele>1143.0</ele><time>2026-04-26T09:25:00.471Z</time></trkpt><trkpt lat="45.8487891" lon="11.5910125"><ele>1145.0</ele><time>2026-04-26T09:25:01.47Z</time></trkpt><trkpt lat="45.8488953" lon="11.5909603"><ele>1145.0</ele><time>2026-04-26T09:25:02.47Z</time></trkpt><trkpt lat="45.8490266" lon="11.5909319"><ele>1145.0</ele><time>2026-04-26T09:25:03.471Z</time></trkpt><trkpt lat="45.8491086" lon="11.5908881"><ele>1145.0</ele><time>2026-04-26T09:25:04.47Z</time></trkpt><trkpt lat="45.8492135" lon="11.5908092"><ele>1145.0</ele><time>2026-04-26T09:25:05.47Z</time></trkpt><trkpt lat="45.8493195" lon="11.5907295"><ele>1143.6</ele><time>2026-04-26T09:25:06.47Z</time></trkpt><trkpt lat="45.849406" lon="11.5906428"><ele>1142.2</ele><time>2026-04-26T09:25:07.471Z</time></trkpt><trkpt lat="45.8494969" lon="11.5905621"><ele>1140.8</ele><time>2026-04-26T09:25:08.47Z</time></trkpt><trkpt lat="45.8495841" lon="11.5904663"><ele>1139.4</ele><time>2026-04-26T09:25:09.471Z</time></trkpt><trkpt lat="45.8496434" lon="11.590341"><ele>1138.0</ele><time>2026-04-26T09:25:10.47Z</time></trkpt><trkpt lat="45.8496986" lon="11.5902232"><ele>1138.0</ele><time>2026-04-26T09:25:11.47Z</time></trkpt><trkpt lat="45.8497264" lon="11.5901174"><ele>1138.0</ele><time>2026-04-26T09:25:12.47Z</time></trkpt><trkpt lat="45.8497497" lon="11.5900073"><ele>1138.0</ele><time>2026-04-26T09:25:13.47Z</time></trkpt><trkpt lat="45.8497093" lon="11.5899079"><ele>1138.0</ele><time>2026-04-26T09:25:14.47Z</time></trkpt><trkpt lat="45.8497058" lon="11.5898109"><ele>1138.0</ele><time>2026-04-26T09:25:15.471Z</time></trkpt><trkpt lat="45.8497561" lon="11.5896468"><ele>1138.0</ele><time>2026-04-26T09:25:17.47Z</time></trkpt><trkpt lat="45.8498116" lon="11.5895666"><ele>1137.1666666666665</ele><time>2026-04-26T09:25:18.47Z</time></trkpt><trkpt lat="45.849881" lon="11.5894873"><ele>1136.3333333333333</ele><time>2026-04-26T09:25:19.471Z</time></trkpt><trkpt lat="45.8499439" lon="11.5893988"><ele>1135.5</ele><time>2026-04-26T09:25:20.47Z</time></trkpt><trkpt lat="45.8499966" lon="11.5893194"><ele>1134.6666666666667</ele><time>2026-04-26T09:25:21.471Z</time></trkpt><trkpt lat="45.850063" lon="11.5892584"><ele>1133.8333333333335</ele><time>2026-04-26T09:25:22.47Z</time></trkpt><trkpt lat="45.8501569" lon="11.5892019"><ele>1133.0</ele><time>2026-04-26T09:25:23.471Z</time></trkpt><trkpt lat="45.8502443" lon="11.5891493"><ele>1133.0</ele><time>2026-04-26T09:25:24.47Z</time></trkpt><trkpt lat="45.8503209" lon="11.5890905"><ele>1133.0</ele><time>2026-04-26T09:25:25.471Z</time></trkpt><trkpt lat="45.8504027" lon="11.589012"><ele>1133.0</ele><time>2026-04-26T09:25:26.471Z</time></trkpt><trkpt lat="45.8504808" lon="11.5889326"><ele>1133.0</ele><time>2026-04-26T09:25:27.47Z</time></trkpt><trkpt lat="45.8505623" lon="11.5888415"><ele>1133.0</ele><time>2026-04-26T09:25:28.47Z</time></trkpt><trkpt lat="45.8506373" lon="11.5887625"><ele>1135.5</ele><time>2026-04-26T09:25:29.47Z</time></trkpt><trkpt lat="45.8506873" lon="11.5886596"><ele>1138.0</ele><time>2026-04-26T09:25:30.471Z</time></trkpt><trkpt lat="45.8507439" lon="11.5885628"><ele>1140.5</ele><time>2026-04-26T09:25:31.47Z</time></trkpt><trkpt lat="45.8507565" lon="11.5884411"><ele>1143.0</ele><time>2026-04-26T09:25:32.47Z</time></trkpt><trkpt lat="45.8507792" lon="11.5883209"><ele>1145.5</ele><time>2026-04-26T09:25:33.471Z</time></trkpt><trkpt lat="45.8508153" lon="11.5882311"><ele>1148.0</ele><time>2026-04-26T09:25:34.47Z</time></trkpt><trkpt lat="45.8509572" lon="11.5881682"><ele>1145.6</ele><time>2026-04-26T09:25:36.47Z</time></trkpt><trkpt lat="45.8510883" lon="11.5881303"><ele>1143.1999999999998</ele><time>2026-04-26T09:25:38.471Z</time></trkpt><trkpt lat="45.85116" lon="11.5880825"><ele>1140.8</ele><time>2026-04-26T09:25:39.47Z</time></trkpt><trkpt lat="45.8512157" lon="11.5879835"><ele>1138.3999999999999</ele><time>2026-04-26T09:25:40.47Z</time></trkpt><trkpt lat="45.8512681" lon="11.5878561"><ele>1136.0</ele><time>2026-04-26T09:25:41.47Z</time></trkpt><trkpt lat="45.8513098" lon="11.5877436"><ele>1136.0</ele><time>2026-04-26T09:25:42.47Z</time></trkpt><trkpt lat="45.8513422" lon="11.5876464"><ele>1136.0</ele><time>2026-04-26T09:25:43.471Z</time></trkpt><trkpt lat="45.8513564" lon="11.5875445"><ele>1136.0</ele><time>2026-04-26T09:25:44.47Z</time></trkpt><trkpt lat="45.8513475" lon="11.5874378"><ele>1136.0</ele><time>2026-04-26T09:25:45.47Z</time></trkpt><trkpt lat="45.8513175" lon="11.5873001"><ele>1136.0</ele><time>2026-04-26T09:25:46.47Z</time></trkpt><trkpt lat="45.8512905" lon="11.5871493"><ele>1136.0</ele><time>2026-04-26T09:25:47.47Z</time></trkpt><trkpt lat="45.8512944" lon="11.5869844"><ele>1137.3999999999999</ele><time>2026-04-26T09:25:48.471Z</time></trkpt><trkpt lat="45.8512927" lon="11.586831"><ele>1138.8</ele><time>2026-04-26T09:25:49.47Z</time></trkpt><trkpt lat="45.8512984" lon="11.5866749"><ele>1140.1999999999998</ele><time>2026-04-26T09:25:50.471Z</time></trkpt><trkpt lat="45.8513167" lon="11.5865251"><ele>1141.6</ele><time>2026-04-26T09:25:51.47Z</time></trkpt><trkpt lat="45.85134" lon="11.5864178"><ele>1143.0</ele><time>2026-04-26T09:25:52.47Z</time></trkpt><trkpt lat="45.8513367" lon="11.5863079"><ele>1143.0</ele><time>2026-04-26T09:25:53.47Z</time></trkpt><trkpt lat="45.8513322" lon="11.5862051"><ele>1143.0</ele><time>2026-04-26T09:25:54.47Z</time></trkpt><trkpt lat="45.8513464" lon="11.5860643"><ele>1143.0</ele><time>2026-04-26T09:25:56.47Z</time></trkpt><trkpt lat="45.8514141" lon="11.5860489"><ele>1143.0</ele><time>2026-04-26T09:26:00.47Z</time></trkpt><trkpt lat="45.8514899" lon="11.5861992"><ele>1143.0</ele><time>2026-04-26T09:26:52.47Z</time></trkpt><trkpt lat="45.8514947" lon="11.5863482"><ele>1143.0</ele><time>2026-04-26T09:26:54.471Z</time></trkpt><trkpt lat="45.8515209" lon="11.58644"><ele>1143.0</ele><time>2026-04-26T09:26:55.47Z</time></trkpt><trkpt lat="45.8516002" lon="11.5865595"><ele>1143.0</ele><time>2026-04-26T09:26:57.47Z</time></trkpt><trkpt lat="45.851674" lon="11.5866513"><ele>1143.0</ele><time>2026-04-26T09:26:58.47Z</time></trkpt><trkpt lat="45.8517489" lon="11.5867531"><ele>1143.0</ele><time>2026-04-26T09:26:59.471Z</time></trkpt><trkpt lat="45.8518241" lon="11.5868379"><ele>1141.5</ele><time>2026-04-26T09:27:00.47Z</time></trkpt><trkpt lat="45.8518922" lon="11.58692"><ele>1140.0</ele><time>2026-04-26T09:27:01.471Z</time></trkpt><trkpt lat="45.851978" lon="11.5870219"><ele>1138.5</ele><time>2026-04-26T09:27:02.47Z</time></trkpt><trkpt lat="45.8520403" lon="11.587089"><ele>1137.0</ele><time>2026-04-26T09:27:03.47Z</time></trkpt><trkpt lat="45.8520872" lon="11.5871866"><ele>1135.5</ele><time>2026-04-26T09:27:04.47Z</time></trkpt><trkpt lat="45.852136" lon="11.5872833"><ele>1134.0</ele><time>2026-04-26T09:27:05.47Z</time></trkpt><trkpt lat="45.8521922" lon="11.5873588"><ele>1132.2</ele><time>2026-04-26T09:27:06.471Z</time></trkpt><trkpt lat="45.8522634" lon="11.5874577"><ele>1130.4</ele><time>2026-04-26T09:27:07.471Z</time></trkpt><trkpt lat="45.8523416" lon="11.5875329"><ele>1128.6</ele><time>2026-04-26T09:27:08.47Z</time></trkpt><trkpt lat="45.8524173" lon="11.5875997"><ele>1126.8</ele><time>2026-04-26T09:27:09.47Z</time></trkpt><trkpt lat="45.8524986" lon="11.587662"><ele>1125.0</ele><time>2026-04-26T09:27:10.47Z</time></trkpt><trkpt lat="45.8525712" lon="11.5877246"><ele>1122.6666666666667</ele><time>2026-04-26T09:27:11.47Z</time></trkpt><trkpt lat="45.8526447" lon="11.5877157"><ele>1120.3333333333333</ele><time>2026-04-26T09:27:13.471Z</time></trkpt><trkpt lat="45.8527147" lon="11.5876655"><ele>1118.0</ele><time>2026-04-26T09:27:14.47Z</time></trkpt><trkpt lat="45.8528013" lon="11.587603"><ele>1115.6666666666665</ele><time>2026-04-26T09:27:15.47Z</time></trkpt><trkpt lat="45.8528398" lon="11.5874958"><ele>1113.3333333333333</ele><time>2026-04-26T09:27:16.47Z</time></trkpt><trkpt lat="45.8528832" lon="11.5873804"><ele>1111.0</ele><time>2026-04-26T09:27:17.47Z</time></trkpt><trkpt lat="45.8529305" lon="11.5872692"><ele>1111.0</ele><time>2026-04-26T09:27:18.47Z</time></trkpt><trkpt lat="45.8530005" lon="11.5871895"><ele>1111.0</ele><time>2026-04-26T09:27:19.47Z</time></trkpt><trkpt lat="45.8530495" lon="11.5871073"><ele>1111.0</ele><time>2026-04-26T09:27:20.471Z</time></trkpt><trkpt lat="45.8530993" lon="11.5870276"><ele>1111.0</ele><time>2026-04-26T09:27:21.47Z</time></trkpt><trkpt lat="45.8531718" lon="11.5869879"><ele>1111.0</ele><time>2026-04-26T09:27:23.47Z</time></trkpt><trkpt lat="45.8532519" lon="11.5870337"><ele>1111.0</ele><time>2026-04-26T09:27:26.471Z</time></trkpt><trkpt lat="45.8532958" lon="11.5871139"><ele>1111.0</ele><time>2026-04-26T09:27:27.47Z</time></trkpt><trkpt lat="45.8533607" lon="11.5872048"><ele>1111.0</ele><time>2026-04-26T09:27:28.47Z</time></trkpt><trkpt lat="45.8534248" lon="11.5873001"><ele>1111.0</ele><time>2026-04-26T09:27:29.47Z</time></trkpt><trkpt lat="45.85347" lon="11.5874058"><ele>1111.0</ele><time>2026-04-26T09:27:30.47Z</time></trkpt><trkpt lat="45.853548" lon="11.5875375"><ele>1111.0</ele><time>2026-04-26T09:27:31.47Z</time></trkpt><trkpt lat="45.853584" lon="11.5876153"><ele>1109.6</ele><time>2026-04-26T09:27:32.47Z</time></trkpt><trkpt lat="45.8536194" lon="11.5877083"><ele>1108.1999999999998</ele><time>2026-04-26T09:27:33.47Z</time></trkpt><trkpt lat="45.8536718" lon="11.5878032"><ele>1106.8000000000002</ele><time>2026-04-26T09:27:34.47Z</time></trkpt><trkpt lat="45.8537443" lon="11.5878543"><ele>1105.4</ele><time>2026-04-26T09:27:36.47Z</time></trkpt><trkpt lat="45.8538342" lon="11.5877976"><ele>1104.0</ele><time>2026-04-26T09:27:40.47Z</time></trkpt><trkpt lat="45.8539373" lon="11.5877164"><ele>1104.0</ele><time>2026-04-26T09:27:42.47Z</time></trkpt><trkpt lat="45.8540247" lon="11.5876669"><ele>1104.0</ele><time>2026-04-26T09:27:44.47Z</time></trkpt><trkpt lat="45.8541004" lon="11.5876129"><ele>1104.0</ele><time>2026-04-26T09:27:46.47Z</time></trkpt><trkpt lat="45.8541408" lon="11.5875068"><ele>1104.0</ele><time>2026-04-26T09:27:49.471Z</time></trkpt><trkpt lat="45.8541968" lon="11.5874428"><ele>1104.0</ele><time>2026-04-26T09:36:59.471Z</time></trkpt><trkpt lat="45.8542772" lon="11.5873868"><ele>1104.0</ele><time>2026-04-26T09:37:07.47Z</time></trkpt><trkpt lat="45.8543571" lon="11.5873549"><ele>1105.4</ele><time>2026-04-26T09:37:09.471Z</time></trkpt><trkpt lat="45.8544402" lon="11.5873301"><ele>1106.8000000000002</ele><time>2026-04-26T09:37:11.47Z</time></trkpt><trkpt lat="45.8545418" lon="11.5873023"><ele>1108.1999999999998</ele><time>2026-04-26T09:37:13.47Z</time></trkpt><trkpt lat="45.85465" lon="11.5872487"><ele>1109.6</ele><time>2026-04-26T09:37:15.47Z</time></trkpt><trkpt lat="45.8547184" lon="11.5872022"><ele>1111.0</ele><time>2026-04-26T09:37:16.471Z</time></trkpt><trkpt lat="45.8547731" lon="11.5871344"><ele>1111.0</ele><time>2026-04-26T09:37:17.47Z</time></trkpt><trkpt lat="45.854822" lon="11.587049"><ele>1111.0</ele><time>2026-04-26T09:37:18.471Z</time></trkpt><trkpt lat="45.8548568" lon="11.5869399"><ele>1111.0</ele><time>2026-04-26T09:37:19.471Z</time></trkpt><trkpt lat="45.8548975" lon="11.5868309"><ele>1111.0</ele><time>2026-04-26T09:37:20.47Z</time></trkpt><trkpt lat="45.8549519" lon="11.5867612"><ele>1111.0</ele><time>2026-04-26T09:37:21.47Z</time></trkpt><trkpt lat="45.8550191" lon="11.5867051"><ele>1111.0</ele><time>2026-04-26T09:37:22.471Z</time></trkpt><trkpt lat="45.8551013" lon="11.5866766"><ele>1111.0</ele><time>2026-04-26T09:37:23.47Z</time></trkpt><trkpt lat="45.8551755" lon="11.5866722"><ele>1111.0</ele><time>2026-04-26T09:37:24.471Z</time></trkpt><trkpt lat="45.8552493" lon="11.5866546"><ele>1111.0</ele><time>2026-04-26T09:37:25.47Z</time></trkpt><trkpt lat="45.8553578" lon="11.5864884"><ele>1111.0</ele><time>2026-04-26T09:37:27.47Z</time></trkpt><trkpt lat="45.8554231" lon="11.5863927"><ele>1111.0</ele><time>2026-04-26T09:37:28.471Z</time></trkpt><trkpt lat="45.8554852" lon="11.5862927"><ele>1111.0</ele><time>2026-04-26T09:37:29.471Z</time></trkpt><trkpt lat="45.8555554" lon="11.5861831"><ele>1111.0</ele><time>2026-04-26T09:37:30.471Z</time></trkpt><trkpt lat="45.8556301" lon="11.5860801"><ele>1111.0</ele><time>2026-04-26T09:37:31.47Z</time></trkpt><trkpt lat="45.8557241" lon="11.5860056"><ele>1111.0</ele><time>2026-04-26T09:37:32.47Z</time></trkpt><trkpt lat="45.8558118" lon="11.5859109"><ele>1111.0</ele><time>2026-04-26T09:37:33.471Z</time></trkpt><trkpt lat="45.8558952" lon="11.5858282"><ele>1112.0</ele><time>2026-04-26T09:37:34.471Z</time></trkpt><trkpt lat="45.8559751" lon="11.5857402"><ele>1113.0</ele><time>2026-04-26T09:37:35.471Z</time></trkpt><trkpt lat="45.8560465" lon="11.5856759"><ele>1114.0</ele><time>2026-04-26T09:37:36.47Z</time></trkpt><trkpt lat="45.8561118" lon="11.5856248"><ele>1115.0</ele><time>2026-04-26T09:37:37.47Z</time></trkpt><trkpt lat="45.8561768" lon="11.5856197"><ele>1116.0</ele><time>2026-04-26T09:37:38.47Z</time></trkpt><trkpt lat="45.856311" lon="11.5856895"><ele>1116.0</ele><time>2026-04-26T09:37:40.471Z</time></trkpt><trkpt lat="45.8563849" lon="11.5857459"><ele>1116.0</ele><time>2026-04-26T09:37:41.47Z</time></trkpt><trkpt lat="45.8564648" lon="11.5858376"><ele>1116.0</ele><time>2026-04-26T09:37:42.47Z</time></trkpt><trkpt lat="45.856531" lon="11.5859641"><ele>1116.0</ele><time>2026-04-26T09:37:43.47Z</time></trkpt><trkpt lat="45.8565987" lon="11.5860641"><ele>1116.0</ele><time>2026-04-26T09:37:44.47Z</time></trkpt><trkpt lat="45.8566649" lon="11.5861568"><ele>1116.0</ele><time>2026-04-26T09:37:45.471Z</time></trkpt><trkpt lat="45.856727" lon="11.5862424"><ele>1116.0</ele><time>2026-04-26T09:37:46.47Z</time></trkpt><trkpt lat="45.8567988" lon="11.5863275"><ele>1116.0</ele><time>2026-04-26T09:37:47.471Z</time></trkpt><trkpt lat="45.856882" lon="11.5864017"><ele>1116.0</ele><time>2026-04-26T09:37:48.47Z</time></trkpt><trkpt lat="45.8569704" lon="11.5864528"><ele>1116.0</ele><time>2026-04-26T09:37:49.47Z</time></trkpt><trkpt lat="45.8570617" lon="11.5865003"><ele>1116.0</ele><time>2026-04-26T09:37:50.47Z</time></trkpt><trkpt lat="45.8571645" lon="11.5865453"><ele>1116.0</ele><time>2026-04-26T09:37:51.47Z</time></trkpt><trkpt lat="45.8572679" lon="11.5865684"><ele>1116.0</ele><time>2026-04-26T09:37:52.47Z</time></trkpt><trkpt lat="45.8573626" lon="11.5865825"><ele>1116.0</ele><time>2026-04-26T09:37:53.47Z</time></trkpt><trkpt lat="45.8574617" lon="11.5865779"><ele>1116.0</ele><time>2026-04-26T09:37:54.47Z</time></trkpt><trkpt lat="45.8575508" lon="11.5865635"><ele>1116.8</ele><time>2026-04-26T09:37:55.471Z</time></trkpt><trkpt lat="45.8576645" lon="11.5865877"><ele>1117.6</ele><time>2026-04-26T09:37:56.47Z</time></trkpt><trkpt lat="45.8577667" lon="11.5865881"><ele>1118.4</ele><time>2026-04-26T09:37:57.47Z</time></trkpt><trkpt lat="45.8578742" lon="11.5865925"><ele>1119.2</ele><time>2026-04-26T09:37:58.471Z</time></trkpt><trkpt lat="45.8579826" lon="11.586587"><ele>1120.0</ele><time>2026-04-26T09:37:59.47Z</time></trkpt><trkpt lat="45.8580991" lon="11.5865864"><ele>1120.0</ele><time>2026-04-26T09:38:00.47Z</time></trkpt><trkpt lat="45.8582179" lon="11.5865884"><ele>1120.0</ele><time>2026-04-26T09:38:01.47Z</time></trkpt><trkpt lat="45.8583401" lon="11.5865944"><ele>1120.0</ele><time>2026-04-26T09:38:02.47Z</time></trkpt><trkpt lat="45.8584604" lon="11.5865846"><ele>1120.0</ele><time>2026-04-26T09:38:03.471Z</time></trkpt><trkpt lat="45.8585775" lon="11.5865553"><ele>1121.25</ele><time>2026-04-26T09:38:04.47Z</time></trkpt><trkpt lat="45.8586871" lon="11.586534"><ele>1122.5</ele><time>2026-04-26T09:38:05.47Z</time></trkpt><trkpt lat="45.8587987" lon="11.5864924"><ele>1123.75</ele><time>2026-04-26T09:38:06.47Z</time></trkpt><trkpt lat="45.8589141" lon="11.5864688"><ele>1125.0</ele><time>2026-04-26T09:38:07.47Z</time></trkpt><trkpt lat="45.859025" lon="11.586437"><ele>1125.0</ele><time>2026-04-26T09:38:08.471Z</time></trkpt><trkpt lat="45.8591316" lon="11.58639"><ele>1125.0</ele><time>2026-04-26T09:38:09.471Z</time></trkpt><trkpt lat="45.8592304" lon="11.5863267"><ele>1125.0</ele><time>2026-04-26T09:38:10.47Z</time></trkpt><trkpt lat="45.8593446" lon="11.5862618"><ele>1125.0</ele><time>2026-04-26T09:38:11.47Z</time></trkpt><trkpt lat="45.8594398" lon="11.5861835"><ele>1125.0</ele><time>2026-04-26T09:38:12.47Z</time></trkpt><trkpt lat="45.8595331" lon="11.5860948"><ele>1125.0</ele><time>2026-04-26T09:38:13.47Z</time></trkpt><trkpt lat="45.8596062" lon="11.5859897"><ele>1125.0</ele><time>2026-04-26T09:38:14.47Z</time></trkpt><trkpt lat="45.8596891" lon="11.5858902"><ele>1125.0</ele><time>2026-04-26T09:38:15.47Z</time></trkpt><trkpt lat="45.8597626" lon="11.5858072"><ele>1125.0</ele><time>2026-04-26T09:38:16.471Z</time></trkpt><trkpt lat="45.8598344" lon="11.5857326"><ele>1125.0</ele><time>2026-04-26T09:38:17.47Z</time></trkpt><trkpt lat="45.8599088" lon="11.5856642"><ele>1125.0</ele><time>2026-04-26T09:38:18.471Z</time></trkpt><trkpt lat="45.8600245" lon="11.5856527"><ele>1125.0</ele><time>2026-04-26T09:38:20.47Z</time></trkpt><trkpt lat="45.8601117" lon="11.5857165"><ele>1125.0</ele><time>2026-04-26T09:38:21.47Z</time></trkpt><trkpt lat="45.8602056" lon="11.5857523"><ele>1125.0</ele><time>2026-04-26T09:38:23.471Z</time></trkpt><trkpt lat="45.860277" lon="11.5857944"><ele>1125.2</ele><time>2026-04-26T09:38:25.471Z</time></trkpt><trkpt lat="45.8603327" lon="11.5858379"><ele>1125.4</ele><time>2026-04-26T09:38:27.47Z</time></trkpt><trkpt lat="45.8604235" lon="11.5858805"><ele>1125.6</ele><time>2026-04-26T09:38:29.47Z</time></trkpt><trkpt lat="45.8604873" lon="11.5858951"><ele>1125.8</ele><time>2026-04-26T09:38:30.47Z</time></trkpt><trkpt lat="45.8606187" lon="11.5859017"><ele>1126.0</ele><time>2026-04-26T09:38:32.47Z</time></trkpt><trkpt lat="45.8607437" lon="11.5858284"><ele>1126.0</ele><time>2026-04-26T09:38:34.47Z</time></trkpt><trkpt lat="45.8608098" lon="11.5857902"><ele>1126.0</ele><time>2026-04-26T09:38:35.471Z</time></trkpt><trkpt lat="45.8608791" lon="11.5857563"><ele>1126.0</ele><time>2026-04-26T09:38:36.47Z</time></trkpt><trkpt lat="45.860947" lon="11.5857135"><ele>1126.0</ele><time>2026-04-26T09:38:37.47Z</time></trkpt><trkpt lat="45.8610086" lon="11.5856733"><ele>1126.0</ele><time>2026-04-26T09:38:38.47Z</time></trkpt><trkpt lat="45.8610615" lon="11.5856064"><ele>1126.0</ele><time>2026-04-26T09:38:39.47Z</time></trkpt><trkpt lat="45.8611132" lon="11.5855185"><ele>1126.0</ele><time>2026-04-26T09:38:40.471Z</time></trkpt><trkpt lat="45.8611626" lon="11.5854295"><ele>1127.1666666666665</ele><time>2026-04-26T09:38:41.47Z</time></trkpt><trkpt lat="45.8612056" lon="11.5853216"><ele>1128.3333333333333</ele><time>2026-04-26T09:38:42.47Z</time></trkpt><trkpt lat="45.8612617" lon="11.5852293"><ele>1129.5</ele><time>2026-04-26T09:38:43.47Z</time></trkpt><trkpt lat="45.861317" lon="11.5851462"><ele>1130.6666666666667</ele><time>2026-04-26T09:38:44.471Z</time></trkpt><trkpt lat="45.8613655" lon="11.585075"><ele>1131.8333333333335</ele><time>2026-04-26T09:38:45.47Z</time></trkpt><trkpt lat="45.8614075" lon="11.5850061"><ele>1133.0</ele><time>2026-04-26T09:38:46.47Z</time></trkpt><trkpt lat="45.8614542" lon="11.5849197"><ele>1133.0</ele><time>2026-04-26T09:38:47.471Z</time></trkpt><trkpt lat="45.8614962" lon="11.5848389"><ele>1133.0</ele><time>2026-04-26T09:38:48.47Z</time></trkpt><trkpt lat="45.8615421" lon="11.5847624"><ele>1133.0</ele><time>2026-04-26T09:38:49.47Z</time></trkpt><trkpt lat="45.8615838" lon="11.5846804"><ele>1133.0</ele><time>2026-04-26T09:38:50.471Z</time></trkpt><trkpt lat="45.8616353" lon="11.5844967"><ele>1133.0</ele><time>2026-04-26T09:38:52.47Z</time></trkpt><trkpt lat="45.8616592" lon="11.5843918"><ele>1133.0</ele><time>2026-04-26T09:38:53.47Z</time></trkpt><trkpt lat="45.8616789" lon="11.584292"><ele>1132.8</ele><time>2026-04-26T09:38:54.47Z</time></trkpt><trkpt lat="45.8617167" lon="11.5841688"><ele>1132.6</ele><time>2026-04-26T09:38:56.471Z</time></trkpt><trkpt lat="45.8617468" lon="11.5840816"><ele>1132.4</ele><time>2026-04-26T09:38:58.47Z</time></trkpt><trkpt lat="45.8618792" lon="11.5840001"><ele>1132.2</ele><time>2026-04-26T09:42:33.46Z</time></trkpt><trkpt lat="45.8619404" lon="11.5841386"><ele>1132.0</ele><time>2026-04-26T09:42:35.459Z</time></trkpt><trkpt lat="45.8619823" lon="11.5842142"><ele>1134.6</ele><time>2026-04-26T09:42:36.46Z</time></trkpt><trkpt lat="45.8620637" lon="11.584368"><ele>1137.2</ele><time>2026-04-26T09:42:38.459Z</time></trkpt><trkpt lat="45.8621043" lon="11.5844463"><ele>1139.8</ele><time>2026-04-26T09:42:39.459Z</time></trkpt><trkpt lat="45.8621402" lon="11.5846109"><ele>1142.4</ele><time>2026-04-26T09:42:41.46Z</time></trkpt><trkpt lat="45.8621261" lon="11.5847827"><ele>1145.0</ele><time>2026-04-26T09:42:43.459Z</time></trkpt><trkpt lat="45.8621028" lon="11.5848725"><ele>1145.6666666666667</ele><time>2026-04-26T09:42:44.46Z</time></trkpt><trkpt lat="45.8620811" lon="11.5849992"><ele>1146.3333333333335</ele><time>2026-04-26T09:42:46.459Z</time></trkpt><trkpt lat="45.8620746" lon="11.5851515"><ele>1147.0</ele><time>2026-04-26T09:42:48.46Z</time></trkpt><trkpt lat="45.8620754" lon="11.5852471"><ele>1147.6666666666667</ele><time>2026-04-26T09:42:49.459Z</time></trkpt><trkpt lat="45.8620779" lon="11.5853488"><ele>1148.3333333333333</ele><time>2026-04-26T09:42:50.459Z</time></trkpt><trkpt lat="45.8620944" lon="11.5854739"><ele>1149.0</ele><time>2026-04-26T09:42:51.459Z</time></trkpt><trkpt lat="45.8620965" lon="11.5855858"><ele>1149.0</ele><time>2026-04-26T09:42:52.46Z</time></trkpt><trkpt lat="45.8620927" lon="11.5857007"><ele>1149.0</ele><time>2026-04-26T09:42:53.459Z</time></trkpt><trkpt lat="45.8620871" lon="11.5858187"><ele>1149.0</ele><time>2026-04-26T09:42:54.459Z</time></trkpt><trkpt lat="45.8620817" lon="11.5859323"><ele>1149.0</ele><time>2026-04-26T09:42:55.459Z</time></trkpt><trkpt lat="45.8620406" lon="11.5860445"><ele>1149.0</ele><time>2026-04-26T09:42:56.459Z</time></trkpt><trkpt lat="45.8620311" lon="11.5861517"><ele>1149.0</ele><time>2026-04-26T09:42:57.459Z</time></trkpt><trkpt lat="45.8620178" lon="11.5862535"><ele>1149.0</ele><time>2026-04-26T09:42:58.459Z</time></trkpt><trkpt lat="45.8620116" lon="11.5863661"><ele>1149.0</ele><time>2026-04-26T09:42:59.459Z</time></trkpt><trkpt lat="45.8620114" lon="11.5864837"><ele>1149.0</ele><time>2026-04-26T09:43:00.459Z</time></trkpt><trkpt lat="45.8620297" lon="11.5865778"><ele>1149.0</ele><time>2026-04-26T09:43:01.46Z</time></trkpt><trkpt lat="45.8620608" lon="11.5866641"><ele>1149.0</ele><time>2026-04-26T09:43:02.46Z</time></trkpt><trkpt lat="45.8621138" lon="11.5867552"><ele>1149.0</ele><time>2026-04-26T09:43:03.459Z</time></trkpt><trkpt lat="45.8621964" lon="11.5868546"><ele>1149.0</ele><time>2026-04-26T09:43:04.459Z</time></trkpt><trkpt lat="45.8622684" lon="11.5869236"><ele>1149.0</ele><time>2026-04-26T09:43:05.46Z</time></trkpt><trkpt lat="45.8623354" lon="11.5869951"><ele>1149.0</ele><time>2026-04-26T09:43:06.459Z</time></trkpt><trkpt lat="45.8624081" lon="11.5870678"><ele>1149.0</ele><time>2026-04-26T09:43:07.459Z</time></trkpt><trkpt lat="45.8624666" lon="11.5871293"><ele>1149.0</ele><time>2026-04-26T09:43:08.46Z</time></trkpt><trkpt lat="45.8625275" lon="11.587176"><ele>1149.0</ele><time>2026-04-26T09:43:09.459Z</time></trkpt><trkpt lat="45.8625971" lon="11.587213"><ele>1149.5</ele><time>2026-04-26T09:43:10.46Z</time></trkpt><trkpt lat="45.862681" lon="11.5872428"><ele>1150.0</ele><time>2026-04-26T09:43:11.459Z</time></trkpt><trkpt lat="45.8627598" lon="11.5872753"><ele>1150.5</ele><time>2026-04-26T09:43:12.46Z</time></trkpt><trkpt lat="45.8628374" lon="11.5873298"><ele>1151.0</ele><time>2026-04-26T09:43:13.46Z</time></trkpt><trkpt lat="45.8629175" lon="11.587399"><ele>1151.5</ele><time>2026-04-26T09:43:14.459Z</time></trkpt><trkpt lat="45.8630011" lon="11.5874722"><ele>1152.0</ele><time>2026-04-26T09:43:15.459Z</time></trkpt><trkpt lat="45.8630668" lon="11.5875536"><ele>1152.0</ele><time>2026-04-26T09:43:16.46Z</time></trkpt><trkpt lat="45.8631344" lon="11.5876445"><ele>1152.0</ele><time>2026-04-26T09:43:17.459Z</time></trkpt><trkpt lat="45.863221" lon="11.5877287"><ele>1152.0</ele><time>2026-04-26T09:43:18.459Z</time></trkpt><trkpt lat="45.8632961" lon="11.5878152"><ele>1152.0</ele><time>2026-04-26T09:43:19.459Z</time></trkpt><trkpt lat="45.8634031" lon="11.5879739"><ele>1152.0</ele><time>2026-04-26T09:43:21.459Z</time></trkpt><trkpt lat="45.8634919" lon="11.5880295"><ele>1149.0</ele><time>2026-04-26T09:43:22.46Z</time></trkpt><trkpt lat="45.8635905" lon="11.5881253"><ele>1146.0</ele><time>2026-04-26T09:43:23.459Z</time></trkpt><trkpt lat="45.8637112" lon="11.5880928"><ele>1143.0</ele><time>2026-04-26T09:43:24.46Z</time></trkpt><trkpt lat="45.8638246" lon="11.5880955"><ele>1140.0</ele><time>2026-04-26T09:43:25.459Z</time></trkpt><trkpt lat="45.8639264" lon="11.5881212"><ele>1140.0</ele><time>2026-04-26T09:43:26.459Z</time></trkpt><trkpt lat="45.8640419" lon="11.5881583"><ele>1140.0</ele><time>2026-04-26T09:43:27.459Z</time></trkpt><trkpt lat="45.8641408" lon="11.5881988"><ele>1140.0</ele><time>2026-04-26T09:43:28.459Z</time></trkpt><trkpt lat="45.8642429" lon="11.5882494"><ele>1140.0</ele><time>2026-04-26T09:43:29.459Z</time></trkpt><trkpt lat="45.8643157" lon="11.5883361"><ele>1140.0</ele><time>2026-04-26T09:43:30.46Z</time></trkpt><trkpt lat="45.8644044" lon="11.5884038"><ele>1141.1666666666667</ele><time>2026-04-26T09:43:31.459Z</time></trkpt><trkpt lat="45.8644872" lon="11.5884696"><ele>1142.3333333333333</ele><time>2026-04-26T09:43:32.459Z</time></trkpt><trkpt lat="45.8645587" lon="11.5885258"><ele>1143.5</ele><time>2026-04-26T09:43:33.459Z</time></trkpt><trkpt lat="45.8646184" lon="11.5885759"><ele>1144.6666666666665</ele><time>2026-04-26T09:43:34.459Z</time></trkpt><trkpt lat="45.8646896" lon="11.5886297"><ele>1145.8333333333333</ele><time>2026-04-26T09:43:35.459Z</time></trkpt><trkpt lat="45.8647738" lon="11.5886283"><ele>1147.0</ele><time>2026-04-26T09:43:36.459Z</time></trkpt><trkpt lat="45.864844" lon="11.5886229"><ele>1147.0</ele><time>2026-04-26T09:43:37.459Z</time></trkpt><trkpt lat="45.8649211" lon="11.588611"><ele>1147.0</ele><time>2026-04-26T09:43:38.459Z</time></trkpt><trkpt lat="45.8650053" lon="11.5886304"><ele>1147.0</ele><time>2026-04-26T09:43:39.459Z</time></trkpt><trkpt lat="45.8651106" lon="11.5886667"><ele>1147.0</ele><time>2026-04-26T09:43:40.459Z</time></trkpt><trkpt lat="45.8652079" lon="11.5887017"><ele>1147.0</ele><time>2026-04-26T09:43:41.46Z</time></trkpt><trkpt lat="45.8652959" lon="11.5887282"><ele>1145.0</ele><time>2026-04-26T09:43:42.459Z</time></trkpt><trkpt lat="45.8653952" lon="11.5887456"><ele>1143.0</ele><time>2026-04-26T09:43:43.459Z</time></trkpt><trkpt lat="45.8654853" lon="11.5887403"><ele>1141.0</ele><time>2026-04-26T09:43:44.459Z</time></trkpt><trkpt lat="45.8655886" lon="11.5887383"><ele>1139.0</ele><time>2026-04-26T09:43:45.459Z</time></trkpt><trkpt lat="45.8656752" lon="11.5887115"><ele>1137.0</ele><time>2026-04-26T09:43:46.459Z</time></trkpt><trkpt lat="45.8657447" lon="11.5886859"><ele>1138.8333333333333</ele><time>2026-04-26T09:43:47.459Z</time></trkpt><trkpt lat="45.8658094" lon="11.5886542"><ele>1140.6666666666667</ele><time>2026-04-26T09:43:48.459Z</time></trkpt><trkpt lat="45.8658721" lon="11.5886193"><ele>1142.5</ele><time>2026-04-26T09:43:49.459Z</time></trkpt><trkpt lat="45.8659686" lon="11.5885325"><ele>1144.3333333333335</ele><time>2026-04-26T09:43:51.459Z</time></trkpt><trkpt lat="45.8660479" lon="11.588411"><ele>1146.1666666666667</ele><time>2026-04-26T09:43:53.459Z</time></trkpt><trkpt lat="45.8660957" lon="11.588352"><ele>1148.0</ele><time>2026-04-26T09:43:54.46Z</time></trkpt><trkpt lat="45.8661998" lon="11.5882779"><ele>1148.0</ele><time>2026-04-26T09:43:56.459Z</time></trkpt><trkpt lat="45.8662988" lon="11.5882272"><ele>1148.0</ele><time>2026-04-26T09:43:58.459Z</time></trkpt><trkpt lat="45.8664003" lon="11.588205"><ele>1148.0</ele><time>2026-04-26T09:44:00.459Z</time></trkpt><trkpt lat="45.8664909" lon="11.5882159"><ele>1148.0</ele><time>2026-04-26T09:44:02.459Z</time></trkpt><trkpt lat="45.8665204" lon="11.5883253"><ele>1148.0</ele><time>2026-04-26T09:44:36.459Z</time></trkpt><trkpt lat="45.8665922" lon="11.5883066"><ele>1148.0</ele><time>2026-04-26T09:44:39.459Z</time></trkpt><trkpt lat="45.8667274" lon="11.5883082"><ele>1148.0</ele><time>2026-04-26T09:44:41.459Z</time></trkpt><trkpt lat="45.8668064" lon="11.5883263"><ele>1148.0</ele><time>2026-04-26T09:44:42.459Z</time></trkpt><trkpt lat="45.866895" lon="11.5883525"><ele>1148.0</ele><time>2026-04-26T09:44:43.459Z</time></trkpt><trkpt lat="45.8669922" lon="11.5883911"><ele>1148.0</ele><time>2026-04-26T09:44:44.46Z</time></trkpt><trkpt lat="45.8671038" lon="11.5884336"><ele>1152.5</ele><time>2026-04-26T09:44:45.459Z</time></trkpt><trkpt lat="45.8672181" lon="11.5884763"><ele>1157.0</ele><time>2026-04-26T09:44:46.459Z</time></trkpt><trkpt lat="45.8673438" lon="11.5885116"><ele>1161.5</ele><time>2026-04-26T09:44:47.459Z</time></trkpt><trkpt lat="45.8674925" lon="11.5885523"><ele>1166.0</ele><time>2026-04-26T09:44:48.459Z</time></trkpt><trkpt lat="45.8676229" lon="11.588581"><ele>1163.5</ele><time>2026-04-26T09:44:49.46Z</time></trkpt><trkpt lat="45.8677552" lon="11.5886225"><ele>1161.0</ele><time>2026-04-26T09:44:50.459Z</time></trkpt><trkpt lat="45.8678682" lon="11.5886905"><ele>1158.5</ele><time>2026-04-26T09:44:51.46Z</time></trkpt><trkpt lat="45.8679793" lon="11.5887503"><ele>1156.0</ele><time>2026-04-26T09:44:52.459Z</time></trkpt><trkpt lat="45.868076" lon="11.5888057"><ele>1156.0</ele><time>2026-04-26T09:44:53.459Z</time></trkpt><trkpt lat="45.8681909" lon="11.5888827"><ele>1156.0</ele><time>2026-04-26T09:44:54.459Z</time></trkpt><trkpt lat="45.8682463" lon="11.5889746"><ele>1156.0</ele><time>2026-04-26T09:44:55.459Z</time></trkpt><trkpt lat="45.8683074" lon="11.5890597"><ele>1156.0</ele><time>2026-04-26T09:44:56.459Z</time></trkpt><trkpt lat="45.8683703" lon="11.5891859"><ele>1156.0</ele><time>2026-04-26T09:44:57.459Z</time></trkpt><trkpt lat="45.868442" lon="11.5893034"><ele>1156.2</ele><time>2026-04-26T09:44:58.459Z</time></trkpt><trkpt lat="45.8684891" lon="11.5894416"><ele>1156.3999999999999</ele><time>2026-04-26T09:44:59.459Z</time></trkpt><trkpt lat="45.8685402" lon="11.5895775"><ele>1156.6</ele><time>2026-04-26T09:45:00.46Z</time></trkpt><trkpt lat="45.8685964" lon="11.5897144"><ele>1156.8</ele><time>2026-04-26T09:45:01.459Z</time></trkpt><trkpt lat="45.8686611" lon="11.5898476"><ele>1157.0</ele><time>2026-04-26T09:45:02.459Z</time></trkpt><trkpt lat="45.8687161" lon="11.5899728"><ele>1157.0</ele><time>2026-04-26T09:45:03.459Z</time></trkpt><trkpt lat="45.868783" lon="11.5901046"><ele>1157.0</ele><time>2026-04-26T09:45:04.459Z</time></trkpt><trkpt lat="45.8688559" lon="11.5902223"><ele>1157.0</ele><time>2026-04-26T09:45:05.459Z</time></trkpt><trkpt lat="45.8689341" lon="11.5903415"><ele>1157.0</ele><time>2026-04-26T09:45:06.459Z</time></trkpt><trkpt lat="45.8689973" lon="11.5904278"><ele>1157.0</ele><time>2026-04-26T09:45:07.459Z</time></trkpt><trkpt lat="45.8690587" lon="11.5905095"><ele>1155.6</ele><time>2026-04-26T09:45:08.459Z</time></trkpt><trkpt lat="45.869127" lon="11.5905838"><ele>1154.2</ele><time>2026-04-26T09:45:09.459Z</time></trkpt><trkpt lat="45.8692147" lon="11.5906263"><ele>1152.8</ele><time>2026-04-26T09:45:10.459Z</time></trkpt><trkpt lat="45.8693024" lon="11.5906626"><ele>1151.4</ele><time>2026-04-26T09:45:11.459Z</time></trkpt><trkpt lat="45.8694085" lon="11.5906834"><ele>1150.0</ele><time>2026-04-26T09:45:12.459Z</time></trkpt><trkpt lat="45.8695229" lon="11.5906909"><ele>1149.8</ele><time>2026-04-26T09:45:13.459Z</time></trkpt><trkpt lat="45.869619" lon="11.5906824"><ele>1149.6</ele><time>2026-04-26T09:45:14.459Z</time></trkpt><trkpt lat="45.8697592" lon="11.5906933"><ele>1149.4</ele><time>2026-04-26T09:45:15.46Z</time></trkpt><trkpt lat="45.8698659" lon="11.5906658"><ele>1149.2</ele><time>2026-04-26T09:45:16.46Z</time></trkpt><trkpt lat="45.8699637" lon="11.5906256"><ele>1149.0</ele><time>2026-04-26T09:45:17.459Z</time></trkpt><trkpt lat="45.870064" lon="11.5905728"><ele>1149.0</ele><time>2026-04-26T09:45:18.459Z</time></trkpt><trkpt lat="45.8701703" lon="11.5905088"><ele>1149.0</ele><time>2026-04-26T09:45:19.46Z</time></trkpt><trkpt lat="45.8702714" lon="11.5904658"><ele>1149.0</ele><time>2026-04-26T09:45:20.459Z</time></trkpt><trkpt lat="45.8703853" lon="11.5904656"><ele>1149.0</ele><time>2026-04-26T09:45:21.459Z</time></trkpt><trkpt lat="45.8704915" lon="11.5904505"><ele>1149.0</ele><time>2026-04-26T09:45:22.459Z</time></trkpt><trkpt lat="45.8705945" lon="11.5904655"><ele>1149.0</ele><time>2026-04-26T09:45:23.459Z</time></trkpt><trkpt lat="45.8706959" lon="11.5904938"><ele>1149.0</ele><time>2026-04-26T09:45:24.46Z</time></trkpt><trkpt lat="45.8707895" lon="11.5905709"><ele>1149.0</ele><time>2026-04-26T09:45:25.459Z</time></trkpt><trkpt lat="45.8708773" lon="11.5906688"><ele>1149.0</ele><time>2026-04-26T09:45:26.459Z</time></trkpt><trkpt lat="45.8709633" lon="11.5907858"><ele>1149.0</ele><time>2026-04-26T09:45:27.46Z</time></trkpt><trkpt lat="45.8710638" lon="11.5909254"><ele>1152.0</ele><time>2026-04-26T09:45:28.459Z</time></trkpt><trkpt lat="45.8711928" lon="11.5911025"><ele>1155.0</ele><time>2026-04-26T09:45:29.459Z</time></trkpt><trkpt lat="45.8712958" lon="11.591239"><ele>1158.0</ele><time>2026-04-26T09:45:30.46Z</time></trkpt><trkpt lat="45.8714081" lon="11.5913751"><ele>1158.0</ele><time>2026-04-26T09:45:31.46Z</time></trkpt><trkpt lat="45.8715131" lon="11.5914865"><ele>1158.0</ele><time>2026-04-26T09:45:32.459Z</time></trkpt><trkpt lat="45.8716155" lon="11.5915947"><ele>1158.0</ele><time>2026-04-26T09:45:33.459Z</time></trkpt><trkpt lat="45.8717029" lon="11.5916985"><ele>1158.0</ele><time>2026-04-26T09:45:34.459Z</time></trkpt><trkpt lat="45.8717826" lon="11.5918116"><ele>1159.0</ele><time>2026-04-26T09:45:35.46Z</time></trkpt><trkpt lat="45.8718467" lon="11.5919314"><ele>1160.0</ele><time>2026-04-26T09:45:36.459Z</time></trkpt><trkpt lat="45.8718947" lon="11.5920779"><ele>1161.0</ele><time>2026-04-26T09:45:37.459Z</time></trkpt><trkpt lat="45.8719609" lon="11.5922192"><ele>1162.0</ele><time>2026-04-26T09:45:38.459Z</time></trkpt><trkpt lat="45.8720197" lon="11.5923288"><ele>1163.0</ele><time>2026-04-26T09:45:39.459Z</time></trkpt><trkpt lat="45.8721037" lon="11.5924155"><ele>1163.0</ele><time>2026-04-26T09:45:40.459Z</time></trkpt><trkpt lat="45.8722099" lon="11.5924987"><ele>1163.0</ele><time>2026-04-26T09:45:41.459Z</time></trkpt><trkpt lat="45.8723148" lon="11.5925633"><ele>1163.0</ele><time>2026-04-26T09:45:42.459Z</time></trkpt><trkpt lat="45.8724129" lon="11.592597"><ele>1163.0</ele><time>2026-04-26T09:45:43.46Z</time></trkpt><trkpt lat="45.8725103" lon="11.5926071"><ele>1163.0</ele><time>2026-04-26T09:45:44.459Z</time></trkpt><trkpt lat="45.8726034" lon="11.5925993"><ele>1163.0</ele><time>2026-04-26T09:45:45.459Z</time></trkpt><trkpt lat="45.8726928" lon="11.5925938"><ele>1163.0</ele><time>2026-04-26T09:45:46.459Z</time></trkpt><trkpt lat="45.8727699" lon="11.5925303"><ele>1163.0</ele><time>2026-04-26T09:45:47.459Z</time></trkpt><trkpt lat="45.8728448" lon="11.5924621"><ele>1163.0</ele><time>2026-04-26T09:45:48.459Z</time></trkpt><trkpt lat="45.8729235" lon="11.5924054"><ele>1163.0</ele><time>2026-04-26T09:45:49.459Z</time></trkpt><trkpt lat="45.8729971" lon="11.5923489"><ele>1163.0</ele><time>2026-04-26T09:45:50.459Z</time></trkpt><trkpt lat="45.8730663" lon="11.5923145"><ele>1163.0</ele><time>2026-04-26T09:45:51.459Z</time></trkpt><trkpt lat="45.8731371" lon="11.5922927"><ele>1163.0</ele><time>2026-04-26T09:45:52.46Z</time></trkpt><trkpt lat="45.8732218" lon="11.592296"><ele>1163.0</ele><time>2026-04-26T09:45:53.459Z</time></trkpt><trkpt lat="45.8733008" lon="11.5923158"><ele>1163.0</ele><time>2026-04-26T09:45:54.459Z</time></trkpt><trkpt lat="45.8733698" lon="11.5923244"><ele>1163.0</ele><time>2026-04-26T09:45:55.46Z</time></trkpt><trkpt lat="45.8734511" lon="11.5923431"><ele>1163.0</ele><time>2026-04-26T09:45:56.459Z</time></trkpt><trkpt lat="45.8735354" lon="11.5923847"><ele>1164.6666666666667</ele><time>2026-04-26T09:45:57.46Z</time></trkpt><trkpt lat="45.8736132" lon="11.5924034"><ele>1166.3333333333335</ele><time>2026-04-26T09:45:58.459Z</time></trkpt><trkpt lat="45.873674" lon="11.5924439"><ele>1168.0</ele><time>2026-04-26T09:45:59.46Z</time></trkpt><trkpt lat="45.8737573" lon="11.5925677"><ele>1169.6666666666667</ele><time>2026-04-26T09:46:01.459Z</time></trkpt><trkpt lat="45.8737698" lon="11.5926672"><ele>1171.3333333333333</ele><time>2026-04-26T09:46:02.46Z</time></trkpt><trkpt lat="45.87379" lon="11.5927692"><ele>1173.0</ele><time>2026-04-26T09:46:03.459Z</time></trkpt><trkpt lat="45.8738495" lon="11.5928896"><ele>1173.0</ele><time>2026-04-26T09:46:04.459Z</time></trkpt><trkpt lat="45.8739012" lon="11.5929706"><ele>1173.0</ele><time>2026-04-26T09:46:05.459Z</time></trkpt><trkpt lat="45.8739474" lon="11.5930464"><ele>1173.0</ele><time>2026-04-26T09:46:06.459Z</time></trkpt><trkpt lat="45.8740173" lon="11.5930958"><ele>1173.0</ele><time>2026-04-26T09:46:07.459Z</time></trkpt><trkpt lat="45.8740843" lon="11.5930764"><ele>1173.0</ele><time>2026-04-26T09:46:08.46Z</time></trkpt><trkpt lat="45.8742298" lon="11.5930929"><ele>1173.0</ele><time>2026-04-26T09:46:10.46Z</time></trkpt><trkpt lat="45.8743022" lon="11.5930824"><ele>1173.1666666666667</ele><time>2026-04-26T09:46:11.459Z</time></trkpt><trkpt lat="45.87438" lon="11.5930676"><ele>1173.3333333333333</ele><time>2026-04-26T09:46:12.459Z</time></trkpt><trkpt lat="45.8744545" lon="11.5930836"><ele>1173.5</ele><time>2026-04-26T09:46:13.459Z</time></trkpt><trkpt lat="45.8745231" lon="11.5930847"><ele>1173.6666666666665</ele><time>2026-04-26T09:46:14.459Z</time></trkpt><trkpt lat="45.8745941" lon="11.5931002"><ele>1173.8333333333333</ele><time>2026-04-26T09:46:15.46Z</time></trkpt><trkpt lat="45.8746777" lon="11.5931248"><ele>1174.0</ele><time>2026-04-26T09:46:16.46Z</time></trkpt><trkpt lat="45.8747441" lon="11.5931589"><ele>1174.0</ele><time>2026-04-26T09:46:17.459Z</time></trkpt><trkpt lat="45.8748085" lon="11.5932004"><ele>1174.0</ele><time>2026-04-26T09:46:18.459Z</time></trkpt><trkpt lat="45.8748796" lon="11.5932429"><ele>1174.0</ele><time>2026-04-26T09:46:19.459Z</time></trkpt><trkpt lat="45.8749394" lon="11.5932788"><ele>1174.0</ele><time>2026-04-26T09:46:20.46Z</time></trkpt><trkpt lat="45.8750106" lon="11.5933078"><ele>1174.0</ele><time>2026-04-26T09:46:21.459Z</time></trkpt><trkpt lat="45.8750788" lon="11.5933324"><ele>1174.0</ele><time>2026-04-26T09:46:22.459Z</time></trkpt><trkpt lat="45.8751531" lon="11.5933534"><ele>1174.0</ele><time>2026-04-26T09:46:23.459Z</time></trkpt><trkpt lat="45.8752211" lon="11.5933548"><ele>1175.1666666666665</ele><time>2026-04-26T09:46:24.459Z</time></trkpt><trkpt lat="45.8752865" lon="11.593354"><ele>1176.3333333333333</ele><time>2026-04-26T09:46:25.459Z</time></trkpt><trkpt lat="45.8754056" lon="11.5933478"><ele>1177.5</ele><time>2026-04-26T09:46:27.459Z</time></trkpt><trkpt lat="45.8754898" lon="11.5932922"><ele>1178.6666666666667</ele><time>2026-04-26T09:46:29.459Z</time></trkpt><trkpt lat="45.875541" lon="11.5931952"><ele>1179.8333333333335</ele><time>2026-04-26T09:46:31.459Z</time></trkpt><trkpt lat="45.8755464" lon="11.5930752"><ele>1181.0</ele><time>2026-04-26T09:46:34.46Z</time></trkpt><trkpt lat="45.8755423" lon="11.5929608"><ele>1181.6</ele><time>2026-04-26T09:46:36.459Z</time></trkpt><trkpt lat="45.8755464" lon="11.5928193"><ele>1182.1999999999998</ele><time>2026-04-26T09:46:38.459Z</time></trkpt><trkpt lat="45.8755677" lon="11.5926779"><ele>1182.8000000000002</ele><time>2026-04-26T09:46:40.46Z</time></trkpt><trkpt lat="45.8756433" lon="11.5925827"><ele>1183.4</ele><time>2026-04-26T09:46:42.46Z</time></trkpt><trkpt lat="45.8757279" lon="11.5925131"><ele>1184.0</ele><time>2026-04-26T09:46:44.46Z</time></trkpt><trkpt lat="45.8757918" lon="11.5924838"><ele>1184.0</ele><time>2026-04-26T09:46:46.459Z</time></trkpt><trkpt lat="45.8758806" lon="11.5925224"><ele>1184.0</ele><time>2026-04-26T09:46:48.459Z</time></trkpt><trkpt lat="45.8759998" lon="11.5925223"><ele>1184.0</ele><time>2026-04-26T09:46:50.459Z</time></trkpt><trkpt lat="45.8760961" lon="11.592452"><ele>1184.0</ele><time>2026-04-26T09:46:52.459Z</time></trkpt><trkpt lat="45.8761812" lon="11.5923559"><ele>1184.0</ele><time>2026-04-26T09:46:54.459Z</time></trkpt><trkpt lat="45.8762479" lon="11.592227"><ele>1183.0</ele><time>2026-04-26T09:46:56.46Z</time></trkpt><trkpt lat="45.876315" lon="11.5920877"><ele>1182.0</ele><time>2026-04-26T09:46:58.459Z</time></trkpt><trkpt lat="45.876381" lon="11.5919341"><ele>1181.0</ele><time>2026-04-26T09:47:00.459Z</time></trkpt><trkpt lat="45.8763804" lon="11.5918368"><ele>1180.0</ele><time>2026-04-26T09:47:01.459Z</time></trkpt><trkpt lat="45.8763879" lon="11.5917397"><ele>1179.0</ele><time>2026-04-26T09:47:02.459Z</time></trkpt><trkpt lat="45.876403" lon="11.591633"><ele>1179.0</ele><time>2026-04-26T09:47:03.459Z</time></trkpt><trkpt lat="45.8764297" lon="11.5914691"><ele>1179.0</ele><time>2026-04-26T09:47:04.46Z</time></trkpt><trkpt lat="45.8764407" lon="11.5913506"><ele>1179.0</ele><time>2026-04-26T09:47:05.459Z</time></trkpt><trkpt lat="45.8764361" lon="11.5912364"><ele>1179.0</ele><time>2026-04-26T09:47:06.459Z</time></trkpt><trkpt lat="45.8764423" lon="11.5911099"><ele>1179.0</ele><time>2026-04-26T09:47:07.459Z</time></trkpt><trkpt lat="45.8764062" lon="11.5909642"><ele>1178.5</ele><time>2026-04-26T09:47:08.459Z</time></trkpt><trkpt lat="45.8764035" lon="11.5908358"><ele>1178.0</ele><time>2026-04-26T09:47:09.459Z</time></trkpt><trkpt lat="45.8763806" lon="11.5906669"><ele>1177.5</ele><time>2026-04-26T09:47:11.46Z</time></trkpt><trkpt lat="45.8763455" lon="11.5905128"><ele>1177.0</ele><time>2026-04-26T09:47:12.459Z</time></trkpt><trkpt lat="45.8762838" lon="11.5903134"><ele>1176.0</ele><time>2026-04-26T09:47:13.459Z</time></trkpt><trkpt lat="45.8762476" lon="11.5901217"><ele>1175.0</ele><time>2026-04-26T09:47:14.459Z</time></trkpt><trkpt lat="45.8761909" lon="11.5899307"><ele>1174.0</ele><time>2026-04-26T09:47:15.459Z</time></trkpt><trkpt lat="45.8761639" lon="11.5897288"><ele>1173.0</ele><time>2026-04-26T09:47:16.459Z</time></trkpt><trkpt lat="45.8761296" lon="11.5895278"><ele>1171.8</ele><time>2026-04-26T09:47:17.459Z</time></trkpt><trkpt lat="45.8761155" lon="11.5893806"><ele>1170.6</ele><time>2026-04-26T09:47:18.46Z</time></trkpt><trkpt lat="45.8760887" lon="11.5892101"><ele>1169.4</ele><time>2026-04-26T09:47:19.459Z</time></trkpt><trkpt lat="45.8761028" lon="11.589086"><ele>1168.2</ele><time>2026-04-26T09:47:20.459Z</time></trkpt><trkpt lat="45.8760884" lon="11.5889464"><ele>1167.0</ele><time>2026-04-26T09:47:21.459Z</time></trkpt><trkpt lat="45.8760759" lon="11.5887707"><ele>1164.8</ele><time>2026-04-26T09:47:22.46Z</time></trkpt><trkpt lat="45.8761167" lon="11.5886508"><ele>1162.6</ele><time>2026-04-26T09:47:23.46Z</time></trkpt><trkpt lat="45.8761118" lon="11.5885372"><ele>1160.3999999999999</ele><time>2026-04-26T09:47:24.46Z</time></trkpt><trkpt lat="45.8761113" lon="11.588371"><ele>1158.2</ele><time>2026-04-26T09:47:26.459Z</time></trkpt><trkpt lat="45.8760928" lon="11.5882662"><ele>1156.0</ele><time>2026-04-26T09:47:28.459Z</time></trkpt><trkpt lat="45.8760936" lon="11.5881421"><ele>1156.0</ele><time>2026-04-26T09:47:30.459Z</time></trkpt><trkpt lat="45.8761101" lon="11.5879826"><ele>1156.0</ele><time>2026-04-26T09:47:32.46Z</time></trkpt><trkpt lat="45.8760979" lon="11.5878457"><ele>1156.0</ele><time>2026-04-26T09:47:34.459Z</time></trkpt><trkpt lat="45.8760713" lon="11.5876957"><ele>1156.0</ele><time>2026-04-26T09:47:36.46Z</time></trkpt><trkpt lat="45.8759954" lon="11.5875778"><ele>1156.0</ele><time>2026-04-26T09:47:38.459Z</time></trkpt><trkpt lat="45.8758674" lon="11.5874455"><ele>1158.3999999999999</ele><time>2026-04-26T09:47:40.459Z</time></trkpt><trkpt lat="45.8758104" lon="11.5873791"><ele>1160.8</ele><time>2026-04-26T09:47:41.459Z</time></trkpt><trkpt lat="45.8757409" lon="11.5873229"><ele>1163.1999999999998</ele><time>2026-04-26T09:47:42.46Z</time></trkpt><trkpt lat="45.8756944" lon="11.5872612"><ele>1165.6</ele><time>2026-04-26T09:47:43.459Z</time></trkpt><trkpt lat="45.875784" lon="11.5871587"><ele>1168.0</ele><time>2026-04-26T09:47:44.46Z</time></trkpt><trkpt lat="45.8758789" lon="11.5869421"><ele>1168.0</ele><time>2026-04-26T09:47:46.459Z</time></trkpt><trkpt lat="45.8759214" lon="11.5868516"><ele>1168.0</ele><time>2026-04-26T09:47:47.459Z</time></trkpt><trkpt lat="45.8759189" lon="11.5867353"><ele>1168.0</ele><time>2026-04-26T09:47:48.46Z</time></trkpt><trkpt lat="45.8759567" lon="11.5865822"><ele>1168.0</ele><time>2026-04-26T09:47:50.459Z</time></trkpt><trkpt lat="45.8759589" lon="11.5864708"><ele>1168.0</ele><time>2026-04-26T09:47:53.459Z</time></trkpt><trkpt lat="45.8759259" lon="11.5863426"><ele>1168.0</ele><time>2026-04-26T09:47:55.459Z</time></trkpt><trkpt lat="45.8758972" lon="11.5861792"><ele>1167.8</ele><time>2026-04-26T09:47:57.459Z</time></trkpt><trkpt lat="45.8758535" lon="11.5860808"><ele>1167.6</ele><time>2026-04-26T09:47:58.46Z</time></trkpt><trkpt lat="45.8758114" lon="11.585965"><ele>1167.4</ele><time>2026-04-26T09:48:00.459Z</time></trkpt><trkpt lat="45.8757779" lon="11.5858151"><ele>1167.2</ele><time>2026-04-26T09:48:02.46Z</time></trkpt><trkpt lat="45.8757684" lon="11.5856694"><ele>1167.0</ele><time>2026-04-26T09:48:04.459Z</time></trkpt><trkpt lat="45.8757986" lon="11.5855588"><ele>1167.0</ele><time>2026-04-26T09:48:06.459Z</time></trkpt><trkpt lat="45.8758896" lon="11.5854685"><ele>1167.0</ele><time>2026-04-26T09:48:08.46Z</time></trkpt><trkpt lat="45.8760126" lon="11.5854261"><ele>1167.0</ele><time>2026-04-26T09:48:10.459Z</time></trkpt><trkpt lat="45.8760791" lon="11.585413"><ele>1167.0</ele><time>2026-04-26T09:48:11.459Z</time></trkpt><trkpt lat="45.8761502" lon="11.5853734"><ele>1167.0</ele><time>2026-04-26T09:48:12.459Z</time></trkpt><trkpt lat="45.8762286" lon="11.5853384"><ele>1163.2</ele><time>2026-04-26T09:48:13.46Z</time></trkpt><trkpt lat="45.8763134" lon="11.5852209"><ele>1159.4</ele><time>2026-04-26T09:48:15.459Z</time></trkpt><trkpt lat="45.8763394" lon="11.5850575"><ele>1155.6</ele><time>2026-04-26T09:48:17.459Z</time></trkpt><trkpt lat="45.8763496" lon="11.5849532"><ele>1151.8</ele><time>2026-04-26T09:48:18.46Z</time></trkpt><trkpt lat="45.8763749" lon="11.5848376"><ele>1148.0</ele><time>2026-04-26T09:48:19.459Z</time></trkpt><trkpt lat="45.876403" lon="11.5847172"><ele>1148.0</ele><time>2026-04-26T09:48:20.46Z</time></trkpt><trkpt lat="45.8764338" lon="11.5845922"><ele>1148.0</ele><time>2026-04-26T09:48:21.459Z</time></trkpt><trkpt lat="45.8764393" lon="11.5844547"><ele>1148.0</ele><time>2026-04-26T09:48:22.459Z</time></trkpt><trkpt lat="45.8764501" lon="11.5843159"><ele>1148.0</ele><time>2026-04-26T09:48:23.46Z</time></trkpt><trkpt lat="45.8764567" lon="11.5842008"><ele>1148.0</ele><time>2026-04-26T09:48:24.46Z</time></trkpt><trkpt lat="45.8764791" lon="11.5840785"><ele>1148.3333333333335</ele><time>2026-04-26T09:48:25.459Z</time></trkpt><trkpt lat="45.876487" lon="11.5839683"><ele>1148.6666666666667</ele><time>2026-04-26T09:48:26.459Z</time></trkpt><trkpt lat="45.8764886" lon="11.5838684"><ele>1149.0</ele><time>2026-04-26T09:48:27.459Z</time></trkpt><trkpt lat="45.8764362" lon="11.5836788"><ele>1149.3333333333333</ele><time>2026-04-26T09:48:29.46Z</time></trkpt><trkpt lat="45.8763915" lon="11.5835883"><ele>1149.6666666666665</ele><time>2026-04-26T09:48:30.459Z</time></trkpt><trkpt lat="45.8763451" lon="11.5835046"><ele>1150.0</ele><time>2026-04-26T09:48:31.46Z</time></trkpt><trkpt lat="45.8762826" lon="11.5834466"><ele>1147.6666666666665</ele><time>2026-04-26T09:48:32.459Z</time></trkpt><trkpt lat="45.8762207" lon="11.5833812"><ele>1145.3333333333333</ele><time>2026-04-26T09:48:33.459Z</time></trkpt><trkpt lat="45.8761514" lon="11.5833349"><ele>1143.0</ele><time>2026-04-26T09:48:34.459Z</time></trkpt><trkpt lat="45.876084" lon="11.5832978"><ele>1140.6666666666667</ele><time>2026-04-26T09:48:35.459Z</time></trkpt><trkpt lat="45.8760268" lon="11.583257"><ele>1138.3333333333335</ele><time>2026-04-26T09:48:36.459Z</time></trkpt><trkpt lat="45.875958" lon="11.583162"><ele>1136.0</ele><time>2026-04-26T09:48:38.46Z</time></trkpt><trkpt lat="45.8759022" lon="11.5830427"><ele>1134.0</ele><time>2026-04-26T09:48:40.459Z</time></trkpt><trkpt lat="45.8759078" lon="11.5828963"><ele>1132.0</ele><time>2026-04-26T09:48:42.459Z</time></trkpt><trkpt lat="45.875903" lon="11.5827343"><ele>1130.0</ele><time>2026-04-26T09:48:44.46Z</time></trkpt><trkpt lat="45.8759232" lon="11.5826391"><ele>1128.0</ele><time>2026-04-26T09:48:45.46Z</time></trkpt><trkpt lat="45.8759479" lon="11.5825373"><ele>1126.0</ele><time>2026-04-26T09:48:46.459Z</time></trkpt><trkpt lat="45.8759697" lon="11.5824399"><ele>1124.0</ele><time>2026-04-26T09:48:47.459Z</time></trkpt><trkpt lat="45.8760024" lon="11.5823428"><ele>1124.0</ele><time>2026-04-26T09:48:48.459Z</time></trkpt><trkpt lat="45.8760378" lon="11.5822458"><ele>1124.0</ele><time>2026-04-26T09:48:49.459Z</time></trkpt><trkpt lat="45.8760752" lon="11.5821603"><ele>1124.0</ele><time>2026-04-26T09:48:50.459Z</time></trkpt><trkpt lat="45.8760892" lon="11.5820651"><ele>1124.0</ele><time>2026-04-26T09:48:51.459Z</time></trkpt><trkpt lat="45.8761325" lon="11.5819"><ele>1124.0</ele><time>2026-04-26T09:48:53.459Z</time></trkpt><trkpt lat="45.8761194" lon="11.581809"><ele>1124.0</ele><time>2026-04-26T09:48:54.459Z</time></trkpt><trkpt lat="45.8760761" lon="11.5816887"><ele>1124.6000000000001</ele><time>2026-04-26T09:48:55.459Z</time></trkpt><trkpt lat="45.8760259" lon="11.5815977"><ele>1125.2</ele><time>2026-04-26T09:48:56.459Z</time></trkpt><trkpt lat="45.8759932" lon="11.5815148"><ele>1125.8000000000002</ele><time>2026-04-26T09:48:57.459Z</time></trkpt><trkpt lat="45.8759341" lon="11.5813757"><ele>1126.4</ele><time>2026-04-26T09:48:59.459Z</time></trkpt><trkpt lat="45.8758927" lon="11.5812926"><ele>1127.0</ele><time>2026-04-26T09:49:00.459Z</time></trkpt><trkpt lat="45.8757974" lon="11.5811724"><ele>1134.2</ele><time>2026-04-26T09:49:02.46Z</time></trkpt><trkpt lat="45.8756956" lon="11.5810529"><ele>1141.4</ele><time>2026-04-26T09:49:04.459Z</time></trkpt><trkpt lat="45.8756624" lon="11.5809718"><ele>1148.6</ele><time>2026-04-26T09:49:05.459Z</time></trkpt><trkpt lat="45.8756469" lon="11.5808193"><ele>1155.8</ele><time>2026-04-26T09:49:07.459Z</time></trkpt><trkpt lat="45.8757035" lon="11.580718"><ele>1163.0</ele><time>2026-04-26T09:49:09.459Z</time></trkpt><trkpt lat="45.8757497" lon="11.5806442"><ele>1163.0</ele><time>2026-04-26T09:49:10.46Z</time></trkpt><trkpt lat="45.8757923" lon="11.5805742"><ele>1163.0</ele><time>2026-04-26T09:49:11.459Z</time></trkpt><trkpt lat="45.8758874" lon="11.5804611"><ele>1163.0</ele><time>2026-04-26T09:49:13.459Z</time></trkpt><trkpt lat="45.8759377" lon="11.5803876"><ele>1163.0</ele><time>2026-04-26T09:49:14.459Z</time></trkpt><trkpt lat="45.8759986" lon="11.580222"><ele>1163.0</ele><time>2026-04-26T09:49:16.46Z</time></trkpt><trkpt lat="45.8760348" lon="11.5800449"><ele>1165.1666666666667</ele><time>2026-04-26T09:49:18.46Z</time></trkpt><trkpt lat="45.8760538" lon="11.5799341"><ele>1167.3333333333335</ele><time>2026-04-26T09:49:19.46Z</time></trkpt><trkpt lat="45.8760473" lon="11.5798307"><ele>1169.5</ele><time>2026-04-26T09:49:20.459Z</time></trkpt><trkpt lat="45.8760268" lon="11.5797185"><ele>1171.6666666666667</ele><time>2026-04-26T09:49:21.459Z</time></trkpt><trkpt lat="45.8760041" lon="11.5796159"><ele>1173.8333333333333</ele><time>2026-04-26T09:49:22.459Z</time></trkpt><trkpt lat="45.8759766" lon="11.579511"><ele>1176.0</ele><time>2026-04-26T09:49:23.459Z</time></trkpt><trkpt lat="45.8759158" lon="11.5794068"><ele>1176.0</ele><time>2026-04-26T09:49:24.46Z</time></trkpt><trkpt lat="45.8758761" lon="11.5793307"><ele>1176.0</ele><time>2026-04-26T09:49:25.459Z</time></trkpt><trkpt lat="45.8758313" lon="11.5792444"><ele>1176.0</ele><time>2026-04-26T09:49:26.459Z</time></trkpt><trkpt lat="45.8757905" lon="11.5791018"><ele>1176.0</ele><time>2026-04-26T09:49:28.459Z</time></trkpt><trkpt lat="45.8758425" lon="11.5790195"><ele>1176.0</ele><time>2026-04-26T09:49:30.459Z</time></trkpt><trkpt lat="45.8760372" lon="11.5788527"><ele>1170.0</ele><time>2026-04-26T09:49:32.46Z</time></trkpt><trkpt lat="45.8761295" lon="11.5787795"><ele>1164.0</ele><time>2026-04-26T09:49:33.459Z</time></trkpt><trkpt lat="45.8761949" lon="11.5786766"><ele>1158.0</ele><time>2026-04-26T09:49:34.46Z</time></trkpt><trkpt lat="45.8762437" lon="11.5785891"><ele>1152.0</ele><time>2026-04-26T09:49:35.46Z</time></trkpt><trkpt lat="45.8762738" lon="11.5784933"><ele>1146.0</ele><time>2026-04-26T09:49:36.459Z</time></trkpt><trkpt lat="45.876325" lon="11.5783281"><ele>1146.0</ele><time>2026-04-26T09:49:38.459Z</time></trkpt><trkpt lat="45.8763309" lon="11.578167"><ele>1146.0</ele><time>2026-04-26T09:49:40.459Z</time></trkpt><trkpt lat="45.8763381" lon="11.5780065"><ele>1146.0</ele><time>2026-04-26T09:49:42.459Z</time></trkpt><trkpt lat="45.8763388" lon="11.5778453"><ele>1146.0</ele><time>2026-04-26T09:49:44.459Z</time></trkpt><trkpt lat="45.8763689" lon="11.5777332"><ele>1146.0</ele><time>2026-04-26T09:49:46.459Z</time></trkpt><trkpt lat="45.8764222" lon="11.5776773"><ele>1148.0</ele><time>2026-04-26T09:49:47.459Z</time></trkpt><trkpt lat="45.8765031" lon="11.5776237"><ele>1150.0</ele><time>2026-04-26T09:49:48.46Z</time></trkpt><trkpt lat="45.8765642" lon="11.5775481"><ele>1152.0</ele><time>2026-04-26T09:49:49.46Z</time></trkpt><trkpt lat="45.8766091" lon="11.577456"><ele>1154.0</ele><time>2026-04-26T09:49:50.46Z</time></trkpt><trkpt lat="45.8766528" lon="11.5773564"><ele>1156.0</ele><time>2026-04-26T09:49:51.46Z</time></trkpt><trkpt lat="45.8766955" lon="11.5772596"><ele>1158.0</ele><time>2026-04-26T09:49:52.459Z</time></trkpt><trkpt lat="45.8767354" lon="11.5771659"><ele>1158.0</ele><time>2026-04-26T09:49:53.459Z</time></trkpt><trkpt lat="45.8767645" lon="11.5770837"><ele>1158.0</ele><time>2026-04-26T09:49:54.46Z</time></trkpt></trkseg><trkseg><trkpt lat="45.8795172" lon="11.5737034"><ele>1140.0</ele><time>2026-04-26T09:55:04.457Z</time></trkpt><trkpt lat="45.8796077" lon="11.5736918"><ele>1140.0</ele><time>2026-04-26T09:55:08.457Z</time></trkpt><trkpt lat="45.8796997" lon="11.5736614"><ele>1140.0</ele><time>2026-04-26T09:55:11.458Z</time></trkpt><trkpt lat="45.8797729" lon="11.5736307"><ele>1140.0</ele><time>2026-04-26T09:55:13.457Z</time></trkpt><trkpt lat="45.8798542" lon="11.573599"><ele>1140.0</ele><time>2026-04-26T09:55:15.457Z</time></trkpt><trkpt lat="45.8799343" lon="11.5735764"><ele>1140.0</ele><time>2026-04-26T09:55:17.457Z</time></trkpt><trkpt lat="45.880012" lon="11.5735554"><ele>1140.0</ele><time>2026-04-26T09:55:19.458Z</time></trkpt><trkpt lat="45.880082" lon="11.5735273"><ele>1140.0</ele><time>2026-04-26T09:55:21.457Z</time></trkpt><trkpt lat="45.8801505" lon="11.5734909"><ele>1140.0</ele><time>2026-04-26T09:55:23.458Z</time></trkpt><trkpt lat="45.8802164" lon="11.5734458"><ele>1140.0</ele><time>2026-04-26T09:55:25.458Z</time></trkpt><trkpt lat="45.8802945" lon="11.5734078"><ele>1140.0</ele><time>2026-04-26T09:55:27.457Z</time></trkpt><trkpt lat="45.88036" lon="11.5733493"><ele>1140.0</ele><time>2026-04-26T09:55:29.457Z</time></trkpt><trkpt lat="45.8804069" lon="11.5732599"><ele>1140.0</ele><time>2026-04-26T09:55:31.457Z</time></trkpt><trkpt lat="45.8804397" lon="11.5731501"><ele>1140.0</ele><time>2026-04-26T09:55:33.457Z</time></trkpt><trkpt lat="45.8804663" lon="11.5730298"><ele>1140.0</ele><time>2026-04-26T09:55:35.458Z</time></trkpt><trkpt lat="45.8804406" lon="11.5728928"><ele>1140.0</ele><time>2026-04-26T09:55:37.458Z</time></trkpt><trkpt lat="45.8804182" lon="11.5727468"><ele>1140.0</ele><time>2026-04-26T09:55:39.458Z</time></trkpt><trkpt lat="45.8804371" lon="11.5726005"><ele>1139.5</ele><time>2026-04-26T09:55:41.457Z</time></trkpt><trkpt lat="45.8804616" lon="11.5725145"><ele>1139.0</ele><time>2026-04-26T09:55:42.457Z</time></trkpt><trkpt lat="45.8805139" lon="11.5723609"><ele>1138.5</ele><time>2026-04-26T09:55:44.457Z</time></trkpt><trkpt lat="45.8805298" lon="11.5722732"><ele>1138.0</ele><time>2026-04-26T09:55:45.457Z</time></trkpt><trkpt lat="45.8805408" lon="11.5721084"><ele>1137.5</ele><time>2026-04-26T09:55:47.458Z</time></trkpt><trkpt lat="45.8805275" lon="11.5720041"><ele>1137.0</ele><time>2026-04-26T09:55:48.457Z</time></trkpt><trkpt lat="45.8805317" lon="11.5718226"><ele>1135.4</ele><time>2026-04-26T09:55:50.457Z</time></trkpt><trkpt lat="45.8805359" lon="11.5717321"><ele>1133.8000000000002</ele><time>2026-04-26T09:55:51.457Z</time></trkpt><trkpt lat="45.8805676" lon="11.5715641"><ele>1132.2</ele><time>2026-04-26T09:55:53.458Z</time></trkpt><trkpt lat="45.8806074" lon="11.5714306"><ele>1130.6000000000001</ele><time>2026-04-26T09:55:55.457Z</time></trkpt><trkpt lat="45.8806479" lon="11.5713037"><ele>1129.0</ele><time>2026-04-26T09:55:57.457Z</time></trkpt><trkpt lat="45.8807341" lon="11.5713573"><ele>1129.0</ele><time>2026-04-26T09:55:59.457Z</time></trkpt><trkpt lat="45.8808421" lon="11.5714747"><ele>1129.0</ele><time>2026-04-26T09:56:01.458Z</time></trkpt><trkpt lat="45.8808922" lon="11.5715382"><ele>1129.0</ele><time>2026-04-26T09:56:02.457Z</time></trkpt><trkpt lat="45.8809467" lon="11.5716012"><ele>1129.0</ele><time>2026-04-26T09:56:03.458Z</time></trkpt><trkpt lat="45.8809947" lon="11.5716753"><ele>1129.0</ele><time>2026-04-26T09:56:04.457Z</time></trkpt><trkpt lat="45.8810461" lon="11.571754"><ele>1129.0</ele><time>2026-04-26T09:56:05.457Z</time></trkpt><trkpt lat="45.8810973" lon="11.5718317"><ele>1128.1666666666665</ele><time>2026-04-26T09:56:06.457Z</time></trkpt><trkpt lat="45.8811516" lon="11.5718981"><ele>1127.3333333333333</ele><time>2026-04-26T09:56:07.458Z</time></trkpt><trkpt lat="45.8812122" lon="11.571952"><ele>1126.5</ele><time>2026-04-26T09:56:08.457Z</time></trkpt><trkpt lat="45.8812675" lon="11.5719957"><ele>1125.6666666666667</ele><time>2026-04-26T09:56:09.458Z</time></trkpt><trkpt lat="45.8813392" lon="11.5720401"><ele>1124.8333333333335</ele><time>2026-04-26T09:56:10.458Z</time></trkpt><trkpt lat="45.8814035" lon="11.5720777"><ele>1124.0</ele><time>2026-04-26T09:56:11.457Z</time></trkpt><trkpt lat="45.8815273" lon="11.5720951"><ele>1124.0</ele><time>2026-04-26T09:56:13.457Z</time></trkpt><trkpt lat="45.8815909" lon="11.5721006"><ele>1124.0</ele><time>2026-04-26T09:56:14.458Z</time></trkpt><trkpt lat="45.881659" lon="11.5720937"><ele>1124.0</ele><time>2026-04-26T09:56:15.457Z</time></trkpt><trkpt lat="45.88172" lon="11.5720617"><ele>1124.0</ele><time>2026-04-26T09:56:16.457Z</time></trkpt><trkpt lat="45.8817901" lon="11.5720255"><ele>1124.0</ele><time>2026-04-26T09:56:17.458Z</time></trkpt><trkpt lat="45.8818578" lon="11.571998"><ele>1124.0</ele><time>2026-04-26T09:56:18.457Z</time></trkpt><trkpt lat="45.8819712" lon="11.5719041"><ele>1122.1666666666667</ele><time>2026-04-26T09:56:20.458Z</time></trkpt><trkpt lat="45.8820293" lon="11.5718539"><ele>1120.3333333333335</ele><time>2026-04-26T09:56:21.458Z</time></trkpt><trkpt lat="45.8820848" lon="11.5718047"><ele>1118.5</ele><time>2026-04-26T09:56:22.457Z</time></trkpt><trkpt lat="45.8821553" lon="11.5717663"><ele>1116.6666666666667</ele><time>2026-04-26T09:56:23.457Z</time></trkpt><trkpt lat="45.8822126" lon="11.5717167"><ele>1114.8333333333333</ele><time>2026-04-26T09:56:24.457Z</time></trkpt><trkpt lat="45.8823324" lon="11.571668"><ele>1113.0</ele><time>2026-04-26T09:56:26.457Z</time></trkpt><trkpt lat="45.8824031" lon="11.5716928"><ele>1113.0</ele><time>2026-04-26T09:56:27.457Z</time></trkpt><trkpt lat="45.8825005" lon="11.5717762"><ele>1113.0</ele><time>2026-04-26T09:56:29.457Z</time></trkpt><trkpt lat="45.8825572" lon="11.5718256"><ele>1113.0</ele><time>2026-04-26T09:56:30.457Z</time></trkpt><trkpt lat="45.8826194" lon="11.5719521"><ele>1113.0</ele><time>2026-04-26T09:56:32.457Z</time></trkpt><trkpt lat="45.8826468" lon="11.5720361"><ele>1113.0</ele><time>2026-04-26T09:56:33.457Z</time></trkpt><trkpt lat="45.8826659" lon="11.5721288"><ele>1113.0</ele><time>2026-04-26T09:56:34.457Z</time></trkpt><trkpt lat="45.8826652" lon="11.572326"><ele>1109.3333333333333</ele><time>2026-04-26T09:56:36.458Z</time></trkpt><trkpt lat="45.8826566" lon="11.5724341"><ele>1105.6666666666667</ele><time>2026-04-26T09:56:37.458Z</time></trkpt><trkpt lat="45.8826403" lon="11.5725318"><ele>1102.0</ele><time>2026-04-26T09:56:38.457Z</time></trkpt><trkpt lat="45.882674" lon="11.5726517"><ele>1098.3333333333335</ele><time>2026-04-26T09:56:39.457Z</time></trkpt><trkpt lat="45.8827024" lon="11.5727472"><ele>1094.6666666666667</ele><time>2026-04-26T09:56:40.458Z</time></trkpt><trkpt lat="45.8827262" lon="11.572855"><ele>1091.0</ele><time>2026-04-26T09:56:41.457Z</time></trkpt><trkpt lat="45.8827611" lon="11.5729677"><ele>1091.0</ele><time>2026-04-26T09:56:42.457Z</time></trkpt><trkpt lat="45.8827909" lon="11.5730737"><ele>1091.0</ele><time>2026-04-26T09:56:43.457Z</time></trkpt><trkpt lat="45.8828184" lon="11.5731811"><ele>1091.0</ele><time>2026-04-26T09:56:44.457Z</time></trkpt><trkpt lat="45.8828579" lon="11.5732821"><ele>1091.0</ele><time>2026-04-26T09:56:45.457Z</time></trkpt><trkpt lat="45.8828964" lon="11.5733926"><ele>1091.0</ele><time>2026-04-26T09:56:46.457Z</time></trkpt><trkpt lat="45.8829284" lon="11.5734876"><ele>1091.0</ele><time>2026-04-26T09:56:47.457Z</time></trkpt><trkpt lat="45.8829782" lon="11.5735745"><ele>1091.8</ele><time>2026-04-26T09:56:48.457Z</time></trkpt><trkpt lat="45.8830688" lon="11.5737063"><ele>1092.6</ele><time>2026-04-26T09:56:50.457Z</time></trkpt><trkpt lat="45.8831148" lon="11.5737707"><ele>1093.4</ele><time>2026-04-26T09:56:51.457Z</time></trkpt><trkpt lat="45.883202" lon="11.5738786"><ele>1094.2</ele><time>2026-04-26T09:56:54.457Z</time></trkpt><trkpt lat="45.8832592" lon="11.5740085"><ele>1095.0</ele><time>2026-04-26T09:56:56.457Z</time></trkpt><trkpt lat="45.8832938" lon="11.5741429"><ele>1095.0</ele><time>2026-04-26T09:56:58.457Z</time></trkpt><trkpt lat="45.8833264" lon="11.5742577"><ele>1095.0</ele><time>2026-04-26T09:56:59.458Z</time></trkpt><trkpt lat="45.8833718" lon="11.5744411"><ele>1095.0</ele><time>2026-04-26T09:57:01.457Z</time></trkpt><trkpt lat="45.8834295" lon="11.574568"><ele>1095.0</ele><time>2026-04-26T09:57:03.458Z</time></trkpt><trkpt lat="45.8834209" lon="11.5746604"><ele>1095.0</ele><time>2026-04-26T09:57:04.458Z</time></trkpt><trkpt lat="45.8834597" lon="11.5747415"><ele>1088.0</ele><time>2026-04-26T09:57:06.457Z</time></trkpt><trkpt lat="45.8834923" lon="11.5745892"><ele>1081.0</ele><time>2026-04-26T09:57:10.457Z</time></trkpt><trkpt lat="45.8834656" lon="11.5744693"><ele>1074.0</ele><time>2026-04-26T09:57:12.457Z</time></trkpt><trkpt lat="45.8834864" lon="11.5743084"><ele>1067.0</ele><time>2026-04-26T09:57:14.458Z</time></trkpt><trkpt lat="45.8834911" lon="11.5741306"><ele>1060.0</ele><time>2026-04-26T09:57:16.458Z</time></trkpt><trkpt lat="45.8835009" lon="11.5740403"><ele>1059.1666666666665</ele><time>2026-04-26T09:57:17.457Z</time></trkpt><trkpt lat="45.8834958" lon="11.5739493"><ele>1058.3333333333333</ele><time>2026-04-26T09:57:18.457Z</time></trkpt><trkpt lat="45.8834886" lon="11.5738153"><ele>1057.5</ele><time>2026-04-26T09:57:19.457Z</time></trkpt><trkpt lat="45.8834937" lon="11.5737059"><ele>1056.6666666666667</ele><time>2026-04-26T09:57:20.457Z</time></trkpt><trkpt lat="45.8834663" lon="11.5735772"><ele>1055.8333333333335</ele><time>2026-04-26T09:57:22.458Z</time></trkpt><trkpt lat="45.8834414" lon="11.5734869"><ele>1055.0</ele><time>2026-04-26T09:57:24.458Z</time></trkpt><trkpt lat="45.8834326" lon="11.5733811"><ele>1054.8333333333335</ele><time>2026-04-26T09:57:27.457Z</time></trkpt><trkpt lat="45.8834233" lon="11.5732729"><ele>1054.6666666666667</ele><time>2026-04-26T09:57:31.458Z</time></trkpt><trkpt lat="45.8834128" lon="11.5731615"><ele>1054.5</ele><time>2026-04-26T09:57:35.457Z</time></trkpt><trkpt lat="45.8834153" lon="11.5730687"><ele>1054.3333333333333</ele><time>2026-04-26T09:57:37.457Z</time></trkpt><trkpt lat="45.8834443" lon="11.5729323"><ele>1054.1666666666665</ele><time>2026-04-26T09:57:39.457Z</time></trkpt><trkpt lat="45.8834704" lon="11.572816"><ele>1054.0</ele><time>2026-04-26T09:57:40.458Z</time></trkpt><trkpt lat="45.8835144" lon="11.5726686"><ele>1054.0</ele><time>2026-04-26T09:57:42.457Z</time></trkpt><trkpt lat="45.8835429" lon="11.5725288"><ele>1054.0</ele><time>2026-04-26T09:57:44.457Z</time></trkpt><trkpt lat="45.8835732" lon="11.572385"><ele>1054.0</ele><time>2026-04-26T09:57:46.457Z</time></trkpt><trkpt lat="45.8836001" lon="11.5722493"><ele>1054.0</ele><time>2026-04-26T09:57:48.457Z</time></trkpt><trkpt lat="45.8836239" lon="11.5720922"><ele>1054.0</ele><time>2026-04-26T09:57:50.457Z</time></trkpt><trkpt lat="45.8836618" lon="11.5719371"><ele>1054.1666666666665</ele><time>2026-04-26T09:57:52.458Z</time></trkpt><trkpt lat="45.8836796" lon="11.5718432"><ele>1054.3333333333333</ele><time>2026-04-26T09:57:53.457Z</time></trkpt><trkpt lat="45.8837108" lon="11.5716932"><ele>1054.5</ele><time>2026-04-26T09:57:55.457Z</time></trkpt><trkpt lat="45.8837229" lon="11.5715797"><ele>1054.6666666666667</ele><time>2026-04-26T09:57:56.457Z</time></trkpt><trkpt lat="45.8837406" lon="11.5714596"><ele>1054.8333333333335</ele><time>2026-04-26T09:57:57.458Z</time></trkpt><trkpt lat="45.8837495" lon="11.5713541"><ele>1055.0</ele><time>2026-04-26T09:57:58.457Z</time></trkpt><trkpt lat="45.8837737" lon="11.5712521"><ele>1055.8333333333335</ele><time>2026-04-26T09:57:59.458Z</time></trkpt><trkpt lat="45.8838031" lon="11.5711434"><ele>1056.6666666666667</ele><time>2026-04-26T09:58:00.458Z</time></trkpt><trkpt lat="45.8838222" lon="11.5710541"><ele>1057.5</ele><time>2026-04-26T09:58:01.457Z</time></trkpt><trkpt lat="45.8838385" lon="11.570942"><ele>1058.3333333333333</ele><time>2026-04-26T09:58:02.457Z</time></trkpt><trkpt lat="45.8838504" lon="11.5708429"><ele>1059.1666666666665</ele><time>2026-04-26T09:58:03.457Z</time></trkpt><trkpt lat="45.8838908" lon="11.570724"><ele>1060.0</ele><time>2026-04-26T09:58:04.457Z</time></trkpt><trkpt lat="45.8839097" lon="11.5705953"><ele>1060.0</ele><time>2026-04-26T09:58:05.457Z</time></trkpt><trkpt lat="45.8839245" lon="11.570486"><ele>1060.0</ele><time>2026-04-26T09:58:06.458Z</time></trkpt><trkpt lat="45.8839411" lon="11.5703804"><ele>1060.0</ele><time>2026-04-26T09:58:07.457Z</time></trkpt><trkpt lat="45.8839522" lon="11.5702603"><ele>1060.0</ele><time>2026-04-26T09:58:08.458Z</time></trkpt><trkpt lat="45.8839693" lon="11.5701553"><ele>1060.0</ele><time>2026-04-26T09:58:09.457Z</time></trkpt><trkpt lat="45.8839874" lon="11.5700433"><ele>1060.0</ele><time>2026-04-26T09:58:10.457Z</time></trkpt><trkpt lat="45.8840008" lon="11.5699421"><ele>1060.1666666666665</ele><time>2026-04-26T09:58:11.457Z</time></trkpt><trkpt lat="45.8840172" lon="11.5698272"><ele>1060.3333333333333</ele><time>2026-04-26T09:58:12.457Z</time></trkpt><trkpt lat="45.8840275" lon="11.5697147"><ele>1060.5</ele><time>2026-04-26T09:58:13.457Z</time></trkpt><trkpt lat="45.884038" lon="11.5696119"><ele>1060.6666666666667</ele><time>2026-04-26T09:58:14.457Z</time></trkpt><trkpt lat="45.8840454" lon="11.5694649"><ele>1060.8333333333335</ele><time>2026-04-26T09:58:16.457Z</time></trkpt><trkpt lat="45.884074" lon="11.5693307"><ele>1061.0</ele><time>2026-04-26T09:58:18.457Z</time></trkpt><trkpt lat="45.8841135" lon="11.5692199"><ele>1061.0</ele><time>2026-04-26T09:58:20.457Z</time></trkpt><trkpt lat="45.8841622" lon="11.569102"><ele>1061.0</ele><time>2026-04-26T09:58:22.458Z</time></trkpt><trkpt lat="45.8842365" lon="11.5690138"><ele>1061.0</ele><time>2026-04-26T09:58:24.457Z</time></trkpt><trkpt lat="45.8843188" lon="11.5689287"><ele>1061.0</ele><time>2026-04-26T09:58:26.458Z</time></trkpt><trkpt lat="45.8843723" lon="11.5688055"><ele>1061.0</ele><time>2026-04-26T09:58:28.457Z</time></trkpt><trkpt lat="45.8843005" lon="11.5687199"><ele>1061.0</ele><time>2026-04-26T09:58:30.458Z</time></trkpt><trkpt lat="45.8841968" lon="11.568663"><ele>1061.0</ele><time>2026-04-26T09:58:32.457Z</time></trkpt><trkpt lat="45.8840847" lon="11.5687245"><ele>1061.0</ele><time>2026-04-26T09:58:34.457Z</time></trkpt><trkpt lat="45.8840134" lon="11.5687761"><ele>1061.0</ele><time>2026-04-26T09:58:35.457Z</time></trkpt><trkpt lat="45.8839484" lon="11.5688186"><ele>1061.0</ele><time>2026-04-26T09:58:36.457Z</time></trkpt><trkpt lat="45.8838722" lon="11.5688426"><ele>1061.0</ele><time>2026-04-26T09:58:37.458Z</time></trkpt><trkpt lat="45.8838046" lon="11.5688482"><ele>1061.0</ele><time>2026-04-26T09:58:38.458Z</time></trkpt><trkpt lat="45.8836964" lon="11.5687983"><ele>1061.0</ele><time>2026-04-26T09:58:40.457Z</time></trkpt><trkpt lat="45.8836071" lon="11.5687244"><ele>1061.0</ele><time>2026-04-26T09:58:42.457Z</time></trkpt><trkpt lat="45.8835657" lon="11.5686224"><ele>1061.0</ele><time>2026-04-26T09:58:43.457Z</time></trkpt><trkpt lat="45.8834932" lon="11.5685342"><ele>1059.0</ele><time>2026-04-26T09:58:44.457Z</time></trkpt><trkpt lat="45.8834274" lon="11.5684859"><ele>1057.0</ele><time>2026-04-26T09:58:45.457Z</time></trkpt><trkpt lat="45.8833567" lon="11.5684191"><ele>1055.0</ele><time>2026-04-26T09:58:46.457Z</time></trkpt><trkpt lat="45.8832706" lon="11.5683436"><ele>1053.0</ele><time>2026-04-26T09:58:48.457Z</time></trkpt><trkpt lat="45.8832042" lon="11.5683099"><ele>1051.0</ele><time>2026-04-26T09:58:50.457Z</time></trkpt><trkpt lat="45.883072" lon="11.5682908"><ele>1051.0</ele><time>2026-04-26T09:58:52.457Z</time></trkpt><trkpt lat="45.8829472" lon="11.5683"><ele>1051.0</ele><time>2026-04-26T09:58:54.457Z</time></trkpt><trkpt lat="45.882885" lon="11.5682803"><ele>1051.0</ele><time>2026-04-26T09:58:55.457Z</time></trkpt><trkpt lat="45.8828046" lon="11.5682483"><ele>1051.0</ele><time>2026-04-26T09:58:56.457Z</time></trkpt><trkpt lat="45.8827391" lon="11.5682348"><ele>1051.0</ele><time>2026-04-26T09:58:57.457Z</time></trkpt><trkpt lat="45.8825785" lon="11.5681927"><ele>1051.3333333333333</ele><time>2026-04-26T09:58:59.457Z</time></trkpt><trkpt lat="45.8824933" lon="11.5682066"><ele>1051.6666666666665</ele><time>2026-04-26T09:59:00.458Z</time></trkpt><trkpt lat="45.8824132" lon="11.5682034"><ele>1052.0</ele><time>2026-04-26T09:59:01.458Z</time></trkpt><trkpt lat="45.8823465" lon="11.5682119"><ele>1052.3333333333333</ele><time>2026-04-26T09:59:02.457Z</time></trkpt><trkpt lat="45.8822012" lon="11.5682223"><ele>1052.6666666666667</ele><time>2026-04-26T09:59:04.457Z</time></trkpt><trkpt lat="45.882136" lon="11.5682093"><ele>1053.0</ele><time>2026-04-26T09:59:05.457Z</time></trkpt><trkpt lat="45.8820481" lon="11.5681549"><ele>1053.0</ele><time>2026-04-26T09:59:06.457Z</time></trkpt><trkpt lat="45.8819731" lon="11.5681443"><ele>1053.0</ele><time>2026-04-26T09:59:07.457Z</time></trkpt><trkpt lat="45.8818927" lon="11.5681377"><ele>1053.0</ele><time>2026-04-26T09:59:08.457Z</time></trkpt><trkpt lat="45.8818117" lon="11.5681689"><ele>1053.0</ele><time>2026-04-26T09:59:09.457Z</time></trkpt><trkpt lat="45.8817267" lon="11.5681695"><ele>1053.0</ele><time>2026-04-26T09:59:10.458Z</time></trkpt><trkpt lat="45.8816293" lon="11.5681848"><ele>1053.0</ele><time>2026-04-26T09:59:11.457Z</time></trkpt><trkpt lat="45.8815421" lon="11.5681619"><ele>1052.6666666666667</ele><time>2026-04-26T09:59:12.458Z</time></trkpt><trkpt lat="45.8814456" lon="11.5681456"><ele>1052.3333333333333</ele><time>2026-04-26T09:59:13.457Z</time></trkpt><trkpt lat="45.8813681" lon="11.5681531"><ele>1052.0</ele><time>2026-04-26T09:59:14.457Z</time></trkpt><trkpt lat="45.8812994" lon="11.5681552"><ele>1051.6666666666665</ele><time>2026-04-26T09:59:15.457Z</time></trkpt><trkpt lat="45.8812187" lon="11.5681208"><ele>1051.3333333333333</ele><time>2026-04-26T09:59:16.458Z</time></trkpt><trkpt lat="45.8811438" lon="11.5680962"><ele>1051.0</ele><time>2026-04-26T09:59:17.457Z</time></trkpt><trkpt lat="45.8810514" lon="11.567998"><ele>1051.0</ele><time>2026-04-26T09:59:19.457Z</time></trkpt><trkpt lat="45.8809802" lon="11.5679179"><ele>1051.0</ele><time>2026-04-26T09:59:21.457Z</time></trkpt><trkpt lat="45.8809952" lon="11.5678118"><ele>1051.0</ele><time>2026-04-26T09:59:23.457Z</time></trkpt><trkpt lat="45.8810561" lon="11.5677412"><ele>1051.0</ele><time>2026-04-26T09:59:25.457Z</time></trkpt><trkpt lat="45.8811273" lon="11.5677118"><ele>1051.0</ele><time>2026-04-26T09:59:26.458Z</time></trkpt><trkpt lat="45.8811884" lon="11.567674"><ele>1051.0</ele><time>2026-04-26T09:59:27.458Z</time></trkpt><trkpt lat="45.8812525" lon="11.5676118"><ele>1048.3999999999999</ele><time>2026-04-26T09:59:28.457Z</time></trkpt><trkpt lat="45.8813593" lon="11.5674873"><ele>1045.8</ele><time>2026-04-26T09:59:30.457Z</time></trkpt><trkpt lat="45.8814291" lon="11.5673835"><ele>1043.1999999999998</ele><time>2026-04-26T09:59:31.458Z</time></trkpt><trkpt lat="45.8815062" lon="11.5672859"><ele>1040.6</ele><time>2026-04-26T09:59:32.458Z</time></trkpt><trkpt lat="45.8815662" lon="11.5671736"><ele>1038.0</ele><time>2026-04-26T09:59:33.457Z</time></trkpt><trkpt lat="45.8816303" lon="11.5670799"><ele>1037.8</ele><time>2026-04-26T09:59:34.457Z</time></trkpt><trkpt lat="45.8816765" lon="11.5669959"><ele>1037.6</ele><time>2026-04-26T09:59:35.457Z</time></trkpt><trkpt lat="45.8817368" lon="11.5669354"><ele>1037.4</ele><time>2026-04-26T09:59:36.457Z</time></trkpt><trkpt lat="45.8818283" lon="11.5668428"><ele>1037.2</ele><time>2026-04-26T09:59:37.457Z</time></trkpt><trkpt lat="45.8819411" lon="11.5667824"><ele>1037.0</ele><time>2026-04-26T09:59:39.457Z</time></trkpt><trkpt lat="45.8820303" lon="11.5667417"><ele>1037.0</ele><time>2026-04-26T09:59:40.458Z</time></trkpt><trkpt lat="45.8821096" lon="11.5666975"><ele>1037.0</ele><time>2026-04-26T09:59:41.457Z</time></trkpt><trkpt lat="45.8822007" lon="11.5666541"><ele>1037.0</ele><time>2026-04-26T09:59:42.457Z</time></trkpt><trkpt lat="45.8823019" lon="11.5666163"><ele>1037.0</ele><time>2026-04-26T09:59:43.457Z</time></trkpt><trkpt lat="45.882383" lon="11.5665893"><ele>1037.0</ele><time>2026-04-26T09:59:44.457Z</time></trkpt><trkpt lat="45.8825012" lon="11.5665521"><ele>1037.0</ele><time>2026-04-26T09:59:45.457Z</time></trkpt><trkpt lat="45.8825813" lon="11.5665364"><ele>1037.0</ele><time>2026-04-26T09:59:46.457Z</time></trkpt><trkpt lat="45.8826547" lon="11.5664975"><ele>1037.0</ele><time>2026-04-26T09:59:47.458Z</time></trkpt><trkpt lat="45.8827527" lon="11.5664649"><ele>1037.0</ele><time>2026-04-26T09:59:48.458Z</time></trkpt><trkpt lat="45.8828381" lon="11.5664427"><ele>1037.0</ele><time>2026-04-26T09:59:49.457Z</time></trkpt><trkpt lat="45.882941" lon="11.5664083"><ele>1030.5</ele><time>2026-04-26T09:59:50.457Z</time></trkpt><trkpt lat="45.8830142" lon="11.5663416"><ele>1024.0</ele><time>2026-04-26T09:59:51.457Z</time></trkpt><trkpt lat="45.8831158" lon="11.5662441"><ele>1017.5</ele><time>2026-04-26T09:59:53.457Z</time></trkpt><trkpt lat="45.8832056" lon="11.5661125"><ele>1011.0</ele><time>2026-04-26T09:59:55.457Z</time></trkpt><trkpt lat="45.8832684" lon="11.5659735"><ele>1011.0</ele><time>2026-04-26T09:59:57.457Z</time></trkpt><trkpt lat="45.8832591" lon="11.5658838"><ele>1011.0</ele><time>2026-04-26T09:59:58.457Z</time></trkpt><trkpt lat="45.8832038" lon="11.5657545"><ele>1011.0</ele><time>2026-04-26T09:59:59.457Z</time></trkpt><trkpt lat="45.8831757" lon="11.5656164"><ele>1011.0</ele><time>2026-04-26T10:00:00.457Z</time></trkpt><trkpt lat="45.8831171" lon="11.5655053"><ele>1011.0</ele><time>2026-04-26T10:00:01.457Z</time></trkpt><trkpt lat="45.8830924" lon="11.5653965"><ele>1011.0</ele><time>2026-04-26T10:00:02.458Z</time></trkpt><trkpt lat="45.8830636" lon="11.5652886"><ele>1016.25</ele><time>2026-04-26T10:00:03.458Z</time></trkpt><trkpt lat="45.8830307" lon="11.5651958"><ele>1021.5</ele><time>2026-04-26T10:00:04.458Z</time></trkpt><trkpt lat="45.8830036" lon="11.5651006"><ele>1026.75</ele><time>2026-04-26T10:00:06.457Z</time></trkpt><trkpt lat="45.8832425" lon="11.5650926"><ele>1032.0</ele><time>2026-04-26T10:00:14.457Z</time></trkpt><trkpt lat="45.8833446" lon="11.5651139"><ele>1029.8</ele><time>2026-04-26T10:00:16.457Z</time></trkpt><trkpt lat="45.8834436" lon="11.5651657"><ele>1027.6</ele><time>2026-04-26T10:00:18.457Z</time></trkpt><trkpt lat="45.8835672" lon="11.5651987"><ele>1025.3999999999999</ele><time>2026-04-26T10:00:21.457Z</time></trkpt><trkpt lat="45.8836648" lon="11.5652296"><ele>1023.1999999999999</ele><time>2026-04-26T10:00:23.458Z</time></trkpt><trkpt lat="45.883752" lon="11.5652472"><ele>1021.0</ele><time>2026-04-26T10:00:25.458Z</time></trkpt><trkpt lat="45.8838319" lon="11.5652255"><ele>1021.0</ele><time>2026-04-26T10:00:27.457Z</time></trkpt><trkpt lat="45.8839148" lon="11.5652609"><ele>1020.9999999999999</ele><time>2026-04-26T10:00:29.457Z</time></trkpt><trkpt lat="45.8839956" lon="11.5652788"><ele>1020.9999999999999</ele><time>2026-04-26T10:00:31.457Z</time></trkpt><trkpt lat="45.8840847" lon="11.565356"><ele>1021.0</ele><time>2026-04-26T10:00:34.457Z</time></trkpt><trkpt lat="45.8841646" lon="11.5653456"><ele>1021.0</ele><time>2026-04-26T10:00:36.457Z</time></trkpt><trkpt lat="45.884259" lon="11.5652987"><ele>1015.5999999999999</ele><time>2026-04-26T10:00:38.457Z</time></trkpt><trkpt lat="45.8843367" lon="11.5652858"><ele>1010.1999999999999</ele><time>2026-04-26T10:00:41.457Z</time></trkpt><trkpt lat="45.8844224" lon="11.5652276"><ele>1004.8000000000001</ele><time>2026-04-26T10:00:42.457Z</time></trkpt><trkpt lat="45.8845062" lon="11.5651407"><ele>999.4000000000001</ele><time>2026-04-26T10:00:43.457Z</time></trkpt><trkpt lat="45.884596" lon="11.5650438"><ele>994.0</ele><time>2026-04-26T10:00:44.457Z</time></trkpt><trkpt lat="45.8846605" lon="11.5649588"><ele>993.9999999999999</ele><time>2026-04-26T10:00:45.457Z</time></trkpt><trkpt lat="45.8847089" lon="11.5648956"><ele>994.0</ele><time>2026-04-26T10:00:46.457Z</time></trkpt><trkpt lat="45.8847633" lon="11.5648232"><ele>994.0</ele><time>2026-04-26T10:00:47.457Z</time></trkpt><trkpt lat="45.8848122" lon="11.5647419"><ele>994.0</ele><time>2026-04-26T10:00:48.457Z</time></trkpt><trkpt lat="45.8848514" lon="11.5646595"><ele>993.9999999999999</ele><time>2026-04-26T10:00:49.457Z</time></trkpt><trkpt lat="45.8849252" lon="11.564549"><ele>994.0</ele><time>2026-04-26T10:00:51.457Z</time></trkpt><trkpt lat="45.8850213" lon="11.5645542"><ele>993.9999999999999</ele><time>2026-04-26T10:00:53.457Z</time></trkpt><trkpt lat="45.885081" lon="11.5645924"><ele>994.0</ele><time>2026-04-26T10:00:54.457Z</time></trkpt><trkpt lat="45.885146" lon="11.5646724"><ele>994.0</ele><time>2026-04-26T10:00:55.458Z</time></trkpt><trkpt lat="45.8852119" lon="11.5647665"><ele>994.0</ele><time>2026-04-26T10:00:56.457Z</time></trkpt><trkpt lat="45.8852698" lon="11.5648455"><ele>993.9999999999999</ele><time>2026-04-26T10:00:57.458Z</time></trkpt><trkpt lat="45.885363" lon="11.5649393"><ele>994.0</ele><time>2026-04-26T10:00:59.457Z</time></trkpt><trkpt lat="45.8854437" lon="11.5649945"><ele>994.4000000000001</ele><time>2026-04-26T10:01:01.457Z</time></trkpt><trkpt lat="45.8855248" lon="11.5650688"><ele>994.8000000000001</ele><time>2026-04-26T10:01:02.458Z</time></trkpt><trkpt lat="45.8856549" lon="11.5651051"><ele>995.1999999999999</ele><time>2026-04-26T10:01:03.458Z</time></trkpt><trkpt lat="45.8857433" lon="11.565159"><ele>995.5999999999999</ele><time>2026-04-26T10:01:04.457Z</time></trkpt><trkpt lat="45.8858467" lon="11.5652549"><ele>996.0</ele><time>2026-04-26T10:01:05.457Z</time></trkpt><trkpt lat="45.8859399" lon="11.5653042"><ele>993.5999999999999</ele><time>2026-04-26T10:01:06.457Z</time></trkpt><trkpt lat="45.886039" lon="11.5653259"><ele>991.1999999999999</ele><time>2026-04-26T10:01:07.457Z</time></trkpt><trkpt lat="45.8861492" lon="11.5653514"><ele>988.8000000000001</ele><time>2026-04-26T10:01:08.457Z</time></trkpt><trkpt lat="45.8862342" lon="11.5653854"><ele>986.4000000000001</ele><time>2026-04-26T10:01:09.458Z</time></trkpt><trkpt lat="45.886317" lon="11.5654366"><ele>984.0</ele><time>2026-04-26T10:01:10.457Z</time></trkpt><trkpt lat="45.8864049" lon="11.5654699"><ele>978.8333333333334</ele><time>2026-04-26T10:01:11.457Z</time></trkpt><trkpt lat="45.8864852" lon="11.5654941"><ele>973.6666666666667</ele><time>2026-04-26T10:01:12.457Z</time></trkpt><trkpt lat="45.8865853" lon="11.5655368"><ele>968.5</ele><time>2026-04-26T10:01:13.458Z</time></trkpt><trkpt lat="45.8866516" lon="11.5655546"><ele>963.3333333333334</ele><time>2026-04-26T10:01:14.458Z</time></trkpt><trkpt lat="45.8867411" lon="11.5655099"><ele>958.1666666666667</ele><time>2026-04-26T10:01:15.457Z</time></trkpt><trkpt lat="45.8868303" lon="11.5654809"><ele>953.0</ele><time>2026-04-26T10:01:16.457Z</time></trkpt><trkpt lat="45.8869" lon="11.5654585"><ele>952.6666666666667</ele><time>2026-04-26T10:01:17.457Z</time></trkpt><trkpt lat="45.8869898" lon="11.5653647"><ele>952.3333333333334</ele><time>2026-04-26T10:01:19.457Z</time></trkpt><trkpt lat="45.8870504" lon="11.5652679"><ele>952.0</ele><time>2026-04-26T10:01:20.458Z</time></trkpt><trkpt lat="45.8870873" lon="11.5651762"><ele>951.6666666666667</ele><time>2026-04-26T10:01:21.458Z</time></trkpt><trkpt lat="45.887134" lon="11.5650748"><ele>951.3333333333334</ele><time>2026-04-26T10:01:22.458Z</time></trkpt><trkpt lat="45.8871648" lon="11.5649683"><ele>951.0</ele><time>2026-04-26T10:01:23.458Z</time></trkpt><trkpt lat="45.8872006" lon="11.5648535"><ele>951.0</ele><time>2026-04-26T10:01:24.457Z</time></trkpt><trkpt lat="45.8872159" lon="11.5647202"><ele>951.0</ele><time>2026-04-26T10:01:25.457Z</time></trkpt><trkpt lat="45.8872356" lon="11.5646202"><ele>951.0</ele><time>2026-04-26T10:01:26.458Z</time></trkpt><trkpt lat="45.8872509" lon="11.5645286"><ele>951.0</ele><time>2026-04-26T10:01:27.458Z</time></trkpt><trkpt lat="45.8872689" lon="11.5643913"><ele>951.0</ele><time>2026-04-26T10:01:28.457Z</time></trkpt><trkpt lat="45.8872947" lon="11.5642543"><ele>951.0</ele><time>2026-04-26T10:01:29.457Z</time></trkpt><trkpt lat="45.8873501" lon="11.5641086"><ele>952.8</ele><time>2026-04-26T10:01:30.457Z</time></trkpt><trkpt lat="45.887401" lon="11.5639724"><ele>954.5999999999999</ele><time>2026-04-26T10:01:31.457Z</time></trkpt><trkpt lat="45.8874491" lon="11.563851"><ele>956.4</ele><time>2026-04-26T10:01:32.458Z</time></trkpt><trkpt lat="45.887518" lon="11.5637483"><ele>958.2</ele><time>2026-04-26T10:01:33.458Z</time></trkpt><trkpt lat="45.887567" lon="11.5636586"><ele>960.0</ele><time>2026-04-26T10:01:34.457Z</time></trkpt><trkpt lat="45.8875513" lon="11.5635528"><ele>961.6666666666666</ele><time>2026-04-26T10:01:35.458Z</time></trkpt><trkpt lat="45.8875607" lon="11.5634488"><ele>963.3333333333333</ele><time>2026-04-26T10:01:36.457Z</time></trkpt><trkpt lat="45.887577" lon="11.5633528"><ele>965.0</ele><time>2026-04-26T10:01:37.458Z</time></trkpt><trkpt lat="45.8875989" lon="11.5632618"><ele>966.6666666666666</ele><time>2026-04-26T10:01:38.457Z</time></trkpt><trkpt lat="45.8876061" lon="11.5631602"><ele>968.3333333333333</ele><time>2026-04-26T10:01:39.458Z</time></trkpt><trkpt lat="45.8876342" lon="11.5630665"><ele>970.0</ele><time>2026-04-26T10:01:40.458Z</time></trkpt><trkpt lat="45.887682" lon="11.5629032"><ele>972.4</ele><time>2026-04-26T10:01:42.458Z</time></trkpt><trkpt lat="45.8877142" lon="11.5628244"><ele>974.8</ele><time>2026-04-26T10:01:43.457Z</time></trkpt><trkpt lat="45.8877443" lon="11.5626677"><ele>977.2</ele><time>2026-04-26T10:01:45.457Z</time></trkpt><trkpt lat="45.8877595" lon="11.5625518"><ele>979.6</ele><time>2026-04-26T10:01:47.457Z</time></trkpt><trkpt lat="45.887796" lon="11.5624732"><ele>982.0</ele><time>2026-04-26T10:01:49.457Z</time></trkpt><trkpt lat="45.8879497" lon="11.5626914"><ele>980.4000000000001</ele><time>2026-04-26T10:01:57.458Z</time></trkpt><trkpt lat="45.8879497" lon="11.5628762"><ele>978.8000000000001</ele><time>2026-04-26T10:01:59.458Z</time></trkpt><trkpt lat="45.8879279" lon="11.5629676"><ele>977.2</ele><time>2026-04-26T10:02:00.457Z</time></trkpt><trkpt lat="45.8878801" lon="11.5631412"><ele>975.6</ele><time>2026-04-26T10:02:02.458Z</time></trkpt><trkpt lat="45.8878731" lon="11.5632473"><ele>974.0</ele><time>2026-04-26T10:02:03.457Z</time></trkpt><trkpt lat="45.8879097" lon="11.5633577"><ele>974.0000000000001</ele><time>2026-04-26T10:02:04.458Z</time></trkpt><trkpt lat="45.8879145" lon="11.5634595"><ele>974.0</ele><time>2026-04-26T10:02:05.457Z</time></trkpt><trkpt lat="45.8878981" lon="11.5635602"><ele>974.0</ele><time>2026-04-26T10:02:06.457Z</time></trkpt><trkpt lat="45.8878518" lon="11.5637559"><ele>974.0</ele><time>2026-04-26T10:02:08.458Z</time></trkpt><trkpt lat="45.8878303" lon="11.5638433"><ele>974.0000000000001</ele><time>2026-04-26T10:02:09.457Z</time></trkpt><trkpt lat="45.8878292" lon="11.5639395"><ele>974.0</ele><time>2026-04-26T10:02:10.458Z</time></trkpt><trkpt lat="45.8878045" lon="11.5640488"><ele>971.6</ele><time>2026-04-26T10:02:11.457Z</time></trkpt><trkpt lat="45.8878219" lon="11.5641603"><ele>969.2</ele><time>2026-04-26T10:02:12.457Z</time></trkpt><trkpt lat="45.8878145" lon="11.5643004"><ele>966.8000000000001</ele><time>2026-04-26T10:02:13.457Z</time></trkpt><trkpt lat="45.8878239" lon="11.5644234"><ele>964.4000000000001</ele><time>2026-04-26T10:02:14.457Z</time></trkpt><trkpt lat="45.8878085" lon="11.5645703"><ele>962.0</ele><time>2026-04-26T10:02:15.458Z</time></trkpt><trkpt lat="45.8878094" lon="11.5646991"><ele>958.8</ele><time>2026-04-26T10:02:16.458Z</time></trkpt><trkpt lat="45.8878182" lon="11.5648429"><ele>955.6</ele><time>2026-04-26T10:02:17.457Z</time></trkpt><trkpt lat="45.887853" lon="11.5649982"><ele>952.3999999999999</ele><time>2026-04-26T10:02:18.457Z</time></trkpt><trkpt lat="45.8878678" lon="11.5651259"><ele>949.1999999999999</ele><time>2026-04-26T10:02:19.457Z</time></trkpt><trkpt lat="45.8878794" lon="11.5652641"><ele>946.0</ele><time>2026-04-26T10:02:20.457Z</time></trkpt><trkpt lat="45.887827" lon="11.565335"><ele>942.3333333333333</ele><time>2026-04-26T10:02:21.457Z</time></trkpt><trkpt lat="45.8877754" lon="11.5654764"><ele>938.6666666666666</ele><time>2026-04-26T10:02:22.457Z</time></trkpt><trkpt lat="45.8877372" lon="11.5655714"><ele>935.0</ele><time>2026-04-26T10:02:23.457Z</time></trkpt><trkpt lat="45.8877149" lon="11.5656776"><ele>931.3333333333333</ele><time>2026-04-26T10:02:24.457Z</time></trkpt><trkpt lat="45.8877362" lon="11.5657688"><ele>927.6666666666666</ele><time>2026-04-26T10:02:25.458Z</time></trkpt><trkpt lat="45.8878224" lon="11.5657805"><ele>924.0</ele><time>2026-04-26T10:02:26.457Z</time></trkpt><trkpt lat="45.8878777" lon="11.5658817"><ele>924.0</ele><time>2026-04-26T10:02:27.458Z</time></trkpt><trkpt lat="45.8879544" lon="11.5659359"><ele>924.0</ele><time>2026-04-26T10:02:28.457Z</time></trkpt><trkpt lat="45.8880244" lon="11.5659732"><ele>924.0</ele><time>2026-04-26T10:02:29.457Z</time></trkpt><trkpt lat="45.8880782" lon="11.5660277"><ele>924.0</ele><time>2026-04-26T10:02:30.457Z</time></trkpt><trkpt lat="45.8881443" lon="11.5660308"><ele>924.0</ele><time>2026-04-26T10:02:31.457Z</time></trkpt><trkpt lat="45.8882795" lon="11.5660154"><ele>924.0</ele><time>2026-04-26T10:02:33.457Z</time></trkpt><trkpt lat="45.8883335" lon="11.5659441"><ele>924.0</ele><time>2026-04-26T10:02:34.457Z</time></trkpt><trkpt lat="45.8883891" lon="11.5658967"><ele>924.0</ele><time>2026-04-26T10:02:35.458Z</time></trkpt><trkpt lat="45.8884919" lon="11.5658715"><ele>924.0</ele><time>2026-04-26T10:02:37.458Z</time></trkpt><trkpt lat="45.8885586" lon="11.5658921"><ele>924.0</ele><time>2026-04-26T10:02:38.457Z</time></trkpt><trkpt lat="45.8886246" lon="11.5659209"><ele>924.0</ele><time>2026-04-26T10:02:39.457Z</time></trkpt><trkpt lat="45.8887028" lon="11.5659573"><ele>924.0</ele><time>2026-04-26T10:02:40.457Z</time></trkpt><trkpt lat="45.8887729" lon="11.5659879"><ele>925.1666666666666</ele><time>2026-04-26T10:02:41.457Z</time></trkpt><trkpt lat="45.8888449" lon="11.5660088"><ele>926.3333333333333</ele><time>2026-04-26T10:02:42.458Z</time></trkpt><trkpt lat="45.8889279" lon="11.5660119"><ele>927.5</ele><time>2026-04-26T10:02:43.458Z</time></trkpt><trkpt lat="45.8890057" lon="11.5659938"><ele>928.6666666666666</ele><time>2026-04-26T10:02:44.457Z</time></trkpt><trkpt lat="45.8891321" lon="11.5659701"><ele>929.8333333333333</ele><time>2026-04-26T10:02:46.457Z</time></trkpt><trkpt lat="45.8892083" lon="11.5659568"><ele>931.0</ele><time>2026-04-26T10:02:47.457Z</time></trkpt><trkpt lat="45.8892815" lon="11.5659332"><ele>930.9999999999999</ele><time>2026-04-26T10:02:48.457Z</time></trkpt><trkpt lat="45.8893551" lon="11.5659137"><ele>931.0</ele><time>2026-04-26T10:02:49.458Z</time></trkpt><trkpt lat="45.889241" lon="11.56588"><ele>931.0</ele><time>2026-04-26T10:03:26.457Z</time></trkpt><trkpt lat="45.8891588" lon="11.565919"><ele>931.0</ele><time>2026-04-26T10:03:27.457Z</time></trkpt><trkpt lat="45.8891091" lon="11.5659786"><ele>930.9999999999999</ele><time>2026-04-26T10:03:28.457Z</time></trkpt><trkpt lat="45.8890478" lon="11.5660388"><ele>931.0</ele><time>2026-04-26T10:03:29.458Z</time></trkpt><trkpt lat="45.8889596" lon="11.5661453"><ele>930.4</ele><time>2026-04-26T10:03:31.457Z</time></trkpt><trkpt lat="45.8888969" lon="11.5662397"><ele>929.8</ele><time>2026-04-26T10:03:33.458Z</time></trkpt><trkpt lat="45.8888465" lon="11.5663382"><ele>929.1999999999999</ele><time>2026-04-26T10:03:36.458Z</time></trkpt><trkpt lat="45.8888015" lon="11.5664341"><ele>928.5999999999999</ele><time>2026-04-26T10:03:38.458Z</time></trkpt><trkpt lat="45.8887454" lon="11.5665749"><ele>928.0</ele><time>2026-04-26T10:03:40.457Z</time></trkpt><trkpt lat="45.8886853" lon="11.5667394"><ele>928.0</ele><time>2026-04-26T10:03:42.458Z</time></trkpt><trkpt lat="45.8886352" lon="11.5669667"><ele>928.0</ele><time>2026-04-26T10:03:44.457Z</time></trkpt><trkpt lat="45.8886408" lon="11.5670999"><ele>928.0</ele><time>2026-04-26T10:03:45.457Z</time></trkpt><trkpt lat="45.8886486" lon="11.5672397"><ele>928.0</ele><time>2026-04-26T10:03:46.457Z</time></trkpt><trkpt lat="45.8886747" lon="11.5673907"><ele>928.0</ele><time>2026-04-26T10:03:47.457Z</time></trkpt><trkpt lat="45.8887019" lon="11.567542"><ele>928.0</ele><time>2026-04-26T10:03:48.457Z</time></trkpt><trkpt lat="45.8887302" lon="11.5677057"><ele>928.0</ele><time>2026-04-26T10:03:49.457Z</time></trkpt><trkpt lat="45.8887777" lon="11.5678675"><ele>928.0</ele><time>2026-04-26T10:03:50.458Z</time></trkpt><trkpt lat="45.888819" lon="11.5680336"><ele>928.0</ele><time>2026-04-26T10:03:51.457Z</time></trkpt><trkpt lat="45.8888578" lon="11.5682043"><ele>928.0</ele><time>2026-04-26T10:03:52.457Z</time></trkpt><trkpt lat="45.8889226" lon="11.5683283"><ele>928.0</ele><time>2026-04-26T10:03:53.457Z</time></trkpt><trkpt lat="45.8889496" lon="11.5684268"><ele>928.0</ele><time>2026-04-26T10:03:54.457Z</time></trkpt><trkpt lat="45.8890006" lon="11.5685435"><ele>928.0</ele><time>2026-04-26T10:03:55.458Z</time></trkpt><trkpt lat="45.8890375" lon="11.5686814"><ele>927.4</ele><time>2026-04-26T10:03:56.458Z</time></trkpt><trkpt lat="45.8890667" lon="11.568818"><ele>926.8</ele><time>2026-04-26T10:03:57.457Z</time></trkpt><trkpt lat="45.8890983" lon="11.5689773"><ele>926.2</ele><time>2026-04-26T10:03:58.457Z</time></trkpt><trkpt lat="45.8891213" lon="11.5691314"><ele>925.6</ele><time>2026-04-26T10:03:59.457Z</time></trkpt><trkpt lat="45.8891085" lon="11.5692937"><ele>925.0</ele><time>2026-04-26T10:04:00.457Z</time></trkpt><trkpt lat="45.8890781" lon="11.569495"><ele>925.0</ele><time>2026-04-26T10:04:01.457Z</time></trkpt><trkpt lat="45.8890827" lon="11.5696135"><ele>925.0</ele><time>2026-04-26T10:04:02.457Z</time></trkpt><trkpt lat="45.8890705" lon="11.5697566"><ele>925.0</ele><time>2026-04-26T10:04:03.458Z</time></trkpt><trkpt lat="45.8890202" lon="11.57007"><ele>925.0</ele><time>2026-04-26T10:04:05.457Z</time></trkpt><trkpt lat="45.8889548" lon="11.5702692"><ele>926.2</ele><time>2026-04-26T10:04:06.457Z</time></trkpt><trkpt lat="45.8889142" lon="11.5704353"><ele>927.4</ele><time>2026-04-26T10:04:07.457Z</time></trkpt><trkpt lat="45.8888588" lon="11.5705681"><ele>928.5999999999999</ele><time>2026-04-26T10:04:08.458Z</time></trkpt><trkpt lat="45.8888092" lon="11.5707206"><ele>929.8</ele><time>2026-04-26T10:04:09.457Z</time></trkpt><trkpt lat="45.8888038" lon="11.5708409"><ele>931.0</ele><time>2026-04-26T10:04:10.458Z</time></trkpt><trkpt lat="45.8887996" lon="11.5710358"><ele>933.0</ele><time>2026-04-26T10:04:11.457Z</time></trkpt><trkpt lat="45.888775" lon="11.5712277"><ele>935.0</ele><time>2026-04-26T10:04:12.458Z</time></trkpt><trkpt lat="45.8887657" lon="11.5714387"><ele>937.0</ele><time>2026-04-26T10:04:13.457Z</time></trkpt><trkpt lat="45.8887395" lon="11.5716417"><ele>939.0</ele><time>2026-04-26T10:04:14.458Z</time></trkpt><trkpt lat="45.8886898" lon="11.5718445"><ele>941.0</ele><time>2026-04-26T10:04:15.457Z</time></trkpt><trkpt lat="45.8886484" lon="11.5720279"><ele>943.0</ele><time>2026-04-26T10:04:16.457Z</time></trkpt><trkpt lat="45.8886082" lon="11.5722147"><ele>945.0</ele><time>2026-04-26T10:04:17.458Z</time></trkpt><trkpt lat="45.8885607" lon="11.5723779"><ele>947.0</ele><time>2026-04-26T10:04:18.457Z</time></trkpt><trkpt lat="45.8885149" lon="11.5725313"><ele>947.0</ele><time>2026-04-26T10:04:19.457Z</time></trkpt><trkpt lat="45.8884705" lon="11.5726742"><ele>947.0</ele><time>2026-04-26T10:04:20.457Z</time></trkpt><trkpt lat="45.8884555" lon="11.5728051"><ele>947.0</ele><time>2026-04-26T10:04:21.457Z</time></trkpt><trkpt lat="45.8884395" lon="11.5729439"><ele>947.0</ele><time>2026-04-26T10:04:22.458Z</time></trkpt><trkpt lat="45.8884671" lon="11.5731076"><ele>947.0</ele><time>2026-04-26T10:04:23.457Z</time></trkpt><trkpt lat="45.8884766" lon="11.573252"><ele>946.0</ele><time>2026-04-26T10:04:24.458Z</time></trkpt><trkpt lat="45.8885196" lon="11.5735225"><ele>945.0</ele><time>2026-04-26T10:04:26.457Z</time></trkpt><trkpt lat="45.8885342" lon="11.5736298"><ele>944.0</ele><time>2026-04-26T10:04:27.457Z</time></trkpt><trkpt lat="45.8885722" lon="11.5737618"><ele>943.0</ele><time>2026-04-26T10:04:28.458Z</time></trkpt><trkpt lat="45.8886031" lon="11.5738788"><ele>941.5999999999999</ele><time>2026-04-26T10:04:29.457Z</time></trkpt><trkpt lat="45.8886339" lon="11.5740096"><ele>940.1999999999999</ele><time>2026-04-26T10:04:30.457Z</time></trkpt><trkpt lat="45.8886451" lon="11.5741599"><ele>938.8</ele><time>2026-04-26T10:04:31.458Z</time></trkpt><trkpt lat="45.8886585" lon="11.5742953"><ele>937.4</ele><time>2026-04-26T10:04:32.458Z</time></trkpt><trkpt lat="45.8886683" lon="11.5744328"><ele>936.0</ele><time>2026-04-26T10:04:33.458Z</time></trkpt><trkpt lat="45.8886737" lon="11.5745724"><ele>936.0</ele><time>2026-04-26T10:04:34.457Z</time></trkpt><trkpt lat="45.8886535" lon="11.5747189"><ele>936.0</ele><time>2026-04-26T10:04:35.457Z</time></trkpt><trkpt lat="45.888644" lon="11.5748674"><ele>936.0</ele><time>2026-04-26T10:04:36.457Z</time></trkpt><trkpt lat="45.8886279" lon="11.5750299"><ele>936.0</ele><time>2026-04-26T10:04:37.457Z</time></trkpt><trkpt lat="45.8885836" lon="11.5752166"><ele>938.0</ele><time>2026-04-26T10:04:38.457Z</time></trkpt><trkpt lat="45.8885472" lon="11.5753612"><ele>939.9999999999999</ele><time>2026-04-26T10:04:39.457Z</time></trkpt><trkpt lat="45.8884944" lon="11.5755016"><ele>941.9999999999999</ele><time>2026-04-26T10:04:40.457Z</time></trkpt><trkpt lat="45.8884401" lon="11.5756421"><ele>944.0</ele><time>2026-04-26T10:04:41.458Z</time></trkpt><trkpt lat="45.888387" lon="11.5757817"><ele>946.0</ele><time>2026-04-26T10:04:42.457Z</time></trkpt><trkpt lat="45.8883365" lon="11.575923"><ele>929.6666666666666</ele><time>2026-04-26T10:04:43.458Z</time></trkpt><trkpt lat="45.8882836" lon="11.5760552"><ele>913.3333333333333</ele><time>2026-04-26T10:04:44.457Z</time></trkpt><trkpt lat="45.8882928" lon="11.5762087"><ele>897.0</ele><time>2026-04-26T10:04:45.457Z</time></trkpt><trkpt lat="45.8882179" lon="11.5766029"><ele>897.0</ele><time>2026-04-26T10:04:47.457Z</time></trkpt><trkpt lat="45.8881922" lon="11.5767744"><ele>897.0</ele><time>2026-04-26T10:04:48.457Z</time></trkpt><trkpt lat="45.888162" lon="11.5769345"><ele>897.0</ele><time>2026-04-26T10:04:49.457Z</time></trkpt><trkpt lat="45.8881261" lon="11.5770437"><ele>897.0</ele><time>2026-04-26T10:04:50.457Z</time></trkpt><trkpt lat="45.8880955" lon="11.5771924"><ele>897.0</ele><time>2026-04-26T10:04:51.457Z</time></trkpt><trkpt lat="45.8881572" lon="11.5772627"><ele>896.0</ele><time>2026-04-26T10:04:52.458Z</time></trkpt><trkpt lat="45.888161" lon="11.577365"><ele>895.0</ele><time>2026-04-26T10:04:53.457Z</time></trkpt><trkpt lat="45.8883097" lon="11.5773684"><ele>894.0</ele><time>2026-04-26T10:04:55.457Z</time></trkpt><trkpt lat="45.8883878" lon="11.5773952"><ele>893.0</ele><time>2026-04-26T10:04:56.457Z</time></trkpt><trkpt lat="45.8884599" lon="11.577421"><ele>892.0</ele><time>2026-04-26T10:04:57.457Z</time></trkpt><trkpt lat="45.8885164" lon="11.5775344"><ele>891.9999999999999</ele><time>2026-04-26T10:04:59.457Z</time></trkpt><trkpt lat="45.8884967" lon="11.5776264"><ele>892.0</ele><time>2026-04-26T10:05:00.457Z</time></trkpt><trkpt lat="45.8884015" lon="11.5777035"><ele>892.0</ele><time>2026-04-26T10:05:02.457Z</time></trkpt><trkpt lat="45.88832" lon="11.5777082"><ele>892.0</ele><time>2026-04-26T10:05:03.457Z</time></trkpt><trkpt lat="45.8882538" lon="11.5777414"><ele>891.9999999999999</ele><time>2026-04-26T10:05:04.457Z</time></trkpt><trkpt lat="45.8881967" lon="11.5777872"><ele>892.0</ele><time>2026-04-26T10:05:05.457Z</time></trkpt><trkpt lat="45.8881969" lon="11.5778992"><ele>891.75</ele><time>2026-04-26T10:05:06.457Z</time></trkpt><trkpt lat="45.8881785" lon="11.5781895"><ele>891.5</ele><time>2026-04-26T10:05:08.457Z</time></trkpt><trkpt lat="45.8881498" lon="11.5783341"><ele>891.25</ele><time>2026-04-26T10:05:09.457Z</time></trkpt><trkpt lat="45.8881192" lon="11.5784894"><ele>891.0</ele><time>2026-04-26T10:05:10.458Z</time></trkpt><trkpt lat="45.8880937" lon="11.5786385"><ele>893.4</ele><time>2026-04-26T10:05:11.457Z</time></trkpt><trkpt lat="45.8880641" lon="11.5787816"><ele>895.8</ele><time>2026-04-26T10:05:12.458Z</time></trkpt><trkpt lat="45.8880479" lon="11.5788748"><ele>898.1999999999999</ele><time>2026-04-26T10:05:13.457Z</time></trkpt><trkpt lat="45.888026" lon="11.5790102"><ele>900.5999999999999</ele><time>2026-04-26T10:05:14.457Z</time></trkpt><trkpt lat="45.8880213" lon="11.5791535"><ele>903.0</ele><time>2026-04-26T10:05:15.458Z</time></trkpt><trkpt lat="45.8880071" lon="11.5792964"><ele>903.0</ele><time>2026-04-26T10:05:16.458Z</time></trkpt><trkpt lat="45.8879476" lon="11.5794619"><ele>903.0</ele><time>2026-04-26T10:05:17.457Z</time></trkpt><trkpt lat="45.8878504" lon="11.5795768"><ele>903.0</ele><time>2026-04-26T10:05:18.457Z</time></trkpt><trkpt lat="45.8877657" lon="11.5797408"><ele>903.0</ele><time>2026-04-26T10:05:19.457Z</time></trkpt><trkpt lat="45.8876721" lon="11.5798993"><ele>909.0</ele><time>2026-04-26T10:05:20.457Z</time></trkpt><trkpt lat="45.8876249" lon="11.580027"><ele>915.0</ele><time>2026-04-26T10:05:21.457Z</time></trkpt><trkpt lat="45.8875748" lon="11.5801806"><ele>921.0</ele><time>2026-04-26T10:05:22.457Z</time></trkpt><trkpt lat="45.887554" lon="11.5803684"><ele>927.0</ele><time>2026-04-26T10:05:23.457Z</time></trkpt><trkpt lat="45.8875534" lon="11.5805373"><ele>914.75</ele><time>2026-04-26T10:05:24.457Z</time></trkpt><trkpt lat="45.8875504" lon="11.5806892"><ele>902.5</ele><time>2026-04-26T10:05:25.457Z</time></trkpt><trkpt lat="45.8875391" lon="11.5808279"><ele>890.25</ele><time>2026-04-26T10:05:26.457Z</time></trkpt><trkpt lat="45.8875285" lon="11.5809682"><ele>878.0</ele><time>2026-04-26T10:05:27.457Z</time></trkpt><trkpt lat="45.8875224" lon="11.5812421"><ele>878.0</ele><time>2026-04-26T10:05:29.457Z</time></trkpt><trkpt lat="45.8875259" lon="11.5813918"><ele>878.0</ele><time>2026-04-26T10:05:30.457Z</time></trkpt><trkpt lat="45.887545" lon="11.5815298"><ele>878.0</ele><time>2026-04-26T10:05:31.457Z</time></trkpt><trkpt lat="45.8875559" lon="11.5816693"><ele>878.0</ele><time>2026-04-26T10:05:32.457Z</time></trkpt><trkpt lat="45.8875628" lon="11.5818166"><ele>878.0</ele><time>2026-04-26T10:05:33.458Z</time></trkpt><trkpt lat="45.8875753" lon="11.5819786"><ele>875.25</ele><time>2026-04-26T10:05:34.458Z</time></trkpt><trkpt lat="45.8875833" lon="11.5821377"><ele>872.5</ele><time>2026-04-26T10:05:35.458Z</time></trkpt><trkpt lat="45.8876312" lon="11.5823024"><ele>869.75</ele><time>2026-04-26T10:05:36.457Z</time></trkpt><trkpt lat="45.8876676" lon="11.5824623"><ele>867.0</ele><time>2026-04-26T10:05:37.458Z</time></trkpt><trkpt lat="45.887654" lon="11.5826343"><ele>879.2</ele><time>2026-04-26T10:05:38.457Z</time></trkpt><trkpt lat="45.8876709" lon="11.5827983"><ele>891.4000000000001</ele><time>2026-04-26T10:05:39.457Z</time></trkpt><trkpt lat="45.8876621" lon="11.5829484"><ele>903.5999999999999</ele><time>2026-04-26T10:05:40.457Z</time></trkpt><trkpt lat="45.8876695" lon="11.5831078"><ele>915.8</ele><time>2026-04-26T10:05:41.457Z</time></trkpt><trkpt lat="45.8876418" lon="11.5832264"><ele>928.0</ele><time>2026-04-26T10:05:42.458Z</time></trkpt><trkpt lat="45.8876106" lon="11.5833689"><ele>928.0</ele><time>2026-04-26T10:05:44.457Z</time></trkpt><trkpt lat="45.8876126" lon="11.5834799"><ele>928.0</ele><time>2026-04-26T10:05:45.457Z</time></trkpt><trkpt lat="45.8876235" lon="11.5836028"><ele>928.0</ele><time>2026-04-26T10:05:46.458Z</time></trkpt><trkpt lat="45.8876429" lon="11.5837172"><ele>928.0</ele><time>2026-04-26T10:05:47.457Z</time></trkpt><trkpt lat="45.8876635" lon="11.5838442"><ele>928.0</ele><time>2026-04-26T10:05:48.457Z</time></trkpt><trkpt lat="45.8876957" lon="11.5841424"><ele>927.75</ele><time>2026-04-26T10:05:50.457Z</time></trkpt><trkpt lat="45.8877108" lon="11.5842821"><ele>927.5</ele><time>2026-04-26T10:05:51.457Z</time></trkpt><trkpt lat="45.8877377" lon="11.5844387"><ele>927.25</ele><time>2026-04-26T10:05:52.457Z</time></trkpt><trkpt lat="45.8877815" lon="11.5845946"><ele>927.0</ele><time>2026-04-26T10:05:53.457Z</time></trkpt><trkpt lat="45.8877902" lon="11.5847758"><ele>924.0</ele><time>2026-04-26T10:05:54.458Z</time></trkpt><trkpt lat="45.8878075" lon="11.5849617"><ele>921.0</ele><time>2026-04-26T10:05:55.457Z</time></trkpt><trkpt lat="45.8878243" lon="11.5851446"><ele>918.0</ele><time>2026-04-26T10:05:56.457Z</time></trkpt><trkpt lat="45.8878379" lon="11.5853303"><ele>915.0</ele><time>2026-04-26T10:05:57.457Z</time></trkpt><trkpt lat="45.8878568" lon="11.5855016"><ele>913.6</ele><time>2026-04-26T10:05:58.457Z</time></trkpt><trkpt lat="45.8878729" lon="11.5856759"><ele>912.2</ele><time>2026-04-26T10:05:59.457Z</time></trkpt><trkpt lat="45.887893" lon="11.5858318"><ele>910.8</ele><time>2026-04-26T10:06:00.457Z</time></trkpt><trkpt lat="45.8878984" lon="11.5859814"><ele>909.4</ele><time>2026-04-26T10:06:01.457Z</time></trkpt><trkpt lat="45.8878954" lon="11.5861382"><ele>908.0</ele><time>2026-04-26T10:06:02.457Z</time></trkpt><trkpt lat="45.8878801" lon="11.5862861"><ele>907.5999999999999</ele><time>2026-04-26T10:06:03.458Z</time></trkpt><trkpt lat="45.8878492" lon="11.5864232"><ele>907.1999999999999</ele><time>2026-04-26T10:06:04.457Z</time></trkpt><trkpt lat="45.8878138" lon="11.5865616"><ele>906.8</ele><time>2026-04-26T10:06:05.458Z</time></trkpt><trkpt lat="45.8877767" lon="11.5866949"><ele>906.4</ele><time>2026-04-26T10:06:06.458Z</time></trkpt><trkpt lat="45.8877466" lon="11.5868172"><ele>906.0</ele><time>2026-04-26T10:06:07.457Z</time></trkpt><trkpt lat="45.8877346" lon="11.5869575"><ele>904.0</ele><time>2026-04-26T10:06:08.458Z</time></trkpt><trkpt lat="45.8877328" lon="11.5870992"><ele>902.0</ele><time>2026-04-26T10:06:09.457Z</time></trkpt><trkpt lat="45.8877684" lon="11.587396"><ele>900.0</ele><time>2026-04-26T10:06:11.458Z</time></trkpt><trkpt lat="45.8878087" lon="11.5875216"><ele>898.0</ele><time>2026-04-26T10:06:12.457Z</time></trkpt><trkpt lat="45.8878564" lon="11.5876442"><ele>898.0</ele><time>2026-04-26T10:06:13.457Z</time></trkpt><trkpt lat="45.8879061" lon="11.5877407"><ele>898.0</ele><time>2026-04-26T10:06:14.458Z</time></trkpt><trkpt lat="45.8879514" lon="11.587852"><ele>898.0</ele><time>2026-04-26T10:06:15.457Z</time></trkpt><trkpt lat="45.8879876" lon="11.587968"><ele>898.0</ele><time>2026-04-26T10:06:16.457Z</time></trkpt><trkpt lat="45.888038" lon="11.5881024"><ele>898.0</ele><time>2026-04-26T10:06:17.457Z</time></trkpt><trkpt lat="45.8881078" lon="11.5882427"><ele>894.0</ele><time>2026-04-26T10:06:18.458Z</time></trkpt><trkpt lat="45.8881799" lon="11.5883846"><ele>890.0</ele><time>2026-04-26T10:06:19.457Z</time></trkpt><trkpt lat="45.8882386" lon="11.588537"><ele>886.0</ele><time>2026-04-26T10:06:20.458Z</time></trkpt><trkpt lat="45.8882947" lon="11.5886821"><ele>882.0</ele><time>2026-04-26T10:06:21.458Z</time></trkpt><trkpt lat="45.8883559" lon="11.5888222"><ele>879.0</ele><time>2026-04-26T10:06:22.457Z</time></trkpt><trkpt lat="45.8884204" lon="11.5889848"><ele>876.0</ele><time>2026-04-26T10:06:23.457Z</time></trkpt><trkpt lat="45.8884755" lon="11.5891635"><ele>873.0</ele><time>2026-04-26T10:06:24.457Z</time></trkpt><trkpt lat="45.8885345" lon="11.5893276"><ele>870.0</ele><time>2026-04-26T10:06:25.457Z</time></trkpt><trkpt lat="45.8885778" lon="11.5894625"><ele>875.75</ele><time>2026-04-26T10:06:26.457Z</time></trkpt><trkpt lat="45.8886087" lon="11.5896357"><ele>881.5</ele><time>2026-04-26T10:06:27.457Z</time></trkpt><trkpt lat="45.8886453" lon="11.5897831"><ele>887.25</ele><time>2026-04-26T10:06:28.457Z</time></trkpt><trkpt lat="45.8887023" lon="11.5899336"><ele>893.0</ele><time>2026-04-26T10:06:29.458Z</time></trkpt><trkpt lat="45.8887515" lon="11.5901061"><ele>888.75</ele><time>2026-04-26T10:06:30.457Z</time></trkpt><trkpt lat="45.8888516" lon="11.5903971"><ele>884.5</ele><time>2026-04-26T10:06:32.458Z</time></trkpt><trkpt lat="45.8888737" lon="11.5905547"><ele>880.25</ele><time>2026-04-26T10:06:33.457Z</time></trkpt><trkpt lat="45.8888894" lon="11.5907134"><ele>876.0</ele><time>2026-04-26T10:06:34.457Z</time></trkpt><trkpt lat="45.8888953" lon="11.5908702"><ele>876.0</ele><time>2026-04-26T10:06:35.458Z</time></trkpt><trkpt lat="45.8889108" lon="11.5910402"><ele>876.0</ele><time>2026-04-26T10:06:36.457Z</time></trkpt><trkpt lat="45.8889365" lon="11.5912147"><ele>876.0</ele><time>2026-04-26T10:06:37.457Z</time></trkpt><trkpt lat="45.8889698" lon="11.5913916"><ele>876.0</ele><time>2026-04-26T10:06:38.457Z</time></trkpt><trkpt lat="45.8890051" lon="11.591577"><ele>873.0</ele><time>2026-04-26T10:06:39.457Z</time></trkpt><trkpt lat="45.8890407" lon="11.5917312"><ele>869.9999999999999</ele><time>2026-04-26T10:06:40.457Z</time></trkpt><trkpt lat="45.8890713" lon="11.5918725"><ele>866.9999999999999</ele><time>2026-04-26T10:06:41.457Z</time></trkpt><trkpt lat="45.889127" lon="11.5919953"><ele>864.0</ele><time>2026-04-26T10:06:42.457Z</time></trkpt><trkpt lat="45.8891714" lon="11.5921088"><ele>861.0</ele><time>2026-04-26T10:06:43.458Z</time></trkpt><trkpt lat="45.8892526" lon="11.5922514"><ele>861.75</ele><time>2026-04-26T10:06:45.457Z</time></trkpt><trkpt lat="45.8893331" lon="11.5923566"><ele>862.5</ele><time>2026-04-26T10:06:47.458Z</time></trkpt><trkpt lat="45.8894206" lon="11.592493"><ele>863.25</ele><time>2026-04-26T10:06:49.457Z</time></trkpt><trkpt lat="45.889529" lon="11.5925522"><ele>864.0</ele><time>2026-04-26T10:06:51.458Z</time></trkpt><trkpt lat="45.889694" lon="11.5925296"><ele>864.0</ele><time>2026-04-26T10:06:55.457Z</time></trkpt><trkpt lat="45.8898057" lon="11.5925103"><ele>864.0000000000001</ele><time>2026-04-26T10:06:57.457Z</time></trkpt><trkpt lat="45.8899152" lon="11.5925458"><ele>864.0000000000001</ele><time>2026-04-26T10:06:59.458Z</time></trkpt><trkpt lat="45.8899596" lon="11.5926791"><ele>864.0</ele><time>2026-04-26T10:07:01.457Z</time></trkpt><trkpt lat="45.8899335" lon="11.5927777"><ele>864.0</ele><time>2026-04-26T10:07:02.457Z</time></trkpt><trkpt lat="45.889881" lon="11.592884"><ele>862.3333333333334</ele><time>2026-04-26T10:07:03.457Z</time></trkpt><trkpt lat="45.8898239" lon="11.5929767"><ele>860.6666666666667</ele><time>2026-04-26T10:07:04.457Z</time></trkpt><trkpt lat="45.8897602" lon="11.5930693"><ele>859.0</ele><time>2026-04-26T10:07:05.457Z</time></trkpt><trkpt lat="45.8897062" lon="11.5931385"><ele>857.3333333333334</ele><time>2026-04-26T10:07:06.457Z</time></trkpt><trkpt lat="45.8896576" lon="11.5932101"><ele>855.6666666666667</ele><time>2026-04-26T10:07:07.458Z</time></trkpt><trkpt lat="45.8896256" lon="11.5933673"><ele>854.0</ele><time>2026-04-26T10:07:09.457Z</time></trkpt><trkpt lat="45.8896405" lon="11.5934763"><ele>854.0</ele><time>2026-04-26T10:07:10.458Z</time></trkpt><trkpt lat="45.8896754" lon="11.593597"><ele>854.0</ele><time>2026-04-26T10:07:11.458Z</time></trkpt><trkpt lat="45.8897212" lon="11.5937128"><ele>854.0</ele><time>2026-04-26T10:07:12.457Z</time></trkpt><trkpt lat="45.8898279" lon="11.5939349"><ele>854.0</ele><time>2026-04-26T10:07:14.457Z</time></trkpt><trkpt lat="45.8898796" lon="11.5940423"><ele>853.0000000000001</ele><time>2026-04-26T10:07:15.457Z</time></trkpt><trkpt lat="45.8899401" lon="11.5941293"><ele>852.0</ele><time>2026-04-26T10:07:16.457Z</time></trkpt><trkpt lat="45.8900274" lon="11.5941987"><ele>851.0</ele><time>2026-04-26T10:07:17.458Z</time></trkpt><trkpt lat="45.8901033" lon="11.5942646"><ele>850.0</ele><time>2026-04-26T10:07:18.457Z</time></trkpt><trkpt lat="45.8901652" lon="11.5943159"><ele>849.0000000000001</ele><time>2026-04-26T10:07:19.457Z</time></trkpt><trkpt lat="45.890208" lon="11.5943906"><ele>848.0</ele><time>2026-04-26T10:07:20.457Z</time></trkpt><trkpt lat="45.8902608" lon="11.5944887"><ele>850.0000000000001</ele><time>2026-04-26T10:07:21.457Z</time></trkpt><trkpt lat="45.8902741" lon="11.5945953"><ele>852.0</ele><time>2026-04-26T10:07:22.457Z</time></trkpt><trkpt lat="45.8903202" lon="11.5947372"><ele>854.0</ele><time>2026-04-26T10:07:23.457Z</time></trkpt><trkpt lat="45.8903212" lon="11.594848"><ele>856.0</ele><time>2026-04-26T10:07:24.457Z</time></trkpt><trkpt lat="45.8903228" lon="11.5949877"><ele>858.0000000000001</ele><time>2026-04-26T10:07:25.457Z</time></trkpt><trkpt lat="45.8903264" lon="11.5951"><ele>860.0</ele><time>2026-04-26T10:07:26.458Z</time></trkpt><trkpt lat="45.8903055" lon="11.5952191"><ele>860.0</ele><time>2026-04-26T10:07:27.457Z</time></trkpt><trkpt lat="45.8903213" lon="11.5953335"><ele>860.0</ele><time>2026-04-26T10:07:28.457Z</time></trkpt><trkpt lat="45.890328" lon="11.5954364"><ele>860.0</ele><time>2026-04-26T10:07:29.457Z</time></trkpt><trkpt lat="45.8903121" lon="11.5955771"><ele>860.0</ele><time>2026-04-26T10:07:31.457Z</time></trkpt><trkpt lat="45.8903101" lon="11.5956951"><ele>860.0</ele><time>2026-04-26T10:07:33.457Z</time></trkpt><trkpt lat="45.8902989" lon="11.5959926"><ele>859.5000000000001</ele><time>2026-04-26T10:07:36.457Z</time></trkpt><trkpt lat="45.8902962" lon="11.596088"><ele>859.0</ele><time>2026-04-26T10:07:37.457Z</time></trkpt><trkpt lat="45.8903007" lon="11.5961837"><ele>858.5</ele><time>2026-04-26T10:07:38.458Z</time></trkpt><trkpt lat="45.8902512" lon="11.5963035"><ele>858.0</ele><time>2026-04-26T10:07:39.457Z</time></trkpt><trkpt lat="45.8902688" lon="11.5964398"><ele>857.5000000000001</ele><time>2026-04-26T10:07:41.457Z</time></trkpt><trkpt lat="45.8903583" lon="11.5964227"><ele>857.0</ele><time>2026-04-26T10:07:44.458Z</time></trkpt><trkpt lat="45.8903829" lon="11.5962429"><ele>857.0000000000001</ele><time>2026-04-26T10:07:46.458Z</time></trkpt><trkpt lat="45.8904067" lon="11.5961323"><ele>857.0</ele><time>2026-04-26T10:07:47.457Z</time></trkpt><trkpt lat="45.8904335" lon="11.5960116"><ele>857.0</ele><time>2026-04-26T10:07:48.457Z</time></trkpt><trkpt lat="45.8904663" lon="11.5958889"><ele>857.0</ele><time>2026-04-26T10:07:49.458Z</time></trkpt><trkpt lat="45.8905081" lon="11.5957883"><ele>857.0000000000001</ele><time>2026-04-26T10:07:50.457Z</time></trkpt><trkpt lat="45.8905725" lon="11.5957037"><ele>857.0</ele><time>2026-04-26T10:07:51.457Z</time></trkpt><trkpt lat="45.8906484" lon="11.5956407"><ele>857.0</ele><time>2026-04-26T10:07:52.457Z</time></trkpt><trkpt lat="45.8907406" lon="11.5956557"><ele>857.0</ele><time>2026-04-26T10:07:53.457Z</time></trkpt><trkpt lat="45.8908138" lon="11.5956636"><ele>857.0</ele><time>2026-04-26T10:07:54.457Z</time></trkpt><trkpt lat="45.890916" lon="11.5955399"><ele>857.0</ele><time>2026-04-26T10:07:56.457Z</time></trkpt><trkpt lat="45.8909356" lon="11.5954279"><ele>857.0</ele><time>2026-04-26T10:07:57.457Z</time></trkpt><trkpt lat="45.8909471" lon="11.5952911"><ele>859.8</ele><time>2026-04-26T10:07:58.457Z</time></trkpt><trkpt lat="45.8909539" lon="11.5951569"><ele>862.6</ele><time>2026-04-26T10:07:59.457Z</time></trkpt><trkpt lat="45.890929" lon="11.5950252"><ele>865.3999999999999</ele><time>2026-04-26T10:08:00.458Z</time></trkpt><trkpt lat="45.8909844" lon="11.5948827"><ele>868.1999999999999</ele><time>2026-04-26T10:08:02.458Z</time></trkpt><trkpt lat="45.8910681" lon="11.5948802"><ele>871.0</ele><time>2026-04-26T10:08:03.457Z</time></trkpt><trkpt lat="45.8911825" lon="11.5948799"><ele>871.0</ele><time>2026-04-26T10:08:04.457Z</time></trkpt><trkpt lat="45.8913064" lon="11.5949359"><ele>871.0</ele><time>2026-04-26T10:08:05.458Z</time></trkpt><trkpt lat="45.8914378" lon="11.5949907"><ele>871.0</ele><time>2026-04-26T10:08:06.457Z</time></trkpt><trkpt lat="45.8915662" lon="11.5950891"><ele>871.0</ele><time>2026-04-26T10:08:07.458Z</time></trkpt><trkpt lat="45.8916683" lon="11.595216"><ele>874.25</ele><time>2026-04-26T10:08:08.457Z</time></trkpt><trkpt lat="45.8917673" lon="11.59536"><ele>877.5</ele><time>2026-04-26T10:08:09.458Z</time></trkpt><trkpt lat="45.8918594" lon="11.595487"><ele>880.75</ele><time>2026-04-26T10:08:10.457Z</time></trkpt><trkpt lat="45.8919294" lon="11.5955895"><ele>884.0</ele><time>2026-04-26T10:08:11.458Z</time></trkpt><trkpt lat="45.8920032" lon="11.595697"><ele>884.0</ele><time>2026-04-26T10:08:12.457Z</time></trkpt><trkpt lat="45.8920659" lon="11.5957863"><ele>884.0</ele><time>2026-04-26T10:08:13.457Z</time></trkpt><trkpt lat="45.8921267" lon="11.5958671"><ele>884.0</ele><time>2026-04-26T10:08:14.457Z</time></trkpt><trkpt lat="45.8921882" lon="11.5959507"><ele>884.0</ele><time>2026-04-26T10:08:15.457Z</time></trkpt></trkseg><trkseg><trkpt lat="45.8920605" lon="11.5510537"><ele>1096.0</ele><time>2026-04-26T11:37:56.454Z</time></trkpt><trkpt lat="45.8920486" lon="11.5511844"><ele>1096.0</ele><time>2026-04-26T11:37:58.455Z</time></trkpt><trkpt lat="45.8920398" lon="11.5512763"><ele>1096.0</ele><time>2026-04-26T11:37:59.454Z</time></trkpt><trkpt lat="45.8920261" lon="11.5513717"><ele>1096.0</ele><time>2026-04-26T11:38:00.455Z</time></trkpt><trkpt lat="45.8920183" lon="11.5515236"><ele>1096.0</ele><time>2026-04-26T11:38:02.454Z</time></trkpt><trkpt lat="45.8919997" lon="11.551682"><ele>1096.0</ele><time>2026-04-26T11:38:04.455Z</time></trkpt><trkpt lat="45.8919906" lon="11.5518305"><ele>1096.3333333333333</ele><time>2026-04-26T11:38:06.455Z</time></trkpt><trkpt lat="45.891969" lon="11.551929"><ele>1096.6666666666665</ele><time>2026-04-26T11:38:08.455Z</time></trkpt><trkpt lat="45.8919507" lon="11.5520353"><ele>1097.0</ele><time>2026-04-26T11:38:10.454Z</time></trkpt><trkpt lat="45.8919324" lon="11.5521284"><ele>1097.3333333333333</ele><time>2026-04-26T11:38:14.454Z</time></trkpt><trkpt lat="45.8919321" lon="11.5522472"><ele>1097.6666666666667</ele><time>2026-04-26T11:38:17.454Z</time></trkpt><trkpt lat="45.89193" lon="11.5523418"><ele>1098.0</ele><time>2026-04-26T11:38:36.454Z</time></trkpt><trkpt lat="45.8919044" lon="11.5525022"><ele>1098.4</ele><time>2026-04-26T11:38:38.454Z</time></trkpt><trkpt lat="45.8918794" lon="11.5526849"><ele>1098.8</ele><time>2026-04-26T11:38:40.455Z</time></trkpt><trkpt lat="45.8918707" lon="11.5527821"><ele>1099.2</ele><time>2026-04-26T11:38:41.454Z</time></trkpt><trkpt lat="45.8918428" lon="11.5529098"><ele>1099.6</ele><time>2026-04-26T11:38:42.454Z</time></trkpt><trkpt lat="45.8918085" lon="11.5530298"><ele>1100.0</ele><time>2026-04-26T11:38:43.455Z</time></trkpt><trkpt lat="45.8917751" lon="11.5531519"><ele>1099.0</ele><time>2026-04-26T11:38:44.454Z</time></trkpt><trkpt lat="45.8917392" lon="11.5532877"><ele>1098.0</ele><time>2026-04-26T11:38:45.454Z</time></trkpt><trkpt lat="45.8917102" lon="11.5534243"><ele>1097.0</ele><time>2026-04-26T11:38:46.455Z</time></trkpt><trkpt lat="45.8916815" lon="11.5535672"><ele>1096.0</ele><time>2026-04-26T11:38:47.454Z</time></trkpt><trkpt lat="45.891659" lon="11.5537123"><ele>1095.0</ele><time>2026-04-26T11:38:48.454Z</time></trkpt><trkpt lat="45.8916325" lon="11.5538705"><ele>1095.0</ele><time>2026-04-26T11:38:49.454Z</time></trkpt><trkpt lat="45.8916139" lon="11.5540187"><ele>1095.0</ele><time>2026-04-26T11:38:50.455Z</time></trkpt><trkpt lat="45.8915982" lon="11.5541719"><ele>1095.0</ele><time>2026-04-26T11:38:51.455Z</time></trkpt><trkpt lat="45.8915578" lon="11.5544984"><ele>1095.0</ele><time>2026-04-26T11:38:53.454Z</time></trkpt><trkpt lat="45.8915351" lon="11.5546617"><ele>1095.0</ele><time>2026-04-26T11:38:54.454Z</time></trkpt><trkpt lat="45.8914947" lon="11.5548172"><ele>1095.0</ele><time>2026-04-26T11:38:55.455Z</time></trkpt><trkpt lat="45.8914734" lon="11.5549974"><ele>1095.0</ele><time>2026-04-26T11:38:56.454Z</time></trkpt><trkpt lat="45.8914436" lon="11.5551804"><ele>1095.0</ele><time>2026-04-26T11:38:57.455Z</time></trkpt><trkpt lat="45.8914192" lon="11.5553628"><ele>1096.25</ele><time>2026-04-26T11:38:58.454Z</time></trkpt><trkpt lat="45.8913944" lon="11.5555497"><ele>1097.5</ele><time>2026-04-26T11:38:59.455Z</time></trkpt><trkpt lat="45.8913683" lon="11.5557365"><ele>1098.75</ele><time>2026-04-26T11:39:00.455Z</time></trkpt><trkpt lat="45.8913531" lon="11.5559121"><ele>1100.0</ele><time>2026-04-26T11:39:01.454Z</time></trkpt><trkpt lat="45.8913283" lon="11.5560759"><ele>1100.1666666666667</ele><time>2026-04-26T11:39:02.454Z</time></trkpt><trkpt lat="45.8913091" lon="11.5562202"><ele>1100.3333333333335</ele><time>2026-04-26T11:39:03.454Z</time></trkpt><trkpt lat="45.8912975" lon="11.5563483"><ele>1100.5</ele><time>2026-04-26T11:39:04.454Z</time></trkpt><trkpt lat="45.891304" lon="11.5564601"><ele>1100.6666666666667</ele><time>2026-04-26T11:39:05.455Z</time></trkpt><trkpt lat="45.891327" lon="11.5565523"><ele>1100.8333333333333</ele><time>2026-04-26T11:39:06.454Z</time></trkpt><trkpt lat="45.8913722" lon="11.556653"><ele>1101.0</ele><time>2026-04-26T11:39:07.454Z</time></trkpt><trkpt lat="45.8914467" lon="11.5567664"><ele>1101.0</ele><time>2026-04-26T11:39:08.454Z</time></trkpt><trkpt lat="45.8915647" lon="11.5569296"><ele>1101.0</ele><time>2026-04-26T11:39:09.454Z</time></trkpt><trkpt lat="45.8916564" lon="11.5570886"><ele>1101.0</ele><time>2026-04-26T11:39:10.455Z</time></trkpt><trkpt lat="45.8917737" lon="11.5572615"><ele>1100.0</ele><time>2026-04-26T11:39:11.454Z</time></trkpt><trkpt lat="45.8918979" lon="11.5574414"><ele>1099.0</ele><time>2026-04-26T11:39:12.455Z</time></trkpt><trkpt lat="45.8920145" lon="11.557632"><ele>1098.0</ele><time>2026-04-26T11:39:13.454Z</time></trkpt><trkpt lat="45.892124" lon="11.5578718"><ele>1098.0</ele><time>2026-04-26T11:39:14.454Z</time></trkpt><trkpt lat="45.892203" lon="11.5581567"><ele>1098.0</ele><time>2026-04-26T11:39:15.455Z</time></trkpt><trkpt lat="45.8922425" lon="11.5583869"><ele>1098.0</ele><time>2026-04-26T11:39:16.454Z</time></trkpt><trkpt lat="45.8922435" lon="11.5585538"><ele>1098.0</ele><time>2026-04-26T11:39:17.454Z</time></trkpt><trkpt lat="45.8922608" lon="11.5586809"><ele>1098.0</ele><time>2026-04-26T11:39:18.454Z</time></trkpt><trkpt lat="45.8923248" lon="11.5587938"><ele>1098.0</ele><time>2026-04-26T11:39:19.454Z</time></trkpt><trkpt lat="45.8924275" lon="11.5589116"><ele>1098.0</ele><time>2026-04-26T11:39:20.454Z</time></trkpt><trkpt lat="45.8925346" lon="11.5589995"><ele>1098.0</ele><time>2026-04-26T11:39:21.454Z</time></trkpt><trkpt lat="45.8926668" lon="11.5591177"><ele>1100.3333333333333</ele><time>2026-04-26T11:39:22.455Z</time></trkpt><trkpt lat="45.8928096" lon="11.5592577"><ele>1102.6666666666665</ele><time>2026-04-26T11:39:23.454Z</time></trkpt><trkpt lat="45.892949" lon="11.5594031"><ele>1105.0</ele><time>2026-04-26T11:39:24.454Z</time></trkpt><trkpt lat="45.8930971" lon="11.5595463"><ele>1108.0</ele><time>2026-04-26T11:39:25.455Z</time></trkpt><trkpt lat="45.8932344" lon="11.5596933"><ele>1111.0</ele><time>2026-04-26T11:39:26.455Z</time></trkpt><trkpt lat="45.8933594" lon="11.559863"><ele>1114.0</ele><time>2026-04-26T11:39:27.454Z</time></trkpt><trkpt lat="45.8934607" lon="11.5600361"><ele>1114.0</ele><time>2026-04-26T11:39:28.454Z</time></trkpt><trkpt lat="45.8935571" lon="11.5602336"><ele>1114.0</ele><time>2026-04-26T11:39:29.454Z</time></trkpt><trkpt lat="45.8936433" lon="11.5604469"><ele>1114.0</ele><time>2026-04-26T11:39:30.455Z</time></trkpt><trkpt lat="45.8937157" lon="11.5606684"><ele>1107.3333333333333</ele><time>2026-04-26T11:39:31.454Z</time></trkpt><trkpt lat="45.8937946" lon="11.5608837"><ele>1100.6666666666667</ele><time>2026-04-26T11:39:32.454Z</time></trkpt><trkpt lat="45.893883" lon="11.5610838"><ele>1094.0</ele><time>2026-04-26T11:39:33.454Z</time></trkpt><trkpt lat="45.8939995" lon="11.561366"><ele>1096.25</ele><time>2026-04-26T11:39:34.454Z</time></trkpt><trkpt lat="45.8940973" lon="11.5615138"><ele>1098.5</ele><time>2026-04-26T11:39:35.454Z</time></trkpt><trkpt lat="45.8941992" lon="11.5616296"><ele>1100.75</ele><time>2026-04-26T11:39:36.454Z</time></trkpt><trkpt lat="45.8943147" lon="11.5617068"><ele>1103.0</ele><time>2026-04-26T11:39:37.455Z</time></trkpt><trkpt lat="45.8944433" lon="11.5618006"><ele>1103.0</ele><time>2026-04-26T11:39:38.455Z</time></trkpt><trkpt lat="45.8945826" lon="11.5619067"><ele>1103.0</ele><time>2026-04-26T11:39:39.455Z</time></trkpt><trkpt lat="45.8947042" lon="11.5620021"><ele>1103.0</ele><time>2026-04-26T11:39:40.454Z</time></trkpt><trkpt lat="45.8948272" lon="11.5620719"><ele>1103.0</ele><time>2026-04-26T11:39:41.455Z</time></trkpt><trkpt lat="45.8949405" lon="11.5621011"><ele>1095.0</ele><time>2026-04-26T11:39:42.454Z</time></trkpt><trkpt lat="45.8950768" lon="11.5621139"><ele>1087.0</ele><time>2026-04-26T11:39:43.454Z</time></trkpt><trkpt lat="45.8953436" lon="11.5621312"><ele>1079.0</ele><time>2026-04-26T11:39:45.454Z</time></trkpt><trkpt lat="45.8954655" lon="11.5621431"><ele>1078.5</ele><time>2026-04-26T11:39:46.454Z</time></trkpt><trkpt lat="45.8956422" lon="11.5621406"><ele>1078.0</ele><time>2026-04-26T11:39:48.454Z</time></trkpt><trkpt lat="45.8957319" lon="11.5621143"><ele>1077.5</ele><time>2026-04-26T11:39:49.454Z</time></trkpt><trkpt lat="45.8958231" lon="11.5620541"><ele>1077.0</ele><time>2026-04-26T11:39:50.454Z</time></trkpt><trkpt lat="45.8958959" lon="11.5619671"><ele>1077.6</ele><time>2026-04-26T11:39:51.454Z</time></trkpt><trkpt lat="45.8959785" lon="11.5618785"><ele>1078.2</ele><time>2026-04-26T11:39:52.455Z</time></trkpt><trkpt lat="45.8960596" lon="11.561782"><ele>1078.8</ele><time>2026-04-26T11:39:53.454Z</time></trkpt><trkpt lat="45.8961201" lon="11.5616683"><ele>1079.4</ele><time>2026-04-26T11:39:54.454Z</time></trkpt><trkpt lat="45.896197" lon="11.5615369"><ele>1080.0</ele><time>2026-04-26T11:39:55.454Z</time></trkpt><trkpt lat="45.8962686" lon="11.561447"><ele>1080.0</ele><time>2026-04-26T11:39:56.454Z</time></trkpt><trkpt lat="45.8963404" lon="11.5613522"><ele>1080.0</ele><time>2026-04-26T11:39:57.454Z</time></trkpt><trkpt lat="45.8964272" lon="11.5612554"><ele>1080.0</ele><time>2026-04-26T11:39:58.454Z</time></trkpt><trkpt lat="45.8965021" lon="11.5612008"><ele>1080.0</ele><time>2026-04-26T11:39:59.454Z</time></trkpt><trkpt lat="45.8966043" lon="11.5611573"><ele>1080.0</ele><time>2026-04-26T11:40:00.454Z</time></trkpt><trkpt lat="45.896838" lon="11.5612142"><ele>1084.5</ele><time>2026-04-26T11:40:02.454Z</time></trkpt><trkpt lat="45.8969656" lon="11.5613145"><ele>1089.0</ele><time>2026-04-26T11:40:03.454Z</time></trkpt><trkpt lat="45.8969809" lon="11.5615564"><ele>1093.5</ele><time>2026-04-26T11:40:04.455Z</time></trkpt><trkpt lat="45.8970614" lon="11.5616935"><ele>1098.0</ele><time>2026-04-26T11:40:05.455Z</time></trkpt><trkpt lat="45.8971415" lon="11.5618299"><ele>1098.0</ele><time>2026-04-26T11:40:06.454Z</time></trkpt><trkpt lat="45.897222" lon="11.5619578"><ele>1098.0</ele><time>2026-04-26T11:40:07.454Z</time></trkpt><trkpt lat="45.8973315" lon="11.5620894"><ele>1098.0</ele><time>2026-04-26T11:40:08.455Z</time></trkpt><trkpt lat="45.8974663" lon="11.5622127"><ele>1098.0</ele><time>2026-04-26T11:40:09.455Z</time></trkpt><trkpt lat="45.8976274" lon="11.5623388"><ele>1098.3333333333333</ele><time>2026-04-26T11:40:10.454Z</time></trkpt><trkpt lat="45.8977924" lon="11.5624778"><ele>1098.6666666666665</ele><time>2026-04-26T11:40:11.454Z</time></trkpt><trkpt lat="45.8979419" lon="11.5626283"><ele>1099.0</ele><time>2026-04-26T11:40:12.454Z</time></trkpt><trkpt lat="45.8980824" lon="11.5627774"><ele>1090.0</ele><time>2026-04-26T11:40:13.454Z</time></trkpt><trkpt lat="45.8982087" lon="11.5629238"><ele>1081.0</ele><time>2026-04-26T11:40:14.454Z</time></trkpt><trkpt lat="45.8983087" lon="11.5630904"><ele>1072.0</ele><time>2026-04-26T11:40:15.454Z</time></trkpt><trkpt lat="45.898407" lon="11.5632596"><ele>1077.0</ele><time>2026-04-26T11:40:16.454Z</time></trkpt><trkpt lat="45.8984859" lon="11.5634311"><ele>1082.0</ele><time>2026-04-26T11:40:17.454Z</time></trkpt><trkpt lat="45.8985579" lon="11.5635917"><ele>1087.0</ele><time>2026-04-26T11:40:18.454Z</time></trkpt><trkpt lat="45.8986368" lon="11.5637492"><ele>1092.0</ele><time>2026-04-26T11:40:19.455Z</time></trkpt><trkpt lat="45.8987147" lon="11.5638909"><ele>1092.0</ele><time>2026-04-26T11:40:20.455Z</time></trkpt><trkpt lat="45.8987964" lon="11.5640232"><ele>1092.0</ele><time>2026-04-26T11:40:21.455Z</time></trkpt><trkpt lat="45.898876" lon="11.5641421"><ele>1092.0</ele><time>2026-04-26T11:40:22.454Z</time></trkpt><trkpt lat="45.8989512" lon="11.5642585"><ele>1092.0</ele><time>2026-04-26T11:40:23.454Z</time></trkpt><trkpt lat="45.8990077" lon="11.5643876"><ele>1092.0</ele><time>2026-04-26T11:40:24.455Z</time></trkpt><trkpt lat="45.899047" lon="11.5645253"><ele>1092.0</ele><time>2026-04-26T11:40:25.454Z</time></trkpt><trkpt lat="45.8990514" lon="11.5646743"><ele>1092.0</ele><time>2026-04-26T11:40:26.454Z</time></trkpt><trkpt lat="45.899039" lon="11.5647942"><ele>1092.0</ele><time>2026-04-26T11:40:27.455Z</time></trkpt><trkpt lat="45.898984" lon="11.5649529"><ele>1092.0</ele><time>2026-04-26T11:40:28.454Z</time></trkpt><trkpt lat="45.8988882" lon="11.5650786"><ele>1091.0</ele><time>2026-04-26T11:40:29.454Z</time></trkpt><trkpt lat="45.8987755" lon="11.5651626"><ele>1090.0</ele><time>2026-04-26T11:40:30.454Z</time></trkpt><trkpt lat="45.8986412" lon="11.5652418"><ele>1089.0</ele><time>2026-04-26T11:40:31.455Z</time></trkpt><trkpt lat="45.8984865" lon="11.5653265"><ele>1088.0</ele><time>2026-04-26T11:40:32.454Z</time></trkpt><trkpt lat="45.8983186" lon="11.5654023"><ele>1088.0</ele><time>2026-04-26T11:40:33.454Z</time></trkpt><trkpt lat="45.8981497" lon="11.5654321"><ele>1088.0</ele><time>2026-04-26T11:40:34.454Z</time></trkpt><trkpt lat="45.8979909" lon="11.5654559"><ele>1088.0</ele><time>2026-04-26T11:40:35.454Z</time></trkpt><trkpt lat="45.8978467" lon="11.5655044"><ele>1088.0</ele><time>2026-04-26T11:40:36.454Z</time></trkpt><trkpt lat="45.8977187" lon="11.5655934"><ele>1088.0</ele><time>2026-04-26T11:40:37.454Z</time></trkpt><trkpt lat="45.8976041" lon="11.5656928"><ele>1088.0</ele><time>2026-04-26T11:40:38.454Z</time></trkpt><trkpt lat="45.8974932" lon="11.5657816"><ele>1088.0</ele><time>2026-04-26T11:40:39.455Z</time></trkpt><trkpt lat="45.89739" lon="11.5658456"><ele>1082.8</ele><time>2026-04-26T11:40:40.455Z</time></trkpt><trkpt lat="45.8973184" lon="11.5659506"><ele>1077.6</ele><time>2026-04-26T11:40:41.454Z</time></trkpt><trkpt lat="45.8972851" lon="11.5660644"><ele>1072.4</ele><time>2026-04-26T11:40:42.455Z</time></trkpt><trkpt lat="45.8972847" lon="11.5661949"><ele>1067.2</ele><time>2026-04-26T11:40:43.454Z</time></trkpt><trkpt lat="45.8973083" lon="11.5663175"><ele>1062.0</ele><time>2026-04-26T11:40:44.455Z</time></trkpt><trkpt lat="45.8973552" lon="11.5664235"><ele>1062.0</ele><time>2026-04-26T11:40:45.455Z</time></trkpt><trkpt lat="45.8974298" lon="11.5665274"><ele>1062.0</ele><time>2026-04-26T11:40:46.454Z</time></trkpt><trkpt lat="45.8975112" lon="11.566621"><ele>1062.0</ele><time>2026-04-26T11:40:47.455Z</time></trkpt><trkpt lat="45.8975898" lon="11.5667166"><ele>1062.0</ele><time>2026-04-26T11:40:48.454Z</time></trkpt><trkpt lat="45.897641" lon="11.5668109"><ele>1062.0</ele><time>2026-04-26T11:40:49.454Z</time></trkpt><trkpt lat="45.897665" lon="11.5668996"><ele>1066.4</ele><time>2026-04-26T11:40:50.454Z</time></trkpt><trkpt lat="45.8976474" lon="11.566996"><ele>1070.8000000000002</ele><time>2026-04-26T11:40:51.454Z</time></trkpt><trkpt lat="45.8976007" lon="11.5670653"><ele>1075.2</ele><time>2026-04-26T11:40:52.454Z</time></trkpt><trkpt lat="45.8975143" lon="11.5671422"><ele>1079.6000000000001</ele><time>2026-04-26T11:40:53.455Z</time></trkpt><trkpt lat="45.8974031" lon="11.5672163"><ele>1084.0</ele><time>2026-04-26T11:40:54.454Z</time></trkpt><trkpt lat="45.8972568" lon="11.5672544"><ele>1084.0</ele><time>2026-04-26T11:40:55.455Z</time></trkpt><trkpt lat="45.8970845" lon="11.5672907"><ele>1084.0</ele><time>2026-04-26T11:40:56.454Z</time></trkpt><trkpt lat="45.8968984" lon="11.5673755"><ele>1084.0</ele><time>2026-04-26T11:40:57.454Z</time></trkpt><trkpt lat="45.8967093" lon="11.5673834"><ele>1079.3333333333333</ele><time>2026-04-26T11:40:58.454Z</time></trkpt><trkpt lat="45.8965266" lon="11.5673598"><ele>1074.6666666666667</ele><time>2026-04-26T11:40:59.454Z</time></trkpt><trkpt lat="45.8963516" lon="11.5673204"><ele>1070.0</ele><time>2026-04-26T11:41:00.454Z</time></trkpt><trkpt lat="45.8961828" lon="11.5673244"><ele>1070.0</ele><time>2026-04-26T11:41:01.454Z</time></trkpt><trkpt lat="45.8960181" lon="11.5673756"><ele>1070.0</ele><time>2026-04-26T11:41:02.454Z</time></trkpt><trkpt lat="45.8958655" lon="11.5674621"><ele>1070.0</ele><time>2026-04-26T11:41:03.454Z</time></trkpt><trkpt lat="45.8957111" lon="11.5675412"><ele>1068.25</ele><time>2026-04-26T11:41:04.454Z</time></trkpt><trkpt lat="45.8955601" lon="11.5676103"><ele>1066.5</ele><time>2026-04-26T11:41:05.454Z</time></trkpt><trkpt lat="45.8954203" lon="11.5676704"><ele>1064.75</ele><time>2026-04-26T11:41:06.454Z</time></trkpt><trkpt lat="45.895278" lon="11.5677068"><ele>1063.0</ele><time>2026-04-26T11:41:07.455Z</time></trkpt><trkpt lat="45.8951366" lon="11.5676858"><ele>1064.0</ele><time>2026-04-26T11:41:08.454Z</time></trkpt><trkpt lat="45.8949951" lon="11.5676242"><ele>1065.0</ele><time>2026-04-26T11:41:09.454Z</time></trkpt><trkpt lat="45.8948625" lon="11.5675365"><ele>1066.0</ele><time>2026-04-26T11:41:10.454Z</time></trkpt><trkpt lat="45.8947285" lon="11.5674359"><ele>1067.0</ele><time>2026-04-26T11:41:11.455Z</time></trkpt><trkpt lat="45.8945965" lon="11.5673307"><ele>1067.0</ele><time>2026-04-26T11:41:12.454Z</time></trkpt><trkpt lat="45.8944652" lon="11.5672626"><ele>1067.0</ele><time>2026-04-26T11:41:13.454Z</time></trkpt><trkpt lat="45.8943325" lon="11.567235"><ele>1067.0</ele><time>2026-04-26T11:41:14.454Z</time></trkpt><trkpt lat="45.8941912" lon="11.5672389"><ele>1067.0</ele><time>2026-04-26T11:41:15.454Z</time></trkpt><trkpt lat="45.894052" lon="11.5672566"><ele>1068.3333333333335</ele><time>2026-04-26T11:41:16.455Z</time></trkpt><trkpt lat="45.8939172" lon="11.5672863"><ele>1069.6666666666667</ele><time>2026-04-26T11:41:17.454Z</time></trkpt><trkpt lat="45.8937476" lon="11.5673331"><ele>1071.0</ele><time>2026-04-26T11:41:18.455Z</time></trkpt><trkpt lat="45.8936169" lon="11.5674275"><ele>1071.0</ele><time>2026-04-26T11:41:19.454Z</time></trkpt><trkpt lat="45.8935037" lon="11.5675545"><ele>1071.0</ele><time>2026-04-26T11:41:20.454Z</time></trkpt><trkpt lat="45.8934172" lon="11.5677285"><ele>1071.0</ele><time>2026-04-26T11:41:21.454Z</time></trkpt><trkpt lat="45.8933453" lon="11.5679167"><ele>1071.0</ele><time>2026-04-26T11:41:22.454Z</time></trkpt><trkpt lat="45.8932724" lon="11.5681013"><ele>1063.3333333333333</ele><time>2026-04-26T11:41:23.455Z</time></trkpt><trkpt lat="45.8932001" lon="11.5682927"><ele>1055.6666666666665</ele><time>2026-04-26T11:41:24.455Z</time></trkpt><trkpt lat="45.893129" lon="11.5684821"><ele>1048.0</ele><time>2026-04-26T11:41:25.454Z</time></trkpt><trkpt lat="45.893047" lon="11.5686652"><ele>1051.0</ele><time>2026-04-26T11:41:26.454Z</time></trkpt><trkpt lat="45.8929656" lon="11.5688479"><ele>1054.0</ele><time>2026-04-26T11:41:27.454Z</time></trkpt><trkpt lat="45.8928862" lon="11.5690307"><ele>1057.0</ele><time>2026-04-26T11:41:28.454Z</time></trkpt><trkpt lat="45.892813" lon="11.5692145"><ele>1060.0</ele><time>2026-04-26T11:41:29.455Z</time></trkpt><trkpt lat="45.8927455" lon="11.569407"><ele>1063.6666666666665</ele><time>2026-04-26T11:41:30.454Z</time></trkpt><trkpt lat="45.8926844" lon="11.5696054"><ele>1067.3333333333333</ele><time>2026-04-26T11:41:31.455Z</time></trkpt><trkpt lat="45.8926277" lon="11.5698093"><ele>1071.0</ele><time>2026-04-26T11:41:32.454Z</time></trkpt><trkpt lat="45.8925751" lon="11.570017"><ele>1064.25</ele><time>2026-04-26T11:41:33.454Z</time></trkpt><trkpt lat="45.8925306" lon="11.5702292"><ele>1057.5</ele><time>2026-04-26T11:41:34.455Z</time></trkpt><trkpt lat="45.8924916" lon="11.5704331"><ele>1050.75</ele><time>2026-04-26T11:41:35.454Z</time></trkpt><trkpt lat="45.8924739" lon="11.5706413"><ele>1044.0</ele><time>2026-04-26T11:41:36.455Z</time></trkpt><trkpt lat="45.8924762" lon="11.5708558"><ele>1044.0</ele><time>2026-04-26T11:41:37.454Z</time></trkpt><trkpt lat="45.8924993" lon="11.5710691"><ele>1044.0</ele><time>2026-04-26T11:41:38.454Z</time></trkpt><trkpt lat="45.8925315" lon="11.5712779"><ele>1044.0</ele><time>2026-04-26T11:41:39.455Z</time></trkpt><trkpt lat="45.8925723" lon="11.5714867"><ele>1044.5</ele><time>2026-04-26T11:41:40.454Z</time></trkpt><trkpt lat="45.8926071" lon="11.5716999"><ele>1045.0</ele><time>2026-04-26T11:41:41.454Z</time></trkpt><trkpt lat="45.8926332" lon="11.5719104"><ele>1045.5</ele><time>2026-04-26T11:41:42.454Z</time></trkpt><trkpt lat="45.8926215" lon="11.5721177"><ele>1046.0</ele><time>2026-04-26T11:41:43.454Z</time></trkpt><trkpt lat="45.8925676" lon="11.5723156"><ele>1046.0</ele><time>2026-04-26T11:41:44.454Z</time></trkpt><trkpt lat="45.8924781" lon="11.5724921"><ele>1046.0</ele><time>2026-04-26T11:41:45.454Z</time></trkpt><trkpt lat="45.8923808" lon="11.5727043"><ele>1046.0</ele><time>2026-04-26T11:41:46.454Z</time></trkpt><trkpt lat="45.8922932" lon="11.572889"><ele>1050.0</ele><time>2026-04-26T11:41:47.455Z</time></trkpt><trkpt lat="45.8922162" lon="11.5730965"><ele>1054.0</ele><time>2026-04-26T11:41:48.455Z</time></trkpt><trkpt lat="45.8921507" lon="11.5733098"><ele>1058.0</ele><time>2026-04-26T11:41:49.454Z</time></trkpt><trkpt lat="45.892096" lon="11.5735086"><ele>1058.25</ele><time>2026-04-26T11:41:50.454Z</time></trkpt><trkpt lat="45.8920562" lon="11.5736937"><ele>1058.5</ele><time>2026-04-26T11:41:51.454Z</time></trkpt><trkpt lat="45.8920438" lon="11.5738919"><ele>1058.75</ele><time>2026-04-26T11:41:52.454Z</time></trkpt><trkpt lat="45.892067" lon="11.5740768"><ele>1059.0</ele><time>2026-04-26T11:41:53.454Z</time></trkpt><trkpt lat="45.8921235" lon="11.5742536"><ele>1059.0</ele><time>2026-04-26T11:41:54.454Z</time></trkpt><trkpt lat="45.8922022" lon="11.5744268"><ele>1059.0</ele><time>2026-04-26T11:41:55.454Z</time></trkpt><trkpt lat="45.8922745" lon="11.5746362"><ele>1059.0</ele><time>2026-04-26T11:41:56.454Z</time></trkpt><trkpt lat="45.8923268" lon="11.5748547"><ele>1059.0</ele><time>2026-04-26T11:41:57.455Z</time></trkpt><trkpt lat="45.8923319" lon="11.5750869"><ele>1059.0</ele><time>2026-04-26T11:41:58.454Z</time></trkpt><trkpt lat="45.8923043" lon="11.5753026"><ele>1059.0</ele><time>2026-04-26T11:41:59.455Z</time></trkpt><trkpt lat="45.892255" lon="11.5755092"><ele>1059.0</ele><time>2026-04-26T11:42:00.455Z</time></trkpt><trkpt lat="45.8922014" lon="11.5757242"><ele>1059.0</ele><time>2026-04-26T11:42:01.454Z</time></trkpt><trkpt lat="45.8921657" lon="11.5759226"><ele>1059.0</ele><time>2026-04-26T11:42:02.455Z</time></trkpt><trkpt lat="45.8921566" lon="11.5761348"><ele>1057.25</ele><time>2026-04-26T11:42:03.455Z</time></trkpt><trkpt lat="45.8921893" lon="11.5763416"><ele>1055.5</ele><time>2026-04-26T11:42:04.454Z</time></trkpt><trkpt lat="45.8922594" lon="11.57653"><ele>1053.75</ele><time>2026-04-26T11:42:05.454Z</time></trkpt><trkpt lat="45.8923394" lon="11.5767069"><ele>1052.0</ele><time>2026-04-26T11:42:06.455Z</time></trkpt><trkpt lat="45.8924446" lon="11.5768752"><ele>1050.6666666666667</ele><time>2026-04-26T11:42:07.454Z</time></trkpt><trkpt lat="45.892522" lon="11.577067"><ele>1049.3333333333333</ele><time>2026-04-26T11:42:08.454Z</time></trkpt><trkpt lat="45.8925679" lon="11.5772718"><ele>1048.0</ele><time>2026-04-26T11:42:09.454Z</time></trkpt><trkpt lat="45.8925995" lon="11.5775019"><ele>1051.5</ele><time>2026-04-26T11:42:10.454Z</time></trkpt><trkpt lat="45.8926166" lon="11.5777165"><ele>1055.0</ele><time>2026-04-26T11:42:11.454Z</time></trkpt><trkpt lat="45.8926235" lon="11.5779173"><ele>1058.5</ele><time>2026-04-26T11:42:12.454Z</time></trkpt><trkpt lat="45.8926123" lon="11.5781015"><ele>1062.0</ele><time>2026-04-26T11:42:13.454Z</time></trkpt><trkpt lat="45.8925503" lon="11.5781758"><ele>1062.0</ele><time>2026-04-26T11:42:14.454Z</time></trkpt><trkpt lat="45.8924718" lon="11.5782547"><ele>1062.0</ele><time>2026-04-26T11:42:15.454Z</time></trkpt><trkpt lat="45.8923654" lon="11.578309"><ele>1062.0</ele><time>2026-04-26T11:42:16.454Z</time></trkpt><trkpt lat="45.8922528" lon="11.5783535"><ele>1062.0</ele><time>2026-04-26T11:42:17.454Z</time></trkpt><trkpt lat="45.8921424" lon="11.5783937"><ele>1062.0</ele><time>2026-04-26T11:42:18.454Z</time></trkpt><trkpt lat="45.8920425" lon="11.5784775"><ele>1062.0</ele><time>2026-04-26T11:42:19.455Z</time></trkpt><trkpt lat="45.8919626" lon="11.5785761"><ele>1062.0</ele><time>2026-04-26T11:42:20.454Z</time></trkpt><trkpt lat="45.8919101" lon="11.5787108"><ele>1062.0</ele><time>2026-04-26T11:42:21.454Z</time></trkpt><trkpt lat="45.8918868" lon="11.5788455"><ele>1062.0</ele><time>2026-04-26T11:42:22.454Z</time></trkpt><trkpt lat="45.8918639" lon="11.5790479"><ele>1065.25</ele><time>2026-04-26T11:42:23.454Z</time></trkpt><trkpt lat="45.8918251" lon="11.5792108"><ele>1068.5</ele><time>2026-04-26T11:42:24.455Z</time></trkpt><trkpt lat="45.8917829" lon="11.5793774"><ele>1071.75</ele><time>2026-04-26T11:42:25.454Z</time></trkpt><trkpt lat="45.8917207" lon="11.5795247"><ele>1075.0</ele><time>2026-04-26T11:42:26.454Z</time></trkpt><trkpt lat="45.8916523" lon="11.5796567"><ele>1068.4</ele><time>2026-04-26T11:42:27.454Z</time></trkpt><trkpt lat="45.8915901" lon="11.5797883"><ele>1061.8</ele><time>2026-04-26T11:42:28.454Z</time></trkpt><trkpt lat="45.891549" lon="11.5799236"><ele>1055.2</ele><time>2026-04-26T11:42:29.455Z</time></trkpt><trkpt lat="45.891517" lon="11.5800646"><ele>1048.6</ele><time>2026-04-26T11:42:30.454Z</time></trkpt><trkpt lat="45.8915447" lon="11.5802222"><ele>1042.0</ele><time>2026-04-26T11:42:31.454Z</time></trkpt><trkpt lat="45.8915969" lon="11.5803609"><ele>1040.75</ele><time>2026-04-26T11:42:32.454Z</time></trkpt><trkpt lat="45.8916661" lon="11.5805061"><ele>1039.5</ele><time>2026-04-26T11:42:33.454Z</time></trkpt><trkpt lat="45.8917322" lon="11.5806536"><ele>1038.25</ele><time>2026-04-26T11:42:34.454Z</time></trkpt><trkpt lat="45.8918094" lon="11.5808125"><ele>1037.0</ele><time>2026-04-26T11:42:35.454Z</time></trkpt><trkpt lat="45.8918785" lon="11.5809874"><ele>1041.5</ele><time>2026-04-26T11:42:36.454Z</time></trkpt><trkpt lat="45.8919385" lon="11.5811718"><ele>1046.0</ele><time>2026-04-26T11:42:37.455Z</time></trkpt><trkpt lat="45.8919974" lon="11.5813653"><ele>1050.5</ele><time>2026-04-26T11:42:38.454Z</time></trkpt><trkpt lat="45.8920627" lon="11.5815592"><ele>1055.0</ele><time>2026-04-26T11:42:39.455Z</time></trkpt><trkpt lat="45.8921277" lon="11.5817653"><ele>1055.0</ele><time>2026-04-26T11:42:40.454Z</time></trkpt><trkpt lat="45.892189" lon="11.5819785"><ele>1055.0</ele><time>2026-04-26T11:42:41.454Z</time></trkpt><trkpt lat="45.8922633" lon="11.582193"><ele>1055.0</ele><time>2026-04-26T11:42:42.455Z</time></trkpt><trkpt lat="45.8923296" lon="11.5824085"><ele>1050.6666666666667</ele><time>2026-04-26T11:42:43.454Z</time></trkpt><trkpt lat="45.8924002" lon="11.5826343"><ele>1046.3333333333333</ele><time>2026-04-26T11:42:44.454Z</time></trkpt><trkpt lat="45.8924665" lon="11.5828419"><ele>1042.0</ele><time>2026-04-26T11:42:45.454Z</time></trkpt><trkpt lat="45.8925308" lon="11.5830457"><ele>1042.75</ele><time>2026-04-26T11:42:46.455Z</time></trkpt><trkpt lat="45.8925898" lon="11.5832385"><ele>1043.5</ele><time>2026-04-26T11:42:47.455Z</time></trkpt><trkpt lat="45.892647" lon="11.5834035"><ele>1044.25</ele><time>2026-04-26T11:42:48.454Z</time></trkpt><trkpt lat="45.8927261" lon="11.5835479"><ele>1045.0</ele><time>2026-04-26T11:42:49.454Z</time></trkpt><trkpt lat="45.8928355" lon="11.583666"><ele>1040.6666666666665</ele><time>2026-04-26T11:42:50.454Z</time></trkpt><trkpt lat="45.8929502" lon="11.5837669"><ele>1036.3333333333333</ele><time>2026-04-26T11:42:51.454Z</time></trkpt><trkpt lat="45.893122" lon="11.5837934"><ele>1032.0</ele><time>2026-04-26T11:42:52.454Z</time></trkpt><trkpt lat="45.8932704" lon="11.5838423"><ele>1032.0</ele><time>2026-04-26T11:42:53.454Z</time></trkpt><trkpt lat="45.8933964" lon="11.5839154"><ele>1032.0</ele><time>2026-04-26T11:42:54.454Z</time></trkpt><trkpt lat="45.8935195" lon="11.5840048"><ele>1032.0</ele><time>2026-04-26T11:42:55.454Z</time></trkpt><trkpt lat="45.8936152" lon="11.584172"><ele>1032.0</ele><time>2026-04-26T11:42:56.454Z</time></trkpt><trkpt lat="45.8936659" lon="11.5843685"><ele>1041.0</ele><time>2026-04-26T11:42:57.455Z</time></trkpt><trkpt lat="45.8936975" lon="11.5845952"><ele>1050.0</ele><time>2026-04-26T11:42:58.454Z</time></trkpt><trkpt lat="45.8937297" lon="11.5848376"><ele>1059.0</ele><time>2026-04-26T11:42:59.454Z</time></trkpt><trkpt lat="45.8937645" lon="11.5850868"><ele>1059.0</ele><time>2026-04-26T11:43:00.455Z</time></trkpt><trkpt lat="45.8937932" lon="11.5853248"><ele>1059.0</ele><time>2026-04-26T11:43:01.454Z</time></trkpt><trkpt lat="45.8938268" lon="11.5855718"><ele>1059.0</ele><time>2026-04-26T11:43:02.454Z</time></trkpt><trkpt lat="45.893853" lon="11.5858167"><ele>1055.0</ele><time>2026-04-26T11:43:03.454Z</time></trkpt><trkpt lat="45.8938836" lon="11.5860556"><ele>1051.0</ele><time>2026-04-26T11:43:04.454Z</time></trkpt><trkpt lat="45.8939323" lon="11.5862937"><ele>1047.0</ele><time>2026-04-26T11:43:05.455Z</time></trkpt><trkpt lat="45.8939807" lon="11.5865311"><ele>1042.0</ele><time>2026-04-26T11:43:06.454Z</time></trkpt><trkpt lat="45.8940419" lon="11.586759"><ele>1037.0</ele><time>2026-04-26T11:43:07.454Z</time></trkpt><trkpt lat="45.8941146" lon="11.5869801"><ele>1032.0</ele><time>2026-04-26T11:43:08.454Z</time></trkpt><trkpt lat="45.8941982" lon="11.5871782"><ele>1036.0</ele><time>2026-04-26T11:43:09.454Z</time></trkpt><trkpt lat="45.8942972" lon="11.5873713"><ele>1040.0</ele><time>2026-04-26T11:43:10.455Z</time></trkpt><trkpt lat="45.8944024" lon="11.5875638"><ele>1044.0</ele><time>2026-04-26T11:43:11.454Z</time></trkpt><trkpt lat="45.8945048" lon="11.5877537"><ele>1041.3333333333333</ele><time>2026-04-26T11:43:12.454Z</time></trkpt><trkpt lat="45.8945712" lon="11.5879768"><ele>1038.6666666666665</ele><time>2026-04-26T11:43:13.454Z</time></trkpt><trkpt lat="45.8946247" lon="11.5882209"><ele>1036.0</ele><time>2026-04-26T11:43:14.454Z</time></trkpt><trkpt lat="45.8946644" lon="11.5884486"><ele>1036.0</ele><time>2026-04-26T11:43:15.454Z</time></trkpt><trkpt lat="45.8947012" lon="11.5886746"><ele>1036.0</ele><time>2026-04-26T11:43:16.454Z</time></trkpt><trkpt lat="45.8947198" lon="11.5889173"><ele>1036.0</ele><time>2026-04-26T11:43:17.454Z</time></trkpt><trkpt lat="45.8946987" lon="11.5891712"><ele>1036.6666666666665</ele><time>2026-04-26T11:43:18.455Z</time></trkpt><trkpt lat="45.8946774" lon="11.5894309"><ele>1037.3333333333333</ele><time>2026-04-26T11:43:19.454Z</time></trkpt><trkpt lat="45.8946648" lon="11.589681"><ele>1038.0</ele><time>2026-04-26T11:43:20.454Z</time></trkpt><trkpt lat="45.894655" lon="11.5899466"><ele>1038.3333333333333</ele><time>2026-04-26T11:43:21.455Z</time></trkpt><trkpt lat="45.8946506" lon="11.590221"><ele>1038.6666666666665</ele><time>2026-04-26T11:43:22.455Z</time></trkpt><trkpt lat="45.8946492" lon="11.5904901"><ele>1039.0</ele><time>2026-04-26T11:43:23.454Z</time></trkpt><trkpt lat="45.8946528" lon="11.5907616"><ele>1039.0</ele><time>2026-04-26T11:43:24.454Z</time></trkpt><trkpt lat="45.8946534" lon="11.5910037"><ele>1039.0</ele><time>2026-04-26T11:43:25.454Z</time></trkpt><trkpt lat="45.89465" lon="11.591239"><ele>1039.0</ele><time>2026-04-26T11:43:26.454Z</time></trkpt><trkpt lat="45.8946518" lon="11.5914651"><ele>1038.0</ele><time>2026-04-26T11:43:27.454Z</time></trkpt><trkpt lat="45.8946522" lon="11.5916775"><ele>1037.0</ele><time>2026-04-26T11:43:28.454Z</time></trkpt><trkpt lat="45.8946544" lon="11.5918842"><ele>1036.0</ele><time>2026-04-26T11:43:29.454Z</time></trkpt><trkpt lat="45.8946519" lon="11.5920823"><ele>1035.0</ele><time>2026-04-26T11:43:30.455Z</time></trkpt><trkpt lat="45.8946591" lon="11.5922868"><ele>1034.5</ele><time>2026-04-26T11:43:31.454Z</time></trkpt><trkpt lat="45.8946931" lon="11.5924813"><ele>1034.0</ele><time>2026-04-26T11:43:32.455Z</time></trkpt><trkpt lat="45.8947304" lon="11.5926852"><ele>1033.5</ele><time>2026-04-26T11:43:33.454Z</time></trkpt><trkpt lat="45.8947724" lon="11.5928681"><ele>1033.0</ele><time>2026-04-26T11:43:34.454Z</time></trkpt><trkpt lat="45.8948189" lon="11.593047"><ele>1030.5</ele><time>2026-04-26T11:43:35.454Z</time></trkpt><trkpt lat="45.8948629" lon="11.5932425"><ele>1028.0</ele><time>2026-04-26T11:43:36.455Z</time></trkpt><trkpt lat="45.89492" lon="11.5934141"><ele>1025.5</ele><time>2026-04-26T11:43:37.455Z</time></trkpt><trkpt lat="45.8949839" lon="11.5936142"><ele>1023.0</ele><time>2026-04-26T11:43:38.455Z</time></trkpt><trkpt lat="45.8950288" lon="11.5938055"><ele>1021.5</ele><time>2026-04-26T11:43:39.454Z</time></trkpt><trkpt lat="45.8950487" lon="11.594015"><ele>1020.0</ele><time>2026-04-26T11:43:40.454Z</time></trkpt><trkpt lat="45.8950569" lon="11.5941986"><ele>1018.5</ele><time>2026-04-26T11:43:41.454Z</time></trkpt><trkpt lat="45.8950372" lon="11.5943972"><ele>1017.0</ele><time>2026-04-26T11:43:42.455Z</time></trkpt><trkpt lat="45.8950198" lon="11.5946073"><ele>1016.75</ele><time>2026-04-26T11:43:43.454Z</time></trkpt><trkpt lat="45.8950039" lon="11.5947937"><ele>1016.5</ele><time>2026-04-26T11:43:44.454Z</time></trkpt><trkpt lat="45.8950018" lon="11.59498"><ele>1016.25</ele><time>2026-04-26T11:43:45.454Z</time></trkpt><trkpt lat="45.8950164" lon="11.5951757"><ele>1016.0</ele><time>2026-04-26T11:43:46.455Z</time></trkpt><trkpt lat="45.8950388" lon="11.5953781"><ele>1024.5</ele><time>2026-04-26T11:43:47.455Z</time></trkpt><trkpt lat="45.8950893" lon="11.5955698"><ele>1033.0</ele><time>2026-04-26T11:43:48.454Z</time></trkpt><trkpt lat="45.8951469" lon="11.5957516"><ele>1041.5</ele><time>2026-04-26T11:43:49.455Z</time></trkpt><trkpt lat="45.8952202" lon="11.5959514"><ele>1050.0</ele><time>2026-04-26T11:43:50.455Z</time></trkpt><trkpt lat="45.8952744" lon="11.5961324"><ele>1046.75</ele><time>2026-04-26T11:43:51.455Z</time></trkpt><trkpt lat="45.8953406" lon="11.5963229"><ele>1043.5</ele><time>2026-04-26T11:43:52.454Z</time></trkpt><trkpt lat="45.8953886" lon="11.5964937"><ele>1040.25</ele><time>2026-04-26T11:43:53.455Z</time></trkpt><trkpt lat="45.895425" lon="11.5967116"><ele>1037.0</ele><time>2026-04-26T11:43:54.454Z</time></trkpt><trkpt lat="45.895457" lon="11.5969252"><ele>1035.3333333333335</ele><time>2026-04-26T11:43:55.455Z</time></trkpt><trkpt lat="45.8954648" lon="11.5971659"><ele>1033.6666666666667</ele><time>2026-04-26T11:43:56.454Z</time></trkpt><trkpt lat="45.8954706" lon="11.5974317"><ele>1032.0</ele><time>2026-04-26T11:43:57.454Z</time></trkpt><trkpt lat="45.8954817" lon="11.5977159"><ele>1033.0</ele><time>2026-04-26T11:43:58.454Z</time></trkpt><trkpt lat="45.89547" lon="11.5980173"><ele>1034.0</ele><time>2026-04-26T11:43:59.455Z</time></trkpt><trkpt lat="45.8954528" lon="11.598324"><ele>1035.0</ele><time>2026-04-26T11:44:00.454Z</time></trkpt><trkpt lat="45.8954155" lon="11.5986511"><ele>1035.3333333333333</ele><time>2026-04-26T11:44:01.454Z</time></trkpt><trkpt lat="45.8953769" lon="11.5989743"><ele>1035.6666666666665</ele><time>2026-04-26T11:44:02.454Z</time></trkpt><trkpt lat="45.8953268" lon="11.5992359"><ele>1036.0</ele><time>2026-04-26T11:44:03.454Z</time></trkpt><trkpt lat="45.8952703" lon="11.5994954"><ele>1035.0</ele><time>2026-04-26T11:44:04.455Z</time></trkpt><trkpt lat="45.8952158" lon="11.5997369"><ele>1034.0</ele><time>2026-04-26T11:44:05.454Z</time></trkpt><trkpt lat="45.8951848" lon="11.5999611"><ele>1033.0</ele><time>2026-04-26T11:44:06.454Z</time></trkpt><trkpt lat="45.8951262" lon="11.6001762"><ele>1027.5</ele><time>2026-04-26T11:44:07.454Z</time></trkpt><trkpt lat="45.8950965" lon="11.6003893"><ele>1022.0</ele><time>2026-04-26T11:44:08.454Z</time></trkpt><trkpt lat="45.8950978" lon="11.6005565"><ele>1016.5</ele><time>2026-04-26T11:44:09.454Z</time></trkpt><trkpt lat="45.8951389" lon="11.6007611"><ele>1011.0</ele><time>2026-04-26T11:44:10.454Z</time></trkpt><trkpt lat="45.8952227" lon="11.6008985"><ele>1011.0</ele><time>2026-04-26T11:44:11.454Z</time></trkpt><trkpt lat="45.8953154" lon="11.6010085"><ele>1011.0</ele><time>2026-04-26T11:44:12.454Z</time></trkpt><trkpt lat="45.8954477" lon="11.6010972"><ele>1011.0</ele><time>2026-04-26T11:44:13.454Z</time></trkpt><trkpt lat="45.8955795" lon="11.601168"><ele>1011.0</ele><time>2026-04-26T11:44:14.454Z</time></trkpt><trkpt lat="45.8957051" lon="11.6011983"><ele>1013.0</ele><time>2026-04-26T11:44:15.454Z</time></trkpt><trkpt lat="45.8958317" lon="11.6012158"><ele>1015.0</ele><time>2026-04-26T11:44:16.454Z</time></trkpt><trkpt lat="45.8959456" lon="11.6012608"><ele>1017.0</ele><time>2026-04-26T11:44:17.454Z</time></trkpt><trkpt lat="45.8960442" lon="11.6013111"><ele>1019.0</ele><time>2026-04-26T11:44:18.454Z</time></trkpt><trkpt lat="45.8961217" lon="11.6014266"><ele>1019.0</ele><time>2026-04-26T11:44:19.455Z</time></trkpt><trkpt lat="45.8961827" lon="11.6015487"><ele>1019.0</ele><time>2026-04-26T11:44:20.454Z</time></trkpt><trkpt lat="45.8961893" lon="11.6016982"><ele>1019.0</ele><time>2026-04-26T11:44:21.454Z</time></trkpt><trkpt lat="45.8961547" lon="11.6018665"><ele>1019.0</ele><time>2026-04-26T11:44:22.454Z</time></trkpt><trkpt lat="45.8961049" lon="11.6020343"><ele>1027.0</ele><time>2026-04-26T11:44:23.455Z</time></trkpt><trkpt lat="45.8960536" lon="11.6022154"><ele>1035.0</ele><time>2026-04-26T11:44:24.454Z</time></trkpt><trkpt lat="45.8959926" lon="11.6024263"><ele>1043.0</ele><time>2026-04-26T11:44:25.454Z</time></trkpt><trkpt lat="45.8959237" lon="11.6026448"><ele>1032.0</ele><time>2026-04-26T11:44:26.454Z</time></trkpt><trkpt lat="45.895862" lon="11.6028561"><ele>1021.0</ele><time>2026-04-26T11:44:27.454Z</time></trkpt><trkpt lat="45.8958083" lon="11.6030525"><ele>1010.0</ele><time>2026-04-26T11:44:28.454Z</time></trkpt><trkpt lat="45.8957426" lon="11.6032708"><ele>1010.0</ele><time>2026-04-26T11:44:29.455Z</time></trkpt><trkpt lat="45.8956793" lon="11.6034786"><ele>1010.0</ele><time>2026-04-26T11:44:30.455Z</time></trkpt><trkpt lat="45.8956133" lon="11.6037057"><ele>1010.0</ele><time>2026-04-26T11:44:31.455Z</time></trkpt><trkpt lat="45.8955391" lon="11.6039168"><ele>1020.6666666666667</ele><time>2026-04-26T11:44:32.454Z</time></trkpt><trkpt lat="45.895447" lon="11.6041152"><ele>1031.3333333333333</ele><time>2026-04-26T11:44:33.454Z</time></trkpt><trkpt lat="45.8953369" lon="11.6042929"><ele>1042.0</ele><time>2026-04-26T11:44:34.454Z</time></trkpt><trkpt lat="45.8952107" lon="11.6044558"><ele>1034.3333333333333</ele><time>2026-04-26T11:44:35.455Z</time></trkpt><trkpt lat="45.8950802" lon="11.6046283"><ele>1026.6666666666667</ele><time>2026-04-26T11:44:36.455Z</time></trkpt><trkpt lat="45.8949494" lon="11.6047891"><ele>1019.0</ele><time>2026-04-26T11:44:37.455Z</time></trkpt><trkpt lat="45.8948307" lon="11.6049622"><ele>1019.0</ele><time>2026-04-26T11:44:38.455Z</time></trkpt><trkpt lat="45.8947367" lon="11.6052048"><ele>1019.0</ele><time>2026-04-26T11:44:39.454Z</time></trkpt><trkpt lat="45.8946647" lon="11.6054314"><ele>1019.0</ele><time>2026-04-26T11:44:40.455Z</time></trkpt><trkpt lat="45.8946162" lon="11.6056607"><ele>1024.6666666666667</ele><time>2026-04-26T11:44:41.455Z</time></trkpt><trkpt lat="45.8945823" lon="11.6058798"><ele>1030.3333333333333</ele><time>2026-04-26T11:44:42.455Z</time></trkpt><trkpt lat="45.894593" lon="11.6061262"><ele>1036.0</ele><time>2026-04-26T11:44:43.454Z</time></trkpt><trkpt lat="45.8945903" lon="11.6063539"><ele>1036.0</ele><time>2026-04-26T11:44:44.454Z</time></trkpt><trkpt lat="45.894601" lon="11.6065679"><ele>1036.0</ele><time>2026-04-26T11:44:45.454Z</time></trkpt><trkpt lat="45.8945989" lon="11.6067901"><ele>1036.0</ele><time>2026-04-26T11:44:46.455Z</time></trkpt><trkpt lat="45.8946068" lon="11.6070255"><ele>1035.3333333333333</ele><time>2026-04-26T11:44:47.454Z</time></trkpt><trkpt lat="45.8945999" lon="11.6072661"><ele>1034.6666666666667</ele><time>2026-04-26T11:44:48.454Z</time></trkpt><trkpt lat="45.8945612" lon="11.6075179"><ele>1034.0</ele><time>2026-04-26T11:44:49.454Z</time></trkpt><trkpt lat="45.8945241" lon="11.6077466"><ele>1034.6666666666667</ele><time>2026-04-26T11:44:50.455Z</time></trkpt><trkpt lat="45.8944935" lon="11.6079909"><ele>1035.3333333333333</ele><time>2026-04-26T11:44:51.455Z</time></trkpt><trkpt lat="45.8944941" lon="11.6082459"><ele>1036.0</ele><time>2026-04-26T11:44:52.454Z</time></trkpt><trkpt lat="45.8944897" lon="11.6085037"><ele>1037.3333333333333</ele><time>2026-04-26T11:44:53.454Z</time></trkpt><trkpt lat="45.8944835" lon="11.6087669"><ele>1038.6666666666667</ele><time>2026-04-26T11:44:54.454Z</time></trkpt><trkpt lat="45.8944715" lon="11.6090324"><ele>1040.0</ele><time>2026-04-26T11:44:55.454Z</time></trkpt><trkpt lat="45.8944526" lon="11.6092916"><ele>1045.6666666666667</ele><time>2026-04-26T11:44:56.454Z</time></trkpt><trkpt lat="45.8943917" lon="11.609532"><ele>1051.3333333333333</ele><time>2026-04-26T11:44:57.454Z</time></trkpt><trkpt lat="45.8943172" lon="11.609784"><ele>1057.0</ele><time>2026-04-26T11:44:58.454Z</time></trkpt><trkpt lat="45.8942136" lon="11.6099943"><ele>1054.0</ele><time>2026-04-26T11:44:59.455Z</time></trkpt><trkpt lat="45.8941009" lon="11.61019"><ele>1051.0</ele><time>2026-04-26T11:45:00.454Z</time></trkpt><trkpt lat="45.8939764" lon="11.6103582"><ele>1048.0</ele><time>2026-04-26T11:45:01.454Z</time></trkpt><trkpt lat="45.8938452" lon="11.6105206"><ele>1048.0</ele><time>2026-04-26T11:45:02.454Z</time></trkpt><trkpt lat="45.8936898" lon="11.6106481"><ele>1048.0</ele><time>2026-04-26T11:45:03.454Z</time></trkpt><trkpt lat="45.8935269" lon="11.6107787"><ele>1048.0</ele><time>2026-04-26T11:45:04.454Z</time></trkpt><trkpt lat="45.8933521" lon="11.6109021"><ele>1038.3333333333333</ele><time>2026-04-26T11:45:05.454Z</time></trkpt><trkpt lat="45.8931869" lon="11.6110058"><ele>1028.6666666666667</ele><time>2026-04-26T11:45:06.454Z</time></trkpt><trkpt lat="45.8930059" lon="11.6110784"><ele>1019.0</ele><time>2026-04-26T11:45:07.455Z</time></trkpt><trkpt lat="45.8928192" lon="11.6111477"><ele>1019.0</ele><time>2026-04-26T11:45:08.454Z</time></trkpt><trkpt lat="45.8926469" lon="11.6112111"><ele>1019.0</ele><time>2026-04-26T11:45:09.455Z</time></trkpt><trkpt lat="45.8924691" lon="11.6112996"><ele>1019.0</ele><time>2026-04-26T11:45:10.454Z</time></trkpt><trkpt lat="45.8923207" lon="11.6114129"><ele>1019.0</ele><time>2026-04-26T11:45:11.455Z</time></trkpt><trkpt lat="45.8921816" lon="11.6115516"><ele>1019.0</ele><time>2026-04-26T11:45:12.454Z</time></trkpt><trkpt lat="45.8920774" lon="11.6117361"><ele>1019.0</ele><time>2026-04-26T11:45:13.454Z</time></trkpt><trkpt lat="45.8919884" lon="11.6119398"><ele>1023.0</ele><time>2026-04-26T11:45:14.454Z</time></trkpt><trkpt lat="45.8919449" lon="11.612164"><ele>1027.0</ele><time>2026-04-26T11:45:15.454Z</time></trkpt><trkpt lat="45.8919362" lon="11.6123794"><ele>1031.0</ele><time>2026-04-26T11:45:16.454Z</time></trkpt><trkpt lat="45.8919653" lon="11.6126178"><ele>1031.6666666666667</ele><time>2026-04-26T11:45:17.455Z</time></trkpt><trkpt lat="45.8920126" lon="11.6128502"><ele>1032.3333333333333</ele><time>2026-04-26T11:45:18.454Z</time></trkpt><trkpt lat="45.8920737" lon="11.6130877"><ele>1033.0</ele><time>2026-04-26T11:45:19.455Z</time></trkpt><trkpt lat="45.8921419" lon="11.6133342"><ele>1033.0</ele><time>2026-04-26T11:45:20.454Z</time></trkpt><trkpt lat="45.8921875" lon="11.6135826"><ele>1033.0</ele><time>2026-04-26T11:45:21.454Z</time></trkpt><trkpt lat="45.8922142" lon="11.6138437"><ele>1033.0</ele><time>2026-04-26T11:45:22.455Z</time></trkpt><trkpt lat="45.8922198" lon="11.6141068"><ele>1032.6666666666665</ele><time>2026-04-26T11:45:23.455Z</time></trkpt><trkpt lat="45.8922016" lon="11.6143635"><ele>1032.3333333333333</ele><time>2026-04-26T11:45:24.454Z</time></trkpt><trkpt lat="45.8921477" lon="11.6146063"><ele>1032.0</ele><time>2026-04-26T11:45:25.455Z</time></trkpt><trkpt lat="45.8920763" lon="11.6148323"><ele>1032.0</ele><time>2026-04-26T11:45:26.454Z</time></trkpt><trkpt lat="45.8919816" lon="11.6150447"><ele>1032.0</ele><time>2026-04-26T11:45:27.454Z</time></trkpt><trkpt lat="45.8918711" lon="11.6152282"><ele>1032.0</ele><time>2026-04-26T11:45:28.454Z</time></trkpt><trkpt lat="45.8917369" lon="11.6153902"><ele>1029.0</ele><time>2026-04-26T11:45:29.454Z</time></trkpt><trkpt lat="45.8915894" lon="11.6155383"><ele>1026.0</ele><time>2026-04-26T11:45:30.454Z</time></trkpt><trkpt lat="45.8914444" lon="11.6156682"><ele>1023.0</ele><time>2026-04-26T11:45:31.454Z</time></trkpt><trkpt lat="45.8913019" lon="11.6157713"><ele>1023.0</ele><time>2026-04-26T11:45:32.455Z</time></trkpt><trkpt lat="45.8911783" lon="11.6158552"><ele>1023.0</ele><time>2026-04-26T11:45:33.454Z</time></trkpt><trkpt lat="45.8910553" lon="11.6159264"><ele>1023.0</ele><time>2026-04-26T11:45:34.455Z</time></trkpt><trkpt lat="45.8909343" lon="11.6159985"><ele>1023.0</ele><time>2026-04-26T11:45:35.454Z</time></trkpt><trkpt lat="45.8908324" lon="11.6161104"><ele>1020.75</ele><time>2026-04-26T11:45:36.454Z</time></trkpt><trkpt lat="45.890751" lon="11.6162367"><ele>1018.5</ele><time>2026-04-26T11:45:37.454Z</time></trkpt><trkpt lat="45.8907137" lon="11.616391"><ele>1016.25</ele><time>2026-04-26T11:45:38.454Z</time></trkpt><trkpt lat="45.8907061" lon="11.6165543"><ele>1014.0</ele><time>2026-04-26T11:45:39.455Z</time></trkpt><trkpt lat="45.8907518" lon="11.6167129"><ele>1014.0</ele><time>2026-04-26T11:45:40.454Z</time></trkpt><trkpt lat="45.8908362" lon="11.6168337"><ele>1014.0</ele><time>2026-04-26T11:45:41.454Z</time></trkpt><trkpt lat="45.8909418" lon="11.6169007"><ele>1014.0</ele><time>2026-04-26T11:45:42.454Z</time></trkpt><trkpt lat="45.8910604" lon="11.6169055"><ele>1014.0</ele><time>2026-04-26T11:45:43.454Z</time></trkpt><trkpt lat="45.8911886" lon="11.6168785"><ele>1016.0</ele><time>2026-04-26T11:45:44.454Z</time></trkpt><trkpt lat="45.8913513" lon="11.6168035"><ele>1018.0</ele><time>2026-04-26T11:45:45.454Z</time></trkpt><trkpt lat="45.8915048" lon="11.6167714"><ele>1020.0</ele><time>2026-04-26T11:45:46.454Z</time></trkpt><trkpt lat="45.8916399" lon="11.6167168"><ele>1016.75</ele><time>2026-04-26T11:45:47.454Z</time></trkpt><trkpt lat="45.891787" lon="11.6166516"><ele>1013.5</ele><time>2026-04-26T11:45:48.454Z</time></trkpt><trkpt lat="45.8919196" lon="11.6166191"><ele>1010.25</ele><time>2026-04-26T11:45:49.454Z</time></trkpt><trkpt lat="45.8920741" lon="11.6165623"><ele>1007.0</ele><time>2026-04-26T11:45:50.455Z</time></trkpt><trkpt lat="45.8922686" lon="11.6163922"><ele>1007.0</ele><time>2026-04-26T11:45:51.455Z</time></trkpt><trkpt lat="45.8924331" lon="11.6162812"><ele>1007.0</ele><time>2026-04-26T11:45:52.455Z</time></trkpt><trkpt lat="45.8926094" lon="11.616122"><ele>1007.0</ele><time>2026-04-26T11:45:53.455Z</time></trkpt><trkpt lat="45.8927594" lon="11.6159798"><ele>1008.0</ele><time>2026-04-26T11:45:54.454Z</time></trkpt><trkpt lat="45.8929125" lon="11.6158269"><ele>1009.0</ele><time>2026-04-26T11:45:55.454Z</time></trkpt><trkpt lat="45.8930691" lon="11.6156585"><ele>1010.0</ele><time>2026-04-26T11:45:56.454Z</time></trkpt><trkpt lat="45.8932143" lon="11.6154881"><ele>1015.3333333333334</ele><time>2026-04-26T11:45:57.454Z</time></trkpt><trkpt lat="45.8933734" lon="11.6152998"><ele>1020.6666666666667</ele><time>2026-04-26T11:45:58.455Z</time></trkpt><trkpt lat="45.8935313" lon="11.6151508"><ele>1026.0</ele><time>2026-04-26T11:45:59.454Z</time></trkpt><trkpt lat="45.8936975" lon="11.6150299"><ele>1026.0</ele><time>2026-04-26T11:46:00.454Z</time></trkpt><trkpt lat="45.8938835" lon="11.614996"><ele>1026.0</ele><time>2026-04-26T11:46:01.454Z</time></trkpt><trkpt lat="45.8940729" lon="11.6150376"><ele>1026.0</ele><time>2026-04-26T11:46:02.455Z</time></trkpt><trkpt lat="45.894264" lon="11.6151155"><ele>1021.6666666666667</ele><time>2026-04-26T11:46:03.454Z</time></trkpt><trkpt lat="45.8944615" lon="11.6152062"><ele>1017.3333333333334</ele><time>2026-04-26T11:46:04.454Z</time></trkpt><trkpt lat="45.8946575" lon="11.6153066"><ele>1013.0</ele><time>2026-04-26T11:46:05.454Z</time></trkpt><trkpt lat="45.8948437" lon="11.6154149"><ele>1013.0</ele><time>2026-04-26T11:46:06.454Z</time></trkpt><trkpt lat="45.895038" lon="11.6155246"><ele>1013.0</ele><time>2026-04-26T11:46:07.454Z</time></trkpt><trkpt lat="45.8952248" lon="11.6156514"><ele>1013.0</ele><time>2026-04-26T11:46:08.454Z</time></trkpt><trkpt lat="45.895402" lon="11.6157884"><ele>1012.6666666666667</ele><time>2026-04-26T11:46:09.455Z</time></trkpt><trkpt lat="45.8955735" lon="11.6159433"><ele>1012.3333333333333</ele><time>2026-04-26T11:46:10.454Z</time></trkpt><trkpt lat="45.8957342" lon="11.616111"><ele>1012.0</ele><time>2026-04-26T11:46:11.454Z</time></trkpt><trkpt lat="45.89589" lon="11.616272"><ele>1020.6666666666666</ele><time>2026-04-26T11:46:12.454Z</time></trkpt><trkpt lat="45.8960487" lon="11.6164365"><ele>1029.3333333333333</ele><time>2026-04-26T11:46:13.455Z</time></trkpt><trkpt lat="45.8962167" lon="11.6165901"><ele>1038.0</ele><time>2026-04-26T11:46:14.454Z</time></trkpt><trkpt lat="45.8963738" lon="11.6167491"><ele>1038.0</ele><time>2026-04-26T11:46:15.454Z</time></trkpt><trkpt lat="45.8965322" lon="11.6169179"><ele>1038.0</ele><time>2026-04-26T11:46:16.454Z</time></trkpt><trkpt lat="45.896692" lon="11.6170904"><ele>1038.0</ele><time>2026-04-26T11:46:17.454Z</time></trkpt><trkpt lat="45.8968505" lon="11.617261"><ele>1036.6666666666667</ele><time>2026-04-26T11:46:18.454Z</time></trkpt><trkpt lat="45.8970285" lon="11.6173976"><ele>1035.3333333333335</ele><time>2026-04-26T11:46:19.454Z</time></trkpt><trkpt lat="45.8972204" lon="11.6174933"><ele>1034.0</ele><time>2026-04-26T11:46:20.455Z</time></trkpt><trkpt lat="45.89741" lon="11.6175471"><ele>1041.6666666666667</ele><time>2026-04-26T11:46:21.455Z</time></trkpt><trkpt lat="45.8975879" lon="11.6175909"><ele>1049.3333333333333</ele><time>2026-04-26T11:46:22.454Z</time></trkpt><trkpt lat="45.8977626" lon="11.6176395"><ele>1057.0</ele><time>2026-04-26T11:46:23.454Z</time></trkpt><trkpt lat="45.8979146" lon="11.6177916"><ele>1050.3333333333333</ele><time>2026-04-26T11:46:24.455Z</time></trkpt><trkpt lat="45.8980233" lon="11.6180116"><ele>1043.6666666666667</ele><time>2026-04-26T11:46:25.454Z</time></trkpt><trkpt lat="45.8981336" lon="11.6182563"><ele>1037.0</ele><time>2026-04-26T11:46:26.455Z</time></trkpt><trkpt lat="45.8982501" lon="11.61849"><ele>1039.3333333333335</ele><time>2026-04-26T11:46:27.455Z</time></trkpt><trkpt lat="45.8983801" lon="11.6187224"><ele>1041.6666666666667</ele><time>2026-04-26T11:46:28.454Z</time></trkpt><trkpt lat="45.8985249" lon="11.6189495"><ele>1044.0</ele><time>2026-04-26T11:46:29.455Z</time></trkpt><trkpt lat="45.8986691" lon="11.6191617"><ele>1044.0</ele><time>2026-04-26T11:46:30.454Z</time></trkpt><trkpt lat="45.8988214" lon="11.6193861"><ele>1044.0</ele><time>2026-04-26T11:46:31.454Z</time></trkpt><trkpt lat="45.8989704" lon="11.6196101"><ele>1044.0</ele><time>2026-04-26T11:46:32.454Z</time></trkpt><trkpt lat="45.8991226" lon="11.6198332"><ele>1044.3333333333333</ele><time>2026-04-26T11:46:33.454Z</time></trkpt><trkpt lat="45.8992761" lon="11.6200472"><ele>1044.6666666666665</ele><time>2026-04-26T11:46:34.454Z</time></trkpt><trkpt lat="45.8994301" lon="11.6202639"><ele>1045.0</ele><time>2026-04-26T11:46:35.454Z</time></trkpt><trkpt lat="45.8995837" lon="11.6204695"><ele>1041.6666666666665</ele><time>2026-04-26T11:46:36.454Z</time></trkpt><trkpt lat="45.8997327" lon="11.6206851"><ele>1038.3333333333333</ele><time>2026-04-26T11:46:37.454Z</time></trkpt><trkpt lat="45.8998827" lon="11.6208898"><ele>1035.0</ele><time>2026-04-26T11:46:38.455Z</time></trkpt><trkpt lat="45.9000296" lon="11.6211003"><ele>1043.3333333333333</ele><time>2026-04-26T11:46:39.455Z</time></trkpt><trkpt lat="45.9001834" lon="11.6212998"><ele>1051.6666666666665</ele><time>2026-04-26T11:46:40.454Z</time></trkpt><trkpt lat="45.9003219" lon="11.6215008"><ele>1060.0</ele><time>2026-04-26T11:46:41.454Z</time></trkpt><trkpt lat="45.9004562" lon="11.6217145"><ele>1060.0</ele><time>2026-04-26T11:46:42.455Z</time></trkpt><trkpt lat="45.9005651" lon="11.6219429"><ele>1060.0</ele><time>2026-04-26T11:46:43.455Z</time></trkpt><trkpt lat="45.9006481" lon="11.6222073"><ele>1060.0</ele><time>2026-04-26T11:46:44.454Z</time></trkpt><trkpt lat="45.900681" lon="11.6224732"><ele>1058.3333333333333</ele><time>2026-04-26T11:46:45.454Z</time></trkpt><trkpt lat="45.9006891" lon="11.6227528"><ele>1056.6666666666667</ele><time>2026-04-26T11:46:46.454Z</time></trkpt><trkpt lat="45.9006662" lon="11.6230303"><ele>1055.0</ele><time>2026-04-26T11:46:47.454Z</time></trkpt><trkpt lat="45.9006311" lon="11.623307"><ele>1053.6666666666667</ele><time>2026-04-26T11:46:48.454Z</time></trkpt><trkpt lat="45.9006203" lon="11.6235897"><ele>1052.3333333333333</ele><time>2026-04-26T11:46:49.455Z</time></trkpt><trkpt lat="45.9006371" lon="11.6238595"><ele>1051.0</ele><time>2026-04-26T11:46:50.454Z</time></trkpt><trkpt lat="45.9006653" lon="11.6241105"><ele>1051.0</ele><time>2026-04-26T11:46:51.454Z</time></trkpt><trkpt lat="45.9006864" lon="11.6243512"><ele>1051.0</ele><time>2026-04-26T11:46:52.454Z</time></trkpt><trkpt lat="45.900695" lon="11.6245696"><ele>1051.0</ele><time>2026-04-26T11:46:53.454Z</time></trkpt><trkpt lat="45.900675" lon="11.6247879"><ele>1051.8</ele><time>2026-04-26T11:46:54.454Z</time></trkpt><trkpt lat="45.9006076" lon="11.6249373"><ele>1052.6</ele><time>2026-04-26T11:46:55.454Z</time></trkpt><trkpt lat="45.9005241" lon="11.62502"><ele>1053.4</ele><time>2026-04-26T11:46:56.454Z</time></trkpt><trkpt lat="45.9004237" lon="11.6250514"><ele>1054.2</ele><time>2026-04-26T11:46:57.454Z</time></trkpt><trkpt lat="45.9003294" lon="11.6250506"><ele>1055.0</ele><time>2026-04-26T11:46:58.454Z</time></trkpt><trkpt lat="45.9002334" lon="11.6250417"><ele>1055.0</ele><time>2026-04-26T11:46:59.455Z</time></trkpt><trkpt lat="45.9001363" lon="11.6250323"><ele>1055.0</ele><time>2026-04-26T11:47:00.454Z</time></trkpt><trkpt lat="45.9000303" lon="11.625038"><ele>1055.0</ele><time>2026-04-26T11:47:01.454Z</time></trkpt><trkpt lat="45.8999267" lon="11.625056"><ele>1055.0</ele><time>2026-04-26T11:47:02.454Z</time></trkpt><trkpt lat="45.8998266" lon="11.6251021"><ele>1055.0</ele><time>2026-04-26T11:47:03.454Z</time></trkpt><trkpt lat="45.8997296" lon="11.6252077"><ele>1057.75</ele><time>2026-04-26T11:47:04.455Z</time></trkpt><trkpt lat="45.899644" lon="11.6253315"><ele>1060.5</ele><time>2026-04-26T11:47:05.454Z</time></trkpt><trkpt lat="45.8995889" lon="11.6254936"><ele>1063.25</ele><time>2026-04-26T11:47:06.454Z</time></trkpt><trkpt lat="45.8995536" lon="11.6256686"><ele>1066.0</ele><time>2026-04-26T11:47:07.454Z</time></trkpt><trkpt lat="45.8995317" lon="11.6258374"><ele>1066.0</ele><time>2026-04-26T11:47:08.454Z</time></trkpt><trkpt lat="45.899514" lon="11.6260016"><ele>1066.0</ele><time>2026-04-26T11:47:09.454Z</time></trkpt><trkpt lat="45.8994839" lon="11.6261629"><ele>1066.0</ele><time>2026-04-26T11:47:10.455Z</time></trkpt><trkpt lat="45.8994523" lon="11.6263194"><ele>1066.0</ele><time>2026-04-26T11:47:11.454Z</time></trkpt><trkpt lat="45.8994187" lon="11.6264673"><ele>1066.5</ele><time>2026-04-26T11:47:12.454Z</time></trkpt><trkpt lat="45.8993743" lon="11.6265951"><ele>1067.0</ele><time>2026-04-26T11:47:13.454Z</time></trkpt><trkpt lat="45.8993305" lon="11.626712"><ele>1067.5</ele><time>2026-04-26T11:47:14.454Z</time></trkpt><trkpt lat="45.8992905" lon="11.6268183"><ele>1068.0</ele><time>2026-04-26T11:47:15.455Z</time></trkpt><trkpt lat="45.8992645" lon="11.6269349"><ele>1068.5</ele><time>2026-04-26T11:47:16.454Z</time></trkpt><trkpt lat="45.8992571" lon="11.6270441"><ele>1069.0</ele><time>2026-04-26T11:47:17.454Z</time></trkpt><trkpt lat="45.8992771" lon="11.6271621"><ele>1069.0</ele><time>2026-04-26T11:47:18.455Z</time></trkpt><trkpt lat="45.8993118" lon="11.6272905"><ele>1069.0</ele><time>2026-04-26T11:47:19.454Z</time></trkpt><trkpt lat="45.8993441" lon="11.6274494"><ele>1069.0</ele><time>2026-04-26T11:47:20.454Z</time></trkpt><trkpt lat="45.8993398" lon="11.6276225"><ele>1069.0</ele><time>2026-04-26T11:47:21.455Z</time></trkpt><trkpt lat="45.8992746" lon="11.6277717"><ele>1068.25</ele><time>2026-04-26T11:47:22.454Z</time></trkpt><trkpt lat="45.8991765" lon="11.6278758"><ele>1067.5</ele><time>2026-04-26T11:47:23.454Z</time></trkpt><trkpt lat="45.8990625" lon="11.627972"><ele>1066.75</ele><time>2026-04-26T11:47:24.454Z</time></trkpt><trkpt lat="45.8989391" lon="11.6280719"><ele>1066.0</ele><time>2026-04-26T11:47:25.455Z</time></trkpt><trkpt lat="45.8988069" lon="11.6281618"><ele>1066.0</ele><time>2026-04-26T11:47:26.454Z</time></trkpt><trkpt lat="45.8986764" lon="11.6282495"><ele>1066.0</ele><time>2026-04-26T11:47:27.454Z</time></trkpt><trkpt lat="45.898541" lon="11.6283364"><ele>1066.0</ele><time>2026-04-26T11:47:28.455Z</time></trkpt><trkpt lat="45.8984016" lon="11.6284229"><ele>1066.0</ele><time>2026-04-26T11:47:29.455Z</time></trkpt><trkpt lat="45.8982565" lon="11.6284982"><ele>1064.0</ele><time>2026-04-26T11:47:30.454Z</time></trkpt><trkpt lat="45.8981114" lon="11.628574"><ele>1062.0</ele><time>2026-04-26T11:47:31.454Z</time></trkpt><trkpt lat="45.8979662" lon="11.6286593"><ele>1060.0</ele><time>2026-04-26T11:47:32.455Z</time></trkpt><trkpt lat="45.8978246" lon="11.6287649"><ele>1064.6666666666665</ele><time>2026-04-26T11:47:33.455Z</time></trkpt><trkpt lat="45.8976925" lon="11.6288888"><ele>1069.3333333333333</ele><time>2026-04-26T11:47:34.455Z</time></trkpt><trkpt lat="45.8975637" lon="11.6290235"><ele>1074.0</ele><time>2026-04-26T11:47:35.454Z</time></trkpt><trkpt lat="45.8974303" lon="11.6291601"><ele>1074.0</ele><time>2026-04-26T11:47:36.454Z</time></trkpt><trkpt lat="45.8972993" lon="11.6293003"><ele>1074.0</ele><time>2026-04-26T11:47:37.454Z</time></trkpt><trkpt lat="45.8971752" lon="11.6294531"><ele>1074.0</ele><time>2026-04-26T11:47:38.454Z</time></trkpt><trkpt lat="45.8970489" lon="11.6295996"><ele>1074.5</ele><time>2026-04-26T11:47:39.454Z</time></trkpt><trkpt lat="45.896938" lon="11.6297521"><ele>1075.0</ele><time>2026-04-26T11:47:40.454Z</time></trkpt><trkpt lat="45.8968303" lon="11.6298895"><ele>1075.5</ele><time>2026-04-26T11:47:41.454Z</time></trkpt><trkpt lat="45.8967359" lon="11.6300123"><ele>1076.0</ele><time>2026-04-26T11:47:42.455Z</time></trkpt><trkpt lat="45.8966485" lon="11.630131"><ele>1076.0</ele><time>2026-04-26T11:47:43.454Z</time></trkpt><trkpt lat="45.8965713" lon="11.630237"><ele>1076.0</ele><time>2026-04-26T11:47:44.454Z</time></trkpt><trkpt lat="45.8965079" lon="11.6303353"><ele>1076.0</ele><time>2026-04-26T11:47:45.454Z</time></trkpt><trkpt lat="45.8964666" lon="11.6304135"><ele>1076.0</ele><time>2026-04-26T11:47:46.454Z</time></trkpt><trkpt lat="45.896429" lon="11.6305083"><ele>1076.0</ele><time>2026-04-26T11:47:47.454Z</time></trkpt><trkpt lat="45.8964619" lon="11.6306004"><ele>1076.0</ele><time>2026-04-26T11:47:48.454Z</time></trkpt><trkpt lat="45.8965118" lon="11.6306678"><ele>1077.6</ele><time>2026-04-26T11:47:49.454Z</time></trkpt><trkpt lat="45.8965723" lon="11.6307109"><ele>1079.1999999999998</ele><time>2026-04-26T11:47:50.455Z</time></trkpt><trkpt lat="45.8966457" lon="11.6307305"><ele>1080.8000000000002</ele><time>2026-04-26T11:47:51.455Z</time></trkpt><trkpt lat="45.8967615" lon="11.6307214"><ele>1082.4</ele><time>2026-04-26T11:47:52.454Z</time></trkpt><trkpt lat="45.8968708" lon="11.6307151"><ele>1084.0</ele><time>2026-04-26T11:47:53.454Z</time></trkpt><trkpt lat="45.896988" lon="11.6307047"><ele>1085.4</ele><time>2026-04-26T11:47:54.454Z</time></trkpt><trkpt lat="45.8971017" lon="11.630693"><ele>1086.8000000000002</ele><time>2026-04-26T11:47:55.454Z</time></trkpt><trkpt lat="45.8972047" lon="11.6306865"><ele>1088.1999999999998</ele><time>2026-04-26T11:47:56.454Z</time></trkpt><trkpt lat="45.8973022" lon="11.6306772"><ele>1089.6</ele><time>2026-04-26T11:47:57.455Z</time></trkpt><trkpt lat="45.8973962" lon="11.6306736"><ele>1091.0</ele><time>2026-04-26T11:47:58.455Z</time></trkpt><trkpt lat="45.8974984" lon="11.6305973"><ele>1091.2</ele><time>2026-04-26T11:47:59.454Z</time></trkpt><trkpt lat="45.8975945" lon="11.6305361"><ele>1091.3999999999999</ele><time>2026-04-26T11:48:00.454Z</time></trkpt><trkpt lat="45.8976862" lon="11.6304975"><ele>1091.6</ele><time>2026-04-26T11:48:01.454Z</time></trkpt><trkpt lat="45.8977984" lon="11.6304798"><ele>1091.8</ele><time>2026-04-26T11:48:02.454Z</time></trkpt><trkpt lat="45.8979094" lon="11.6304454"><ele>1092.0</ele><time>2026-04-26T11:48:03.454Z</time></trkpt><trkpt lat="45.8980425" lon="11.6304154"><ele>1092.0</ele><time>2026-04-26T11:48:04.455Z</time></trkpt><trkpt lat="45.8981728" lon="11.6303748"><ele>1092.0</ele><time>2026-04-26T11:48:05.455Z</time></trkpt><trkpt lat="45.8983057" lon="11.6303364"><ele>1092.0</ele><time>2026-04-26T11:48:06.455Z</time></trkpt><trkpt lat="45.8984598" lon="11.6302963"><ele>1092.0</ele><time>2026-04-26T11:48:07.454Z</time></trkpt><trkpt lat="45.8986263" lon="11.6302334"><ele>1090.3333333333333</ele><time>2026-04-26T11:48:08.454Z</time></trkpt><trkpt lat="45.8987818" lon="11.6302001"><ele>1088.6666666666665</ele><time>2026-04-26T11:48:09.455Z</time></trkpt><trkpt lat="45.8989449" lon="11.630164"><ele>1087.0</ele><time>2026-04-26T11:48:10.454Z</time></trkpt><trkpt lat="45.8991206" lon="11.6301214"><ele>1084.3333333333333</ele><time>2026-04-26T11:48:11.455Z</time></trkpt><trkpt lat="45.899294" lon="11.6300773"><ele>1081.6666666666667</ele><time>2026-04-26T11:48:12.455Z</time></trkpt><trkpt lat="45.899458" lon="11.6300308"><ele>1079.0</ele><time>2026-04-26T11:48:13.454Z</time></trkpt><trkpt lat="45.899611" lon="11.629998"><ele>1079.0</ele><time>2026-04-26T11:48:14.455Z</time></trkpt><trkpt lat="45.8997774" lon="11.6299573"><ele>1079.0</ele><time>2026-04-26T11:48:15.454Z</time></trkpt><trkpt lat="45.8999456" lon="11.6299238"><ele>1079.0</ele><time>2026-04-26T11:48:16.454Z</time></trkpt><trkpt lat="45.9001114" lon="11.6298898"><ele>1079.0</ele><time>2026-04-26T11:48:17.454Z</time></trkpt><trkpt lat="45.9002792" lon="11.6298855"><ele>1079.0</ele><time>2026-04-26T11:48:18.454Z</time></trkpt><trkpt lat="45.9004549" lon="11.6298818"><ele>1079.0</ele><time>2026-04-26T11:48:19.454Z</time></trkpt><trkpt lat="45.9006086" lon="11.6299327"><ele>1079.0</ele><time>2026-04-26T11:48:20.455Z</time></trkpt><trkpt lat="45.9007767" lon="11.6299676"><ele>1079.0</ele><time>2026-04-26T11:48:21.454Z</time></trkpt><trkpt lat="45.9009416" lon="11.6299981"><ele>1079.0</ele><time>2026-04-26T11:48:22.455Z</time></trkpt><trkpt lat="45.9011152" lon="11.630023"><ele>1081.3333333333335</ele><time>2026-04-26T11:48:23.454Z</time></trkpt><trkpt lat="45.901299" lon="11.630019"><ele>1083.6666666666667</ele><time>2026-04-26T11:48:24.454Z</time></trkpt><trkpt lat="45.9014775" lon="11.6300122"><ele>1086.0</ele><time>2026-04-26T11:48:25.454Z</time></trkpt><trkpt lat="45.9016671" lon="11.6299999"><ele>1092.6666666666667</ele><time>2026-04-26T11:48:26.455Z</time></trkpt><trkpt lat="45.9018478" lon="11.6299742"><ele>1099.3333333333335</ele><time>2026-04-26T11:48:27.454Z</time></trkpt><trkpt lat="45.9020002" lon="11.6300197"><ele>1106.0</ele><time>2026-04-26T11:48:28.454Z</time></trkpt><trkpt lat="45.9021547" lon="11.6300656"><ele>1106.0</ele><time>2026-04-26T11:48:29.454Z</time></trkpt><trkpt lat="45.902285" lon="11.6301775"><ele>1106.0</ele><time>2026-04-26T11:48:30.455Z</time></trkpt><trkpt lat="45.9023894" lon="11.6304166"><ele>1106.0</ele><time>2026-04-26T11:48:31.455Z</time></trkpt><trkpt lat="45.9024996" lon="11.6305895"><ele>1109.0</ele><time>2026-04-26T11:48:32.454Z</time></trkpt><trkpt lat="45.9026069" lon="11.6307806"><ele>1112.0</ele><time>2026-04-26T11:48:33.454Z</time></trkpt><trkpt lat="45.9027261" lon="11.6309701"><ele>1115.0</ele><time>2026-04-26T11:48:34.454Z</time></trkpt><trkpt lat="45.9028557" lon="11.6311337"><ele>1105.0</ele><time>2026-04-26T11:48:35.454Z</time></trkpt><trkpt lat="45.9030065" lon="11.6312569"><ele>1095.0</ele><time>2026-04-26T11:48:36.454Z</time></trkpt><trkpt lat="45.9031686" lon="11.6313751"><ele>1085.0</ele><time>2026-04-26T11:48:37.454Z</time></trkpt><trkpt lat="45.9033367" lon="11.6314849"><ele>1092.3333333333335</ele><time>2026-04-26T11:48:38.455Z</time></trkpt><trkpt lat="45.903509" lon="11.631592"><ele>1099.6666666666667</ele><time>2026-04-26T11:48:39.454Z</time></trkpt><trkpt lat="45.9036822" lon="11.6316846"><ele>1107.0</ele><time>2026-04-26T11:48:40.455Z</time></trkpt><trkpt lat="45.9038529" lon="11.6317577"><ele>1107.0</ele><time>2026-04-26T11:48:41.454Z</time></trkpt><trkpt lat="45.9040292" lon="11.6318393"><ele>1107.0</ele><time>2026-04-26T11:48:42.455Z</time></trkpt><trkpt lat="45.9041912" lon="11.6319352"><ele>1107.0</ele><time>2026-04-26T11:48:43.454Z</time></trkpt><trkpt lat="45.9043271" lon="11.6321263"><ele>1108.6666666666667</ele><time>2026-04-26T11:48:44.454Z</time></trkpt><trkpt lat="45.9044499" lon="11.6323157"><ele>1110.3333333333335</ele><time>2026-04-26T11:48:45.454Z</time></trkpt><trkpt lat="45.9045706" lon="11.6325453"><ele>1112.0</ele><time>2026-04-26T11:48:46.454Z</time></trkpt><trkpt lat="45.9046795" lon="11.6327888"><ele>1104.3333333333335</ele><time>2026-04-26T11:48:47.454Z</time></trkpt><trkpt lat="45.904774" lon="11.6330129"><ele>1096.6666666666667</ele><time>2026-04-26T11:48:48.454Z</time></trkpt><trkpt lat="45.9048866" lon="11.633192"><ele>1089.0</ele><time>2026-04-26T11:48:49.454Z</time></trkpt><trkpt lat="45.9049973" lon="11.6333349"><ele>1090.0</ele><time>2026-04-26T11:48:50.454Z</time></trkpt><trkpt lat="45.9051029" lon="11.6334164"><ele>1091.0</ele><time>2026-04-26T11:48:51.454Z</time></trkpt><trkpt lat="45.9052084" lon="11.6334111"><ele>1092.0</ele><time>2026-04-26T11:48:52.454Z</time></trkpt><trkpt lat="45.90531" lon="11.6333273"><ele>1093.0</ele><time>2026-04-26T11:48:53.455Z</time></trkpt><trkpt lat="45.9053983" lon="11.6332255"><ele>1093.0</ele><time>2026-04-26T11:48:54.454Z</time></trkpt><trkpt lat="45.9055152" lon="11.6330737"><ele>1093.0</ele><time>2026-04-26T11:48:55.455Z</time></trkpt><trkpt lat="45.9056352" lon="11.6329405"><ele>1093.0</ele><time>2026-04-26T11:48:56.454Z</time></trkpt><trkpt lat="45.9057521" lon="11.6328445"><ele>1093.0</ele><time>2026-04-26T11:48:57.454Z</time></trkpt><trkpt lat="45.9058724" lon="11.6327857"><ele>1102.75</ele><time>2026-04-26T11:48:58.454Z</time></trkpt><trkpt lat="45.9059917" lon="11.632826"><ele>1112.5</ele><time>2026-04-26T11:48:59.455Z</time></trkpt><trkpt lat="45.9060803" lon="11.6329442"><ele>1122.25</ele><time>2026-04-26T11:49:00.454Z</time></trkpt><trkpt lat="45.9061421" lon="11.6331299"><ele>1132.0</ele><time>2026-04-26T11:49:01.455Z</time></trkpt><trkpt lat="45.9061939" lon="11.6333095"><ele>1132.0</ele><time>2026-04-26T11:49:02.454Z</time></trkpt><trkpt lat="45.9062206" lon="11.6335245"><ele>1132.0</ele><time>2026-04-26T11:49:03.455Z</time></trkpt><trkpt lat="45.9062393" lon="11.633796"><ele>1132.0</ele><time>2026-04-26T11:49:04.454Z</time></trkpt><trkpt lat="45.9062623" lon="11.6340338"><ele>1129.3333333333333</ele><time>2026-04-26T11:49:05.454Z</time></trkpt><trkpt lat="45.9063041" lon="11.634268"><ele>1126.6666666666667</ele><time>2026-04-26T11:49:06.454Z</time></trkpt><trkpt lat="45.9063604" lon="11.634522"><ele>1124.0</ele><time>2026-04-26T11:49:07.454Z</time></trkpt><trkpt lat="45.9064122" lon="11.6348197"><ele>1121.3333333333335</ele><time>2026-04-26T11:49:08.455Z</time></trkpt><trkpt lat="45.9064519" lon="11.6350747"><ele>1118.6666666666667</ele><time>2026-04-26T11:49:09.455Z</time></trkpt><trkpt lat="45.9064796" lon="11.6353312"><ele>1116.0</ele><time>2026-04-26T11:49:10.454Z</time></trkpt><trkpt lat="45.9065022" lon="11.6355847"><ele>1112.6666666666667</ele><time>2026-04-26T11:49:11.455Z</time></trkpt><trkpt lat="45.9065349" lon="11.635845"><ele>1109.3333333333335</ele><time>2026-04-26T11:49:12.454Z</time></trkpt><trkpt lat="45.9065767" lon="11.6360941"><ele>1106.0</ele><time>2026-04-26T11:49:13.454Z</time></trkpt><trkpt lat="45.9066291" lon="11.6363244"><ele>1101.6666666666667</ele><time>2026-04-26T11:49:14.454Z</time></trkpt><trkpt lat="45.9066777" lon="11.6365187"><ele>1097.3333333333333</ele><time>2026-04-26T11:49:15.454Z</time></trkpt><trkpt lat="45.9067797" lon="11.636665"><ele>1093.0</ele><time>2026-04-26T11:49:16.455Z</time></trkpt><trkpt lat="45.9068982" lon="11.6368236"><ele>1098.6666666666665</ele><time>2026-04-26T11:49:17.454Z</time></trkpt><trkpt lat="45.9070143" lon="11.6369932"><ele>1104.3333333333333</ele><time>2026-04-26T11:49:18.454Z</time></trkpt><trkpt lat="45.9071349" lon="11.6371426"><ele>1110.0</ele><time>2026-04-26T11:49:19.454Z</time></trkpt><trkpt lat="45.9072351" lon="11.6373128"><ele>1110.0</ele><time>2026-04-26T11:49:20.454Z</time></trkpt><trkpt lat="45.9073174" lon="11.6375037"><ele>1110.0</ele><time>2026-04-26T11:49:21.454Z</time></trkpt><trkpt lat="45.9073389" lon="11.6377229"><ele>1110.0</ele><time>2026-04-26T11:49:22.455Z</time></trkpt><trkpt lat="45.907332" lon="11.6379532"><ele>1114.3333333333333</ele><time>2026-04-26T11:49:23.455Z</time></trkpt><trkpt lat="45.9072575" lon="11.6381835"><ele>1118.6666666666665</ele><time>2026-04-26T11:49:24.454Z</time></trkpt><trkpt lat="45.9071552" lon="11.6383917"><ele>1123.0</ele><time>2026-04-26T11:49:25.455Z</time></trkpt><trkpt lat="45.9070383" lon="11.638621"><ele>1116.6666666666665</ele><time>2026-04-26T11:49:26.454Z</time></trkpt><trkpt lat="45.906923" lon="11.6388097"><ele>1110.3333333333333</ele><time>2026-04-26T11:49:27.454Z</time></trkpt><trkpt lat="45.9067909" lon="11.6390104"><ele>1104.0</ele><time>2026-04-26T11:49:28.455Z</time></trkpt><trkpt lat="45.9066378" lon="11.639166"><ele>1104.0</ele><time>2026-04-26T11:49:29.454Z</time></trkpt><trkpt lat="45.9064881" lon="11.6393032"><ele>1104.0</ele><time>2026-04-26T11:49:30.454Z</time></trkpt><trkpt lat="45.9063462" lon="11.6394876"><ele>1104.0</ele><time>2026-04-26T11:49:31.454Z</time></trkpt><trkpt lat="45.9062304" lon="11.639671"><ele>1113.3333333333333</ele><time>2026-04-26T11:49:32.454Z</time></trkpt><trkpt lat="45.9061448" lon="11.6398886"><ele>1122.6666666666665</ele><time>2026-04-26T11:49:33.454Z</time></trkpt><trkpt lat="45.9060513" lon="11.6401103"><ele>1132.0</ele><time>2026-04-26T11:49:34.454Z</time></trkpt><trkpt lat="45.9059502" lon="11.6403538"><ele>1123.0</ele><time>2026-04-26T11:49:35.454Z</time></trkpt><trkpt lat="45.9058582" lon="11.6405945"><ele>1114.0</ele><time>2026-04-26T11:49:36.454Z</time></trkpt><trkpt lat="45.9057813" lon="11.6408585"><ele>1105.0</ele><time>2026-04-26T11:49:37.455Z</time></trkpt><trkpt lat="45.9057248" lon="11.6411185"><ele>1109.6666666666665</ele><time>2026-04-26T11:49:38.454Z</time></trkpt><trkpt lat="45.9056525" lon="11.6413755"><ele>1114.3333333333333</ele><time>2026-04-26T11:49:39.454Z</time></trkpt><trkpt lat="45.9055809" lon="11.641635"><ele>1119.0</ele><time>2026-04-26T11:49:40.454Z</time></trkpt><trkpt lat="45.9054959" lon="11.6418673"><ele>1120.0</ele><time>2026-04-26T11:49:41.454Z</time></trkpt><trkpt lat="45.9054387" lon="11.6421159"><ele>1121.0</ele><time>2026-04-26T11:49:42.454Z</time></trkpt><trkpt lat="45.9054029" lon="11.6423681"><ele>1122.0</ele><time>2026-04-26T11:49:43.455Z</time></trkpt><trkpt lat="45.9053831" lon="11.6426198"><ele>1122.3333333333333</ele><time>2026-04-26T11:49:44.454Z</time></trkpt><trkpt lat="45.9053673" lon="11.6428879"><ele>1122.6666666666665</ele><time>2026-04-26T11:49:45.454Z</time></trkpt><trkpt lat="45.9053672" lon="11.6431245"><ele>1123.0</ele><time>2026-04-26T11:49:46.454Z</time></trkpt><trkpt lat="45.9053502" lon="11.6433712"><ele>1123.0</ele><time>2026-04-26T11:49:47.454Z</time></trkpt><trkpt lat="45.9053267" lon="11.64362"><ele>1123.0</ele><time>2026-04-26T11:49:48.455Z</time></trkpt><trkpt lat="45.9053152" lon="11.6438535"><ele>1123.0</ele><time>2026-04-26T11:49:49.454Z</time></trkpt><trkpt lat="45.9053078" lon="11.6440786"><ele>1121.5</ele><time>2026-04-26T11:49:50.454Z</time></trkpt><trkpt lat="45.9053127" lon="11.6443019"><ele>1120.0</ele><time>2026-04-26T11:49:51.454Z</time></trkpt><trkpt lat="45.9053298" lon="11.6445092"><ele>1118.5</ele><time>2026-04-26T11:49:52.454Z</time></trkpt><trkpt lat="45.9053343" lon="11.6447053"><ele>1117.0</ele><time>2026-04-26T11:49:53.455Z</time></trkpt><trkpt lat="45.9053453" lon="11.6448819"><ele>1114.8</ele><time>2026-04-26T11:49:54.454Z</time></trkpt><trkpt lat="45.9053535" lon="11.6450587"><ele>1112.6</ele><time>2026-04-26T11:49:55.455Z</time></trkpt><trkpt lat="45.9053398" lon="11.6452191"><ele>1110.3999999999999</ele><time>2026-04-26T11:49:56.454Z</time></trkpt><trkpt lat="45.9053196" lon="11.6453659"><ele>1108.2</ele><time>2026-04-26T11:49:57.454Z</time></trkpt><trkpt lat="45.9052931" lon="11.645502"><ele>1106.0</ele><time>2026-04-26T11:49:58.454Z</time></trkpt><trkpt lat="45.9052848" lon="11.6456537"><ele>1103.75</ele><time>2026-04-26T11:49:59.455Z</time></trkpt><trkpt lat="45.9053051" lon="11.6458119"><ele>1101.5</ele><time>2026-04-26T11:50:00.455Z</time></trkpt><trkpt lat="45.9053578" lon="11.645956"><ele>1099.25</ele><time>2026-04-26T11:50:01.454Z</time></trkpt><trkpt lat="45.9054379" lon="11.6460872"><ele>1097.0</ele><time>2026-04-26T11:50:02.455Z</time></trkpt><trkpt lat="45.9055424" lon="11.6461997"><ele>1098.0</ele><time>2026-04-26T11:50:03.454Z</time></trkpt><trkpt lat="45.9056694" lon="11.6462968"><ele>1099.0</ele><time>2026-04-26T11:50:04.454Z</time></trkpt><trkpt lat="45.9058077" lon="11.6464027"><ele>1100.0</ele><time>2026-04-26T11:50:05.455Z</time></trkpt><trkpt lat="45.9059446" lon="11.6465287"><ele>1100.0</ele><time>2026-04-26T11:50:06.454Z</time></trkpt><trkpt lat="45.906079" lon="11.6466969"><ele>1100.0</ele><time>2026-04-26T11:50:07.455Z</time></trkpt><trkpt lat="45.9062003" lon="11.6468982"><ele>1100.0</ele><time>2026-04-26T11:50:08.454Z</time></trkpt><trkpt lat="45.9063115" lon="11.6471247"><ele>1094.3333333333335</ele><time>2026-04-26T11:50:09.455Z</time></trkpt><trkpt lat="45.9064258" lon="11.6473589"><ele>1088.6666666666667</ele><time>2026-04-26T11:50:10.455Z</time></trkpt><trkpt lat="45.9065452" lon="11.6475852"><ele>1083.0</ele><time>2026-04-26T11:50:11.454Z</time></trkpt><trkpt lat="45.9066761" lon="11.6477937"><ele>1080.6666666666667</ele><time>2026-04-26T11:50:12.454Z</time></trkpt><trkpt lat="45.9068336" lon="11.6479914"><ele>1078.3333333333335</ele><time>2026-04-26T11:50:13.454Z</time></trkpt><trkpt lat="45.9070016" lon="11.6481651"><ele>1076.0</ele><time>2026-04-26T11:50:14.454Z</time></trkpt><trkpt lat="45.9071611" lon="11.6483584"><ele>1076.0</ele><time>2026-04-26T11:50:15.455Z</time></trkpt><trkpt lat="45.9073232" lon="11.6485664"><ele>1076.0</ele><time>2026-04-26T11:50:16.455Z</time></trkpt><trkpt lat="45.9074617" lon="11.6487911"><ele>1076.0</ele><time>2026-04-26T11:50:17.454Z</time></trkpt><trkpt lat="45.9075829" lon="11.6490343"><ele>1077.6666666666667</ele><time>2026-04-26T11:50:18.454Z</time></trkpt><trkpt lat="45.9077011" lon="11.64926"><ele>1079.3333333333333</ele><time>2026-04-26T11:50:19.454Z</time></trkpt><trkpt lat="45.9078393" lon="11.6494395"><ele>1081.0</ele><time>2026-04-26T11:50:20.454Z</time></trkpt><trkpt lat="45.9079963" lon="11.6495787"><ele>1075.0</ele><time>2026-04-26T11:50:21.454Z</time></trkpt><trkpt lat="45.9081441" lon="11.6497167"><ele>1069.0</ele><time>2026-04-26T11:50:22.454Z</time></trkpt><trkpt lat="45.9082674" lon="11.6498791"><ele>1063.0</ele><time>2026-04-26T11:50:23.454Z</time></trkpt><trkpt lat="45.9083499" lon="11.6500914"><ele>1057.3333333333333</ele><time>2026-04-26T11:50:24.455Z</time></trkpt><trkpt lat="45.9083856" lon="11.6503229"><ele>1051.6666666666667</ele><time>2026-04-26T11:50:25.454Z</time></trkpt><trkpt lat="45.9083896" lon="11.6505843"><ele>1046.0</ele><time>2026-04-26T11:50:26.454Z</time></trkpt><trkpt lat="45.9083942" lon="11.6508312"><ele>1045.0</ele><time>2026-04-26T11:50:27.455Z</time></trkpt><trkpt lat="45.9084146" lon="11.6510638"><ele>1044.0</ele><time>2026-04-26T11:50:28.455Z</time></trkpt><trkpt lat="45.9084477" lon="11.6512813"><ele>1043.0</ele><time>2026-04-26T11:50:29.455Z</time></trkpt><trkpt lat="45.9084977" lon="11.6514665"><ele>1043.0</ele><time>2026-04-26T11:50:30.454Z</time></trkpt><trkpt lat="45.9085922" lon="11.6516032"><ele>1043.0</ele><time>2026-04-26T11:50:31.454Z</time></trkpt><trkpt lat="45.908718" lon="11.6517027"><ele>1043.0</ele><time>2026-04-26T11:50:32.454Z</time></trkpt><trkpt lat="45.9088657" lon="11.6518033"><ele>1043.0</ele><time>2026-04-26T11:50:33.454Z</time></trkpt><trkpt lat="45.9090142" lon="11.6519158"><ele>1041.3333333333335</ele><time>2026-04-26T11:50:34.455Z</time></trkpt><trkpt lat="45.9091629" lon="11.6520342"><ele>1039.6666666666667</ele><time>2026-04-26T11:50:35.455Z</time></trkpt><trkpt lat="45.9092855" lon="11.6521736"><ele>1038.0</ele><time>2026-04-26T11:50:36.455Z</time></trkpt><trkpt lat="45.9093882" lon="11.6523394"><ele>1038.0</ele><time>2026-04-26T11:50:37.455Z</time></trkpt><trkpt lat="45.9094985" lon="11.6525284"><ele>1038.0</ele><time>2026-04-26T11:50:38.454Z</time></trkpt><trkpt lat="45.9096198" lon="11.6527191"><ele>1038.0</ele><time>2026-04-26T11:50:39.454Z</time></trkpt><trkpt lat="45.90977" lon="11.6528592"><ele>1036.0</ele><time>2026-04-26T11:50:40.454Z</time></trkpt><trkpt lat="45.9099458" lon="11.6529855"><ele>1034.0</ele><time>2026-04-26T11:50:41.454Z</time></trkpt><trkpt lat="45.9101295" lon="11.6530841"><ele>1032.0</ele><time>2026-04-26T11:50:42.454Z</time></trkpt><trkpt lat="45.9103131" lon="11.6531983"><ele>1032.0</ele><time>2026-04-26T11:50:43.454Z</time></trkpt><trkpt lat="45.9104949" lon="11.653323"><ele>1032.0</ele><time>2026-04-26T11:50:44.454Z</time></trkpt><trkpt lat="45.9106751" lon="11.6534704"><ele>1032.0</ele><time>2026-04-26T11:50:45.455Z</time></trkpt><trkpt lat="45.9108457" lon="11.653642"><ele>1028.0</ele><time>2026-04-26T11:50:46.454Z</time></trkpt><trkpt lat="45.9110185" lon="11.6538237"><ele>1024.0</ele><time>2026-04-26T11:50:47.454Z</time></trkpt><trkpt lat="45.9111858" lon="11.6539984"><ele>1020.0</ele><time>2026-04-26T11:50:48.455Z</time></trkpt><trkpt lat="45.9113449" lon="11.6541665"><ele>1020.0</ele><time>2026-04-26T11:50:49.454Z</time></trkpt><trkpt lat="45.9114991" lon="11.6543377"><ele>1020.0</ele><time>2026-04-26T11:50:50.454Z</time></trkpt><trkpt lat="45.9116587" lon="11.6545105"><ele>1020.0</ele><time>2026-04-26T11:50:51.454Z</time></trkpt><trkpt lat="45.911802" lon="11.6546956"><ele>1016.0</ele><time>2026-04-26T11:50:52.454Z</time></trkpt><trkpt lat="45.9119069" lon="11.6548842"><ele>1012.0</ele><time>2026-04-26T11:50:53.454Z</time></trkpt><trkpt lat="45.9120192" lon="11.6550725"><ele>1008.0</ele><time>2026-04-26T11:50:54.454Z</time></trkpt><trkpt lat="45.9121385" lon="11.6552556"><ele>1002.0</ele><time>2026-04-26T11:50:55.455Z</time></trkpt><trkpt lat="45.9122644" lon="11.6554141"><ele>996.0</ele><time>2026-04-26T11:50:56.454Z</time></trkpt><trkpt lat="45.912387" lon="11.6555473"><ele>990.0</ele><time>2026-04-26T11:50:57.455Z</time></trkpt><trkpt lat="45.912504" lon="11.6556565"><ele>988.75</ele><time>2026-04-26T11:50:58.454Z</time></trkpt><trkpt lat="45.9126229" lon="11.6557307"><ele>987.5</ele><time>2026-04-26T11:50:59.454Z</time></trkpt><trkpt lat="45.9127428" lon="11.65574"><ele>986.25</ele><time>2026-04-26T11:51:00.454Z</time></trkpt><trkpt lat="45.9128513" lon="11.6557223"><ele>985.0</ele><time>2026-04-26T11:51:01.454Z</time></trkpt><trkpt lat="45.9129382" lon="11.6555461"><ele>985.0</ele><time>2026-04-26T11:51:02.454Z</time></trkpt><trkpt lat="45.9130264" lon="11.6553894"><ele>985.0</ele><time>2026-04-26T11:51:03.454Z</time></trkpt><trkpt lat="45.9131587" lon="11.6552523"><ele>985.0</ele><time>2026-04-26T11:51:04.454Z</time></trkpt><trkpt lat="45.9133032" lon="11.6551502"><ele>979.3333333333333</ele><time>2026-04-26T11:51:05.454Z</time></trkpt><trkpt lat="45.9134581" lon="11.6550295"><ele>973.6666666666667</ele><time>2026-04-26T11:51:06.454Z</time></trkpt><trkpt lat="45.9136098" lon="11.6549088"><ele>968.0</ele><time>2026-04-26T11:51:07.455Z</time></trkpt><trkpt lat="45.9137543" lon="11.6547679"><ele>968.0</ele><time>2026-04-26T11:51:08.454Z</time></trkpt><trkpt lat="45.9139047" lon="11.6546176"><ele>968.0</ele><time>2026-04-26T11:51:09.455Z</time></trkpt><trkpt lat="45.9140492" lon="11.6544727"><ele>968.0</ele><time>2026-04-26T11:51:10.455Z</time></trkpt><trkpt lat="45.9141754" lon="11.6543399"><ele>963.75</ele><time>2026-04-26T11:51:11.455Z</time></trkpt><trkpt lat="45.9142807" lon="11.6542403"><ele>959.5</ele><time>2026-04-26T11:51:12.454Z</time></trkpt><trkpt lat="45.9143802" lon="11.6541686"><ele>955.25</ele><time>2026-04-26T11:51:13.454Z</time></trkpt><trkpt lat="45.914527" lon="11.6541568"><ele>951.0</ele><time>2026-04-26T11:51:15.455Z</time></trkpt><trkpt lat="45.9146251" lon="11.6541326"><ele>951.0</ele><time>2026-04-26T11:51:16.454Z</time></trkpt><trkpt lat="45.9146857" lon="11.6541758"><ele>951.0</ele><time>2026-04-26T11:51:17.455Z</time></trkpt><trkpt lat="45.9147713" lon="11.6541719"><ele>951.0</ele><time>2026-04-26T11:51:18.455Z</time></trkpt><trkpt lat="45.9148455" lon="11.6542272"><ele>951.0</ele><time>2026-04-26T11:51:19.454Z</time></trkpt><trkpt lat="45.9149314" lon="11.6542805"><ele>951.0</ele><time>2026-04-26T11:51:20.454Z</time></trkpt><trkpt lat="45.9150235" lon="11.6543516"><ele>951.0</ele><time>2026-04-26T11:51:21.455Z</time></trkpt><trkpt lat="45.9151057" lon="11.6544383"><ele>931.1999999999999</ele><time>2026-04-26T11:51:22.455Z</time></trkpt><trkpt lat="45.9151898" lon="11.654519"><ele>911.3999999999999</ele><time>2026-04-26T11:51:23.455Z</time></trkpt><trkpt lat="45.9152893" lon="11.6545898"><ele>891.6</ele><time>2026-04-26T11:51:24.454Z</time></trkpt><trkpt lat="45.9153797" lon="11.6546785"><ele>871.8</ele><time>2026-04-26T11:51:25.454Z</time></trkpt><trkpt lat="45.915472" lon="11.654757"><ele>852.0</ele><time>2026-04-26T11:51:26.454Z</time></trkpt><trkpt lat="45.9155605" lon="11.6548284"><ele>852.0</ele><time>2026-04-26T11:51:27.454Z</time></trkpt><trkpt lat="45.9156563" lon="11.6549212"><ele>852.0</ele><time>2026-04-26T11:51:28.454Z</time></trkpt><trkpt lat="45.915742" lon="11.6550013"><ele>852.0</ele><time>2026-04-26T11:51:29.454Z</time></trkpt><trkpt lat="45.9158282" lon="11.6550721"><ele>852.0</ele><time>2026-04-26T11:51:30.454Z</time></trkpt><trkpt lat="45.9159187" lon="11.6551545"><ele>852.0</ele><time>2026-04-26T11:51:31.455Z</time></trkpt><trkpt lat="45.9160089" lon="11.6552368"><ele>865.0</ele><time>2026-04-26T11:51:32.454Z</time></trkpt><trkpt lat="45.9161107" lon="11.6553051"><ele>878.0</ele><time>2026-04-26T11:51:33.454Z</time></trkpt><trkpt lat="45.916193" lon="11.6553737"><ele>891.0</ele><time>2026-04-26T11:51:34.454Z</time></trkpt><trkpt lat="45.9162882" lon="11.6554464"><ele>904.0</ele><time>2026-04-26T11:51:35.454Z</time></trkpt><trkpt lat="45.9163775" lon="11.6555357"><ele>917.0</ele><time>2026-04-26T11:51:36.454Z</time></trkpt><trkpt lat="45.9164651" lon="11.6556161"><ele>917.0</ele><time>2026-04-26T11:51:37.455Z</time></trkpt><trkpt lat="45.9165584" lon="11.6557068"><ele>917.0</ele><time>2026-04-26T11:51:38.455Z</time></trkpt><trkpt lat="45.916653" lon="11.6557908"><ele>917.0</ele><time>2026-04-26T11:51:39.454Z</time></trkpt><trkpt lat="45.9167534" lon="11.6558775"><ele>917.0</ele><time>2026-04-26T11:51:40.454Z</time></trkpt><trkpt lat="45.9168436" lon="11.6559754"><ele>925.6</ele><time>2026-04-26T11:51:41.454Z</time></trkpt><trkpt lat="45.9169147" lon="11.6560932"><ele>934.2</ele><time>2026-04-26T11:51:42.454Z</time></trkpt><trkpt lat="45.9169539" lon="11.6562148"><ele>942.8</ele><time>2026-04-26T11:51:43.455Z</time></trkpt><trkpt lat="45.9169806" lon="11.6563181"><ele>951.4</ele><time>2026-04-26T11:51:44.454Z</time></trkpt><trkpt lat="45.9170042" lon="11.6564122"><ele>960.0</ele><time>2026-04-26T11:51:45.454Z</time></trkpt><trkpt lat="45.9170337" lon="11.6565554"><ele>965.0</ele><time>2026-04-26T11:51:47.454Z</time></trkpt><trkpt lat="45.9170725" lon="11.6566527"><ele>970.0</ele><time>2026-04-26T11:51:49.454Z</time></trkpt><trkpt lat="45.9170397" lon="11.6565633"><ele>975.0</ele><time>2026-04-26T11:57:20.454Z</time></trkpt><trkpt lat="45.9169862" lon="11.6565081"><ele>980.0</ele><time>2026-04-26T11:57:26.454Z</time></trkpt><trkpt lat="45.9170344" lon="11.6565749"><ele>985.0</ele><time>2026-04-26T11:57:51.455Z</time></trkpt><trkpt lat="45.9169973" lon="11.6564786"><ele>990.0</ele><time>2026-04-26T12:01:56.505Z</time></trkpt><trkpt lat="45.9169715" lon="11.6563932"><ele>995.0</ele><time>2026-04-26T12:02:01.503Z</time></trkpt><trkpt lat="45.916949" lon="11.6563045"><ele>995.0000000000001</ele><time>2026-04-26T12:02:09.467Z</time></trkpt><trkpt lat="45.91698" lon="11.6563921"><ele>995.0</ele><time>2026-04-26T12:04:03.463Z</time></trkpt><trkpt lat="45.9170215" lon="11.6564836"><ele>995.0</ele><time>2026-04-26T12:04:09.454Z</time></trkpt><trkpt lat="45.9170585" lon="11.6565737"><ele>995.0</ele><time>2026-04-26T12:04:15.454Z</time></trkpt><trkpt lat="45.9171086" lon="11.6567047"><ele>995.0000000000001</ele><time>2026-04-26T12:04:59.471Z</time></trkpt><trkpt lat="45.9171615" lon="11.656822"><ele>995.0</ele><time>2026-04-26T12:05:00.454Z</time></trkpt><trkpt lat="45.9172054" lon="11.6569271"><ele>989.8</ele><time>2026-04-26T12:05:01.455Z</time></trkpt><trkpt lat="45.9172572" lon="11.6570407"><ele>984.6</ele><time>2026-04-26T12:05:02.454Z</time></trkpt><trkpt lat="45.917313" lon="11.6571689"><ele>979.4000000000001</ele><time>2026-04-26T12:05:03.454Z</time></trkpt><trkpt lat="45.9173649" lon="11.6572935"><ele>974.2</ele><time>2026-04-26T12:05:04.454Z</time></trkpt><trkpt lat="45.9174138" lon="11.6574206"><ele>969.0</ele><time>2026-04-26T12:05:05.454Z</time></trkpt><trkpt lat="45.9174684" lon="11.6575546"><ele>969.0</ele><time>2026-04-26T12:05:06.455Z</time></trkpt><trkpt lat="45.9175235" lon="11.6576913"><ele>969.0</ele><time>2026-04-26T12:05:07.454Z</time></trkpt><trkpt lat="45.917577" lon="11.6578356"><ele>969.0</ele><time>2026-04-26T12:05:08.454Z</time></trkpt><trkpt lat="45.917635" lon="11.6579763"><ele>969.0</ele><time>2026-04-26T12:05:09.454Z</time></trkpt><trkpt lat="45.9176999" lon="11.6581195"><ele>980.5</ele><time>2026-04-26T12:05:10.455Z</time></trkpt><trkpt lat="45.9177648" lon="11.6582694"><ele>992.0</ele><time>2026-04-26T12:05:11.455Z</time></trkpt><trkpt lat="45.9178322" lon="11.6584203"><ele>1003.5</ele><time>2026-04-26T12:05:12.454Z</time></trkpt><trkpt lat="45.917897" lon="11.6585725"><ele>1015.0</ele><time>2026-04-26T12:05:13.454Z</time></trkpt><trkpt lat="45.9179635" lon="11.6587239"><ele>1015.0</ele><time>2026-04-26T12:05:14.455Z</time></trkpt><trkpt lat="45.9180255" lon="11.6588843"><ele>1015.0</ele><time>2026-04-26T12:05:15.455Z</time></trkpt><trkpt lat="45.9180765" lon="11.6590517"><ele>1015.0</ele><time>2026-04-26T12:05:16.454Z</time></trkpt><trkpt lat="45.9181173" lon="11.6592222"><ele>1015.0</ele><time>2026-04-26T12:05:17.454Z</time></trkpt><trkpt lat="45.9181406" lon="11.6594198"><ele>1014.0</ele><time>2026-04-26T12:05:18.454Z</time></trkpt><trkpt lat="45.918138" lon="11.659612"><ele>1013.0</ele><time>2026-04-26T12:05:19.454Z</time></trkpt><trkpt lat="45.9181115" lon="11.6598045"><ele>1012.0</ele><time>2026-04-26T12:05:20.455Z</time></trkpt><trkpt lat="45.9180406" lon="11.6599807"><ele>1011.0</ele><time>2026-04-26T12:05:21.454Z</time></trkpt><trkpt lat="45.9179786" lon="11.6601464"><ele>1011.0</ele><time>2026-04-26T12:05:22.454Z</time></trkpt><trkpt lat="45.9178561" lon="11.6602295"><ele>1010.9999999999999</ele><time>2026-04-26T12:05:23.454Z</time></trkpt><trkpt lat="45.917746" lon="11.6603217"><ele>1010.9999999999999</ele><time>2026-04-26T12:05:24.455Z</time></trkpt><trkpt lat="45.9177175" lon="11.660451"><ele>1011.0</ele><time>2026-04-26T12:05:25.454Z</time></trkpt><trkpt lat="45.9177199" lon="11.6605745"><ele>1011.0</ele><time>2026-04-26T12:05:26.454Z</time></trkpt><trkpt lat="45.9177372" lon="11.6607244"><ele>1011.75</ele><time>2026-04-26T12:05:27.454Z</time></trkpt><trkpt lat="45.917804" lon="11.6608731"><ele>1012.5</ele><time>2026-04-26T12:05:28.454Z</time></trkpt><trkpt lat="45.9178714" lon="11.6610258"><ele>1013.25</ele><time>2026-04-26T12:05:29.455Z</time></trkpt><trkpt lat="45.9179508" lon="11.6611836"><ele>1014.0</ele><time>2026-04-26T12:05:30.454Z</time></trkpt><trkpt lat="45.918044" lon="11.6613515"><ele>1008.0</ele><time>2026-04-26T12:05:31.454Z</time></trkpt><trkpt lat="45.9181435" lon="11.6615112"><ele>1002.0</ele><time>2026-04-26T12:05:32.454Z</time></trkpt><trkpt lat="45.9182638" lon="11.661673"><ele>996.0</ele><time>2026-04-26T12:05:33.454Z</time></trkpt><trkpt lat="45.9183658" lon="11.6618419"><ele>1001.0</ele><time>2026-04-26T12:05:34.454Z</time></trkpt><trkpt lat="45.9184737" lon="11.6620036"><ele>1006.0</ele><time>2026-04-26T12:05:35.455Z</time></trkpt><trkpt lat="45.9185822" lon="11.6621696"><ele>1011.0</ele><time>2026-04-26T12:05:36.455Z</time></trkpt><trkpt lat="45.9186963" lon="11.6623325"><ele>1011.0</ele><time>2026-04-26T12:05:37.454Z</time></trkpt><trkpt lat="45.9188084" lon="11.662513"><ele>1011.0</ele><time>2026-04-26T12:05:38.454Z</time></trkpt><trkpt lat="45.9189078" lon="11.6626935"><ele>1011.0</ele><time>2026-04-26T12:05:39.455Z</time></trkpt><trkpt lat="45.9189961" lon="11.6628838"><ele>1012.3333333333333</ele><time>2026-04-26T12:05:40.454Z</time></trkpt><trkpt lat="45.9190991" lon="11.6630604"><ele>1013.6666666666666</ele><time>2026-04-26T12:05:41.454Z</time></trkpt><trkpt lat="45.9192371" lon="11.6632081"><ele>1015.0</ele><time>2026-04-26T12:05:42.454Z</time></trkpt><trkpt lat="45.9193869" lon="11.6633568"><ele>1015.0</ele><time>2026-04-26T12:05:43.455Z</time></trkpt><trkpt lat="45.9195303" lon="11.6635039"><ele>1015.0</ele><time>2026-04-26T12:05:44.455Z</time></trkpt><trkpt lat="45.9196819" lon="11.6636774"><ele>1015.0</ele><time>2026-04-26T12:05:45.454Z</time></trkpt><trkpt lat="45.9198338" lon="11.6638346"><ele>1012.6666666666666</ele><time>2026-04-26T12:05:46.454Z</time></trkpt><trkpt lat="45.9199912" lon="11.6639145"><ele>1010.3333333333333</ele><time>2026-04-26T12:05:47.454Z</time></trkpt><trkpt lat="45.9201316" lon="11.6639711"><ele>1008.0</ele><time>2026-04-26T12:05:48.454Z</time></trkpt><trkpt lat="45.9202876" lon="11.6640422"><ele>1008.0</ele><time>2026-04-26T12:05:49.455Z</time></trkpt><trkpt lat="45.9204315" lon="11.6641431"><ele>1008.0</ele><time>2026-04-26T12:05:50.454Z</time></trkpt><trkpt lat="45.9205624" lon="11.6642817"><ele>1008.0</ele><time>2026-04-26T12:05:51.454Z</time></trkpt><trkpt lat="45.9206736" lon="11.6644614"><ele>1008.3333333333333</ele><time>2026-04-26T12:05:52.455Z</time></trkpt><trkpt lat="45.9207798" lon="11.6646273"><ele>1008.6666666666666</ele><time>2026-04-26T12:05:53.454Z</time></trkpt><trkpt lat="45.9209098" lon="11.6647452"><ele>1009.0</ele><time>2026-04-26T12:05:54.454Z</time></trkpt><trkpt lat="45.9210581" lon="11.6648076"><ele>1009.0</ele><time>2026-04-26T12:05:55.454Z</time></trkpt><trkpt lat="45.921209" lon="11.6648647"><ele>1009.0</ele><time>2026-04-26T12:05:56.454Z</time></trkpt><trkpt lat="45.9213443" lon="11.6649586"><ele>1009.0</ele><time>2026-04-26T12:05:57.454Z</time></trkpt><trkpt lat="45.9214541" lon="11.6650997"><ele>1006.3333333333333</ele><time>2026-04-26T12:05:58.455Z</time></trkpt><trkpt lat="45.9215425" lon="11.6652793"><ele>1003.6666666666667</ele><time>2026-04-26T12:05:59.454Z</time></trkpt><trkpt lat="45.9216293" lon="11.6654451"><ele>1001.0</ele><time>2026-04-26T12:06:00.454Z</time></trkpt><trkpt lat="45.9217494" lon="11.6656092"><ele>1009.6666666666667</ele><time>2026-04-26T12:06:01.454Z</time></trkpt><trkpt lat="45.9218637" lon="11.6657629"><ele>1018.3333333333333</ele><time>2026-04-26T12:06:02.455Z</time></trkpt><trkpt lat="45.9219837" lon="11.6659261"><ele>1027.0</ele><time>2026-04-26T12:06:03.455Z</time></trkpt><trkpt lat="45.9220905" lon="11.6660806"><ele>1025.0</ele><time>2026-04-26T12:06:04.454Z</time></trkpt><trkpt lat="45.9221906" lon="11.6662262"><ele>1023.0</ele><time>2026-04-26T12:06:05.454Z</time></trkpt><trkpt lat="45.9222603" lon="11.666382"><ele>1021.0</ele><time>2026-04-26T12:06:06.454Z</time></trkpt><trkpt lat="45.9222993" lon="11.66654"><ele>1019.0</ele><time>2026-04-26T12:06:07.455Z</time></trkpt><trkpt lat="45.9223277" lon="11.6666886"><ele>1019.0</ele><time>2026-04-26T12:06:08.455Z</time></trkpt><trkpt lat="45.9223206" lon="11.6668264"><ele>1019.0000000000001</ele><time>2026-04-26T12:06:09.454Z</time></trkpt><trkpt lat="45.9223112" lon="11.6669562"><ele>1019.0000000000001</ele><time>2026-04-26T12:06:10.454Z</time></trkpt><trkpt lat="45.9222938" lon="11.6670665"><ele>1019.0</ele><time>2026-04-26T12:06:11.454Z</time></trkpt><trkpt lat="45.9221764" lon="11.6669154"><ele>1019.0</ele><time>2026-04-26T12:06:12.454Z</time></trkpt><trkpt lat="45.9220732" lon="11.6668515"><ele>1019.0</ele><time>2026-04-26T12:06:13.455Z</time></trkpt><trkpt lat="45.9219496" lon="11.6667874"><ele>1019.0</ele><time>2026-04-26T12:06:14.454Z</time></trkpt><trkpt lat="45.9218055" lon="11.6667618"><ele>1019.0</ele><time>2026-04-26T12:06:15.454Z</time></trkpt><trkpt lat="45.9216839" lon="11.6667546"><ele>1019.0</ele><time>2026-04-26T12:06:16.454Z</time></trkpt><trkpt lat="45.9215454" lon="11.6667576"><ele>1018.0</ele><time>2026-04-26T12:06:17.454Z</time></trkpt><trkpt lat="45.921402" lon="11.6667673"><ele>1017.0</ele><time>2026-04-26T12:06:18.454Z</time></trkpt><trkpt lat="45.9212838" lon="11.6668091"><ele>1016.0</ele><time>2026-04-26T12:06:19.454Z</time></trkpt><trkpt lat="45.9211537" lon="11.6668434"><ele>1015.0</ele><time>2026-04-26T12:06:20.454Z</time></trkpt><trkpt lat="45.9209745" lon="11.6668928"><ele>1019.0</ele><time>2026-04-26T12:06:21.454Z</time></trkpt><trkpt lat="45.9208546" lon="11.6669463"><ele>1023.0</ele><time>2026-04-26T12:06:22.454Z</time></trkpt><trkpt lat="45.9207555" lon="11.6670604"><ele>1027.0</ele><time>2026-04-26T12:06:23.454Z</time></trkpt><trkpt lat="45.920651" lon="11.6671588"><ele>1031.0</ele><time>2026-04-26T12:06:24.454Z</time></trkpt><trkpt lat="45.9206142" lon="11.6674769"><ele>1036.3333333333335</ele><time>2026-04-26T12:06:25.454Z</time></trkpt><trkpt lat="45.9205631" lon="11.6677867"><ele>1041.6666666666667</ele><time>2026-04-26T12:06:26.454Z</time></trkpt><trkpt lat="45.9205698" lon="11.6680901"><ele>1047.0</ele><time>2026-04-26T12:06:27.454Z</time></trkpt><trkpt lat="45.9205547" lon="11.6682985"><ele>1047.0</ele><time>2026-04-26T12:06:28.455Z</time></trkpt><trkpt lat="45.9205413" lon="11.6684909"><ele>1047.0</ele><time>2026-04-26T12:06:29.455Z</time></trkpt><trkpt lat="45.9204937" lon="11.6686577"><ele>1047.0</ele><time>2026-04-26T12:06:30.454Z</time></trkpt><trkpt lat="45.9204416" lon="11.668811"><ele>1047.0</ele><time>2026-04-26T12:06:31.454Z</time></trkpt><trkpt lat="45.9203969" lon="11.6689223"><ele>1046.6666666666667</ele><time>2026-04-26T12:06:32.454Z</time></trkpt><trkpt lat="45.9203632" lon="11.669029"><ele>1046.3333333333335</ele><time>2026-04-26T12:06:33.454Z</time></trkpt><trkpt lat="45.9201161" lon="11.6690364"><ele>1046.0</ele><time>2026-04-26T12:06:34.455Z</time></trkpt><trkpt lat="45.9200072" lon="11.6691303"><ele>1046.0</ele><time>2026-04-26T12:06:35.454Z</time></trkpt><trkpt lat="45.9199019" lon="11.6691918"><ele>1046.0</ele><time>2026-04-26T12:06:36.454Z</time></trkpt><trkpt lat="45.9197663" lon="11.6691552"><ele>1046.0</ele><time>2026-04-26T12:06:37.454Z</time></trkpt><trkpt lat="45.9196421" lon="11.6690681"><ele>1046.0</ele><time>2026-04-26T12:06:38.455Z</time></trkpt><trkpt lat="45.919534" lon="11.6689704"><ele>1046.0</ele><time>2026-04-26T12:06:39.454Z</time></trkpt><trkpt lat="45.919405" lon="11.66886"><ele>1046.0</ele><time>2026-04-26T12:06:40.454Z</time></trkpt><trkpt lat="45.9192674" lon="11.6687618"><ele>1046.0</ele><time>2026-04-26T12:06:41.454Z</time></trkpt><trkpt lat="45.9191189" lon="11.6686652"><ele>1046.6666666666667</ele><time>2026-04-26T12:06:42.454Z</time></trkpt><trkpt lat="45.918975" lon="11.6686287"><ele>1047.3333333333333</ele><time>2026-04-26T12:06:43.454Z</time></trkpt><trkpt lat="45.9188197" lon="11.6686581"><ele>1048.0</ele><time>2026-04-26T12:06:44.454Z</time></trkpt><trkpt lat="45.9186595" lon="11.668686"><ele>1048.0</ele><time>2026-04-26T12:06:45.454Z</time></trkpt><trkpt lat="45.9184993" lon="11.6686961"><ele>1048.0</ele><time>2026-04-26T12:06:46.454Z</time></trkpt><trkpt lat="45.9183333" lon="11.6686612"><ele>1048.0</ele><time>2026-04-26T12:06:47.455Z</time></trkpt><trkpt lat="45.918173" lon="11.6686371"><ele>1042.6666666666665</ele><time>2026-04-26T12:06:48.454Z</time></trkpt><trkpt lat="45.9180084" lon="11.6685354"><ele>1037.3333333333333</ele><time>2026-04-26T12:06:49.454Z</time></trkpt><trkpt lat="45.9178435" lon="11.6684594"><ele>1032.0</ele><time>2026-04-26T12:06:50.455Z</time></trkpt><trkpt lat="45.9176804" lon="11.6683849"><ele>1036.0</ele><time>2026-04-26T12:06:51.454Z</time></trkpt><trkpt lat="45.9175335" lon="11.6683241"><ele>1040.0</ele><time>2026-04-26T12:06:52.455Z</time></trkpt><trkpt lat="45.9173509" lon="11.6682901"><ele>1044.0</ele><time>2026-04-26T12:06:53.454Z</time></trkpt><trkpt lat="45.9171785" lon="11.6682556"><ele>1044.0</ele><time>2026-04-26T12:06:54.454Z</time></trkpt><trkpt lat="45.9170157" lon="11.6682596"><ele>1044.0</ele><time>2026-04-26T12:06:55.454Z</time></trkpt><trkpt lat="45.9169056" lon="11.6683129"><ele>1044.0</ele><time>2026-04-26T12:06:56.454Z</time></trkpt><trkpt lat="45.9167522" lon="11.6683563"><ele>1044.0</ele><time>2026-04-26T12:06:57.454Z</time></trkpt><trkpt lat="45.9166471" lon="11.6684869"><ele>1044.0</ele><time>2026-04-26T12:06:58.455Z</time></trkpt><trkpt lat="45.9165036" lon="11.6685783"><ele>1044.0</ele><time>2026-04-26T12:06:59.454Z</time></trkpt><trkpt lat="45.9163757" lon="11.6686482"><ele>1044.0</ele><time>2026-04-26T12:07:00.454Z</time></trkpt><trkpt lat="45.9162122" lon="11.6686953"><ele>1053.3333333333333</ele><time>2026-04-26T12:07:01.454Z</time></trkpt><trkpt lat="45.9160408" lon="11.6687129"><ele>1062.6666666666665</ele><time>2026-04-26T12:07:02.454Z</time></trkpt><trkpt lat="45.915916" lon="11.6686774"><ele>1072.0</ele><time>2026-04-26T12:07:03.454Z</time></trkpt><trkpt lat="45.9157616" lon="11.6686516"><ele>1072.0</ele><time>2026-04-26T12:07:04.454Z</time></trkpt><trkpt lat="45.9156088" lon="11.6686479"><ele>1072.0</ele><time>2026-04-26T12:07:05.454Z</time></trkpt><trkpt lat="45.9154405" lon="11.6686521"><ele>1072.0</ele><time>2026-04-26T12:07:06.454Z</time></trkpt><trkpt lat="45.9152834" lon="11.668627"><ele>1063.3333333333333</ele><time>2026-04-26T12:07:07.454Z</time></trkpt><trkpt lat="45.9151244" lon="11.6686093"><ele>1054.6666666666667</ele><time>2026-04-26T12:07:08.455Z</time></trkpt><trkpt lat="45.9149483" lon="11.6685118"><ele>1046.0</ele><time>2026-04-26T12:07:09.454Z</time></trkpt><trkpt lat="45.9147974" lon="11.6683853"><ele>1046.0</ele><time>2026-04-26T12:07:10.455Z</time></trkpt><trkpt lat="45.9146438" lon="11.6683076"><ele>1046.0</ele><time>2026-04-26T12:07:11.455Z</time></trkpt><trkpt lat="45.9144661" lon="11.6682436"><ele>1046.0</ele><time>2026-04-26T12:07:12.454Z</time></trkpt><trkpt lat="45.9143152" lon="11.6681749"><ele>1045.5</ele><time>2026-04-26T12:07:13.454Z</time></trkpt><trkpt lat="45.9141891" lon="11.6681607"><ele>1045.0</ele><time>2026-04-26T12:07:14.455Z</time></trkpt><trkpt lat="45.9140579" lon="11.6681425"><ele>1044.5</ele><time>2026-04-26T12:07:15.454Z</time></trkpt><trkpt lat="45.9139433" lon="11.6682221"><ele>1044.0</ele><time>2026-04-26T12:07:16.454Z</time></trkpt><trkpt lat="45.9138763" lon="11.6683539"><ele>1044.0</ele><time>2026-04-26T12:07:17.454Z</time></trkpt><trkpt lat="45.913837" lon="11.6685222"><ele>1044.0</ele><time>2026-04-26T12:07:18.454Z</time></trkpt><trkpt lat="45.9138271" lon="11.6686889"><ele>1044.0</ele><time>2026-04-26T12:07:19.454Z</time></trkpt><trkpt lat="45.9138341" lon="11.6688572"><ele>1044.0</ele><time>2026-04-26T12:07:20.455Z</time></trkpt><trkpt lat="45.9139659" lon="11.6690871"><ele>1045.0</ele><time>2026-04-26T12:07:21.454Z</time></trkpt><trkpt lat="45.9140599" lon="11.6692963"><ele>1046.0</ele><time>2026-04-26T12:07:22.454Z</time></trkpt><trkpt lat="45.9141776" lon="11.6695128"><ele>1047.0</ele><time>2026-04-26T12:07:23.455Z</time></trkpt><trkpt lat="45.9142818" lon="11.6697356"><ele>1052.3333333333333</ele><time>2026-04-26T12:07:24.454Z</time></trkpt><trkpt lat="45.9143766" lon="11.6699599"><ele>1057.6666666666665</ele><time>2026-04-26T12:07:25.454Z</time></trkpt><trkpt lat="45.9144744" lon="11.670192"><ele>1063.0</ele><time>2026-04-26T12:07:26.454Z</time></trkpt><trkpt lat="45.9145766" lon="11.6704231"><ele>1063.0</ele><time>2026-04-26T12:07:27.455Z</time></trkpt><trkpt lat="45.9146664" lon="11.6706843"><ele>1063.0</ele><time>2026-04-26T12:07:28.454Z</time></trkpt><trkpt lat="45.9147784" lon="11.6709179"><ele>1063.0</ele><time>2026-04-26T12:07:29.455Z</time></trkpt><trkpt lat="45.914878" lon="11.6711501"><ele>1060.0</ele><time>2026-04-26T12:07:30.454Z</time></trkpt><trkpt lat="45.9149602" lon="11.67139"><ele>1057.0</ele><time>2026-04-26T12:07:31.455Z</time></trkpt><trkpt lat="45.9149957" lon="11.6716528"><ele>1054.0</ele><time>2026-04-26T12:07:32.454Z</time></trkpt><trkpt lat="45.9149812" lon="11.671918"><ele>1055.3333333333333</ele><time>2026-04-26T12:07:33.454Z</time></trkpt><trkpt lat="45.9149539" lon="11.6721769"><ele>1056.6666666666667</ele><time>2026-04-26T12:07:34.454Z</time></trkpt><trkpt lat="45.9149416" lon="11.6724416"><ele>1058.0</ele><time>2026-04-26T12:07:35.454Z</time></trkpt><trkpt lat="45.914946" lon="11.6726994"><ele>1059.0</ele><time>2026-04-26T12:07:36.455Z</time></trkpt><trkpt lat="45.9149508" lon="11.6729645"><ele>1060.0</ele><time>2026-04-26T12:07:37.454Z</time></trkpt><trkpt lat="45.9149563" lon="11.6732224"><ele>1061.0</ele><time>2026-04-26T12:07:38.454Z</time></trkpt><trkpt lat="45.9149682" lon="11.6734799"><ele>1060.6666666666667</ele><time>2026-04-26T12:07:39.454Z</time></trkpt><trkpt lat="45.914981" lon="11.6737195"><ele>1060.3333333333333</ele><time>2026-04-26T12:07:40.454Z</time></trkpt><trkpt lat="45.9149981" lon="11.6739643"><ele>1060.0</ele><time>2026-04-26T12:07:41.455Z</time></trkpt><trkpt lat="45.9149972" lon="11.6741994"><ele>1060.0</ele><time>2026-04-26T12:07:42.454Z</time></trkpt><trkpt lat="45.9149732" lon="11.6744236"><ele>1060.0</ele><time>2026-04-26T12:07:43.455Z</time></trkpt><trkpt lat="45.9149362" lon="11.6746395"><ele>1060.0</ele><time>2026-04-26T12:07:44.454Z</time></trkpt><trkpt lat="45.9148991" lon="11.6748435"><ele>1059.5</ele><time>2026-04-26T12:07:45.455Z</time></trkpt><trkpt lat="45.914857" lon="11.6750409"><ele>1059.0</ele><time>2026-04-26T12:07:46.454Z</time></trkpt><trkpt lat="45.9148358" lon="11.675211"><ele>1058.5</ele><time>2026-04-26T12:07:47.455Z</time></trkpt><trkpt lat="45.9148618" lon="11.6753567"><ele>1058.0</ele><time>2026-04-26T12:07:48.454Z</time></trkpt><trkpt lat="45.9149177" lon="11.675487"><ele>1058.0</ele><time>2026-04-26T12:07:49.454Z</time></trkpt><trkpt lat="45.9150045" lon="11.6755639"><ele>1058.0</ele><time>2026-04-26T12:07:50.454Z</time></trkpt><trkpt lat="45.915112" lon="11.6755777"><ele>1058.0</ele><time>2026-04-26T12:07:51.455Z</time></trkpt><trkpt lat="45.915231" lon="11.6755693"><ele>1058.0</ele><time>2026-04-26T12:07:52.454Z</time></trkpt><trkpt lat="45.9153538" lon="11.6755423"><ele>1055.5</ele><time>2026-04-26T12:07:53.454Z</time></trkpt><trkpt lat="45.9154871" lon="11.6755013"><ele>1053.0</ele><time>2026-04-26T12:07:54.454Z</time></trkpt><trkpt lat="45.9156208" lon="11.6754566"><ele>1050.5</ele><time>2026-04-26T12:07:55.455Z</time></trkpt><trkpt lat="45.9157538" lon="11.6753987"><ele>1048.0</ele><time>2026-04-26T12:07:56.454Z</time></trkpt><trkpt lat="45.9158897" lon="11.6753466"><ele>1045.5</ele><time>2026-04-26T12:07:57.455Z</time></trkpt><trkpt lat="45.9160177" lon="11.6752915"><ele>1043.0</ele><time>2026-04-26T12:07:58.454Z</time></trkpt><trkpt lat="45.9161606" lon="11.6752369"><ele>1040.5</ele><time>2026-04-26T12:07:59.455Z</time></trkpt><trkpt lat="45.9163051" lon="11.6751911"><ele>1038.0</ele><time>2026-04-26T12:08:00.454Z</time></trkpt><trkpt lat="45.9164537" lon="11.6751499"><ele>1045.3333333333333</ele><time>2026-04-26T12:08:01.454Z</time></trkpt><trkpt lat="45.9166071" lon="11.6751063"><ele>1052.6666666666665</ele><time>2026-04-26T12:08:02.454Z</time></trkpt><trkpt lat="45.916757" lon="11.675059"><ele>1060.0</ele><time>2026-04-26T12:08:03.454Z</time></trkpt><trkpt lat="45.9169032" lon="11.6749785"><ele>1060.0</ele><time>2026-04-26T12:08:04.455Z</time></trkpt><trkpt lat="45.9170386" lon="11.6748592"><ele>1060.0</ele><time>2026-04-26T12:08:05.455Z</time></trkpt><trkpt lat="45.9171739" lon="11.67473"><ele>1060.0</ele><time>2026-04-26T12:08:06.454Z</time></trkpt><trkpt lat="45.9173104" lon="11.6746049"><ele>1060.0</ele><time>2026-04-26T12:08:07.454Z</time></trkpt><trkpt lat="45.9174592" lon="11.6745018"><ele>1060.0</ele><time>2026-04-26T12:08:08.454Z</time></trkpt><trkpt lat="45.9176181" lon="11.6744276"><ele>1060.0</ele><time>2026-04-26T12:08:09.454Z</time></trkpt><trkpt lat="45.9177802" lon="11.6743856"><ele>1063.0</ele><time>2026-04-26T12:08:10.454Z</time></trkpt><trkpt lat="45.9179508" lon="11.6743794"><ele>1066.0</ele><time>2026-04-26T12:08:11.454Z</time></trkpt><trkpt lat="45.9181116" lon="11.6744189"><ele>1069.0</ele><time>2026-04-26T12:08:12.455Z</time></trkpt><trkpt lat="45.9182691" lon="11.6745012"><ele>1073.3333333333333</ele><time>2026-04-26T12:08:13.454Z</time></trkpt><trkpt lat="45.9184086" lon="11.6746385"><ele>1077.6666666666667</ele><time>2026-04-26T12:08:14.455Z</time></trkpt><trkpt lat="45.9185419" lon="11.6747861"><ele>1082.0</ele><time>2026-04-26T12:08:15.454Z</time></trkpt><trkpt lat="45.9186631" lon="11.674965"><ele>1082.0</ele><time>2026-04-26T12:08:16.454Z</time></trkpt><trkpt lat="45.9187818" lon="11.6751487"><ele>1082.0</ele><time>2026-04-26T12:08:17.454Z</time></trkpt><trkpt lat="45.9188873" lon="11.6753463"><ele>1082.0</ele><time>2026-04-26T12:08:18.454Z</time></trkpt><trkpt lat="45.9189931" lon="11.6755477"><ele>1082.6666666666667</ele><time>2026-04-26T12:08:19.454Z</time></trkpt><trkpt lat="45.9191086" lon="11.6757357"><ele>1083.3333333333333</ele><time>2026-04-26T12:08:20.454Z</time></trkpt><trkpt lat="45.9192505" lon="11.6758765"><ele>1084.0</ele><time>2026-04-26T12:08:21.454Z</time></trkpt><trkpt lat="45.9193764" lon="11.6760036"><ele>1084.0</ele><time>2026-04-26T12:08:22.454Z</time></trkpt><trkpt lat="45.9195548" lon="11.6760534"><ele>1084.0</ele><time>2026-04-26T12:08:23.454Z</time></trkpt><trkpt lat="45.9197221" lon="11.6761032"><ele>1084.0</ele><time>2026-04-26T12:08:24.455Z</time></trkpt><trkpt lat="45.9198838" lon="11.6761489"><ele>1079.0</ele><time>2026-04-26T12:08:25.455Z</time></trkpt><trkpt lat="45.9200496" lon="11.6761903"><ele>1074.0</ele><time>2026-04-26T12:08:26.454Z</time></trkpt><trkpt lat="45.9202175" lon="11.6762383"><ele>1069.0</ele><time>2026-04-26T12:08:27.454Z</time></trkpt><trkpt lat="45.9203807" lon="11.6762673"><ele>1069.0</ele><time>2026-04-26T12:08:28.454Z</time></trkpt><trkpt lat="45.92055" lon="11.6762655"><ele>1069.0</ele><time>2026-04-26T12:08:29.455Z</time></trkpt><trkpt lat="45.9207137" lon="11.6762534"><ele>1069.0</ele><time>2026-04-26T12:08:30.454Z</time></trkpt><trkpt lat="45.9208595" lon="11.6763082"><ele>1073.0</ele><time>2026-04-26T12:08:31.454Z</time></trkpt><trkpt lat="45.9209943" lon="11.6764061"><ele>1077.0</ele><time>2026-04-26T12:08:32.455Z</time></trkpt><trkpt lat="45.9211258" lon="11.6765035"><ele>1081.0</ele><time>2026-04-26T12:08:33.454Z</time></trkpt><trkpt lat="45.9212635" lon="11.676592"><ele>1081.0</ele><time>2026-04-26T12:08:34.454Z</time></trkpt><trkpt lat="45.9214032" lon="11.6766453"><ele>1081.0</ele><time>2026-04-26T12:08:35.454Z</time></trkpt><trkpt lat="45.9215425" lon="11.6766604"><ele>1081.0</ele><time>2026-04-26T12:08:36.454Z</time></trkpt><trkpt lat="45.9217045" lon="11.6766284"><ele>1081.0</ele><time>2026-04-26T12:08:37.454Z</time></trkpt><trkpt lat="45.9218909" lon="11.6765762"><ele>1082.0</ele><time>2026-04-26T12:08:38.454Z</time></trkpt><trkpt lat="45.9220946" lon="11.6765471"><ele>1083.0</ele><time>2026-04-26T12:08:39.454Z</time></trkpt><trkpt lat="45.9222856" lon="11.6765464"><ele>1084.0</ele><time>2026-04-26T12:08:40.455Z</time></trkpt><trkpt lat="45.9224742" lon="11.6765296"><ele>1083.3333333333333</ele><time>2026-04-26T12:08:41.455Z</time></trkpt><trkpt lat="45.9226855" lon="11.6765027"><ele>1082.6666666666667</ele><time>2026-04-26T12:08:42.454Z</time></trkpt><trkpt lat="45.9228826" lon="11.6764603"><ele>1082.0</ele><time>2026-04-26T12:08:43.454Z</time></trkpt><trkpt lat="45.9230739" lon="11.6764162"><ele>1082.0</ele><time>2026-04-26T12:08:44.454Z</time></trkpt><trkpt lat="45.923263" lon="11.6763463"><ele>1082.0</ele><time>2026-04-26T12:08:45.455Z</time></trkpt><trkpt lat="45.9234547" lon="11.6763547"><ele>1082.0</ele><time>2026-04-26T12:08:46.454Z</time></trkpt><trkpt lat="45.9236549" lon="11.676325"><ele>1080.6666666666667</ele><time>2026-04-26T12:08:47.455Z</time></trkpt><trkpt lat="45.9238453" lon="11.6763028"><ele>1079.3333333333333</ele><time>2026-04-26T12:08:48.454Z</time></trkpt><trkpt lat="45.923945" lon="11.6762896"><ele>1078.0</ele><time>2026-04-26T12:08:49.455Z</time></trkpt><trkpt lat="45.9241167" lon="11.6762893"><ele>1078.3333333333333</ele><time>2026-04-26T12:08:50.454Z</time></trkpt><trkpt lat="45.9242738" lon="11.6761379"><ele>1078.6666666666667</ele><time>2026-04-26T12:08:51.455Z</time></trkpt><trkpt lat="45.9244457" lon="11.676084"><ele>1079.0</ele><time>2026-04-26T12:08:52.454Z</time></trkpt><trkpt lat="45.924594" lon="11.6760991"><ele>1079.0</ele><time>2026-04-26T12:08:53.455Z</time></trkpt><trkpt lat="45.9247431" lon="11.6761107"><ele>1079.0</ele><time>2026-04-26T12:08:54.454Z</time></trkpt><trkpt lat="45.9249095" lon="11.6761679"><ele>1079.0</ele><time>2026-04-26T12:08:55.455Z</time></trkpt><trkpt lat="45.925037" lon="11.6762059"><ele>1084.6666666666667</ele><time>2026-04-26T12:08:56.454Z</time></trkpt><trkpt lat="45.9252054" lon="11.6761921"><ele>1090.3333333333333</ele><time>2026-04-26T12:08:57.454Z</time></trkpt><trkpt lat="45.9253589" lon="11.6761914"><ele>1096.0</ele><time>2026-04-26T12:08:58.454Z</time></trkpt><trkpt lat="45.9255191" lon="11.6762655"><ele>1096.0</ele><time>2026-04-26T12:08:59.454Z</time></trkpt><trkpt lat="45.9256712" lon="11.6763861"><ele>1096.0</ele><time>2026-04-26T12:09:00.454Z</time></trkpt><trkpt lat="45.9258578" lon="11.6764872"><ele>1096.0</ele><time>2026-04-26T12:09:01.455Z</time></trkpt><trkpt lat="45.9260644" lon="11.6765395"><ele>1098.6666666666665</ele><time>2026-04-26T12:09:02.454Z</time></trkpt><trkpt lat="45.9262429" lon="11.6765716"><ele>1101.3333333333333</ele><time>2026-04-26T12:09:03.454Z</time></trkpt><trkpt lat="45.9264184" lon="11.6765446"><ele>1104.0</ele><time>2026-04-26T12:09:04.454Z</time></trkpt><trkpt lat="45.9265735" lon="11.676512"><ele>1104.0</ele><time>2026-04-26T12:09:05.455Z</time></trkpt><trkpt lat="45.9267162" lon="11.6765157"><ele>1104.0</ele><time>2026-04-26T12:09:06.454Z</time></trkpt><trkpt lat="45.9268436" lon="11.676582"><ele>1104.0</ele><time>2026-04-26T12:09:07.454Z</time></trkpt><trkpt lat="45.9269488" lon="11.6767026"><ele>1104.0</ele><time>2026-04-26T12:09:08.454Z</time></trkpt><trkpt lat="45.9270189" lon="11.6768716"><ele>1109.5</ele><time>2026-04-26T12:09:09.454Z</time></trkpt><trkpt lat="45.9270692" lon="11.6770485"><ele>1115.0</ele><time>2026-04-26T12:09:10.455Z</time></trkpt><trkpt lat="45.9270642" lon="11.6772661"><ele>1120.5</ele><time>2026-04-26T12:09:11.455Z</time></trkpt><trkpt lat="45.9270616" lon="11.6774881"><ele>1126.0</ele><time>2026-04-26T12:09:12.454Z</time></trkpt><trkpt lat="45.9271125" lon="11.6776847"><ele>1125.25</ele><time>2026-04-26T12:09:13.454Z</time></trkpt><trkpt lat="45.9271919" lon="11.6778652"><ele>1124.5</ele><time>2026-04-26T12:09:14.454Z</time></trkpt><trkpt lat="45.9272707" lon="11.6780424"><ele>1123.75</ele><time>2026-04-26T12:09:15.454Z</time></trkpt><trkpt lat="45.9273061" lon="11.6782404"><ele>1123.0</ele><time>2026-04-26T12:09:16.455Z</time></trkpt><trkpt lat="45.9273267" lon="11.6784587"><ele>1125.3333333333333</ele><time>2026-04-26T12:09:17.455Z</time></trkpt><trkpt lat="45.9271832" lon="11.6786351"><ele>1127.6666666666667</ele><time>2026-04-26T12:09:18.454Z</time></trkpt><trkpt lat="45.9270895" lon="11.6788393"><ele>1130.0</ele><time>2026-04-26T12:09:19.454Z</time></trkpt><trkpt lat="45.9270006" lon="11.679045"><ele>1130.0</ele><time>2026-04-26T12:09:20.455Z</time></trkpt><trkpt lat="45.9269218" lon="11.679267"><ele>1130.0</ele><time>2026-04-26T12:09:21.454Z</time></trkpt><trkpt lat="45.9268191" lon="11.6794646"><ele>1130.0</ele><time>2026-04-26T12:09:22.454Z</time></trkpt><trkpt lat="45.9267147" lon="11.67971"><ele>1121.3333333333335</ele><time>2026-04-26T12:09:23.455Z</time></trkpt><trkpt lat="45.9266282" lon="11.6799539"><ele>1112.6666666666667</ele><time>2026-04-26T12:09:24.454Z</time></trkpt><trkpt lat="45.926542" lon="11.6801833"><ele>1104.0</ele><time>2026-04-26T12:09:25.455Z</time></trkpt><trkpt lat="45.9264503" lon="11.6804489"><ele>1104.0</ele><time>2026-04-26T12:09:26.454Z</time></trkpt><trkpt lat="45.9263788" lon="11.6806668"><ele>1104.0</ele><time>2026-04-26T12:09:27.454Z</time></trkpt><trkpt lat="45.9263165" lon="11.6808647"><ele>1104.0</ele><time>2026-04-26T12:09:28.455Z</time></trkpt><trkpt lat="45.9262563" lon="11.6810527"><ele>1101.25</ele><time>2026-04-26T12:09:29.454Z</time></trkpt><trkpt lat="45.9262923" lon="11.6812435"><ele>1098.5</ele><time>2026-04-26T12:09:30.454Z</time></trkpt><trkpt lat="45.9263412" lon="11.6813903"><ele>1095.75</ele><time>2026-04-26T12:09:31.454Z</time></trkpt><trkpt lat="45.9263831" lon="11.6814897"><ele>1093.0</ele><time>2026-04-26T12:09:32.454Z</time></trkpt><trkpt lat="45.926577" lon="11.6814597"><ele>1093.6666666666665</ele><time>2026-04-26T12:09:33.454Z</time></trkpt><trkpt lat="45.9267281" lon="11.6814077"><ele>1094.3333333333333</ele><time>2026-04-26T12:09:34.454Z</time></trkpt><trkpt lat="45.9269006" lon="11.6813325"><ele>1095.0</ele><time>2026-04-26T12:09:35.454Z</time></trkpt><trkpt lat="45.9270752" lon="11.6812901"><ele>1095.0</ele><time>2026-04-26T12:09:36.454Z</time></trkpt><trkpt lat="45.9272563" lon="11.6813022"><ele>1095.0</ele><time>2026-04-26T12:09:37.454Z</time></trkpt><trkpt lat="45.9274401" lon="11.6813148"><ele>1095.0</ele><time>2026-04-26T12:09:38.454Z</time></trkpt><trkpt lat="45.9276203" lon="11.6812956"><ele>1092.0</ele><time>2026-04-26T12:09:39.454Z</time></trkpt><trkpt lat="45.9278156" lon="11.6811893"><ele>1089.0</ele><time>2026-04-26T12:09:40.455Z</time></trkpt><trkpt lat="45.9279977" lon="11.6811193"><ele>1086.0</ele><time>2026-04-26T12:09:41.455Z</time></trkpt><trkpt lat="45.9281925" lon="11.6810445"><ele>1093.3333333333333</ele><time>2026-04-26T12:09:42.455Z</time></trkpt><trkpt lat="45.9283751" lon="11.6809592"><ele>1100.6666666666665</ele><time>2026-04-26T12:09:43.454Z</time></trkpt><trkpt lat="45.9285654" lon="11.6808983"><ele>1108.0</ele><time>2026-04-26T12:09:44.455Z</time></trkpt><trkpt lat="45.9287456" lon="11.6808842"><ele>1111.6666666666665</ele><time>2026-04-26T12:09:45.455Z</time></trkpt><trkpt lat="45.9289162" lon="11.6809387"><ele>1115.3333333333333</ele><time>2026-04-26T12:09:46.454Z</time></trkpt><trkpt lat="45.9290779" lon="11.6810567"><ele>1119.0</ele><time>2026-04-26T12:09:47.455Z</time></trkpt><trkpt lat="45.929225" lon="11.6812087"><ele>1118.0</ele><time>2026-04-26T12:09:48.455Z</time></trkpt><trkpt lat="45.9293621" lon="11.6813563"><ele>1117.0</ele><time>2026-04-26T12:09:49.454Z</time></trkpt><trkpt lat="45.9295113" lon="11.6814811"><ele>1116.0</ele><time>2026-04-26T12:09:50.455Z</time></trkpt><trkpt lat="45.9296562" lon="11.6815584"><ele>1116.0</ele><time>2026-04-26T12:09:51.454Z</time></trkpt><trkpt lat="45.9298196" lon="11.6815825"><ele>1116.0</ele><time>2026-04-26T12:09:52.454Z</time></trkpt><trkpt lat="45.9299747" lon="11.6815994"><ele>1116.0</ele><time>2026-04-26T12:09:53.454Z</time></trkpt><trkpt lat="45.9301153" lon="11.6816627"><ele>1115.0</ele><time>2026-04-26T12:09:54.455Z</time></trkpt><trkpt lat="45.9302531" lon="11.68174"><ele>1114.0</ele><time>2026-04-26T12:09:55.454Z</time></trkpt><trkpt lat="45.9303562" lon="11.6819346"><ele>1113.0</ele><time>2026-04-26T12:09:56.455Z</time></trkpt><trkpt lat="45.930476" lon="11.6821022"><ele>1113.0</ele><time>2026-04-26T12:09:57.454Z</time></trkpt><trkpt lat="45.9306268" lon="11.6822396"><ele>1113.0</ele><time>2026-04-26T12:09:58.454Z</time></trkpt><trkpt lat="45.9307775" lon="11.6823683"><ele>1113.0</ele><time>2026-04-26T12:09:59.454Z</time></trkpt><trkpt lat="45.9309343" lon="11.6824808"><ele>1111.3333333333333</ele><time>2026-04-26T12:10:00.454Z</time></trkpt><trkpt lat="45.9310926" lon="11.6825988"><ele>1109.6666666666665</ele><time>2026-04-26T12:10:01.454Z</time></trkpt><trkpt lat="45.9312591" lon="11.6827123"><ele>1108.0</ele><time>2026-04-26T12:10:02.454Z</time></trkpt><trkpt lat="45.9314198" lon="11.6828319"><ele>1108.0</ele><time>2026-04-26T12:10:03.454Z</time></trkpt><trkpt lat="45.9315667" lon="11.6829646"><ele>1108.0</ele><time>2026-04-26T12:10:04.455Z</time></trkpt><trkpt lat="45.9317223" lon="11.6830862"><ele>1108.0</ele><time>2026-04-26T12:10:05.454Z</time></trkpt><trkpt lat="45.9318814" lon="11.6832168"><ele>1109.0</ele><time>2026-04-26T12:10:06.455Z</time></trkpt><trkpt lat="45.9320393" lon="11.6833492"><ele>1110.0</ele><time>2026-04-26T12:10:07.454Z</time></trkpt><trkpt lat="45.9321893" lon="11.6834741"><ele>1111.0</ele><time>2026-04-26T12:10:08.454Z</time></trkpt><trkpt lat="45.9323267" lon="11.6836269"><ele>1111.0</ele><time>2026-04-26T12:10:09.454Z</time></trkpt><trkpt lat="45.9324514" lon="11.6837723"><ele>1111.0</ele><time>2026-04-26T12:10:10.454Z</time></trkpt><trkpt lat="45.9325571" lon="11.6839453"><ele>1111.0</ele><time>2026-04-26T12:10:11.454Z</time></trkpt><trkpt lat="45.9326336" lon="11.6841492"><ele>1120.6666666666665</ele><time>2026-04-26T12:10:12.455Z</time></trkpt><trkpt lat="45.9326848" lon="11.6843505"><ele>1130.3333333333333</ele><time>2026-04-26T12:10:13.454Z</time></trkpt><trkpt lat="45.9327238" lon="11.6845671"><ele>1140.0</ele><time>2026-04-26T12:10:14.454Z</time></trkpt><trkpt lat="45.9327492" lon="11.6848032"><ele>1140.0</ele><time>2026-04-26T12:10:15.454Z</time></trkpt><trkpt lat="45.9327384" lon="11.6850086"><ele>1140.0</ele><time>2026-04-26T12:10:16.454Z</time></trkpt><trkpt lat="45.9327633" lon="11.6852317"><ele>1140.0</ele><time>2026-04-26T12:10:17.454Z</time></trkpt><trkpt lat="45.9328068" lon="11.6854524"><ele>1138.0</ele><time>2026-04-26T12:10:18.454Z</time></trkpt><trkpt lat="45.9328436" lon="11.685657"><ele>1136.0</ele><time>2026-04-26T12:10:19.454Z</time></trkpt><trkpt lat="45.932875" lon="11.6858482"><ele>1134.0</ele><time>2026-04-26T12:10:20.454Z</time></trkpt><trkpt lat="45.9328867" lon="11.6860267"><ele>1132.0</ele><time>2026-04-26T12:10:21.454Z</time></trkpt><trkpt lat="45.9328818" lon="11.6862004"><ele>1132.0</ele><time>2026-04-26T12:10:22.454Z</time></trkpt><trkpt lat="45.9328752" lon="11.6863866"><ele>1132.0</ele><time>2026-04-26T12:10:23.454Z</time></trkpt><trkpt lat="45.9328671" lon="11.6865684"><ele>1132.0</ele><time>2026-04-26T12:10:24.454Z</time></trkpt><trkpt lat="45.9328828" lon="11.6867515"><ele>1132.0</ele><time>2026-04-26T12:10:25.455Z</time></trkpt><trkpt lat="45.9328859" lon="11.6869372"><ele>1130.25</ele><time>2026-04-26T12:10:26.454Z</time></trkpt><trkpt lat="45.9328851" lon="11.6871062"><ele>1128.5</ele><time>2026-04-26T12:10:27.455Z</time></trkpt><trkpt lat="45.9328777" lon="11.687292"><ele>1126.75</ele><time>2026-04-26T12:10:28.452Z</time></trkpt><trkpt lat="45.9328958" lon="11.6874879"><ele>1125.0</ele><time>2026-04-26T12:10:29.455Z</time></trkpt><trkpt lat="45.9329159" lon="11.6876705"><ele>1122.5</ele><time>2026-04-26T12:10:30.454Z</time></trkpt><trkpt lat="45.9329484" lon="11.6878631"><ele>1120.0</ele><time>2026-04-26T12:10:31.455Z</time></trkpt><trkpt lat="45.9329934" lon="11.6880504"><ele>1117.5</ele><time>2026-04-26T12:10:32.454Z</time></trkpt><trkpt lat="45.9330332" lon="11.6882138"><ele>1115.0</ele><time>2026-04-26T12:10:33.454Z</time></trkpt><trkpt lat="45.9330948" lon="11.6883375"><ele>1115.0</ele><time>2026-04-26T12:10:34.454Z</time></trkpt><trkpt lat="45.9331743" lon="11.6884217"><ele>1115.0</ele><time>2026-04-26T12:10:35.454Z</time></trkpt><trkpt lat="45.9332606" lon="11.6884416"><ele>1115.0</ele><time>2026-04-26T12:10:36.455Z</time></trkpt><trkpt lat="45.9333513" lon="11.6883654"><ele>1115.0</ele><time>2026-04-26T12:10:37.454Z</time></trkpt><trkpt lat="45.9334509" lon="11.6882655"><ele>1115.0</ele><time>2026-04-26T12:10:38.454Z</time></trkpt><trkpt lat="45.9335537" lon="11.6881332"><ele>1112.5</ele><time>2026-04-26T12:10:39.454Z</time></trkpt><trkpt lat="45.933652" lon="11.6880026"><ele>1110.0</ele><time>2026-04-26T12:10:40.454Z</time></trkpt><trkpt lat="45.9337593" lon="11.6878656"><ele>1107.5</ele><time>2026-04-26T12:10:41.455Z</time></trkpt><trkpt lat="45.933865" lon="11.6877392"><ele>1105.0</ele><time>2026-04-26T12:10:42.454Z</time></trkpt><trkpt lat="45.9339867" lon="11.6876127"><ele>1108.3333333333333</ele><time>2026-04-26T12:10:43.454Z</time></trkpt><trkpt lat="45.9341023" lon="11.6874879"><ele>1111.6666666666667</ele><time>2026-04-26T12:10:44.455Z</time></trkpt><trkpt lat="45.9342363" lon="11.6873641"><ele>1115.0</ele><time>2026-04-26T12:10:45.455Z</time></trkpt><trkpt lat="45.9343749" lon="11.687235"><ele>1115.0</ele><time>2026-04-26T12:10:46.454Z</time></trkpt><trkpt lat="45.9345219" lon="11.6871097"><ele>1115.0</ele><time>2026-04-26T12:10:47.454Z</time></trkpt><trkpt lat="45.9346659" lon="11.6869815"><ele>1115.0</ele><time>2026-04-26T12:10:48.455Z</time></trkpt><trkpt lat="45.9348134" lon="11.686843"><ele>1118.0</ele><time>2026-04-26T12:10:49.455Z</time></trkpt><trkpt lat="45.9349613" lon="11.6866994"><ele>1121.0</ele><time>2026-04-26T12:10:50.455Z</time></trkpt><trkpt lat="45.9351098" lon="11.6865472"><ele>1124.0</ele><time>2026-04-26T12:10:51.454Z</time></trkpt><trkpt lat="45.9352598" lon="11.6863996"><ele>1124.0</ele><time>2026-04-26T12:10:52.455Z</time></trkpt><trkpt lat="45.9354085" lon="11.6862717"><ele>1124.0</ele><time>2026-04-26T12:10:53.454Z</time></trkpt><trkpt lat="45.9355538" lon="11.6861215"><ele>1124.0</ele><time>2026-04-26T12:10:54.454Z</time></trkpt><trkpt lat="45.9357004" lon="11.685974"><ele>1127.3333333333335</ele><time>2026-04-26T12:10:55.454Z</time></trkpt><trkpt lat="45.9358324" lon="11.6858136"><ele>1130.6666666666667</ele><time>2026-04-26T12:10:56.454Z</time></trkpt><trkpt lat="45.9359614" lon="11.6856473"><ele>1134.0</ele><time>2026-04-26T12:10:57.454Z</time></trkpt><trkpt lat="45.936095" lon="11.6854828"><ele>1134.0</ele><time>2026-04-26T12:10:58.454Z</time></trkpt><trkpt lat="45.9362161" lon="11.6853132"><ele>1134.0</ele><time>2026-04-26T12:10:59.455Z</time></trkpt><trkpt lat="45.9363343" lon="11.6851112"><ele>1134.0</ele><time>2026-04-26T12:11:00.454Z</time></trkpt><trkpt lat="45.9364454" lon="11.6849345"><ele>1135.75</ele><time>2026-04-26T12:11:01.454Z</time></trkpt><trkpt lat="45.9365604" lon="11.6847932"><ele>1137.5</ele><time>2026-04-26T12:11:02.454Z</time></trkpt><trkpt lat="45.9366512" lon="11.6847523"><ele>1139.25</ele><time>2026-04-26T12:11:03.454Z</time></trkpt><trkpt lat="45.9367715" lon="11.6847165"><ele>1141.0</ele><time>2026-04-26T12:11:04.455Z</time></trkpt><trkpt lat="45.9368705" lon="11.6847743"><ele>1141.0</ele><time>2026-04-26T12:11:05.454Z</time></trkpt><trkpt lat="45.936988" lon="11.6848429"><ele>1141.0</ele><time>2026-04-26T12:11:06.455Z</time></trkpt><trkpt lat="45.9370933" lon="11.6848439"><ele>1141.0</ele><time>2026-04-26T12:11:07.454Z</time></trkpt><trkpt lat="45.9372004" lon="11.6848103"><ele>1141.0</ele><time>2026-04-26T12:11:08.455Z</time></trkpt><trkpt lat="45.9372679" lon="11.6846473"><ele>1141.0</ele><time>2026-04-26T12:11:09.454Z</time></trkpt><trkpt lat="45.9373323" lon="11.6844751"><ele>1141.0</ele><time>2026-04-26T12:11:10.454Z</time></trkpt><trkpt lat="45.9373879" lon="11.684293"><ele>1141.0</ele><time>2026-04-26T12:11:11.455Z</time></trkpt><trkpt lat="45.9374487" lon="11.6841262"><ele>1141.0</ele><time>2026-04-26T12:11:12.455Z</time></trkpt><trkpt lat="45.9375014" lon="11.683927"><ele>1140.75</ele><time>2026-04-26T12:11:13.455Z</time></trkpt><trkpt lat="45.9375554" lon="11.683735"><ele>1140.5</ele><time>2026-04-26T12:11:14.455Z</time></trkpt><trkpt lat="45.9376078" lon="11.6835485"><ele>1140.25</ele><time>2026-04-26T12:11:15.454Z</time></trkpt><trkpt lat="45.9376186" lon="11.6833726"><ele>1140.0</ele><time>2026-04-26T12:11:16.454Z</time></trkpt><trkpt lat="45.937687" lon="11.6831324"><ele>1140.0</ele><time>2026-04-26T12:11:17.454Z</time></trkpt><trkpt lat="45.9377277" lon="11.6828952"><ele>1140.0</ele><time>2026-04-26T12:11:18.455Z</time></trkpt><trkpt lat="45.9377576" lon="11.6826824"><ele>1140.0</ele><time>2026-04-26T12:11:19.454Z</time></trkpt><trkpt lat="45.9377818" lon="11.6824525"><ele>1143.3333333333333</ele><time>2026-04-26T12:11:20.454Z</time></trkpt><trkpt lat="45.9378086" lon="11.6822292"><ele>1146.6666666666665</ele><time>2026-04-26T12:11:21.454Z</time></trkpt><trkpt lat="45.9378452" lon="11.6820062"><ele>1150.0</ele><time>2026-04-26T12:11:22.454Z</time></trkpt><trkpt lat="45.9378355" lon="11.6817669"><ele>1152.3333333333333</ele><time>2026-04-26T12:11:23.454Z</time></trkpt><trkpt lat="45.9378938" lon="11.6815317"><ele>1154.6666666666667</ele><time>2026-04-26T12:11:24.454Z</time></trkpt><trkpt lat="45.9379227" lon="11.6813065"><ele>1157.0</ele><time>2026-04-26T12:11:25.454Z</time></trkpt><trkpt lat="45.9379636" lon="11.6810929"><ele>1160.0</ele><time>2026-04-26T12:11:26.454Z</time></trkpt><trkpt lat="45.9379949" lon="11.6808783"><ele>1163.0</ele><time>2026-04-26T12:11:27.455Z</time></trkpt><trkpt lat="45.93801" lon="11.6806657"><ele>1166.0</ele><time>2026-04-26T12:11:28.454Z</time></trkpt><trkpt lat="45.9380271" lon="11.6804501"><ele>1169.25</ele><time>2026-04-26T12:11:29.455Z</time></trkpt><trkpt lat="45.9380047" lon="11.6802514"><ele>1172.5</ele><time>2026-04-26T12:11:30.454Z</time></trkpt><trkpt lat="45.9380039" lon="11.6800545"><ele>1175.75</ele><time>2026-04-26T12:11:31.455Z</time></trkpt><trkpt lat="45.9380108" lon="11.6798266"><ele>1179.0</ele><time>2026-04-26T12:11:32.454Z</time></trkpt><trkpt lat="45.9379922" lon="11.6796335"><ele>1179.0</ele><time>2026-04-26T12:11:33.455Z</time></trkpt><trkpt lat="45.9381325" lon="11.679529"><ele>1179.0</ele><time>2026-04-26T12:11:34.454Z</time></trkpt><trkpt lat="45.938181" lon="11.6793416"><ele>1179.0</ele><time>2026-04-26T12:11:35.454Z</time></trkpt><trkpt lat="45.9382584" lon="11.6791339"><ele>1181.75</ele><time>2026-04-26T12:11:36.454Z</time></trkpt><trkpt lat="45.9383021" lon="11.6789332"><ele>1184.5</ele><time>2026-04-26T12:11:37.455Z</time></trkpt><trkpt lat="45.9383294" lon="11.6787462"><ele>1187.25</ele><time>2026-04-26T12:11:38.455Z</time></trkpt><trkpt lat="45.9383524" lon="11.6785444"><ele>1190.0</ele><time>2026-04-26T12:11:39.455Z</time></trkpt><trkpt lat="45.9383321" lon="11.6783477"><ele>1191.0</ele><time>2026-04-26T12:11:40.454Z</time></trkpt><trkpt lat="45.938269" lon="11.6781472"><ele>1192.0</ele><time>2026-04-26T12:11:41.454Z</time></trkpt><trkpt lat="45.938245" lon="11.6779437"><ele>1193.0</ele><time>2026-04-26T12:11:42.454Z</time></trkpt><trkpt lat="45.9382347" lon="11.6777443"><ele>1194.0</ele><time>2026-04-26T12:11:43.455Z</time></trkpt><trkpt lat="45.9382132" lon="11.6775665"><ele>1195.0</ele><time>2026-04-26T12:11:44.454Z</time></trkpt><trkpt lat="45.9382152" lon="11.6774078"><ele>1196.0</ele><time>2026-04-26T12:11:45.455Z</time></trkpt><trkpt lat="45.938268" lon="11.6773016"><ele>1197.0</ele><time>2026-04-26T12:11:46.454Z</time></trkpt><trkpt lat="45.9383383" lon="11.6772402"><ele>1198.0</ele><time>2026-04-26T12:11:47.454Z</time></trkpt><trkpt lat="45.9384331" lon="11.6772401"><ele>1199.0</ele><time>2026-04-26T12:11:48.454Z</time></trkpt><trkpt lat="45.9385395" lon="11.6772887"><ele>1199.0</ele><time>2026-04-26T12:11:49.454Z</time></trkpt><trkpt lat="45.9386649" lon="11.677328"><ele>1199.0</ele><time>2026-04-26T12:11:50.454Z</time></trkpt><trkpt lat="45.938774" lon="11.6773351"><ele>1199.0</ele><time>2026-04-26T12:11:51.454Z</time></trkpt><trkpt lat="45.93888" lon="11.6773287"><ele>1199.0</ele><time>2026-04-26T12:11:52.454Z</time></trkpt><trkpt lat="45.9389785" lon="11.6772224"><ele>1199.0</ele><time>2026-04-26T12:11:53.455Z</time></trkpt><trkpt lat="45.9390805" lon="11.6771723"><ele>1199.0</ele><time>2026-04-26T12:11:54.454Z</time></trkpt><trkpt lat="45.9392013" lon="11.6771803"><ele>1199.0</ele><time>2026-04-26T12:11:55.454Z</time></trkpt><trkpt lat="45.9393138" lon="11.6772314"><ele>1199.0</ele><time>2026-04-26T12:11:56.454Z</time></trkpt><trkpt lat="45.9394219" lon="11.6772839"><ele>1198.25</ele><time>2026-04-26T12:11:57.454Z</time></trkpt><trkpt lat="45.9395295" lon="11.6773116"><ele>1197.5</ele><time>2026-04-26T12:11:58.454Z</time></trkpt><trkpt lat="45.9396396" lon="11.6772567"><ele>1196.75</ele><time>2026-04-26T12:11:59.454Z</time></trkpt><trkpt lat="45.939751" lon="11.6772087"><ele>1196.0</ele><time>2026-04-26T12:12:00.454Z</time></trkpt><trkpt lat="45.9398028" lon="11.6769812"><ele>1200.75</ele><time>2026-04-26T12:12:01.454Z</time></trkpt><trkpt lat="45.9398872" lon="11.6767686"><ele>1205.5</ele><time>2026-04-26T12:12:02.455Z</time></trkpt><trkpt lat="45.9399983" lon="11.6765917"><ele>1210.25</ele><time>2026-04-26T12:12:03.455Z</time></trkpt><trkpt lat="45.9400891" lon="11.6765592"><ele>1215.0</ele><time>2026-04-26T12:12:04.454Z</time></trkpt><trkpt lat="45.9401846" lon="11.6765378"><ele>1216.8</ele><time>2026-04-26T12:12:05.454Z</time></trkpt><trkpt lat="45.9402665" lon="11.6765909"><ele>1218.6</ele><time>2026-04-26T12:12:06.454Z</time></trkpt><trkpt lat="45.9403163" lon="11.6767095"><ele>1220.4</ele><time>2026-04-26T12:12:07.454Z</time></trkpt><trkpt lat="45.9403702" lon="11.676835"><ele>1222.2</ele><time>2026-04-26T12:12:08.455Z</time></trkpt><trkpt lat="45.9404183" lon="11.6769792"><ele>1224.0</ele><time>2026-04-26T12:12:09.454Z</time></trkpt><trkpt lat="45.9404999" lon="11.6770744"><ele>1222.75</ele><time>2026-04-26T12:12:10.455Z</time></trkpt><trkpt lat="45.9405859" lon="11.6771106"><ele>1221.5</ele><time>2026-04-26T12:12:11.454Z</time></trkpt><trkpt lat="45.9407155" lon="11.6771361"><ele>1220.25</ele><time>2026-04-26T12:12:12.454Z</time></trkpt><trkpt lat="45.9408449" lon="11.6771925"><ele>1219.0</ele><time>2026-04-26T12:12:13.455Z</time></trkpt><trkpt lat="45.9409659" lon="11.67729"><ele>1219.0</ele><time>2026-04-26T12:12:14.455Z</time></trkpt><trkpt lat="45.9410962" lon="11.6773888"><ele>1219.0</ele><time>2026-04-26T12:12:15.454Z</time></trkpt><trkpt lat="45.9412271" lon="11.6774906"><ele>1219.0</ele><time>2026-04-26T12:12:16.454Z</time></trkpt><trkpt lat="45.9413536" lon="11.6775703"><ele>1219.0</ele><time>2026-04-26T12:12:17.454Z</time></trkpt><trkpt lat="45.9414763" lon="11.6776257"><ele>1219.0</ele><time>2026-04-26T12:12:18.454Z</time></trkpt><trkpt lat="45.9416115" lon="11.6776312"><ele>1219.0</ele><time>2026-04-26T12:12:19.454Z</time></trkpt><trkpt lat="45.9417378" lon="11.6775801"><ele>1219.0</ele><time>2026-04-26T12:12:20.454Z</time></trkpt><trkpt lat="45.9418425" lon="11.6774823"><ele>1219.0</ele><time>2026-04-26T12:12:21.455Z</time></trkpt><trkpt lat="45.9419357" lon="11.6774053"><ele>1219.2</ele><time>2026-04-26T12:12:22.454Z</time></trkpt><trkpt lat="45.9420327" lon="11.6773958"><ele>1219.4</ele><time>2026-04-26T12:12:23.455Z</time></trkpt><trkpt lat="45.942118" lon="11.6774443"><ele>1219.6</ele><time>2026-04-26T12:12:24.454Z</time></trkpt><trkpt lat="45.9421722" lon="11.6775512"><ele>1219.8</ele><time>2026-04-26T12:12:25.455Z</time></trkpt><trkpt lat="45.9422238" lon="11.6776825"><ele>1220.0</ele><time>2026-04-26T12:12:26.454Z</time></trkpt><trkpt lat="45.9422756" lon="11.6778247"><ele>1220.0</ele><time>2026-04-26T12:12:27.454Z</time></trkpt><trkpt lat="45.9423804" lon="11.6779296"><ele>1220.0</ele><time>2026-04-26T12:12:28.454Z</time></trkpt><trkpt lat="45.9424976" lon="11.6780097"><ele>1220.0</ele><time>2026-04-26T12:12:29.454Z</time></trkpt><trkpt lat="45.9426463" lon="11.6780637"><ele>1220.0</ele><time>2026-04-26T12:12:30.455Z</time></trkpt><trkpt lat="45.9427916" lon="11.6781206"><ele>1224.0</ele><time>2026-04-26T12:12:31.454Z</time></trkpt><trkpt lat="45.9429285" lon="11.6781828"><ele>1228.0</ele><time>2026-04-26T12:12:32.454Z</time></trkpt><trkpt lat="45.9430432" lon="11.6783012"><ele>1232.0</ele><time>2026-04-26T12:12:33.454Z</time></trkpt><trkpt lat="45.9431282" lon="11.6784711"><ele>1236.0</ele><time>2026-04-26T12:12:34.454Z</time></trkpt><trkpt lat="45.9432007" lon="11.6786473"><ele>1236.0</ele><time>2026-04-26T12:12:35.455Z</time></trkpt><trkpt lat="45.9432525" lon="11.6788506"><ele>1236.0</ele><time>2026-04-26T12:12:36.454Z</time></trkpt><trkpt lat="45.9433288" lon="11.6790422"><ele>1236.0</ele><time>2026-04-26T12:12:37.454Z</time></trkpt><trkpt lat="45.9434017" lon="11.6792154"><ele>1236.0</ele><time>2026-04-26T12:12:38.454Z</time></trkpt><trkpt lat="45.9434908" lon="11.6793394"><ele>1240.8</ele><time>2026-04-26T12:12:39.455Z</time></trkpt><trkpt lat="45.9435988" lon="11.6793899"><ele>1245.6</ele><time>2026-04-26T12:12:40.455Z</time></trkpt><trkpt lat="45.9437079" lon="11.6794276"><ele>1250.4</ele><time>2026-04-26T12:12:41.455Z</time></trkpt><trkpt lat="45.9438114" lon="11.6794377"><ele>1255.2</ele><time>2026-04-26T12:12:42.455Z</time></trkpt><trkpt lat="45.9438907" lon="11.6795004"><ele>1260.0</ele><time>2026-04-26T12:12:43.455Z</time></trkpt><trkpt lat="45.9439528" lon="11.6795981"><ele>1260.0</ele><time>2026-04-26T12:12:44.454Z</time></trkpt><trkpt lat="45.9438834" lon="11.6797472"><ele>1260.0</ele><time>2026-04-26T12:12:45.454Z</time></trkpt><trkpt lat="45.9438349" lon="11.6799081"><ele>1260.0</ele><time>2026-04-26T12:12:46.455Z</time></trkpt><trkpt lat="45.9437918" lon="11.680083"><ele>1260.0</ele><time>2026-04-26T12:12:47.454Z</time></trkpt><trkpt lat="45.9437737" lon="11.6802694"><ele>1259.25</ele><time>2026-04-26T12:12:48.455Z</time></trkpt><trkpt lat="45.9437757" lon="11.6804527"><ele>1258.5</ele><time>2026-04-26T12:12:49.454Z</time></trkpt><trkpt lat="45.9438052" lon="11.680657"><ele>1257.75</ele><time>2026-04-26T12:12:50.454Z</time></trkpt><trkpt lat="45.9438598" lon="11.6808484"><ele>1257.0</ele><time>2026-04-26T12:12:51.455Z</time></trkpt><trkpt lat="45.9439345" lon="11.681037"><ele>1256.25</ele><time>2026-04-26T12:12:52.455Z</time></trkpt><trkpt lat="45.9440174" lon="11.6812126"><ele>1255.5</ele><time>2026-04-26T12:12:53.455Z</time></trkpt><trkpt lat="45.9441201" lon="11.6813544"><ele>1254.75</ele><time>2026-04-26T12:12:54.455Z</time></trkpt><trkpt lat="45.9442276" lon="11.6814673"><ele>1254.0</ele><time>2026-04-26T12:12:55.455Z</time></trkpt><trkpt lat="45.9443511" lon="11.6815373"><ele>1254.0</ele><time>2026-04-26T12:12:56.454Z</time></trkpt><trkpt lat="45.9444967" lon="11.6815601"><ele>1254.0</ele><time>2026-04-26T12:12:57.454Z</time></trkpt><trkpt lat="45.9446474" lon="11.6815696"><ele>1254.0</ele><time>2026-04-26T12:12:58.454Z</time></trkpt><trkpt lat="45.9447858" lon="11.6815841"><ele>1254.0</ele><time>2026-04-26T12:12:59.454Z</time></trkpt><trkpt lat="45.944919" lon="11.6815861"><ele>1254.25</ele><time>2026-04-26T12:13:00.454Z</time></trkpt><trkpt lat="45.9450483" lon="11.6815882"><ele>1254.5</ele><time>2026-04-26T12:13:01.454Z</time></trkpt><trkpt lat="45.9451635" lon="11.6815647"><ele>1254.75</ele><time>2026-04-26T12:13:02.455Z</time></trkpt><trkpt lat="45.9452644" lon="11.6814113"><ele>1255.0</ele><time>2026-04-26T12:13:03.455Z</time></trkpt><trkpt lat="45.9453684" lon="11.6812576"><ele>1255.0</ele><time>2026-04-26T12:13:04.454Z</time></trkpt><trkpt lat="45.9454542" lon="11.6811137"><ele>1255.0</ele><time>2026-04-26T12:13:05.455Z</time></trkpt><trkpt lat="45.945519" lon="11.6809931"><ele>1255.0</ele><time>2026-04-26T12:13:06.454Z</time></trkpt><trkpt lat="45.9455757" lon="11.6808923"><ele>1255.0</ele><time>2026-04-26T12:13:07.454Z</time></trkpt><trkpt lat="45.9456409" lon="11.6807981"><ele>1255.0</ele><time>2026-04-26T12:13:08.455Z</time></trkpt><trkpt lat="45.9457123" lon="11.6807574"><ele>1255.3333333333333</ele><time>2026-04-26T12:13:09.454Z</time></trkpt><trkpt lat="45.9457878" lon="11.6807707"><ele>1255.6666666666665</ele><time>2026-04-26T12:13:10.455Z</time></trkpt><trkpt lat="45.9458492" lon="11.680819"><ele>1256.0</ele><time>2026-04-26T12:13:11.454Z</time></trkpt><trkpt lat="45.9459081" lon="11.6809004"><ele>1256.3333333333333</ele><time>2026-04-26T12:13:12.455Z</time></trkpt><trkpt lat="45.9459399" lon="11.681005"><ele>1256.6666666666667</ele><time>2026-04-26T12:13:13.454Z</time></trkpt><trkpt lat="45.9459933" lon="11.6810948"><ele>1257.0</ele><time>2026-04-26T12:13:14.454Z</time></trkpt><trkpt lat="45.9460484" lon="11.6811541"><ele>1257.0</ele><time>2026-04-26T12:13:15.454Z</time></trkpt><trkpt lat="45.9461279" lon="11.6811109"><ele>1257.0</ele><time>2026-04-26T12:13:17.454Z</time></trkpt><trkpt lat="45.9460958" lon="11.6809762"><ele>1257.0</ele><time>2026-04-26T12:13:19.454Z</time></trkpt><trkpt lat="45.9460445" lon="11.680885"><ele>1257.0</ele><time>2026-04-26T12:13:20.454Z</time></trkpt><trkpt lat="45.9459957" lon="11.6807683"><ele>1257.0</ele><time>2026-04-26T12:13:21.455Z</time></trkpt><trkpt lat="45.9459661" lon="11.6806398"><ele>1258.8333333333333</ele><time>2026-04-26T12:13:22.454Z</time></trkpt><trkpt lat="45.9459393" lon="11.6805022"><ele>1260.6666666666667</ele><time>2026-04-26T12:13:23.454Z</time></trkpt><trkpt lat="45.9459097" lon="11.680358"><ele>1262.5</ele><time>2026-04-26T12:13:24.454Z</time></trkpt><trkpt lat="45.945869" lon="11.6802608"><ele>1264.3333333333335</ele><time>2026-04-26T12:13:25.455Z</time></trkpt><trkpt lat="45.9458019" lon="11.6801998"><ele>1266.1666666666667</ele><time>2026-04-26T12:13:26.454Z</time></trkpt><trkpt lat="45.9457227" lon="11.6801891"><ele>1268.0</ele><time>2026-04-26T12:13:27.454Z</time></trkpt><trkpt lat="45.9456325" lon="11.6802185"><ele>1267.8333333333335</ele><time>2026-04-26T12:13:28.455Z</time></trkpt><trkpt lat="45.9455418" lon="11.6802554"><ele>1267.6666666666667</ele><time>2026-04-26T12:13:29.454Z</time></trkpt><trkpt lat="45.9454535" lon="11.6802824"><ele>1267.5</ele><time>2026-04-26T12:13:30.454Z</time></trkpt><trkpt lat="45.9453746" lon="11.6802803"><ele>1267.3333333333333</ele><time>2026-04-26T12:13:31.454Z</time></trkpt><trkpt lat="45.9452791" lon="11.6802916"><ele>1267.1666666666665</ele><time>2026-04-26T12:13:32.455Z</time></trkpt><trkpt lat="45.9452086" lon="11.6802602"><ele>1267.0</ele><time>2026-04-26T12:13:33.454Z</time></trkpt><trkpt lat="45.94514" lon="11.6802218"><ele>1268.8333333333333</ele><time>2026-04-26T12:13:34.454Z</time></trkpt><trkpt lat="45.9450756" lon="11.6801836"><ele>1270.6666666666665</ele><time>2026-04-26T12:13:35.454Z</time></trkpt><trkpt lat="45.9450267" lon="11.6801188"><ele>1272.5</ele><time>2026-04-26T12:13:36.455Z</time></trkpt><trkpt lat="45.9449908" lon="11.6800409"><ele>1274.3333333333333</ele><time>2026-04-26T12:13:37.454Z</time></trkpt><trkpt lat="45.944961" lon="11.6799366"><ele>1276.1666666666667</ele><time>2026-04-26T12:13:38.455Z</time></trkpt><trkpt lat="45.9449575" lon="11.6798144"><ele>1278.0</ele><time>2026-04-26T12:13:39.454Z</time></trkpt><trkpt lat="45.9449582" lon="11.6796844"><ele>1278.0</ele><time>2026-04-26T12:13:40.455Z</time></trkpt><trkpt lat="45.9449764" lon="11.6795472"><ele>1278.0</ele><time>2026-04-26T12:13:41.455Z</time></trkpt><trkpt lat="45.9449884" lon="11.679407"><ele>1278.0</ele><time>2026-04-26T12:13:42.455Z</time></trkpt><trkpt lat="45.9450167" lon="11.6792476"><ele>1278.0</ele><time>2026-04-26T12:13:43.454Z</time></trkpt><trkpt lat="45.945035" lon="11.6790852"><ele>1278.0</ele><time>2026-04-26T12:13:44.455Z</time></trkpt><trkpt lat="45.9450703" lon="11.6789111"><ele>1282.0</ele><time>2026-04-26T12:13:45.455Z</time></trkpt><trkpt lat="45.945106" lon="11.6787361"><ele>1286.0</ele><time>2026-04-26T12:13:46.455Z</time></trkpt><trkpt lat="45.9451617" lon="11.6785854"><ele>1290.0</ele><time>2026-04-26T12:13:47.454Z</time></trkpt><trkpt lat="45.9452064" lon="11.6784511"><ele>1294.0</ele><time>2026-04-26T12:13:48.454Z</time></trkpt><trkpt lat="45.9452375" lon="11.6783341"><ele>1298.0</ele><time>2026-04-26T12:13:49.454Z</time></trkpt><trkpt lat="45.945234" lon="11.6781765"><ele>1299.4</ele><time>2026-04-26T12:13:50.454Z</time></trkpt><trkpt lat="45.9452141" lon="11.6780204"><ele>1300.8000000000002</ele><time>2026-04-26T12:13:51.454Z</time></trkpt><trkpt lat="45.9452096" lon="11.6778741"><ele>1302.2</ele><time>2026-04-26T12:13:52.455Z</time></trkpt><trkpt lat="45.9452102" lon="11.6777311"><ele>1303.6</ele><time>2026-04-26T12:13:53.454Z</time></trkpt><trkpt lat="45.9452146" lon="11.6775638"><ele>1305.0</ele><time>2026-04-26T12:13:54.455Z</time></trkpt><trkpt lat="45.9451975" lon="11.6774453"><ele>1304.1666666666667</ele><time>2026-04-26T12:13:55.454Z</time></trkpt><trkpt lat="45.945172" lon="11.6773566"><ele>1303.3333333333333</ele><time>2026-04-26T12:13:56.455Z</time></trkpt><trkpt lat="45.9451451" lon="11.6772622"><ele>1302.5</ele><time>2026-04-26T12:13:57.454Z</time></trkpt><trkpt lat="45.9450603" lon="11.677246"><ele>1301.6666666666665</ele><time>2026-04-26T12:13:58.454Z</time></trkpt><trkpt lat="45.9449479" lon="11.677286"><ele>1300.8333333333333</ele><time>2026-04-26T12:13:59.455Z</time></trkpt><trkpt lat="45.9448595" lon="11.6773012"><ele>1300.0</ele><time>2026-04-26T12:14:00.455Z</time></trkpt><trkpt lat="45.9447678" lon="11.6773132"><ele>1300.0</ele><time>2026-04-26T12:14:01.454Z</time></trkpt><trkpt lat="45.9446804" lon="11.6772802"><ele>1300.0</ele><time>2026-04-26T12:14:02.455Z</time></trkpt><trkpt lat="45.9446059" lon="11.6772155"><ele>1300.0</ele><time>2026-04-26T12:14:03.454Z</time></trkpt><trkpt lat="45.9445294" lon="11.6771291"><ele>1300.0</ele><time>2026-04-26T12:14:04.454Z</time></trkpt><trkpt lat="45.9444584" lon="11.6770381"><ele>1300.0</ele><time>2026-04-26T12:14:05.454Z</time></trkpt><trkpt lat="45.9444031" lon="11.6769323"><ele>1303.6</ele><time>2026-04-26T12:14:06.454Z</time></trkpt><trkpt lat="45.9443601" lon="11.676828"><ele>1307.2</ele><time>2026-04-26T12:14:07.455Z</time></trkpt><trkpt lat="45.9443394" lon="11.6767054"><ele>1310.8000000000002</ele><time>2026-04-26T12:14:08.454Z</time></trkpt><trkpt lat="45.9443177" lon="11.6765707"><ele>1314.4</ele><time>2026-04-26T12:14:09.454Z</time></trkpt><trkpt lat="45.9443051" lon="11.6763225"><ele>1318.0</ele><time>2026-04-26T12:14:11.454Z</time></trkpt><trkpt lat="45.9442944" lon="11.6761446"><ele>1321.25</ele><time>2026-04-26T12:14:12.454Z</time></trkpt><trkpt lat="45.9442869" lon="11.6759825"><ele>1324.5</ele><time>2026-04-26T12:14:13.455Z</time></trkpt><trkpt lat="45.9442785" lon="11.6758132"><ele>1327.75</ele><time>2026-04-26T12:14:14.454Z</time></trkpt><trkpt lat="45.9442753" lon="11.6756386"><ele>1331.0</ele><time>2026-04-26T12:14:15.455Z</time></trkpt><trkpt lat="45.9442793" lon="11.6754608"><ele>1334.0</ele><time>2026-04-26T12:14:16.454Z</time></trkpt><trkpt lat="45.9442812" lon="11.6752565"><ele>1337.0</ele><time>2026-04-26T12:14:17.455Z</time></trkpt><trkpt lat="45.9443221" lon="11.6750867"><ele>1340.0</ele><time>2026-04-26T12:14:18.455Z</time></trkpt><trkpt lat="45.9443284" lon="11.6748992"><ele>1343.0</ele><time>2026-04-26T12:14:19.455Z</time></trkpt><trkpt lat="45.9443189" lon="11.6747109"><ele>1343.0</ele><time>2026-04-26T12:14:20.454Z</time></trkpt><trkpt lat="45.9442896" lon="11.6745055"><ele>1343.0</ele><time>2026-04-26T12:14:21.454Z</time></trkpt><trkpt lat="45.9442449" lon="11.6743427"><ele>1343.0</ele><time>2026-04-26T12:14:22.454Z</time></trkpt><trkpt lat="45.9441942" lon="11.6742036"><ele>1343.0</ele><time>2026-04-26T12:14:23.454Z</time></trkpt><trkpt lat="45.9441219" lon="11.6740574"><ele>1340.75</ele><time>2026-04-26T12:14:24.454Z</time></trkpt><trkpt lat="45.9440192" lon="11.6739218"><ele>1338.5</ele><time>2026-04-26T12:14:25.455Z</time></trkpt><trkpt lat="45.9439218" lon="11.6738051"><ele>1336.25</ele><time>2026-04-26T12:14:26.454Z</time></trkpt><trkpt lat="45.9437956" lon="11.6737295"><ele>1334.0</ele><time>2026-04-26T12:14:27.454Z</time></trkpt><trkpt lat="45.9436866" lon="11.6736584"><ele>1334.0</ele><time>2026-04-26T12:14:28.454Z</time></trkpt><trkpt lat="45.9435976" lon="11.6736103"><ele>1334.0</ele><time>2026-04-26T12:14:29.454Z</time></trkpt><trkpt lat="45.9435055" lon="11.6735596"><ele>1334.0</ele><time>2026-04-26T12:14:30.455Z</time></trkpt><trkpt lat="45.9434337" lon="11.6734745"><ele>1334.0</ele><time>2026-04-26T12:14:31.455Z</time></trkpt><trkpt lat="45.9433698" lon="11.6733766"><ele>1334.0</ele><time>2026-04-26T12:14:32.454Z</time></trkpt><trkpt lat="45.9432994" lon="11.6733085"><ele>1335.0</ele><time>2026-04-26T12:14:33.454Z</time></trkpt><trkpt lat="45.9432477" lon="11.6732498"><ele>1336.0</ele><time>2026-04-26T12:14:34.455Z</time></trkpt><trkpt lat="45.9431593" lon="11.6732703"><ele>1337.0</ele><time>2026-04-26T12:14:35.454Z</time></trkpt><trkpt lat="45.943076" lon="11.6732625"><ele>1338.0</ele><time>2026-04-26T12:14:36.455Z</time></trkpt><trkpt lat="45.9429708" lon="11.6732591"><ele>1339.0</ele><time>2026-04-26T12:14:37.455Z</time></trkpt><trkpt lat="45.9428549" lon="11.6732451"><ele>1339.0</ele><time>2026-04-26T12:14:38.455Z</time></trkpt><trkpt lat="45.9427431" lon="11.6732128"><ele>1339.0</ele><time>2026-04-26T12:14:39.455Z</time></trkpt><trkpt lat="45.9426207" lon="11.6731875"><ele>1339.0</ele><time>2026-04-26T12:14:40.455Z</time></trkpt><trkpt lat="45.9425263" lon="11.6731737"><ele>1339.0</ele><time>2026-04-26T12:14:41.454Z</time></trkpt><trkpt lat="45.9424471" lon="11.6731684"><ele>1339.0</ele><time>2026-04-26T12:14:42.454Z</time></trkpt><trkpt lat="45.9423746" lon="11.6731518"><ele>1339.3333333333333</ele><time>2026-04-26T12:14:43.454Z</time></trkpt><trkpt lat="45.9422942" lon="11.673124"><ele>1339.6666666666665</ele><time>2026-04-26T12:14:44.454Z</time></trkpt><trkpt lat="45.9421871" lon="11.6730462"><ele>1340.0</ele><time>2026-04-26T12:14:46.454Z</time></trkpt><trkpt lat="45.9421298" lon="11.672997"><ele>1340.3333333333333</ele><time>2026-04-26T12:14:47.454Z</time></trkpt><trkpt lat="45.9420695" lon="11.6729382"><ele>1340.6666666666667</ele><time>2026-04-26T12:14:48.454Z</time></trkpt><trkpt lat="45.9420136" lon="11.6728687"><ele>1341.0</ele><time>2026-04-26T12:14:49.455Z</time></trkpt><trkpt lat="45.9419598" lon="11.6727931"><ele>1344.8333333333333</ele><time>2026-04-26T12:14:50.454Z</time></trkpt><trkpt lat="45.9419318" lon="11.6726784"><ele>1348.6666666666667</ele><time>2026-04-26T12:14:51.454Z</time></trkpt><trkpt lat="45.9419042" lon="11.6725621"><ele>1352.5</ele><time>2026-04-26T12:14:52.454Z</time></trkpt><trkpt lat="45.9419027" lon="11.6724454"><ele>1356.3333333333335</ele><time>2026-04-26T12:14:53.454Z</time></trkpt><trkpt lat="45.9418846" lon="11.6723479"><ele>1360.1666666666667</ele><time>2026-04-26T12:14:54.454Z</time></trkpt><trkpt lat="45.9418223" lon="11.6722416"><ele>1364.0</ele><time>2026-04-26T12:14:56.455Z</time></trkpt><trkpt lat="45.9417261" lon="11.6721551"><ele>1362.1666666666667</ele><time>2026-04-26T12:14:58.455Z</time></trkpt><trkpt lat="45.9416625" lon="11.6722133"><ele>1360.3333333333335</ele><time>2026-04-26T12:14:59.454Z</time></trkpt><trkpt lat="45.941605" lon="11.6722585"><ele>1358.5</ele><time>2026-04-26T12:15:00.455Z</time></trkpt><trkpt lat="45.9415074" lon="11.6723199"><ele>1356.6666666666667</ele><time>2026-04-26T12:15:02.455Z</time></trkpt><trkpt lat="45.9414397" lon="11.6723379"><ele>1354.8333333333333</ele><time>2026-04-26T12:15:03.454Z</time></trkpt><trkpt lat="45.9413494" lon="11.6723544"><ele>1353.0</ele><time>2026-04-26T12:15:05.454Z</time></trkpt><trkpt lat="45.9412803" lon="11.6723654"><ele>1353.0</ele><time>2026-04-26T12:15:06.454Z</time></trkpt><trkpt lat="45.9411434" lon="11.6723607"><ele>1353.0</ele><time>2026-04-26T12:15:08.455Z</time></trkpt><trkpt lat="45.9410825" lon="11.6722458"><ele>1353.0</ele><time>2026-04-26T12:15:10.454Z</time></trkpt><trkpt lat="45.9410345" lon="11.6721868"><ele>1353.0</ele><time>2026-04-26T12:15:11.455Z</time></trkpt><trkpt lat="45.9409764" lon="11.6721225"><ele>1353.0</ele><time>2026-04-26T12:15:12.454Z</time></trkpt><trkpt lat="45.9409261" lon="11.6719697"><ele>1356.6000000000001</ele><time>2026-04-26T12:15:14.454Z</time></trkpt><trkpt lat="45.9408614" lon="11.6718774"><ele>1360.2</ele><time>2026-04-26T12:15:15.455Z</time></trkpt><trkpt lat="45.9408385" lon="11.6717632"><ele>1363.8</ele><time>2026-04-26T12:15:16.455Z</time></trkpt><trkpt lat="45.9408041" lon="11.6716614"><ele>1367.4</ele><time>2026-04-26T12:15:17.455Z</time></trkpt><trkpt lat="45.9407909" lon="11.6715655"><ele>1371.0</ele><time>2026-04-26T12:15:18.455Z</time></trkpt><trkpt lat="45.9407561" lon="11.6713725"><ele>1371.0</ele><time>2026-04-26T12:15:20.454Z</time></trkpt><trkpt lat="45.9407383" lon="11.6712809"><ele>1371.0</ele><time>2026-04-26T12:15:21.454Z</time></trkpt><trkpt lat="45.9406844" lon="11.6712253"><ele>1371.0</ele><time>2026-04-26T12:15:22.454Z</time></trkpt><trkpt lat="45.9405842" lon="11.6712279"><ele>1371.0</ele><time>2026-04-26T12:15:23.454Z</time></trkpt><trkpt lat="45.9404952" lon="11.671301"><ele>1371.0</ele><time>2026-04-26T12:15:24.454Z</time></trkpt><trkpt lat="45.9404162" lon="11.6713377"><ele>1371.0</ele><time>2026-04-26T12:15:25.454Z</time></trkpt><trkpt lat="45.9403402" lon="11.6713746"><ele>1371.0</ele><time>2026-04-26T12:15:26.455Z</time></trkpt><trkpt lat="45.9402765" lon="11.6713946"><ele>1371.0</ele><time>2026-04-26T12:15:27.454Z</time></trkpt><trkpt lat="45.9401743" lon="11.6714619"><ele>1371.0</ele><time>2026-04-26T12:15:28.454Z</time></trkpt><trkpt lat="45.9400683" lon="11.6715652"><ele>1371.0</ele><time>2026-04-26T12:15:30.454Z</time></trkpt><trkpt lat="45.9400227" lon="11.6716297"><ele>1371.0</ele><time>2026-04-26T12:15:31.455Z</time></trkpt><trkpt lat="45.9399532" lon="11.6717215"><ele>1371.8</ele><time>2026-04-26T12:15:33.454Z</time></trkpt><trkpt lat="45.9398582" lon="11.6718114"><ele>1372.6</ele><time>2026-04-26T12:15:35.454Z</time></trkpt><trkpt lat="45.9397908" lon="11.6718774"><ele>1373.4</ele><time>2026-04-26T12:15:37.455Z</time></trkpt><trkpt lat="45.9397175" lon="11.6719364"><ele>1374.2</ele><time>2026-04-26T12:15:38.455Z</time></trkpt><trkpt lat="45.9396188" lon="11.6719289"><ele>1375.0</ele><time>2026-04-26T12:15:40.454Z</time></trkpt><trkpt lat="45.9395516" lon="11.6718672"><ele>1375.0</ele><time>2026-04-26T12:15:43.454Z</time></trkpt><trkpt lat="45.9394914" lon="11.6718239"><ele>1375.0</ele><time>2026-04-26T12:15:45.454Z</time></trkpt><trkpt lat="45.9394318" lon="11.6717257"><ele>1375.0</ele><time>2026-04-26T12:15:47.454Z</time></trkpt><trkpt lat="45.9393751" lon="11.6716298"><ele>1375.0</ele><time>2026-04-26T12:15:49.455Z</time></trkpt><trkpt lat="45.9393262" lon="11.6715382"><ele>1375.0</ele><time>2026-04-26T12:15:51.454Z</time></trkpt><trkpt lat="45.9392692" lon="11.6714627"><ele>1375.0</ele><time>2026-04-26T12:15:53.454Z</time></trkpt><trkpt lat="45.9391837" lon="11.6713603"><ele>1375.3333333333333</ele><time>2026-04-26T12:15:55.454Z</time></trkpt><trkpt lat="45.9391069" lon="11.6712449"><ele>1375.6666666666665</ele><time>2026-04-26T12:15:57.454Z</time></trkpt><trkpt lat="45.9391846" lon="11.6711806"><ele>1376.0</ele><time>2026-04-26T12:15:59.454Z</time></trkpt><trkpt lat="45.9391104" lon="11.6711477"><ele>1376.3333333333333</ele><time>2026-04-26T12:16:50.454Z</time></trkpt><trkpt lat="45.9391568" lon="11.6712358"><ele>1376.6666666666667</ele><time>2026-04-26T12:17:14.454Z</time></trkpt><trkpt lat="45.939065" lon="11.6712314"><ele>1377.0</ele><time>2026-04-26T12:18:37.455Z</time></trkpt><trkpt lat="45.9389654" lon="11.6713153"><ele>1377.0</ele><time>2026-04-26T12:18:41.454Z</time></trkpt><trkpt lat="45.938807" lon="11.6714015"><ele>1377.0</ele><time>2026-04-26T12:18:43.454Z</time></trkpt><trkpt lat="45.9387253" lon="11.6714407"><ele>1377.0</ele><time>2026-04-26T12:18:44.454Z</time></trkpt><trkpt lat="45.9386511" lon="11.6714383"><ele>1377.0</ele><time>2026-04-26T12:18:45.454Z</time></trkpt><trkpt lat="45.9385577" lon="11.6714064"><ele>1377.0</ele><time>2026-04-26T12:18:46.454Z</time></trkpt><trkpt lat="45.9384326" lon="11.6714046"><ele>1376.5</ele><time>2026-04-26T12:18:47.454Z</time></trkpt><trkpt lat="45.9383388" lon="11.6713809"><ele>1376.0</ele><time>2026-04-26T12:18:48.454Z</time></trkpt><trkpt lat="45.9382708" lon="11.6713173"><ele>1375.5</ele><time>2026-04-26T12:18:49.454Z</time></trkpt><trkpt lat="45.9382076" lon="11.6712526"><ele>1375.0</ele><time>2026-04-26T12:18:50.455Z</time></trkpt><trkpt lat="45.9381332" lon="11.671225"><ele>1374.5</ele><time>2026-04-26T12:18:51.455Z</time></trkpt><trkpt lat="45.9380639" lon="11.671174"><ele>1374.0</ele><time>2026-04-26T12:18:52.454Z</time></trkpt><trkpt lat="45.9379298" lon="11.671086"><ele>1377.2</ele><time>2026-04-26T12:18:53.454Z</time></trkpt><trkpt lat="45.9378626" lon="11.6709794"><ele>1380.4</ele><time>2026-04-26T12:18:54.454Z</time></trkpt><trkpt lat="45.9377922" lon="11.6708823"><ele>1383.6</ele><time>2026-04-26T12:18:55.454Z</time></trkpt><trkpt lat="45.9377436" lon="11.6707501"><ele>1386.8</ele><time>2026-04-26T12:18:56.455Z</time></trkpt><trkpt lat="45.9376921" lon="11.6706676"><ele>1390.0</ele><time>2026-04-26T12:18:57.454Z</time></trkpt><trkpt lat="45.937569" lon="11.670704"><ele>1389.8</ele><time>2026-04-26T12:18:59.454Z</time></trkpt><trkpt lat="45.9374823" lon="11.6707848"><ele>1389.6</ele><time>2026-04-26T12:19:00.455Z</time></trkpt><trkpt lat="45.9373643" lon="11.6708769"><ele>1389.4</ele><time>2026-04-26T12:19:01.454Z</time></trkpt><trkpt lat="45.9372817" lon="11.670962"><ele>1389.2</ele><time>2026-04-26T12:19:02.454Z</time></trkpt><trkpt lat="45.9371944" lon="11.6710479"><ele>1389.0</ele><time>2026-04-26T12:19:03.454Z</time></trkpt><trkpt lat="45.937092" lon="11.6711238"><ele>1387.8000000000002</ele><time>2026-04-26T12:19:04.454Z</time></trkpt><trkpt lat="45.9369968" lon="11.6711983"><ele>1386.6000000000001</ele><time>2026-04-26T12:19:05.455Z</time></trkpt><trkpt lat="45.9368562" lon="11.6713395"><ele>1385.4</ele><time>2026-04-26T12:19:06.454Z</time></trkpt><trkpt lat="45.936793" lon="11.6714169"><ele>1384.2</ele><time>2026-04-26T12:19:07.455Z</time></trkpt><trkpt lat="45.9367146" lon="11.6714315"><ele>1383.0</ele><time>2026-04-26T12:19:08.455Z</time></trkpt><trkpt lat="45.9366459" lon="11.671438"><ele>1383.0</ele><time>2026-04-26T12:19:09.454Z</time></trkpt><trkpt lat="45.9365632" lon="11.6714198"><ele>1383.0</ele><time>2026-04-26T12:19:10.454Z</time></trkpt><trkpt lat="45.936473" lon="11.6714051"><ele>1383.0</ele><time>2026-04-26T12:19:11.454Z</time></trkpt><trkpt lat="45.9363909" lon="11.6713433"><ele>1383.0</ele><time>2026-04-26T12:19:12.454Z</time></trkpt><trkpt lat="45.9362999" lon="11.6712376"><ele>1383.0</ele><time>2026-04-26T12:19:13.455Z</time></trkpt><trkpt lat="45.9362249" lon="11.671133"><ele>1385.6666666666667</ele><time>2026-04-26T12:19:14.455Z</time></trkpt><trkpt lat="45.9361555" lon="11.6710574"><ele>1388.3333333333333</ele><time>2026-04-26T12:19:15.454Z</time></trkpt><trkpt lat="45.9360825" lon="11.6709846"><ele>1391.0</ele><time>2026-04-26T12:19:16.454Z</time></trkpt><trkpt lat="45.9360166" lon="11.6709186"><ele>1393.6666666666665</ele><time>2026-04-26T12:19:17.454Z</time></trkpt><trkpt lat="45.9359459" lon="11.6708545"><ele>1396.3333333333333</ele><time>2026-04-26T12:19:18.454Z</time></trkpt><trkpt lat="45.9358825" lon="11.6707793"><ele>1399.0</ele><time>2026-04-26T12:19:19.454Z</time></trkpt><trkpt lat="45.9358048" lon="11.6707193"><ele>1399.0</ele><time>2026-04-26T12:19:20.454Z</time></trkpt><trkpt lat="45.935732" lon="11.6706543"><ele>1399.0</ele><time>2026-04-26T12:19:21.454Z</time></trkpt><trkpt lat="45.9356479" lon="11.6706614"><ele>1399.0</ele><time>2026-04-26T12:19:22.454Z</time></trkpt><trkpt lat="45.9355663" lon="11.6706869"><ele>1399.0</ele><time>2026-04-26T12:19:23.454Z</time></trkpt><trkpt lat="45.9354995" lon="11.6707388"><ele>1399.0</ele><time>2026-04-26T12:19:24.454Z</time></trkpt><trkpt lat="45.9354472" lon="11.6708267"><ele>1399.0</ele><time>2026-04-26T12:19:25.454Z</time></trkpt><trkpt lat="45.9353869" lon="11.6709407"><ele>1399.0</ele><time>2026-04-26T12:19:26.455Z</time></trkpt><trkpt lat="45.9353147" lon="11.6710462"><ele>1399.0</ele><time>2026-04-26T12:19:27.454Z</time></trkpt><trkpt lat="45.9352371" lon="11.671162"><ele>1399.0</ele><time>2026-04-26T12:19:28.454Z</time></trkpt><trkpt lat="45.9351484" lon="11.6712651"><ele>1399.0</ele><time>2026-04-26T12:19:29.454Z</time></trkpt><trkpt lat="45.935049" lon="11.6713524"><ele>1399.0</ele><time>2026-04-26T12:19:30.454Z</time></trkpt><trkpt lat="45.9349517" lon="11.6714363"><ele>1398.0</ele><time>2026-04-26T12:19:31.455Z</time></trkpt><trkpt lat="45.9348696" lon="11.6714938"><ele>1397.0</ele><time>2026-04-26T12:19:32.454Z</time></trkpt><trkpt lat="45.9347866" lon="11.6715445"><ele>1396.0</ele><time>2026-04-26T12:19:33.455Z</time></trkpt><trkpt lat="45.9347141" lon="11.6715486"><ele>1395.0</ele><time>2026-04-26T12:19:34.455Z</time></trkpt><trkpt lat="45.9346269" lon="11.6715469"><ele>1394.0</ele><time>2026-04-26T12:19:35.454Z</time></trkpt><trkpt lat="45.9345345" lon="11.6715277"><ele>1393.0</ele><time>2026-04-26T12:19:36.455Z</time></trkpt><trkpt lat="45.9344473" lon="11.6714918"><ele>1393.0</ele><time>2026-04-26T12:19:37.454Z</time></trkpt><trkpt lat="45.9343724" lon="11.6714321"><ele>1393.0</ele><time>2026-04-26T12:19:38.454Z</time></trkpt><trkpt lat="45.9342892" lon="11.671348"><ele>1393.0</ele><time>2026-04-26T12:19:39.455Z</time></trkpt><trkpt lat="45.9342127" lon="11.671252"><ele>1393.0</ele><time>2026-04-26T12:19:40.454Z</time></trkpt><trkpt lat="45.9341279" lon="11.6711534"><ele>1393.0</ele><time>2026-04-26T12:19:41.454Z</time></trkpt><trkpt lat="45.9340353" lon="11.6710527"><ele>1397.4</ele><time>2026-04-26T12:19:42.454Z</time></trkpt><trkpt lat="45.9339538" lon="11.6709555"><ele>1401.8000000000002</ele><time>2026-04-26T12:19:43.454Z</time></trkpt><trkpt lat="45.9338656" lon="11.6708603"><ele>1406.2</ele><time>2026-04-26T12:19:44.455Z</time></trkpt><trkpt lat="45.9337907" lon="11.6707604"><ele>1410.6</ele><time>2026-04-26T12:19:45.454Z</time></trkpt><trkpt lat="45.9337253" lon="11.6706542"><ele>1415.0</ele><time>2026-04-26T12:19:46.454Z</time></trkpt><trkpt lat="45.933672" lon="11.670529"><ele>1415.0</ele><time>2026-04-26T12:19:47.454Z</time></trkpt><trkpt lat="45.933624" lon="11.6703805"><ele>1415.0</ele><time>2026-04-26T12:19:48.454Z</time></trkpt><trkpt lat="45.9335815" lon="11.6702176"><ele>1415.0</ele><time>2026-04-26T12:19:49.455Z</time></trkpt><trkpt lat="45.9335455" lon="11.6700509"><ele>1415.0</ele><time>2026-04-26T12:19:50.455Z</time></trkpt><trkpt lat="45.9335192" lon="11.6698825"><ele>1414.5</ele><time>2026-04-26T12:19:51.454Z</time></trkpt><trkpt lat="45.9334874" lon="11.669719"><ele>1414.0</ele><time>2026-04-26T12:19:52.454Z</time></trkpt><trkpt lat="45.9334565" lon="11.6695575"><ele>1413.5</ele><time>2026-04-26T12:19:53.454Z</time></trkpt><trkpt lat="45.9334227" lon="11.6693918"><ele>1413.0</ele><time>2026-04-26T12:19:54.455Z</time></trkpt><trkpt lat="45.9333864" lon="11.6692229"><ele>1413.0</ele><time>2026-04-26T12:19:55.455Z</time></trkpt><trkpt lat="45.9333471" lon="11.6690622"><ele>1413.0</ele><time>2026-04-26T12:19:56.455Z</time></trkpt><trkpt lat="45.9333163" lon="11.6688982"><ele>1413.0</ele><time>2026-04-26T12:19:57.455Z</time></trkpt><trkpt lat="45.9332888" lon="11.668744"><ele>1413.0</ele><time>2026-04-26T12:19:58.454Z</time></trkpt><trkpt lat="45.9332576" lon="11.6685939"><ele>1415.8000000000002</ele><time>2026-04-26T12:19:59.454Z</time></trkpt><trkpt lat="45.9332283" lon="11.6684536"><ele>1418.6</ele><time>2026-04-26T12:20:00.454Z</time></trkpt><trkpt lat="45.9332095" lon="11.6683094"><ele>1421.4</ele><time>2026-04-26T12:20:01.455Z</time></trkpt><trkpt lat="45.9331945" lon="11.6681735"><ele>1424.1999999999998</ele><time>2026-04-26T12:20:02.454Z</time></trkpt><trkpt lat="45.9331768" lon="11.6680546"><ele>1427.0</ele><time>2026-04-26T12:20:03.454Z</time></trkpt><trkpt lat="45.9331662" lon="11.6679336"><ele>1427.0</ele><time>2026-04-26T12:20:04.455Z</time></trkpt><trkpt lat="45.9331524" lon="11.6678365"><ele>1427.0</ele><time>2026-04-26T12:20:05.454Z</time></trkpt><trkpt lat="45.9331278" lon="11.6676937"><ele>1427.0</ele><time>2026-04-26T12:20:07.455Z</time></trkpt><trkpt lat="45.9331007" lon="11.6676006"><ele>1427.0</ele><time>2026-04-26T12:20:09.455Z</time></trkpt><trkpt lat="45.933087" lon="11.6674905"><ele>1427.0</ele><time>2026-04-26T12:20:12.455Z</time></trkpt><trkpt lat="45.9330671" lon="11.6673845"><ele>1427.0</ele><time>2026-04-26T12:20:15.455Z</time></trkpt><trkpt lat="45.9330395" lon="11.6672988"><ele>1427.1666666666667</ele><time>2026-04-26T12:20:19.454Z</time></trkpt><trkpt lat="45.9330545" lon="11.6671974"><ele>1427.3333333333335</ele><time>2026-04-26T12:20:58.454Z</time></trkpt><trkpt lat="45.9330714" lon="11.6670665"><ele>1427.5</ele><time>2026-04-26T12:21:00.454Z</time></trkpt><trkpt lat="45.93309" lon="11.6668914"><ele>1427.6666666666667</ele><time>2026-04-26T12:21:02.455Z</time></trkpt><trkpt lat="45.9331059" lon="11.6667964"><ele>1427.8333333333333</ele><time>2026-04-26T12:21:03.454Z</time></trkpt><trkpt lat="45.9331252" lon="11.6666884"><ele>1428.0</ele><time>2026-04-26T12:21:04.454Z</time></trkpt><trkpt lat="45.9331438" lon="11.6665901"><ele>1428.0</ele><time>2026-04-26T12:21:05.454Z</time></trkpt><trkpt lat="45.9331748" lon="11.6664439"><ele>1428.0</ele><time>2026-04-26T12:21:07.454Z</time></trkpt><trkpt lat="45.9331897" lon="11.6662937"><ele>1428.0</ele><time>2026-04-26T12:21:09.454Z</time></trkpt><trkpt lat="45.9332083" lon="11.6661804"><ele>1428.0</ele><time>2026-04-26T12:21:11.454Z</time></trkpt><trkpt lat="45.9332298" lon="11.6660533"><ele>1428.0</ele><time>2026-04-26T12:21:14.454Z</time></trkpt><trkpt lat="45.9332412" lon="11.665954"><ele>1427.1666666666667</ele><time>2026-04-26T12:21:16.454Z</time></trkpt><trkpt lat="45.9332584" lon="11.6658533"><ele>1426.3333333333333</ele><time>2026-04-26T12:21:18.454Z</time></trkpt><trkpt lat="45.9332747" lon="11.6657467"><ele>1425.5</ele><time>2026-04-26T12:21:20.455Z</time></trkpt><trkpt lat="45.933293" lon="11.6656504"><ele>1424.6666666666665</ele><time>2026-04-26T12:21:22.455Z</time></trkpt><trkpt lat="45.9333133" lon="11.6655266"><ele>1423.8333333333333</ele><time>2026-04-26T12:21:24.454Z</time></trkpt><trkpt lat="45.9333601" lon="11.665335"><ele>1423.0</ele><time>2026-04-26T12:21:26.455Z</time></trkpt><trkpt lat="45.9334019" lon="11.6652252"><ele>1421.6666666666665</ele><time>2026-04-26T12:21:27.454Z</time></trkpt><trkpt lat="45.9334439" lon="11.665115"><ele>1420.3333333333333</ele><time>2026-04-26T12:21:28.454Z</time></trkpt><trkpt lat="45.9334833" lon="11.6649971"><ele>1419.0</ele><time>2026-04-26T12:21:29.454Z</time></trkpt><trkpt lat="45.9335216" lon="11.6649087"><ele>1417.6666666666667</ele><time>2026-04-26T12:21:30.455Z</time></trkpt><trkpt lat="45.9335575" lon="11.6648107"><ele>1416.3333333333335</ele><time>2026-04-26T12:21:31.454Z</time></trkpt><trkpt lat="45.9335921" lon="11.6647079"><ele>1415.0</ele><time>2026-04-26T12:21:32.454Z</time></trkpt><trkpt lat="45.9336285" lon="11.6646098"><ele>1415.0</ele><time>2026-04-26T12:21:33.454Z</time></trkpt><trkpt lat="45.9336632" lon="11.6645037"><ele>1415.0</ele><time>2026-04-26T12:21:34.454Z</time></trkpt><trkpt lat="45.9336926" lon="11.6643881"><ele>1415.0</ele><time>2026-04-26T12:21:35.454Z</time></trkpt><trkpt lat="45.9337236" lon="11.6642811"><ele>1415.0</ele><time>2026-04-26T12:21:36.454Z</time></trkpt><trkpt lat="45.9337528" lon="11.6641752"><ele>1415.0</ele><time>2026-04-26T12:21:37.455Z</time></trkpt><trkpt lat="45.9337783" lon="11.6640456"><ele>1415.0</ele><time>2026-04-26T12:21:38.454Z</time></trkpt><trkpt lat="45.9338043" lon="11.6639185"><ele>1412.5</ele><time>2026-04-26T12:21:39.454Z</time></trkpt><trkpt lat="45.9338223" lon="11.6638159"><ele>1410.0</ele><time>2026-04-26T12:21:40.454Z</time></trkpt><trkpt lat="45.933843" lon="11.66368"><ele>1407.5</ele><time>2026-04-26T12:21:41.454Z</time></trkpt><trkpt lat="45.9338644" lon="11.6635588"><ele>1405.0</ele><time>2026-04-26T12:21:42.454Z</time></trkpt><trkpt lat="45.9338967" lon="11.6634785"><ele>1402.5</ele><time>2026-04-26T12:21:43.454Z</time></trkpt><trkpt lat="45.9338998" lon="11.6633437"><ele>1400.0</ele><time>2026-04-26T12:21:44.455Z</time></trkpt><trkpt lat="45.9339083" lon="11.6632254"><ele>1398.4</ele><time>2026-04-26T12:21:45.454Z</time></trkpt><trkpt lat="45.9338566" lon="11.6630614"><ele>1396.8</ele><time>2026-04-26T12:21:46.454Z</time></trkpt><trkpt lat="45.9338776" lon="11.6629419"><ele>1395.1999999999998</ele><time>2026-04-26T12:21:47.454Z</time></trkpt><trkpt lat="45.933869" lon="11.6628124"><ele>1393.6</ele><time>2026-04-26T12:21:48.454Z</time></trkpt><trkpt lat="45.9338975" lon="11.6627041"><ele>1392.0</ele><time>2026-04-26T12:21:49.454Z</time></trkpt><trkpt lat="45.9338698" lon="11.6625949"><ele>1390.6666666666667</ele><time>2026-04-26T12:21:50.454Z</time></trkpt><trkpt lat="45.9338194" lon="11.6624742"><ele>1389.3333333333333</ele><time>2026-04-26T12:21:51.454Z</time></trkpt><trkpt lat="45.93375" lon="11.6623568"><ele>1388.0</ele><time>2026-04-26T12:21:52.454Z</time></trkpt><trkpt lat="45.9336947" lon="11.6622819"><ele>1386.6666666666665</ele><time>2026-04-26T12:21:53.454Z</time></trkpt><trkpt lat="45.9336232" lon="11.6622451"><ele>1385.3333333333333</ele><time>2026-04-26T12:21:54.454Z</time></trkpt><trkpt lat="45.9335428" lon="11.6622033"><ele>1384.0</ele><time>2026-04-26T12:21:55.454Z</time></trkpt><trkpt lat="45.9334468" lon="11.662137"><ele>1384.0</ele><time>2026-04-26T12:21:57.454Z</time></trkpt><trkpt lat="45.9334419" lon="11.6620319"><ele>1384.0</ele><time>2026-04-26T12:22:00.455Z</time></trkpt><trkpt lat="45.9335443" lon="11.6620341"><ele>1384.0</ele><time>2026-04-26T12:22:02.454Z</time></trkpt><trkpt lat="45.9336175" lon="11.6620566"><ele>1384.0</ele><time>2026-04-26T12:22:03.455Z</time></trkpt><trkpt lat="45.9337014" lon="11.6620865"><ele>1384.0</ele><time>2026-04-26T12:22:04.454Z</time></trkpt><trkpt lat="45.9337849" lon="11.6621178"><ele>1384.0</ele><time>2026-04-26T12:22:05.454Z</time></trkpt><trkpt lat="45.9338475" lon="11.662168"><ele>1384.0</ele><time>2026-04-26T12:22:06.454Z</time></trkpt><trkpt lat="45.9338958" lon="11.66232"><ele>1384.0</ele><time>2026-04-26T12:22:08.454Z</time></trkpt><trkpt lat="45.9339274" lon="11.6624671"><ele>1384.0</ele><time>2026-04-26T12:22:10.454Z</time></trkpt><trkpt lat="45.9339584" lon="11.6626045"><ele>1384.0</ele><time>2026-04-26T12:22:12.454Z</time></trkpt><trkpt lat="45.9340416" lon="11.6626715"><ele>1384.0</ele><time>2026-04-26T12:22:14.454Z</time></trkpt><trkpt lat="45.9341364" lon="11.6626721"><ele>1384.0</ele><time>2026-04-26T12:22:16.454Z</time></trkpt><trkpt lat="45.934213" lon="11.6626077"><ele>1384.0</ele><time>2026-04-26T12:22:18.454Z</time></trkpt><trkpt lat="45.9342505" lon="11.6624819"><ele>1384.0</ele><time>2026-04-26T12:22:20.454Z</time></trkpt><trkpt lat="45.9342897" lon="11.6622987"><ele>1384.0</ele><time>2026-04-26T12:22:22.454Z</time></trkpt><trkpt lat="45.9342792" lon="11.6620913"><ele>1386.6</ele><time>2026-04-26T12:22:23.454Z</time></trkpt><trkpt lat="45.9342673" lon="11.6619144"><ele>1389.2</ele><time>2026-04-26T12:22:24.455Z</time></trkpt><trkpt lat="45.934258" lon="11.6617642"><ele>1391.8</ele><time>2026-04-26T12:22:25.455Z</time></trkpt><trkpt lat="45.9342481" lon="11.6616111"><ele>1394.3999999999999</ele><time>2026-04-26T12:22:26.454Z</time></trkpt><trkpt lat="45.9342463" lon="11.6614584"><ele>1397.0</ele><time>2026-04-26T12:22:27.455Z</time></trkpt><trkpt lat="45.9342437" lon="11.6613199"><ele>1397.0</ele><time>2026-04-26T12:22:28.455Z</time></trkpt><trkpt lat="45.9342532" lon="11.6611937"><ele>1397.0</ele><time>2026-04-26T12:22:29.454Z</time></trkpt><trkpt lat="45.9342491" lon="11.6610834"><ele>1397.0</ele><time>2026-04-26T12:22:30.454Z</time></trkpt><trkpt lat="45.9342443" lon="11.6609778"><ele>1397.0</ele><time>2026-04-26T12:22:31.455Z</time></trkpt><trkpt lat="45.9342366" lon="11.660887"><ele>1397.0</ele><time>2026-04-26T12:22:32.454Z</time></trkpt><trkpt lat="45.9342183" lon="11.6607295"><ele>1397.0</ele><time>2026-04-26T12:22:34.455Z</time></trkpt><trkpt lat="45.9342218" lon="11.6605614"><ele>1396.6666666666667</ele><time>2026-04-26T12:22:36.455Z</time></trkpt><trkpt lat="45.934253" lon="11.6604032"><ele>1396.3333333333335</ele><time>2026-04-26T12:22:37.454Z</time></trkpt><trkpt lat="45.9342771" lon="11.6602892"><ele>1396.0</ele><time>2026-04-26T12:22:38.454Z</time></trkpt><trkpt lat="45.9342962" lon="11.6601741"><ele>1395.6666666666667</ele><time>2026-04-26T12:22:39.454Z</time></trkpt><trkpt lat="45.9343191" lon="11.6600674"><ele>1395.3333333333333</ele><time>2026-04-26T12:22:40.454Z</time></trkpt><trkpt lat="45.9343396" lon="11.6599423"><ele>1395.0</ele><time>2026-04-26T12:22:41.455Z</time></trkpt><trkpt lat="45.9343606" lon="11.6598179"><ele>1394.8</ele><time>2026-04-26T12:22:42.454Z</time></trkpt><trkpt lat="45.9343792" lon="11.6596961"><ele>1394.6</ele><time>2026-04-26T12:22:43.454Z</time></trkpt><trkpt lat="45.9344009" lon="11.6595725"><ele>1394.4</ele><time>2026-04-26T12:22:44.454Z</time></trkpt><trkpt lat="45.9344063" lon="11.6594089"><ele>1394.2</ele><time>2026-04-26T12:22:46.454Z</time></trkpt><trkpt lat="45.934378" lon="11.6592266"><ele>1394.0</ele><time>2026-04-26T12:22:47.454Z</time></trkpt><trkpt lat="45.9343809" lon="11.6590912"><ele>1393.75</ele><time>2026-04-26T12:22:48.454Z</time></trkpt><trkpt lat="45.9343732" lon="11.6589791"><ele>1393.5</ele><time>2026-04-26T12:22:49.454Z</time></trkpt><trkpt lat="45.9343264" lon="11.658801"><ele>1393.25</ele><time>2026-04-26T12:22:50.455Z</time></trkpt><trkpt lat="45.9342953" lon="11.6586491"><ele>1393.0</ele><time>2026-04-26T12:22:51.454Z</time></trkpt><trkpt lat="45.9342787" lon="11.6584605"><ele>1392.0</ele><time>2026-04-26T12:22:52.454Z</time></trkpt><trkpt lat="45.9342617" lon="11.6582826"><ele>1391.0</ele><time>2026-04-26T12:22:53.455Z</time></trkpt><trkpt lat="45.9341794" lon="11.6581431"><ele>1390.0</ele><time>2026-04-26T12:22:54.454Z</time></trkpt><trkpt lat="45.9341385" lon="11.6579843"><ele>1389.0</ele><time>2026-04-26T12:22:55.454Z</time></trkpt><trkpt lat="45.9340905" lon="11.6578329"><ele>1384.2</ele><time>2026-04-26T12:22:56.454Z</time></trkpt><trkpt lat="45.9340403" lon="11.6576911"><ele>1379.4</ele><time>2026-04-26T12:22:57.454Z</time></trkpt><trkpt lat="45.9339808" lon="11.657557"><ele>1374.6</ele><time>2026-04-26T12:22:58.454Z</time></trkpt><trkpt lat="45.9339308" lon="11.6574256"><ele>1369.8</ele><time>2026-04-26T12:22:59.454Z</time></trkpt><trkpt lat="45.9338875" lon="11.6572783"><ele>1365.0</ele><time>2026-04-26T12:23:00.455Z</time></trkpt><trkpt lat="45.9338539" lon="11.6571056"><ele>1364.8</ele><time>2026-04-26T12:23:01.454Z</time></trkpt><trkpt lat="45.9338302" lon="11.6569465"><ele>1364.6</ele><time>2026-04-26T12:23:02.455Z</time></trkpt><trkpt lat="45.9338032" lon="11.656777"><ele>1364.4</ele><time>2026-04-26T12:23:03.455Z</time></trkpt><trkpt lat="45.9337805" lon="11.6566327"><ele>1364.2</ele><time>2026-04-26T12:23:04.454Z</time></trkpt><trkpt lat="45.9337419" lon="11.6565031"><ele>1364.0</ele><time>2026-04-26T12:23:05.454Z</time></trkpt><trkpt lat="45.933722" lon="11.6563429"><ele>1364.0</ele><time>2026-04-26T12:23:06.454Z</time></trkpt><trkpt lat="45.9336892" lon="11.6562631"><ele>1364.0</ele><time>2026-04-26T12:23:07.454Z</time></trkpt><trkpt lat="45.9336516" lon="11.6561902"><ele>1364.0</ele><time>2026-04-26T12:23:08.454Z</time></trkpt><trkpt lat="45.9335876" lon="11.6560488"><ele>1364.0</ele><time>2026-04-26T12:23:10.454Z</time></trkpt><trkpt lat="45.9335442" lon="11.6559085"><ele>1364.0</ele><time>2026-04-26T12:23:12.455Z</time></trkpt><trkpt lat="45.9335216" lon="11.6558142"><ele>1364.0</ele><time>2026-04-26T12:23:13.454Z</time></trkpt><trkpt lat="45.9334947" lon="11.6557202"><ele>1364.5</ele><time>2026-04-26T12:23:14.454Z</time></trkpt><trkpt lat="45.9334692" lon="11.655616"><ele>1365.0</ele><time>2026-04-26T12:23:15.455Z</time></trkpt><trkpt lat="45.9334419" lon="11.6555111"><ele>1365.5</ele><time>2026-04-26T12:23:16.455Z</time></trkpt><trkpt lat="45.9334214" lon="11.6554129"><ele>1366.0</ele><time>2026-04-26T12:23:17.454Z</time></trkpt><trkpt lat="45.9333964" lon="11.6553113"><ele>1366.5</ele><time>2026-04-26T12:23:18.454Z</time></trkpt><trkpt lat="45.9333677" lon="11.6551996"><ele>1367.0</ele><time>2026-04-26T12:23:19.455Z</time></trkpt><trkpt lat="45.9333423" lon="11.6550842"><ele>1364.6</ele><time>2026-04-26T12:23:20.454Z</time></trkpt><trkpt lat="45.9333302" lon="11.6549581"><ele>1362.1999999999998</ele><time>2026-04-26T12:23:21.454Z</time></trkpt><trkpt lat="45.9333144" lon="11.6548064"><ele>1359.8</ele><time>2026-04-26T12:23:22.454Z</time></trkpt><trkpt lat="45.9333091" lon="11.6546647"><ele>1357.4</ele><time>2026-04-26T12:23:23.454Z</time></trkpt><trkpt lat="45.9332978" lon="11.6545158"><ele>1355.0</ele><time>2026-04-26T12:23:24.454Z</time></trkpt><trkpt lat="45.9332833" lon="11.6543777"><ele>1353.8</ele><time>2026-04-26T12:23:25.455Z</time></trkpt><trkpt lat="45.933268" lon="11.6542312"><ele>1352.6</ele><time>2026-04-26T12:23:26.454Z</time></trkpt><trkpt lat="45.9332579" lon="11.6540829"><ele>1351.4</ele><time>2026-04-26T12:23:27.454Z</time></trkpt><trkpt lat="45.9332473" lon="11.6539373"><ele>1350.2</ele><time>2026-04-26T12:23:28.455Z</time></trkpt><trkpt lat="45.93324" lon="11.6538013"><ele>1349.0</ele><time>2026-04-26T12:23:29.455Z</time></trkpt><trkpt lat="45.9332588" lon="11.65365"><ele>1347.6</ele><time>2026-04-26T12:23:30.454Z</time></trkpt><trkpt lat="45.9332641" lon="11.653525"><ele>1346.2</ele><time>2026-04-26T12:23:31.454Z</time></trkpt><trkpt lat="45.9332493" lon="11.6534026"><ele>1344.8</ele><time>2026-04-26T12:23:32.454Z</time></trkpt><trkpt lat="45.9332632" lon="11.6532701"><ele>1343.3999999999999</ele><time>2026-04-26T12:23:33.454Z</time></trkpt><trkpt lat="45.9332875" lon="11.6531335"><ele>1342.0</ele><time>2026-04-26T12:23:34.454Z</time></trkpt><trkpt lat="45.9333378" lon="11.6530135"><ele>1342.0</ele><time>2026-04-26T12:23:35.454Z</time></trkpt><trkpt lat="45.933377" lon="11.6528905"><ele>1342.0</ele><time>2026-04-26T12:23:36.454Z</time></trkpt><trkpt lat="45.9334299" lon="11.6527995"><ele>1342.0</ele><time>2026-04-26T12:23:37.454Z</time></trkpt><trkpt lat="45.9334709" lon="11.6526999"><ele>1342.0</ele><time>2026-04-26T12:23:38.454Z</time></trkpt><trkpt lat="45.9335292" lon="11.6526071"><ele>1342.0</ele><time>2026-04-26T12:23:39.454Z</time></trkpt><trkpt lat="45.9336282" lon="11.6525457"><ele>1343.8</ele><time>2026-04-26T12:23:40.454Z</time></trkpt><trkpt lat="45.9337213" lon="11.6524775"><ele>1345.6</ele><time>2026-04-26T12:23:41.455Z</time></trkpt><trkpt lat="45.933807" lon="11.6524182"><ele>1347.3999999999999</ele><time>2026-04-26T12:23:42.454Z</time></trkpt><trkpt lat="45.9338988" lon="11.6523715"><ele>1349.1999999999998</ele><time>2026-04-26T12:23:43.454Z</time></trkpt><trkpt lat="45.9339939" lon="11.6523368"><ele>1351.0</ele><time>2026-04-26T12:23:44.454Z</time></trkpt><trkpt lat="45.9340845" lon="11.652306"><ele>1351.0</ele><time>2026-04-26T12:23:45.455Z</time></trkpt><trkpt lat="45.9341734" lon="11.6522874"><ele>1351.0</ele><time>2026-04-26T12:23:46.454Z</time></trkpt><trkpt lat="45.934256" lon="11.6523113"><ele>1351.0</ele><time>2026-04-26T12:23:47.455Z</time></trkpt><trkpt lat="45.9343335" lon="11.6522889"><ele>1351.0</ele><time>2026-04-26T12:23:48.454Z</time></trkpt><trkpt lat="45.9343952" lon="11.6522604"><ele>1351.0</ele><time>2026-04-26T12:23:49.455Z</time></trkpt><trkpt lat="45.9344571" lon="11.6521532"><ele>1351.0</ele><time>2026-04-26T12:23:51.454Z</time></trkpt><trkpt lat="45.934477" lon="11.6520314"><ele>1354.0</ele><time>2026-04-26T12:23:53.454Z</time></trkpt><trkpt lat="45.9344511" lon="11.6519133"><ele>1357.0</ele><time>2026-04-26T12:23:55.454Z</time></trkpt><trkpt lat="45.9343969" lon="11.6517904"><ele>1360.0</ele><time>2026-04-26T12:23:57.454Z</time></trkpt><trkpt lat="45.934366" lon="11.6516681"><ele>1363.0</ele><time>2026-04-26T12:23:58.454Z</time></trkpt><trkpt lat="45.9343167" lon="11.6515899"><ele>1366.0</ele><time>2026-04-26T12:23:59.455Z</time></trkpt><trkpt lat="45.9342729" lon="11.6515086"><ele>1369.0</ele><time>2026-04-26T12:24:00.454Z</time></trkpt><trkpt lat="45.9342241" lon="11.6514499"><ele>1367.75</ele><time>2026-04-26T12:24:01.454Z</time></trkpt><trkpt lat="45.9341802" lon="11.6513538"><ele>1366.5</ele><time>2026-04-26T12:24:02.455Z</time></trkpt><trkpt lat="45.9340725" lon="11.6511877"><ele>1365.25</ele><time>2026-04-26T12:24:04.454Z</time></trkpt><trkpt lat="45.9339889" lon="11.6510776"><ele>1364.0</ele><time>2026-04-26T12:24:05.454Z</time></trkpt><trkpt lat="45.9339185" lon="11.6509506"><ele>1364.0</ele><time>2026-04-26T12:24:06.454Z</time></trkpt><trkpt lat="45.9338547" lon="11.6508459"><ele>1364.0</ele><time>2026-04-26T12:24:07.454Z</time></trkpt><trkpt lat="45.9337732" lon="11.6507321"><ele>1364.0</ele><time>2026-04-26T12:24:08.455Z</time></trkpt><trkpt lat="45.933694" lon="11.6506239"><ele>1364.0</ele><time>2026-04-26T12:24:09.454Z</time></trkpt><trkpt lat="45.9336183" lon="11.6505085"><ele>1364.0</ele><time>2026-04-26T12:24:10.455Z</time></trkpt><trkpt lat="45.9335321" lon="11.6503818"><ele>1363.0</ele><time>2026-04-26T12:24:11.455Z</time></trkpt><trkpt lat="45.933469" lon="11.6502808"><ele>1362.0</ele><time>2026-04-26T12:24:12.454Z</time></trkpt><trkpt lat="45.9334288" lon="11.650165"><ele>1361.0</ele><time>2026-04-26T12:24:13.454Z</time></trkpt><trkpt lat="45.9333736" lon="11.6500454"><ele>1360.0</ele><time>2026-04-26T12:24:14.454Z</time></trkpt><trkpt lat="45.9333271" lon="11.6499234"><ele>1359.0</ele><time>2026-04-26T12:24:15.455Z</time></trkpt><trkpt lat="45.9332978" lon="11.6498263"><ele>1359.0</ele><time>2026-04-26T12:24:16.455Z</time></trkpt><trkpt lat="45.9332777" lon="11.6497135"><ele>1359.0</ele><time>2026-04-26T12:24:17.454Z</time></trkpt><trkpt lat="45.9332567" lon="11.6495826"><ele>1359.0</ele><time>2026-04-26T12:24:18.455Z</time></trkpt><trkpt lat="45.9332471" lon="11.6494827"><ele>1359.0</ele><time>2026-04-26T12:24:19.454Z</time></trkpt><trkpt lat="45.9332661" lon="11.6493125"><ele>1359.0</ele><time>2026-04-26T12:24:21.454Z</time></trkpt><trkpt lat="45.933303" lon="11.6491964"><ele>1359.8000000000002</ele><time>2026-04-26T12:24:22.454Z</time></trkpt><trkpt lat="45.9333723" lon="11.6490822"><ele>1360.6000000000001</ele><time>2026-04-26T12:24:23.454Z</time></trkpt><trkpt lat="45.933424" lon="11.648957"><ele>1361.4</ele><time>2026-04-26T12:24:24.454Z</time></trkpt><trkpt lat="45.9334812" lon="11.6488186"><ele>1362.2</ele><time>2026-04-26T12:24:25.454Z</time></trkpt><trkpt lat="45.933527" lon="11.6486613"><ele>1363.0</ele><time>2026-04-26T12:24:26.454Z</time></trkpt><trkpt lat="45.9335701" lon="11.6484948"><ele>1370.0</ele><time>2026-04-26T12:24:27.454Z</time></trkpt><trkpt lat="45.9336157" lon="11.6483451"><ele>1377.0</ele><time>2026-04-26T12:24:28.454Z</time></trkpt><trkpt lat="45.9336576" lon="11.6481946"><ele>1384.0</ele><time>2026-04-26T12:24:29.454Z</time></trkpt><trkpt lat="45.9337084" lon="11.6480438"><ele>1391.0</ele><time>2026-04-26T12:24:30.454Z</time></trkpt><trkpt lat="45.9337616" lon="11.6478971"><ele>1387.8</ele><time>2026-04-26T12:24:31.454Z</time></trkpt><trkpt lat="45.933815" lon="11.6477513"><ele>1384.6</ele><time>2026-04-26T12:24:32.454Z</time></trkpt><trkpt lat="45.9338834" lon="11.6476321"><ele>1381.4</ele><time>2026-04-26T12:24:33.454Z</time></trkpt><trkpt lat="45.9339345" lon="11.6475154"><ele>1378.2</ele><time>2026-04-26T12:24:34.454Z</time></trkpt><trkpt lat="45.9339918" lon="11.6474098"><ele>1375.0</ele><time>2026-04-26T12:24:35.455Z</time></trkpt><trkpt lat="45.93406" lon="11.6472853"><ele>1375.0</ele><time>2026-04-26T12:24:36.454Z</time></trkpt><trkpt lat="45.9341136" lon="11.64714"><ele>1375.0</ele><time>2026-04-26T12:24:37.454Z</time></trkpt><trkpt lat="45.9341688" lon="11.6469956"><ele>1375.0</ele><time>2026-04-26T12:24:38.454Z</time></trkpt><trkpt lat="45.9342252" lon="11.6468413"><ele>1375.0</ele><time>2026-04-26T12:24:39.454Z</time></trkpt><trkpt lat="45.9342793" lon="11.6466936"><ele>1376.0</ele><time>2026-04-26T12:24:40.454Z</time></trkpt><trkpt lat="45.934337" lon="11.6465464"><ele>1377.0</ele><time>2026-04-26T12:24:41.454Z</time></trkpt><trkpt lat="45.9343913" lon="11.6463998"><ele>1378.0</ele><time>2026-04-26T12:24:42.454Z</time></trkpt><trkpt lat="45.9344472" lon="11.6462573"><ele>1379.0</ele><time>2026-04-26T12:24:43.454Z</time></trkpt><trkpt lat="45.9345092" lon="11.6461273"><ele>1379.0</ele><time>2026-04-26T12:24:44.454Z</time></trkpt><trkpt lat="45.9345693" lon="11.6459884"><ele>1379.0</ele><time>2026-04-26T12:24:45.455Z</time></trkpt><trkpt lat="45.9346222" lon="11.6458405"><ele>1379.0</ele><time>2026-04-26T12:24:46.455Z</time></trkpt><trkpt lat="45.9346528" lon="11.6457336"><ele>1379.0</ele><time>2026-04-26T12:24:47.454Z</time></trkpt><trkpt lat="45.9346924" lon="11.645609"><ele>1379.0</ele><time>2026-04-26T12:24:48.454Z</time></trkpt><trkpt lat="45.9347125" lon="11.6454543"><ele>1379.0</ele><time>2026-04-26T12:24:49.454Z</time></trkpt><trkpt lat="45.9347415" lon="11.6453284"><ele>1379.0</ele><time>2026-04-26T12:24:50.454Z</time></trkpt><trkpt lat="45.9347753" lon="11.6451853"><ele>1379.0</ele><time>2026-04-26T12:24:51.454Z</time></trkpt><trkpt lat="45.9348115" lon="11.6450529"><ele>1379.0</ele><time>2026-04-26T12:24:52.454Z</time></trkpt><trkpt lat="45.934856" lon="11.6449535"><ele>1379.0</ele><time>2026-04-26T12:24:53.455Z</time></trkpt><trkpt lat="45.9348965" lon="11.6448567"><ele>1378.4</ele><time>2026-04-26T12:24:54.455Z</time></trkpt><trkpt lat="45.9349434" lon="11.6447454"><ele>1377.8000000000002</ele><time>2026-04-26T12:24:55.454Z</time></trkpt><trkpt lat="45.9349917" lon="11.644654"><ele>1377.1999999999998</ele><time>2026-04-26T12:24:56.454Z</time></trkpt><trkpt lat="45.9350563" lon="11.6445701"><ele>1376.6</ele><time>2026-04-26T12:24:57.454Z</time></trkpt><trkpt lat="45.9351214" lon="11.6444472"><ele>1376.0</ele><time>2026-04-26T12:24:58.454Z</time></trkpt><trkpt lat="45.935198" lon="11.6443111"><ele>1379.6</ele><time>2026-04-26T12:24:59.454Z</time></trkpt><trkpt lat="45.9352678" lon="11.644184"><ele>1383.1999999999998</ele><time>2026-04-26T12:25:00.454Z</time></trkpt><trkpt lat="45.9353143" lon="11.6440489"><ele>1386.8000000000002</ele><time>2026-04-26T12:25:01.455Z</time></trkpt><trkpt lat="45.9353436" lon="11.6439125"><ele>1390.4</ele><time>2026-04-26T12:25:02.455Z</time></trkpt><trkpt lat="45.9353566" lon="11.6437701"><ele>1394.0</ele><time>2026-04-26T12:25:03.454Z</time></trkpt><trkpt lat="45.9353428" lon="11.6436258"><ele>1394.0</ele><time>2026-04-26T12:25:04.454Z</time></trkpt><trkpt lat="45.9353204" lon="11.6434666"><ele>1394.0</ele><time>2026-04-26T12:25:05.454Z</time></trkpt><trkpt lat="45.9352742" lon="11.6433008"><ele>1394.0</ele><time>2026-04-26T12:25:06.454Z</time></trkpt><trkpt lat="45.9352253" lon="11.6431335"><ele>1394.0</ele><time>2026-04-26T12:25:07.454Z</time></trkpt><trkpt lat="45.9351898" lon="11.6429891"><ele>1394.0</ele><time>2026-04-26T12:25:08.454Z</time></trkpt><trkpt lat="45.9351649" lon="11.6428571"><ele>1394.0</ele><time>2026-04-26T12:25:09.454Z</time></trkpt><trkpt lat="45.9351455" lon="11.6427167"><ele>1394.0</ele><time>2026-04-26T12:25:10.455Z</time></trkpt><trkpt lat="45.9351446" lon="11.6425455"><ele>1394.0</ele><time>2026-04-26T12:25:11.454Z</time></trkpt><trkpt lat="45.9351308" lon="11.6423682"><ele>1394.0</ele><time>2026-04-26T12:25:12.454Z</time></trkpt><trkpt lat="45.9351324" lon="11.6421622"><ele>1393.75</ele><time>2026-04-26T12:25:13.454Z</time></trkpt><trkpt lat="45.9351436" lon="11.6419582"><ele>1393.5</ele><time>2026-04-26T12:25:14.455Z</time></trkpt><trkpt lat="45.935169" lon="11.6417696"><ele>1393.25</ele><time>2026-04-26T12:25:15.454Z</time></trkpt><trkpt lat="45.9351784" lon="11.641563"><ele>1393.0</ele><time>2026-04-26T12:25:16.454Z</time></trkpt><trkpt lat="45.9351755" lon="11.6413537"><ele>1393.0</ele><time>2026-04-26T12:25:17.454Z</time></trkpt><trkpt lat="45.9351895" lon="11.6411813"><ele>1393.0</ele><time>2026-04-26T12:25:18.454Z</time></trkpt><trkpt lat="45.9352046" lon="11.6410106"><ele>1393.0</ele><time>2026-04-26T12:25:19.454Z</time></trkpt><trkpt lat="45.9352204" lon="11.6408407"><ele>1393.0</ele><time>2026-04-26T12:25:20.454Z</time></trkpt><trkpt lat="45.9352551" lon="11.640662"><ele>1391.75</ele><time>2026-04-26T12:25:21.455Z</time></trkpt><trkpt lat="45.9353012" lon="11.6405011"><ele>1390.5</ele><time>2026-04-26T12:25:22.454Z</time></trkpt><trkpt lat="45.935352" lon="11.6403403"><ele>1389.25</ele><time>2026-04-26T12:25:23.454Z</time></trkpt><trkpt lat="45.9354117" lon="11.6401837"><ele>1388.0</ele><time>2026-04-26T12:25:24.454Z</time></trkpt><trkpt lat="45.9354756" lon="11.640015"><ele>1384.75</ele><time>2026-04-26T12:25:25.454Z</time></trkpt><trkpt lat="45.9355422" lon="11.6398729"><ele>1381.5</ele><time>2026-04-26T12:25:26.455Z</time></trkpt><trkpt lat="45.9356116" lon="11.6397447"><ele>1378.25</ele><time>2026-04-26T12:25:27.454Z</time></trkpt><trkpt lat="45.9356927" lon="11.6396078"><ele>1375.0</ele><time>2026-04-26T12:25:28.455Z</time></trkpt><trkpt lat="45.9357903" lon="11.6394757"><ele>1373.5</ele><time>2026-04-26T12:25:29.455Z</time></trkpt><trkpt lat="45.9358823" lon="11.6393396"><ele>1372.0</ele><time>2026-04-26T12:25:30.454Z</time></trkpt><trkpt lat="45.9359686" lon="11.639223"><ele>1370.5</ele><time>2026-04-26T12:25:31.454Z</time></trkpt><trkpt lat="45.9360471" lon="11.6391125"><ele>1369.0</ele><time>2026-04-26T12:25:32.454Z</time></trkpt><trkpt lat="45.9361167" lon="11.6390176"><ele>1372.5</ele><time>2026-04-26T12:25:33.454Z</time></trkpt><trkpt lat="45.9361564" lon="11.6389116"><ele>1376.0</ele><time>2026-04-26T12:25:34.454Z</time></trkpt><trkpt lat="45.9361761" lon="11.638809"><ele>1379.5</ele><time>2026-04-26T12:25:35.454Z</time></trkpt><trkpt lat="45.9361659" lon="11.6386401"><ele>1383.0</ele><time>2026-04-26T12:25:37.454Z</time></trkpt><trkpt lat="45.936105" lon="11.6385834"><ele>1386.5</ele><time>2026-04-26T12:25:38.455Z</time></trkpt><trkpt lat="45.9360336" lon="11.6385341"><ele>1390.0</ele><time>2026-04-26T12:25:39.455Z</time></trkpt><trkpt lat="45.9359507" lon="11.6384743"><ele>1387.0</ele><time>2026-04-26T12:25:40.454Z</time></trkpt><trkpt lat="45.9358524" lon="11.6384258"><ele>1384.0</ele><time>2026-04-26T12:25:41.455Z</time></trkpt><trkpt lat="45.9357772" lon="11.6383719"><ele>1381.0</ele><time>2026-04-26T12:25:42.454Z</time></trkpt><trkpt lat="45.9357255" lon="11.6383123"><ele>1378.0</ele><time>2026-04-26T12:25:43.455Z</time></trkpt><trkpt lat="45.9356837" lon="11.638233"><ele>1375.0</ele><time>2026-04-26T12:25:44.454Z</time></trkpt><trkpt lat="45.9356641" lon="11.638127"><ele>1372.0</ele><time>2026-04-26T12:25:45.454Z</time></trkpt><trkpt lat="45.9356576" lon="11.6379943"><ele>1372.0</ele><time>2026-04-26T12:25:46.455Z</time></trkpt><trkpt lat="45.9356757" lon="11.6378403"><ele>1372.0</ele><time>2026-04-26T12:25:47.454Z</time></trkpt><trkpt lat="45.9357091" lon="11.6376692"><ele>1372.0</ele><time>2026-04-26T12:25:48.454Z</time></trkpt><trkpt lat="45.9357452" lon="11.6375067"><ele>1372.0</ele><time>2026-04-26T12:25:49.454Z</time></trkpt><trkpt lat="45.9357992" lon="11.637387"><ele>1372.6666666666665</ele><time>2026-04-26T12:25:50.454Z</time></trkpt><trkpt lat="45.9358529" lon="11.6372932"><ele>1373.3333333333333</ele><time>2026-04-26T12:25:51.454Z</time></trkpt><trkpt lat="45.9359075" lon="11.6372211"><ele>1374.0</ele><time>2026-04-26T12:25:52.454Z</time></trkpt><trkpt lat="45.9359756" lon="11.6371747"><ele>1374.6666666666667</ele><time>2026-04-26T12:25:53.455Z</time></trkpt><trkpt lat="45.9360552" lon="11.6371713"><ele>1375.3333333333335</ele><time>2026-04-26T12:25:54.455Z</time></trkpt><trkpt lat="45.9361489" lon="11.6371669"><ele>1376.0</ele><time>2026-04-26T12:25:55.454Z</time></trkpt><trkpt lat="45.9362612" lon="11.6371867"><ele>1377.0</ele><time>2026-04-26T12:25:56.455Z</time></trkpt><trkpt lat="45.936398" lon="11.6372183"><ele>1378.0</ele><time>2026-04-26T12:25:57.455Z</time></trkpt><trkpt lat="45.9365328" lon="11.6372308"><ele>1379.0</ele><time>2026-04-26T12:25:58.454Z</time></trkpt><trkpt lat="45.9366671" lon="11.6372249"><ele>1380.0</ele><time>2026-04-26T12:25:59.454Z</time></trkpt><trkpt lat="45.936791" lon="11.6372068"><ele>1378.0</ele><time>2026-04-26T12:26:00.454Z</time></trkpt><trkpt lat="45.9369133" lon="11.6371903"><ele>1376.0</ele><time>2026-04-26T12:26:01.455Z</time></trkpt><trkpt lat="45.9370082" lon="11.6372032"><ele>1374.0</ele><time>2026-04-26T12:26:02.455Z</time></trkpt><trkpt lat="45.9371055" lon="11.6372189"><ele>1372.0</ele><time>2026-04-26T12:26:03.455Z</time></trkpt><trkpt lat="45.9371878" lon="11.6372526"><ele>1370.0</ele><time>2026-04-26T12:26:04.455Z</time></trkpt><trkpt lat="45.9372787" lon="11.6372907"><ele>1370.0</ele><time>2026-04-26T12:26:05.455Z</time></trkpt><trkpt lat="45.9373725" lon="11.6373434"><ele>1370.0</ele><time>2026-04-26T12:26:06.454Z</time></trkpt><trkpt lat="45.9374713" lon="11.6374026"><ele>1370.0</ele><time>2026-04-26T12:26:07.455Z</time></trkpt><trkpt lat="45.9375603" lon="11.6374849"><ele>1370.0</ele><time>2026-04-26T12:26:08.455Z</time></trkpt><trkpt lat="45.9376586" lon="11.6375685"><ele>1370.0</ele><time>2026-04-26T12:26:09.454Z</time></trkpt><trkpt lat="45.9377603" lon="11.6376509"><ele>1367.0</ele><time>2026-04-26T12:26:10.455Z</time></trkpt><trkpt lat="45.9378535" lon="11.6377385"><ele>1364.0</ele><time>2026-04-26T12:26:11.454Z</time></trkpt><trkpt lat="45.9379459" lon="11.6378338"><ele>1361.0</ele><time>2026-04-26T12:26:12.454Z</time></trkpt><trkpt lat="45.9380472" lon="11.6379493"><ele>1358.0</ele><time>2026-04-26T12:26:13.454Z</time></trkpt><trkpt lat="45.9381422" lon="11.6380699"><ele>1358.0</ele><time>2026-04-26T12:26:14.455Z</time></trkpt><trkpt lat="45.9382367" lon="11.6381941"><ele>1358.0</ele><time>2026-04-26T12:26:15.454Z</time></trkpt><trkpt lat="45.938323" lon="11.6383024"><ele>1358.0</ele><time>2026-04-26T12:26:16.454Z</time></trkpt><trkpt lat="45.9384097" lon="11.6384019"><ele>1358.0</ele><time>2026-04-26T12:26:17.454Z</time></trkpt><trkpt lat="45.9384834" lon="11.6384757"><ele>1358.0</ele><time>2026-04-26T12:26:18.454Z</time></trkpt><trkpt lat="45.9385574" lon="11.6385267"><ele>1357.4</ele><time>2026-04-26T12:26:19.454Z</time></trkpt><trkpt lat="45.9386282" lon="11.6385367"><ele>1356.8000000000002</ele><time>2026-04-26T12:26:20.455Z</time></trkpt><trkpt lat="45.9387034" lon="11.638522"><ele>1356.2</ele><time>2026-04-26T12:26:21.454Z</time></trkpt><trkpt lat="45.938788" lon="11.6384421"><ele>1355.6</ele><time>2026-04-26T12:26:22.454Z</time></trkpt><trkpt lat="45.9388705" lon="11.6383591"><ele>1355.0</ele><time>2026-04-26T12:26:23.454Z</time></trkpt><trkpt lat="45.9389712" lon="11.638305"><ele>1355.0</ele><time>2026-04-26T12:26:24.454Z</time></trkpt><trkpt lat="45.9390645" lon="11.638236"><ele>1355.0</ele><time>2026-04-26T12:26:25.454Z</time></trkpt><trkpt lat="45.939157" lon="11.6381727"><ele>1355.0</ele><time>2026-04-26T12:26:26.454Z</time></trkpt><trkpt lat="45.9392563" lon="11.6381168"><ele>1355.0</ele><time>2026-04-26T12:26:27.455Z</time></trkpt><trkpt lat="45.9393695" lon="11.6380716"><ele>1355.0</ele><time>2026-04-26T12:26:28.454Z</time></trkpt><trkpt lat="45.9394722" lon="11.6380453"><ele>1355.25</ele><time>2026-04-26T12:26:29.454Z</time></trkpt><trkpt lat="45.9395869" lon="11.6380309"><ele>1355.5</ele><time>2026-04-26T12:26:30.454Z</time></trkpt><trkpt lat="45.9397217" lon="11.6380145"><ele>1355.75</ele><time>2026-04-26T12:26:31.454Z</time></trkpt><trkpt lat="45.9398681" lon="11.6379992"><ele>1356.0</ele><time>2026-04-26T12:26:32.454Z</time></trkpt><trkpt lat="45.9400139" lon="11.6379871"><ele>1354.5</ele><time>2026-04-26T12:26:33.455Z</time></trkpt><trkpt lat="45.9401613" lon="11.6379764"><ele>1353.0</ele><time>2026-04-26T12:26:34.454Z</time></trkpt><trkpt lat="45.9403033" lon="11.6379641"><ele>1351.5</ele><time>2026-04-26T12:26:35.455Z</time></trkpt><trkpt lat="45.9404494" lon="11.6379488"><ele>1350.0</ele><time>2026-04-26T12:26:36.455Z</time></trkpt><trkpt lat="45.9405985" lon="11.6379358"><ele>1350.0</ele><time>2026-04-26T12:26:37.454Z</time></trkpt><trkpt lat="45.9407502" lon="11.6379214"><ele>1350.0</ele><time>2026-04-26T12:26:38.455Z</time></trkpt><trkpt lat="45.9409022" lon="11.6379126"><ele>1350.0</ele><time>2026-04-26T12:26:39.454Z</time></trkpt><trkpt lat="45.9410588" lon="11.6379027"><ele>1346.6666666666667</ele><time>2026-04-26T12:26:40.454Z</time></trkpt><trkpt lat="45.9412223" lon="11.6378887"><ele>1343.3333333333335</ele><time>2026-04-26T12:26:41.454Z</time></trkpt><trkpt lat="45.9413851" lon="11.637872"><ele>1340.0</ele><time>2026-04-26T12:26:42.454Z</time></trkpt><trkpt lat="45.9415462" lon="11.6378732"><ele>1340.0</ele><time>2026-04-26T12:26:43.455Z</time></trkpt><trkpt lat="45.9417052" lon="11.6378662"><ele>1340.0</ele><time>2026-04-26T12:26:44.454Z</time></trkpt><trkpt lat="45.941869" lon="11.6378576"><ele>1340.0</ele><time>2026-04-26T12:26:45.454Z</time></trkpt><trkpt lat="45.9420309" lon="11.6378371"><ele>1339.5</ele><time>2026-04-26T12:26:46.454Z</time></trkpt><trkpt lat="45.9421852" lon="11.6378347"><ele>1339.0</ele><time>2026-04-26T12:26:47.455Z</time></trkpt><trkpt lat="45.9423197" lon="11.6378356"><ele>1338.5</ele><time>2026-04-26T12:26:48.454Z</time></trkpt><trkpt lat="45.9424386" lon="11.6378252"><ele>1338.0</ele><time>2026-04-26T12:26:49.455Z</time></trkpt><trkpt lat="45.9425461" lon="11.6378227"><ele>1338.6000000000001</ele><time>2026-04-26T12:26:50.454Z</time></trkpt><trkpt lat="45.942654" lon="11.6378428"><ele>1339.2</ele><time>2026-04-26T12:26:51.454Z</time></trkpt><trkpt lat="45.9427583" lon="11.6378736"><ele>1339.8</ele><time>2026-04-26T12:26:52.455Z</time></trkpt><trkpt lat="45.9428457" lon="11.6378859"><ele>1340.4</ele><time>2026-04-26T12:26:53.454Z</time></trkpt><trkpt lat="45.9429413" lon="11.6378823"><ele>1341.0</ele><time>2026-04-26T12:26:54.454Z</time></trkpt><trkpt lat="45.9430459" lon="11.6378443"><ele>1337.0</ele><time>2026-04-26T12:26:55.455Z</time></trkpt><trkpt lat="45.9431591" lon="11.6377839"><ele>1333.0</ele><time>2026-04-26T12:26:56.454Z</time></trkpt><trkpt lat="45.9432806" lon="11.6377405"><ele>1329.0</ele><time>2026-04-26T12:26:57.455Z</time></trkpt><trkpt lat="45.9434048" lon="11.6377034"><ele>1325.0</ele><time>2026-04-26T12:26:58.455Z</time></trkpt><trkpt lat="45.9435168" lon="11.6376862"><ele>1324.25</ele><time>2026-04-26T12:26:59.455Z</time></trkpt><trkpt lat="45.943632" lon="11.6376782"><ele>1323.5</ele><time>2026-04-26T12:27:00.454Z</time></trkpt><trkpt lat="45.9437546" lon="11.6376745"><ele>1322.75</ele><time>2026-04-26T12:27:01.454Z</time></trkpt><trkpt lat="45.9438723" lon="11.6376546"><ele>1322.0</ele><time>2026-04-26T12:27:02.454Z</time></trkpt><trkpt lat="45.9439858" lon="11.6376536"><ele>1322.0</ele><time>2026-04-26T12:27:03.454Z</time></trkpt><trkpt lat="45.9440883" lon="11.6376687"><ele>1322.0</ele><time>2026-04-26T12:27:04.454Z</time></trkpt><trkpt lat="45.9441889" lon="11.6376536"><ele>1322.0</ele><time>2026-04-26T12:27:05.454Z</time></trkpt><trkpt lat="45.94428" lon="11.6376245"><ele>1322.0</ele><time>2026-04-26T12:27:06.455Z</time></trkpt><trkpt lat="45.9443383" lon="11.637568"><ele>1322.0</ele><time>2026-04-26T12:27:07.454Z</time></trkpt><trkpt lat="45.9443919" lon="11.6374921"><ele>1322.0</ele><time>2026-04-26T12:27:08.454Z</time></trkpt><trkpt lat="45.9444346" lon="11.637386"><ele>1322.0</ele><time>2026-04-26T12:27:09.454Z</time></trkpt><trkpt lat="45.9444645" lon="11.6372751"><ele>1322.0</ele><time>2026-04-26T12:27:10.455Z</time></trkpt><trkpt lat="45.9444698" lon="11.6371709"><ele>1322.0</ele><time>2026-04-26T12:27:11.454Z</time></trkpt><trkpt lat="45.9444626" lon="11.6370468"><ele>1322.0</ele><time>2026-04-26T12:27:12.454Z</time></trkpt><trkpt lat="45.9444264" lon="11.6369255"><ele>1322.0</ele><time>2026-04-26T12:27:13.454Z</time></trkpt><trkpt lat="45.9443785" lon="11.6368257"><ele>1322.0</ele><time>2026-04-26T12:27:14.454Z</time></trkpt><trkpt lat="45.9443188" lon="11.6367224"><ele>1321.75</ele><time>2026-04-26T12:27:15.455Z</time></trkpt><trkpt lat="45.9442101" lon="11.6366803"><ele>1321.5</ele><time>2026-04-26T12:27:16.454Z</time></trkpt><trkpt lat="45.9441086" lon="11.6366399"><ele>1321.25</ele><time>2026-04-26T12:27:17.454Z</time></trkpt><trkpt lat="45.9439907" lon="11.6365857"><ele>1321.0</ele><time>2026-04-26T12:27:18.455Z</time></trkpt><trkpt lat="45.9438585" lon="11.6365363"><ele>1321.0</ele><time>2026-04-26T12:27:19.454Z</time></trkpt><trkpt lat="45.9437287" lon="11.6364907"><ele>1321.0</ele><time>2026-04-26T12:27:20.454Z</time></trkpt><trkpt lat="45.9435967" lon="11.6364432"><ele>1321.0</ele><time>2026-04-26T12:27:21.455Z</time></trkpt><trkpt lat="45.9434554" lon="11.6363831"><ele>1321.0</ele><time>2026-04-26T12:27:22.454Z</time></trkpt><trkpt lat="45.9433162" lon="11.636335"><ele>1321.0</ele><time>2026-04-26T12:27:23.454Z</time></trkpt><trkpt lat="45.9431765" lon="11.6362879"><ele>1321.0</ele><time>2026-04-26T12:27:24.455Z</time></trkpt><trkpt lat="45.9430516" lon="11.636238"><ele>1321.0</ele><time>2026-04-26T12:27:25.454Z</time></trkpt><trkpt lat="45.9429305" lon="11.6361802"><ele>1321.0</ele><time>2026-04-26T12:27:26.455Z</time></trkpt><trkpt lat="45.9428004" lon="11.636123"><ele>1324.75</ele><time>2026-04-26T12:27:27.454Z</time></trkpt><trkpt lat="45.9426671" lon="11.6360731"><ele>1328.5</ele><time>2026-04-26T12:27:28.454Z</time></trkpt><trkpt lat="45.9425323" lon="11.6360333"><ele>1332.25</ele><time>2026-04-26T12:27:29.454Z</time></trkpt><trkpt lat="45.9424066" lon="11.6360172"><ele>1336.0</ele><time>2026-04-26T12:27:30.454Z</time></trkpt><trkpt lat="45.9422941" lon="11.6360337"><ele>1336.0</ele><time>2026-04-26T12:27:31.454Z</time></trkpt><trkpt lat="45.9421856" lon="11.6360574"><ele>1336.0</ele><time>2026-04-26T12:27:32.454Z</time></trkpt><trkpt lat="45.9420921" lon="11.6360777"><ele>1336.0</ele><time>2026-04-26T12:27:33.454Z</time></trkpt><trkpt lat="45.9420154" lon="11.6360833"><ele>1336.0</ele><time>2026-04-26T12:27:34.455Z</time></trkpt><trkpt lat="45.941901" lon="11.6360232"><ele>1336.0</ele><time>2026-04-26T12:27:36.454Z</time></trkpt><trkpt lat="45.9418419" lon="11.6359399"><ele>1336.0</ele><time>2026-04-26T12:27:38.454Z</time></trkpt><trkpt lat="45.9417911" lon="11.6358673"><ele>1336.0</ele><time>2026-04-26T12:27:40.454Z</time></trkpt><trkpt lat="45.9417146" lon="11.6358053"><ele>1336.0</ele><time>2026-04-26T12:27:43.454Z</time></trkpt><trkpt lat="45.9416433" lon="11.635801"><ele>1336.0</ele><time>2026-04-26T12:32:21.455Z</time></trkpt><trkpt lat="45.9415658" lon="11.6358053"><ele>1336.0</ele><time>2026-04-26T12:32:23.455Z</time></trkpt><trkpt lat="45.9414875" lon="11.6358037"><ele>1336.0</ele><time>2026-04-26T12:32:25.454Z</time></trkpt><trkpt lat="45.9414077" lon="11.6357896"><ele>1337.1999999999998</ele><time>2026-04-26T12:32:27.454Z</time></trkpt><trkpt lat="45.9413154" lon="11.6357742"><ele>1338.3999999999999</ele><time>2026-04-26T12:32:29.454Z</time></trkpt><trkpt lat="45.9412135" lon="11.6357298"><ele>1339.6</ele><time>2026-04-26T12:32:31.454Z</time></trkpt><trkpt lat="45.9411234" lon="11.6356262"><ele>1340.8</ele><time>2026-04-26T12:32:33.454Z</time></trkpt><trkpt lat="45.9410895" lon="11.63554"><ele>1342.0</ele><time>2026-04-26T12:32:34.454Z</time></trkpt><trkpt lat="45.9410805" lon="11.6354379"><ele>1342.0</ele><time>2026-04-26T12:32:35.454Z</time></trkpt><trkpt lat="45.9410628" lon="11.6353325"><ele>1342.0</ele><time>2026-04-26T12:32:36.455Z</time></trkpt><trkpt lat="45.9410488" lon="11.6352124"><ele>1342.0</ele><time>2026-04-26T12:32:37.455Z</time></trkpt><trkpt lat="45.9410303" lon="11.6350878"><ele>1342.0</ele><time>2026-04-26T12:32:38.454Z</time></trkpt><trkpt lat="45.9410202" lon="11.634953"><ele>1342.0</ele><time>2026-04-26T12:32:39.454Z</time></trkpt><trkpt lat="45.9409927" lon="11.634816"><ele>1342.0</ele><time>2026-04-26T12:32:40.454Z</time></trkpt><trkpt lat="45.9409556" lon="11.6346846"><ele>1344.3999999999999</ele><time>2026-04-26T12:32:41.454Z</time></trkpt><trkpt lat="45.9409122" lon="11.6345587"><ele>1346.8</ele><time>2026-04-26T12:32:42.454Z</time></trkpt><trkpt lat="45.9408605" lon="11.6344273"><ele>1349.2</ele><time>2026-04-26T12:32:43.454Z</time></trkpt><trkpt lat="45.9407967" lon="11.6343079"><ele>1351.6</ele><time>2026-04-26T12:32:44.454Z</time></trkpt><trkpt lat="45.9407287" lon="11.634189"><ele>1354.0</ele><time>2026-04-26T12:32:45.454Z</time></trkpt><trkpt lat="45.9406512" lon="11.6340793"><ele>1354.0</ele><time>2026-04-26T12:32:46.454Z</time></trkpt><trkpt lat="45.940575" lon="11.6339642"><ele>1354.0</ele><time>2026-04-26T12:32:47.454Z</time></trkpt><trkpt lat="45.9404909" lon="11.6338649"><ele>1354.0</ele><time>2026-04-26T12:32:48.454Z</time></trkpt><trkpt lat="45.9404026" lon="11.6337694"><ele>1354.0</ele><time>2026-04-26T12:32:49.454Z</time></trkpt><trkpt lat="45.940319" lon="11.6336825"><ele>1354.0</ele><time>2026-04-26T12:32:50.454Z</time></trkpt><trkpt lat="45.9402334" lon="11.6336146"><ele>1353.2</ele><time>2026-04-26T12:32:51.454Z</time></trkpt><trkpt lat="45.9401401" lon="11.633562"><ele>1352.4</ele><time>2026-04-26T12:32:52.454Z</time></trkpt><trkpt lat="45.9400437" lon="11.6335329"><ele>1351.6</ele><time>2026-04-26T12:32:53.454Z</time></trkpt><trkpt lat="45.9399473" lon="11.633506"><ele>1350.8</ele><time>2026-04-26T12:32:54.454Z</time></trkpt><trkpt lat="45.9398643" lon="11.6334691"><ele>1350.0</ele><time>2026-04-26T12:32:55.454Z</time></trkpt><trkpt lat="45.9397899" lon="11.6334184"><ele>1350.0</ele><time>2026-04-26T12:32:56.454Z</time></trkpt><trkpt lat="45.9397216" lon="11.6333528"><ele>1350.0</ele><time>2026-04-26T12:32:57.454Z</time></trkpt><trkpt lat="45.9396663" lon="11.6332678"><ele>1350.0</ele><time>2026-04-26T12:32:58.454Z</time></trkpt><trkpt lat="45.9396352" lon="11.6331799"><ele>1350.0</ele><time>2026-04-26T12:32:59.455Z</time></trkpt><trkpt lat="45.9396197" lon="11.6330683"><ele>1350.0</ele><time>2026-04-26T12:33:00.454Z</time></trkpt><trkpt lat="45.9396327" lon="11.6329712"><ele>1350.0</ele><time>2026-04-26T12:33:01.454Z</time></trkpt><trkpt lat="45.9396536" lon="11.6328856"><ele>1350.0</ele><time>2026-04-26T12:33:02.454Z</time></trkpt><trkpt lat="45.9397096" lon="11.6328025"><ele>1349.2</ele><time>2026-04-26T12:33:03.454Z</time></trkpt><trkpt lat="45.9397694" lon="11.6327367"><ele>1348.4</ele><time>2026-04-26T12:33:04.455Z</time></trkpt><trkpt lat="45.9398498" lon="11.6326673"><ele>1347.6</ele><time>2026-04-26T12:33:05.455Z</time></trkpt><trkpt lat="45.9399332" lon="11.6325846"><ele>1346.8</ele><time>2026-04-26T12:33:06.455Z</time></trkpt><trkpt lat="45.9400065" lon="11.6324888"><ele>1346.0</ele><time>2026-04-26T12:33:07.454Z</time></trkpt><trkpt lat="45.9400801" lon="11.6323769"><ele>1350.0</ele><time>2026-04-26T12:33:08.454Z</time></trkpt><trkpt lat="45.9401467" lon="11.6322529"><ele>1354.0</ele><time>2026-04-26T12:33:09.454Z</time></trkpt><trkpt lat="45.9402123" lon="11.6321316"><ele>1358.0</ele><time>2026-04-26T12:33:10.455Z</time></trkpt><trkpt lat="45.9402859" lon="11.6320171"><ele>1362.0</ele><time>2026-04-26T12:33:11.454Z</time></trkpt><trkpt lat="45.940362" lon="11.6319135"><ele>1366.0</ele><time>2026-04-26T12:33:12.455Z</time></trkpt><trkpt lat="45.9404357" lon="11.6318004"><ele>1366.0</ele><time>2026-04-26T12:33:13.454Z</time></trkpt><trkpt lat="45.9405078" lon="11.6316803"><ele>1366.0</ele><time>2026-04-26T12:33:14.454Z</time></trkpt><trkpt lat="45.9405887" lon="11.6315523"><ele>1366.0</ele><time>2026-04-26T12:33:15.455Z</time></trkpt><trkpt lat="45.9406657" lon="11.6314171"><ele>1366.0</ele><time>2026-04-26T12:33:16.454Z</time></trkpt><trkpt lat="45.9407465" lon="11.6312769"><ele>1366.0</ele><time>2026-04-26T12:33:17.454Z</time></trkpt><trkpt lat="45.9408286" lon="11.6311543"><ele>1366.0</ele><time>2026-04-26T12:33:18.455Z</time></trkpt><trkpt lat="45.940902" lon="11.6310405"><ele>1366.0</ele><time>2026-04-26T12:33:19.454Z</time></trkpt><trkpt lat="45.9409759" lon="11.6309191"><ele>1366.0</ele><time>2026-04-26T12:33:20.454Z</time></trkpt><trkpt lat="45.9410402" lon="11.6307997"><ele>1366.0</ele><time>2026-04-26T12:33:21.454Z</time></trkpt><trkpt lat="45.9410835" lon="11.6306695"><ele>1369.6</ele><time>2026-04-26T12:33:22.454Z</time></trkpt><trkpt lat="45.9411152" lon="11.6305306"><ele>1373.1999999999998</ele><time>2026-04-26T12:33:23.454Z</time></trkpt><trkpt lat="45.9411369" lon="11.6303808"><ele>1376.8000000000002</ele><time>2026-04-26T12:33:24.454Z</time></trkpt><trkpt lat="45.9411648" lon="11.6302288"><ele>1380.4</ele><time>2026-04-26T12:33:25.454Z</time></trkpt><trkpt lat="45.9411865" lon="11.6300622"><ele>1384.0</ele><time>2026-04-26T12:33:26.454Z</time></trkpt><trkpt lat="45.9412183" lon="11.6299091"><ele>1384.0</ele><time>2026-04-26T12:33:27.454Z</time></trkpt><trkpt lat="45.941259" lon="11.6297484"><ele>1384.0</ele><time>2026-04-26T12:33:28.454Z</time></trkpt><trkpt lat="45.9412911" lon="11.6295907"><ele>1384.0</ele><time>2026-04-26T12:33:29.455Z</time></trkpt><trkpt lat="45.9413291" lon="11.6294244"><ele>1384.0</ele><time>2026-04-26T12:33:30.455Z</time></trkpt><trkpt lat="45.9413599" lon="11.6292713"><ele>1381.8000000000002</ele><time>2026-04-26T12:33:31.455Z</time></trkpt><trkpt lat="45.941404" lon="11.629138"><ele>1379.6000000000001</ele><time>2026-04-26T12:33:32.454Z</time></trkpt><trkpt lat="45.9414207" lon="11.6289956"><ele>1377.4</ele><time>2026-04-26T12:33:33.455Z</time></trkpt><trkpt lat="45.9414108" lon="11.6288779"><ele>1375.2</ele><time>2026-04-26T12:33:34.454Z</time></trkpt><trkpt lat="45.9413996" lon="11.62877"><ele>1373.0</ele><time>2026-04-26T12:33:35.455Z</time></trkpt><trkpt lat="45.9413601" lon="11.6286396"><ele>1371.2</ele><time>2026-04-26T12:33:36.454Z</time></trkpt><trkpt lat="45.9413151" lon="11.6285441"><ele>1369.4</ele><time>2026-04-26T12:33:37.455Z</time></trkpt><trkpt lat="45.9412718" lon="11.6284264"><ele>1367.6000000000001</ele><time>2026-04-26T12:33:38.454Z</time></trkpt><trkpt lat="45.9412382" lon="11.628295"><ele>1365.8000000000002</ele><time>2026-04-26T12:33:39.455Z</time></trkpt><trkpt lat="45.9412058" lon="11.6281574"><ele>1364.0</ele><time>2026-04-26T12:33:40.454Z</time></trkpt><trkpt lat="45.9411991" lon="11.6280214"><ele>1364.0</ele><time>2026-04-26T12:33:41.454Z</time></trkpt><trkpt lat="45.9411986" lon="11.627875"><ele>1364.0</ele><time>2026-04-26T12:33:42.455Z</time></trkpt><trkpt lat="45.9412026" lon="11.6277312"><ele>1364.0</ele><time>2026-04-26T12:33:43.455Z</time></trkpt><trkpt lat="45.9412211" lon="11.6275837"><ele>1364.0</ele><time>2026-04-26T12:33:44.454Z</time></trkpt><trkpt lat="45.9412564" lon="11.6274346"><ele>1364.0</ele><time>2026-04-26T12:33:45.454Z</time></trkpt><trkpt lat="45.9412958" lon="11.6273021"><ele>1363.25</ele><time>2026-04-26T12:33:46.454Z</time></trkpt><trkpt lat="45.941345" lon="11.627157"><ele>1362.5</ele><time>2026-04-26T12:33:47.454Z</time></trkpt><trkpt lat="45.9413949" lon="11.6270126"><ele>1361.75</ele><time>2026-04-26T12:33:48.454Z</time></trkpt><trkpt lat="45.9414602" lon="11.6268711"><ele>1361.0</ele><time>2026-04-26T12:33:49.454Z</time></trkpt><trkpt lat="45.9415293" lon="11.6267421"><ele>1359.8</ele><time>2026-04-26T12:33:50.454Z</time></trkpt><trkpt lat="45.941608" lon="11.6266254"><ele>1358.6</ele><time>2026-04-26T12:33:51.454Z</time></trkpt><trkpt lat="45.9416823" lon="11.6265057"><ele>1357.4</ele><time>2026-04-26T12:33:52.454Z</time></trkpt><trkpt lat="45.9417261" lon="11.626369"><ele>1356.2</ele><time>2026-04-26T12:33:53.454Z</time></trkpt><trkpt lat="45.9417628" lon="11.6262454"><ele>1355.0</ele><time>2026-04-26T12:33:54.455Z</time></trkpt><trkpt lat="45.9417924" lon="11.626125"><ele>1355.0</ele><time>2026-04-26T12:33:55.454Z</time></trkpt><trkpt lat="45.9418348" lon="11.626016"><ele>1355.0</ele><time>2026-04-26T12:33:56.454Z</time></trkpt><trkpt lat="45.941884" lon="11.6259137"><ele>1355.0</ele><time>2026-04-26T12:33:57.454Z</time></trkpt><trkpt lat="45.9419462" lon="11.6258217"><ele>1355.0</ele><time>2026-04-26T12:33:58.454Z</time></trkpt><trkpt lat="45.9420176" lon="11.6257356"><ele>1355.0</ele><time>2026-04-26T12:33:59.455Z</time></trkpt><trkpt lat="45.9420864" lon="11.6256379"><ele>1355.0</ele><time>2026-04-26T12:34:00.454Z</time></trkpt><trkpt lat="45.9421664" lon="11.6255348"><ele>1355.0</ele><time>2026-04-26T12:34:01.455Z</time></trkpt><trkpt lat="45.9422381" lon="11.6254085"><ele>1355.0</ele><time>2026-04-26T12:34:02.455Z</time></trkpt><trkpt lat="45.9423152" lon="11.6252878"><ele>1355.0</ele><time>2026-04-26T12:34:03.455Z</time></trkpt><trkpt lat="45.9423976" lon="11.6251756"><ele>1355.0</ele><time>2026-04-26T12:34:04.454Z</time></trkpt><trkpt lat="45.9424844" lon="11.625067"><ele>1354.6</ele><time>2026-04-26T12:34:05.454Z</time></trkpt><trkpt lat="45.942573" lon="11.6249691"><ele>1354.2</ele><time>2026-04-26T12:34:06.455Z</time></trkpt><trkpt lat="45.9426546" lon="11.624872"><ele>1353.8000000000002</ele><time>2026-04-26T12:34:07.455Z</time></trkpt><trkpt lat="45.9427437" lon="11.6247975"><ele>1353.4</ele><time>2026-04-26T12:34:08.454Z</time></trkpt><trkpt lat="45.9428301" lon="11.6247235"><ele>1353.0</ele><time>2026-04-26T12:34:09.454Z</time></trkpt><trkpt lat="45.9429322" lon="11.6246739"><ele>1353.0</ele><time>2026-04-26T12:34:10.454Z</time></trkpt><trkpt lat="45.9430367" lon="11.6246381"><ele>1353.0</ele><time>2026-04-26T12:34:11.454Z</time></trkpt><trkpt lat="45.9431385" lon="11.6245956"><ele>1353.0</ele><time>2026-04-26T12:34:12.454Z</time></trkpt><trkpt lat="45.9432385" lon="11.6245415"><ele>1353.0</ele><time>2026-04-26T12:34:13.454Z</time></trkpt><trkpt lat="45.9433209" lon="11.6244582"><ele>1353.0</ele><time>2026-04-26T12:34:14.454Z</time></trkpt><trkpt lat="45.9433869" lon="11.6243503"><ele>1353.2</ele><time>2026-04-26T12:34:15.455Z</time></trkpt><trkpt lat="45.9434329" lon="11.6242171"><ele>1353.4</ele><time>2026-04-26T12:34:16.455Z</time></trkpt><trkpt lat="45.9434866" lon="11.6240619"><ele>1353.6000000000001</ele><time>2026-04-26T12:34:17.454Z</time></trkpt><trkpt lat="45.9435097" lon="11.6239189"><ele>1353.8000000000002</ele><time>2026-04-26T12:34:18.454Z</time></trkpt><trkpt lat="45.9435422" lon="11.6237787"><ele>1354.0</ele><time>2026-04-26T12:34:19.454Z</time></trkpt><trkpt lat="45.9435876" lon="11.6236302"><ele>1354.0</ele><time>2026-04-26T12:34:20.454Z</time></trkpt><trkpt lat="45.9436356" lon="11.6234803"><ele>1354.0</ele><time>2026-04-26T12:34:21.455Z</time></trkpt><trkpt lat="45.9436938" lon="11.623338"><ele>1354.0</ele><time>2026-04-26T12:34:22.454Z</time></trkpt><trkpt lat="45.9437575" lon="11.6231886"><ele>1354.0</ele><time>2026-04-26T12:34:23.454Z</time></trkpt><trkpt lat="45.9438276" lon="11.6230422"><ele>1354.0</ele><time>2026-04-26T12:34:24.455Z</time></trkpt><trkpt lat="45.9438916" lon="11.6228841"><ele>1354.0</ele><time>2026-04-26T12:34:25.454Z</time></trkpt><trkpt lat="45.9439554" lon="11.6227245"><ele>1354.0</ele><time>2026-04-26T12:34:26.455Z</time></trkpt><trkpt lat="45.9440151" lon="11.6225688"><ele>1354.0</ele><time>2026-04-26T12:34:27.454Z</time></trkpt><trkpt lat="45.9440839" lon="11.6224294"><ele>1354.75</ele><time>2026-04-26T12:34:28.455Z</time></trkpt><trkpt lat="45.9441545" lon="11.6223066"><ele>1355.5</ele><time>2026-04-26T12:34:29.454Z</time></trkpt><trkpt lat="45.9442338" lon="11.6221891"><ele>1356.25</ele><time>2026-04-26T12:34:30.454Z</time></trkpt><trkpt lat="45.944317" lon="11.6220667"><ele>1357.0</ele><time>2026-04-26T12:34:31.454Z</time></trkpt><trkpt lat="45.9444055" lon="11.6219498"><ele>1351.5</ele><time>2026-04-26T12:34:32.455Z</time></trkpt><trkpt lat="45.9444869" lon="11.6218418"><ele>1346.0</ele><time>2026-04-26T12:34:33.454Z</time></trkpt><trkpt lat="45.9445757" lon="11.6217336"><ele>1340.5</ele><time>2026-04-26T12:34:34.455Z</time></trkpt><trkpt lat="45.9446818" lon="11.6216439"><ele>1335.0</ele><time>2026-04-26T12:34:35.455Z</time></trkpt><trkpt lat="45.9447925" lon="11.6215636"><ele>1335.0</ele><time>2026-04-26T12:34:36.454Z</time></trkpt><trkpt lat="45.9449046" lon="11.6214779"><ele>1335.0</ele><time>2026-04-26T12:34:37.455Z</time></trkpt><trkpt lat="45.945023" lon="11.6213856"><ele>1335.0</ele><time>2026-04-26T12:34:38.455Z</time></trkpt><trkpt lat="45.945138" lon="11.6212854"><ele>1335.0</ele><time>2026-04-26T12:34:39.454Z</time></trkpt><trkpt lat="45.9452537" lon="11.6211799"><ele>1333.5</ele><time>2026-04-26T12:34:40.455Z</time></trkpt><trkpt lat="45.945363" lon="11.6210871"><ele>1332.0</ele><time>2026-04-26T12:34:41.454Z</time></trkpt><trkpt lat="45.9454674" lon="11.6210061"><ele>1330.5</ele><time>2026-04-26T12:34:42.455Z</time></trkpt><trkpt lat="45.9455673" lon="11.6209065"><ele>1329.0</ele><time>2026-04-26T12:34:43.455Z</time></trkpt><trkpt lat="45.9456498" lon="11.6207935"><ele>1329.0</ele><time>2026-04-26T12:34:44.455Z</time></trkpt><trkpt lat="45.9457144" lon="11.6206626"><ele>1329.0</ele><time>2026-04-26T12:34:45.454Z</time></trkpt><trkpt lat="45.9457945" lon="11.6205354"><ele>1329.0</ele><time>2026-04-26T12:34:46.455Z</time></trkpt><trkpt lat="45.9458853" lon="11.6204411"><ele>1329.0</ele><time>2026-04-26T12:34:47.455Z</time></trkpt><trkpt lat="45.9459886" lon="11.6203555"><ele>1325.0</ele><time>2026-04-26T12:34:48.454Z</time></trkpt><trkpt lat="45.9461013" lon="11.6202777"><ele>1321.0</ele><time>2026-04-26T12:34:49.454Z</time></trkpt><trkpt lat="45.9462079" lon="11.6202008"><ele>1317.0</ele><time>2026-04-26T12:34:50.455Z</time></trkpt><trkpt lat="45.9463141" lon="11.6201747"><ele>1313.0</ele><time>2026-04-26T12:34:51.454Z</time></trkpt><trkpt lat="45.9464292" lon="11.6201479"><ele>1313.0</ele><time>2026-04-26T12:34:52.454Z</time></trkpt><trkpt lat="45.9465502" lon="11.6201547"><ele>1313.0</ele><time>2026-04-26T12:34:53.455Z</time></trkpt><trkpt lat="45.9466648" lon="11.6201929"><ele>1313.0</ele><time>2026-04-26T12:34:54.455Z</time></trkpt><trkpt lat="45.9467855" lon="11.6202241"><ele>1313.0</ele><time>2026-04-26T12:34:55.455Z</time></trkpt><trkpt lat="45.9468869" lon="11.6202311"><ele>1313.0</ele><time>2026-04-26T12:34:56.454Z</time></trkpt><trkpt lat="45.9469669" lon="11.6201862"><ele>1313.0</ele><time>2026-04-26T12:34:57.454Z</time></trkpt><trkpt lat="45.9470175" lon="11.6200914"><ele>1313.0</ele><time>2026-04-26T12:34:58.454Z</time></trkpt><trkpt lat="45.9470224" lon="11.6199899"><ele>1313.0</ele><time>2026-04-26T12:34:59.455Z</time></trkpt><trkpt lat="45.946965" lon="11.6198788"><ele>1313.0</ele><time>2026-04-26T12:35:00.455Z</time></trkpt><trkpt lat="45.9469079" lon="11.6197823"><ele>1313.0</ele><time>2026-04-26T12:35:01.454Z</time></trkpt><trkpt lat="45.9468521" lon="11.6196674"><ele>1313.0</ele><time>2026-04-26T12:35:02.454Z</time></trkpt><trkpt lat="45.9468259" lon="11.6195435"><ele>1313.0</ele><time>2026-04-26T12:35:03.455Z</time></trkpt><trkpt lat="45.9468117" lon="11.6194029"><ele>1313.0</ele><time>2026-04-26T12:35:04.454Z</time></trkpt><trkpt lat="45.9468072" lon="11.6192509"><ele>1313.0</ele><time>2026-04-26T12:35:05.454Z</time></trkpt><trkpt lat="45.9468012" lon="11.6190956"><ele>1313.0</ele><time>2026-04-26T12:35:06.454Z</time></trkpt><trkpt lat="45.9467916" lon="11.618944"><ele>1312.4</ele><time>2026-04-26T12:35:07.454Z</time></trkpt><trkpt lat="45.9468236" lon="11.6188066"><ele>1311.8000000000002</ele><time>2026-04-26T12:35:08.455Z</time></trkpt><trkpt lat="45.9468729" lon="11.6186813"><ele>1311.2</ele><time>2026-04-26T12:35:09.454Z</time></trkpt><trkpt lat="45.9469642" lon="11.6185984"><ele>1310.6</ele><time>2026-04-26T12:35:10.454Z</time></trkpt><trkpt lat="45.947075" lon="11.6185449"><ele>1310.0</ele><time>2026-04-26T12:35:11.454Z</time></trkpt><trkpt lat="45.9471933" lon="11.618527"><ele>1309.0</ele><time>2026-04-26T12:35:12.454Z</time></trkpt><trkpt lat="45.9473139" lon="11.6185242"><ele>1308.0</ele><time>2026-04-26T12:35:13.454Z</time></trkpt><trkpt lat="45.9474356" lon="11.6185137"><ele>1307.0</ele><time>2026-04-26T12:35:14.454Z</time></trkpt><trkpt lat="45.9475625" lon="11.618499"><ele>1306.0</ele><time>2026-04-26T12:35:15.455Z</time></trkpt><trkpt lat="45.9476876" lon="11.618497"><ele>1306.0</ele><time>2026-04-26T12:35:16.455Z</time></trkpt><trkpt lat="45.9478164" lon="11.6184929"><ele>1306.0</ele><time>2026-04-26T12:35:17.454Z</time></trkpt><trkpt lat="45.9479429" lon="11.6185016"><ele>1306.0</ele><time>2026-04-26T12:35:18.454Z</time></trkpt><trkpt lat="45.9480675" lon="11.6185009"><ele>1306.0</ele><time>2026-04-26T12:35:19.454Z</time></trkpt><trkpt lat="45.9481821" lon="11.6184789"><ele>1306.0</ele><time>2026-04-26T12:35:20.454Z</time></trkpt><trkpt lat="45.9482768" lon="11.6184057"><ele>1306.0</ele><time>2026-04-26T12:35:21.454Z</time></trkpt><trkpt lat="45.948329" lon="11.6182866"><ele>1306.0</ele><time>2026-04-26T12:35:22.455Z</time></trkpt><trkpt lat="45.9483302" lon="11.618154"><ele>1306.0</ele><time>2026-04-26T12:35:23.455Z</time></trkpt><trkpt lat="45.9483005" lon="11.6180209"><ele>1306.0</ele><time>2026-04-26T12:35:24.454Z</time></trkpt><trkpt lat="45.9482614" lon="11.6178744"><ele>1305.5</ele><time>2026-04-26T12:35:25.454Z</time></trkpt><trkpt lat="45.9482701" lon="11.6177223"><ele>1305.0</ele><time>2026-04-26T12:35:26.454Z</time></trkpt><trkpt lat="45.9483266" lon="11.6175844"><ele>1304.5</ele><time>2026-04-26T12:35:27.454Z</time></trkpt><trkpt lat="45.9484112" lon="11.617473"><ele>1304.0</ele><time>2026-04-26T12:35:28.455Z</time></trkpt><trkpt lat="45.9484996" lon="11.6173577"><ele>1304.0</ele><time>2026-04-26T12:35:29.454Z</time></trkpt><trkpt lat="45.9485821" lon="11.6172666"><ele>1304.0</ele><time>2026-04-26T12:35:30.454Z</time></trkpt><trkpt lat="45.9486246" lon="11.6171297"><ele>1304.0</ele><time>2026-04-26T12:35:31.454Z</time></trkpt><trkpt lat="45.948623" lon="11.6169828"><ele>1304.0</ele><time>2026-04-26T12:35:32.454Z</time></trkpt><trkpt lat="45.9485758" lon="11.6168614"><ele>1304.0</ele><time>2026-04-26T12:35:33.454Z</time></trkpt><trkpt lat="45.9484972" lon="11.6167653"><ele>1303.6</ele><time>2026-04-26T12:35:34.454Z</time></trkpt><trkpt lat="45.9484014" lon="11.6166982"><ele>1303.2</ele><time>2026-04-26T12:35:35.455Z</time></trkpt><trkpt lat="45.9482924" lon="11.6166792"><ele>1302.8</ele><time>2026-04-26T12:35:36.454Z</time></trkpt><trkpt lat="45.948182" lon="11.6167033"><ele>1302.3999999999999</ele><time>2026-04-26T12:35:37.454Z</time></trkpt><trkpt lat="45.9480852" lon="11.6167462"><ele>1302.0</ele><time>2026-04-26T12:35:38.455Z</time></trkpt><trkpt lat="45.9479879" lon="11.616787"><ele>1301.8</ele><time>2026-04-26T12:35:39.455Z</time></trkpt><trkpt lat="45.9478932" lon="11.6168073"><ele>1301.6</ele><time>2026-04-26T12:35:40.455Z</time></trkpt><trkpt lat="45.9477995" lon="11.6168108"><ele>1301.3999999999999</ele><time>2026-04-26T12:35:41.454Z</time></trkpt><trkpt lat="45.9477023" lon="11.6168116"><ele>1301.1999999999998</ele><time>2026-04-26T12:35:42.454Z</time></trkpt><trkpt lat="45.9476112" lon="11.6168042"><ele>1301.0</ele><time>2026-04-26T12:35:43.454Z</time></trkpt><trkpt lat="45.947517" lon="11.616772"><ele>1301.6</ele><time>2026-04-26T12:35:44.455Z</time></trkpt><trkpt lat="45.9474306" lon="11.6167271"><ele>1302.1999999999998</ele><time>2026-04-26T12:35:45.455Z</time></trkpt><trkpt lat="45.9473614" lon="11.6166913"><ele>1302.8000000000002</ele><time>2026-04-26T12:35:46.454Z</time></trkpt><trkpt lat="45.9472599" lon="11.6166177"><ele>1303.4</ele><time>2026-04-26T12:35:48.455Z</time></trkpt><trkpt lat="45.9471685" lon="11.6165792"><ele>1304.0</ele><time>2026-04-26T12:35:50.454Z</time></trkpt><trkpt lat="45.9470733" lon="11.6165142"><ele>1304.0</ele><time>2026-04-26T12:35:52.454Z</time></trkpt><trkpt lat="45.9469879" lon="11.6163857"><ele>1304.0</ele><time>2026-04-26T12:35:54.454Z</time></trkpt><trkpt lat="45.9469467" lon="11.6162864"><ele>1304.0</ele><time>2026-04-26T12:35:55.454Z</time></trkpt><trkpt lat="45.9469039" lon="11.6161746"><ele>1304.0</ele><time>2026-04-26T12:35:56.454Z</time></trkpt><trkpt lat="45.9468608" lon="11.6160615"><ele>1304.0</ele><time>2026-04-26T12:35:57.454Z</time></trkpt><trkpt lat="45.9468251" lon="11.6159446"><ele>1304.3333333333335</ele><time>2026-04-26T12:35:58.454Z</time></trkpt><trkpt lat="45.9467808" lon="11.6158327"><ele>1304.6666666666667</ele><time>2026-04-26T12:35:59.454Z</time></trkpt><trkpt lat="45.9467422" lon="11.6157158"><ele>1305.0</ele><time>2026-04-26T12:36:00.454Z</time></trkpt><trkpt lat="45.9467087" lon="11.6156079"><ele>1305.3333333333333</ele><time>2026-04-26T12:36:01.454Z</time></trkpt><trkpt lat="45.9466754" lon="11.6155035"><ele>1305.6666666666665</ele><time>2026-04-26T12:36:02.454Z</time></trkpt><trkpt lat="45.9466362" lon="11.6154219"><ele>1306.0</ele><time>2026-04-26T12:36:03.454Z</time></trkpt><trkpt lat="45.9465943" lon="11.6153506"><ele>1305.0</ele><time>2026-04-26T12:36:04.454Z</time></trkpt><trkpt lat="45.9464678" lon="11.615282"><ele>1304.0</ele><time>2026-04-26T12:36:06.454Z</time></trkpt><trkpt lat="45.9463919" lon="11.6152892"><ele>1303.0</ele><time>2026-04-26T12:36:07.454Z</time></trkpt><trkpt lat="45.9463092" lon="11.6153123"><ele>1302.0</ele><time>2026-04-26T12:36:08.455Z</time></trkpt><trkpt lat="45.9462421" lon="11.6153696"><ele>1301.0</ele><time>2026-04-26T12:36:09.454Z</time></trkpt><trkpt lat="45.946184" lon="11.6154192"><ele>1300.0</ele><time>2026-04-26T12:36:10.454Z</time></trkpt><trkpt lat="45.9460925" lon="11.6154833"><ele>1300.0</ele><time>2026-04-26T12:36:12.454Z</time></trkpt><trkpt lat="45.9460116" lon="11.6154868"><ele>1300.0</ele><time>2026-04-26T12:36:15.454Z</time></trkpt><trkpt lat="45.9459255" lon="11.6154474"><ele>1300.0</ele><time>2026-04-26T12:36:17.454Z</time></trkpt><trkpt lat="45.9458241" lon="11.6154036"><ele>1300.0</ele><time>2026-04-26T12:36:19.454Z</time></trkpt><trkpt lat="45.9457342" lon="11.6154394"><ele>1300.0</ele><time>2026-04-26T12:36:21.454Z</time></trkpt><trkpt lat="45.9456492" lon="11.6155477"><ele>1299.1666666666665</ele><time>2026-04-26T12:36:23.454Z</time></trkpt><trkpt lat="45.9455671" lon="11.6156912"><ele>1298.3333333333333</ele><time>2026-04-26T12:36:25.455Z</time></trkpt><trkpt lat="45.9455212" lon="11.6157729"><ele>1297.5</ele><time>2026-04-26T12:36:26.454Z</time></trkpt><trkpt lat="45.9454712" lon="11.6158549"><ele>1296.6666666666667</ele><time>2026-04-26T12:36:27.454Z</time></trkpt><trkpt lat="45.9454236" lon="11.6159534"><ele>1295.8333333333335</ele><time>2026-04-26T12:36:28.454Z</time></trkpt><trkpt lat="45.9453726" lon="11.6160438"><ele>1295.0</ele><time>2026-04-26T12:36:29.455Z</time></trkpt><trkpt lat="45.945327" lon="11.6161369"><ele>1295.1666666666667</ele><time>2026-04-26T12:36:30.455Z</time></trkpt><trkpt lat="45.945273" lon="11.6162338"><ele>1295.3333333333335</ele><time>2026-04-26T12:36:31.454Z</time></trkpt><trkpt lat="45.9452229" lon="11.6162926"><ele>1295.5</ele><time>2026-04-26T12:36:32.454Z</time></trkpt><trkpt lat="45.9451407" lon="11.6163862"><ele>1295.6666666666667</ele><time>2026-04-26T12:36:34.454Z</time></trkpt><trkpt lat="45.9450736" lon="11.6163694"><ele>1295.8333333333333</ele><time>2026-04-26T12:36:37.455Z</time></trkpt><trkpt lat="45.9450441" lon="11.6162391"><ele>1296.0</ele><time>2026-04-26T12:36:39.454Z</time></trkpt><trkpt lat="45.9449931" lon="11.6160581"><ele>1295.6666666666667</ele><time>2026-04-26T12:36:41.454Z</time></trkpt><trkpt lat="45.9449487" lon="11.6159691"><ele>1295.3333333333333</ele><time>2026-04-26T12:36:42.454Z</time></trkpt><trkpt lat="45.9448878" lon="11.6158842"><ele>1295.0</ele><time>2026-04-26T12:36:43.455Z</time></trkpt><trkpt lat="45.9448152" lon="11.6158019"><ele>1294.6666666666665</ele><time>2026-04-26T12:36:44.454Z</time></trkpt><trkpt lat="45.9447341" lon="11.6157261"><ele>1294.3333333333333</ele><time>2026-04-26T12:36:45.454Z</time></trkpt><trkpt lat="45.944656" lon="11.6156429"><ele>1294.0</ele><time>2026-04-26T12:36:46.454Z</time></trkpt><trkpt lat="45.9445914" lon="11.6155658"><ele>1294.0</ele><time>2026-04-26T12:36:47.454Z</time></trkpt><trkpt lat="45.9445193" lon="11.6154787"><ele>1294.0</ele><time>2026-04-26T12:36:48.454Z</time></trkpt><trkpt lat="45.944464" lon="11.6153975"><ele>1294.0</ele><time>2026-04-26T12:36:49.454Z</time></trkpt><trkpt lat="45.9444247" lon="11.6152922"><ele>1294.0</ele><time>2026-04-26T12:36:50.454Z</time></trkpt><trkpt lat="45.9444005" lon="11.6151898"><ele>1294.0</ele><time>2026-04-26T12:36:51.455Z</time></trkpt><trkpt lat="45.9444042" lon="11.6150766"><ele>1294.0</ele><time>2026-04-26T12:36:52.454Z</time></trkpt><trkpt lat="45.9444133" lon="11.6149372"><ele>1294.6666666666665</ele><time>2026-04-26T12:36:53.454Z</time></trkpt><trkpt lat="45.9444201" lon="11.6148244"><ele>1295.3333333333333</ele><time>2026-04-26T12:36:54.454Z</time></trkpt><trkpt lat="45.9444066" lon="11.614732"><ele>1296.0</ele><time>2026-04-26T12:36:55.454Z</time></trkpt><trkpt lat="45.9443613" lon="11.6146498"><ele>1296.6666666666667</ele><time>2026-04-26T12:36:56.454Z</time></trkpt><trkpt lat="45.9443111" lon="11.6145786"><ele>1297.3333333333335</ele><time>2026-04-26T12:36:57.454Z</time></trkpt><trkpt lat="45.9442396" lon="11.6145121"><ele>1298.0</ele><time>2026-04-26T12:36:58.454Z</time></trkpt><trkpt lat="45.9441689" lon="11.6144543"><ele>1299.5</ele><time>2026-04-26T12:36:59.455Z</time></trkpt><trkpt lat="45.9440903" lon="11.6144023"><ele>1301.0</ele><time>2026-04-26T12:37:00.455Z</time></trkpt><trkpt lat="45.9440098" lon="11.6143522"><ele>1302.5</ele><time>2026-04-26T12:37:01.454Z</time></trkpt><trkpt lat="45.9439163" lon="11.614314"><ele>1304.0</ele><time>2026-04-26T12:37:02.454Z</time></trkpt><trkpt lat="45.9438351" lon="11.6142926"><ele>1305.5</ele><time>2026-04-26T12:37:03.454Z</time></trkpt><trkpt lat="45.943754" lon="11.6142651"><ele>1307.0</ele><time>2026-04-26T12:37:04.454Z</time></trkpt><trkpt lat="45.9436802" lon="11.6142287"><ele>1307.0</ele><time>2026-04-26T12:37:05.454Z</time></trkpt><trkpt lat="45.9436197" lon="11.6141747"><ele>1307.0</ele><time>2026-04-26T12:37:06.454Z</time></trkpt><trkpt lat="45.9435737" lon="11.6140986"><ele>1307.0</ele><time>2026-04-26T12:37:07.454Z</time></trkpt><trkpt lat="45.9435241" lon="11.6140084"><ele>1307.0</ele><time>2026-04-26T12:37:08.454Z</time></trkpt><trkpt lat="45.9434708" lon="11.6138983"><ele>1307.0</ele><time>2026-04-26T12:37:09.455Z</time></trkpt><trkpt lat="45.9434167" lon="11.6138026"><ele>1307.0</ele><time>2026-04-26T12:37:10.454Z</time></trkpt><trkpt lat="45.9433662" lon="11.6137073"><ele>1307.6666666666667</ele><time>2026-04-26T12:37:11.454Z</time></trkpt><trkpt lat="45.9433023" lon="11.6136195"><ele>1308.3333333333335</ele><time>2026-04-26T12:37:12.455Z</time></trkpt><trkpt lat="45.9432334" lon="11.6135383"><ele>1309.0</ele><time>2026-04-26T12:37:13.455Z</time></trkpt><trkpt lat="45.9431602" lon="11.6134717"><ele>1309.6666666666667</ele><time>2026-04-26T12:37:14.454Z</time></trkpt><trkpt lat="45.943089" lon="11.6133957"><ele>1310.3333333333333</ele><time>2026-04-26T12:37:15.454Z</time></trkpt><trkpt lat="45.9430138" lon="11.6133107"><ele>1311.0</ele><time>2026-04-26T12:37:16.454Z</time></trkpt><trkpt lat="45.9429428" lon="11.613204"><ele>1311.0</ele><time>2026-04-26T12:37:17.454Z</time></trkpt><trkpt lat="45.9428818" lon="11.6131058"><ele>1311.0</ele><time>2026-04-26T12:37:18.454Z</time></trkpt><trkpt lat="45.9428189" lon="11.6130257"><ele>1311.0</ele><time>2026-04-26T12:37:19.454Z</time></trkpt><trkpt lat="45.9427591" lon="11.6129477"><ele>1311.0</ele><time>2026-04-26T12:37:20.455Z</time></trkpt><trkpt lat="45.9427179" lon="11.6128683"><ele>1311.0</ele><time>2026-04-26T12:37:21.455Z</time></trkpt><trkpt lat="45.9427113" lon="11.6127291"><ele>1311.0</ele><time>2026-04-26T12:37:23.454Z</time></trkpt><trkpt lat="45.9427562" lon="11.6126305"><ele>1312.0</ele><time>2026-04-26T12:37:25.455Z</time></trkpt><trkpt lat="45.9428628" lon="11.612579"><ele>1313.0</ele><time>2026-04-26T12:37:27.455Z</time></trkpt><trkpt lat="45.9429299" lon="11.6125739"><ele>1314.0</ele><time>2026-04-26T12:37:28.455Z</time></trkpt><trkpt lat="45.9430318" lon="11.6125419"><ele>1315.0</ele><time>2026-04-26T12:37:30.454Z</time></trkpt><trkpt lat="45.9430575" lon="11.6124449"><ele>1316.0</ele><time>2026-04-26T12:37:32.454Z</time></trkpt><trkpt lat="45.9430343" lon="11.6123146"><ele>1316.0</ele><time>2026-04-26T12:37:34.454Z</time></trkpt><trkpt lat="45.9430215" lon="11.612225"><ele>1316.0</ele><time>2026-04-26T12:37:35.454Z</time></trkpt><trkpt lat="45.9430039" lon="11.6121257"><ele>1316.0</ele><time>2026-04-26T12:37:36.454Z</time></trkpt><trkpt lat="45.942979" lon="11.6120109"><ele>1316.0</ele><time>2026-04-26T12:37:37.455Z</time></trkpt><trkpt lat="45.9429481" lon="11.6119113"><ele>1316.0</ele><time>2026-04-26T12:37:38.454Z</time></trkpt><trkpt lat="45.9428994" lon="11.6118176"><ele>1316.0</ele><time>2026-04-26T12:37:39.454Z</time></trkpt><trkpt lat="45.9428337" lon="11.6117179"><ele>1315.8333333333335</ele><time>2026-04-26T12:37:40.454Z</time></trkpt><trkpt lat="45.9427575" lon="11.6116371"><ele>1315.6666666666667</ele><time>2026-04-26T12:37:41.454Z</time></trkpt><trkpt lat="45.9426879" lon="11.6115766"><ele>1315.5</ele><time>2026-04-26T12:37:42.454Z</time></trkpt><trkpt lat="45.9426193" lon="11.6115329"><ele>1315.3333333333333</ele><time>2026-04-26T12:37:43.454Z</time></trkpt><trkpt lat="45.9425468" lon="11.6115097"><ele>1315.1666666666665</ele><time>2026-04-26T12:37:44.454Z</time></trkpt><trkpt lat="45.9424357" lon="11.6114932"><ele>1315.0</ele><time>2026-04-26T12:37:46.455Z</time></trkpt><trkpt lat="45.9423569" lon="11.611495"><ele>1315.0</ele><time>2026-04-26T12:37:48.454Z</time></trkpt><trkpt lat="45.942272" lon="11.6114814"><ele>1315.0</ele><time>2026-04-26T12:37:51.454Z</time></trkpt><trkpt lat="45.9422087" lon="11.6114285"><ele>1315.0</ele><time>2026-04-26T12:37:55.454Z</time></trkpt><trkpt lat="45.942172" lon="11.6113516"><ele>1315.0</ele><time>2026-04-26T12:37:57.454Z</time></trkpt><trkpt lat="45.942122" lon="11.6112321"><ele>1315.0</ele><time>2026-04-26T12:37:59.454Z</time></trkpt><trkpt lat="45.9420847" lon="11.6111037"><ele>1315.0</ele><time>2026-04-26T12:38:01.455Z</time></trkpt><trkpt lat="45.9420365" lon="11.6109713"><ele>1315.0</ele><time>2026-04-26T12:38:03.454Z</time></trkpt><trkpt lat="45.9420024" lon="11.6108493"><ele>1315.0</ele><time>2026-04-26T12:38:05.454Z</time></trkpt><trkpt lat="45.9419583" lon="11.6107815"><ele>1315.0</ele><time>2026-04-26T12:38:08.454Z</time></trkpt><trkpt lat="45.9419738" lon="11.6108971"><ele>1315.0</ele><time>2026-04-26T12:38:12.454Z</time></trkpt><trkpt lat="45.942037" lon="11.6110408"><ele>1315.0</ele><time>2026-04-26T12:38:14.454Z</time></trkpt><trkpt lat="45.9420639" lon="11.6111269"><ele>1315.0</ele><time>2026-04-26T12:38:15.455Z</time></trkpt><trkpt lat="45.9420856" lon="11.6112206"><ele>1315.0</ele><time>2026-04-26T12:38:16.455Z</time></trkpt><trkpt lat="45.9421313" lon="11.6113677"><ele>1315.0</ele><time>2026-04-26T12:38:18.454Z</time></trkpt><trkpt lat="45.9421648" lon="11.6114507"><ele>1315.0</ele><time>2026-04-26T12:38:20.455Z</time></trkpt><trkpt lat="45.9422186" lon="11.6115045"><ele>1315.0</ele><time>2026-04-26T12:38:25.454Z</time></trkpt><trkpt lat="45.9423065" lon="11.6115105"><ele>1315.0</ele><time>2026-04-26T12:38:27.454Z</time></trkpt><trkpt lat="45.9423715" lon="11.611504"><ele>1315.0</ele><time>2026-04-26T12:38:28.454Z</time></trkpt><trkpt lat="45.9424343" lon="11.6114931"><ele>1315.0</ele><time>2026-04-26T12:38:29.455Z</time></trkpt><trkpt lat="45.9425084" lon="11.6115021"><ele>1315.0</ele><time>2026-04-26T12:38:30.454Z</time></trkpt><trkpt lat="45.9425752" lon="11.6115303"><ele>1315.0</ele><time>2026-04-26T12:38:31.455Z</time></trkpt><trkpt lat="45.9426452" lon="11.6115645"><ele>1315.0</ele><time>2026-04-26T12:38:32.454Z</time></trkpt><trkpt lat="45.9427155" lon="11.6116136"><ele>1315.0</ele><time>2026-04-26T12:38:33.454Z</time></trkpt><trkpt lat="45.9427783" lon="11.6116841"><ele>1315.0</ele><time>2026-04-26T12:38:34.455Z</time></trkpt><trkpt lat="45.9428418" lon="11.6117687"><ele>1315.1666666666665</ele><time>2026-04-26T12:38:35.454Z</time></trkpt><trkpt lat="45.9428979" lon="11.6118659"><ele>1315.3333333333333</ele><time>2026-04-26T12:38:36.454Z</time></trkpt><trkpt lat="45.9429451" lon="11.611979"><ele>1315.5</ele><time>2026-04-26T12:38:37.454Z</time></trkpt><trkpt lat="45.9429771" lon="11.6121029"><ele>1315.6666666666667</ele><time>2026-04-26T12:38:38.454Z</time></trkpt><trkpt lat="45.9429983" lon="11.6122308"><ele>1315.8333333333335</ele><time>2026-04-26T12:38:39.454Z</time></trkpt><trkpt lat="45.9430082" lon="11.6123525"><ele>1316.0</ele><time>2026-04-26T12:38:40.454Z</time></trkpt><trkpt lat="45.9430309" lon="11.6124494"><ele>1316.0</ele><time>2026-04-26T12:38:41.454Z</time></trkpt><trkpt lat="45.9431151" lon="11.612564"><ele>1316.0</ele><time>2026-04-26T12:38:43.454Z</time></trkpt><trkpt lat="45.9431767" lon="11.612595"><ele>1316.0</ele><time>2026-04-26T12:38:44.455Z</time></trkpt><trkpt lat="45.943247" lon="11.6126005"><ele>1316.0</ele><time>2026-04-26T12:38:45.454Z</time></trkpt><trkpt lat="45.9433411" lon="11.6126004"><ele>1316.0</ele><time>2026-04-26T12:38:46.454Z</time></trkpt><trkpt lat="45.9434422" lon="11.6126031"><ele>1316.0</ele><time>2026-04-26T12:38:47.454Z</time></trkpt><trkpt lat="45.9435523" lon="11.61263"><ele>1316.4</ele><time>2026-04-26T12:38:48.455Z</time></trkpt><trkpt lat="45.9436592" lon="11.6126468"><ele>1316.8</ele><time>2026-04-26T12:38:49.455Z</time></trkpt><trkpt lat="45.9437646" lon="11.6126483"><ele>1317.2</ele><time>2026-04-26T12:38:50.454Z</time></trkpt><trkpt lat="45.9438591" lon="11.6126231"><ele>1317.6000000000001</ele><time>2026-04-26T12:38:51.454Z</time></trkpt><trkpt lat="45.9439482" lon="11.6125648"><ele>1318.0</ele><time>2026-04-26T12:38:52.455Z</time></trkpt><trkpt lat="45.9440157" lon="11.6124615"><ele>1318.0</ele><time>2026-04-26T12:38:53.454Z</time></trkpt><trkpt lat="45.9440727" lon="11.6123554"><ele>1318.0</ele><time>2026-04-26T12:38:54.454Z</time></trkpt><trkpt lat="45.9441183" lon="11.6122271"><ele>1318.0</ele><time>2026-04-26T12:38:55.454Z</time></trkpt><trkpt lat="45.944173" lon="11.6121081"><ele>1318.0</ele><time>2026-04-26T12:38:56.454Z</time></trkpt><trkpt lat="45.9442355" lon="11.6119937"><ele>1318.0</ele><time>2026-04-26T12:38:57.454Z</time></trkpt><trkpt lat="45.9443174" lon="11.6118906"><ele>1318.0</ele><time>2026-04-26T12:38:58.454Z</time></trkpt><trkpt lat="45.9444047" lon="11.611802"><ele>1318.0</ele><time>2026-04-26T12:38:59.454Z</time></trkpt><trkpt lat="45.9444858" lon="11.6117073"><ele>1318.0</ele><time>2026-04-26T12:39:00.455Z</time></trkpt><trkpt lat="45.9445478" lon="11.6116188"><ele>1318.0</ele><time>2026-04-26T12:39:01.455Z</time></trkpt><trkpt lat="45.9446029" lon="11.6115387"><ele>1318.0</ele><time>2026-04-26T12:39:02.455Z</time></trkpt><trkpt lat="45.9446502" lon="11.6114474"><ele>1318.0</ele><time>2026-04-26T12:39:03.455Z</time></trkpt><trkpt lat="45.9447" lon="11.6113112"><ele>1318.0</ele><time>2026-04-26T12:39:05.454Z</time></trkpt><trkpt lat="45.9447331" lon="11.6112014"><ele>1318.0</ele><time>2026-04-26T12:39:08.454Z</time></trkpt><trkpt lat="45.9447663" lon="11.6111191"><ele>1318.0</ele><time>2026-04-26T12:39:11.454Z</time></trkpt><trkpt lat="45.9448398" lon="11.6110046"><ele>1318.0</ele><time>2026-04-26T12:40:38.454Z</time></trkpt><trkpt lat="45.9449201" lon="11.6108491"><ele>1318.0</ele><time>2026-04-26T12:40:40.455Z</time></trkpt><trkpt lat="45.9449656" lon="11.610754"><ele>1318.0</ele><time>2026-04-26T12:40:41.454Z</time></trkpt><trkpt lat="45.9450191" lon="11.6106583"><ele>1318.0</ele><time>2026-04-26T12:40:42.455Z</time></trkpt><trkpt lat="45.945079" lon="11.6105569"><ele>1318.0</ele><time>2026-04-26T12:40:43.454Z</time></trkpt><trkpt lat="45.9451347" lon="11.6104553"><ele>1318.0</ele><time>2026-04-26T12:40:44.454Z</time></trkpt><trkpt lat="45.9451938" lon="11.610351"><ele>1318.0</ele><time>2026-04-26T12:40:45.454Z</time></trkpt><trkpt lat="45.9452625" lon="11.6102404"><ele>1318.0</ele><time>2026-04-26T12:40:46.454Z</time></trkpt><trkpt lat="45.9453251" lon="11.6101434"><ele>1318.0</ele><time>2026-04-26T12:40:47.455Z</time></trkpt><trkpt lat="45.9453791" lon="11.6100456"><ele>1318.0</ele><time>2026-04-26T12:40:48.455Z</time></trkpt><trkpt lat="45.9454346" lon="11.609953"><ele>1318.0</ele><time>2026-04-26T12:40:49.454Z</time></trkpt><trkpt lat="45.9454922" lon="11.6098539"><ele>1318.0</ele><time>2026-04-26T12:40:50.454Z</time></trkpt><trkpt lat="45.9455486" lon="11.6097366"><ele>1318.0</ele><time>2026-04-26T12:40:51.455Z</time></trkpt><trkpt lat="45.9455977" lon="11.609608"><ele>1318.0</ele><time>2026-04-26T12:40:52.454Z</time></trkpt><trkpt lat="45.9456454" lon="11.6094731"><ele>1318.0</ele><time>2026-04-26T12:40:53.454Z</time></trkpt><trkpt lat="45.9456981" lon="11.6093474"><ele>1318.0</ele><time>2026-04-26T12:40:54.454Z</time></trkpt><trkpt lat="45.9457521" lon="11.6092217"><ele>1318.0</ele><time>2026-04-26T12:40:55.454Z</time></trkpt><trkpt lat="45.9458231" lon="11.6090984"><ele>1317.8000000000002</ele><time>2026-04-26T12:40:56.455Z</time></trkpt><trkpt lat="45.9459138" lon="11.6089979"><ele>1317.6</ele><time>2026-04-26T12:40:57.454Z</time></trkpt><trkpt lat="45.946005" lon="11.6088994"><ele>1317.4</ele><time>2026-04-26T12:40:58.455Z</time></trkpt><trkpt lat="45.9460889" lon="11.6088082"><ele>1317.1999999999998</ele><time>2026-04-26T12:40:59.454Z</time></trkpt><trkpt lat="45.9461746" lon="11.6087251"><ele>1317.0</ele><time>2026-04-26T12:41:00.454Z</time></trkpt><trkpt lat="45.9462646" lon="11.6086344"><ele>1317.0</ele><time>2026-04-26T12:41:01.454Z</time></trkpt><trkpt lat="45.9463631" lon="11.6085505"><ele>1317.0</ele><time>2026-04-26T12:41:02.454Z</time></trkpt><trkpt lat="45.9464491" lon="11.6085049"><ele>1317.0</ele><time>2026-04-26T12:41:03.454Z</time></trkpt><trkpt lat="45.9465402" lon="11.6084882"><ele>1317.0</ele><time>2026-04-26T12:41:04.454Z</time></trkpt><trkpt lat="45.9466344" lon="11.6085022"><ele>1317.0</ele><time>2026-04-26T12:41:05.454Z</time></trkpt><trkpt lat="45.9467227" lon="11.6085307"><ele>1317.0</ele><time>2026-04-26T12:41:06.454Z</time></trkpt><trkpt lat="45.9468042" lon="11.6085727"><ele>1317.0</ele><time>2026-04-26T12:41:07.454Z</time></trkpt><trkpt lat="45.9468801" lon="11.608619"><ele>1317.0</ele><time>2026-04-26T12:41:08.454Z</time></trkpt><trkpt lat="45.9469648" lon="11.6086707"><ele>1317.0</ele><time>2026-04-26T12:41:09.454Z</time></trkpt><trkpt lat="45.9470528" lon="11.6087097"><ele>1317.0</ele><time>2026-04-26T12:41:10.454Z</time></trkpt><trkpt lat="45.9471446" lon="11.6087365"><ele>1317.0</ele><time>2026-04-26T12:41:11.455Z</time></trkpt><trkpt lat="45.9472379" lon="11.6087509"><ele>1317.1999999999998</ele><time>2026-04-26T12:41:12.454Z</time></trkpt><trkpt lat="45.9473456" lon="11.6087842"><ele>1317.4</ele><time>2026-04-26T12:41:13.454Z</time></trkpt><trkpt lat="45.9474485" lon="11.6088307"><ele>1317.6</ele><time>2026-04-26T12:41:14.454Z</time></trkpt><trkpt lat="45.9475581" lon="11.608881"><ele>1317.8000000000002</ele><time>2026-04-26T12:41:15.454Z</time></trkpt><trkpt lat="45.947662" lon="11.608932"><ele>1318.0</ele><time>2026-04-26T12:41:16.454Z</time></trkpt><trkpt lat="45.9477682" lon="11.6089737"><ele>1318.0</ele><time>2026-04-26T12:41:17.455Z</time></trkpt><trkpt lat="45.9478589" lon="11.6089968"><ele>1318.0</ele><time>2026-04-26T12:41:18.454Z</time></trkpt><trkpt lat="45.947964" lon="11.6089873"><ele>1318.0</ele><time>2026-04-26T12:41:19.454Z</time></trkpt><trkpt lat="45.9480715" lon="11.6089593"><ele>1318.0</ele><time>2026-04-26T12:41:20.454Z</time></trkpt><trkpt lat="45.9481859" lon="11.6089346"><ele>1318.0</ele><time>2026-04-26T12:41:21.455Z</time></trkpt><trkpt lat="45.948298" lon="11.6089"><ele>1318.0</ele><time>2026-04-26T12:41:22.454Z</time></trkpt><trkpt lat="45.9483941" lon="11.6088591"><ele>1318.0</ele><time>2026-04-26T12:41:23.454Z</time></trkpt><trkpt lat="45.9484862" lon="11.6088016"><ele>1318.0</ele><time>2026-04-26T12:41:24.455Z</time></trkpt><trkpt lat="45.948575" lon="11.6087113"><ele>1318.0</ele><time>2026-04-26T12:41:25.455Z</time></trkpt><trkpt lat="45.9486523" lon="11.6086131"><ele>1318.0</ele><time>2026-04-26T12:41:26.455Z</time></trkpt><trkpt lat="45.9487099" lon="11.6084914"><ele>1318.0</ele><time>2026-04-26T12:41:27.455Z</time></trkpt><trkpt lat="45.9487691" lon="11.608375"><ele>1318.0</ele><time>2026-04-26T12:41:28.454Z</time></trkpt><trkpt lat="45.9488248" lon="11.6082516"><ele>1318.0</ele><time>2026-04-26T12:41:29.455Z</time></trkpt><trkpt lat="45.9488642" lon="11.6081339"><ele>1318.0</ele><time>2026-04-26T12:41:30.454Z</time></trkpt><trkpt lat="45.9489236" lon="11.6080068"><ele>1318.0</ele><time>2026-04-26T12:41:31.455Z</time></trkpt><trkpt lat="45.948976" lon="11.6078778"><ele>1318.4</ele><time>2026-04-26T12:41:32.454Z</time></trkpt><trkpt lat="45.9490306" lon="11.6077529"><ele>1318.8000000000002</ele><time>2026-04-26T12:41:33.454Z</time></trkpt><trkpt lat="45.9490888" lon="11.6076267"><ele>1319.2</ele><time>2026-04-26T12:41:34.454Z</time></trkpt><trkpt lat="45.9491403" lon="11.6075194"><ele>1319.6</ele><time>2026-04-26T12:41:35.454Z</time></trkpt><trkpt lat="45.9491915" lon="11.6074055"><ele>1320.0</ele><time>2026-04-26T12:41:36.454Z</time></trkpt><trkpt lat="45.9492436" lon="11.6072912"><ele>1320.0</ele><time>2026-04-26T12:41:37.455Z</time></trkpt><trkpt lat="45.9492963" lon="11.6071712"><ele>1320.0</ele><time>2026-04-26T12:41:38.454Z</time></trkpt><trkpt lat="45.9493465" lon="11.6070537"><ele>1320.0</ele><time>2026-04-26T12:41:39.454Z</time></trkpt><trkpt lat="45.9493964" lon="11.6069419"><ele>1320.0</ele><time>2026-04-26T12:41:40.454Z</time></trkpt><trkpt lat="45.9494507" lon="11.6068149"><ele>1320.0</ele><time>2026-04-26T12:41:41.454Z</time></trkpt><trkpt lat="45.9494995" lon="11.6066908"><ele>1320.0</ele><time>2026-04-26T12:41:42.455Z</time></trkpt><trkpt lat="45.9495485" lon="11.606576"><ele>1320.0</ele><time>2026-04-26T12:41:43.454Z</time></trkpt><trkpt lat="45.9495981" lon="11.6064716"><ele>1320.0</ele><time>2026-04-26T12:41:44.454Z</time></trkpt><trkpt lat="45.9496467" lon="11.6063817"><ele>1320.0</ele><time>2026-04-26T12:41:45.455Z</time></trkpt><trkpt lat="45.9496899" lon="11.6063042"><ele>1320.0</ele><time>2026-04-26T12:41:46.455Z</time></trkpt><trkpt lat="45.9497895" lon="11.6062387"><ele>1320.0</ele><time>2026-04-26T12:41:48.454Z</time></trkpt><trkpt lat="45.9498481" lon="11.6062733"><ele>1320.0</ele><time>2026-04-26T12:41:49.454Z</time></trkpt><trkpt lat="45.9499063" lon="11.606326"><ele>1320.0</ele><time>2026-04-26T12:41:50.454Z</time></trkpt><trkpt lat="45.949967" lon="11.6064183"><ele>1320.0</ele><time>2026-04-26T12:41:51.455Z</time></trkpt><trkpt lat="45.9500315" lon="11.6065448"><ele>1320.0</ele><time>2026-04-26T12:41:52.454Z</time></trkpt><trkpt lat="45.9500906" lon="11.6066866"><ele>1320.0</ele><time>2026-04-26T12:41:53.454Z</time></trkpt><trkpt lat="45.950158" lon="11.6068449"><ele>1319.5</ele><time>2026-04-26T12:41:54.455Z</time></trkpt><trkpt lat="45.950236" lon="11.6070224"><ele>1319.0</ele><time>2026-04-26T12:41:55.454Z</time></trkpt><trkpt lat="45.9503267" lon="11.6072011"><ele>1318.5</ele><time>2026-04-26T12:41:56.455Z</time></trkpt><trkpt lat="45.9504139" lon="11.6073682"><ele>1318.0</ele><time>2026-04-26T12:41:57.454Z</time></trkpt><trkpt lat="45.9505019" lon="11.6075306"><ele>1318.0</ele><time>2026-04-26T12:41:58.454Z</time></trkpt><trkpt lat="45.9505919" lon="11.6076734"><ele>1318.0</ele><time>2026-04-26T12:41:59.454Z</time></trkpt><trkpt lat="45.9506824" lon="11.6077884"><ele>1318.0</ele><time>2026-04-26T12:42:00.454Z</time></trkpt><trkpt lat="45.9507802" lon="11.6078829"><ele>1318.0</ele><time>2026-04-26T12:42:01.454Z</time></trkpt><trkpt lat="45.950888" lon="11.6079588"><ele>1317.5</ele><time>2026-04-26T12:42:02.454Z</time></trkpt><trkpt lat="45.9510063" lon="11.6080193"><ele>1317.0</ele><time>2026-04-26T12:42:03.455Z</time></trkpt><trkpt lat="45.9511314" lon="11.6080578"><ele>1316.5</ele><time>2026-04-26T12:42:04.454Z</time></trkpt><trkpt lat="45.9512547" lon="11.6080856"><ele>1316.0</ele><time>2026-04-26T12:42:05.454Z</time></trkpt><trkpt lat="45.9513807" lon="11.6081029"><ele>1316.0</ele><time>2026-04-26T12:42:06.454Z</time></trkpt><trkpt lat="45.9515017" lon="11.6081216"><ele>1316.0</ele><time>2026-04-26T12:42:07.454Z</time></trkpt><trkpt lat="45.9516181" lon="11.6081302"><ele>1316.0</ele><time>2026-04-26T12:42:08.454Z</time></trkpt><trkpt lat="45.951719" lon="11.6081575"><ele>1316.0</ele><time>2026-04-26T12:42:09.454Z</time></trkpt><trkpt lat="45.9518103" lon="11.6081867"><ele>1316.0</ele><time>2026-04-26T12:42:10.454Z</time></trkpt><trkpt lat="45.9518887" lon="11.6082403"><ele>1316.4</ele><time>2026-04-26T12:42:11.454Z</time></trkpt><trkpt lat="45.951965" lon="11.608302"><ele>1316.8</ele><time>2026-04-26T12:42:12.454Z</time></trkpt><trkpt lat="45.9520405" lon="11.6083532"><ele>1317.2</ele><time>2026-04-26T12:42:13.454Z</time></trkpt><trkpt lat="45.9521424" lon="11.608381"><ele>1317.6000000000001</ele><time>2026-04-26T12:42:14.455Z</time></trkpt><trkpt lat="45.9522404" lon="11.6084019"><ele>1318.0</ele><time>2026-04-26T12:42:15.454Z</time></trkpt><trkpt lat="45.9523426" lon="11.6084299"><ele>1318.0</ele><time>2026-04-26T12:42:16.455Z</time></trkpt><trkpt lat="45.9524337" lon="11.60847"><ele>1318.0</ele><time>2026-04-26T12:42:17.455Z</time></trkpt><trkpt lat="45.9525122" lon="11.6085298"><ele>1318.0</ele><time>2026-04-26T12:42:18.454Z</time></trkpt><trkpt lat="45.9525827" lon="11.6086134"><ele>1318.0</ele><time>2026-04-26T12:42:19.454Z</time></trkpt><trkpt lat="45.9526512" lon="11.6087132"><ele>1318.0</ele><time>2026-04-26T12:42:20.455Z</time></trkpt><trkpt lat="45.9527312" lon="11.6088227"><ele>1318.6000000000001</ele><time>2026-04-26T12:42:21.455Z</time></trkpt><trkpt lat="45.9528081" lon="11.608915"><ele>1319.2</ele><time>2026-04-26T12:42:22.454Z</time></trkpt><trkpt lat="45.9529039" lon="11.6089802"><ele>1319.8</ele><time>2026-04-26T12:42:23.454Z</time></trkpt><trkpt lat="45.9529959" lon="11.6090346"><ele>1320.4</ele><time>2026-04-26T12:42:24.455Z</time></trkpt><trkpt lat="45.9530822" lon="11.6090841"><ele>1321.0</ele><time>2026-04-26T12:42:25.455Z</time></trkpt><trkpt lat="45.9531501" lon="11.6091475"><ele>1321.0</ele><time>2026-04-26T12:42:26.455Z</time></trkpt><trkpt lat="45.9532038" lon="11.6092251"><ele>1321.0</ele><time>2026-04-26T12:42:27.455Z</time></trkpt><trkpt lat="45.9532481" lon="11.6093154"><ele>1321.0</ele><time>2026-04-26T12:42:28.455Z</time></trkpt><trkpt lat="45.9533045" lon="11.6093882"><ele>1321.0</ele><time>2026-04-26T12:42:29.454Z</time></trkpt><trkpt lat="45.9533584" lon="11.6094491"><ele>1321.0</ele><time>2026-04-26T12:42:30.454Z</time></trkpt><trkpt lat="45.9534201" lon="11.6094931"><ele>1321.0</ele><time>2026-04-26T12:42:31.454Z</time></trkpt><trkpt lat="45.9534913" lon="11.609514"><ele>1321.0</ele><time>2026-04-26T12:42:32.454Z</time></trkpt><trkpt lat="45.9535735" lon="11.6095156"><ele>1321.4</ele><time>2026-04-26T12:42:33.454Z</time></trkpt><trkpt lat="45.9536553" lon="11.6094994"><ele>1321.8</ele><time>2026-04-26T12:42:34.454Z</time></trkpt><trkpt lat="45.9537424" lon="11.6094736"><ele>1322.2</ele><time>2026-04-26T12:42:35.454Z</time></trkpt><trkpt lat="45.9538371" lon="11.6094558"><ele>1322.6000000000001</ele><time>2026-04-26T12:42:36.455Z</time></trkpt><trkpt lat="45.9539448" lon="11.6094342"><ele>1323.0</ele><time>2026-04-26T12:42:37.454Z</time></trkpt><trkpt lat="45.9540478" lon="11.6094303"><ele>1323.5</ele><time>2026-04-26T12:42:38.454Z</time></trkpt><trkpt lat="45.954174" lon="11.6094257"><ele>1324.0</ele><time>2026-04-26T12:42:39.454Z</time></trkpt><trkpt lat="45.9543145" lon="11.6094029"><ele>1324.5</ele><time>2026-04-26T12:42:40.454Z</time></trkpt><trkpt lat="45.9544443" lon="11.6093801"><ele>1325.0</ele><time>2026-04-26T12:42:41.455Z</time></trkpt><trkpt lat="45.9545708" lon="11.6093774"><ele>1325.75</ele><time>2026-04-26T12:42:42.454Z</time></trkpt><trkpt lat="45.9546946" lon="11.6093924"><ele>1326.5</ele><time>2026-04-26T12:42:43.455Z</time></trkpt><trkpt lat="45.9548105" lon="11.6094378"><ele>1327.25</ele><time>2026-04-26T12:42:44.454Z</time></trkpt><trkpt lat="45.9549426" lon="11.6095133"><ele>1328.0</ele><time>2026-04-26T12:42:45.454Z</time></trkpt><trkpt lat="45.955084" lon="11.6095781"><ele>1329.75</ele><time>2026-04-26T12:42:46.454Z</time></trkpt><trkpt lat="45.9552371" lon="11.6096438"><ele>1331.5</ele><time>2026-04-26T12:42:47.454Z</time></trkpt><trkpt lat="45.9553682" lon="11.6097051"><ele>1333.25</ele><time>2026-04-26T12:42:48.454Z</time></trkpt><trkpt lat="45.9554958" lon="11.6097675"><ele>1335.0</ele><time>2026-04-26T12:42:49.455Z</time></trkpt><trkpt lat="45.9556038" lon="11.6098376"><ele>1335.0</ele><time>2026-04-26T12:42:50.455Z</time></trkpt><trkpt lat="45.9556959" lon="11.6098876"><ele>1335.0</ele><time>2026-04-26T12:42:51.454Z</time></trkpt><trkpt lat="45.9557718" lon="11.6099058"><ele>1335.0</ele><time>2026-04-26T12:42:52.454Z</time></trkpt><trkpt lat="45.9558493" lon="11.6098787"><ele>1335.0</ele><time>2026-04-26T12:42:53.455Z</time></trkpt><trkpt lat="45.9559265" lon="11.6098238"><ele>1335.0</ele><time>2026-04-26T12:42:54.454Z</time></trkpt><trkpt lat="45.9560019" lon="11.6097502"><ele>1335.0</ele><time>2026-04-26T12:42:55.454Z</time></trkpt><trkpt lat="45.9560758" lon="11.609724"><ele>1335.6</ele><time>2026-04-26T12:42:56.454Z</time></trkpt><trkpt lat="45.9561627" lon="11.6097113"><ele>1336.2</ele><time>2026-04-26T12:42:57.454Z</time></trkpt><trkpt lat="45.9562493" lon="11.6097294"><ele>1336.8000000000002</ele><time>2026-04-26T12:42:58.454Z</time></trkpt><trkpt lat="45.9563423" lon="11.6097787"><ele>1337.4</ele><time>2026-04-26T12:42:59.454Z</time></trkpt><trkpt lat="45.9564289" lon="11.6098507"><ele>1338.0</ele><time>2026-04-26T12:43:00.455Z</time></trkpt><trkpt lat="45.956531" lon="11.6099143"><ele>1338.0</ele><time>2026-04-26T12:43:01.454Z</time></trkpt><trkpt lat="45.9566396" lon="11.6099418"><ele>1338.0</ele><time>2026-04-26T12:43:02.454Z</time></trkpt><trkpt lat="45.9567686" lon="11.6099644"><ele>1338.0</ele><time>2026-04-26T12:43:03.454Z</time></trkpt><trkpt lat="45.9568983" lon="11.6099722"><ele>1338.0</ele><time>2026-04-26T12:43:04.454Z</time></trkpt><trkpt lat="45.9570215" lon="11.6099873"><ele>1338.5</ele><time>2026-04-26T12:43:05.454Z</time></trkpt><trkpt lat="45.9571435" lon="11.6100052"><ele>1339.0</ele><time>2026-04-26T12:43:06.454Z</time></trkpt><trkpt lat="45.9572719" lon="11.6100336"><ele>1339.5</ele><time>2026-04-26T12:43:07.454Z</time></trkpt><trkpt lat="45.9574212" lon="11.6100466"><ele>1340.0</ele><time>2026-04-26T12:43:08.454Z</time></trkpt><trkpt lat="45.957562" lon="11.6100254"><ele>1341.6666666666667</ele><time>2026-04-26T12:43:09.454Z</time></trkpt><trkpt lat="45.9577161" lon="11.6099951"><ele>1343.3333333333333</ele><time>2026-04-26T12:43:10.455Z</time></trkpt><trkpt lat="45.9578719" lon="11.6099537"><ele>1345.0</ele><time>2026-04-26T12:43:11.454Z</time></trkpt><trkpt lat="45.9580443" lon="11.6099072"><ele>1345.0</ele><time>2026-04-26T12:43:12.455Z</time></trkpt><trkpt lat="45.9581937" lon="11.6098702"><ele>1345.0</ele><time>2026-04-26T12:43:13.454Z</time></trkpt><trkpt lat="45.9583433" lon="11.6098209"><ele>1345.0</ele><time>2026-04-26T12:43:14.454Z</time></trkpt><trkpt lat="45.9584778" lon="11.6097724"><ele>1345.0</ele><time>2026-04-26T12:43:15.454Z</time></trkpt><trkpt lat="45.9586021" lon="11.6097272"><ele>1346.6</ele><time>2026-04-26T12:43:16.455Z</time></trkpt><trkpt lat="45.958714" lon="11.6096911"><ele>1348.2</ele><time>2026-04-26T12:43:17.454Z</time></trkpt><trkpt lat="45.958813" lon="11.6096435"><ele>1349.8000000000002</ele><time>2026-04-26T12:43:18.454Z</time></trkpt><trkpt lat="45.9589021" lon="11.6095783"><ele>1351.4</ele><time>2026-04-26T12:43:19.454Z</time></trkpt><trkpt lat="45.9589939" lon="11.6095108"><ele>1353.0</ele><time>2026-04-26T12:43:20.454Z</time></trkpt><trkpt lat="45.9590793" lon="11.6094577"><ele>1353.0</ele><time>2026-04-26T12:43:21.454Z</time></trkpt><trkpt lat="45.9591811" lon="11.6094304"><ele>1353.0</ele><time>2026-04-26T12:43:22.454Z</time></trkpt><trkpt lat="45.9592975" lon="11.6094035"><ele>1353.0</ele><time>2026-04-26T12:43:23.455Z</time></trkpt><trkpt lat="45.9593977" lon="11.6093538"><ele>1353.0</ele><time>2026-04-26T12:43:24.454Z</time></trkpt><trkpt lat="45.9594871" lon="11.6092808"><ele>1353.0</ele><time>2026-04-26T12:43:25.455Z</time></trkpt><trkpt lat="45.9595792" lon="11.6091888"><ele>1352.8000000000002</ele><time>2026-04-26T12:43:26.454Z</time></trkpt><trkpt lat="45.9596666" lon="11.6090812"><ele>1352.6</ele><time>2026-04-26T12:43:27.454Z</time></trkpt><trkpt lat="45.9597537" lon="11.6090034"><ele>1352.4</ele><time>2026-04-26T12:43:28.455Z</time></trkpt><trkpt lat="45.95984" lon="11.6089668"><ele>1352.1999999999998</ele><time>2026-04-26T12:43:29.455Z</time></trkpt><trkpt lat="45.9599389" lon="11.6089429"><ele>1352.0</ele><time>2026-04-26T12:43:30.455Z</time></trkpt><trkpt lat="45.960055" lon="11.6089318"><ele>1351.6</ele><time>2026-04-26T12:43:31.454Z</time></trkpt><trkpt lat="45.9601638" lon="11.6089169"><ele>1351.1999999999998</ele><time>2026-04-26T12:43:32.455Z</time></trkpt><trkpt lat="45.9602472" lon="11.6088877"><ele>1350.8</ele><time>2026-04-26T12:43:33.454Z</time></trkpt><trkpt lat="45.9603124" lon="11.6088476"><ele>1350.4</ele><time>2026-04-26T12:43:34.454Z</time></trkpt><trkpt lat="45.9604112" lon="11.60875"><ele>1350.0</ele><time>2026-04-26T12:43:36.454Z</time></trkpt><trkpt lat="45.9604977" lon="11.6086861"><ele>1350.0</ele><time>2026-04-26T12:43:38.455Z</time></trkpt><trkpt lat="45.960562" lon="11.6086323"><ele>1350.0</ele><time>2026-04-26T12:43:41.454Z</time></trkpt><trkpt lat="45.9606101" lon="11.6085701"><ele>1350.0</ele><time>2026-04-26T12:43:44.454Z</time></trkpt><trkpt lat="45.9606871" lon="11.6085201"><ele>1350.0</ele><time>2026-04-26T12:43:46.454Z</time></trkpt><trkpt lat="45.9608043" lon="11.6084751"><ele>1350.0</ele><time>2026-04-26T12:43:48.454Z</time></trkpt><trkpt lat="45.9608741" lon="11.608443"><ele>1350.0</ele><time>2026-04-26T12:43:49.454Z</time></trkpt><trkpt lat="45.9609552" lon="11.6083806"><ele>1349.75</ele><time>2026-04-26T12:43:50.454Z</time></trkpt><trkpt lat="45.961049" lon="11.6082951"><ele>1349.5</ele><time>2026-04-26T12:43:51.455Z</time></trkpt><trkpt lat="45.9611423" lon="11.6081935"><ele>1349.25</ele><time>2026-04-26T12:43:52.454Z</time></trkpt><trkpt lat="45.9612512" lon="11.6080899"><ele>1349.0</ele><time>2026-04-26T12:43:53.454Z</time></trkpt><trkpt lat="45.9613748" lon="11.6079724"><ele>1349.0</ele><time>2026-04-26T12:43:54.454Z</time></trkpt><trkpt lat="45.9615045" lon="11.607856"><ele>1349.0</ele><time>2026-04-26T12:43:55.455Z</time></trkpt><trkpt lat="45.9616328" lon="11.6077628"><ele>1349.0</ele><time>2026-04-26T12:43:56.455Z</time></trkpt><trkpt lat="45.9617747" lon="11.6076798"><ele>1349.75</ele><time>2026-04-26T12:43:57.454Z</time></trkpt><trkpt lat="45.9619163" lon="11.6076123"><ele>1350.5</ele><time>2026-04-26T12:43:58.455Z</time></trkpt><trkpt lat="45.962039" lon="11.6075372"><ele>1351.25</ele><time>2026-04-26T12:43:59.454Z</time></trkpt><trkpt lat="45.9621578" lon="11.6074462"><ele>1352.0</ele><time>2026-04-26T12:44:00.454Z</time></trkpt><trkpt lat="45.9622914" lon="11.6073353"><ele>1352.0</ele><time>2026-04-26T12:44:01.455Z</time></trkpt><trkpt lat="45.9624178" lon="11.6072305"><ele>1352.0</ele><time>2026-04-26T12:44:02.454Z</time></trkpt><trkpt lat="45.9625425" lon="11.607156"><ele>1352.0</ele><time>2026-04-26T12:44:03.454Z</time></trkpt><trkpt lat="45.9626538" lon="11.6070771"><ele>1352.0</ele><time>2026-04-26T12:44:04.454Z</time></trkpt><trkpt lat="45.9627653" lon="11.6069869"><ele>1352.5</ele><time>2026-04-26T12:44:05.454Z</time></trkpt><trkpt lat="45.9628685" lon="11.6068782"><ele>1353.0</ele><time>2026-04-26T12:44:06.455Z</time></trkpt><trkpt lat="45.962967" lon="11.6067409"><ele>1353.5</ele><time>2026-04-26T12:44:07.454Z</time></trkpt><trkpt lat="45.9630691" lon="11.6065855"><ele>1354.0</ele><time>2026-04-26T12:44:08.454Z</time></trkpt><trkpt lat="45.9631853" lon="11.6064087"><ele>1354.0</ele><time>2026-04-26T12:44:09.454Z</time></trkpt><trkpt lat="45.9633057" lon="11.6062156"><ele>1354.0</ele><time>2026-04-26T12:44:10.454Z</time></trkpt><trkpt lat="45.9634109" lon="11.6060347"><ele>1354.0</ele><time>2026-04-26T12:44:11.454Z</time></trkpt><trkpt lat="45.9635021" lon="11.6058757"><ele>1355.0</ele><time>2026-04-26T12:44:12.455Z</time></trkpt><trkpt lat="45.9635874" lon="11.6057263"><ele>1356.0</ele><time>2026-04-26T12:44:13.454Z</time></trkpt><trkpt lat="45.9636574" lon="11.6056041"><ele>1357.0</ele><time>2026-04-26T12:44:14.454Z</time></trkpt><trkpt lat="45.9637107" lon="11.6055099"><ele>1358.0</ele><time>2026-04-26T12:44:15.454Z</time></trkpt><trkpt lat="45.9637404" lon="11.6054126"><ele>1359.0</ele><time>2026-04-26T12:44:16.454Z</time></trkpt><trkpt lat="45.9637414" lon="11.6052899"><ele>1359.3333333333333</ele><time>2026-04-26T12:44:17.454Z</time></trkpt><trkpt lat="45.963738" lon="11.6051458"><ele>1359.6666666666667</ele><time>2026-04-26T12:44:18.454Z</time></trkpt><trkpt lat="45.9637464" lon="11.60503"><ele>1360.0</ele><time>2026-04-26T12:44:19.455Z</time></trkpt><trkpt lat="45.9637824" lon="11.6049293"><ele>1360.3333333333335</ele><time>2026-04-26T12:44:20.454Z</time></trkpt><trkpt lat="45.9638389" lon="11.6048524"><ele>1360.6666666666667</ele><time>2026-04-26T12:44:21.455Z</time></trkpt><trkpt lat="45.9639132" lon="11.6048047"><ele>1361.0</ele><time>2026-04-26T12:44:22.454Z</time></trkpt><trkpt lat="45.964001" lon="11.6047757"><ele>1361.0</ele><time>2026-04-26T12:44:23.454Z</time></trkpt><trkpt lat="45.9640848" lon="11.6047332"><ele>1361.0</ele><time>2026-04-26T12:44:24.454Z</time></trkpt><trkpt lat="45.9641357" lon="11.6046725"><ele>1361.0</ele><time>2026-04-26T12:44:25.454Z</time></trkpt><trkpt lat="45.9641616" lon="11.6045895"><ele>1361.0</ele><time>2026-04-26T12:44:26.454Z</time></trkpt><trkpt lat="45.9641162" lon="11.6044608"><ele>1361.0</ele><time>2026-04-26T12:44:28.455Z</time></trkpt><trkpt lat="45.9640345" lon="11.6043081"><ele>1361.4</ele><time>2026-04-26T12:44:30.455Z</time></trkpt><trkpt lat="45.9639865" lon="11.6042114"><ele>1361.8</ele><time>2026-04-26T12:44:31.454Z</time></trkpt><trkpt lat="45.9639524" lon="11.6040971"><ele>1362.2</ele><time>2026-04-26T12:44:32.455Z</time></trkpt><trkpt lat="45.963911" lon="11.6039735"><ele>1362.6000000000001</ele><time>2026-04-26T12:44:33.454Z</time></trkpt><trkpt lat="45.9638647" lon="11.6038376"><ele>1363.0</ele><time>2026-04-26T12:44:34.454Z</time></trkpt><trkpt lat="45.9638351" lon="11.6036938"><ele>1362.75</ele><time>2026-04-26T12:44:35.455Z</time></trkpt><trkpt lat="45.9637899" lon="11.6035436"><ele>1362.5</ele><time>2026-04-26T12:44:36.454Z</time></trkpt><trkpt lat="45.96374" lon="11.6033855"><ele>1362.25</ele><time>2026-04-26T12:44:37.454Z</time></trkpt><trkpt lat="45.9636981" lon="11.6032379"><ele>1362.0</ele><time>2026-04-26T12:44:38.455Z</time></trkpt><trkpt lat="45.9636568" lon="11.6030921"><ele>1362.0</ele><time>2026-04-26T12:44:39.454Z</time></trkpt><trkpt lat="45.9636199" lon="11.6029517"><ele>1362.0</ele><time>2026-04-26T12:44:40.455Z</time></trkpt><trkpt lat="45.9636047" lon="11.6028051"><ele>1362.0</ele><time>2026-04-26T12:44:41.455Z</time></trkpt><trkpt lat="45.9636038" lon="11.6026584"><ele>1362.0</ele><time>2026-04-26T12:44:42.454Z</time></trkpt><trkpt lat="45.9636321" lon="11.6025023"><ele>1362.0</ele><time>2026-04-26T12:44:43.455Z</time></trkpt><trkpt lat="45.9636914" lon="11.6023414"><ele>1362.25</ele><time>2026-04-26T12:44:44.454Z</time></trkpt><trkpt lat="45.9637743" lon="11.602199"><ele>1362.5</ele><time>2026-04-26T12:44:45.454Z</time></trkpt><trkpt lat="45.9638556" lon="11.6020771"><ele>1362.75</ele><time>2026-04-26T12:44:46.454Z</time></trkpt><trkpt lat="45.9639319" lon="11.6019752"><ele>1363.0</ele><time>2026-04-26T12:44:47.454Z</time></trkpt><trkpt lat="45.9640038" lon="11.6018714"><ele>1363.0</ele><time>2026-04-26T12:44:48.454Z</time></trkpt><trkpt lat="45.9640645" lon="11.6017464"><ele>1363.0</ele><time>2026-04-26T12:44:49.454Z</time></trkpt><trkpt lat="45.9641014" lon="11.6015992"><ele>1363.0</ele><time>2026-04-26T12:44:50.454Z</time></trkpt><trkpt lat="45.9641136" lon="11.6014348"><ele>1363.0</ele><time>2026-04-26T12:44:51.455Z</time></trkpt><trkpt lat="45.9640958" lon="11.6012499"><ele>1363.75</ele><time>2026-04-26T12:44:52.454Z</time></trkpt><trkpt lat="45.9640616" lon="11.6010636"><ele>1364.5</ele><time>2026-04-26T12:44:53.454Z</time></trkpt><trkpt lat="45.9640228" lon="11.6008716"><ele>1365.25</ele><time>2026-04-26T12:44:54.455Z</time></trkpt><trkpt lat="45.9639845" lon="11.600678"><ele>1366.0</ele><time>2026-04-26T12:44:55.454Z</time></trkpt><trkpt lat="45.9639403" lon="11.6004659"><ele>1367.3333333333333</ele><time>2026-04-26T12:44:56.454Z</time></trkpt><trkpt lat="45.9638985" lon="11.6002546"><ele>1368.6666666666667</ele><time>2026-04-26T12:44:57.455Z</time></trkpt><trkpt lat="45.9638531" lon="11.6000426"><ele>1370.0</ele><time>2026-04-26T12:44:58.454Z</time></trkpt><trkpt lat="45.9638112" lon="11.599824"><ele>1370.0</ele><time>2026-04-26T12:44:59.454Z</time></trkpt><trkpt lat="45.9637639" lon="11.5995956"><ele>1370.0</ele><time>2026-04-26T12:45:00.454Z</time></trkpt><trkpt lat="45.9637152" lon="11.5993795"><ele>1370.0</ele><time>2026-04-26T12:45:01.454Z</time></trkpt><trkpt lat="45.9636414" lon="11.5991936"><ele>1370.0</ele><time>2026-04-26T12:45:02.455Z</time></trkpt><trkpt lat="45.9635389" lon="11.5990392"><ele>1370.0</ele><time>2026-04-26T12:45:03.454Z</time></trkpt><trkpt lat="45.9634138" lon="11.5989062"><ele>1370.0</ele><time>2026-04-26T12:45:04.455Z</time></trkpt><trkpt lat="45.963294" lon="11.5987671"><ele>1368.3333333333335</ele><time>2026-04-26T12:45:05.455Z</time></trkpt><trkpt lat="45.9631794" lon="11.5986091"><ele>1366.6666666666667</ele><time>2026-04-26T12:45:06.454Z</time></trkpt><trkpt lat="45.9630689" lon="11.5984428"><ele>1365.0</ele><time>2026-04-26T12:45:07.454Z</time></trkpt><trkpt lat="45.9629624" lon="11.5982703"><ele>1365.0</ele><time>2026-04-26T12:45:08.454Z</time></trkpt><trkpt lat="45.9628609" lon="11.5980923"><ele>1365.0</ele><time>2026-04-26T12:45:09.454Z</time></trkpt><trkpt lat="45.9627466" lon="11.5979117"><ele>1365.0</ele><time>2026-04-26T12:45:10.454Z</time></trkpt><trkpt lat="45.9626286" lon="11.597742"><ele>1365.0</ele><time>2026-04-26T12:45:11.454Z</time></trkpt><trkpt lat="45.9625024" lon="11.5975824"><ele>1365.0</ele><time>2026-04-26T12:45:12.454Z</time></trkpt><trkpt lat="45.962368" lon="11.5974484"><ele>1365.0</ele><time>2026-04-26T12:45:13.454Z</time></trkpt><trkpt lat="45.9622275" lon="11.5973278"><ele>1365.0</ele><time>2026-04-26T12:45:14.454Z</time></trkpt><trkpt lat="45.9621056" lon="11.5972191"><ele>1365.0</ele><time>2026-04-26T12:45:15.454Z</time></trkpt><trkpt lat="45.9620036" lon="11.5971026"><ele>1365.0</ele><time>2026-04-26T12:45:16.454Z</time></trkpt><trkpt lat="45.9619303" lon="11.5969764"><ele>1365.0</ele><time>2026-04-26T12:45:17.454Z</time></trkpt><trkpt lat="45.9618773" lon="11.5968537"><ele>1365.8333333333333</ele><time>2026-04-26T12:45:18.454Z</time></trkpt><trkpt lat="45.9618418" lon="11.5967412"><ele>1366.6666666666667</ele><time>2026-04-26T12:45:19.454Z</time></trkpt><trkpt lat="45.9618126" lon="11.5966503"><ele>1367.5</ele><time>2026-04-26T12:45:20.454Z</time></trkpt><trkpt lat="45.9618035" lon="11.5965261"><ele>1368.3333333333335</ele><time>2026-04-26T12:45:22.455Z</time></trkpt><trkpt lat="45.9618588" lon="11.5964196"><ele>1369.1666666666667</ele><time>2026-04-26T12:45:25.454Z</time></trkpt><trkpt lat="45.9619529" lon="11.5964221"><ele>1370.0</ele><time>2026-04-26T12:45:27.454Z</time></trkpt><trkpt lat="45.9620774" lon="11.596441"><ele>1370.0</ele><time>2026-04-26T12:45:29.455Z</time></trkpt><trkpt lat="45.9621455" lon="11.5964267"><ele>1370.0</ele><time>2026-04-26T12:45:30.454Z</time></trkpt><trkpt lat="45.9622193" lon="11.5963845"><ele>1370.0</ele><time>2026-04-26T12:45:31.455Z</time></trkpt><trkpt lat="45.9622899" lon="11.5963343"><ele>1370.0</ele><time>2026-04-26T12:45:32.454Z</time></trkpt><trkpt lat="45.9623621" lon="11.5962814"><ele>1370.0</ele><time>2026-04-26T12:45:33.455Z</time></trkpt><trkpt lat="45.962428" lon="11.5962057"><ele>1370.0</ele><time>2026-04-26T12:45:34.454Z</time></trkpt><trkpt lat="45.9624872" lon="11.5961134"><ele>1371.1666666666667</ele><time>2026-04-26T12:45:35.454Z</time></trkpt><trkpt lat="45.9625278" lon="11.5959908"><ele>1372.3333333333335</ele><time>2026-04-26T12:45:36.454Z</time></trkpt><trkpt lat="45.962553" lon="11.5958839"><ele>1373.5</ele><time>2026-04-26T12:45:37.454Z</time></trkpt><trkpt lat="45.9625852" lon="11.5957572"><ele>1374.6666666666667</ele><time>2026-04-26T12:45:38.454Z</time></trkpt><trkpt lat="45.962609" lon="11.5956489"><ele>1375.8333333333333</ele><time>2026-04-26T12:45:39.454Z</time></trkpt><trkpt lat="45.9626381" lon="11.5955463"><ele>1377.0</ele><time>2026-04-26T12:45:40.454Z</time></trkpt><trkpt lat="45.9626459" lon="11.5954261"><ele>1377.6</ele><time>2026-04-26T12:45:41.454Z</time></trkpt><trkpt lat="45.9626487" lon="11.595302"><ele>1378.1999999999998</ele><time>2026-04-26T12:45:42.454Z</time></trkpt><trkpt lat="45.9626448" lon="11.5951596"><ele>1378.8</ele><time>2026-04-26T12:45:43.454Z</time></trkpt><trkpt lat="45.9626349" lon="11.5950303"><ele>1379.4</ele><time>2026-04-26T12:45:44.454Z</time></trkpt><trkpt lat="45.9626072" lon="11.5948833"><ele>1380.0</ele><time>2026-04-26T12:45:45.455Z</time></trkpt><trkpt lat="45.9625713" lon="11.5947224"><ele>1380.0</ele><time>2026-04-26T12:45:46.454Z</time></trkpt><trkpt lat="45.9625352" lon="11.5945591"><ele>1380.0</ele><time>2026-04-26T12:45:47.455Z</time></trkpt><trkpt lat="45.9624978" lon="11.5943754"><ele>1380.0</ele><time>2026-04-26T12:45:48.455Z</time></trkpt><trkpt lat="45.9624563" lon="11.5942051"><ele>1380.0</ele><time>2026-04-26T12:45:49.454Z</time></trkpt><trkpt lat="45.9624154" lon="11.5940379"><ele>1380.0</ele><time>2026-04-26T12:45:50.455Z</time></trkpt><trkpt lat="45.9623731" lon="11.5938781"><ele>1380.0</ele><time>2026-04-26T12:45:51.454Z</time></trkpt><trkpt lat="45.9623266" lon="11.5937274"><ele>1380.0</ele><time>2026-04-26T12:45:52.455Z</time></trkpt><trkpt lat="45.9622732" lon="11.5935798"><ele>1380.0</ele><time>2026-04-26T12:45:53.455Z</time></trkpt><trkpt lat="45.9622127" lon="11.5934504"><ele>1380.0</ele><time>2026-04-26T12:45:54.454Z</time></trkpt><trkpt lat="45.9621425" lon="11.5933174"><ele>1380.0</ele><time>2026-04-26T12:45:55.454Z</time></trkpt><trkpt lat="45.9620671" lon="11.5931765"><ele>1380.0</ele><time>2026-04-26T12:45:56.454Z</time></trkpt><trkpt lat="45.9619941" lon="11.5930366"><ele>1380.0</ele><time>2026-04-26T12:45:57.454Z</time></trkpt><trkpt lat="45.9619218" lon="11.5928908"><ele>1378.75</ele><time>2026-04-26T12:45:58.454Z</time></trkpt><trkpt lat="45.9618572" lon="11.592739"><ele>1377.5</ele><time>2026-04-26T12:45:59.454Z</time></trkpt><trkpt lat="45.9617927" lon="11.5925778"><ele>1376.25</ele><time>2026-04-26T12:46:00.454Z</time></trkpt><trkpt lat="45.9617516" lon="11.592407"><ele>1375.0</ele><time>2026-04-26T12:46:01.454Z</time></trkpt><trkpt lat="45.9617256" lon="11.5922468"><ele>1375.0</ele><time>2026-04-26T12:46:02.454Z</time></trkpt><trkpt lat="45.9617112" lon="11.5920782"><ele>1375.0</ele><time>2026-04-26T12:46:03.454Z</time></trkpt><trkpt lat="45.9617238" lon="11.5919015"><ele>1375.0</ele><time>2026-04-26T12:46:04.454Z</time></trkpt><trkpt lat="45.9617356" lon="11.5917132"><ele>1375.0</ele><time>2026-04-26T12:46:05.455Z</time></trkpt><trkpt lat="45.9617635" lon="11.5915316"><ele>1375.0</ele><time>2026-04-26T12:46:06.454Z</time></trkpt><trkpt lat="45.9617965" lon="11.5913354"><ele>1375.0</ele><time>2026-04-26T12:46:07.455Z</time></trkpt><trkpt lat="45.9618318" lon="11.5911238"><ele>1375.0</ele><time>2026-04-26T12:46:08.455Z</time></trkpt><trkpt lat="45.9618673" lon="11.5909184"><ele>1375.0</ele><time>2026-04-26T12:46:09.454Z</time></trkpt><trkpt lat="45.9619013" lon="11.5907147"><ele>1376.0</ele><time>2026-04-26T12:46:10.455Z</time></trkpt><trkpt lat="45.9619339" lon="11.5905314"><ele>1377.0</ele><time>2026-04-26T12:46:11.455Z</time></trkpt><trkpt lat="45.9619635" lon="11.5903525"><ele>1378.0</ele><time>2026-04-26T12:46:12.455Z</time></trkpt><trkpt lat="45.9619956" lon="11.5901882"><ele>1379.0</ele><time>2026-04-26T12:46:13.454Z</time></trkpt><trkpt lat="45.9620426" lon="11.5900194"><ele>1379.25</ele><time>2026-04-26T12:46:14.454Z</time></trkpt><trkpt lat="45.9620798" lon="11.5898654"><ele>1379.5</ele><time>2026-04-26T12:46:15.454Z</time></trkpt><trkpt lat="45.9621234" lon="11.5896962"><ele>1379.75</ele><time>2026-04-26T12:46:16.454Z</time></trkpt><trkpt lat="45.9621565" lon="11.5895454"><ele>1380.0</ele><time>2026-04-26T12:46:17.454Z</time></trkpt><trkpt lat="45.9621875" lon="11.5893935"><ele>1380.0</ele><time>2026-04-26T12:46:18.455Z</time></trkpt><trkpt lat="45.9622283" lon="11.5892477"><ele>1380.0</ele><time>2026-04-26T12:46:19.455Z</time></trkpt><trkpt lat="45.9622767" lon="11.5891053"><ele>1380.0</ele><time>2026-04-26T12:46:20.454Z</time></trkpt><trkpt lat="45.9623311" lon="11.5889665"><ele>1380.0</ele><time>2026-04-26T12:46:21.454Z</time></trkpt><trkpt lat="45.962397" lon="11.588814"><ele>1378.75</ele><time>2026-04-26T12:46:22.454Z</time></trkpt><trkpt lat="45.9624563" lon="11.5886658"><ele>1377.5</ele><time>2026-04-26T12:46:23.454Z</time></trkpt><trkpt lat="45.9625238" lon="11.5885034"><ele>1376.25</ele><time>2026-04-26T12:46:24.455Z</time></trkpt><trkpt lat="45.9625903" lon="11.588352"><ele>1375.0</ele><time>2026-04-26T12:46:25.454Z</time></trkpt><trkpt lat="45.9626654" lon="11.5881932"><ele>1375.0</ele><time>2026-04-26T12:46:26.454Z</time></trkpt><trkpt lat="45.9627297" lon="11.5880339"><ele>1375.0</ele><time>2026-04-26T12:46:27.454Z</time></trkpt><trkpt lat="45.962795" lon="11.5878749"><ele>1375.0</ele><time>2026-04-26T12:46:28.454Z</time></trkpt><trkpt lat="45.9628546" lon="11.5877285"><ele>1375.0</ele><time>2026-04-26T12:46:29.454Z</time></trkpt><trkpt lat="45.9629163" lon="11.5875847"><ele>1374.25</ele><time>2026-04-26T12:46:30.454Z</time></trkpt><trkpt lat="45.9629786" lon="11.587438"><ele>1373.5</ele><time>2026-04-26T12:46:31.454Z</time></trkpt><trkpt lat="45.9630388" lon="11.5872775"><ele>1372.75</ele><time>2026-04-26T12:46:32.454Z</time></trkpt><trkpt lat="45.9631049" lon="11.5871139"><ele>1372.0</ele><time>2026-04-26T12:46:33.454Z</time></trkpt><trkpt lat="45.9631741" lon="11.5869374"><ele>1372.0</ele><time>2026-04-26T12:46:34.454Z</time></trkpt><trkpt lat="45.9632482" lon="11.5867652"><ele>1372.0</ele><time>2026-04-26T12:46:35.454Z</time></trkpt><trkpt lat="45.9633175" lon="11.5865815"><ele>1372.0</ele><time>2026-04-26T12:46:36.454Z</time></trkpt><trkpt lat="45.9633892" lon="11.586382"><ele>1372.0</ele><time>2026-04-26T12:46:37.454Z</time></trkpt><trkpt lat="45.9634573" lon="11.5861984"><ele>1373.0</ele><time>2026-04-26T12:46:38.455Z</time></trkpt><trkpt lat="45.9635207" lon="11.5860238"><ele>1374.0</ele><time>2026-04-26T12:46:39.454Z</time></trkpt><trkpt lat="45.9635837" lon="11.5858507"><ele>1375.0</ele><time>2026-04-26T12:46:40.455Z</time></trkpt><trkpt lat="45.9636453" lon="11.5856876"><ele>1376.0</ele><time>2026-04-26T12:46:41.454Z</time></trkpt><trkpt lat="45.9636978" lon="11.5855398"><ele>1376.0</ele><time>2026-04-26T12:46:42.454Z</time></trkpt><trkpt lat="45.9637456" lon="11.5853992"><ele>1376.0</ele><time>2026-04-26T12:46:43.454Z</time></trkpt><trkpt lat="45.9637864" lon="11.585265"><ele>1376.0</ele><time>2026-04-26T12:46:44.454Z</time></trkpt><trkpt lat="45.9638316" lon="11.585151"><ele>1376.0</ele><time>2026-04-26T12:46:45.454Z</time></trkpt><trkpt lat="45.9638901" lon="11.5850431"><ele>1376.0</ele><time>2026-04-26T12:46:46.454Z</time></trkpt><trkpt lat="45.9639573" lon="11.5849427"><ele>1376.0</ele><time>2026-04-26T12:46:47.454Z</time></trkpt><trkpt lat="45.9640381" lon="11.5848536"><ele>1376.0</ele><time>2026-04-26T12:46:48.454Z</time></trkpt><trkpt lat="45.9641343" lon="11.5847534"><ele>1376.0</ele><time>2026-04-26T12:46:49.454Z</time></trkpt><trkpt lat="45.9642301" lon="11.5846297"><ele>1376.0</ele><time>2026-04-26T12:46:50.454Z</time></trkpt><trkpt lat="45.9643218" lon="11.5845111"><ele>1377.5</ele><time>2026-04-26T12:46:51.454Z</time></trkpt><trkpt lat="45.964411" lon="11.5843806"><ele>1379.0</ele><time>2026-04-26T12:46:52.454Z</time></trkpt><trkpt lat="45.9645032" lon="11.5842549"><ele>1380.5</ele><time>2026-04-26T12:46:53.455Z</time></trkpt><trkpt lat="45.9645943" lon="11.5841261"><ele>1382.0</ele><time>2026-04-26T12:46:54.455Z</time></trkpt><trkpt lat="45.964683" lon="11.5839947"><ele>1382.0</ele><time>2026-04-26T12:46:55.455Z</time></trkpt><trkpt lat="45.9647663" lon="11.5838633"><ele>1382.0</ele><time>2026-04-26T12:46:56.455Z</time></trkpt><trkpt lat="45.9648448" lon="11.5837306"><ele>1382.0</ele><time>2026-04-26T12:46:57.454Z</time></trkpt><trkpt lat="45.9649301" lon="11.5835971"><ele>1382.0</ele><time>2026-04-26T12:46:58.454Z</time></trkpt><trkpt lat="45.9650042" lon="11.5834425"><ele>1383.8</ele><time>2026-04-26T12:46:59.454Z</time></trkpt><trkpt lat="45.965079" lon="11.5833018"><ele>1385.6</ele><time>2026-04-26T12:47:00.454Z</time></trkpt><trkpt lat="45.965151" lon="11.5831898"><ele>1387.3999999999999</ele><time>2026-04-26T12:47:01.455Z</time></trkpt><trkpt lat="45.9652177" lon="11.5830855"><ele>1389.1999999999998</ele><time>2026-04-26T12:47:02.454Z</time></trkpt><trkpt lat="45.9653016" lon="11.5830107"><ele>1391.0</ele><time>2026-04-26T12:47:03.455Z</time></trkpt><trkpt lat="45.9654001" lon="11.5829447"><ele>1391.0</ele><time>2026-04-26T12:47:04.454Z</time></trkpt><trkpt lat="45.9655084" lon="11.5828782"><ele>1391.0</ele><time>2026-04-26T12:47:05.454Z</time></trkpt><trkpt lat="45.9656362" lon="11.5828196"><ele>1391.0</ele><time>2026-04-26T12:47:06.455Z</time></trkpt><trkpt lat="45.9657655" lon="11.5827737"><ele>1391.0</ele><time>2026-04-26T12:47:07.455Z</time></trkpt><trkpt lat="45.9658822" lon="11.5827262"><ele>1389.25</ele><time>2026-04-26T12:47:08.455Z</time></trkpt><trkpt lat="45.9660111" lon="11.5826826"><ele>1387.5</ele><time>2026-04-26T12:47:09.454Z</time></trkpt><trkpt lat="45.9661144" lon="11.582644"><ele>1385.75</ele><time>2026-04-26T12:47:10.454Z</time></trkpt><trkpt lat="45.9662293" lon="11.5826039"><ele>1384.0</ele><time>2026-04-26T12:47:11.454Z</time></trkpt><trkpt lat="45.9663735" lon="11.5825826"><ele>1384.0</ele><time>2026-04-26T12:47:12.454Z</time></trkpt><trkpt lat="45.9664734" lon="11.5825863"><ele>1384.0</ele><time>2026-04-26T12:47:13.455Z</time></trkpt><trkpt lat="45.9665812" lon="11.5825926"><ele>1384.0</ele><time>2026-04-26T12:47:14.454Z</time></trkpt><trkpt lat="45.9666849" lon="11.5826027"><ele>1384.0</ele><time>2026-04-26T12:47:15.455Z</time></trkpt><trkpt lat="45.9667711" lon="11.5825779"><ele>1384.0</ele><time>2026-04-26T12:47:16.455Z</time></trkpt><trkpt lat="45.9668561" lon="11.5825442"><ele>1386.4</ele><time>2026-04-26T12:47:17.454Z</time></trkpt><trkpt lat="45.9669364" lon="11.5824946"><ele>1388.8000000000002</ele><time>2026-04-26T12:47:18.454Z</time></trkpt><trkpt lat="45.9670129" lon="11.5824094"><ele>1391.1999999999998</ele><time>2026-04-26T12:47:19.454Z</time></trkpt><trkpt lat="45.9670825" lon="11.5823206"><ele>1393.6</ele><time>2026-04-26T12:47:20.455Z</time></trkpt><trkpt lat="45.9671635" lon="11.5821848"><ele>1396.0</ele><time>2026-04-26T12:47:21.455Z</time></trkpt><trkpt lat="45.9672501" lon="11.5820375"><ele>1395.25</ele><time>2026-04-26T12:47:22.454Z</time></trkpt><trkpt lat="45.9673192" lon="11.5818941"><ele>1394.5</ele><time>2026-04-26T12:47:23.454Z</time></trkpt><trkpt lat="45.9673701" lon="11.5817484"><ele>1393.75</ele><time>2026-04-26T12:47:24.454Z</time></trkpt><trkpt lat="45.9674056" lon="11.5815902"><ele>1393.0</ele><time>2026-04-26T12:47:25.454Z</time></trkpt><trkpt lat="45.9674379" lon="11.5814324"><ele>1393.0</ele><time>2026-04-26T12:47:26.454Z</time></trkpt><trkpt lat="45.9674651" lon="11.5812531"><ele>1393.0</ele><time>2026-04-26T12:47:27.455Z</time></trkpt><trkpt lat="45.9674864" lon="11.5810602"><ele>1393.0</ele><time>2026-04-26T12:47:28.454Z</time></trkpt><trkpt lat="45.9675011" lon="11.5808661"><ele>1393.0</ele><time>2026-04-26T12:47:29.454Z</time></trkpt><trkpt lat="45.967514" lon="11.5806777"><ele>1392.75</ele><time>2026-04-26T12:47:30.454Z</time></trkpt><trkpt lat="45.9675246" lon="11.5804847"><ele>1392.5</ele><time>2026-04-26T12:47:31.454Z</time></trkpt><trkpt lat="45.9675366" lon="11.5802951"><ele>1392.25</ele><time>2026-04-26T12:47:32.454Z</time></trkpt><trkpt lat="45.9675244" lon="11.5801248"><ele>1392.0</ele><time>2026-04-26T12:47:33.454Z</time></trkpt><trkpt lat="45.9675317" lon="11.579976"><ele>1392.6666666666667</ele><time>2026-04-26T12:47:34.455Z</time></trkpt><trkpt lat="45.9675385" lon="11.5798512"><ele>1393.3333333333333</ele><time>2026-04-26T12:47:35.455Z</time></trkpt><trkpt lat="45.9675763" lon="11.579746"><ele>1394.0</ele><time>2026-04-26T12:47:36.454Z</time></trkpt><trkpt lat="45.9676325" lon="11.5796545"><ele>1394.6666666666665</ele><time>2026-04-26T12:47:37.454Z</time></trkpt><trkpt lat="45.9676993" lon="11.5795766"><ele>1395.3333333333333</ele><time>2026-04-26T12:47:38.454Z</time></trkpt><trkpt lat="45.9677864" lon="11.5795018"><ele>1396.0</ele><time>2026-04-26T12:47:39.454Z</time></trkpt><trkpt lat="45.9678828" lon="11.5794267"><ele>1396.0</ele><time>2026-04-26T12:47:40.454Z</time></trkpt><trkpt lat="45.9679852" lon="11.5793438"><ele>1396.0</ele><time>2026-04-26T12:47:41.454Z</time></trkpt><trkpt lat="45.9680923" lon="11.5792465"><ele>1396.0</ele><time>2026-04-26T12:47:42.454Z</time></trkpt><trkpt lat="45.9682078" lon="11.5791241"><ele>1396.0</ele><time>2026-04-26T12:47:43.454Z</time></trkpt><trkpt lat="45.968316" lon="11.578979"><ele>1398.0</ele><time>2026-04-26T12:47:44.454Z</time></trkpt><trkpt lat="45.9684238" lon="11.578819"><ele>1400.0</ele><time>2026-04-26T12:47:45.455Z</time></trkpt><trkpt lat="45.9685354" lon="11.578658"><ele>1402.0</ele><time>2026-04-26T12:47:46.454Z</time></trkpt><trkpt lat="45.9686536" lon="11.5784932"><ele>1402.0</ele><time>2026-04-26T12:47:47.454Z</time></trkpt><trkpt lat="45.968789" lon="11.5783414"><ele>1402.0</ele><time>2026-04-26T12:47:48.455Z</time></trkpt><trkpt lat="45.9689071" lon="11.5781786"><ele>1402.0</ele><time>2026-04-26T12:47:49.454Z</time></trkpt><trkpt lat="45.9690162" lon="11.5780333"><ele>1402.0</ele><time>2026-04-26T12:47:50.454Z</time></trkpt><trkpt lat="45.9691206" lon="11.5778959"><ele>1402.0</ele><time>2026-04-26T12:47:51.454Z</time></trkpt><trkpt lat="45.9692157" lon="11.5777648"><ele>1402.0</ele><time>2026-04-26T12:47:52.455Z</time></trkpt><trkpt lat="45.9693156" lon="11.5776477"><ele>1402.0</ele><time>2026-04-26T12:47:53.455Z</time></trkpt><trkpt lat="45.9694163" lon="11.577537"><ele>1402.25</ele><time>2026-04-26T12:47:54.454Z</time></trkpt><trkpt lat="45.9695145" lon="11.5774425"><ele>1402.5</ele><time>2026-04-26T12:47:55.454Z</time></trkpt><trkpt lat="45.9696217" lon="11.5773622"><ele>1402.75</ele><time>2026-04-26T12:47:56.454Z</time></trkpt><trkpt lat="45.9697202" lon="11.57729"><ele>1403.0</ele><time>2026-04-26T12:47:57.454Z</time></trkpt><trkpt lat="45.9698119" lon="11.5772249"><ele>1403.0</ele><time>2026-04-26T12:47:58.454Z</time></trkpt><trkpt lat="45.9698958" lon="11.5771739"><ele>1403.0</ele><time>2026-04-26T12:47:59.454Z</time></trkpt><trkpt lat="45.969986" lon="11.5771259"><ele>1403.0</ele><time>2026-04-26T12:48:00.454Z</time></trkpt><trkpt lat="45.9701087" lon="11.5771875"><ele>1403.0</ele><time>2026-04-26T12:48:02.455Z</time></trkpt><trkpt lat="45.9701666" lon="11.5772703"><ele>1403.0</ele><time>2026-04-26T12:48:03.455Z</time></trkpt><trkpt lat="45.9702289" lon="11.5773737"><ele>1405.0</ele><time>2026-04-26T12:48:04.454Z</time></trkpt><trkpt lat="45.9703092" lon="11.5774893"><ele>1407.0</ele><time>2026-04-26T12:48:05.454Z</time></trkpt><trkpt lat="45.9703953" lon="11.5776024"><ele>1409.0</ele><time>2026-04-26T12:48:06.454Z</time></trkpt><trkpt lat="45.9705232" lon="11.5777504"><ele>1411.0</ele><time>2026-04-26T12:48:07.455Z</time></trkpt><trkpt lat="45.9706476" lon="11.5778962"><ele>1411.0</ele><time>2026-04-26T12:48:08.454Z</time></trkpt><trkpt lat="45.9707654" lon="11.5780632"><ele>1411.0</ele><time>2026-04-26T12:48:09.454Z</time></trkpt><trkpt lat="45.9708691" lon="11.578228"><ele>1411.0</ele><time>2026-04-26T12:48:10.454Z</time></trkpt><trkpt lat="45.9709918" lon="11.5783893"><ele>1414.0</ele><time>2026-04-26T12:48:11.454Z</time></trkpt><trkpt lat="45.9711193" lon="11.5785329"><ele>1417.0</ele><time>2026-04-26T12:48:12.454Z</time></trkpt><trkpt lat="45.9712506" lon="11.5786729"><ele>1420.0</ele><time>2026-04-26T12:48:13.454Z</time></trkpt><trkpt lat="45.9713716" lon="11.5787946"><ele>1420.0</ele><time>2026-04-26T12:48:14.455Z</time></trkpt><trkpt lat="45.9714912" lon="11.5789163"><ele>1420.0</ele><time>2026-04-26T12:48:15.455Z</time></trkpt><trkpt lat="45.9715815" lon="11.5790162"><ele>1420.0</ele><time>2026-04-26T12:48:16.454Z</time></trkpt><trkpt lat="45.9716437" lon="11.5791099"><ele>1420.0</ele><time>2026-04-26T12:48:17.454Z</time></trkpt><trkpt lat="45.9716991" lon="11.5792008"><ele>1420.0</ele><time>2026-04-26T12:48:18.454Z</time></trkpt><trkpt lat="45.9717313" lon="11.5792894"><ele>1422.8333333333333</ele><time>2026-04-26T12:48:19.455Z</time></trkpt><trkpt lat="45.9717903" lon="11.5793943"><ele>1425.6666666666665</ele><time>2026-04-26T12:48:21.454Z</time></trkpt><trkpt lat="45.9718698" lon="11.5793753"><ele>1428.5</ele><time>2026-04-26T12:48:24.455Z</time></trkpt><trkpt lat="45.9718498" lon="11.579246"><ele>1431.3333333333333</ele><time>2026-04-26T12:48:26.454Z</time></trkpt><trkpt lat="45.971811" lon="11.5791536"><ele>1434.1666666666667</ele><time>2026-04-26T12:48:27.454Z</time></trkpt><trkpt lat="45.9717757" lon="11.5790489"><ele>1437.0</ele><time>2026-04-26T12:48:28.454Z</time></trkpt><trkpt lat="45.9717463" lon="11.578943"><ele>1437.0</ele><time>2026-04-26T12:48:29.454Z</time></trkpt><trkpt lat="45.9717419" lon="11.5788214"><ele>1437.0</ele><time>2026-04-26T12:48:30.454Z</time></trkpt><trkpt lat="45.9717299" lon="11.5786585"><ele>1437.0</ele><time>2026-04-26T12:48:31.455Z</time></trkpt><trkpt lat="45.971699" lon="11.5784993"><ele>1437.0</ele><time>2026-04-26T12:48:32.455Z</time></trkpt><trkpt lat="45.9716387" lon="11.5783229"><ele>1437.75</ele><time>2026-04-26T12:48:33.455Z</time></trkpt><trkpt lat="45.9715791" lon="11.5781383"><ele>1438.5</ele><time>2026-04-26T12:48:34.454Z</time></trkpt><trkpt lat="45.9715312" lon="11.5779365"><ele>1439.25</ele><time>2026-04-26T12:48:35.454Z</time></trkpt><trkpt lat="45.971476" lon="11.5777311"><ele>1440.0</ele><time>2026-04-26T12:48:36.454Z</time></trkpt><trkpt lat="45.9714176" lon="11.5775227"><ele>1440.0</ele><time>2026-04-26T12:48:37.454Z</time></trkpt><trkpt lat="45.9713596" lon="11.5773138"><ele>1440.0</ele><time>2026-04-26T12:48:38.454Z</time></trkpt><trkpt lat="45.9713079" lon="11.5771185"><ele>1440.0</ele><time>2026-04-26T12:48:39.454Z</time></trkpt><trkpt lat="45.9712672" lon="11.5769412"><ele>1440.0</ele><time>2026-04-26T12:48:40.454Z</time></trkpt><trkpt lat="45.9712275" lon="11.5767506"><ele>1442.25</ele><time>2026-04-26T12:48:41.455Z</time></trkpt><trkpt lat="45.9711861" lon="11.5765439"><ele>1444.5</ele><time>2026-04-26T12:48:42.454Z</time></trkpt><trkpt lat="45.9711419" lon="11.5763475"><ele>1446.75</ele><time>2026-04-26T12:48:43.454Z</time></trkpt><trkpt lat="45.9710962" lon="11.5761647"><ele>1449.0</ele><time>2026-04-26T12:48:44.454Z</time></trkpt><trkpt lat="45.9710373" lon="11.5759984"><ele>1447.75</ele><time>2026-04-26T12:48:45.455Z</time></trkpt><trkpt lat="45.9709656" lon="11.5758419"><ele>1446.5</ele><time>2026-04-26T12:48:46.454Z</time></trkpt><trkpt lat="45.9708806" lon="11.5756917"><ele>1445.25</ele><time>2026-04-26T12:48:47.454Z</time></trkpt><trkpt lat="45.9707904" lon="11.5755336"><ele>1444.0</ele><time>2026-04-26T12:48:48.454Z</time></trkpt><trkpt lat="45.9706871" lon="11.5753744"><ele>1446.75</ele><time>2026-04-26T12:48:49.455Z</time></trkpt><trkpt lat="45.9705909" lon="11.5752369"><ele>1449.5</ele><time>2026-04-26T12:48:50.454Z</time></trkpt><trkpt lat="45.9705013" lon="11.5751114"><ele>1452.25</ele><time>2026-04-26T12:48:51.454Z</time></trkpt><trkpt lat="45.9704068" lon="11.574998"><ele>1455.0</ele><time>2026-04-26T12:48:52.455Z</time></trkpt><trkpt lat="45.9703168" lon="11.5748886"><ele>1455.0</ele><time>2026-04-26T12:48:53.454Z</time></trkpt><trkpt lat="45.9702324" lon="11.5748031"><ele>1455.0</ele><time>2026-04-26T12:48:54.455Z</time></trkpt><trkpt lat="45.9701466" lon="11.5747397"><ele>1455.0</ele><time>2026-04-26T12:48:55.454Z</time></trkpt><trkpt lat="45.9700692" lon="11.5746862"><ele>1455.0</ele><time>2026-04-26T12:48:56.454Z</time></trkpt><trkpt lat="45.9699942" lon="11.5746409"><ele>1455.0</ele><time>2026-04-26T12:48:57.454Z</time></trkpt><trkpt lat="45.9699475" lon="11.5745065"><ele>1453.2</ele><time>2026-04-26T12:48:59.455Z</time></trkpt><trkpt lat="45.9699411" lon="11.574412"><ele>1451.4</ele><time>2026-04-26T12:49:00.454Z</time></trkpt><trkpt lat="45.9699609" lon="11.5742906"><ele>1449.6</ele><time>2026-04-26T12:49:01.454Z</time></trkpt><trkpt lat="45.9700081" lon="11.5741786"><ele>1447.8</ele><time>2026-04-26T12:49:02.454Z</time></trkpt><trkpt lat="45.9700469" lon="11.574024"><ele>1446.0</ele><time>2026-04-26T12:49:03.455Z</time></trkpt><trkpt lat="45.9701012" lon="11.5738749"><ele>1454.75</ele><time>2026-04-26T12:49:04.455Z</time></trkpt><trkpt lat="45.9701373" lon="11.5736805"><ele>1463.5</ele><time>2026-04-26T12:49:05.454Z</time></trkpt><trkpt lat="45.9701747" lon="11.5735347"><ele>1472.25</ele><time>2026-04-26T12:49:06.454Z</time></trkpt><trkpt lat="45.9702129" lon="11.5733799"><ele>1481.0</ele><time>2026-04-26T12:49:07.454Z</time></trkpt><trkpt lat="45.9702323" lon="11.5732547"><ele>1481.0</ele><time>2026-04-26T12:49:08.455Z</time></trkpt><trkpt lat="45.9702353" lon="11.5731413"><ele>1481.0</ele><time>2026-04-26T12:49:09.454Z</time></trkpt><trkpt lat="45.9702038" lon="11.5729982"><ele>1481.0</ele><time>2026-04-26T12:49:10.454Z</time></trkpt><trkpt lat="45.9701759" lon="11.5728774"><ele>1481.0</ele><time>2026-04-26T12:49:11.454Z</time></trkpt><trkpt lat="45.9701721" lon="11.5727664"><ele>1481.0</ele><time>2026-04-26T12:49:12.454Z</time></trkpt><trkpt lat="45.9701421" lon="11.5726495"><ele>1481.0</ele><time>2026-04-26T12:49:13.454Z</time></trkpt><trkpt lat="45.9701099" lon="11.5725305"><ele>1483.1999999999998</ele><time>2026-04-26T12:49:14.454Z</time></trkpt><trkpt lat="45.9700731" lon="11.5723959"><ele>1485.3999999999999</ele><time>2026-04-26T12:49:15.454Z</time></trkpt><trkpt lat="45.9700298" lon="11.572269"><ele>1487.6</ele><time>2026-04-26T12:49:16.454Z</time></trkpt><trkpt lat="45.9700057" lon="11.5721137"><ele>1489.8</ele><time>2026-04-26T12:49:17.455Z</time></trkpt><trkpt lat="45.9699795" lon="11.5719911"><ele>1492.0</ele><time>2026-04-26T12:49:18.454Z</time></trkpt><trkpt lat="45.9699109" lon="11.5718531"><ele>1486.8</ele><time>2026-04-26T12:49:19.455Z</time></trkpt><trkpt lat="45.969848" lon="11.5717266"><ele>1481.6</ele><time>2026-04-26T12:49:20.455Z</time></trkpt><trkpt lat="45.9697954" lon="11.5715864"><ele>1476.3999999999999</ele><time>2026-04-26T12:49:21.455Z</time></trkpt><trkpt lat="45.9697328" lon="11.5714821"><ele>1471.1999999999998</ele><time>2026-04-26T12:49:22.454Z</time></trkpt><trkpt lat="45.9696651" lon="11.5714109"><ele>1466.0</ele><time>2026-04-26T12:49:23.454Z</time></trkpt><trkpt lat="45.9695784" lon="11.5713537"><ele>1466.0</ele><time>2026-04-26T12:49:24.455Z</time></trkpt><trkpt lat="45.9694845" lon="11.5713191"><ele>1466.0</ele><time>2026-04-26T12:49:25.454Z</time></trkpt><trkpt lat="45.9693992" lon="11.5712931"><ele>1466.0</ele><time>2026-04-26T12:49:26.454Z</time></trkpt><trkpt lat="45.9693336" lon="11.5712596"><ele>1466.0</ele><time>2026-04-26T12:49:27.455Z</time></trkpt><trkpt lat="45.9692783" lon="11.5712102"><ele>1466.0</ele><time>2026-04-26T12:49:28.455Z</time></trkpt><trkpt lat="45.9692465" lon="11.571058"><ele>1466.0</ele><time>2026-04-26T12:49:30.454Z</time></trkpt><trkpt lat="45.9692607" lon="11.5708651"><ele>1465.3333333333335</ele><time>2026-04-26T12:49:32.454Z</time></trkpt><trkpt lat="45.9692635" lon="11.5707571"><ele>1464.6666666666667</ele><time>2026-04-26T12:49:33.454Z</time></trkpt><trkpt lat="45.96924" lon="11.5706563"><ele>1464.0</ele><time>2026-04-26T12:49:34.454Z</time></trkpt><trkpt lat="45.9691988" lon="11.5705413"><ele>1463.3333333333333</ele><time>2026-04-26T12:49:35.455Z</time></trkpt><trkpt lat="45.9691441" lon="11.5704226"><ele>1462.6666666666665</ele><time>2026-04-26T12:49:36.455Z</time></trkpt><trkpt lat="45.969085" lon="11.5703055"><ele>1462.0</ele><time>2026-04-26T12:49:37.455Z</time></trkpt><trkpt lat="45.9690282" lon="11.5702037"><ele>1464.8</ele><time>2026-04-26T12:49:38.454Z</time></trkpt><trkpt lat="45.9689726" lon="11.5700881"><ele>1467.6</ele><time>2026-04-26T12:49:39.454Z</time></trkpt><trkpt lat="45.9689085" lon="11.5699517"><ele>1470.3999999999999</ele><time>2026-04-26T12:49:40.454Z</time></trkpt><trkpt lat="45.9688546" lon="11.569828"><ele>1473.1999999999998</ele><time>2026-04-26T12:49:41.454Z</time></trkpt><trkpt lat="45.9688135" lon="11.5697075"><ele>1476.0</ele><time>2026-04-26T12:49:42.454Z</time></trkpt><trkpt lat="45.9687715" lon="11.5696159"><ele>1476.0</ele><time>2026-04-26T12:49:43.454Z</time></trkpt><trkpt lat="45.9687113" lon="11.5695503"><ele>1476.0</ele><time>2026-04-26T12:49:44.455Z</time></trkpt><trkpt lat="45.9686213" lon="11.5695346"><ele>1476.0</ele><time>2026-04-26T12:49:45.454Z</time></trkpt><trkpt lat="45.9685231" lon="11.5695176"><ele>1476.0</ele><time>2026-04-26T12:49:46.454Z</time></trkpt><trkpt lat="45.9684237" lon="11.5695012"><ele>1476.0</ele><time>2026-04-26T12:49:47.455Z</time></trkpt><trkpt lat="45.9683286" lon="11.5694644"><ele>1477.8333333333333</ele><time>2026-04-26T12:49:48.455Z</time></trkpt><trkpt lat="45.9682352" lon="11.5694515"><ele>1479.6666666666667</ele><time>2026-04-26T12:49:49.454Z</time></trkpt><trkpt lat="45.9681871" lon="11.5693756"><ele>1481.5</ele><time>2026-04-26T12:49:50.454Z</time></trkpt><trkpt lat="45.9681287" lon="11.5692861"><ele>1483.3333333333335</ele><time>2026-04-26T12:49:51.455Z</time></trkpt><trkpt lat="45.9680515" lon="11.5691943"><ele>1485.1666666666667</ele><time>2026-04-26T12:49:52.454Z</time></trkpt><trkpt lat="45.9679903" lon="11.5690966"><ele>1487.0</ele><time>2026-04-26T12:49:53.454Z</time></trkpt><trkpt lat="45.9679151" lon="11.5690097"><ele>1487.0</ele><time>2026-04-26T12:49:54.455Z</time></trkpt><trkpt lat="45.9677936" lon="11.5690164"><ele>1487.0</ele><time>2026-04-26T12:49:56.454Z</time></trkpt><trkpt lat="45.9677161" lon="11.5690013"><ele>1487.0</ele><time>2026-04-26T12:49:57.454Z</time></trkpt><trkpt lat="45.9676202" lon="11.569005"><ele>1487.0</ele><time>2026-04-26T12:49:58.454Z</time></trkpt><trkpt lat="45.9675292" lon="11.5690248"><ele>1487.0</ele><time>2026-04-26T12:49:59.455Z</time></trkpt><trkpt lat="45.9674402" lon="11.5690703"><ele>1485.6</ele><time>2026-04-26T12:50:00.454Z</time></trkpt><trkpt lat="45.9673586" lon="11.5691121"><ele>1484.1999999999998</ele><time>2026-04-26T12:50:01.454Z</time></trkpt><trkpt lat="45.9672684" lon="11.5691318"><ele>1482.8</ele><time>2026-04-26T12:50:02.455Z</time></trkpt><trkpt lat="45.9671691" lon="11.5690382"><ele>1481.4</ele><time>2026-04-26T12:50:04.455Z</time></trkpt><trkpt lat="45.9670996" lon="11.5689179"><ele>1480.0</ele><time>2026-04-26T12:50:06.455Z</time></trkpt><trkpt lat="45.9670568" lon="11.5688441"><ele>1480.0</ele><time>2026-04-26T12:50:08.455Z</time></trkpt><trkpt lat="45.966999" lon="11.5687967"><ele>1480.0</ele><time>2026-04-26T12:50:11.454Z</time></trkpt><trkpt lat="45.9669556" lon="11.5687291"><ele>1480.0</ele><time>2026-04-26T12:50:15.454Z</time></trkpt><trkpt lat="45.9668662" lon="11.5687516"><ele>1480.0</ele><time>2026-04-26T12:50:42.454Z</time></trkpt><trkpt lat="45.9668341" lon="11.56865"><ele>1480.0</ele><time>2026-04-26T12:50:44.454Z</time></trkpt><trkpt lat="45.9668011" lon="11.5685199"><ele>1480.0</ele><time>2026-04-26T12:50:45.455Z</time></trkpt><trkpt lat="45.9667775" lon="11.5684013"><ele>1480.4</ele><time>2026-04-26T12:50:46.454Z</time></trkpt><trkpt lat="45.9667486" lon="11.5682582"><ele>1480.8</ele><time>2026-04-26T12:50:47.454Z</time></trkpt><trkpt lat="45.9667075" lon="11.5681365"><ele>1481.1999999999998</ele><time>2026-04-26T12:50:48.454Z</time></trkpt><trkpt lat="45.9666671" lon="11.5680126"><ele>1481.6</ele><time>2026-04-26T12:50:49.454Z</time></trkpt><trkpt lat="45.9666482" lon="11.5678606"><ele>1482.0</ele><time>2026-04-26T12:50:50.455Z</time></trkpt><trkpt lat="45.9666258" lon="11.5677177"><ele>1486.0</ele><time>2026-04-26T12:50:51.454Z</time></trkpt><trkpt lat="45.9666096" lon="11.5675454"><ele>1490.0</ele><time>2026-04-26T12:50:52.454Z</time></trkpt><trkpt lat="45.9666123" lon="11.567364"><ele>1494.0</ele><time>2026-04-26T12:50:53.454Z</time></trkpt><trkpt lat="45.9666098" lon="11.5669912"><ele>1496.0</ele><time>2026-04-26T12:50:55.454Z</time></trkpt><trkpt lat="45.9666042" lon="11.5668347"><ele>1498.0</ele><time>2026-04-26T12:50:56.454Z</time></trkpt><trkpt lat="45.9665857" lon="11.5666924"><ele>1500.0</ele><time>2026-04-26T12:50:57.455Z</time></trkpt><trkpt lat="45.9665303" lon="11.5665657"><ele>1502.0</ele><time>2026-04-26T12:50:58.454Z</time></trkpt><trkpt lat="45.9664509" lon="11.5664412"><ele>1504.0</ele><time>2026-04-26T12:50:59.455Z</time></trkpt><trkpt lat="45.9663658" lon="11.566321"><ele>1506.5</ele><time>2026-04-26T12:51:00.455Z</time></trkpt><trkpt lat="45.9662757" lon="11.5661872"><ele>1509.0</ele><time>2026-04-26T12:51:01.454Z</time></trkpt><trkpt lat="45.9661853" lon="11.5660572"><ele>1511.5</ele><time>2026-04-26T12:51:02.454Z</time></trkpt><trkpt lat="45.9661008" lon="11.5659415"><ele>1514.0</ele><time>2026-04-26T12:51:03.454Z</time></trkpt><trkpt lat="45.9660208" lon="11.5658192"><ele>1514.0</ele><time>2026-04-26T12:51:04.455Z</time></trkpt><trkpt lat="45.9660214" lon="11.5656992"><ele>1514.0</ele><time>2026-04-26T12:51:05.454Z</time></trkpt><trkpt lat="45.9659839" lon="11.5655718"><ele>1514.0</ele><time>2026-04-26T12:51:06.455Z</time></trkpt><trkpt lat="45.9659733" lon="11.5654425"><ele>1514.0</ele><time>2026-04-26T12:51:07.454Z</time></trkpt><trkpt lat="45.9659452" lon="11.5653258"><ele>1514.0</ele><time>2026-04-26T12:51:08.454Z</time></trkpt><trkpt lat="45.9659043" lon="11.5652524"><ele>1514.0</ele><time>2026-04-26T12:51:09.454Z</time></trkpt><trkpt lat="45.9658453" lon="11.5651898"><ele>1513.2</ele><time>2026-04-26T12:51:10.454Z</time></trkpt><trkpt lat="45.9657848" lon="11.5651456"><ele>1512.4</ele><time>2026-04-26T12:51:11.454Z</time></trkpt><trkpt lat="45.9656827" lon="11.5651245"><ele>1511.6</ele><time>2026-04-26T12:51:12.455Z</time></trkpt><trkpt lat="45.9655688" lon="11.5651055"><ele>1510.8</ele><time>2026-04-26T12:51:13.454Z</time></trkpt><trkpt lat="45.9654683" lon="11.5650724"><ele>1510.0</ele><time>2026-04-26T12:51:14.455Z</time></trkpt><trkpt lat="45.9653994" lon="11.5650214"><ele>1510.0</ele><time>2026-04-26T12:51:15.454Z</time></trkpt><trkpt lat="45.9652606" lon="11.5648405"><ele>1510.0</ele><time>2026-04-26T12:51:17.454Z</time></trkpt><trkpt lat="45.9651927" lon="11.5647051"><ele>1510.0</ele><time>2026-04-26T12:51:18.455Z</time></trkpt><trkpt lat="45.9651352" lon="11.5645579"><ele>1510.0</ele><time>2026-04-26T12:51:19.455Z</time></trkpt><trkpt lat="45.9650808" lon="11.5643938"><ele>1509.2</ele><time>2026-04-26T12:51:20.454Z</time></trkpt><trkpt lat="45.9650303" lon="11.564221"><ele>1508.4</ele><time>2026-04-26T12:51:21.455Z</time></trkpt><trkpt lat="45.9649678" lon="11.5641114"><ele>1507.6</ele><time>2026-04-26T12:51:22.454Z</time></trkpt><trkpt lat="45.9648957" lon="11.5639998"><ele>1506.8</ele><time>2026-04-26T12:51:23.455Z</time></trkpt><trkpt lat="45.9648252" lon="11.5639095"><ele>1506.0</ele><time>2026-04-26T12:51:24.454Z</time></trkpt><trkpt lat="45.964759" lon="11.5638516"><ele>1506.0</ele><time>2026-04-26T12:51:25.455Z</time></trkpt><trkpt lat="45.964683" lon="11.5637505"><ele>1506.0</ele><time>2026-04-26T12:51:27.454Z</time></trkpt><trkpt lat="45.9646835" lon="11.563657"><ele>1506.0</ele><time>2026-04-26T12:51:29.454Z</time></trkpt><trkpt lat="45.964765" lon="11.5636607"><ele>1506.0</ele><time>2026-04-26T12:51:31.454Z</time></trkpt><trkpt lat="45.9648206" lon="11.563711"><ele>1506.0</ele><time>2026-04-26T12:51:32.455Z</time></trkpt><trkpt lat="45.9648823" lon="11.5637864"><ele>1506.0</ele><time>2026-04-26T12:51:33.454Z</time></trkpt><trkpt lat="45.9649575" lon="11.5638624"><ele>1513.6666666666667</ele><time>2026-04-26T12:51:34.454Z</time></trkpt><trkpt lat="45.9650407" lon="11.5639303"><ele>1521.3333333333335</ele><time>2026-04-26T12:51:35.455Z</time></trkpt><trkpt lat="45.965216" lon="11.5640853"><ele>1529.0</ele><time>2026-04-26T12:51:37.454Z</time></trkpt><trkpt lat="45.9653874" lon="11.5642507"><ele>1529.0</ele><time>2026-04-26T12:51:39.455Z</time></trkpt><trkpt lat="45.9654753" lon="11.5643458"><ele>1529.0</ele><time>2026-04-26T12:51:40.454Z</time></trkpt><trkpt lat="45.9655588" lon="11.5644531"><ele>1529.0</ele><time>2026-04-26T12:51:41.454Z</time></trkpt><trkpt lat="45.9656336" lon="11.564551"><ele>1529.0</ele><time>2026-04-26T12:51:42.454Z</time></trkpt><trkpt lat="45.9657041" lon="11.5646309"><ele>1529.0</ele><time>2026-04-26T12:51:43.454Z</time></trkpt><trkpt lat="45.9657849" lon="11.5647057"><ele>1529.0</ele><time>2026-04-26T12:51:44.454Z</time></trkpt><trkpt lat="45.9658801" lon="11.5647553"><ele>1529.0</ele><time>2026-04-26T12:51:45.455Z</time></trkpt><trkpt lat="45.965959" lon="11.5648029"><ele>1529.0</ele><time>2026-04-26T12:51:46.454Z</time></trkpt><trkpt lat="45.9660433" lon="11.5648409"><ele>1529.0</ele><time>2026-04-26T12:51:47.455Z</time></trkpt><trkpt lat="45.9661496" lon="11.564901"><ele>1529.0</ele><time>2026-04-26T12:51:48.454Z</time></trkpt><trkpt lat="45.9662656" lon="11.5649442"><ele>1529.0</ele><time>2026-04-26T12:51:49.455Z</time></trkpt><trkpt lat="45.9663893" lon="11.5649899"><ele>1529.0</ele><time>2026-04-26T12:51:50.455Z</time></trkpt><trkpt lat="45.9664933" lon="11.5650334"><ele>1529.0</ele><time>2026-04-26T12:51:51.454Z</time></trkpt><trkpt lat="45.9665927" lon="11.5650849"><ele>1529.0</ele><time>2026-04-26T12:51:52.454Z</time></trkpt><trkpt lat="45.9666718" lon="11.5651394"><ele>1529.0</ele><time>2026-04-26T12:51:53.454Z</time></trkpt><trkpt lat="45.9667396" lon="11.5652015"><ele>1530.0</ele><time>2026-04-26T12:51:54.454Z</time></trkpt><trkpt lat="45.9667884" lon="11.5652835"><ele>1531.0</ele><time>2026-04-26T12:51:55.455Z</time></trkpt><trkpt lat="45.9668304" lon="11.565393"><ele>1532.0</ele><time>2026-04-26T12:51:56.455Z</time></trkpt><trkpt lat="45.9668662" lon="11.5655289"><ele>1533.0</ele><time>2026-04-26T12:51:57.455Z</time></trkpt><trkpt lat="45.9669212" lon="11.56576"><ele>1534.0</ele><time>2026-04-26T12:51:59.454Z</time></trkpt><trkpt lat="45.9669734" lon="11.5658513"><ele>1534.0</ele><time>2026-04-26T12:52:00.454Z</time></trkpt><trkpt lat="45.967033" lon="11.5659366"><ele>1534.0</ele><time>2026-04-26T12:52:01.454Z</time></trkpt><trkpt lat="45.9671073" lon="11.5660189"><ele>1534.0</ele><time>2026-04-26T12:52:02.454Z</time></trkpt><trkpt lat="45.9671728" lon="11.5660916"><ele>1534.0</ele><time>2026-04-26T12:52:03.454Z</time></trkpt><trkpt lat="45.9672381" lon="11.5661777"><ele>1534.0</ele><time>2026-04-26T12:52:04.454Z</time></trkpt><trkpt lat="45.9673208" lon="11.5662789"><ele>1533.6666666666665</ele><time>2026-04-26T12:52:05.454Z</time></trkpt><trkpt lat="45.9673846" lon="11.5663713"><ele>1533.3333333333333</ele><time>2026-04-26T12:52:06.455Z</time></trkpt><trkpt lat="45.9674481" lon="11.5664597"><ele>1533.0</ele><time>2026-04-26T12:52:07.454Z</time></trkpt><trkpt lat="45.967507" lon="11.5665149"><ele>1532.6666666666667</ele><time>2026-04-26T12:52:08.454Z</time></trkpt><trkpt lat="45.9676214" lon="11.5665484"><ele>1532.3333333333335</ele><time>2026-04-26T12:52:10.454Z</time></trkpt><trkpt lat="45.9676907" lon="11.5665646"><ele>1532.0</ele><time>2026-04-26T12:52:11.454Z</time></trkpt><trkpt lat="45.9677672" lon="11.566526"><ele>1532.0</ele><time>2026-04-26T12:52:13.454Z</time></trkpt><trkpt lat="45.9677276" lon="11.5664247"><ele>1532.0</ele><time>2026-04-26T12:52:15.454Z</time></trkpt><trkpt lat="45.9676119" lon="11.5663867"><ele>1532.0</ele><time>2026-04-26T12:52:17.454Z</time></trkpt><trkpt lat="45.9675172" lon="11.5663394"><ele>1532.0</ele><time>2026-04-26T12:52:19.454Z</time></trkpt><trkpt lat="45.9674677" lon="11.5662783"><ele>1532.0</ele><time>2026-04-26T12:52:20.455Z</time></trkpt><trkpt lat="45.9674263" lon="11.5661934"><ele>1532.0</ele><time>2026-04-26T12:52:21.454Z</time></trkpt><trkpt lat="45.9673777" lon="11.5660916"><ele>1532.3999999999999</ele><time>2026-04-26T12:52:22.455Z</time></trkpt><trkpt lat="45.9673462" lon="11.565983"><ele>1532.8</ele><time>2026-04-26T12:52:23.455Z</time></trkpt><trkpt lat="45.9673089" lon="11.5658552"><ele>1533.2</ele><time>2026-04-26T12:52:24.454Z</time></trkpt><trkpt lat="45.9673004" lon="11.565696"><ele>1533.6</ele><time>2026-04-26T12:52:25.454Z</time></trkpt><trkpt lat="45.9672903" lon="11.5655611"><ele>1534.0</ele><time>2026-04-26T12:52:26.454Z</time></trkpt><trkpt lat="45.967264" lon="11.565434"><ele>1535.6666666666665</ele><time>2026-04-26T12:52:27.454Z</time></trkpt><trkpt lat="45.9672524" lon="11.5653298"><ele>1537.3333333333333</ele><time>2026-04-26T12:52:28.455Z</time></trkpt><trkpt lat="45.9672173" lon="11.5652538"><ele>1539.0</ele><time>2026-04-26T12:52:29.454Z</time></trkpt><trkpt lat="45.9671751" lon="11.5651717"><ele>1540.6666666666665</ele><time>2026-04-26T12:52:30.454Z</time></trkpt><trkpt lat="45.967117" lon="11.5650671"><ele>1542.3333333333333</ele><time>2026-04-26T12:52:32.454Z</time></trkpt><trkpt lat="45.9671163" lon="11.5649658"><ele>1544.0</ele><time>2026-04-26T12:52:34.454Z</time></trkpt><trkpt lat="45.9671983" lon="11.5650048"><ele>1544.0</ele><time>2026-04-26T12:52:36.455Z</time></trkpt><trkpt lat="45.9673192" lon="11.5652743"><ele>1544.0</ele><time>2026-04-26T12:52:39.454Z</time></trkpt><trkpt lat="45.9673587" lon="11.5653953"><ele>1544.0</ele><time>2026-04-26T12:52:40.454Z</time></trkpt><trkpt lat="45.9673921" lon="11.5654852"><ele>1544.0</ele><time>2026-04-26T12:52:41.454Z</time></trkpt><trkpt lat="45.9674036" lon="11.5656039"><ele>1543.8000000000002</ele><time>2026-04-26T12:52:43.454Z</time></trkpt><trkpt lat="45.9674197" lon="11.5657083"><ele>1543.6000000000001</ele><time>2026-04-26T12:52:45.454Z</time></trkpt><trkpt lat="45.9674377" lon="11.5658291"><ele>1543.4</ele><time>2026-04-26T12:52:47.454Z</time></trkpt><trkpt lat="45.9674916" lon="11.565939"><ele>1543.2</ele><time>2026-04-26T12:52:49.454Z</time></trkpt><trkpt lat="45.9675865" lon="11.5659749"><ele>1543.0</ele><time>2026-04-26T12:52:51.454Z</time></trkpt><trkpt lat="45.9676811" lon="11.5658835"><ele>1543.0</ele><time>2026-04-26T12:52:53.454Z</time></trkpt><trkpt lat="45.9677337" lon="11.5657972"><ele>1543.0</ele><time>2026-04-26T12:52:54.454Z</time></trkpt><trkpt lat="45.9677927" lon="11.5656869"><ele>1543.0</ele><time>2026-04-26T12:52:55.455Z</time></trkpt><trkpt lat="45.9678533" lon="11.5655977"><ele>1543.0</ele><time>2026-04-26T12:52:56.454Z</time></trkpt><trkpt lat="45.9679283" lon="11.5655187"><ele>1543.0</ele><time>2026-04-26T12:52:57.455Z</time></trkpt><trkpt lat="45.9680165" lon="11.5654632"><ele>1543.0</ele><time>2026-04-26T12:52:58.454Z</time></trkpt><trkpt lat="45.9681239" lon="11.5654275"><ele>1543.0</ele><time>2026-04-26T12:52:59.455Z</time></trkpt><trkpt lat="45.9682229" lon="11.5654074"><ele>1543.0</ele><time>2026-04-26T12:53:00.454Z</time></trkpt><trkpt lat="45.9683063" lon="11.5654057"><ele>1543.0</ele><time>2026-04-26T12:53:01.454Z</time></trkpt><trkpt lat="45.9684603" lon="11.5654946"><ele>1543.5000000000002</ele><time>2026-04-26T12:53:03.455Z</time></trkpt><trkpt lat="45.9685313" lon="11.5655409"><ele>1544.0</ele><time>2026-04-26T12:53:04.454Z</time></trkpt><trkpt lat="45.9686004" lon="11.5655768"><ele>1544.5</ele><time>2026-04-26T12:53:06.455Z</time></trkpt><trkpt lat="45.9686617" lon="11.5655289"><ele>1545.0</ele><time>2026-04-26T12:53:09.454Z</time></trkpt><trkpt lat="45.9687243" lon="11.5654684"><ele>1545.5000000000002</ele><time>2026-04-26T12:53:32.455Z</time></trkpt><trkpt lat="45.9688243" lon="11.5654245"><ele>1546.0</ele><time>2026-04-26T12:53:34.454Z</time></trkpt><trkpt lat="45.9689427" lon="11.5653997"><ele>1546.0000000000002</ele><time>2026-04-26T12:53:36.454Z</time></trkpt><trkpt lat="45.9690538" lon="11.5653658"><ele>1546.0</ele><time>2026-04-26T12:53:38.454Z</time></trkpt><trkpt lat="45.9691204" lon="11.5653458"><ele>1546.0</ele><time>2026-04-26T12:53:41.454Z</time></trkpt><trkpt lat="45.9691896" lon="11.5653083"><ele>1546.0</ele><time>2026-04-26T12:53:45.454Z</time></trkpt><trkpt lat="45.9692551" lon="11.5652531"><ele>1546.0000000000002</ele><time>2026-04-26T12:53:48.454Z</time></trkpt><trkpt lat="45.9692981" lon="11.5651861"><ele>1546.0</ele><time>2026-04-26T12:53:51.454Z</time></trkpt><trkpt lat="45.9693335" lon="11.5651062"><ele>1545.5000000000002</ele><time>2026-04-26T12:53:55.454Z</time></trkpt><trkpt lat="45.9693826" lon="11.565008"><ele>1545.0</ele><time>2026-04-26T12:53:59.454Z</time></trkpt><trkpt lat="45.9694388" lon="11.5649189"><ele>1544.5</ele><time>2026-04-26T12:54:03.454Z</time></trkpt><trkpt lat="45.9694869" lon="11.5648389"><ele>1544.0</ele><time>2026-04-26T12:54:06.454Z</time></trkpt><trkpt lat="45.9695402" lon="11.5647252"><ele>1543.5000000000002</ele><time>2026-04-26T12:54:09.455Z</time></trkpt><trkpt lat="45.9696073" lon="11.5646147"><ele>1543.0</ele><time>2026-04-26T12:54:11.454Z</time></trkpt><trkpt lat="45.969655" lon="11.5645317"><ele>1542.6666666666667</ele><time>2026-04-26T12:54:13.455Z</time></trkpt><trkpt lat="45.969722" lon="11.5644292"><ele>1542.3333333333335</ele><time>2026-04-26T12:54:16.455Z</time></trkpt><trkpt lat="45.969778" lon="11.5643674"><ele>1542.0</ele><time>2026-04-26T12:54:18.454Z</time></trkpt><trkpt lat="45.9698368" lon="11.5643016"><ele>1541.6666666666665</ele><time>2026-04-26T12:54:22.454Z</time></trkpt><trkpt lat="45.9698041" lon="11.5642196"><ele>1541.3333333333333</ele><time>2026-04-26T12:55:52.454Z</time></trkpt><trkpt lat="45.9697454" lon="11.5643568"><ele>1541.0</ele><time>2026-04-26T12:55:55.454Z</time></trkpt><trkpt lat="45.969699" lon="11.5644765"><ele>1541.3333333333333</ele><time>2026-04-26T12:55:57.454Z</time></trkpt><trkpt lat="45.9696388" lon="11.564586"><ele>1541.6666666666665</ele><time>2026-04-26T12:55:59.455Z</time></trkpt><trkpt lat="45.9695756" lon="11.5646766"><ele>1542.0</ele><time>2026-04-26T12:56:01.454Z</time></trkpt><trkpt lat="45.9695311" lon="11.5647664"><ele>1542.3333333333335</ele><time>2026-04-26T12:56:03.454Z</time></trkpt><trkpt lat="45.9694819" lon="11.5648568"><ele>1542.6666666666667</ele><time>2026-04-26T12:56:05.455Z</time></trkpt><trkpt lat="45.9694329" lon="11.564932"><ele>1543.0</ele><time>2026-04-26T12:56:07.454Z</time></trkpt><trkpt lat="45.969376" lon="11.565014"><ele>1543.0</ele><time>2026-04-26T12:56:10.455Z</time></trkpt><trkpt lat="45.9693263" lon="11.5650865"><ele>1543.0</ele><time>2026-04-26T12:56:12.454Z</time></trkpt><trkpt lat="45.9692548" lon="11.5651717"><ele>1543.0</ele><time>2026-04-26T12:56:14.455Z</time></trkpt><trkpt lat="45.9691817" lon="11.565266"><ele>1543.0</ele><time>2026-04-26T12:56:16.454Z</time></trkpt><trkpt lat="45.9690616" lon="11.5653617"><ele>1543.0</ele><time>2026-04-26T12:56:18.454Z</time></trkpt><trkpt lat="45.9689906" lon="11.5653949"><ele>1543.6000000000001</ele><time>2026-04-26T12:56:19.454Z</time></trkpt><trkpt lat="45.9689107" lon="11.5654462"><ele>1544.2</ele><time>2026-04-26T12:56:20.455Z</time></trkpt><trkpt lat="45.968835" lon="11.56547"><ele>1544.8</ele><time>2026-04-26T12:56:21.454Z</time></trkpt><trkpt lat="45.9687201" lon="11.5654839"><ele>1545.4</ele><time>2026-04-26T12:56:23.454Z</time></trkpt><trkpt lat="45.9686255" lon="11.5654401"><ele>1546.0</ele><time>2026-04-26T12:56:25.455Z</time></trkpt><trkpt lat="45.9685754" lon="11.5653573"><ele>1546.6666666666667</ele><time>2026-04-26T12:56:28.454Z</time></trkpt><trkpt lat="45.9685356" lon="11.5652726"><ele>1547.3333333333335</ele><time>2026-04-26T12:56:32.455Z</time></trkpt><trkpt lat="45.9684869" lon="11.5651941"><ele>1548.0</ele><time>2026-04-26T12:56:34.455Z</time></trkpt><trkpt lat="45.9684269" lon="11.5650751"><ele>1548.6666666666665</ele><time>2026-04-26T12:56:36.454Z</time></trkpt><trkpt lat="45.9683272" lon="11.5649699"><ele>1549.3333333333333</ele><time>2026-04-26T12:56:38.454Z</time></trkpt><trkpt lat="45.968268" lon="11.5649282"><ele>1550.0</ele><time>2026-04-26T12:56:39.455Z</time></trkpt><trkpt lat="45.9682081" lon="11.5648957"><ele>1550.1666666666665</ele><time>2026-04-26T12:56:40.455Z</time></trkpt><trkpt lat="45.9681455" lon="11.5648719"><ele>1550.3333333333333</ele><time>2026-04-26T12:56:41.455Z</time></trkpt><trkpt lat="45.9680835" lon="11.5648501"><ele>1550.5</ele><time>2026-04-26T12:56:42.455Z</time></trkpt><trkpt lat="45.9680184" lon="11.564829"><ele>1550.6666666666665</ele><time>2026-04-26T12:56:43.454Z</time></trkpt><trkpt lat="45.9678968" lon="11.5647397"><ele>1550.8333333333333</ele><time>2026-04-26T12:56:45.454Z</time></trkpt><trkpt lat="45.9678474" lon="11.5646666"><ele>1551.0</ele><time>2026-04-26T12:56:46.455Z</time></trkpt><trkpt lat="45.9678004" lon="11.5645872"><ele>1551.0</ele><time>2026-04-26T12:56:47.455Z</time></trkpt><trkpt lat="45.9677577" lon="11.5644902"><ele>1551.0</ele><time>2026-04-26T12:56:48.454Z</time></trkpt><trkpt lat="45.9676978" lon="11.5643909"><ele>1551.0</ele><time>2026-04-26T12:56:49.454Z</time></trkpt><trkpt lat="45.9676432" lon="11.5642933"><ele>1551.0</ele><time>2026-04-26T12:56:50.454Z</time></trkpt><trkpt lat="45.9675814" lon="11.564192"><ele>1551.0</ele><time>2026-04-26T12:56:51.454Z</time></trkpt><trkpt lat="45.9675236" lon="11.5640855"><ele>1551.0</ele><time>2026-04-26T12:56:52.454Z</time></trkpt><trkpt lat="45.9674673" lon="11.5639794"><ele>1551.0</ele><time>2026-04-26T12:56:53.454Z</time></trkpt><trkpt lat="45.9674022" lon="11.563878"><ele>1551.0</ele><time>2026-04-26T12:56:54.454Z</time></trkpt><trkpt lat="45.9673391" lon="11.5637728"><ele>1551.0</ele><time>2026-04-26T12:56:55.455Z</time></trkpt><trkpt lat="45.9672781" lon="11.5636705"><ele>1551.0</ele><time>2026-04-26T12:56:56.454Z</time></trkpt><trkpt lat="45.9672202" lon="11.5635577"><ele>1551.0</ele><time>2026-04-26T12:56:57.454Z</time></trkpt><trkpt lat="45.967153" lon="11.5634607"><ele>1551.8333333333333</ele><time>2026-04-26T12:56:58.454Z</time></trkpt><trkpt lat="45.9670881" lon="11.5633694"><ele>1552.6666666666665</ele><time>2026-04-26T12:56:59.455Z</time></trkpt><trkpt lat="45.9670243" lon="11.5632855"><ele>1553.5</ele><time>2026-04-26T12:57:00.455Z</time></trkpt><trkpt lat="45.966976" lon="11.5632161"><ele>1554.3333333333333</ele><time>2026-04-26T12:57:01.454Z</time></trkpt><trkpt lat="45.9669268" lon="11.5631478"><ele>1555.1666666666665</ele><time>2026-04-26T12:57:02.455Z</time></trkpt><trkpt lat="45.9668649" lon="11.5630679"><ele>1556.0</ele><time>2026-04-26T12:57:04.454Z</time></trkpt><trkpt lat="45.9667962" lon="11.5629785"><ele>1556.0</ele><time>2026-04-26T12:57:07.454Z</time></trkpt><trkpt lat="45.96674" lon="11.5629133"><ele>1556.0</ele><time>2026-04-26T12:57:11.454Z</time></trkpt><trkpt lat="45.9666663" lon="11.5628482"><ele>1556.0</ele><time>2026-04-26T12:57:15.454Z</time></trkpt><trkpt lat="45.9665998" lon="11.5627944"><ele>1556.0</ele><time>2026-04-26T12:57:18.455Z</time></trkpt><trkpt lat="45.9665383" lon="11.5627494"><ele>1556.0</ele><time>2026-04-26T12:57:21.454Z</time></trkpt><trkpt lat="45.9664682" lon="11.5627029"><ele>1556.0</ele><time>2026-04-26T12:57:24.454Z</time></trkpt><trkpt lat="45.9664094" lon="11.5626647"><ele>1556.0</ele><time>2026-04-26T12:57:26.455Z</time></trkpt><trkpt lat="45.9663457" lon="11.5626272"><ele>1557.0</ele><time>2026-04-26T12:57:29.455Z</time></trkpt><trkpt lat="45.9662717" lon="11.5625561"><ele>1558.0</ele><time>2026-04-26T12:57:33.454Z</time></trkpt><trkpt lat="45.9661983" lon="11.5624711"><ele>1559.0</ele><time>2026-04-26T12:57:36.455Z</time></trkpt><trkpt lat="45.9661229" lon="11.5623887"><ele>1560.0</ele><time>2026-04-26T12:57:38.454Z</time></trkpt><trkpt lat="45.9660422" lon="11.5622791"><ele>1561.0</ele><time>2026-04-26T12:57:40.454Z</time></trkpt><trkpt lat="45.9659469" lon="11.5621723"><ele>1561.0</ele><time>2026-04-26T12:57:42.454Z</time></trkpt><trkpt lat="45.9658627" lon="11.5620581"><ele>1561.0</ele><time>2026-04-26T12:57:44.454Z</time></trkpt><trkpt lat="45.9658046" lon="11.5619398"><ele>1561.0</ele><time>2026-04-26T12:57:46.454Z</time></trkpt><trkpt lat="45.965746" lon="11.5618088"><ele>1561.0</ele><time>2026-04-26T12:57:48.454Z</time></trkpt><trkpt lat="45.9657099" lon="11.561697"><ele>1561.0</ele><time>2026-04-26T12:57:51.455Z</time></trkpt><trkpt lat="45.965677" lon="11.5616143"><ele>1560.5000000000002</ele><time>2026-04-26T12:57:54.455Z</time></trkpt><trkpt lat="45.9656335" lon="11.5614854"><ele>1560.0</ele><time>2026-04-26T12:57:58.454Z</time></trkpt><trkpt lat="45.9656047" lon="11.5613976"><ele>1559.5</ele><time>2026-04-26T12:58:00.454Z</time></trkpt><trkpt lat="45.9655671" lon="11.5613063"><ele>1559.0</ele><time>2026-04-26T12:58:02.454Z</time></trkpt><trkpt lat="45.9655318" lon="11.5612162"><ele>1558.5000000000002</ele><time>2026-04-26T12:58:04.455Z</time></trkpt><trkpt lat="45.9655004" lon="11.5611328"><ele>1558.0</ele><time>2026-04-26T12:58:06.454Z</time></trkpt><trkpt lat="45.9654394" lon="11.5609766"><ele>1558.0</ele><time>2026-04-26T12:58:09.454Z</time></trkpt><trkpt lat="45.9654013" lon="11.5608709"><ele>1558.0</ele><time>2026-04-26T12:58:11.454Z</time></trkpt><trkpt lat="45.9653819" lon="11.5607545"><ele>1558.0</ele><time>2026-04-26T12:58:13.455Z</time></trkpt><trkpt lat="45.9653641" lon="11.5606027"><ele>1558.0</ele><time>2026-04-26T12:58:15.454Z</time></trkpt><trkpt lat="45.9653599" lon="11.5604185"><ele>1558.0</ele><time>2026-04-26T12:58:17.454Z</time></trkpt><trkpt lat="45.9653506" lon="11.5602089"><ele>1558.8000000000002</ele><time>2026-04-26T12:58:19.454Z</time></trkpt><trkpt lat="45.9653479" lon="11.5601077"><ele>1559.6</ele><time>2026-04-26T12:58:20.455Z</time></trkpt><trkpt lat="45.9653366" lon="11.5600034"><ele>1560.4</ele><time>2026-04-26T12:58:21.454Z</time></trkpt><trkpt lat="45.9653334" lon="11.5598922"><ele>1561.1999999999998</ele><time>2026-04-26T12:58:22.455Z</time></trkpt><trkpt lat="45.9653126" lon="11.5596631"><ele>1562.0</ele><time>2026-04-26T12:58:24.454Z</time></trkpt><trkpt lat="45.9653053" lon="11.5595412"><ele>1562.3333333333333</ele><time>2026-04-26T12:58:25.454Z</time></trkpt><trkpt lat="45.9653023" lon="11.5594259"><ele>1562.6666666666665</ele><time>2026-04-26T12:58:26.454Z</time></trkpt><trkpt lat="45.9653115" lon="11.5593156"><ele>1563.0</ele><time>2026-04-26T12:58:27.454Z</time></trkpt><trkpt lat="45.9653204" lon="11.5591955"><ele>1563.3333333333335</ele><time>2026-04-26T12:58:28.454Z</time></trkpt><trkpt lat="45.9653295" lon="11.5590862"><ele>1563.6666666666667</ele><time>2026-04-26T12:58:29.454Z</time></trkpt><trkpt lat="45.9653393" lon="11.5589726"><ele>1564.0</ele><time>2026-04-26T12:58:30.454Z</time></trkpt><trkpt lat="45.9653614" lon="11.5588643"><ele>1564.0000000000002</ele><time>2026-04-26T12:58:31.454Z</time></trkpt><trkpt lat="45.9653896" lon="11.5587513"><ele>1564.0</ele><time>2026-04-26T12:58:32.454Z</time></trkpt><trkpt lat="45.9654168" lon="11.5586403"><ele>1564.0</ele><time>2026-04-26T12:58:33.455Z</time></trkpt><trkpt lat="45.9654485" lon="11.5585285"><ele>1564.0</ele><time>2026-04-26T12:58:34.454Z</time></trkpt><trkpt lat="45.9654912" lon="11.558433"><ele>1564.0000000000002</ele><time>2026-04-26T12:58:35.455Z</time></trkpt><trkpt lat="45.9655284" lon="11.5583233"><ele>1564.0</ele><time>2026-04-26T12:58:36.454Z</time></trkpt><trkpt lat="45.9655669" lon="11.5582054"><ele>1563.5000000000002</ele><time>2026-04-26T12:58:37.454Z</time></trkpt><trkpt lat="45.965611" lon="11.5581001"><ele>1563.0</ele><time>2026-04-26T12:58:38.454Z</time></trkpt><trkpt lat="45.9656518" lon="11.5580064"><ele>1562.5</ele><time>2026-04-26T12:58:39.455Z</time></trkpt><trkpt lat="45.9657025" lon="11.5579105"><ele>1562.0</ele><time>2026-04-26T12:58:40.454Z</time></trkpt><trkpt lat="45.9657476" lon="11.5578288"><ele>1561.5000000000002</ele><time>2026-04-26T12:58:42.454Z</time></trkpt><trkpt lat="45.9657859" lon="11.5577546"><ele>1561.0</ele><time>2026-04-26T12:58:46.454Z</time></trkpt><trkpt lat="45.965854" lon="11.5576905"><ele>1560.6</ele><time>2026-04-26T12:58:50.454Z</time></trkpt><trkpt lat="45.9659252" lon="11.5576256"><ele>1560.1999999999998</ele><time>2026-04-26T12:58:53.454Z</time></trkpt><trkpt lat="45.9659822" lon="11.5575591"><ele>1559.8000000000002</ele><time>2026-04-26T12:58:55.454Z</time></trkpt><trkpt lat="45.9660418" lon="11.557448"><ele>1559.4</ele><time>2026-04-26T12:58:57.454Z</time></trkpt><trkpt lat="45.9660965" lon="11.5572897"><ele>1559.0</ele><time>2026-04-26T12:58:59.454Z</time></trkpt><trkpt lat="45.9661178" lon="11.5571083"><ele>1558.8333333333333</ele><time>2026-04-26T12:59:01.454Z</time></trkpt><trkpt lat="45.9661059" lon="11.5570068"><ele>1558.6666666666665</ele><time>2026-04-26T12:59:02.454Z</time></trkpt><trkpt lat="45.9660753" lon="11.556915"><ele>1558.5</ele><time>2026-04-26T12:59:03.455Z</time></trkpt><trkpt lat="45.9660446" lon="11.5568305"><ele>1558.3333333333335</ele><time>2026-04-26T12:59:04.454Z</time></trkpt><trkpt lat="45.9659929" lon="11.5567433"><ele>1558.1666666666667</ele><time>2026-04-26T12:59:05.454Z</time></trkpt><trkpt lat="45.9659317" lon="11.55666"><ele>1558.0</ele><time>2026-04-26T12:59:06.455Z</time></trkpt><trkpt lat="45.9658646" lon="11.5565721"><ele>1558.0</ele><time>2026-04-26T12:59:07.454Z</time></trkpt><trkpt lat="45.9657177" lon="11.5563863"><ele>1558.0</ele><time>2026-04-26T12:59:09.455Z</time></trkpt><trkpt lat="45.9656353" lon="11.556299"><ele>1558.0</ele><time>2026-04-26T12:59:10.455Z</time></trkpt><trkpt lat="45.9655537" lon="11.5561964"><ele>1558.0</ele><time>2026-04-26T12:59:11.455Z</time></trkpt><trkpt lat="45.9654745" lon="11.5560945"><ele>1558.0</ele><time>2026-04-26T12:59:12.454Z</time></trkpt><trkpt lat="45.9654063" lon="11.5559777"><ele>1558.0</ele><time>2026-04-26T12:59:13.455Z</time></trkpt><trkpt lat="45.9653431" lon="11.5558504"><ele>1558.0</ele><time>2026-04-26T12:59:14.454Z</time></trkpt><trkpt lat="45.9652732" lon="11.5557286"><ele>1558.0</ele><time>2026-04-26T12:59:15.454Z</time></trkpt><trkpt lat="45.9651045" lon="11.5555083"><ele>1557.0</ele><time>2026-04-26T12:59:17.455Z</time></trkpt><trkpt lat="45.9650111" lon="11.555432"><ele>1556.0</ele><time>2026-04-26T12:59:18.454Z</time></trkpt><trkpt lat="45.9649143" lon="11.5553752"><ele>1555.0</ele><time>2026-04-26T12:59:19.455Z</time></trkpt><trkpt lat="45.964735" lon="11.5553053"><ele>1554.0</ele><time>2026-04-26T12:59:21.455Z</time></trkpt><trkpt lat="45.9646765" lon="11.5552621"><ele>1555.5</ele><time>2026-04-26T12:59:22.454Z</time></trkpt><trkpt lat="45.964617" lon="11.5551966"><ele>1557.0</ele><time>2026-04-26T12:59:23.455Z</time></trkpt><trkpt lat="45.9645531" lon="11.5551066"><ele>1558.5</ele><time>2026-04-26T12:59:24.454Z</time></trkpt><trkpt lat="45.9644955" lon="11.5550407"><ele>1560.0</ele><time>2026-04-26T12:59:25.455Z</time></trkpt><trkpt lat="45.9644283" lon="11.5549896"><ele>1561.5</ele><time>2026-04-26T12:59:26.455Z</time></trkpt><trkpt lat="45.9643618" lon="11.5549893"><ele>1563.0</ele><time>2026-04-26T12:59:27.454Z</time></trkpt><trkpt lat="45.9642947" lon="11.5550211"><ele>1563.0</ele><time>2026-04-26T12:59:28.454Z</time></trkpt><trkpt lat="45.9642278" lon="11.5550617"><ele>1563.0</ele><time>2026-04-26T12:59:29.454Z</time></trkpt><trkpt lat="45.9641567" lon="11.5551222"><ele>1563.0</ele><time>2026-04-26T12:59:30.454Z</time></trkpt><trkpt lat="45.9640753" lon="11.5551756"><ele>1563.0</ele><time>2026-04-26T12:59:31.454Z</time></trkpt><trkpt lat="45.9639876" lon="11.5552085"><ele>1563.0</ele><time>2026-04-26T12:59:32.454Z</time></trkpt><trkpt lat="45.9638909" lon="11.555239"><ele>1563.0</ele><time>2026-04-26T12:59:33.454Z</time></trkpt><trkpt lat="45.9637927" lon="11.5552759"><ele>1563.6666666666667</ele><time>2026-04-26T12:59:34.454Z</time></trkpt><trkpt lat="45.9636947" lon="11.555302"><ele>1564.3333333333335</ele><time>2026-04-26T12:59:35.454Z</time></trkpt><trkpt lat="45.9636183" lon="11.5553096"><ele>1565.0</ele><time>2026-04-26T12:59:36.455Z</time></trkpt><trkpt lat="45.9635466" lon="11.5553002"><ele>1565.6666666666667</ele><time>2026-04-26T12:59:37.454Z</time></trkpt><trkpt lat="45.9634824" lon="11.5552665"><ele>1566.3333333333335</ele><time>2026-04-26T12:59:38.454Z</time></trkpt><trkpt lat="45.9634206" lon="11.5552243"><ele>1567.0</ele><time>2026-04-26T12:59:39.454Z</time></trkpt><trkpt lat="45.9633364" lon="11.5551224"><ele>1567.3999999999999</ele><time>2026-04-26T12:59:40.454Z</time></trkpt><trkpt lat="45.9632618" lon="11.5550364"><ele>1567.8</ele><time>2026-04-26T12:59:41.454Z</time></trkpt><trkpt lat="45.9631606" lon="11.5550089"><ele>1568.2</ele><time>2026-04-26T12:59:42.455Z</time></trkpt><trkpt lat="45.9630855" lon="11.5549534"><ele>1568.6</ele><time>2026-04-26T12:59:43.454Z</time></trkpt><trkpt lat="45.9630232" lon="11.5548785"><ele>1569.0</ele><time>2026-04-26T12:59:44.454Z</time></trkpt><trkpt lat="45.9629608" lon="11.5547775"><ele>1569.0</ele><time>2026-04-26T12:59:45.454Z</time></trkpt><trkpt lat="45.9629059" lon="11.5546604"><ele>1569.0</ele><time>2026-04-26T12:59:46.454Z</time></trkpt><trkpt lat="45.9628584" lon="11.5545419"><ele>1569.0</ele><time>2026-04-26T12:59:47.455Z</time></trkpt><trkpt lat="45.9628203" lon="11.5544249"><ele>1569.0</ele><time>2026-04-26T12:59:48.454Z</time></trkpt><trkpt lat="45.9627871" lon="11.5543171"><ele>1569.0</ele><time>2026-04-26T12:59:49.454Z</time></trkpt><trkpt lat="45.9627436" lon="11.5542375"><ele>1569.0</ele><time>2026-04-26T12:59:50.455Z</time></trkpt><trkpt lat="45.9626918" lon="11.5541803"><ele>1570.2</ele><time>2026-04-26T12:59:51.454Z</time></trkpt><trkpt lat="45.9626249" lon="11.5541619"><ele>1571.4</ele><time>2026-04-26T12:59:52.454Z</time></trkpt><trkpt lat="45.9625426" lon="11.5541671"><ele>1572.6</ele><time>2026-04-26T12:59:53.454Z</time></trkpt><trkpt lat="45.9624645" lon="11.5541756"><ele>1573.8</ele><time>2026-04-26T12:59:54.454Z</time></trkpt><trkpt lat="45.9623456" lon="11.5541942"><ele>1575.0</ele><time>2026-04-26T12:59:56.454Z</time></trkpt><trkpt lat="45.9622377" lon="11.5542358"><ele>1575.0</ele><time>2026-04-26T12:59:58.455Z</time></trkpt><trkpt lat="45.9621541" lon="11.5542699"><ele>1575.0</ele><time>2026-04-26T13:00:00.455Z</time></trkpt><trkpt lat="45.962077" lon="11.5542892"><ele>1575.0</ele><time>2026-04-26T13:00:03.454Z</time></trkpt><trkpt lat="45.962003" lon="11.5543014"><ele>1575.0</ele><time>2026-04-26T13:00:14.454Z</time></trkpt><trkpt lat="45.9619339" lon="11.5542987"><ele>1575.0</ele><time>2026-04-26T13:00:17.455Z</time></trkpt><trkpt lat="45.9618503" lon="11.5543284"><ele>1575.0</ele><time>2026-04-26T13:11:36.45Z</time></trkpt><trkpt lat="45.9617889" lon="11.554389"><ele>1575.0</ele><time>2026-04-26T13:11:39.45Z</time></trkpt><trkpt lat="45.9617316" lon="11.5544421"><ele>1575.0</ele><time>2026-04-26T13:11:41.451Z</time></trkpt><trkpt lat="45.9615947" lon="11.5544634"><ele>1575.0</ele><time>2026-04-26T13:11:42.45Z</time></trkpt><trkpt lat="45.9615542" lon="11.554394"><ele>1575.0</ele><time>2026-04-26T13:11:43.451Z</time></trkpt><trkpt lat="45.9614584" lon="11.5543902"><ele>1575.0</ele><time>2026-04-26T13:11:45.45Z</time></trkpt><trkpt lat="45.9613703" lon="11.5544074"><ele>1575.3333333333333</ele><time>2026-04-26T13:11:47.45Z</time></trkpt><trkpt lat="45.9612781" lon="11.554432"><ele>1575.6666666666665</ele><time>2026-04-26T13:11:49.45Z</time></trkpt><trkpt lat="45.9611949" lon="11.554459"><ele>1576.0</ele><time>2026-04-26T13:11:51.451Z</time></trkpt><trkpt lat="45.9611263" lon="11.5544953"><ele>1576.3333333333333</ele><time>2026-04-26T13:11:53.45Z</time></trkpt><trkpt lat="45.9610638" lon="11.5545135"><ele>1576.6666666666665</ele><time>2026-04-26T13:11:55.451Z</time></trkpt><trkpt lat="45.9609941" lon="11.5545416"><ele>1577.0</ele><time>2026-04-26T13:11:58.451Z</time></trkpt><trkpt lat="45.9609317" lon="11.5545798"><ele>1576.4285714285716</ele><time>2026-04-26T13:12:01.451Z</time></trkpt><trkpt lat="45.9608732" lon="11.5546156"><ele>1575.8571428571427</ele><time>2026-04-26T13:12:03.45Z</time></trkpt><trkpt lat="45.9607877" lon="11.554682"><ele>1575.2857142857142</ele><time>2026-04-26T13:12:05.45Z</time></trkpt><trkpt lat="45.9607201" lon="11.5547067"><ele>1574.7142857142858</ele><time>2026-04-26T13:12:07.45Z</time></trkpt><trkpt lat="45.9606543" lon="11.5547421"><ele>1574.1428571428573</ele><time>2026-04-26T13:12:10.45Z</time></trkpt><trkpt lat="45.9605947" lon="11.5547752"><ele>1573.5714285714284</ele><time>2026-04-26T13:12:13.45Z</time></trkpt><trkpt lat="45.9605245" lon="11.5547984"><ele>1573.0</ele><time>2026-04-26T13:12:16.451Z</time></trkpt><trkpt lat="45.9604329" lon="11.5548748"><ele>1573.0</ele><time>2026-04-26T13:12:18.45Z</time></trkpt><trkpt lat="45.9603587" lon="11.5549769"><ele>1573.0</ele><time>2026-04-26T13:12:20.451Z</time></trkpt><trkpt lat="45.9602995" lon="11.5550751"><ele>1573.0</ele><time>2026-04-26T13:12:22.45Z</time></trkpt><trkpt lat="45.9602286" lon="11.5551794"><ele>1573.0</ele><time>2026-04-26T13:12:24.45Z</time></trkpt><trkpt lat="45.9601563" lon="11.5552531"><ele>1573.0</ele><time>2026-04-26T13:12:26.451Z</time></trkpt><trkpt lat="45.960082" lon="11.5552855"><ele>1572.5714285714284</ele><time>2026-04-26T13:12:27.45Z</time></trkpt><trkpt lat="45.9600162" lon="11.5553224"><ele>1572.1428571428573</ele><time>2026-04-26T13:12:28.45Z</time></trkpt><trkpt lat="45.9599382" lon="11.555357"><ele>1571.7142857142858</ele><time>2026-04-26T13:12:29.451Z</time></trkpt><trkpt lat="45.9598719" lon="11.5553954"><ele>1571.2857142857142</ele><time>2026-04-26T13:12:30.45Z</time></trkpt><trkpt lat="45.9598022" lon="11.5554192"><ele>1570.8571428571427</ele><time>2026-04-26T13:12:31.451Z</time></trkpt><trkpt lat="45.9597293" lon="11.5554628"><ele>1570.4285714285716</ele><time>2026-04-26T13:12:32.45Z</time></trkpt><trkpt lat="45.9596581" lon="11.555482"><ele>1570.0</ele><time>2026-04-26T13:12:33.45Z</time></trkpt><trkpt lat="45.9595938" lon="11.555494"><ele>1570.0000000000002</ele><time>2026-04-26T13:12:34.45Z</time></trkpt><trkpt lat="45.9595258" lon="11.5555067"><ele>1570.0</ele><time>2026-04-26T13:12:35.45Z</time></trkpt><trkpt lat="45.959406" lon="11.5555415"><ele>1570.0</ele><time>2026-04-26T13:12:37.45Z</time></trkpt><trkpt lat="45.9593463" lon="11.5555706"><ele>1570.0</ele><time>2026-04-26T13:12:38.451Z</time></trkpt><trkpt lat="45.9592839" lon="11.5555971"><ele>1570.0000000000002</ele><time>2026-04-26T13:12:39.451Z</time></trkpt><trkpt lat="45.9591814" lon="11.5555874"><ele>1570.0</ele><time>2026-04-26T13:12:41.451Z</time></trkpt><trkpt lat="45.9590964" lon="11.5555276"><ele>1570.1666666666667</ele><time>2026-04-26T13:12:43.45Z</time></trkpt><trkpt lat="45.9590392" lon="11.5554747"><ele>1570.3333333333335</ele><time>2026-04-26T13:12:45.45Z</time></trkpt><trkpt lat="45.9589797" lon="11.5554292"><ele>1570.5</ele><time>2026-04-26T13:12:47.45Z</time></trkpt><trkpt lat="45.9588999" lon="11.5553923"><ele>1570.6666666666665</ele><time>2026-04-26T13:12:50.45Z</time></trkpt><trkpt lat="45.9588102" lon="11.555356"><ele>1570.8333333333333</ele><time>2026-04-26T13:12:53.451Z</time></trkpt><trkpt lat="45.9587288" lon="11.5553313"><ele>1571.0</ele><time>2026-04-26T13:12:56.45Z</time></trkpt><trkpt lat="45.9586481" lon="11.555393"><ele>1570.9999999999998</ele><time>2026-04-26T13:13:04.45Z</time></trkpt><trkpt lat="45.9585624" lon="11.5554528"><ele>1571.0</ele><time>2026-04-26T13:13:06.451Z</time></trkpt><trkpt lat="45.9584872" lon="11.5555182"><ele>1571.0</ele><time>2026-04-26T13:13:08.45Z</time></trkpt><trkpt lat="45.958396" lon="11.5555441"><ele>1571.0</ele><time>2026-04-26T13:13:10.45Z</time></trkpt><trkpt lat="45.9583055" lon="11.5555393"><ele>1570.9999999999998</ele><time>2026-04-26T13:13:12.451Z</time></trkpt><trkpt lat="45.9582432" lon="11.555521"><ele>1571.0</ele><time>2026-04-26T13:13:14.45Z</time></trkpt><trkpt lat="45.9581797" lon="11.5555082"><ele>1572.1666666666665</ele><time>2026-04-26T13:13:22.451Z</time></trkpt><trkpt lat="45.9580975" lon="11.5554919"><ele>1573.3333333333333</ele><time>2026-04-26T13:13:25.45Z</time></trkpt><trkpt lat="45.9580246" lon="11.5554482"><ele>1574.5</ele><time>2026-04-26T13:13:28.451Z</time></trkpt><trkpt lat="45.9579909" lon="11.5553715"><ele>1575.6666666666665</ele><time>2026-04-26T13:13:30.45Z</time></trkpt><trkpt lat="45.9579657" lon="11.5552459"><ele>1576.8333333333333</ele><time>2026-04-26T13:13:32.45Z</time></trkpt><trkpt lat="45.9579392" lon="11.555125"><ele>1578.0</ele><time>2026-04-26T13:13:34.451Z</time></trkpt><trkpt lat="45.957916" lon="11.5550329"><ele>1578.7142857142856</ele><time>2026-04-26T13:13:36.45Z</time></trkpt><trkpt lat="45.9578795" lon="11.5549554"><ele>1579.4285714285713</ele><time>2026-04-26T13:13:38.451Z</time></trkpt><trkpt lat="45.9578324" lon="11.5548909"><ele>1580.142857142857</ele><time>2026-04-26T13:13:40.45Z</time></trkpt><trkpt lat="45.9577669" lon="11.5548374"><ele>1580.8571428571427</ele><time>2026-04-26T13:13:43.451Z</time></trkpt><trkpt lat="45.9576948" lon="11.5548202"><ele>1581.5714285714287</ele><time>2026-04-26T13:13:46.451Z</time></trkpt><trkpt lat="45.9576294" lon="11.5548453"><ele>1582.2857142857142</ele><time>2026-04-26T13:13:48.45Z</time></trkpt><trkpt lat="45.957551" lon="11.5549006"><ele>1583.0</ele><time>2026-04-26T13:13:51.451Z</time></trkpt><trkpt lat="45.9574827" lon="11.5549452"><ele>1583.0</ele><time>2026-04-26T13:13:53.45Z</time></trkpt><trkpt lat="45.9573927" lon="11.5550083"><ele>1583.0</ele><time>2026-04-26T13:13:55.451Z</time></trkpt><trkpt lat="45.9572694" lon="11.5550465"><ele>1583.0</ele><time>2026-04-26T13:13:57.45Z</time></trkpt><trkpt lat="45.9571656" lon="11.554995"><ele>1583.0</ele><time>2026-04-26T13:13:59.45Z</time></trkpt><trkpt lat="45.9571166" lon="11.5548489"><ele>1583.0</ele><time>2026-04-26T13:14:01.451Z</time></trkpt><trkpt lat="45.9571192" lon="11.5546511"><ele>1583.6666666666665</ele><time>2026-04-26T13:14:03.451Z</time></trkpt><trkpt lat="45.9571407" lon="11.5545308"><ele>1584.3333333333333</ele><time>2026-04-26T13:14:04.45Z</time></trkpt><trkpt lat="45.9571588" lon="11.554422"><ele>1585.0</ele><time>2026-04-26T13:14:05.45Z</time></trkpt><trkpt lat="45.957179" lon="11.5543271"><ele>1585.6666666666665</ele><time>2026-04-26T13:14:06.45Z</time></trkpt><trkpt lat="45.9571841" lon="11.5541789"><ele>1586.3333333333333</ele><time>2026-04-26T13:14:08.45Z</time></trkpt><trkpt lat="45.9571629" lon="11.5540613"><ele>1587.0</ele><time>2026-04-26T13:14:11.45Z</time></trkpt><trkpt lat="45.9570604" lon="11.553958"><ele>1587.0</ele><time>2026-04-26T13:14:27.45Z</time></trkpt><trkpt lat="45.9570015" lon="11.5538845"><ele>1587.0</ele><time>2026-04-26T13:14:30.451Z</time></trkpt><trkpt lat="45.9569559" lon="11.553789"><ele>1587.0</ele><time>2026-04-26T13:14:32.451Z</time></trkpt><trkpt lat="45.9569071" lon="11.5536496"><ele>1587.0</ele><time>2026-04-26T13:14:34.45Z</time></trkpt><trkpt lat="45.9568371" lon="11.5535223"><ele>1587.0</ele><time>2026-04-26T13:14:36.45Z</time></trkpt><trkpt lat="45.9567705" lon="11.5534805"><ele>1586.6666666666667</ele><time>2026-04-26T13:14:37.451Z</time></trkpt><trkpt lat="45.9567039" lon="11.5534267"><ele>1586.3333333333335</ele><time>2026-04-26T13:14:38.45Z</time></trkpt><trkpt lat="45.9566377" lon="11.5533661"><ele>1586.0</ele><time>2026-04-26T13:14:39.45Z</time></trkpt><trkpt lat="45.9565925" lon="11.5532823"><ele>1585.6666666666667</ele><time>2026-04-26T13:14:40.45Z</time></trkpt><trkpt lat="45.9565574" lon="11.553166"><ele>1585.3333333333335</ele><time>2026-04-26T13:14:41.45Z</time></trkpt><trkpt lat="45.956521" lon="11.5530414"><ele>1585.0</ele><time>2026-04-26T13:14:42.451Z</time></trkpt><trkpt lat="45.9564803" lon="11.5529136"><ele>1586.5000000000002</ele><time>2026-04-26T13:14:43.45Z</time></trkpt><trkpt lat="45.9564467" lon="11.5527838"><ele>1588.0</ele><time>2026-04-26T13:14:44.45Z</time></trkpt><trkpt lat="45.9564124" lon="11.5526504"><ele>1589.5</ele><time>2026-04-26T13:14:45.451Z</time></trkpt><trkpt lat="45.9563991" lon="11.5525271"><ele>1591.0</ele><time>2026-04-26T13:14:46.451Z</time></trkpt><trkpt lat="45.9563967" lon="11.5524057"><ele>1592.5000000000002</ele><time>2026-04-26T13:14:47.45Z</time></trkpt><trkpt lat="45.9564103" lon="11.5522969"><ele>1594.0</ele><time>2026-04-26T13:14:48.45Z</time></trkpt><trkpt lat="45.9564243" lon="11.5522063"><ele>1594.0</ele><time>2026-04-26T13:14:49.45Z</time></trkpt><trkpt lat="45.956448" lon="11.5520564"><ele>1594.0</ele><time>2026-04-26T13:14:51.45Z</time></trkpt><trkpt lat="45.9564643" lon="11.5518927"><ele>1594.0</ele><time>2026-04-26T13:14:53.45Z</time></trkpt><trkpt lat="45.9564572" lon="11.5517855"><ele>1594.0</ele><time>2026-04-26T13:14:54.45Z</time></trkpt><trkpt lat="45.9564446" lon="11.5516743"><ele>1594.0</ele><time>2026-04-26T13:14:55.45Z</time></trkpt><trkpt lat="45.9564283" lon="11.5515578"><ele>1594.1666666666667</ele><time>2026-04-26T13:14:56.451Z</time></trkpt><trkpt lat="45.956401" lon="11.551457"><ele>1594.3333333333335</ele><time>2026-04-26T13:14:57.45Z</time></trkpt><trkpt lat="45.9563725" lon="11.5513692"><ele>1594.5</ele><time>2026-04-26T13:14:58.451Z</time></trkpt><trkpt lat="45.9562666" lon="11.5512619"><ele>1594.6666666666665</ele><time>2026-04-26T13:15:00.45Z</time></trkpt><trkpt lat="45.9561955" lon="11.5512518"><ele>1594.8333333333333</ele><time>2026-04-26T13:15:01.451Z</time></trkpt><trkpt lat="45.9561279" lon="11.5512492"><ele>1595.0</ele><time>2026-04-26T13:15:02.451Z</time></trkpt><trkpt lat="45.9560583" lon="11.5512508"><ele>1595.0</ele><time>2026-04-26T13:15:03.451Z</time></trkpt><trkpt lat="45.9559847" lon="11.5512535"><ele>1595.0</ele><time>2026-04-26T13:15:04.451Z</time></trkpt><trkpt lat="45.9559094" lon="11.5512504"><ele>1595.0</ele><time>2026-04-26T13:15:05.45Z</time></trkpt><trkpt lat="45.9558337" lon="11.5512463"><ele>1595.0</ele><time>2026-04-26T13:15:06.451Z</time></trkpt><trkpt lat="45.9557612" lon="11.5512394"><ele>1595.0</ele><time>2026-04-26T13:15:07.451Z</time></trkpt><trkpt lat="45.9556881" lon="11.5512244"><ele>1595.0</ele><time>2026-04-26T13:15:08.451Z</time></trkpt><trkpt lat="45.9556182" lon="11.5512104"><ele>1595.0</ele><time>2026-04-26T13:15:09.45Z</time></trkpt><trkpt lat="45.9555127" lon="11.5511701"><ele>1596.142857142857</ele><time>2026-04-26T13:15:11.451Z</time></trkpt><trkpt lat="45.9554381" lon="11.5511464"><ele>1597.2857142857142</ele><time>2026-04-26T13:15:13.451Z</time></trkpt><trkpt lat="45.9553575" lon="11.5511638"><ele>1598.4285714285716</ele><time>2026-04-26T13:15:23.45Z</time></trkpt><trkpt lat="45.9552878" lon="11.5511783"><ele>1599.5714285714284</ele><time>2026-04-26T13:15:26.45Z</time></trkpt><trkpt lat="45.955222" lon="11.5512125"><ele>1600.7142857142858</ele><time>2026-04-26T13:15:31.45Z</time></trkpt><trkpt lat="45.9551733" lon="11.5512739"><ele>1601.857142857143</ele><time>2026-04-26T13:15:34.45Z</time></trkpt><trkpt lat="45.9551544" lon="11.5513646"><ele>1603.0</ele><time>2026-04-26T13:15:40.451Z</time></trkpt><trkpt lat="45.9552155" lon="11.5514193"><ele>1600.4285714285713</ele><time>2026-04-26T13:17:01.45Z</time></trkpt><trkpt lat="45.9551777" lon="11.5515123"><ele>1597.857142857143</ele><time>2026-04-26T13:17:11.451Z</time></trkpt><trkpt lat="45.9551697" lon="11.551603"><ele>1595.2857142857142</ele><time>2026-04-26T13:17:15.45Z</time></trkpt><trkpt lat="45.9551704" lon="11.5517145"><ele>1592.7142857142858</ele><time>2026-04-26T13:17:20.451Z</time></trkpt><trkpt lat="45.9552058" lon="11.5518026"><ele>1590.142857142857</ele><time>2026-04-26T13:17:27.45Z</time></trkpt><trkpt lat="45.9552009" lon="11.5518966"><ele>1587.5714285714284</ele><time>2026-04-26T13:17:33.45Z</time></trkpt><trkpt lat="45.955204" lon="11.5519966"><ele>1585.0</ele><time>2026-04-26T13:17:36.45Z</time></trkpt><trkpt lat="45.955205" lon="11.5520878"><ele>1584.3333333333335</ele><time>2026-04-26T13:17:39.45Z</time></trkpt><trkpt lat="45.9552066" lon="11.5522005"><ele>1583.6666666666667</ele><time>2026-04-26T13:22:21.45Z</time></trkpt><trkpt lat="45.9552037" lon="11.5523074"><ele>1583.0</ele><time>2026-04-26T13:22:25.45Z</time></trkpt><trkpt lat="45.9551916" lon="11.5524244"><ele>1582.3333333333335</ele><time>2026-04-26T13:22:29.45Z</time></trkpt><trkpt lat="45.9551798" lon="11.5525184"><ele>1581.6666666666667</ele><time>2026-04-26T13:22:33.45Z</time></trkpt><trkpt lat="45.9551678" lon="11.552616"><ele>1581.0</ele><time>2026-04-26T13:22:36.45Z</time></trkpt><trkpt lat="45.9551605" lon="11.5527371"><ele>1581.0</ele><time>2026-04-26T13:22:39.45Z</time></trkpt><trkpt lat="45.9551421" lon="11.5528399"><ele>1581.0</ele><time>2026-04-26T13:22:42.45Z</time></trkpt><trkpt lat="45.955116" lon="11.5529288"><ele>1581.0</ele><time>2026-04-26T13:22:45.451Z</time></trkpt><trkpt lat="45.9550788" lon="11.553012"><ele>1581.0</ele><time>2026-04-26T13:22:48.451Z</time></trkpt><trkpt lat="45.9550176" lon="11.5530898"><ele>1581.0</ele><time>2026-04-26T13:22:59.45Z</time></trkpt><trkpt lat="45.9549655" lon="11.5531927"><ele>1581.0</ele><time>2026-04-26T13:23:53.45Z</time></trkpt><trkpt lat="45.9548682" lon="11.5533163"><ele>1582.6666666666667</ele><time>2026-04-26T13:23:55.45Z</time></trkpt><trkpt lat="45.9547921" lon="11.5534097"><ele>1584.3333333333335</ele><time>2026-04-26T13:23:57.45Z</time></trkpt><trkpt lat="45.9547397" lon="11.5535081"><ele>1586.0</ele><time>2026-04-26T13:24:00.451Z</time></trkpt><trkpt lat="45.9547047" lon="11.5535949"><ele>1587.6666666666667</ele><time>2026-04-26T13:24:03.451Z</time></trkpt><trkpt lat="45.9546829" lon="11.5536908"><ele>1589.3333333333335</ele><time>2026-04-26T13:24:06.45Z</time></trkpt><trkpt lat="45.9546563" lon="11.5537999"><ele>1591.0</ele><time>2026-04-26T13:24:09.45Z</time></trkpt><trkpt lat="45.9546287" lon="11.5538843"><ele>1591.0000000000002</ele><time>2026-04-26T13:24:11.45Z</time></trkpt><trkpt lat="45.9545524" lon="11.5539328"><ele>1591.0</ele><time>2026-04-26T13:27:45.451Z</time></trkpt><trkpt lat="45.9544637" lon="11.5540185"><ele>1591.0</ele><time>2026-04-26T13:27:47.45Z</time></trkpt><trkpt lat="45.9544044" lon="11.5540582"><ele>1591.0</ele><time>2026-04-26T13:27:48.451Z</time></trkpt><trkpt lat="45.9543382" lon="11.5540939"><ele>1591.0000000000002</ele><time>2026-04-26T13:27:49.451Z</time></trkpt><trkpt lat="45.9542753" lon="11.5541369"><ele>1591.0</ele><time>2026-04-26T13:27:50.45Z</time></trkpt><trkpt lat="45.9541917" lon="11.5542315"><ele>1591.3333333333335</ele><time>2026-04-26T13:27:52.45Z</time></trkpt><trkpt lat="45.9541305" lon="11.5543229"><ele>1591.6666666666667</ele><time>2026-04-26T13:27:54.45Z</time></trkpt><trkpt lat="45.9540979" lon="11.5544142"><ele>1592.0</ele><time>2026-04-26T13:27:56.45Z</time></trkpt><trkpt lat="45.9540637" lon="11.5544943"><ele>1592.3333333333335</ele><time>2026-04-26T13:27:59.45Z</time></trkpt><trkpt lat="45.9540009" lon="11.5545713"><ele>1592.6666666666667</ele><time>2026-04-26T13:28:01.45Z</time></trkpt><trkpt lat="45.9538876" lon="11.5546319"><ele>1593.0</ele><time>2026-04-26T13:28:03.45Z</time></trkpt><trkpt lat="45.9537766" lon="11.5546454"><ele>1593.0</ele><time>2026-04-26T13:28:05.45Z</time></trkpt><trkpt lat="45.9536762" lon="11.5547219"><ele>1593.0</ele><time>2026-04-26T13:28:07.45Z</time></trkpt><trkpt lat="45.9536283" lon="11.5548318"><ele>1593.0</ele><time>2026-04-26T13:28:09.45Z</time></trkpt><trkpt lat="45.9536147" lon="11.5549245"><ele>1593.0</ele><time>2026-04-26T13:28:11.451Z</time></trkpt><trkpt lat="45.9536037" lon="11.5550246"><ele>1593.0</ele><time>2026-04-26T13:28:13.45Z</time></trkpt><trkpt lat="45.9535959" lon="11.555117"><ele>1593.0</ele><time>2026-04-26T13:28:15.45Z</time></trkpt><trkpt lat="45.9535729" lon="11.5552312"><ele>1593.0</ele><time>2026-04-26T13:28:17.45Z</time></trkpt><trkpt lat="45.9535126" lon="11.5553316"><ele>1593.0</ele><time>2026-04-26T13:28:19.45Z</time></trkpt><trkpt lat="45.9534001" lon="11.5553559"><ele>1593.0</ele><time>2026-04-26T13:28:21.451Z</time></trkpt><trkpt lat="45.9533365" lon="11.5553613"><ele>1593.0</ele><time>2026-04-26T13:28:22.45Z</time></trkpt><trkpt lat="45.9532724" lon="11.5553685"><ele>1593.0</ele><time>2026-04-26T13:28:23.45Z</time></trkpt><trkpt lat="45.9532072" lon="11.5553806"><ele>1593.0</ele><time>2026-04-26T13:28:24.45Z</time></trkpt><trkpt lat="45.9531374" lon="11.5553788"><ele>1593.0000000000002</ele><time>2026-04-26T13:28:25.451Z</time></trkpt><trkpt lat="45.9530656" lon="11.5553753"><ele>1593.0</ele><time>2026-04-26T13:28:26.451Z</time></trkpt><trkpt lat="45.952997" lon="11.55537"><ele>1593.0</ele><time>2026-04-26T13:28:27.45Z</time></trkpt><trkpt lat="45.9529193" lon="11.5553619"><ele>1593.0</ele><time>2026-04-26T13:28:28.45Z</time></trkpt><trkpt lat="45.9528422" lon="11.5553562"><ele>1593.0</ele><time>2026-04-26T13:28:29.451Z</time></trkpt><trkpt lat="45.952765" lon="11.5553592"><ele>1593.0000000000002</ele><time>2026-04-26T13:28:30.451Z</time></trkpt><trkpt lat="45.9526911" lon="11.555357"><ele>1593.0</ele><time>2026-04-26T13:28:31.45Z</time></trkpt><trkpt lat="45.9526221" lon="11.5553579"><ele>1594.0</ele><time>2026-04-26T13:28:32.451Z</time></trkpt><trkpt lat="45.9525213" lon="11.5553599"><ele>1595.0</ele><time>2026-04-26T13:28:34.45Z</time></trkpt><trkpt lat="45.9524412" lon="11.555354"><ele>1596.0</ele><time>2026-04-26T13:28:36.451Z</time></trkpt><trkpt lat="45.9523667" lon="11.5553378"><ele>1597.0</ele><time>2026-04-26T13:28:39.451Z</time></trkpt><trkpt lat="45.9522981" lon="11.5553354"><ele>1598.0</ele><time>2026-04-26T13:29:53.45Z</time></trkpt><trkpt lat="45.9522414" lon="11.555414"><ele>1599.0</ele><time>2026-04-26T13:29:57.45Z</time></trkpt><trkpt lat="45.952144" lon="11.5554228"><ele>1599.0</ele><time>2026-04-26T13:29:59.45Z</time></trkpt><trkpt lat="45.9520471" lon="11.555446"><ele>1599.0</ele><time>2026-04-26T13:30:01.451Z</time></trkpt><trkpt lat="45.9519354" lon="11.5554614"><ele>1599.0</ele><time>2026-04-26T13:30:03.451Z</time></trkpt><trkpt lat="45.9518128" lon="11.5554739"><ele>1599.0</ele><time>2026-04-26T13:30:05.45Z</time></trkpt><trkpt lat="45.9516858" lon="11.5554705"><ele>1599.4</ele><time>2026-04-26T13:30:07.45Z</time></trkpt><trkpt lat="45.9515717" lon="11.5554934"><ele>1599.8000000000002</ele><time>2026-04-26T13:30:09.45Z</time></trkpt><trkpt lat="45.9514574" lon="11.5554982"><ele>1600.1999999999998</ele><time>2026-04-26T13:30:11.45Z</time></trkpt><trkpt lat="45.951361" lon="11.5554462"><ele>1600.6</ele><time>2026-04-26T13:30:13.45Z</time></trkpt><trkpt lat="45.951267" lon="11.5553814"><ele>1601.0</ele><time>2026-04-26T13:30:15.45Z</time></trkpt><trkpt lat="45.951177" lon="11.5553317"><ele>1601.4</ele><time>2026-04-26T13:30:17.45Z</time></trkpt><trkpt lat="45.9510768" lon="11.5552976"><ele>1601.8</ele><time>2026-04-26T13:30:19.45Z</time></trkpt><trkpt lat="45.9509636" lon="11.5552853"><ele>1602.2</ele><time>2026-04-26T13:30:21.45Z</time></trkpt><trkpt lat="45.9508554" lon="11.5552822"><ele>1602.6000000000001</ele><time>2026-04-26T13:30:23.45Z</time></trkpt><trkpt lat="45.9507616" lon="11.5552996"><ele>1603.0</ele><time>2026-04-26T13:30:25.451Z</time></trkpt><trkpt lat="45.9506918" lon="11.5553566"><ele>1602.0000000000002</ele><time>2026-04-26T13:30:28.45Z</time></trkpt><trkpt lat="45.9506265" lon="11.5553799"><ele>1601.0</ele><time>2026-04-26T13:30:38.45Z</time></trkpt><trkpt lat="45.9505516" lon="11.5553866"><ele>1600.0</ele><time>2026-04-26T13:30:41.451Z</time></trkpt><trkpt lat="45.950482" lon="11.5553959"><ele>1599.0</ele><time>2026-04-26T13:30:44.451Z</time></trkpt><trkpt lat="45.9504086" lon="11.5553955"><ele>1598.0000000000002</ele><time>2026-04-26T13:30:47.45Z</time></trkpt><trkpt lat="45.9503387" lon="11.5554064"><ele>1597.0</ele><time>2026-04-26T13:30:49.45Z</time></trkpt><trkpt lat="45.9502436" lon="11.5554366"><ele>1597.0</ele><time>2026-04-26T13:30:51.451Z</time></trkpt><trkpt lat="45.9501617" lon="11.5554717"><ele>1597.0</ele><time>2026-04-26T13:30:53.45Z</time></trkpt><trkpt lat="45.9500754" lon="11.555453"><ele>1597.0</ele><time>2026-04-26T13:30:55.45Z</time></trkpt><trkpt lat="45.9499693" lon="11.5554354"><ele>1597.0</ele><time>2026-04-26T13:30:57.45Z</time></trkpt><trkpt lat="45.949874" lon="11.5554276"><ele>1597.0</ele><time>2026-04-26T13:30:59.451Z</time></trkpt><trkpt lat="45.9497677" lon="11.5554447"><ele>1596.3333333333335</ele><time>2026-04-26T13:31:01.45Z</time></trkpt><trkpt lat="45.9496698" lon="11.5554666"><ele>1595.6666666666667</ele><time>2026-04-26T13:31:03.451Z</time></trkpt><trkpt lat="45.9495963" lon="11.5554702"><ele>1595.0</ele><time>2026-04-26T13:31:05.45Z</time></trkpt><trkpt lat="45.9495252" lon="11.5554526"><ele>1594.3333333333335</ele><time>2026-04-26T13:31:08.45Z</time></trkpt><trkpt lat="45.9494547" lon="11.5554017"><ele>1593.6666666666667</ele><time>2026-04-26T13:31:27.451Z</time></trkpt><trkpt lat="45.9493717" lon="11.5554107"><ele>1593.0</ele><time>2026-04-26T13:33:11.45Z</time></trkpt><trkpt lat="45.9493087" lon="11.5553706"><ele>1593.8333333333333</ele><time>2026-04-26T13:33:57.451Z</time></trkpt><trkpt lat="45.9492467" lon="11.5553206"><ele>1594.6666666666665</ele><time>2026-04-26T13:34:38.451Z</time></trkpt><trkpt lat="45.9491841" lon="11.5552909"><ele>1595.5</ele><time>2026-04-26T13:34:46.45Z</time></trkpt><trkpt lat="45.949101" lon="11.5552641"><ele>1596.3333333333333</ele><time>2026-04-26T13:34:50.45Z</time></trkpt><trkpt lat="45.949022" lon="11.5553054"><ele>1597.1666666666665</ele><time>2026-04-26T13:34:53.45Z</time></trkpt><trkpt lat="45.9489511" lon="11.5553644"><ele>1598.0</ele><time>2026-04-26T13:34:54.45Z</time></trkpt><trkpt lat="45.9488637" lon="11.5554381"><ele>1598.3333333333333</ele><time>2026-04-26T13:34:56.45Z</time></trkpt><trkpt lat="45.9487619" lon="11.55549"><ele>1598.6666666666665</ele><time>2026-04-26T13:34:58.451Z</time></trkpt><trkpt lat="45.9486764" lon="11.5555317"><ele>1599.0</ele><time>2026-04-26T13:35:00.45Z</time></trkpt><trkpt lat="45.9485994" lon="11.5555484"><ele>1599.3333333333335</ele><time>2026-04-26T13:35:03.45Z</time></trkpt><trkpt lat="45.9485259" lon="11.5556308"><ele>1599.6666666666667</ele><time>2026-04-26T13:35:07.451Z</time></trkpt><trkpt lat="45.9484593" lon="11.5556882"><ele>1600.0</ele><time>2026-04-26T13:35:09.451Z</time></trkpt><trkpt lat="45.9483915" lon="11.5556769"><ele>1599.8</ele><time>2026-04-26T13:35:13.45Z</time></trkpt><trkpt lat="45.9483353" lon="11.5555732"><ele>1599.6</ele><time>2026-04-26T13:35:17.45Z</time></trkpt><trkpt lat="45.9482827" lon="11.5554958"><ele>1599.4</ele><time>2026-04-26T13:35:19.451Z</time></trkpt><trkpt lat="45.9482118" lon="11.555401"><ele>1599.2</ele><time>2026-04-26T13:35:21.45Z</time></trkpt><trkpt lat="45.9481111" lon="11.5553041"><ele>1599.0</ele><time>2026-04-26T13:35:23.45Z</time></trkpt><trkpt lat="45.9480563" lon="11.5552432"><ele>1599.5</ele><time>2026-04-26T13:35:24.451Z</time></trkpt><trkpt lat="45.9480026" lon="11.5551806"><ele>1600.0</ele><time>2026-04-26T13:35:25.451Z</time></trkpt><trkpt lat="45.9479521" lon="11.5551196"><ele>1600.5</ele><time>2026-04-26T13:35:26.451Z</time></trkpt><trkpt lat="45.9478992" lon="11.5550591"><ele>1601.0</ele><time>2026-04-26T13:35:27.45Z</time></trkpt><trkpt lat="45.947785" lon="11.5549737"><ele>1601.5</ele><time>2026-04-26T13:35:29.45Z</time></trkpt><trkpt lat="45.9477363" lon="11.554911"><ele>1602.0</ele><time>2026-04-26T13:35:30.45Z</time></trkpt><trkpt lat="45.9476982" lon="11.554831"><ele>1602.0</ele><time>2026-04-26T13:35:31.45Z</time></trkpt><trkpt lat="45.9476688" lon="11.5547432"><ele>1602.0</ele><time>2026-04-26T13:35:32.45Z</time></trkpt><trkpt lat="45.9476466" lon="11.5546526"><ele>1602.0</ele><time>2026-04-26T13:35:33.45Z</time></trkpt><trkpt lat="45.9475906" lon="11.5545428"><ele>1602.0</ele><time>2026-04-26T13:35:35.451Z</time></trkpt><trkpt lat="45.9475215" lon="11.5545283"><ele>1602.0</ele><time>2026-04-26T13:35:36.45Z</time></trkpt><trkpt lat="45.9474541" lon="11.5545374"><ele>1602.0</ele><time>2026-04-26T13:35:37.45Z</time></trkpt><trkpt lat="45.9473751" lon="11.554575"><ele>1603.142857142857</ele><time>2026-04-26T13:35:38.451Z</time></trkpt><trkpt lat="45.9473104" lon="11.554615"><ele>1604.2857142857142</ele><time>2026-04-26T13:35:39.45Z</time></trkpt><trkpt lat="45.9472254" lon="11.5546577"><ele>1605.4285714285716</ele><time>2026-04-26T13:35:41.45Z</time></trkpt><trkpt lat="45.9471586" lon="11.5546608"><ele>1606.5714285714284</ele><time>2026-04-26T13:35:44.45Z</time></trkpt><trkpt lat="45.9470836" lon="11.5546592"><ele>1607.7142857142858</ele><time>2026-04-26T13:35:48.45Z</time></trkpt><trkpt lat="45.9471451" lon="11.5546302"><ele>1608.857142857143</ele><time>2026-04-26T13:37:40.45Z</time></trkpt><trkpt lat="45.9470832" lon="11.5546664"><ele>1610.0</ele><time>2026-04-26T13:39:12.45Z</time></trkpt><trkpt lat="45.9470548" lon="11.5547791"><ele>1609.9999999999998</ele><time>2026-04-26T13:48:40.44Z</time></trkpt><trkpt lat="45.9469719" lon="11.5549003"><ele>1610.0</ele><time>2026-04-26T13:48:42.441Z</time></trkpt><trkpt lat="45.9469153" lon="11.5549566"><ele>1610.0</ele><time>2026-04-26T13:48:43.441Z</time></trkpt><trkpt lat="45.9468579" lon="11.555004"><ele>1610.0</ele><time>2026-04-26T13:48:44.44Z</time></trkpt><trkpt lat="45.9467879" lon="11.5550301"><ele>1609.9999999999998</ele><time>2026-04-26T13:48:45.44Z</time></trkpt><trkpt lat="45.9467119" lon="11.5550272"><ele>1610.0</ele><time>2026-04-26T13:48:46.44Z</time></trkpt><trkpt lat="45.9466259" lon="11.5549568"><ele>1610.4999999999998</ele><time>2026-04-26T13:48:47.44Z</time></trkpt><trkpt lat="45.9465722" lon="11.5548846"><ele>1611.0</ele><time>2026-04-26T13:48:48.44Z</time></trkpt><trkpt lat="45.9465418" lon="11.5547728"><ele>1611.5</ele><time>2026-04-26T13:48:49.441Z</time></trkpt><trkpt lat="45.9465297" lon="11.5546425"><ele>1612.0</ele><time>2026-04-26T13:48:50.441Z</time></trkpt><trkpt lat="45.9465301" lon="11.5544941"><ele>1612.4999999999998</ele><time>2026-04-26T13:48:51.44Z</time></trkpt><trkpt lat="45.94653" lon="11.5543561"><ele>1613.0</ele><time>2026-04-26T13:48:52.44Z</time></trkpt><trkpt lat="45.9465352" lon="11.5542255"><ele>1613.0</ele><time>2026-04-26T13:48:53.44Z</time></trkpt><trkpt lat="45.9465488" lon="11.5541022"><ele>1613.0</ele><time>2026-04-26T13:48:54.441Z</time></trkpt><trkpt lat="45.9465614" lon="11.5539738"><ele>1613.0</ele><time>2026-04-26T13:48:55.441Z</time></trkpt><trkpt lat="45.9465952" lon="11.5538672"><ele>1613.0</ele><time>2026-04-26T13:48:56.441Z</time></trkpt><trkpt lat="45.9466387" lon="11.5537461"><ele>1613.0</ele><time>2026-04-26T13:48:57.44Z</time></trkpt><trkpt lat="45.9466952" lon="11.5536236"><ele>1612.6666666666665</ele><time>2026-04-26T13:48:58.44Z</time></trkpt><trkpt lat="45.9467446" lon="11.5535169"><ele>1612.3333333333333</ele><time>2026-04-26T13:48:59.44Z</time></trkpt><trkpt lat="45.9467914" lon="11.5534126"><ele>1612.0</ele><time>2026-04-26T13:49:00.44Z</time></trkpt><trkpt lat="45.9468204" lon="11.5533197"><ele>1611.6666666666665</ele><time>2026-04-26T13:49:01.44Z</time></trkpt><trkpt lat="45.9468126" lon="11.5531821"><ele>1611.3333333333333</ele><time>2026-04-26T13:49:03.44Z</time></trkpt><trkpt lat="45.9467093" lon="11.5532159"><ele>1611.0</ele><time>2026-04-26T13:49:05.441Z</time></trkpt><trkpt lat="45.9466669" lon="11.5533024"><ele>1611.0</ele><time>2026-04-26T13:49:06.44Z</time></trkpt><trkpt lat="45.9466219" lon="11.5533882"><ele>1611.0</ele><time>2026-04-26T13:49:07.44Z</time></trkpt><trkpt lat="45.9465686" lon="11.5534879"><ele>1611.0</ele><time>2026-04-26T13:49:08.44Z</time></trkpt><trkpt lat="45.9465051" lon="11.5535905"><ele>1611.0</ele><time>2026-04-26T13:49:09.44Z</time></trkpt><trkpt lat="45.9464357" lon="11.5536936"><ele>1611.0</ele><time>2026-04-26T13:49:10.441Z</time></trkpt><trkpt lat="45.9463597" lon="11.5537929"><ele>1611.4</ele><time>2026-04-26T13:49:11.44Z</time></trkpt><trkpt lat="45.9462904" lon="11.5538822"><ele>1611.8</ele><time>2026-04-26T13:49:12.441Z</time></trkpt><trkpt lat="45.9462102" lon="11.5539763"><ele>1612.2</ele><time>2026-04-26T13:49:13.441Z</time></trkpt><trkpt lat="45.9461313" lon="11.5540713"><ele>1612.6000000000001</ele><time>2026-04-26T13:49:14.44Z</time></trkpt><trkpt lat="45.9460492" lon="11.5541551"><ele>1613.0</ele><time>2026-04-26T13:49:15.44Z</time></trkpt><trkpt lat="45.9459655" lon="11.5542258"><ele>1611.0</ele><time>2026-04-26T13:49:16.44Z</time></trkpt><trkpt lat="45.9458775" lon="11.5542892"><ele>1609.0</ele><time>2026-04-26T13:49:17.44Z</time></trkpt><trkpt lat="45.9457906" lon="11.5543338"><ele>1607.0</ele><time>2026-04-26T13:49:18.44Z</time></trkpt><trkpt lat="45.9457009" lon="11.5543565"><ele>1605.0</ele><time>2026-04-26T13:49:19.44Z</time></trkpt><trkpt lat="45.9456118" lon="11.554364"><ele>1603.0</ele><time>2026-04-26T13:49:20.44Z</time></trkpt><trkpt lat="45.945526" lon="11.5543575"><ele>1603.0000000000002</ele><time>2026-04-26T13:49:21.44Z</time></trkpt><trkpt lat="45.9454467" lon="11.5543359"><ele>1603.0</ele><time>2026-04-26T13:49:22.44Z</time></trkpt><trkpt lat="45.9453693" lon="11.5543097"><ele>1603.0</ele><time>2026-04-26T13:49:23.44Z</time></trkpt><trkpt lat="45.9453043" lon="11.5542631"><ele>1603.0</ele><time>2026-04-26T13:49:24.44Z</time></trkpt><trkpt lat="45.9452662" lon="11.5541804"><ele>1603.0000000000002</ele><time>2026-04-26T13:49:25.441Z</time></trkpt><trkpt lat="45.945258" lon="11.5540773"><ele>1603.0</ele><time>2026-04-26T13:49:26.44Z</time></trkpt><trkpt lat="45.945279" lon="11.5539647"><ele>1603.0000000000002</ele><time>2026-04-26T13:49:27.44Z</time></trkpt><trkpt lat="45.9452993" lon="11.5538555"><ele>1603.0</ele><time>2026-04-26T13:49:28.44Z</time></trkpt><trkpt lat="45.9453235" lon="11.5537435"><ele>1603.0</ele><time>2026-04-26T13:49:29.441Z</time></trkpt><trkpt lat="45.9453448" lon="11.5536267"><ele>1603.0</ele><time>2026-04-26T13:49:30.44Z</time></trkpt><trkpt lat="45.9453576" lon="11.553503"><ele>1603.0000000000002</ele><time>2026-04-26T13:49:31.44Z</time></trkpt><trkpt lat="45.9453682" lon="11.5533844"><ele>1603.0</ele><time>2026-04-26T13:49:32.441Z</time></trkpt><trkpt lat="45.945368" lon="11.5532559"><ele>1602.5000000000002</ele><time>2026-04-26T13:49:33.44Z</time></trkpt><trkpt lat="45.945355" lon="11.5531196"><ele>1602.0</ele><time>2026-04-26T13:49:34.44Z</time></trkpt><trkpt lat="45.9453334" lon="11.5529944"><ele>1601.5</ele><time>2026-04-26T13:49:35.44Z</time></trkpt><trkpt lat="45.945308" lon="11.5528786"><ele>1601.0</ele><time>2026-04-26T13:49:36.44Z</time></trkpt><trkpt lat="45.9452785" lon="11.5527686"><ele>1600.5000000000002</ele><time>2026-04-26T13:49:37.441Z</time></trkpt><trkpt lat="45.9452494" lon="11.5526654"><ele>1600.0</ele><time>2026-04-26T13:49:38.441Z</time></trkpt><trkpt lat="45.9452206" lon="11.5525581"><ele>1600.0000000000002</ele><time>2026-04-26T13:49:39.44Z</time></trkpt><trkpt lat="45.9451963" lon="11.552458"><ele>1600.0</ele><time>2026-04-26T13:49:40.441Z</time></trkpt><trkpt lat="45.9451743" lon="11.552356"><ele>1600.0</ele><time>2026-04-26T13:49:41.44Z</time></trkpt><trkpt lat="45.9451636" lon="11.5522536"><ele>1600.0</ele><time>2026-04-26T13:49:42.44Z</time></trkpt><trkpt lat="45.9451534" lon="11.5521542"><ele>1600.0000000000002</ele><time>2026-04-26T13:49:43.44Z</time></trkpt><trkpt lat="45.9451084" lon="11.5520345"><ele>1600.0</ele><time>2026-04-26T13:49:45.44Z</time></trkpt><trkpt lat="45.9450108" lon="11.5520503"><ele>1596.0</ele><time>2026-04-26T13:49:47.44Z</time></trkpt><trkpt lat="45.9449813" lon="11.5521396"><ele>1592.0</ele><time>2026-04-26T13:49:48.44Z</time></trkpt><trkpt lat="45.9449696" lon="11.5522634"><ele>1588.0</ele><time>2026-04-26T13:49:49.44Z</time></trkpt><trkpt lat="45.9449492" lon="11.5523985"><ele>1584.0</ele><time>2026-04-26T13:49:50.44Z</time></trkpt><trkpt lat="45.9449142" lon="11.5525485"><ele>1580.0</ele><time>2026-04-26T13:49:51.44Z</time></trkpt><trkpt lat="45.9448713" lon="11.5526984"><ele>1580.0</ele><time>2026-04-26T13:49:52.44Z</time></trkpt><trkpt lat="45.9448127" lon="11.5528491"><ele>1580.0</ele><time>2026-04-26T13:49:53.44Z</time></trkpt><trkpt lat="45.9447371" lon="11.5529998"><ele>1580.0</ele><time>2026-04-26T13:49:54.44Z</time></trkpt><trkpt lat="45.9446455" lon="11.5531443"><ele>1580.0</ele><time>2026-04-26T13:49:55.44Z</time></trkpt><trkpt lat="45.9445423" lon="11.5532796"><ele>1579.0</ele><time>2026-04-26T13:49:56.441Z</time></trkpt><trkpt lat="45.9444394" lon="11.5534024"><ele>1578.0</ele><time>2026-04-26T13:49:57.44Z</time></trkpt><trkpt lat="45.9443413" lon="11.5535207"><ele>1577.0</ele><time>2026-04-26T13:49:58.441Z</time></trkpt><trkpt lat="45.94425" lon="11.5536418"><ele>1576.0</ele><time>2026-04-26T13:49:59.441Z</time></trkpt><trkpt lat="45.9441625" lon="11.5537711"><ele>1576.0</ele><time>2026-04-26T13:50:00.44Z</time></trkpt><trkpt lat="45.944076" lon="11.5539031"><ele>1576.0</ele><time>2026-04-26T13:50:01.44Z</time></trkpt><trkpt lat="45.9440067" lon="11.5540494"><ele>1576.0</ele><time>2026-04-26T13:50:02.441Z</time></trkpt><trkpt lat="45.9439473" lon="11.5542018"><ele>1576.0</ele><time>2026-04-26T13:50:03.441Z</time></trkpt><trkpt lat="45.9438973" lon="11.5543528"><ele>1576.0000000000002</ele><time>2026-04-26T13:50:04.44Z</time></trkpt><trkpt lat="45.9438544" lon="11.5544852"><ele>1576.0</ele><time>2026-04-26T13:50:05.441Z</time></trkpt><trkpt lat="45.9438078" lon="11.5545911"><ele>1576.0</ele><time>2026-04-26T13:50:06.44Z</time></trkpt><trkpt lat="45.9437429" lon="11.5546556"><ele>1576.0</ele><time>2026-04-26T13:50:07.44Z</time></trkpt><trkpt lat="45.9436674" lon="11.5546763"><ele>1576.0000000000002</ele><time>2026-04-26T13:50:08.44Z</time></trkpt><trkpt lat="45.9436032" lon="11.5546328"><ele>1576.0</ele><time>2026-04-26T13:50:09.44Z</time></trkpt><trkpt lat="45.9435592" lon="11.5545334"><ele>1576.0</ele><time>2026-04-26T13:50:10.441Z</time></trkpt><trkpt lat="45.9435271" lon="11.5544014"><ele>1576.0</ele><time>2026-04-26T13:50:11.44Z</time></trkpt><trkpt lat="45.9434994" lon="11.5542516"><ele>1576.0</ele><time>2026-04-26T13:50:12.441Z</time></trkpt><trkpt lat="45.9434709" lon="11.5540907"><ele>1576.0</ele><time>2026-04-26T13:50:13.441Z</time></trkpt><trkpt lat="45.9434352" lon="11.5539254"><ele>1576.0</ele><time>2026-04-26T13:50:14.44Z</time></trkpt><trkpt lat="45.9434015" lon="11.553768"><ele>1572.1999999999998</ele><time>2026-04-26T13:50:15.44Z</time></trkpt><trkpt lat="45.9433651" lon="11.553622"><ele>1568.3999999999999</ele><time>2026-04-26T13:50:16.44Z</time></trkpt><trkpt lat="45.9433184" lon="11.5534886"><ele>1564.6</ele><time>2026-04-26T13:50:17.441Z</time></trkpt><trkpt lat="45.9432599" lon="11.5533802"><ele>1560.8</ele><time>2026-04-26T13:50:18.441Z</time></trkpt><trkpt lat="45.9431796" lon="11.553307"><ele>1557.0</ele><time>2026-04-26T13:50:19.44Z</time></trkpt><trkpt lat="45.9430726" lon="11.5532645"><ele>1557.0</ele><time>2026-04-26T13:50:20.441Z</time></trkpt><trkpt lat="45.9429432" lon="11.5532383"><ele>1557.0</ele><time>2026-04-26T13:50:21.44Z</time></trkpt><trkpt lat="45.9428057" lon="11.5532218"><ele>1557.0</ele><time>2026-04-26T13:50:22.44Z</time></trkpt><trkpt lat="45.9426633" lon="11.5532132"><ele>1557.0</ele><time>2026-04-26T13:50:23.44Z</time></trkpt><trkpt lat="45.9425138" lon="11.5532124"><ele>1554.6666666666665</ele><time>2026-04-26T13:50:24.44Z</time></trkpt><trkpt lat="45.9423604" lon="11.5532143"><ele>1552.3333333333333</ele><time>2026-04-26T13:50:25.44Z</time></trkpt><trkpt lat="45.9422024" lon="11.5532262"><ele>1550.0</ele><time>2026-04-26T13:50:26.44Z</time></trkpt><trkpt lat="45.942046" lon="11.5532497"><ele>1550.0</ele><time>2026-04-26T13:50:27.44Z</time></trkpt><trkpt lat="45.9418874" lon="11.5532857"><ele>1550.0</ele><time>2026-04-26T13:50:28.44Z</time></trkpt><trkpt lat="45.9417387" lon="11.553337"><ele>1550.0</ele><time>2026-04-26T13:50:29.441Z</time></trkpt><trkpt lat="45.9415982" lon="11.5534175"><ele>1551.6666666666665</ele><time>2026-04-26T13:50:30.44Z</time></trkpt><trkpt lat="45.9414699" lon="11.5535389"><ele>1553.3333333333335</ele><time>2026-04-26T13:50:31.44Z</time></trkpt><trkpt lat="45.9413489" lon="11.5536705"><ele>1555.0</ele><time>2026-04-26T13:50:32.44Z</time></trkpt><trkpt lat="45.9412218" lon="11.5537723"><ele>1555.0</ele><time>2026-04-26T13:50:33.44Z</time></trkpt><trkpt lat="45.9410761" lon="11.553807"><ele>1555.0</ele><time>2026-04-26T13:50:34.44Z</time></trkpt><trkpt lat="45.9409259" lon="11.5538081"><ele>1555.0</ele><time>2026-04-26T13:50:35.44Z</time></trkpt><trkpt lat="45.940778" lon="11.5538113"><ele>1555.0</ele><time>2026-04-26T13:50:36.44Z</time></trkpt><trkpt lat="45.940634" lon="11.5538183"><ele>1551.75</ele><time>2026-04-26T13:50:37.44Z</time></trkpt><trkpt lat="45.940502" lon="11.5538298"><ele>1548.5</ele><time>2026-04-26T13:50:38.44Z</time></trkpt><trkpt lat="45.9403767" lon="11.5538611"><ele>1545.25</ele><time>2026-04-26T13:50:39.44Z</time></trkpt><trkpt lat="45.9402572" lon="11.5539174"><ele>1542.0</ele><time>2026-04-26T13:50:40.44Z</time></trkpt><trkpt lat="45.9401501" lon="11.5540212"><ele>1542.0</ele><time>2026-04-26T13:50:41.44Z</time></trkpt><trkpt lat="45.9400545" lon="11.554166"><ele>1542.0</ele><time>2026-04-26T13:50:42.44Z</time></trkpt><trkpt lat="45.9399575" lon="11.5543148"><ele>1542.0</ele><time>2026-04-26T13:50:43.44Z</time></trkpt><trkpt lat="45.9398554" lon="11.5544346"><ele>1542.0</ele><time>2026-04-26T13:50:44.44Z</time></trkpt><trkpt lat="45.9397424" lon="11.5545125"><ele>1540.0</ele><time>2026-04-26T13:50:45.44Z</time></trkpt><trkpt lat="45.9396254" lon="11.5545592"><ele>1538.0</ele><time>2026-04-26T13:50:46.44Z</time></trkpt><trkpt lat="45.9395184" lon="11.5545978"><ele>1536.0</ele><time>2026-04-26T13:50:47.44Z</time></trkpt><trkpt lat="45.9394155" lon="11.5546444"><ele>1534.0</ele><time>2026-04-26T13:50:48.44Z</time></trkpt><trkpt lat="45.9393083" lon="11.5547124"><ele>1530.75</ele><time>2026-04-26T13:50:49.44Z</time></trkpt><trkpt lat="45.9392012" lon="11.5547824"><ele>1527.5</ele><time>2026-04-26T13:50:50.44Z</time></trkpt><trkpt lat="45.9390984" lon="11.5548724"><ele>1524.25</ele><time>2026-04-26T13:50:51.44Z</time></trkpt><trkpt lat="45.9389949" lon="11.5549828"><ele>1521.0</ele><time>2026-04-26T13:50:52.44Z</time></trkpt><trkpt lat="45.9388986" lon="11.5550937"><ele>1521.0</ele><time>2026-04-26T13:50:53.44Z</time></trkpt><trkpt lat="45.938796" lon="11.5552095"><ele>1521.0</ele><time>2026-04-26T13:50:54.44Z</time></trkpt><trkpt lat="45.9386952" lon="11.5553324"><ele>1521.0</ele><time>2026-04-26T13:50:55.44Z</time></trkpt><trkpt lat="45.9385935" lon="11.5554619"><ele>1521.0</ele><time>2026-04-26T13:50:56.44Z</time></trkpt><trkpt lat="45.9384883" lon="11.555599"><ele>1522.25</ele><time>2026-04-26T13:50:57.441Z</time></trkpt><trkpt lat="45.9383869" lon="11.5557305"><ele>1523.5</ele><time>2026-04-26T13:50:58.44Z</time></trkpt><trkpt lat="45.9382768" lon="11.5558736"><ele>1524.75</ele><time>2026-04-26T13:50:59.44Z</time></trkpt><trkpt lat="45.9381718" lon="11.5560203"><ele>1526.0</ele><time>2026-04-26T13:51:00.44Z</time></trkpt><trkpt lat="45.9380644" lon="11.5561684"><ele>1524.0</ele><time>2026-04-26T13:51:01.44Z</time></trkpt><trkpt lat="45.9379629" lon="11.5563273"><ele>1522.0</ele><time>2026-04-26T13:51:02.44Z</time></trkpt><trkpt lat="45.9378624" lon="11.5564831"><ele>1520.0</ele><time>2026-04-26T13:51:03.441Z</time></trkpt><trkpt lat="45.9377647" lon="11.5566278"><ele>1518.0</ele><time>2026-04-26T13:51:04.44Z</time></trkpt><trkpt lat="45.9376624" lon="11.5567558"><ele>1517.25</ele><time>2026-04-26T13:51:05.44Z</time></trkpt><trkpt lat="45.9375448" lon="11.5568725"><ele>1516.5</ele><time>2026-04-26T13:51:06.44Z</time></trkpt><trkpt lat="45.9374182" lon="11.5569802"><ele>1515.75</ele><time>2026-04-26T13:51:07.441Z</time></trkpt><trkpt lat="45.9372912" lon="11.5570843"><ele>1515.0</ele><time>2026-04-26T13:51:08.44Z</time></trkpt><trkpt lat="45.9371626" lon="11.5571932"><ele>1514.25</ele><time>2026-04-26T13:51:09.441Z</time></trkpt><trkpt lat="45.9370333" lon="11.5573061"><ele>1513.5</ele><time>2026-04-26T13:51:10.44Z</time></trkpt><trkpt lat="45.9369122" lon="11.5574159"><ele>1512.75</ele><time>2026-04-26T13:51:11.44Z</time></trkpt><trkpt lat="45.9367791" lon="11.557517"><ele>1512.0</ele><time>2026-04-26T13:51:12.441Z</time></trkpt><trkpt lat="45.9366433" lon="11.5575952"><ele>1510.25</ele><time>2026-04-26T13:51:13.44Z</time></trkpt><trkpt lat="45.9365062" lon="11.5576791"><ele>1508.5</ele><time>2026-04-26T13:51:14.441Z</time></trkpt><trkpt lat="45.9363676" lon="11.5577353"><ele>1506.75</ele><time>2026-04-26T13:51:15.441Z</time></trkpt><trkpt lat="45.936222" lon="11.5577734"><ele>1505.0</ele><time>2026-04-26T13:51:16.44Z</time></trkpt><trkpt lat="45.9360756" lon="11.5577624"><ele>1505.0</ele><time>2026-04-26T13:51:17.44Z</time></trkpt><trkpt lat="45.9359334" lon="11.5577135"><ele>1505.0</ele><time>2026-04-26T13:51:18.44Z</time></trkpt><trkpt lat="45.9357914" lon="11.5576559"><ele>1505.0</ele><time>2026-04-26T13:51:19.44Z</time></trkpt><trkpt lat="45.9356536" lon="11.5575926"><ele>1505.0</ele><time>2026-04-26T13:51:20.44Z</time></trkpt><trkpt lat="45.9355077" lon="11.5575424"><ele>1504.3333333333335</ele><time>2026-04-26T13:51:21.44Z</time></trkpt><trkpt lat="45.935358" lon="11.5575234"><ele>1503.6666666666667</ele><time>2026-04-26T13:51:22.44Z</time></trkpt><trkpt lat="45.9352045" lon="11.5575303"><ele>1503.0</ele><time>2026-04-26T13:51:23.441Z</time></trkpt><trkpt lat="45.9350473" lon="11.5575448"><ele>1501.3333333333333</ele><time>2026-04-26T13:51:24.441Z</time></trkpt><trkpt lat="45.9348903" lon="11.5575654"><ele>1499.6666666666665</ele><time>2026-04-26T13:51:25.44Z</time></trkpt><trkpt lat="45.9347374" lon="11.5576007"><ele>1498.0</ele><time>2026-04-26T13:51:26.44Z</time></trkpt><trkpt lat="45.9345865" lon="11.5576515"><ele>1498.0</ele><time>2026-04-26T13:51:27.441Z</time></trkpt><trkpt lat="45.9344334" lon="11.5577155"><ele>1498.0</ele><time>2026-04-26T13:51:28.44Z</time></trkpt><trkpt lat="45.9342812" lon="11.5577845"><ele>1498.0</ele><time>2026-04-26T13:51:29.441Z</time></trkpt><trkpt lat="45.9341309" lon="11.5578571"><ele>1497.3333333333333</ele><time>2026-04-26T13:51:30.44Z</time></trkpt><trkpt lat="45.933983" lon="11.5579256"><ele>1496.6666666666667</ele><time>2026-04-26T13:51:31.441Z</time></trkpt><trkpt lat="45.9338385" lon="11.5579753"><ele>1496.0</ele><time>2026-04-26T13:51:32.44Z</time></trkpt><trkpt lat="45.9336991" lon="11.5580367"><ele>1496.0</ele><time>2026-04-26T13:51:33.441Z</time></trkpt><trkpt lat="45.9335557" lon="11.5580789"><ele>1496.0</ele><time>2026-04-26T13:51:34.441Z</time></trkpt><trkpt lat="45.9334187" lon="11.5581062"><ele>1496.0</ele><time>2026-04-26T13:51:35.44Z</time></trkpt><trkpt lat="45.9332884" lon="11.5581174"><ele>1496.0</ele><time>2026-04-26T13:51:36.441Z</time></trkpt><trkpt lat="45.9331631" lon="11.5581258"><ele>1494.25</ele><time>2026-04-26T13:51:37.441Z</time></trkpt><trkpt lat="45.933042" lon="11.5581386"><ele>1492.5</ele><time>2026-04-26T13:51:38.441Z</time></trkpt><trkpt lat="45.9329258" lon="11.5581559"><ele>1490.75</ele><time>2026-04-26T13:51:39.44Z</time></trkpt><trkpt lat="45.9328176" lon="11.5581826"><ele>1489.0</ele><time>2026-04-26T13:51:40.441Z</time></trkpt><trkpt lat="45.9327121" lon="11.558219"><ele>1489.0</ele><time>2026-04-26T13:51:41.44Z</time></trkpt><trkpt lat="45.9326156" lon="11.5582642"><ele>1489.0</ele><time>2026-04-26T13:51:42.44Z</time></trkpt><trkpt lat="45.9325276" lon="11.5583124"><ele>1489.0</ele><time>2026-04-26T13:51:43.441Z</time></trkpt><trkpt lat="45.9324438" lon="11.5583523"><ele>1489.0</ele><time>2026-04-26T13:51:44.441Z</time></trkpt><trkpt lat="45.9323583" lon="11.5583915"><ele>1489.0</ele><time>2026-04-26T13:51:45.44Z</time></trkpt><trkpt lat="45.9322795" lon="11.558425"><ele>1488.1666666666665</ele><time>2026-04-26T13:51:46.44Z</time></trkpt><trkpt lat="45.9322013" lon="11.5584555"><ele>1487.3333333333333</ele><time>2026-04-26T13:51:47.44Z</time></trkpt><trkpt lat="45.9321275" lon="11.5584838"><ele>1486.5</ele><time>2026-04-26T13:51:48.44Z</time></trkpt><trkpt lat="45.9320488" lon="11.5585163"><ele>1485.6666666666667</ele><time>2026-04-26T13:51:49.44Z</time></trkpt><trkpt lat="45.9319673" lon="11.5585477"><ele>1484.8333333333335</ele><time>2026-04-26T13:51:50.44Z</time></trkpt><trkpt lat="45.9318873" lon="11.5585734"><ele>1484.0</ele><time>2026-04-26T13:51:51.44Z</time></trkpt><trkpt lat="45.9318106" lon="11.5586096"><ele>1484.0</ele><time>2026-04-26T13:51:52.441Z</time></trkpt><trkpt lat="45.9317284" lon="11.5586631"><ele>1484.0</ele><time>2026-04-26T13:51:53.44Z</time></trkpt><trkpt lat="45.9316477" lon="11.5587144"><ele>1484.0</ele><time>2026-04-26T13:51:54.44Z</time></trkpt><trkpt lat="45.9315578" lon="11.5587837"><ele>1484.0</ele><time>2026-04-26T13:51:55.441Z</time></trkpt><trkpt lat="45.9314729" lon="11.5588481"><ele>1484.0</ele><time>2026-04-26T13:51:56.441Z</time></trkpt><trkpt lat="45.9313883" lon="11.558905"><ele>1484.6</ele><time>2026-04-26T13:51:57.44Z</time></trkpt><trkpt lat="45.9313012" lon="11.5589654"><ele>1485.2</ele><time>2026-04-26T13:51:58.44Z</time></trkpt><trkpt lat="45.931211" lon="11.5590258"><ele>1485.8</ele><time>2026-04-26T13:51:59.441Z</time></trkpt><trkpt lat="45.9311197" lon="11.559084"><ele>1486.3999999999999</ele><time>2026-04-26T13:52:00.44Z</time></trkpt><trkpt lat="45.9310278" lon="11.5591454"><ele>1487.0</ele><time>2026-04-26T13:52:01.44Z</time></trkpt><trkpt lat="45.9309335" lon="11.5592127"><ele>1488.0</ele><time>2026-04-26T13:52:02.44Z</time></trkpt><trkpt lat="45.9308387" lon="11.5592865"><ele>1489.0</ele><time>2026-04-26T13:52:03.441Z</time></trkpt><trkpt lat="45.9307477" lon="11.5593625"><ele>1490.0</ele><time>2026-04-26T13:52:04.441Z</time></trkpt><trkpt lat="45.9306596" lon="11.5594281"><ele>1491.0</ele><time>2026-04-26T13:52:05.44Z</time></trkpt><trkpt lat="45.9305753" lon="11.5594907"><ele>1492.0</ele><time>2026-04-26T13:52:06.44Z</time></trkpt><trkpt lat="45.930477" lon="11.5595473"><ele>1492.0</ele><time>2026-04-26T13:52:07.44Z</time></trkpt><trkpt lat="45.9303757" lon="11.5595964"><ele>1492.0</ele><time>2026-04-26T13:52:08.44Z</time></trkpt><trkpt lat="45.9302729" lon="11.5596331"><ele>1492.0</ele><time>2026-04-26T13:52:09.44Z</time></trkpt><trkpt lat="45.9301781" lon="11.5596618"><ele>1492.0</ele><time>2026-04-26T13:52:10.44Z</time></trkpt><trkpt lat="45.9300841" lon="11.5597021"><ele>1492.0</ele><time>2026-04-26T13:52:11.44Z</time></trkpt><trkpt lat="45.9299927" lon="11.5597495"><ele>1490.6</ele><time>2026-04-26T13:52:12.441Z</time></trkpt><trkpt lat="45.9299003" lon="11.5597977"><ele>1489.1999999999998</ele><time>2026-04-26T13:52:13.44Z</time></trkpt><trkpt lat="45.929813" lon="11.5598482"><ele>1487.8</ele><time>2026-04-26T13:52:14.441Z</time></trkpt><trkpt lat="45.9297266" lon="11.5598955"><ele>1486.4</ele><time>2026-04-26T13:52:15.441Z</time></trkpt><trkpt lat="45.9296387" lon="11.5599447"><ele>1485.0</ele><time>2026-04-26T13:52:16.44Z</time></trkpt><trkpt lat="45.9295473" lon="11.55999"><ele>1485.0</ele><time>2026-04-26T13:52:17.44Z</time></trkpt><trkpt lat="45.9294531" lon="11.5600298"><ele>1485.0</ele><time>2026-04-26T13:52:18.44Z</time></trkpt><trkpt lat="45.9293509" lon="11.5600543"><ele>1485.0</ele><time>2026-04-26T13:52:19.44Z</time></trkpt><trkpt lat="45.9292452" lon="11.5600597"><ele>1485.0</ele><time>2026-04-26T13:52:20.44Z</time></trkpt><trkpt lat="45.929138" lon="11.5600447"><ele>1485.0</ele><time>2026-04-26T13:52:21.44Z</time></trkpt><trkpt lat="45.9290339" lon="11.5600181"><ele>1484.0</ele><time>2026-04-26T13:52:22.44Z</time></trkpt><trkpt lat="45.9289362" lon="11.5599869"><ele>1483.0</ele><time>2026-04-26T13:52:23.44Z</time></trkpt><trkpt lat="45.9288427" lon="11.5599549"><ele>1482.0</ele><time>2026-04-26T13:52:24.44Z</time></trkpt><trkpt lat="45.9287499" lon="11.5599246"><ele>1481.0</ele><time>2026-04-26T13:52:25.44Z</time></trkpt><trkpt lat="45.9286534" lon="11.5598994"><ele>1480.0</ele><time>2026-04-26T13:52:26.44Z</time></trkpt><trkpt lat="45.9285574" lon="11.5598833"><ele>1480.0</ele><time>2026-04-26T13:52:27.44Z</time></trkpt><trkpt lat="45.9284488" lon="11.5598728"><ele>1480.0</ele><time>2026-04-26T13:52:28.44Z</time></trkpt><trkpt lat="45.9283343" lon="11.559874"><ele>1480.0</ele><time>2026-04-26T13:52:29.44Z</time></trkpt><trkpt lat="45.9282187" lon="11.5599052"><ele>1480.0</ele><time>2026-04-26T13:52:30.44Z</time></trkpt><trkpt lat="45.9280945" lon="11.5599515"><ele>1479.5</ele><time>2026-04-26T13:52:31.44Z</time></trkpt><trkpt lat="45.927972" lon="11.5599956"><ele>1479.0</ele><time>2026-04-26T13:52:32.441Z</time></trkpt><trkpt lat="45.9278394" lon="11.5600342"><ele>1478.5</ele><time>2026-04-26T13:52:33.44Z</time></trkpt><trkpt lat="45.9276934" lon="11.5600714"><ele>1478.0</ele><time>2026-04-26T13:52:34.44Z</time></trkpt><trkpt lat="45.9275383" lon="11.5601176"><ele>1475.6666666666667</ele><time>2026-04-26T13:52:35.44Z</time></trkpt><trkpt lat="45.9273799" lon="11.5601895"><ele>1473.3333333333333</ele><time>2026-04-26T13:52:36.44Z</time></trkpt><trkpt lat="45.9272026" lon="11.5602647"><ele>1471.0</ele><time>2026-04-26T13:52:37.441Z</time></trkpt><trkpt lat="45.927018" lon="11.5603136"><ele>1471.0</ele><time>2026-04-26T13:52:38.44Z</time></trkpt><trkpt lat="45.9268279" lon="11.5603414"><ele>1471.0</ele><time>2026-04-26T13:52:39.441Z</time></trkpt><trkpt lat="45.926633" lon="11.560357"><ele>1471.0</ele><time>2026-04-26T13:52:40.441Z</time></trkpt><trkpt lat="45.9264334" lon="11.5603649"><ele>1471.3333333333333</ele><time>2026-04-26T13:52:41.44Z</time></trkpt><trkpt lat="45.9262338" lon="11.5603891"><ele>1471.6666666666667</ele><time>2026-04-26T13:52:42.441Z</time></trkpt><trkpt lat="45.9260359" lon="11.560423"><ele>1472.0</ele><time>2026-04-26T13:52:43.44Z</time></trkpt><trkpt lat="45.9258431" lon="11.5604678"><ele>1470.0</ele><time>2026-04-26T13:52:44.44Z</time></trkpt><trkpt lat="45.9256464" lon="11.5605097"><ele>1468.0</ele><time>2026-04-26T13:52:45.44Z</time></trkpt><trkpt lat="45.9254508" lon="11.5605426"><ele>1466.0</ele><time>2026-04-26T13:52:46.44Z</time></trkpt><trkpt lat="45.9252537" lon="11.5605709"><ele>1465.6666666666667</ele><time>2026-04-26T13:52:47.441Z</time></trkpt><trkpt lat="45.9250617" lon="11.5605888"><ele>1465.3333333333333</ele><time>2026-04-26T13:52:48.44Z</time></trkpt><trkpt lat="45.9248681" lon="11.5606016"><ele>1465.0</ele><time>2026-04-26T13:52:49.44Z</time></trkpt><trkpt lat="45.9246787" lon="11.560614"><ele>1465.0</ele><time>2026-04-26T13:52:50.44Z</time></trkpt><trkpt lat="45.924503" lon="11.5606205"><ele>1465.0</ele><time>2026-04-26T13:52:51.44Z</time></trkpt><trkpt lat="45.9243472" lon="11.5606062"><ele>1465.0</ele><time>2026-04-26T13:52:52.44Z</time></trkpt><trkpt lat="45.9242013" lon="11.5605622"><ele>1465.5</ele><time>2026-04-26T13:52:53.44Z</time></trkpt><trkpt lat="45.9240687" lon="11.5604979"><ele>1466.0</ele><time>2026-04-26T13:52:54.44Z</time></trkpt><trkpt lat="45.9239366" lon="11.5604584"><ele>1466.5</ele><time>2026-04-26T13:52:55.44Z</time></trkpt><trkpt lat="45.9237995" lon="11.5604769"><ele>1467.0</ele><time>2026-04-26T13:52:56.44Z</time></trkpt><trkpt lat="45.9236581" lon="11.5605337"><ele>1467.0</ele><time>2026-04-26T13:52:57.441Z</time></trkpt><trkpt lat="45.9235041" lon="11.5605907"><ele>1467.0</ele><time>2026-04-26T13:52:58.44Z</time></trkpt><trkpt lat="45.9233488" lon="11.5606569"><ele>1467.0</ele><time>2026-04-26T13:52:59.44Z</time></trkpt><trkpt lat="45.9231867" lon="11.56073"><ele>1466.0</ele><time>2026-04-26T13:53:00.441Z</time></trkpt><trkpt lat="45.9230286" lon="11.5608052"><ele>1465.0</ele><time>2026-04-26T13:53:01.44Z</time></trkpt><trkpt lat="45.9228731" lon="11.5608832"><ele>1464.0</ele><time>2026-04-26T13:53:02.44Z</time></trkpt><trkpt lat="45.9227267" lon="11.5609524"><ele>1464.0</ele><time>2026-04-26T13:53:03.44Z</time></trkpt><trkpt lat="45.9225855" lon="11.5610058"><ele>1464.0</ele><time>2026-04-26T13:53:04.44Z</time></trkpt><trkpt lat="45.9224465" lon="11.5610152"><ele>1464.0</ele><time>2026-04-26T13:53:05.44Z</time></trkpt><trkpt lat="45.9223134" lon="11.5610115"><ele>1464.0</ele><time>2026-04-26T13:53:06.441Z</time></trkpt><trkpt lat="45.9221832" lon="11.5609321"><ele>1462.0</ele><time>2026-04-26T13:53:07.44Z</time></trkpt><trkpt lat="45.9220592" lon="11.5609014"><ele>1460.0</ele><time>2026-04-26T13:53:08.44Z</time></trkpt><trkpt lat="45.921926" lon="11.5608988"><ele>1458.0</ele><time>2026-04-26T13:53:09.441Z</time></trkpt><trkpt lat="45.9217839" lon="11.5609107"><ele>1456.0</ele><time>2026-04-26T13:53:10.44Z</time></trkpt><trkpt lat="45.9216449" lon="11.5609286"><ele>1453.75</ele><time>2026-04-26T13:53:11.44Z</time></trkpt><trkpt lat="45.9215053" lon="11.5609582"><ele>1451.5</ele><time>2026-04-26T13:53:12.44Z</time></trkpt><trkpt lat="45.9213702" lon="11.5609895"><ele>1449.25</ele><time>2026-04-26T13:53:13.44Z</time></trkpt><trkpt lat="45.921236" lon="11.5610191"><ele>1447.0</ele><time>2026-04-26T13:53:14.44Z</time></trkpt><trkpt lat="45.9211002" lon="11.5610411"><ele>1447.0</ele><time>2026-04-26T13:53:15.44Z</time></trkpt><trkpt lat="45.9209638" lon="11.5610507"><ele>1447.0</ele><time>2026-04-26T13:53:16.441Z</time></trkpt><trkpt lat="45.9208236" lon="11.5610442"><ele>1447.0</ele><time>2026-04-26T13:53:17.441Z</time></trkpt><trkpt lat="45.9206779" lon="11.5610279"><ele>1447.0</ele><time>2026-04-26T13:53:18.44Z</time></trkpt><trkpt lat="45.9205328" lon="11.5610065"><ele>1445.75</ele><time>2026-04-26T13:53:19.44Z</time></trkpt><trkpt lat="45.9203868" lon="11.5609943"><ele>1444.5</ele><time>2026-04-26T13:53:20.441Z</time></trkpt><trkpt lat="45.9202426" lon="11.5610094"><ele>1443.25</ele><time>2026-04-26T13:53:21.44Z</time></trkpt><trkpt lat="45.9200996" lon="11.5610477"><ele>1442.0</ele><time>2026-04-26T13:53:22.441Z</time></trkpt><trkpt lat="45.9199579" lon="11.5611049"><ele>1441.3333333333335</ele><time>2026-04-26T13:53:23.441Z</time></trkpt><trkpt lat="45.9198139" lon="11.5611699"><ele>1440.6666666666667</ele><time>2026-04-26T13:53:24.441Z</time></trkpt><trkpt lat="45.9196662" lon="11.5612329"><ele>1440.0</ele><time>2026-04-26T13:53:25.44Z</time></trkpt><trkpt lat="45.9195247" lon="11.5613001"><ele>1437.5</ele><time>2026-04-26T13:53:26.44Z</time></trkpt><trkpt lat="45.9193827" lon="11.5613734"><ele>1435.0</ele><time>2026-04-26T13:53:27.44Z</time></trkpt><trkpt lat="45.9192407" lon="11.5614407"><ele>1432.5</ele><time>2026-04-26T13:53:28.44Z</time></trkpt><trkpt lat="45.9191088" lon="11.5614993"><ele>1430.0</ele><time>2026-04-26T13:53:29.441Z</time></trkpt><trkpt lat="45.9189648" lon="11.5615644"><ele>1429.5</ele><time>2026-04-26T13:53:30.441Z</time></trkpt><trkpt lat="45.9188267" lon="11.5616182"><ele>1429.0</ele><time>2026-04-26T13:53:31.441Z</time></trkpt><trkpt lat="45.9186942" lon="11.5616727"><ele>1428.5</ele><time>2026-04-26T13:53:32.441Z</time></trkpt><trkpt lat="45.9185629" lon="11.5617329"><ele>1428.0</ele><time>2026-04-26T13:53:33.441Z</time></trkpt><trkpt lat="45.9184351" lon="11.5618077"><ele>1427.75</ele><time>2026-04-26T13:53:34.44Z</time></trkpt><trkpt lat="45.9183121" lon="11.5619043"><ele>1427.5</ele><time>2026-04-26T13:53:35.44Z</time></trkpt><trkpt lat="45.9182078" lon="11.562032"><ele>1427.25</ele><time>2026-04-26T13:53:36.441Z</time></trkpt><trkpt lat="45.918107" lon="11.5621765"><ele>1427.0</ele><time>2026-04-26T13:53:37.44Z</time></trkpt><trkpt lat="45.9180188" lon="11.5623381"><ele>1427.0</ele><time>2026-04-26T13:53:38.441Z</time></trkpt><trkpt lat="45.9179418" lon="11.562505"><ele>1427.0</ele><time>2026-04-26T13:53:39.44Z</time></trkpt><trkpt lat="45.91789" lon="11.5626744"><ele>1427.0</ele><time>2026-04-26T13:53:40.441Z</time></trkpt><trkpt lat="45.9178554" lon="11.5628449"><ele>1427.0</ele><time>2026-04-26T13:53:41.441Z</time></trkpt><trkpt lat="45.9178294" lon="11.5630122"><ele>1427.75</ele><time>2026-04-26T13:53:42.441Z</time></trkpt><trkpt lat="45.9178119" lon="11.5631859"><ele>1428.5</ele><time>2026-04-26T13:53:43.44Z</time></trkpt><trkpt lat="45.9177968" lon="11.5633617"><ele>1429.25</ele><time>2026-04-26T13:53:44.44Z</time></trkpt><trkpt lat="45.9177753" lon="11.5635352"><ele>1430.0</ele><time>2026-04-26T13:53:45.44Z</time></trkpt><trkpt lat="45.9177392" lon="11.5637027"><ele>1429.0</ele><time>2026-04-26T13:53:46.44Z</time></trkpt><trkpt lat="45.9176855" lon="11.5638689"><ele>1428.0</ele><time>2026-04-26T13:53:47.441Z</time></trkpt><trkpt lat="45.9176125" lon="11.5640298"><ele>1427.0</ele><time>2026-04-26T13:53:48.44Z</time></trkpt><trkpt lat="45.9175336" lon="11.5641801"><ele>1426.0</ele><time>2026-04-26T13:53:49.441Z</time></trkpt><trkpt lat="45.9174519" lon="11.564317"><ele>1426.0</ele><time>2026-04-26T13:53:50.44Z</time></trkpt><trkpt lat="45.9173688" lon="11.5644525"><ele>1426.0</ele><time>2026-04-26T13:53:51.44Z</time></trkpt><trkpt lat="45.9172775" lon="11.5645953"><ele>1426.0</ele><time>2026-04-26T13:53:52.44Z</time></trkpt><trkpt lat="45.9171885" lon="11.5647384"><ele>1426.0</ele><time>2026-04-26T13:53:53.44Z</time></trkpt><trkpt lat="45.9170878" lon="11.5648654"><ele>1425.75</ele><time>2026-04-26T13:53:54.44Z</time></trkpt><trkpt lat="45.9169805" lon="11.5649831"><ele>1425.5</ele><time>2026-04-26T13:53:55.44Z</time></trkpt><trkpt lat="45.9168668" lon="11.5650983"><ele>1425.25</ele><time>2026-04-26T13:53:56.44Z</time></trkpt><trkpt lat="45.9167616" lon="11.5652093"><ele>1425.0</ele><time>2026-04-26T13:53:57.44Z</time></trkpt><trkpt lat="45.916655" lon="11.5653124"><ele>1421.75</ele><time>2026-04-26T13:53:58.44Z</time></trkpt><trkpt lat="45.9165593" lon="11.5654239"><ele>1418.5</ele><time>2026-04-26T13:53:59.441Z</time></trkpt><trkpt lat="45.9164636" lon="11.565528"><ele>1415.25</ele><time>2026-04-26T13:54:00.44Z</time></trkpt><trkpt lat="45.916376" lon="11.5656173"><ele>1412.0</ele><time>2026-04-26T13:54:01.44Z</time></trkpt><trkpt lat="45.9162879" lon="11.5657019"><ele>1412.0</ele><time>2026-04-26T13:54:02.44Z</time></trkpt><trkpt lat="45.9162027" lon="11.565794"><ele>1412.0</ele><time>2026-04-26T13:54:03.44Z</time></trkpt><trkpt lat="45.9161076" lon="11.5658861"><ele>1412.0</ele><time>2026-04-26T13:54:04.441Z</time></trkpt><trkpt lat="45.9160099" lon="11.5659773"><ele>1412.0</ele><time>2026-04-26T13:54:05.44Z</time></trkpt><trkpt lat="45.9159119" lon="11.5660655"><ele>1412.5</ele><time>2026-04-26T13:54:06.441Z</time></trkpt><trkpt lat="45.915808" lon="11.5661471"><ele>1413.0</ele><time>2026-04-26T13:54:07.44Z</time></trkpt><trkpt lat="45.9157049" lon="11.566231"><ele>1413.5</ele><time>2026-04-26T13:54:08.441Z</time></trkpt><trkpt lat="45.9155971" lon="11.5663141"><ele>1414.0</ele><time>2026-04-26T13:54:09.44Z</time></trkpt><trkpt lat="45.9154863" lon="11.5664029"><ele>1414.0</ele><time>2026-04-26T13:54:10.44Z</time></trkpt><trkpt lat="45.9153803" lon="11.5664858"><ele>1414.0</ele><time>2026-04-26T13:54:11.44Z</time></trkpt><trkpt lat="45.9152682" lon="11.5665634"><ele>1414.0</ele><time>2026-04-26T13:54:12.44Z</time></trkpt><trkpt lat="45.9151595" lon="11.5666291"><ele>1414.0</ele><time>2026-04-26T13:54:13.44Z</time></trkpt><trkpt lat="45.9150474" lon="11.5666889"><ele>1412.75</ele><time>2026-04-26T13:54:14.44Z</time></trkpt><trkpt lat="45.9149277" lon="11.5667503"><ele>1411.5</ele><time>2026-04-26T13:54:15.441Z</time></trkpt><trkpt lat="45.9148079" lon="11.5668101"><ele>1410.25</ele><time>2026-04-26T13:54:16.441Z</time></trkpt><trkpt lat="45.9146792" lon="11.5668767"><ele>1409.0</ele><time>2026-04-26T13:54:17.44Z</time></trkpt><trkpt lat="45.9145459" lon="11.5669414"><ele>1409.0</ele><time>2026-04-26T13:54:18.441Z</time></trkpt><trkpt lat="45.9144132" lon="11.5670031"><ele>1409.0</ele><time>2026-04-26T13:54:19.44Z</time></trkpt><trkpt lat="45.9142845" lon="11.5670543"><ele>1409.0</ele><time>2026-04-26T13:54:20.44Z</time></trkpt><trkpt lat="45.9141632" lon="11.5671172"><ele>1409.0</ele><time>2026-04-26T13:54:21.441Z</time></trkpt><trkpt lat="45.914039" lon="11.5671783"><ele>1407.5</ele><time>2026-04-26T13:54:22.441Z</time></trkpt><trkpt lat="45.9139151" lon="11.5672395"><ele>1406.0</ele><time>2026-04-26T13:54:23.44Z</time></trkpt><trkpt lat="45.9137912" lon="11.5673018"><ele>1404.5</ele><time>2026-04-26T13:54:24.44Z</time></trkpt><trkpt lat="45.9136637" lon="11.5673706"><ele>1403.0</ele><time>2026-04-26T13:54:25.44Z</time></trkpt><trkpt lat="45.913533" lon="11.5674384"><ele>1400.0</ele><time>2026-04-26T13:54:26.44Z</time></trkpt><trkpt lat="45.9133878" lon="11.5674902"><ele>1397.0</ele><time>2026-04-26T13:54:27.44Z</time></trkpt><trkpt lat="45.9132388" lon="11.567528"><ele>1394.0</ele><time>2026-04-26T13:54:28.44Z</time></trkpt><trkpt lat="45.9130803" lon="11.5675705"><ele>1394.0</ele><time>2026-04-26T13:54:29.44Z</time></trkpt><trkpt lat="45.9129112" lon="11.5676442"><ele>1394.0</ele><time>2026-04-26T13:54:30.441Z</time></trkpt><trkpt lat="45.9127533" lon="11.5677304"><ele>1394.0</ele><time>2026-04-26T13:54:31.44Z</time></trkpt><trkpt lat="45.9125998" lon="11.5678175"><ele>1393.0</ele><time>2026-04-26T13:54:32.44Z</time></trkpt><trkpt lat="45.9124461" lon="11.5678648"><ele>1392.0</ele><time>2026-04-26T13:54:33.441Z</time></trkpt><trkpt lat="45.9122988" lon="11.5678872"><ele>1391.0</ele><time>2026-04-26T13:54:34.44Z</time></trkpt><trkpt lat="45.9121481" lon="11.5678612"><ele>1391.3333333333335</ele><time>2026-04-26T13:54:35.441Z</time></trkpt><trkpt lat="45.9120068" lon="11.5678019"><ele>1391.6666666666667</ele><time>2026-04-26T13:54:36.44Z</time></trkpt><trkpt lat="45.9118647" lon="11.5677275"><ele>1392.0</ele><time>2026-04-26T13:54:37.44Z</time></trkpt><trkpt lat="45.9117113" lon="11.5676722"><ele>1389.3333333333333</ele><time>2026-04-26T13:54:38.441Z</time></trkpt><trkpt lat="45.9115467" lon="11.5676516"><ele>1386.6666666666665</ele><time>2026-04-26T13:54:39.44Z</time></trkpt><trkpt lat="45.9113699" lon="11.5676739"><ele>1384.0</ele><time>2026-04-26T13:54:40.44Z</time></trkpt><trkpt lat="45.911184" lon="11.5677323"><ele>1384.0</ele><time>2026-04-26T13:54:41.44Z</time></trkpt><trkpt lat="45.9109884" lon="11.5678096"><ele>1384.0</ele><time>2026-04-26T13:54:42.44Z</time></trkpt><trkpt lat="45.9107962" lon="11.5678914"><ele>1384.0</ele><time>2026-04-26T13:54:43.441Z</time></trkpt><trkpt lat="45.910606" lon="11.5679514"><ele>1373.6666666666665</ele><time>2026-04-26T13:54:44.44Z</time></trkpt><trkpt lat="45.9104181" lon="11.5680041"><ele>1363.3333333333333</ele><time>2026-04-26T13:54:45.44Z</time></trkpt><trkpt lat="45.9102319" lon="11.5680592"><ele>1353.0</ele><time>2026-04-26T13:54:46.441Z</time></trkpt><trkpt lat="45.9100473" lon="11.568118"><ele>1350.0</ele><time>2026-04-26T13:54:47.441Z</time></trkpt><trkpt lat="45.9098598" lon="11.5681639"><ele>1347.0</ele><time>2026-04-26T13:54:48.441Z</time></trkpt><trkpt lat="45.9096661" lon="11.5681957"><ele>1344.0</ele><time>2026-04-26T13:54:49.44Z</time></trkpt><trkpt lat="45.9094706" lon="11.5682123"><ele>1344.0</ele><time>2026-04-26T13:54:50.441Z</time></trkpt><trkpt lat="45.9092737" lon="11.568234"><ele>1344.0</ele><time>2026-04-26T13:54:51.44Z</time></trkpt><trkpt lat="45.9090786" lon="11.5682566"><ele>1344.0</ele><time>2026-04-26T13:54:52.44Z</time></trkpt><trkpt lat="45.9088839" lon="11.5682813"><ele>1342.3333333333333</ele><time>2026-04-26T13:54:53.441Z</time></trkpt><trkpt lat="45.908692" lon="11.5683083"><ele>1340.6666666666665</ele><time>2026-04-26T13:54:54.44Z</time></trkpt><trkpt lat="45.9085022" lon="11.5683229"><ele>1339.0</ele><time>2026-04-26T13:54:55.44Z</time></trkpt><trkpt lat="45.9083139" lon="11.5683398"><ele>1334.6666666666665</ele><time>2026-04-26T13:54:56.441Z</time></trkpt><trkpt lat="45.9081366" lon="11.5683556"><ele>1330.3333333333333</ele><time>2026-04-26T13:54:57.441Z</time></trkpt><trkpt lat="45.9079592" lon="11.5683673"><ele>1326.0</ele><time>2026-04-26T13:54:58.441Z</time></trkpt><trkpt lat="45.9077828" lon="11.5683789"><ele>1326.0</ele><time>2026-04-26T13:54:59.44Z</time></trkpt><trkpt lat="45.9076224" lon="11.5683752"><ele>1326.0</ele><time>2026-04-26T13:55:00.44Z</time></trkpt><trkpt lat="45.9074511" lon="11.568341"><ele>1326.0</ele><time>2026-04-26T13:55:01.441Z</time></trkpt><trkpt lat="45.907289" lon="11.5682798"><ele>1321.0</ele><time>2026-04-26T13:55:02.44Z</time></trkpt><trkpt lat="45.9071134" lon="11.5682046"><ele>1316.0</ele><time>2026-04-26T13:55:03.44Z</time></trkpt><trkpt lat="45.9069411" lon="11.568118"><ele>1311.0</ele><time>2026-04-26T13:55:04.44Z</time></trkpt><trkpt lat="45.90677" lon="11.5680228"><ele>1313.0</ele><time>2026-04-26T13:55:05.44Z</time></trkpt><trkpt lat="45.9066059" lon="11.567918"><ele>1315.0</ele><time>2026-04-26T13:55:06.44Z</time></trkpt><trkpt lat="45.9064458" lon="11.5678065"><ele>1317.0</ele><time>2026-04-26T13:55:07.44Z</time></trkpt><trkpt lat="45.9062857" lon="11.5676935"><ele>1317.0</ele><time>2026-04-26T13:55:08.441Z</time></trkpt><trkpt lat="45.9061354" lon="11.567575"><ele>1317.0</ele><time>2026-04-26T13:55:09.44Z</time></trkpt><trkpt lat="45.9059948" lon="11.5674533"><ele>1317.0</ele><time>2026-04-26T13:55:10.44Z</time></trkpt><trkpt lat="45.9058401" lon="11.5673171"><ele>1315.0</ele><time>2026-04-26T13:55:11.44Z</time></trkpt><trkpt lat="45.9056836" lon="11.5671818"><ele>1313.0</ele><time>2026-04-26T13:55:12.44Z</time></trkpt><trkpt lat="45.9055249" lon="11.5670409"><ele>1311.0</ele><time>2026-04-26T13:55:13.44Z</time></trkpt><trkpt lat="45.9053666" lon="11.5669034"><ele>1311.0</ele><time>2026-04-26T13:55:14.44Z</time></trkpt><trkpt lat="45.9052062" lon="11.566764"><ele>1311.0</ele><time>2026-04-26T13:55:15.44Z</time></trkpt><trkpt lat="45.9050464" lon="11.5666297"><ele>1311.0</ele><time>2026-04-26T13:55:16.441Z</time></trkpt><trkpt lat="45.904884" lon="11.5664925"><ele>1309.6666666666667</ele><time>2026-04-26T13:55:17.441Z</time></trkpt><trkpt lat="45.9047235" lon="11.5663549"><ele>1308.3333333333335</ele><time>2026-04-26T13:55:18.441Z</time></trkpt><trkpt lat="45.9045605" lon="11.5662235"><ele>1307.0</ele><time>2026-04-26T13:55:19.44Z</time></trkpt><trkpt lat="45.9043938" lon="11.5660977"><ele>1296.0</ele><time>2026-04-26T13:55:20.441Z</time></trkpt><trkpt lat="45.9042255" lon="11.565987"><ele>1285.0</ele><time>2026-04-26T13:55:21.44Z</time></trkpt><trkpt lat="45.9040541" lon="11.5659013"><ele>1274.0</ele><time>2026-04-26T13:55:22.44Z</time></trkpt><trkpt lat="45.9038951" lon="11.5658036"><ele>1274.0</ele><time>2026-04-26T13:55:23.44Z</time></trkpt><trkpt lat="45.9037078" lon="11.5657381"><ele>1274.0</ele><time>2026-04-26T13:55:24.441Z</time></trkpt><trkpt lat="45.9035318" lon="11.5656499"><ele>1274.0</ele><time>2026-04-26T13:55:25.44Z</time></trkpt><trkpt lat="45.903357" lon="11.5655521"><ele>1275.0</ele><time>2026-04-26T13:55:26.44Z</time></trkpt><trkpt lat="45.9031772" lon="11.5654363"><ele>1276.0</ele><time>2026-04-26T13:55:27.44Z</time></trkpt><trkpt lat="45.9029899" lon="11.565295"><ele>1277.0</ele><time>2026-04-26T13:55:28.44Z</time></trkpt><trkpt lat="45.9028199" lon="11.5651543"><ele>1277.0</ele><time>2026-04-26T13:55:29.44Z</time></trkpt><trkpt lat="45.9026552" lon="11.5650385"><ele>1277.0</ele><time>2026-04-26T13:55:30.441Z</time></trkpt><trkpt lat="45.9024944" lon="11.5649296"><ele>1277.0</ele><time>2026-04-26T13:55:31.44Z</time></trkpt><trkpt lat="45.9023415" lon="11.5648256"><ele>1272.3333333333335</ele><time>2026-04-26T13:55:32.44Z</time></trkpt><trkpt lat="45.9022054" lon="11.5647111"><ele>1267.6666666666667</ele><time>2026-04-26T13:55:33.44Z</time></trkpt><trkpt lat="45.9020706" lon="11.564597"><ele>1263.0</ele><time>2026-04-26T13:55:34.44Z</time></trkpt><trkpt lat="45.9019468" lon="11.5644472"><ele>1263.0</ele><time>2026-04-26T13:55:35.44Z</time></trkpt><trkpt lat="45.9018367" lon="11.564275"><ele>1263.0</ele><time>2026-04-26T13:55:36.44Z</time></trkpt><trkpt lat="45.9017323" lon="11.5640822"><ele>1263.0</ele><time>2026-04-26T13:55:37.44Z</time></trkpt><trkpt lat="45.9016244" lon="11.5638888"><ele>1257.25</ele><time>2026-04-26T13:55:38.44Z</time></trkpt><trkpt lat="45.9015337" lon="11.5637252"><ele>1251.5</ele><time>2026-04-26T13:55:39.441Z</time></trkpt><trkpt lat="45.901455" lon="11.5635692"><ele>1245.75</ele><time>2026-04-26T13:55:40.44Z</time></trkpt><trkpt lat="45.9013951" lon="11.5634018"><ele>1240.0</ele><time>2026-04-26T13:55:41.44Z</time></trkpt><trkpt lat="45.9013888" lon="11.563231"><ele>1240.0</ele><time>2026-04-26T13:55:42.441Z</time></trkpt><trkpt lat="45.9014107" lon="11.5630386"><ele>1240.0</ele><time>2026-04-26T13:55:43.44Z</time></trkpt><trkpt lat="45.9014226" lon="11.5628512"><ele>1240.0</ele><time>2026-04-26T13:55:44.44Z</time></trkpt><trkpt lat="45.9014352" lon="11.5626664"><ele>1240.0</ele><time>2026-04-26T13:55:45.44Z</time></trkpt><trkpt lat="45.9014378" lon="11.5624901"><ele>1239.8</ele><time>2026-04-26T13:55:46.44Z</time></trkpt><trkpt lat="45.9014314" lon="11.5623165"><ele>1239.6</ele><time>2026-04-26T13:55:47.44Z</time></trkpt><trkpt lat="45.9014333" lon="11.5621669"><ele>1239.4</ele><time>2026-04-26T13:55:48.441Z</time></trkpt><trkpt lat="45.9014257" lon="11.5620238"><ele>1239.2</ele><time>2026-04-26T13:55:49.44Z</time></trkpt><trkpt lat="45.9013967" lon="11.5618987"><ele>1239.0</ele><time>2026-04-26T13:55:50.441Z</time></trkpt><trkpt lat="45.9013359" lon="11.5618027"><ele>1239.0</ele><time>2026-04-26T13:55:51.441Z</time></trkpt><trkpt lat="45.9012557" lon="11.5617299"><ele>1239.0</ele><time>2026-04-26T13:55:52.44Z</time></trkpt><trkpt lat="45.9011704" lon="11.5616649"><ele>1239.0</ele><time>2026-04-26T13:55:53.44Z</time></trkpt><trkpt lat="45.9010918" lon="11.5615844"><ele>1239.0</ele><time>2026-04-26T13:55:54.44Z</time></trkpt><trkpt lat="45.9010231" lon="11.5614847"><ele>1239.0</ele><time>2026-04-26T13:55:55.44Z</time></trkpt><trkpt lat="45.9009645" lon="11.5613651"><ele>1234.8</ele><time>2026-04-26T13:55:56.44Z</time></trkpt><trkpt lat="45.9009101" lon="11.5612322"><ele>1230.6000000000001</ele><time>2026-04-26T13:55:57.44Z</time></trkpt><trkpt lat="45.9008518" lon="11.5610975"><ele>1226.4</ele><time>2026-04-26T13:55:58.44Z</time></trkpt><trkpt lat="45.9007973" lon="11.5609733"><ele>1222.2</ele><time>2026-04-26T13:55:59.44Z</time></trkpt><trkpt lat="45.900746" lon="11.5608527"><ele>1218.0</ele><time>2026-04-26T13:56:00.44Z</time></trkpt><trkpt lat="45.9007115" lon="11.5607306"><ele>1218.0</ele><time>2026-04-26T13:56:01.441Z</time></trkpt><trkpt lat="45.9006955" lon="11.560608"><ele>1218.0</ele><time>2026-04-26T13:56:02.44Z</time></trkpt><trkpt lat="45.9006872" lon="11.560501"><ele>1218.0</ele><time>2026-04-26T13:56:03.441Z</time></trkpt><trkpt lat="45.9006729" lon="11.5604002"><ele>1218.0</ele><time>2026-04-26T13:56:04.44Z</time></trkpt><trkpt lat="45.9006343" lon="11.5603195"><ele>1218.0</ele><time>2026-04-26T13:56:05.44Z</time></trkpt><trkpt lat="45.9005725" lon="11.5602823"><ele>1218.0</ele><time>2026-04-26T13:56:06.441Z</time></trkpt><trkpt lat="45.9004912" lon="11.5602888"><ele>1218.0</ele><time>2026-04-26T13:56:07.44Z</time></trkpt><trkpt lat="45.9003953" lon="11.5603705"><ele>1218.0</ele><time>2026-04-26T13:56:08.441Z</time></trkpt><trkpt lat="45.9002856" lon="11.5604809"><ele>1218.0</ele><time>2026-04-26T13:56:09.441Z</time></trkpt><trkpt lat="45.9001612" lon="11.5606236"><ele>1218.0</ele><time>2026-04-26T13:56:10.441Z</time></trkpt><trkpt lat="45.9000201" lon="11.5607499"><ele>1213.75</ele><time>2026-04-26T13:56:11.441Z</time></trkpt><trkpt lat="45.899887" lon="11.5608588"><ele>1209.5</ele><time>2026-04-26T13:56:12.441Z</time></trkpt><trkpt lat="45.899788" lon="11.5609918"><ele>1205.25</ele><time>2026-04-26T13:56:13.441Z</time></trkpt><trkpt lat="45.899715" lon="11.5611157"><ele>1201.0</ele><time>2026-04-26T13:56:14.441Z</time></trkpt><trkpt lat="45.8996394" lon="11.5612047"><ele>1201.0</ele><time>2026-04-26T13:56:15.44Z</time></trkpt><trkpt lat="45.899545" lon="11.561228"><ele>1201.0</ele><time>2026-04-26T13:56:16.44Z</time></trkpt><trkpt lat="45.899438" lon="11.5611959"><ele>1201.0</ele><time>2026-04-26T13:56:17.441Z</time></trkpt><trkpt lat="45.8993141" lon="11.5611248"><ele>1201.0</ele><time>2026-04-26T13:56:18.44Z</time></trkpt><trkpt lat="45.8991855" lon="11.561038"><ele>1199.0</ele><time>2026-04-26T13:56:19.44Z</time></trkpt><trkpt lat="45.8990423" lon="11.5609408"><ele>1197.0</ele><time>2026-04-26T13:56:20.44Z</time></trkpt><trkpt lat="45.8988946" lon="11.5608315"><ele>1195.0</ele><time>2026-04-26T13:56:21.441Z</time></trkpt><trkpt lat="45.8987547" lon="11.5607204"><ele>1195.0</ele><time>2026-04-26T13:56:22.441Z</time></trkpt><trkpt lat="45.8986225" lon="11.56056"><ele>1195.0</ele><time>2026-04-26T13:56:23.44Z</time></trkpt><trkpt lat="45.8985225" lon="11.5603582"><ele>1195.0</ele><time>2026-04-26T13:56:24.44Z</time></trkpt><trkpt lat="45.8984118" lon="11.5601621"><ele>1190.6666666666665</ele><time>2026-04-26T13:56:25.441Z</time></trkpt><trkpt lat="45.8982929" lon="11.5599702"><ele>1186.3333333333333</ele><time>2026-04-26T13:56:26.44Z</time></trkpt><trkpt lat="45.8981657" lon="11.5597839"><ele>1182.0</ele><time>2026-04-26T13:56:27.44Z</time></trkpt><trkpt lat="45.8980429" lon="11.5595935"><ele>1188.3333333333333</ele><time>2026-04-26T13:56:28.44Z</time></trkpt><trkpt lat="45.897919" lon="11.5594093"><ele>1194.6666666666665</ele><time>2026-04-26T13:56:29.44Z</time></trkpt><trkpt lat="45.8977851" lon="11.5592412"><ele>1201.0</ele><time>2026-04-26T13:56:30.44Z</time></trkpt><trkpt lat="45.897662" lon="11.5591004"><ele>1195.75</ele><time>2026-04-26T13:56:31.44Z</time></trkpt><trkpt lat="45.8975423" lon="11.5589829"><ele>1190.5</ele><time>2026-04-26T13:56:32.44Z</time></trkpt><trkpt lat="45.8974245" lon="11.5589173"><ele>1185.25</ele><time>2026-04-26T13:56:33.44Z</time></trkpt><trkpt lat="45.8972769" lon="11.5589132"><ele>1180.0</ele><time>2026-04-26T13:56:34.44Z</time></trkpt><trkpt lat="45.897119" lon="11.5589757"><ele>1180.0</ele><time>2026-04-26T13:56:35.44Z</time></trkpt><trkpt lat="45.8969529" lon="11.5590361"><ele>1180.0</ele><time>2026-04-26T13:56:36.44Z</time></trkpt><trkpt lat="45.8967864" lon="11.559077"><ele>1180.0</ele><time>2026-04-26T13:56:37.441Z</time></trkpt><trkpt lat="45.8966155" lon="11.559056"><ele>1178.0</ele><time>2026-04-26T13:56:38.44Z</time></trkpt><trkpt lat="45.8964537" lon="11.5590514"><ele>1176.0</ele><time>2026-04-26T13:56:39.44Z</time></trkpt><trkpt lat="45.8963119" lon="11.5590412"><ele>1174.0</ele><time>2026-04-26T13:56:40.44Z</time></trkpt><trkpt lat="45.8961892" lon="11.5590646"><ele>1172.0</ele><time>2026-04-26T13:56:41.441Z</time></trkpt><trkpt lat="45.8960779" lon="11.5591286"><ele>1172.0</ele><time>2026-04-26T13:56:42.44Z</time></trkpt><trkpt lat="45.8959807" lon="11.5592174"><ele>1172.0</ele><time>2026-04-26T13:56:43.44Z</time></trkpt><trkpt lat="45.895884" lon="11.5593247"><ele>1172.0</ele><time>2026-04-26T13:56:44.44Z</time></trkpt><trkpt lat="45.8958368" lon="11.559513"><ele>1172.0</ele><time>2026-04-26T13:56:45.441Z</time></trkpt><trkpt lat="45.8958958" lon="11.5598317"><ele>1167.6666666666667</ele><time>2026-04-26T13:56:46.44Z</time></trkpt><trkpt lat="45.8958715" lon="11.5600526"><ele>1163.3333333333333</ele><time>2026-04-26T13:56:47.44Z</time></trkpt><trkpt lat="45.8958041" lon="11.560247"><ele>1159.0</ele><time>2026-04-26T13:56:48.44Z</time></trkpt><trkpt lat="45.8957108" lon="11.5604307"><ele>1153.5</ele><time>2026-04-26T13:56:49.441Z</time></trkpt><trkpt lat="45.8956145" lon="11.5605724"><ele>1148.0</ele><time>2026-04-26T13:56:50.441Z</time></trkpt><trkpt lat="45.8955276" lon="11.5606612"><ele>1142.5</ele><time>2026-04-26T13:56:51.441Z</time></trkpt><trkpt lat="45.8954276" lon="11.56067"><ele>1137.0</ele><time>2026-04-26T13:56:52.44Z</time></trkpt><trkpt lat="45.8953159" lon="11.5606591"><ele>1137.0</ele><time>2026-04-26T13:56:53.44Z</time></trkpt><trkpt lat="45.8952111" lon="11.5605984"><ele>1137.0</ele><time>2026-04-26T13:56:54.44Z</time></trkpt><trkpt lat="45.8951456" lon="11.5603984"><ele>1137.0</ele><time>2026-04-26T13:56:55.441Z</time></trkpt><trkpt lat="45.8950638" lon="11.560224"><ele>1137.0</ele><time>2026-04-26T13:56:56.441Z</time></trkpt><trkpt lat="45.8949661" lon="11.5600464"><ele>1138.6666666666667</ele><time>2026-04-26T13:56:57.44Z</time></trkpt><trkpt lat="45.8948527" lon="11.5598715"><ele>1140.3333333333335</ele><time>2026-04-26T13:56:58.441Z</time></trkpt><trkpt lat="45.8947353" lon="11.5597007"><ele>1142.0</ele><time>2026-04-26T13:56:59.44Z</time></trkpt><trkpt lat="45.8946106" lon="11.5595292"><ele>1137.6666666666667</ele><time>2026-04-26T13:57:00.44Z</time></trkpt><trkpt lat="45.8944768" lon="11.5593723"><ele>1133.3333333333333</ele><time>2026-04-26T13:57:01.44Z</time></trkpt><trkpt lat="45.8943336" lon="11.5592316"><ele>1129.0</ele><time>2026-04-26T13:57:02.441Z</time></trkpt><trkpt lat="45.8941909" lon="11.5590993"><ele>1129.0</ele><time>2026-04-26T13:57:03.44Z</time></trkpt><trkpt lat="45.8940449" lon="11.5589735"><ele>1129.0</ele><time>2026-04-26T13:57:04.441Z</time></trkpt><trkpt lat="45.8939033" lon="11.5588402"><ele>1129.0</ele><time>2026-04-26T13:57:05.441Z</time></trkpt><trkpt lat="45.893776" lon="11.5586979"><ele>1133.0</ele><time>2026-04-26T13:57:06.44Z</time></trkpt><trkpt lat="45.89366" lon="11.5585296"><ele>1137.0</ele><time>2026-04-26T13:57:07.44Z</time></trkpt><trkpt lat="45.8935405" lon="11.558358"><ele>1141.0</ele><time>2026-04-26T13:57:08.44Z</time></trkpt><trkpt lat="45.8934223" lon="11.5581812"><ele>1135.6666666666665</ele><time>2026-04-26T13:57:09.441Z</time></trkpt><trkpt lat="45.8933053" lon="11.5580038"><ele>1130.3333333333333</ele><time>2026-04-26T13:57:10.44Z</time></trkpt><trkpt lat="45.8931904" lon="11.55783"><ele>1125.0</ele><time>2026-04-26T13:57:11.441Z</time></trkpt><trkpt lat="45.8930834" lon="11.5576544"><ele>1125.0</ele><time>2026-04-26T13:57:12.441Z</time></trkpt><trkpt lat="45.8929725" lon="11.5574904"><ele>1125.0</ele><time>2026-04-26T13:57:13.441Z</time></trkpt><trkpt lat="45.8928675" lon="11.5573138"><ele>1125.0</ele><time>2026-04-26T13:57:14.44Z</time></trkpt><trkpt lat="45.8927616" lon="11.557129"><ele>1125.3333333333333</ele><time>2026-04-26T13:57:15.44Z</time></trkpt><trkpt lat="45.8926664" lon="11.5569501"><ele>1125.6666666666665</ele><time>2026-04-26T13:57:16.44Z</time></trkpt><trkpt lat="45.8925787" lon="11.5567616"><ele>1126.0</ele><time>2026-04-26T13:57:17.44Z</time></trkpt><trkpt lat="45.8924974" lon="11.556569"><ele>1121.6666666666665</ele><time>2026-04-26T13:57:18.441Z</time></trkpt><trkpt lat="45.8924262" lon="11.5563589"><ele>1117.3333333333333</ele><time>2026-04-26T13:57:19.441Z</time></trkpt><trkpt lat="45.8923648" lon="11.5561445"><ele>1113.0</ele><time>2026-04-26T13:57:20.44Z</time></trkpt><trkpt lat="45.8923275" lon="11.5559294"><ele>1113.0</ele><time>2026-04-26T13:57:21.44Z</time></trkpt><trkpt lat="45.8922993" lon="11.5557081"><ele>1113.0</ele><time>2026-04-26T13:57:22.44Z</time></trkpt><trkpt lat="45.8922723" lon="11.5554928"><ele>1113.0</ele><time>2026-04-26T13:57:23.44Z</time></trkpt><trkpt lat="45.8922419" lon="11.5552805"><ele>1113.0</ele><time>2026-04-26T13:57:24.44Z</time></trkpt><trkpt lat="45.8922019" lon="11.5550668"><ele>1113.0</ele><time>2026-04-26T13:57:25.441Z</time></trkpt><trkpt lat="45.8921607" lon="11.5548592"><ele>1113.0</ele><time>2026-04-26T13:57:26.44Z</time></trkpt><trkpt lat="45.8921218" lon="11.5546502"><ele>1112.25</ele><time>2026-04-26T13:57:27.44Z</time></trkpt><trkpt lat="45.8920968" lon="11.5544381"><ele>1111.5</ele><time>2026-04-26T13:57:28.441Z</time></trkpt><trkpt lat="45.8920816" lon="11.5542244"><ele>1110.75</ele><time>2026-04-26T13:57:29.441Z</time></trkpt><trkpt lat="45.8920758" lon="11.5540166"><ele>1110.0</ele><time>2026-04-26T13:57:30.441Z</time></trkpt><trkpt lat="45.8920749" lon="11.5538201"><ele>1108.0</ele><time>2026-04-26T13:57:31.44Z</time></trkpt><trkpt lat="45.8920809" lon="11.5536294"><ele>1106.0</ele><time>2026-04-26T13:57:32.44Z</time></trkpt><trkpt lat="45.8920903" lon="11.5534479"><ele>1104.0</ele><time>2026-04-26T13:57:33.441Z</time></trkpt><trkpt lat="45.8920997" lon="11.5532661"><ele>1102.0</ele><time>2026-04-26T13:57:34.44Z</time></trkpt><trkpt lat="45.8920953" lon="11.5530876"><ele>1102.0</ele><time>2026-04-26T13:57:35.44Z</time></trkpt><trkpt lat="45.8920841" lon="11.5529325"><ele>1102.0</ele><time>2026-04-26T13:57:36.441Z</time></trkpt><trkpt lat="45.8920781" lon="11.5527982"><ele>1102.0</ele><time>2026-04-26T13:57:37.44Z</time></trkpt><trkpt lat="45.8920617" lon="11.5526884"><ele>1102.0</ele><time>2026-04-26T13:57:38.44Z</time></trkpt><trkpt lat="45.8920459" lon="11.5525944"><ele>1102.0</ele><time>2026-04-26T13:57:39.44Z</time></trkpt><trkpt lat="45.892022" lon="11.5524474"><ele>1101.6666666666665</ele><time>2026-04-26T13:57:41.441Z</time></trkpt><trkpt lat="45.892011" lon="11.5523406"><ele>1101.3333333333333</ele><time>2026-04-26T13:57:50.44Z</time></trkpt><trkpt lat="45.8920183" lon="11.5522397"><ele>1101.0</ele><time>2026-04-26T13:58:27.44Z</time></trkpt><trkpt lat="45.8920015" lon="11.5520867"><ele>1100.6666666666667</ele><time>2026-04-26T13:58:29.441Z</time></trkpt><trkpt lat="45.8920096" lon="11.5519902"><ele>1100.3333333333335</ele><time>2026-04-26T13:58:30.441Z</time></trkpt><trkpt lat="45.8920257" lon="11.5518598"><ele>1100.0</ele><time>2026-04-26T13:58:31.44Z</time></trkpt><trkpt lat="45.892041" lon="11.5517326"><ele>1099.6</ele><time>2026-04-26T13:58:32.441Z</time></trkpt><trkpt lat="45.892057" lon="11.5516106"><ele>1099.2</ele><time>2026-04-26T13:58:33.44Z</time></trkpt><trkpt lat="45.8920726" lon="11.5514838"><ele>1098.8</ele><time>2026-04-26T13:58:34.44Z</time></trkpt><trkpt lat="45.8920893" lon="11.5513536"><ele>1098.4</ele><time>2026-04-26T13:58:35.44Z</time></trkpt><trkpt lat="45.8921023" lon="11.5512155"><ele>1098.0</ele><time>2026-04-26T13:58:36.44Z</time></trkpt><trkpt lat="45.8921191" lon="11.5510705"><ele>1097.6</ele><time>2026-04-26T13:58:37.441Z</time></trkpt><trkpt lat="45.8921328" lon="11.5509395"><ele>1097.1999999999998</ele><time>2026-04-26T13:58:38.44Z</time></trkpt><trkpt lat="45.8921495" lon="11.5508014"><ele>1096.8</ele><time>2026-04-26T13:58:39.44Z</time></trkpt><trkpt lat="45.8921687" lon="11.5506564"><ele>1096.3999999999999</ele><time>2026-04-26T13:58:40.44Z</time></trkpt><trkpt lat="45.8921891" lon="11.5505198"><ele>1096.0</ele><time>2026-04-26T13:58:41.441Z</time></trkpt><trkpt lat="45.8922052" lon="11.5503787"><ele>1094.8</ele><time>2026-04-26T13:58:42.44Z</time></trkpt><trkpt lat="45.8922238" lon="11.5502455"><ele>1093.6</ele><time>2026-04-26T13:58:43.44Z</time></trkpt><trkpt lat="45.8922345" lon="11.5501262"><ele>1092.4</ele><time>2026-04-26T13:58:44.44Z</time></trkpt><trkpt lat="45.8922485" lon="11.5499939"><ele>1091.2</ele><time>2026-04-26T13:58:45.44Z</time></trkpt><trkpt lat="45.8922713" lon="11.5498577"><ele>1090.0</ele><time>2026-04-26T13:58:46.44Z</time></trkpt><trkpt lat="45.8922873" lon="11.5497115"><ele>1090.0</ele><time>2026-04-26T13:58:47.441Z</time></trkpt><trkpt lat="45.8923036" lon="11.5495582"><ele>1090.0</ele><time>2026-04-26T13:58:48.44Z</time></trkpt><trkpt lat="45.8923264" lon="11.5494231"><ele>1090.0</ele><time>2026-04-26T13:58:49.44Z</time></trkpt><trkpt lat="45.8923422" lon="11.5492813"><ele>1090.0</ele><time>2026-04-26T13:58:50.44Z</time></trkpt><trkpt lat="45.8923646" lon="11.549146"><ele>1090.0</ele><time>2026-04-26T13:58:51.44Z</time></trkpt><trkpt lat="45.892384" lon="11.549013"><ele>1089.3333333333333</ele><time>2026-04-26T13:58:52.44Z</time></trkpt><trkpt lat="45.8924031" lon="11.5488917"><ele>1088.6666666666665</ele><time>2026-04-26T13:58:53.44Z</time></trkpt><trkpt lat="45.8924195" lon="11.54877"><ele>1088.0</ele><time>2026-04-26T13:58:54.44Z</time></trkpt><trkpt lat="45.8924377" lon="11.5486473"><ele>1087.3333333333333</ele><time>2026-04-26T13:58:55.441Z</time></trkpt><trkpt lat="45.8924525" lon="11.5485176"><ele>1086.6666666666667</ele><time>2026-04-26T13:58:56.44Z</time></trkpt><trkpt lat="45.8924685" lon="11.5483984"><ele>1086.0</ele><time>2026-04-26T13:58:57.44Z</time></trkpt><trkpt lat="45.8924816" lon="11.5482835"><ele>1086.0</ele><time>2026-04-26T13:58:58.44Z</time></trkpt><trkpt lat="45.8924955" lon="11.5481812"><ele>1086.0</ele><time>2026-04-26T13:58:59.44Z</time></trkpt><trkpt lat="45.892512" lon="11.5480009"><ele>1086.0</ele><time>2026-04-26T13:59:01.44Z</time></trkpt><trkpt lat="45.8925101" lon="11.5479038"><ele>1086.0</ele><time>2026-04-26T13:59:02.44Z</time></trkpt><trkpt lat="45.8924572" lon="11.5477838"><ele>1086.0</ele><time>2026-04-26T13:59:04.44Z</time></trkpt><trkpt lat="45.8923531" lon="11.5477745"><ele>1086.1666666666667</ele><time>2026-04-26T13:59:06.44Z</time></trkpt><trkpt lat="45.8922295" lon="11.5477667"><ele>1086.3333333333333</ele><time>2026-04-26T13:59:08.44Z</time></trkpt><trkpt lat="45.8921586" lon="11.5477239"><ele>1086.5</ele><time>2026-04-26T13:59:09.44Z</time></trkpt><trkpt lat="45.8920857" lon="11.5476958"><ele>1086.6666666666665</ele><time>2026-04-26T13:59:10.44Z</time></trkpt><trkpt lat="45.8920176" lon="11.5476581"><ele>1086.8333333333333</ele><time>2026-04-26T13:59:12.44Z</time></trkpt><trkpt lat="45.8920483" lon="11.5477517"><ele>1087.0</ele><time>2026-04-26T13:59:55.44Z</time></trkpt><trkpt lat="45.892121" lon="11.5477576"><ele>1087.0</ele><time>2026-04-26T13:59:56.44Z</time></trkpt><trkpt lat="45.89219" lon="11.5477864"><ele>1087.0</ele><time>2026-04-26T13:59:57.44Z</time></trkpt><trkpt lat="45.8922528" lon="11.5478287"><ele>1087.0</ele><time>2026-04-26T13:59:58.441Z</time></trkpt><trkpt lat="45.8923648" lon="11.5478735"><ele>1087.0</ele><time>2026-04-26T14:00:00.44Z</time></trkpt><trkpt lat="45.8924309" lon="11.5478914"><ele>1087.0</ele><time>2026-04-26T14:00:04.441Z</time></trkpt><trkpt lat="45.892486" lon="11.547837"><ele>1087.0</ele><time>2026-04-26T14:00:07.44Z</time></trkpt><trkpt lat="45.8925167" lon="11.5477382"><ele>1087.0</ele><time>2026-04-26T14:00:08.441Z</time></trkpt><trkpt lat="45.892535" lon="11.5476342"><ele>1087.0</ele><time>2026-04-26T14:00:09.44Z</time></trkpt><trkpt lat="45.8925548" lon="11.5475229"><ele>1087.0</ele><time>2026-04-26T14:00:10.44Z</time></trkpt><trkpt lat="45.8925758" lon="11.5474214"><ele>1087.0</ele><time>2026-04-26T14:00:11.441Z</time></trkpt><trkpt lat="45.8926033" lon="11.5473306"><ele>1087.0</ele><time>2026-04-26T14:00:12.44Z</time></trkpt><trkpt lat="45.8926535" lon="11.5471781"><ele>1087.0</ele><time>2026-04-26T14:00:14.44Z</time></trkpt><trkpt lat="45.8927122" lon="11.5470562"><ele>1087.0</ele><time>2026-04-26T14:00:16.44Z</time></trkpt><trkpt lat="45.8927895" lon="11.546976"><ele>1087.0</ele><time>2026-04-26T14:00:18.44Z</time></trkpt><trkpt lat="45.8928588" lon="11.5469156"><ele>1087.0</ele><time>2026-04-26T14:00:20.44Z</time></trkpt><trkpt lat="45.8927887" lon="11.5469226"><ele>1087.0</ele><time>2026-04-26T14:03:30.44Z</time></trkpt><trkpt lat="45.8927208" lon="11.546939"><ele>1087.0</ele><time>2026-04-26T14:03:36.439Z</time></trkpt><trkpt lat="45.8926603" lon="11.5469685"><ele>1087.0</ele><time>2026-04-26T14:03:42.439Z</time></trkpt><trkpt lat="45.8926198" lon="11.5470436"><ele>1087.0</ele><time>2026-04-26T14:03:50.455Z</time></trkpt><trkpt lat="45.8925601" lon="11.5470868"><ele>1087.0</ele><time>2026-04-26T14:03:57.439Z</time></trkpt><trkpt lat="45.892514" lon="11.5471542"><ele>1087.0</ele><time>2026-04-26T14:04:05.439Z</time></trkpt><trkpt lat="45.8924847" lon="11.547238"><ele>1087.0</ele><time>2026-04-26T14:04:12.246Z</time></trkpt><trkpt lat="45.8924477" lon="11.5473215"><ele>1087.0</ele><time>2026-04-26T14:04:19.46Z</time></trkpt><trkpt lat="45.892393" lon="11.5473739"><ele>1087.0</ele><time>2026-04-26T14:04:26.439Z</time></trkpt><trkpt lat="45.8923133" lon="11.5473893"><ele>1087.0</ele><time>2026-04-26T14:05:57.47Z</time></trkpt><trkpt lat="45.8924031" lon="11.5474525"><ele>1087.0</ele><time>2026-04-26T14:06:35.464Z</time></trkpt><trkpt lat="45.8924036" lon="11.5473586"><ele>1087.0</ele><time>2026-04-26T14:06:46.441Z</time></trkpt><trkpt lat="45.8924486" lon="11.5472774"><ele>1087.0</ele><time>2026-04-26T14:06:53.391Z</time></trkpt><trkpt lat="45.8924989" lon="11.5472044"><ele>1087.0</ele><time>2026-04-26T14:06:58.441Z</time></trkpt><trkpt lat="45.8925203" lon="11.5471113"><ele>1087.0</ele><time>2026-04-26T14:07:06.453Z</time></trkpt><trkpt lat="45.8924833" lon="11.5471913"><ele>1087.0</ele><time>2026-04-26T14:14:08.446Z</time></trkpt><trkpt lat="45.8925349" lon="11.5471274"><ele>1087.0</ele><time>2026-04-26T14:15:54.44Z</time></trkpt><trkpt lat="45.892567" lon="11.5470475"><ele>1087.0</ele><time>2026-04-26T14:16:02.464Z</time></trkpt><trkpt lat="45.8926286" lon="11.5469978"><ele>1085.8333333333333</ele><time>2026-04-26T14:16:12.441Z</time></trkpt><trkpt lat="45.8926977" lon="11.5469607"><ele>1084.6666666666665</ele><time>2026-04-26T14:16:18.44Z</time></trkpt><trkpt lat="45.8927633" lon="11.5469163"><ele>1083.5</ele><time>2026-04-26T14:16:25.445Z</time></trkpt><trkpt lat="45.892837" lon="11.5469163"><ele>1082.3333333333333</ele><time>2026-04-26T14:16:31.448Z</time></trkpt><trkpt lat="45.8929079" lon="11.5469094"><ele>1081.1666666666667</ele><time>2026-04-26T14:16:37.44Z</time></trkpt><trkpt lat="45.8929422" lon="11.5467214"><ele>1080.0</ele><time>2026-04-26T14:21:16.446Z</time></trkpt><trkpt lat="45.892973" lon="11.5466158"><ele>1080.0</ele><time>2026-04-26T14:21:17.444Z</time></trkpt><trkpt lat="45.8930026" lon="11.5465157"><ele>1080.0</ele><time>2026-04-26T14:21:18.439Z</time></trkpt><trkpt lat="45.8930179" lon="11.5463769"><ele>1080.0</ele><time>2026-04-26T14:21:19.437Z</time></trkpt><trkpt lat="45.8930266" lon="11.5462471"><ele>1080.0</ele><time>2026-04-26T14:21:20.438Z</time></trkpt><trkpt lat="45.8930208" lon="11.5461076"><ele>1080.0</ele><time>2026-04-26T14:21:21.439Z</time></trkpt><trkpt lat="45.8930089" lon="11.5459704"><ele>1079.8</ele><time>2026-04-26T14:21:22.439Z</time></trkpt><trkpt lat="45.8929812" lon="11.545833"><ele>1079.6</ele><time>2026-04-26T14:21:23.439Z</time></trkpt><trkpt lat="45.8929468" lon="11.5456986"><ele>1079.4</ele><time>2026-04-26T14:21:24.439Z</time></trkpt><trkpt lat="45.8929096" lon="11.5455614"><ele>1079.2</ele><time>2026-04-26T14:21:25.443Z</time></trkpt><trkpt lat="45.8928733" lon="11.5454226"><ele>1079.0</ele><time>2026-04-26T14:21:26.438Z</time></trkpt><trkpt lat="45.8928399" lon="11.5452785"><ele>1079.0</ele><time>2026-04-26T14:21:27.441Z</time></trkpt><trkpt lat="45.8928158" lon="11.5451301"><ele>1079.0</ele><time>2026-04-26T14:21:28.438Z</time></trkpt><trkpt lat="45.8928089" lon="11.544971"><ele>1079.0</ele><time>2026-04-26T14:21:29.438Z</time></trkpt><trkpt lat="45.8928134" lon="11.5448026"><ele>1079.0</ele><time>2026-04-26T14:21:30.437Z</time></trkpt><trkpt lat="45.8928071" lon="11.5446217"><ele>1079.0</ele><time>2026-04-26T14:21:31.441Z</time></trkpt><trkpt lat="45.8927743" lon="11.5444653"><ele>1079.0</ele><time>2026-04-26T14:21:32.439Z</time></trkpt><trkpt lat="45.8927109" lon="11.5443186"><ele>1079.0</ele><time>2026-04-26T14:21:33.44Z</time></trkpt><trkpt lat="45.8926163" lon="11.5441838"><ele>1079.0</ele><time>2026-04-26T14:21:34.438Z</time></trkpt><trkpt lat="45.8925149" lon="11.5440486"><ele>1077.6666666666667</ele><time>2026-04-26T14:21:35.438Z</time></trkpt><trkpt lat="45.8924188" lon="11.543888"><ele>1076.3333333333333</ele><time>2026-04-26T14:21:36.44Z</time></trkpt><trkpt lat="45.8923259" lon="11.5436962"><ele>1075.0</ele><time>2026-04-26T14:21:37.438Z</time></trkpt><trkpt lat="45.892223" lon="11.5434964"><ele>1074.3333333333333</ele><time>2026-04-26T14:21:38.439Z</time></trkpt><trkpt lat="45.8921171" lon="11.5432988"><ele>1073.6666666666667</ele><time>2026-04-26T14:21:39.439Z</time></trkpt><trkpt lat="45.892004" lon="11.5431066"><ele>1073.0</ele><time>2026-04-26T14:21:40.438Z</time></trkpt><trkpt lat="45.8918794" lon="11.5429222"><ele>1073.6666666666667</ele><time>2026-04-26T14:21:41.437Z</time></trkpt><trkpt lat="45.8917455" lon="11.5427457"><ele>1074.3333333333333</ele><time>2026-04-26T14:21:42.437Z</time></trkpt><trkpt lat="45.8916009" lon="11.5425854"><ele>1075.0</ele><time>2026-04-26T14:21:43.436Z</time></trkpt><trkpt lat="45.8914515" lon="11.5424385"><ele>1075.0</ele><time>2026-04-26T14:21:44.437Z</time></trkpt><trkpt lat="45.8912954" lon="11.542299"><ele>1075.0</ele><time>2026-04-26T14:21:45.439Z</time></trkpt><trkpt lat="45.8911346" lon="11.5421614"><ele>1075.0</ele><time>2026-04-26T14:21:46.437Z</time></trkpt><trkpt lat="45.8909751" lon="11.5420263"><ele>1074.0</ele><time>2026-04-26T14:21:47.441Z</time></trkpt><trkpt lat="45.8908149" lon="11.5418896"><ele>1073.0</ele><time>2026-04-26T14:21:48.441Z</time></trkpt><trkpt lat="45.8906557" lon="11.541754"><ele>1072.0</ele><time>2026-04-26T14:21:49.438Z</time></trkpt><trkpt lat="45.8905042" lon="11.5416255"><ele>1072.0</ele><time>2026-04-26T14:21:50.438Z</time></trkpt><trkpt lat="45.8903623" lon="11.5415083"><ele>1072.0</ele><time>2026-04-26T14:21:51.443Z</time></trkpt><trkpt lat="45.8902296" lon="11.5414016"><ele>1072.0</ele><time>2026-04-26T14:21:52.439Z</time></trkpt><trkpt lat="45.8901123" lon="11.54131"><ele>1072.0</ele><time>2026-04-26T14:21:53.437Z</time></trkpt><trkpt lat="45.8900027" lon="11.5412372"><ele>1072.8</ele><time>2026-04-26T14:21:54.44Z</time></trkpt><trkpt lat="45.8899077" lon="11.5411793"><ele>1073.6</ele><time>2026-04-26T14:21:55.437Z</time></trkpt><trkpt lat="45.8898255" lon="11.5411346"><ele>1074.3999999999999</ele><time>2026-04-26T14:21:56.437Z</time></trkpt><trkpt lat="45.8897421" lon="11.5410961"><ele>1075.2</ele><time>2026-04-26T14:21:57.437Z</time></trkpt><trkpt lat="45.8896598" lon="11.5410618"><ele>1076.0</ele><time>2026-04-26T14:21:58.438Z</time></trkpt><trkpt lat="45.8895724" lon="11.5410341"><ele>1076.0</ele><time>2026-04-26T14:21:59.437Z</time></trkpt><trkpt lat="45.8894507" lon="11.5410131"><ele>1076.0</ele><time>2026-04-26T14:22:00.438Z</time></trkpt><trkpt lat="45.8893074" lon="11.5409916"><ele>1076.0</ele><time>2026-04-26T14:22:01.437Z</time></trkpt><trkpt lat="45.889145" lon="11.5409682"><ele>1076.0</ele><time>2026-04-26T14:22:02.437Z</time></trkpt><trkpt lat="45.8889551" lon="11.5409435"><ele>1075.0</ele><time>2026-04-26T14:22:03.438Z</time></trkpt><trkpt lat="45.888774" lon="11.5409187"><ele>1074.0</ele><time>2026-04-26T14:22:04.44Z</time></trkpt><trkpt lat="45.8886079" lon="11.540883"><ele>1073.0</ele><time>2026-04-26T14:22:05.438Z</time></trkpt><trkpt lat="45.8884535" lon="11.5408447"><ele>1072.0</ele><time>2026-04-26T14:22:06.437Z</time></trkpt><trkpt lat="45.888309" lon="11.5408124"><ele>1071.0</ele><time>2026-04-26T14:22:07.44Z</time></trkpt><trkpt lat="45.888166" lon="11.5407662"><ele>1070.0</ele><time>2026-04-26T14:22:08.437Z</time></trkpt><trkpt lat="45.8880227" lon="11.5406854"><ele>1069.0</ele><time>2026-04-26T14:22:09.438Z</time></trkpt><trkpt lat="45.8878836" lon="11.5405741"><ele>1069.0</ele><time>2026-04-26T14:22:10.438Z</time></trkpt><trkpt lat="45.8877434" lon="11.5404397"><ele>1069.0</ele><time>2026-04-26T14:22:11.439Z</time></trkpt><trkpt lat="45.887602" lon="11.5402998"><ele>1069.0</ele><time>2026-04-26T14:22:12.439Z</time></trkpt><trkpt lat="45.8874605" lon="11.5401534"><ele>1070.6666666666665</ele><time>2026-04-26T14:22:13.437Z</time></trkpt><trkpt lat="45.8873202" lon="11.5400055"><ele>1072.3333333333333</ele><time>2026-04-26T14:22:14.449Z</time></trkpt><trkpt lat="45.8871823" lon="11.5398552"><ele>1074.0</ele><time>2026-04-26T14:22:15.44Z</time></trkpt><trkpt lat="45.8870467" lon="11.5397067"><ele>1074.0</ele><time>2026-04-26T14:22:16.439Z</time></trkpt><trkpt lat="45.8869087" lon="11.5395589"><ele>1074.0</ele><time>2026-04-26T14:22:17.438Z</time></trkpt><trkpt lat="45.886712" lon="11.5393483"><ele>1074.0</ele><time>2026-04-26T14:22:19.378Z</time></trkpt><trkpt lat="45.8865067" lon="11.539109"><ele>1074.0</ele><time>2026-04-26T14:22:20.441Z</time></trkpt><trkpt lat="45.8863798" lon="11.5389479"><ele>1074.0</ele><time>2026-04-26T14:22:21.438Z</time></trkpt><trkpt lat="45.8862611" lon="11.5387798"><ele>1074.0</ele><time>2026-04-26T14:22:22.437Z</time></trkpt><trkpt lat="45.8861431" lon="11.5386035"><ele>1073.0</ele><time>2026-04-26T14:22:23.438Z</time></trkpt><trkpt lat="45.8860319" lon="11.5384228"><ele>1072.0</ele><time>2026-04-26T14:22:24.438Z</time></trkpt><trkpt lat="45.885917" lon="11.5382342"><ele>1071.0</ele><time>2026-04-26T14:22:25.437Z</time></trkpt><trkpt lat="45.8857982" lon="11.5380433"><ele>1070.3333333333333</ele><time>2026-04-26T14:22:26.438Z</time></trkpt><trkpt lat="45.8856852" lon="11.5378515"><ele>1069.6666666666665</ele><time>2026-04-26T14:22:27.438Z</time></trkpt><trkpt lat="45.8855686" lon="11.5376616"><ele>1069.0</ele><time>2026-04-26T14:22:28.437Z</time></trkpt><trkpt lat="45.8854499" lon="11.5374668"><ele>1069.0</ele><time>2026-04-26T14:22:29.436Z</time></trkpt><trkpt lat="45.8853312" lon="11.537274"><ele>1069.0</ele><time>2026-04-26T14:22:30.438Z</time></trkpt><trkpt lat="45.8852137" lon="11.537081"><ele>1069.0</ele><time>2026-04-26T14:22:31.438Z</time></trkpt><trkpt lat="45.8850973" lon="11.5368874"><ele>1067.0</ele><time>2026-04-26T14:22:32.439Z</time></trkpt><trkpt lat="45.8849788" lon="11.5366921"><ele>1065.0</ele><time>2026-04-26T14:22:33.439Z</time></trkpt><trkpt lat="45.8848594" lon="11.5364938"><ele>1063.0</ele><time>2026-04-26T14:22:34.438Z</time></trkpt><trkpt lat="45.8847459" lon="11.5362959"><ele>1063.3333333333333</ele><time>2026-04-26T14:22:35.437Z</time></trkpt><trkpt lat="45.8846363" lon="11.5360913"><ele>1063.6666666666667</ele><time>2026-04-26T14:22:36.442Z</time></trkpt><trkpt lat="45.8845324" lon="11.5358813"><ele>1064.0</ele><time>2026-04-26T14:22:37.438Z</time></trkpt><trkpt lat="45.8844337" lon="11.5356646"><ele>1064.0</ele><time>2026-04-26T14:22:38.437Z</time></trkpt><trkpt lat="45.8843398" lon="11.5354468"><ele>1064.0</ele><time>2026-04-26T14:22:39.437Z</time></trkpt><trkpt lat="45.8842443" lon="11.535232"><ele>1064.0</ele><time>2026-04-26T14:22:40.438Z</time></trkpt><trkpt lat="45.8841506" lon="11.5350208"><ele>1062.0</ele><time>2026-04-26T14:22:41.437Z</time></trkpt><trkpt lat="45.8840514" lon="11.5348142"><ele>1060.0</ele><time>2026-04-26T14:22:42.439Z</time></trkpt><trkpt lat="45.8839463" lon="11.5346144"><ele>1058.0</ele><time>2026-04-26T14:22:43.437Z</time></trkpt><trkpt lat="45.8838412" lon="11.534426"><ele>1057.6666666666667</ele><time>2026-04-26T14:22:44.437Z</time></trkpt><trkpt lat="45.8837293" lon="11.5342459"><ele>1057.3333333333333</ele><time>2026-04-26T14:22:45.439Z</time></trkpt><trkpt lat="45.8836133" lon="11.5340742"><ele>1057.0</ele><time>2026-04-26T14:22:46.443Z</time></trkpt><trkpt lat="45.8834924" lon="11.5339187"><ele>1055.3333333333333</ele><time>2026-04-26T14:22:47.439Z</time></trkpt><trkpt lat="45.8833639" lon="11.5337801"><ele>1053.6666666666667</ele><time>2026-04-26T14:22:48.437Z</time></trkpt><trkpt lat="45.8832317" lon="11.533642"><ele>1052.0</ele><time>2026-04-26T14:22:49.443Z</time></trkpt><trkpt lat="45.883096" lon="11.5335172"><ele>1052.0</ele><time>2026-04-26T14:22:50.44Z</time></trkpt><trkpt lat="45.88296" lon="11.5333921"><ele>1052.0</ele><time>2026-04-26T14:22:51.44Z</time></trkpt><trkpt lat="45.8828212" lon="11.5332662"><ele>1052.0</ele><time>2026-04-26T14:22:52.437Z</time></trkpt><trkpt lat="45.8826826" lon="11.5331374"><ele>1051.6666666666667</ele><time>2026-04-26T14:22:53.437Z</time></trkpt><trkpt lat="45.8825439" lon="11.5330086"><ele>1051.3333333333333</ele><time>2026-04-26T14:22:54.437Z</time></trkpt><trkpt lat="45.882412" lon="11.5328726"><ele>1051.0</ele><time>2026-04-26T14:22:55.441Z</time></trkpt><trkpt lat="45.8822834" lon="11.5327276"><ele>1051.0</ele><time>2026-04-26T14:22:56.436Z</time></trkpt><trkpt lat="45.8821643" lon="11.532575"><ele>1051.0</ele><time>2026-04-26T14:22:57.438Z</time></trkpt><trkpt lat="45.8820467" lon="11.5324176"><ele>1051.0</ele><time>2026-04-26T14:22:58.44Z</time></trkpt><trkpt lat="45.8819329" lon="11.5322488"><ele>1051.0</ele><time>2026-04-26T14:22:59.441Z</time></trkpt><trkpt lat="45.8818227" lon="11.5320745"><ele>1051.0</ele><time>2026-04-26T14:23:00.438Z</time></trkpt><trkpt lat="45.8817154" lon="11.5318975"><ele>1051.0</ele><time>2026-04-26T14:23:01.438Z</time></trkpt><trkpt lat="45.8816163" lon="11.5317084"><ele>1046.3333333333333</ele><time>2026-04-26T14:23:02.437Z</time></trkpt><trkpt lat="45.8815164" lon="11.5315188"><ele>1041.6666666666667</ele><time>2026-04-26T14:23:03.437Z</time></trkpt><trkpt lat="45.8814198" lon="11.531323"><ele>1037.0</ele><time>2026-04-26T14:23:04.439Z</time></trkpt><trkpt lat="45.8813352" lon="11.5311182"><ele>1037.0</ele><time>2026-04-26T14:23:05.437Z</time></trkpt><trkpt lat="45.8812528" lon="11.5309064"><ele>1037.0</ele><time>2026-04-26T14:23:06.438Z</time></trkpt><trkpt lat="45.8811872" lon="11.5306935"><ele>1037.0</ele><time>2026-04-26T14:23:07.439Z</time></trkpt><trkpt lat="45.8811165" lon="11.5304828"><ele>1037.6666666666667</ele><time>2026-04-26T14:23:08.437Z</time></trkpt><trkpt lat="45.881076" lon="11.5302695"><ele>1038.3333333333333</ele><time>2026-04-26T14:23:09.441Z</time></trkpt><trkpt lat="45.8810307" lon="11.5300632"><ele>1039.0</ele><time>2026-04-26T14:23:10.438Z</time></trkpt><trkpt lat="45.880978" lon="11.5298548"><ele>1037.0</ele><time>2026-04-26T14:23:11.437Z</time></trkpt><trkpt lat="45.8809296" lon="11.5296505"><ele>1035.0</ele><time>2026-04-26T14:23:12.438Z</time></trkpt><trkpt lat="45.8808818" lon="11.5294532"><ele>1033.0</ele><time>2026-04-26T14:23:13.438Z</time></trkpt><trkpt lat="45.8808353" lon="11.5292624"><ele>1031.0</ele><time>2026-04-26T14:23:14.438Z</time></trkpt><trkpt lat="45.8807951" lon="11.5290776"><ele>1031.0</ele><time>2026-04-26T14:23:15.441Z</time></trkpt><trkpt lat="45.8807572" lon="11.5288922"><ele>1031.0</ele><time>2026-04-26T14:23:16.437Z</time></trkpt><trkpt lat="45.8807262" lon="11.5287084"><ele>1031.0</ele><time>2026-04-26T14:23:17.438Z</time></trkpt><trkpt lat="45.8806971" lon="11.5285278"><ele>1031.0</ele><time>2026-04-26T14:23:18.44Z</time></trkpt><trkpt lat="45.8806698" lon="11.5283419"><ele>1031.5</ele><time>2026-04-26T14:23:19.437Z</time></trkpt><trkpt lat="45.8806456" lon="11.5281526"><ele>1032.0</ele><time>2026-04-26T14:23:20.442Z</time></trkpt><trkpt lat="45.8806261" lon="11.5279615"><ele>1032.5</ele><time>2026-04-26T14:23:21.439Z</time></trkpt><trkpt lat="45.8806048" lon="11.5277726"><ele>1033.0</ele><time>2026-04-26T14:23:22.439Z</time></trkpt><trkpt lat="45.880583" lon="11.527582"><ele>1033.5</ele><time>2026-04-26T14:23:23.438Z</time></trkpt><trkpt lat="45.8805575" lon="11.5273905"><ele>1034.0</ele><time>2026-04-26T14:23:24.438Z</time></trkpt><trkpt lat="45.8805349" lon="11.5271971"><ele>1034.5</ele><time>2026-04-26T14:23:25.438Z</time></trkpt><trkpt lat="45.8805114" lon="11.5270016"><ele>1035.0</ele><time>2026-04-26T14:23:26.438Z</time></trkpt><trkpt lat="45.8804949" lon="11.526808"><ele>1035.0</ele><time>2026-04-26T14:23:27.438Z</time></trkpt><trkpt lat="45.8804815" lon="11.5266171"><ele>1035.0</ele><time>2026-04-26T14:23:28.439Z</time></trkpt><trkpt lat="45.8804757" lon="11.5264257"><ele>1035.0</ele><time>2026-04-26T14:23:29.44Z</time></trkpt><trkpt lat="45.8804771" lon="11.5262397"><ele>1035.0</ele><time>2026-04-26T14:23:30.438Z</time></trkpt><trkpt lat="45.8804826" lon="11.5260518"><ele>1033.75</ele><time>2026-04-26T14:23:31.439Z</time></trkpt><trkpt lat="45.8804884" lon="11.5258641"><ele>1032.5</ele><time>2026-04-26T14:23:32.437Z</time></trkpt><trkpt lat="45.8804993" lon="11.5256768"><ele>1031.25</ele><time>2026-04-26T14:23:33.437Z</time></trkpt><trkpt lat="45.8805068" lon="11.5254868"><ele>1030.0</ele><time>2026-04-26T14:23:34.438Z</time></trkpt><trkpt lat="45.8805215" lon="11.5252972"><ele>1030.0</ele><time>2026-04-26T14:23:35.439Z</time></trkpt><trkpt lat="45.8805356" lon="11.5251051"><ele>1030.0</ele><time>2026-04-26T14:23:36.443Z</time></trkpt><trkpt lat="45.880548" lon="11.5249151"><ele>1030.0</ele><time>2026-04-26T14:23:37.438Z</time></trkpt><trkpt lat="45.8805611" lon="11.5247164"><ele>1030.0</ele><time>2026-04-26T14:23:38.439Z</time></trkpt><trkpt lat="45.8805751" lon="11.5245208"><ele>1030.0</ele><time>2026-04-26T14:23:39.438Z</time></trkpt><trkpt lat="45.8805915" lon="11.5243259"><ele>1030.0</ele><time>2026-04-26T14:23:40.437Z</time></trkpt><trkpt lat="45.8806043" lon="11.524129"><ele>1030.0</ele><time>2026-04-26T14:23:41.438Z</time></trkpt><trkpt lat="45.8806157" lon="11.5239379"><ele>1030.0</ele><time>2026-04-26T14:23:42.439Z</time></trkpt><trkpt lat="45.8806213" lon="11.5237537"><ele>1029.25</ele><time>2026-04-26T14:23:43.439Z</time></trkpt><trkpt lat="45.8806227" lon="11.5235761"><ele>1028.5</ele><time>2026-04-26T14:23:44.437Z</time></trkpt><trkpt lat="45.8806236" lon="11.5234106"><ele>1027.75</ele><time>2026-04-26T14:23:45.438Z</time></trkpt><trkpt lat="45.8806237" lon="11.5232449"><ele>1027.0</ele><time>2026-04-26T14:23:46.44Z</time></trkpt><trkpt lat="45.8806168" lon="11.5230793"><ele>1027.0</ele><time>2026-04-26T14:23:47.439Z</time></trkpt><trkpt lat="45.8806033" lon="11.5229041"><ele>1027.0</ele><time>2026-04-26T14:23:48.437Z</time></trkpt><trkpt lat="45.8805805" lon="11.5227243"><ele>1027.0</ele><time>2026-04-26T14:23:49.437Z</time></trkpt><trkpt lat="45.8805545" lon="11.5225366"><ele>1027.0</ele><time>2026-04-26T14:23:50.436Z</time></trkpt><trkpt lat="45.8805216" lon="11.5223468"><ele>1027.25</ele><time>2026-04-26T14:23:51.437Z</time></trkpt><trkpt lat="45.8804861" lon="11.5221492"><ele>1027.5</ele><time>2026-04-26T14:23:52.437Z</time></trkpt><trkpt lat="45.8804459" lon="11.5219481"><ele>1027.75</ele><time>2026-04-26T14:23:53.441Z</time></trkpt><trkpt lat="45.880399" lon="11.5217423"><ele>1028.0</ele><time>2026-04-26T14:23:54.439Z</time></trkpt><trkpt lat="45.8803481" lon="11.5215385"><ele>1028.3333333333335</ele><time>2026-04-26T14:23:55.438Z</time></trkpt><trkpt lat="45.8802878" lon="11.5213313"><ele>1028.6666666666667</ele><time>2026-04-26T14:23:56.438Z</time></trkpt><trkpt lat="45.8802217" lon="11.5211273"><ele>1029.0</ele><time>2026-04-26T14:23:57.438Z</time></trkpt><trkpt lat="45.8801549" lon="11.5209199"><ele>1026.0</ele><time>2026-04-26T14:23:58.437Z</time></trkpt><trkpt lat="45.8800837" lon="11.5207194"><ele>1023.0</ele><time>2026-04-26T14:23:59.439Z</time></trkpt><trkpt lat="45.8800145" lon="11.5205325"><ele>1020.0</ele><time>2026-04-26T14:24:00.439Z</time></trkpt><trkpt lat="45.8799441" lon="11.5203341"><ele>1018.6666666666667</ele><time>2026-04-26T14:24:01.438Z</time></trkpt><trkpt lat="45.8798733" lon="11.5201381"><ele>1017.3333333333334</ele><time>2026-04-26T14:24:02.438Z</time></trkpt><trkpt lat="45.879807" lon="11.5199376"><ele>1016.0</ele><time>2026-04-26T14:24:03.439Z</time></trkpt><trkpt lat="45.8797444" lon="11.5197259"><ele>1015.3333333333334</ele><time>2026-04-26T14:24:04.438Z</time></trkpt><trkpt lat="45.8796843" lon="11.5195104"><ele>1014.6666666666667</ele><time>2026-04-26T14:24:05.437Z</time></trkpt><trkpt lat="45.879629" lon="11.5193022"><ele>1014.0</ele><time>2026-04-26T14:24:06.439Z</time></trkpt><trkpt lat="45.8795829" lon="11.5191069"><ele>1014.0</ele><time>2026-04-26T14:24:07.439Z</time></trkpt><trkpt lat="45.8795277" lon="11.5189019"><ele>1014.0</ele><time>2026-04-26T14:24:08.438Z</time></trkpt><trkpt lat="45.8794683" lon="11.5186851"><ele>1014.0</ele><time>2026-04-26T14:24:09.439Z</time></trkpt><trkpt lat="45.8794035" lon="11.5184497"><ele>1013.6666666666667</ele><time>2026-04-26T14:24:10.439Z</time></trkpt><trkpt lat="45.8793348" lon="11.5181936"><ele>1013.3333333333334</ele><time>2026-04-26T14:24:11.437Z</time></trkpt><trkpt lat="45.8792725" lon="11.5179406"><ele>1013.0</ele><time>2026-04-26T14:24:12.441Z</time></trkpt><trkpt lat="45.8792123" lon="11.5176947"><ele>1013.0</ele><time>2026-04-26T14:24:13.44Z</time></trkpt><trkpt lat="45.8791579" lon="11.5174605"><ele>1013.0</ele><time>2026-04-26T14:24:14.443Z</time></trkpt><trkpt lat="45.8791084" lon="11.5172398"><ele>1013.0</ele><time>2026-04-26T14:24:15.437Z</time></trkpt><trkpt lat="45.8790559" lon="11.517034"><ele>1012.5</ele><time>2026-04-26T14:24:16.437Z</time></trkpt><trkpt lat="45.8790049" lon="11.5168308"><ele>1012.0</ele><time>2026-04-26T14:24:17.437Z</time></trkpt><trkpt lat="45.8789504" lon="11.516637"><ele>1011.5</ele><time>2026-04-26T14:24:18.438Z</time></trkpt><trkpt lat="45.8788977" lon="11.5164409"><ele>1011.0</ele><time>2026-04-26T14:24:19.439Z</time></trkpt><trkpt lat="45.8788465" lon="11.5162462"><ele>1011.75</ele><time>2026-04-26T14:24:20.442Z</time></trkpt><trkpt lat="45.8787986" lon="11.5160603"><ele>1012.5</ele><time>2026-04-26T14:24:21.437Z</time></trkpt><trkpt lat="45.8787538" lon="11.5158673"><ele>1013.25</ele><time>2026-04-26T14:24:22.436Z</time></trkpt><trkpt lat="45.8787085" lon="11.5156803"><ele>1014.0</ele><time>2026-04-26T14:24:23.437Z</time></trkpt><trkpt lat="45.8786649" lon="11.5154965"><ele>1014.25</ele><time>2026-04-26T14:24:24.439Z</time></trkpt><trkpt lat="45.8786128" lon="11.5153206"><ele>1014.5</ele><time>2026-04-26T14:24:25.438Z</time></trkpt><trkpt lat="45.8785551" lon="11.5151403"><ele>1014.75</ele><time>2026-04-26T14:24:26.438Z</time></trkpt><trkpt lat="45.8784817" lon="11.5149623"><ele>1015.0</ele><time>2026-04-26T14:24:27.437Z</time></trkpt><trkpt lat="45.8784097" lon="11.5147941"><ele>1013.75</ele><time>2026-04-26T14:24:28.441Z</time></trkpt><trkpt lat="45.878343" lon="11.5146238"><ele>1012.5</ele><time>2026-04-26T14:24:29.438Z</time></trkpt><trkpt lat="45.878279" lon="11.5144676"><ele>1011.25</ele><time>2026-04-26T14:24:30.436Z</time></trkpt><trkpt lat="45.8782103" lon="11.514305"><ele>1010.0</ele><time>2026-04-26T14:24:31.438Z</time></trkpt><trkpt lat="45.878137" lon="11.5141342"><ele>1010.0</ele><time>2026-04-26T14:24:32.439Z</time></trkpt><trkpt lat="45.8780583" lon="11.5139626"><ele>1010.0</ele><time>2026-04-26T14:24:33.437Z</time></trkpt><trkpt lat="45.877988" lon="11.5137948"><ele>1010.0</ele><time>2026-04-26T14:24:34.437Z</time></trkpt><trkpt lat="45.877924" lon="11.5136386"><ele>1010.0</ele><time>2026-04-26T14:24:35.437Z</time></trkpt><trkpt lat="45.8778613" lon="11.513483"><ele>1009.5000000000001</ele><time>2026-04-26T14:24:36.439Z</time></trkpt><trkpt lat="45.8778186" lon="11.5133457"><ele>1009.0</ele><time>2026-04-26T14:24:37.438Z</time></trkpt><trkpt lat="45.8777701" lon="11.5132233"><ele>1008.5</ele><time>2026-04-26T14:24:38.437Z</time></trkpt><trkpt lat="45.8777265" lon="11.5131238"><ele>1008.0</ele><time>2026-04-26T14:24:39.446Z</time></trkpt><trkpt lat="45.8776917" lon="11.5130441"><ele>1007.5000000000001</ele><time>2026-04-26T14:24:40.436Z</time></trkpt><trkpt lat="45.8776603" lon="11.5129642"><ele>1007.0</ele><time>2026-04-26T14:24:41.438Z</time></trkpt><trkpt lat="45.8775938" lon="11.5128035"><ele>1006.6666666666667</ele><time>2026-04-26T14:24:43.44Z</time></trkpt><trkpt lat="45.8775519" lon="11.5127219"><ele>1006.3333333333334</ele><time>2026-04-26T14:24:44.437Z</time></trkpt><trkpt lat="45.8775016" lon="11.5126308"><ele>1006.0</ele><time>2026-04-26T14:24:45.439Z</time></trkpt><trkpt lat="45.8774581" lon="11.5125379"><ele>1005.6666666666667</ele><time>2026-04-26T14:24:46.44Z</time></trkpt><trkpt lat="45.8774046" lon="11.5123774"><ele>1005.3333333333334</ele><time>2026-04-26T14:24:48.44Z</time></trkpt><trkpt lat="45.8773721" lon="11.5122948"><ele>1005.0</ele><time>2026-04-26T14:24:49.44Z</time></trkpt><trkpt lat="45.8773346" lon="11.5122059"><ele>1005.0</ele><time>2026-04-26T14:24:50.438Z</time></trkpt><trkpt lat="45.8772926" lon="11.5121116"><ele>1005.0</ele><time>2026-04-26T14:24:51.437Z</time></trkpt><trkpt lat="45.8772477" lon="11.5120093"><ele>1005.0</ele><time>2026-04-26T14:24:52.439Z</time></trkpt><trkpt lat="45.8772069" lon="11.5119128"><ele>1005.0</ele><time>2026-04-26T14:24:53.437Z</time></trkpt><trkpt lat="45.8771651" lon="11.5118132"><ele>1005.0</ele><time>2026-04-26T14:24:54.436Z</time></trkpt><trkpt lat="45.8771264" lon="11.5117053"><ele>1005.0</ele><time>2026-04-26T14:24:55.44Z</time></trkpt><trkpt lat="45.8770859" lon="11.5116056"><ele>1005.0</ele><time>2026-04-26T14:24:56.439Z</time></trkpt><trkpt lat="45.8770472" lon="11.5115073"><ele>1005.0</ele><time>2026-04-26T14:24:57.437Z</time></trkpt><trkpt lat="45.8770117" lon="11.5114046"><ele>1005.0</ele><time>2026-04-26T14:24:58.438Z</time></trkpt><trkpt lat="45.8769722" lon="11.5113176"><ele>1005.0</ele><time>2026-04-26T14:24:59.438Z</time></trkpt><trkpt lat="45.8769279" lon="11.5112268"><ele>1005.0</ele><time>2026-04-26T14:25:00.436Z</time></trkpt><trkpt lat="45.876885" lon="11.511139"><ele>1005.0</ele><time>2026-04-26T14:25:01.44Z</time></trkpt><trkpt lat="45.8768443" lon="11.5110485"><ele>1005.0</ele><time>2026-04-26T14:25:02.437Z</time></trkpt><trkpt lat="45.8768032" lon="11.5109584"><ele>1005.0</ele><time>2026-04-26T14:25:03.444Z</time></trkpt><trkpt lat="45.8767612" lon="11.5108756"><ele>1005.0</ele><time>2026-04-26T14:25:04.438Z</time></trkpt><trkpt lat="45.8767309" lon="11.5107838"><ele>1005.0</ele><time>2026-04-26T14:25:05.437Z</time></trkpt><trkpt lat="45.8766729" lon="11.5106355"><ele>1005.0</ele><time>2026-04-26T14:25:07.442Z</time></trkpt><trkpt lat="45.8766128" lon="11.5105052"><ele>1005.0</ele><time>2026-04-26T14:25:09.441Z</time></trkpt><trkpt lat="45.8765268" lon="11.5104402"><ele>1005.0</ele><time>2026-04-26T14:25:11.437Z</time></trkpt><trkpt lat="45.8763967" lon="11.5104542"><ele>1005.0</ele><time>2026-04-26T14:25:13.438Z</time></trkpt><trkpt lat="45.8763149" lon="11.5104718"><ele>1005.0</ele><time>2026-04-26T14:25:14.44Z</time></trkpt><trkpt lat="45.8762252" lon="11.5104952"><ele>1005.0</ele><time>2026-04-26T14:25:15.438Z</time></trkpt><trkpt lat="45.8761458" lon="11.5105168"><ele>1005.0</ele><time>2026-04-26T14:25:16.438Z</time></trkpt><trkpt lat="45.8760677" lon="11.5105325"><ele>1005.0</ele><time>2026-04-26T14:25:17.436Z</time></trkpt><trkpt lat="45.8759976" lon="11.5105496"><ele>1005.0</ele><time>2026-04-26T14:25:18.435Z</time></trkpt><trkpt lat="45.8759004" lon="11.510574"><ele>1005.0</ele><time>2026-04-26T14:25:20.436Z</time></trkpt><trkpt lat="45.8758375" lon="11.5106016"><ele>1005.0</ele><time>2026-04-26T14:25:22.44Z</time></trkpt><trkpt lat="45.8757712" lon="11.5106809"><ele>1005.0</ele><time>2026-04-26T14:25:25.438Z</time></trkpt><trkpt lat="45.8757799" lon="11.510794"><ele>1005.0</ele><time>2026-04-26T14:25:27.443Z</time></trkpt><trkpt lat="45.8757532" lon="11.5109598"><ele>1004.5</ele><time>2026-04-26T14:25:29.436Z</time></trkpt><trkpt lat="45.8757251" lon="11.5110442"><ele>1004.0</ele><time>2026-04-26T14:25:30.438Z</time></trkpt><trkpt lat="45.875694" lon="11.5111504"><ele>1003.5</ele><time>2026-04-26T14:25:31.439Z</time></trkpt><trkpt lat="45.8756543" lon="11.5112613"><ele>1003.0</ele><time>2026-04-26T14:25:32.439Z</time></trkpt><trkpt lat="45.8756219" lon="11.5113817"><ele>1002.5</ele><time>2026-04-26T14:25:33.438Z</time></trkpt><trkpt lat="45.8755866" lon="11.5114925"><ele>1002.0</ele><time>2026-04-26T14:25:34.442Z</time></trkpt><trkpt lat="45.8755539" lon="11.5115993"><ele>1002.0</ele><time>2026-04-26T14:25:35.437Z</time></trkpt><trkpt lat="45.8755198" lon="11.5117027"><ele>1002.0</ele><time>2026-04-26T14:25:36.438Z</time></trkpt><trkpt lat="45.8754875" lon="11.5118093"><ele>1002.0</ele><time>2026-04-26T14:25:37.443Z</time></trkpt><trkpt lat="45.8754651" lon="11.5119186"><ele>1002.0</ele><time>2026-04-26T14:25:38.437Z</time></trkpt><trkpt lat="45.8754563" lon="11.5120341"><ele>1002.0</ele><time>2026-04-26T14:25:39.436Z</time></trkpt><trkpt lat="45.8754547" lon="11.5121462"><ele>1002.0</ele><time>2026-04-26T14:25:40.44Z</time></trkpt><trkpt lat="45.8754558" lon="11.5122531"><ele>1001.8571428571429</ele><time>2026-04-26T14:25:41.437Z</time></trkpt><trkpt lat="45.87546" lon="11.5123692"><ele>1001.7142857142857</ele><time>2026-04-26T14:25:42.437Z</time></trkpt><trkpt lat="45.8754603" lon="11.512475"><ele>1001.5714285714286</ele><time>2026-04-26T14:25:43.439Z</time></trkpt><trkpt lat="45.8754656" lon="11.5125808"><ele>1001.4285714285714</ele><time>2026-04-26T14:25:44.441Z</time></trkpt><trkpt lat="45.8754657" lon="11.5126827"><ele>1001.2857142857142</ele><time>2026-04-26T14:25:45.44Z</time></trkpt><trkpt lat="45.8754647" lon="11.5127812"><ele>1001.1428571428571</ele><time>2026-04-26T14:25:46.438Z</time></trkpt><trkpt lat="45.875461" lon="11.5128751"><ele>1001.0</ele><time>2026-04-26T14:25:47.436Z</time></trkpt><trkpt lat="45.875461" lon="11.512974"><ele>1001.0</ele><time>2026-04-26T14:25:48.438Z</time></trkpt><trkpt lat="45.8754621" lon="11.5131439"><ele>1000.9999999999999</ele><time>2026-04-26T14:25:50.436Z</time></trkpt><trkpt lat="45.8754693" lon="11.5132979"><ele>1000.9999999999999</ele><time>2026-04-26T14:25:52.438Z</time></trkpt><trkpt lat="45.8754669" lon="11.5134335"><ele>1001.0</ele><time>2026-04-26T14:25:54.437Z</time></trkpt><trkpt lat="45.8754724" lon="11.5135999"><ele>1001.0</ele><time>2026-04-26T14:25:56.438Z</time></trkpt><trkpt lat="45.8754765" lon="11.5137766"><ele>1001.4285714285714</ele><time>2026-04-26T14:25:58.437Z</time></trkpt><trkpt lat="45.8754814" lon="11.5138724"><ele>1001.8571428571429</ele><time>2026-04-26T14:25:59.438Z</time></trkpt><trkpt lat="45.8754862" lon="11.5139629"><ele>1002.2857142857142</ele><time>2026-04-26T14:26:00.435Z</time></trkpt><trkpt lat="45.8754857" lon="11.514059"><ele>1002.7142857142857</ele><time>2026-04-26T14:26:01.444Z</time></trkpt><trkpt lat="45.8754876" lon="11.5141532"><ele>1003.1428571428571</ele><time>2026-04-26T14:26:02.438Z</time></trkpt><trkpt lat="45.8754896" lon="11.514312"><ele>1003.5714285714284</ele><time>2026-04-26T14:26:04.438Z</time></trkpt><trkpt lat="45.875493" lon="11.5144057"><ele>1003.9999999999999</ele><time>2026-04-26T14:26:06.439Z</time></trkpt><trkpt lat="45.8754778" lon="11.5145453"><ele>1004.1666666666667</ele><time>2026-04-26T14:26:09.436Z</time></trkpt><trkpt lat="45.8753745" lon="11.5146012"><ele>1004.3333333333334</ele><time>2026-04-26T14:26:12.444Z</time></trkpt><trkpt lat="45.8752563" lon="11.5146173"><ele>1004.5</ele><time>2026-04-26T14:26:14.436Z</time></trkpt><trkpt lat="45.8751887" lon="11.514618"><ele>1004.6666666666667</ele><time>2026-04-26T14:26:15.437Z</time></trkpt><trkpt lat="45.8751233" lon="11.5146213"><ele>1004.8333333333334</ele><time>2026-04-26T14:26:16.442Z</time></trkpt><trkpt lat="45.8750596" lon="11.5146239"><ele>1005.0</ele><time>2026-04-26T14:26:17.438Z</time></trkpt><trkpt lat="45.8749961" lon="11.5146266"><ele>1005.4</ele><time>2026-04-26T14:26:18.439Z</time></trkpt><trkpt lat="45.8748925" lon="11.5146297"><ele>1005.8</ele><time>2026-04-26T14:26:20.44Z</time></trkpt><trkpt lat="45.8747963" lon="11.5146213"><ele>1006.2</ele><time>2026-04-26T14:26:22.438Z</time></trkpt><trkpt lat="45.8747003" lon="11.5145908"><ele>1006.6</ele><time>2026-04-26T14:26:24.44Z</time></trkpt><trkpt lat="45.8746016" lon="11.5145666"><ele>1007.0</ele><time>2026-04-26T14:26:26.442Z</time></trkpt><trkpt lat="45.8744943" lon="11.5146025"><ele>1007.0</ele><time>2026-04-26T14:26:28.437Z</time></trkpt><trkpt lat="45.8743732" lon="11.5146612"><ele>1007.0</ele><time>2026-04-26T14:26:30.439Z</time></trkpt><trkpt lat="45.8742905" lon="11.5146817"><ele>1007.0</ele><time>2026-04-26T14:26:31.441Z</time></trkpt><trkpt lat="45.8741944" lon="11.5146954"><ele>1007.0</ele><time>2026-04-26T14:26:32.438Z</time></trkpt><trkpt lat="45.8740935" lon="11.5147006"><ele>1007.0</ele><time>2026-04-26T14:26:33.436Z</time></trkpt><trkpt lat="45.8740098" lon="11.5147043"><ele>1006.6666666666667</ele><time>2026-04-26T14:26:34.439Z</time></trkpt><trkpt lat="45.8739367" lon="11.5147076"><ele>1006.3333333333334</ele><time>2026-04-26T14:26:35.437Z</time></trkpt><trkpt lat="45.8738729" lon="11.5147089"><ele>1006.0</ele><time>2026-04-26T14:26:36.437Z</time></trkpt><trkpt lat="45.8737785" lon="11.5147086"><ele>1005.6666666666667</ele><time>2026-04-26T14:26:38.436Z</time></trkpt><trkpt lat="45.8737071" lon="11.514703"><ele>1005.3333333333334</ele><time>2026-04-26T14:26:40.439Z</time></trkpt><trkpt lat="45.8736506" lon="11.5146499"><ele>1005.0</ele><time>2026-04-26T14:26:42.439Z</time></trkpt><trkpt lat="45.8736235" lon="11.5144951"><ele>1004.8</ele><time>2026-04-26T14:26:44.436Z</time></trkpt><trkpt lat="45.8736215" lon="11.5143797"><ele>1004.6</ele><time>2026-04-26T14:26:45.441Z</time></trkpt><trkpt lat="45.8736234" lon="11.5142263"><ele>1004.4000000000001</ele><time>2026-04-26T14:26:46.438Z</time></trkpt><trkpt lat="45.8736291" lon="11.5140588"><ele>1004.2</ele><time>2026-04-26T14:26:47.437Z</time></trkpt><trkpt lat="45.8736343" lon="11.51391"><ele>1004.0</ele><time>2026-04-26T14:26:48.438Z</time></trkpt><trkpt lat="45.8736389" lon="11.5137826"><ele>1004.0000000000001</ele><time>2026-04-26T14:26:49.444Z</time></trkpt><trkpt lat="45.8736439" lon="11.5136718"><ele>1004.0</ele><time>2026-04-26T14:26:50.439Z</time></trkpt><trkpt lat="45.873649" lon="11.5135712"><ele>1004.0</ele><time>2026-04-26T14:26:51.438Z</time></trkpt><trkpt lat="45.8736574" lon="11.5134682"><ele>1004.0</ele><time>2026-04-26T14:26:52.44Z</time></trkpt><trkpt lat="45.8736598" lon="11.5133565"><ele>1004.0000000000001</ele><time>2026-04-26T14:26:53.437Z</time></trkpt><trkpt lat="45.8736623" lon="11.5132348"><ele>1004.0</ele><time>2026-04-26T14:26:54.437Z</time></trkpt><trkpt lat="45.8736642" lon="11.5131105"><ele>1004.0000000000001</ele><time>2026-04-26T14:26:55.439Z</time></trkpt><trkpt lat="45.8736646" lon="11.5129831"><ele>1004.0</ele><time>2026-04-26T14:26:56.438Z</time></trkpt><trkpt lat="45.8736648" lon="11.5128494"><ele>1004.0</ele><time>2026-04-26T14:26:57.437Z</time></trkpt><trkpt lat="45.8736644" lon="11.5127159"><ele>1004.0</ele><time>2026-04-26T14:26:58.438Z</time></trkpt><trkpt lat="45.8736667" lon="11.5126037"><ele>1004.0000000000001</ele><time>2026-04-26T14:26:59.438Z</time></trkpt><trkpt lat="45.8736663" lon="11.5124998"><ele>1004.0</ele><time>2026-04-26T14:27:00.438Z</time></trkpt><trkpt lat="45.873662" lon="11.5123976"><ele>1003.8571428571427</ele><time>2026-04-26T14:27:01.438Z</time></trkpt><trkpt lat="45.8736617" lon="11.512306"><ele>1003.7142857142857</ele><time>2026-04-26T14:27:02.44Z</time></trkpt><trkpt lat="45.8736619" lon="11.5122133"><ele>1003.5714285714284</ele><time>2026-04-26T14:27:03.438Z</time></trkpt><trkpt lat="45.8736581" lon="11.5121192"><ele>1003.4285714285713</ele><time>2026-04-26T14:27:04.44Z</time></trkpt><trkpt lat="45.87366" lon="11.5120212"><ele>1003.2857142857142</ele><time>2026-04-26T14:27:05.438Z</time></trkpt><trkpt lat="45.873666" lon="11.5119203"><ele>1003.1428571428571</ele><time>2026-04-26T14:27:06.437Z</time></trkpt><trkpt lat="45.8736706" lon="11.51181"><ele>1003.0</ele><time>2026-04-26T14:27:07.438Z</time></trkpt><trkpt lat="45.8736737" lon="11.5116989"><ele>1002.6666666666666</ele><time>2026-04-26T14:27:08.444Z</time></trkpt><trkpt lat="45.873672" lon="11.5115983"><ele>1002.3333333333333</ele><time>2026-04-26T14:27:09.437Z</time></trkpt><trkpt lat="45.8736791" lon="11.5114466"><ele>1002.0</ele><time>2026-04-26T14:27:11.437Z</time></trkpt><trkpt lat="45.8736939" lon="11.5113512"><ele>1001.6666666666667</ele><time>2026-04-26T14:27:14.438Z</time></trkpt><trkpt lat="45.8736859" lon="11.5112506"><ele>1001.3333333333334</ele><time>2026-04-26T14:27:32.438Z</time></trkpt><trkpt lat="45.8737578" lon="11.5111709"><ele>1001.0</ele><time>2026-04-26T14:27:35.437Z</time></trkpt><trkpt lat="45.8738432" lon="11.5111693"><ele>1001.0000000000001</ele><time>2026-04-26T14:27:36.436Z</time></trkpt><trkpt lat="45.8739274" lon="11.5111404"><ele>1001.0</ele><time>2026-04-26T14:27:37.437Z</time></trkpt><trkpt lat="45.8740115" lon="11.5111125"><ele>1001.0</ele><time>2026-04-26T14:27:38.439Z</time></trkpt><trkpt lat="45.8740915" lon="11.5110899"><ele>1001.0</ele><time>2026-04-26T14:27:39.437Z</time></trkpt><trkpt lat="45.8741688" lon="11.5110679"><ele>1001.0000000000001</ele><time>2026-04-26T14:27:40.438Z</time></trkpt><trkpt lat="45.8742434" lon="11.5110496"><ele>1001.0</ele><time>2026-04-26T14:27:41.437Z</time></trkpt><trkpt lat="45.8743233" lon="11.5110301"><ele>1001.2857142857142</ele><time>2026-04-26T14:27:42.436Z</time></trkpt><trkpt lat="45.8743971" lon="11.5110092"><ele>1001.5714285714286</ele><time>2026-04-26T14:27:43.438Z</time></trkpt><trkpt lat="45.8744738" lon="11.5109934"><ele>1001.8571428571429</ele><time>2026-04-26T14:27:44.438Z</time></trkpt><trkpt lat="45.8745506" lon="11.5109745"><ele>1002.1428571428571</ele><time>2026-04-26T14:27:45.437Z</time></trkpt><trkpt lat="45.8746254" lon="11.5109532"><ele>1002.4285714285713</ele><time>2026-04-26T14:27:46.441Z</time></trkpt><trkpt lat="45.8746985" lon="11.5109364"><ele>1002.7142857142857</ele><time>2026-04-26T14:27:47.446Z</time></trkpt><trkpt lat="45.874761" lon="11.5109233"><ele>1003.0</ele><time>2026-04-26T14:27:48.438Z</time></trkpt><trkpt lat="45.8748301" lon="11.5108991"><ele>1003.0</ele><time>2026-04-26T14:27:49.439Z</time></trkpt><trkpt lat="45.8749033" lon="11.51088"><ele>1002.9999999999999</ele><time>2026-04-26T14:27:50.438Z</time></trkpt><trkpt lat="45.8749759" lon="11.5108677"><ele>1003.0</ele><time>2026-04-26T14:27:51.438Z</time></trkpt><trkpt lat="45.8750464" lon="11.5108495"><ele>1003.0</ele><time>2026-04-26T14:27:52.439Z</time></trkpt><trkpt lat="45.8751114" lon="11.51084"><ele>1002.9999999999999</ele><time>2026-04-26T14:27:53.439Z</time></trkpt><trkpt lat="45.87518" lon="11.5108128"><ele>1003.0</ele><time>2026-04-26T14:27:54.436Z</time></trkpt><trkpt lat="45.8752479" lon="11.5107925"><ele>1003.0</ele><time>2026-04-26T14:27:55.439Z</time></trkpt><trkpt lat="45.875355" lon="11.5107748"><ele>1002.8571428571428</ele><time>2026-04-26T14:27:57.438Z</time></trkpt><trkpt lat="45.8754344" lon="11.5107546"><ele>1002.7142857142856</ele><time>2026-04-26T14:27:59.438Z</time></trkpt><trkpt lat="45.8755014" lon="11.5107032"><ele>1002.5714285714286</ele><time>2026-04-26T14:28:02.437Z</time></trkpt><trkpt lat="45.875523" lon="11.5106165"><ele>1002.4285714285713</ele><time>2026-04-26T14:28:05.437Z</time></trkpt><trkpt lat="45.8754464" lon="11.5105866"><ele>1002.2857142857142</ele><time>2026-04-26T14:28:09.441Z</time></trkpt><trkpt lat="45.8754087" lon="11.5106761"><ele>1002.1428571428571</ele><time>2026-04-26T14:28:13.437Z</time></trkpt><trkpt lat="45.8754795" lon="11.5107149"><ele>1002.0</ele><time>2026-04-26T14:28:15.436Z</time></trkpt><trkpt lat="45.8755454" lon="11.5106538"><ele>1002.0</ele><time>2026-04-26T14:28:17.436Z</time></trkpt><trkpt lat="45.8754927" lon="11.5105648"><ele>1002.0</ele><time>2026-04-26T14:28:20.439Z</time></trkpt><trkpt lat="45.8754273" lon="11.5105272"><ele>1002.0</ele><time>2026-04-26T14:28:23.437Z</time></trkpt><trkpt lat="45.875349" lon="11.510462"><ele>1002.0</ele><time>2026-04-26T14:28:26.438Z</time></trkpt><trkpt lat="45.8752449" lon="11.5103846"><ele>1002.0</ele><time>2026-04-26T14:28:28.439Z</time></trkpt><trkpt lat="45.8751772" lon="11.5103309"><ele>1002.0</ele><time>2026-04-26T14:28:29.438Z</time></trkpt><trkpt lat="45.8751044" lon="11.5102825"><ele>1002.1666666666666</ele><time>2026-04-26T14:28:30.438Z</time></trkpt><trkpt lat="45.8750248" lon="11.5102369"><ele>1002.3333333333333</ele><time>2026-04-26T14:28:31.437Z</time></trkpt><trkpt lat="45.8749685" lon="11.5101855"><ele>1002.5</ele><time>2026-04-26T14:28:32.437Z</time></trkpt><trkpt lat="45.8748689" lon="11.5101062"><ele>1002.6666666666666</ele><time>2026-04-26T14:28:34.437Z</time></trkpt><trkpt lat="45.8748086" lon="11.51008"><ele>1002.8333333333333</ele><time>2026-04-26T14:28:37.437Z</time></trkpt><trkpt lat="45.874759" lon="11.510163"><ele>1003.0</ele><time>2026-04-26T14:28:39.437Z</time></trkpt><trkpt lat="45.8747327" lon="11.5102541"><ele>1002.9999999999999</ele><time>2026-04-26T14:28:40.438Z</time></trkpt><trkpt lat="45.8746905" lon="11.5103723"><ele>1003.0</ele><time>2026-04-26T14:28:41.441Z</time></trkpt><trkpt lat="45.874646" lon="11.5104917"><ele>1003.0</ele><time>2026-04-26T14:28:42.438Z</time></trkpt><trkpt lat="45.8746052" lon="11.5105913"><ele>1003.0</ele><time>2026-04-26T14:28:43.437Z</time></trkpt><trkpt lat="45.8745641" lon="11.5106838"><ele>1002.9999999999999</ele><time>2026-04-26T14:28:44.439Z</time></trkpt><trkpt lat="45.8745312" lon="11.5107626"><ele>1003.0</ele><time>2026-04-26T14:28:45.438Z</time></trkpt><trkpt lat="45.8744686" lon="11.510889"><ele>1003.0</ele><time>2026-04-26T14:28:47.439Z</time></trkpt><trkpt lat="45.8743451" lon="11.5109601"><ele>1003.0</ele><time>2026-04-26T14:28:49.44Z</time></trkpt><trkpt lat="45.8742561" lon="11.5109888"><ele>1003.0</ele><time>2026-04-26T14:28:50.437Z</time></trkpt><trkpt lat="45.8741618" lon="11.5110214"><ele>1003.0</ele><time>2026-04-26T14:28:51.437Z</time></trkpt><trkpt lat="45.8740529" lon="11.5110503"><ele>1003.0</ele><time>2026-04-26T14:28:52.44Z</time></trkpt><trkpt lat="45.8739444" lon="11.5110778"><ele>1002.5999999999999</ele><time>2026-04-26T14:28:53.436Z</time></trkpt><trkpt lat="45.8738442" lon="11.5111075"><ele>1002.1999999999999</ele><time>2026-04-26T14:28:54.437Z</time></trkpt><trkpt lat="45.8737474" lon="11.5111359"><ele>1001.8</ele><time>2026-04-26T14:28:55.446Z</time></trkpt><trkpt lat="45.8736525" lon="11.5111619"><ele>1001.4</ele><time>2026-04-26T14:28:56.436Z</time></trkpt><trkpt lat="45.8735628" lon="11.5111857"><ele>1001.0</ele><time>2026-04-26T14:28:57.441Z</time></trkpt><trkpt lat="45.8734769" lon="11.5112113"><ele>1000.6666666666667</ele><time>2026-04-26T14:28:58.437Z</time></trkpt><trkpt lat="45.8733904" lon="11.5112342"><ele>1000.3333333333334</ele><time>2026-04-26T14:28:59.439Z</time></trkpt><trkpt lat="45.8733101" lon="11.511255"><ele>1000.0</ele><time>2026-04-26T14:29:00.438Z</time></trkpt><trkpt lat="45.8732327" lon="11.5112734"><ele>999.6666666666667</ele><time>2026-04-26T14:29:01.438Z</time></trkpt><trkpt lat="45.8731524" lon="11.511293"><ele>999.3333333333334</ele><time>2026-04-26T14:29:02.438Z</time></trkpt><trkpt lat="45.8730824" lon="11.5113113"><ele>999.0</ele><time>2026-04-26T14:29:03.436Z</time></trkpt><trkpt lat="45.8730151" lon="11.5113267"><ele>999.0</ele><time>2026-04-26T14:29:04.438Z</time></trkpt><trkpt lat="45.872942" lon="11.5113438"><ele>999.0000000000001</ele><time>2026-04-26T14:29:05.436Z</time></trkpt><trkpt lat="45.8728696" lon="11.5113592"><ele>999.0</ele><time>2026-04-26T14:29:06.438Z</time></trkpt><trkpt lat="45.8727956" lon="11.5113771"><ele>999.0</ele><time>2026-04-26T14:29:07.437Z</time></trkpt><trkpt lat="45.8727197" lon="11.5113943"><ele>999.0000000000001</ele><time>2026-04-26T14:29:08.438Z</time></trkpt><trkpt lat="45.8726451" lon="11.5114153"><ele>999.0</ele><time>2026-04-26T14:29:09.44Z</time></trkpt><trkpt lat="45.8725769" lon="11.5114335"><ele>999.0</ele><time>2026-04-26T14:29:10.437Z</time></trkpt><trkpt lat="45.8725055" lon="11.511447"><ele>998.6666666666666</ele><time>2026-04-26T14:29:11.437Z</time></trkpt><trkpt lat="45.8724324" lon="11.5114767"><ele>998.3333333333333</ele><time>2026-04-26T14:29:12.436Z</time></trkpt><trkpt lat="45.8723444" lon="11.5114965"><ele>998.0</ele><time>2026-04-26T14:29:13.437Z</time></trkpt><trkpt lat="45.8722614" lon="11.5115142"><ele>997.6666666666666</ele><time>2026-04-26T14:29:14.44Z</time></trkpt><trkpt lat="45.8721845" lon="11.5115288"><ele>997.3333333333333</ele><time>2026-04-26T14:29:15.439Z</time></trkpt><trkpt lat="45.8721178" lon="11.5115511"><ele>997.0</ele><time>2026-04-26T14:29:16.439Z</time></trkpt><trkpt lat="45.8720246" lon="11.5115356"><ele>996.9999999999999</ele><time>2026-04-26T14:29:18.439Z</time></trkpt><trkpt lat="45.8719639" lon="11.5114893"><ele>997.0</ele><time>2026-04-26T14:29:22.437Z</time></trkpt><trkpt lat="45.8719577" lon="11.5113668"><ele>997.0</ele><time>2026-04-26T14:29:25.437Z</time></trkpt><trkpt lat="45.8719705" lon="11.5112697"><ele>997.0</ele><time>2026-04-26T14:29:26.437Z</time></trkpt><trkpt lat="45.8719951" lon="11.5110861"><ele>996.9999999999999</ele><time>2026-04-26T14:29:28.437Z</time></trkpt><trkpt lat="45.8720125" lon="11.5109726"><ele>997.0</ele><time>2026-04-26T14:29:29.436Z</time></trkpt><trkpt lat="45.8720274" lon="11.5108613"><ele>996.9999999999999</ele><time>2026-04-26T14:29:30.439Z</time></trkpt><trkpt lat="45.8720436" lon="11.5107554"><ele>997.0</ele><time>2026-04-26T14:29:31.441Z</time></trkpt><trkpt lat="45.8720593" lon="11.5106536"><ele>997.0</ele><time>2026-04-26T14:29:32.439Z</time></trkpt><trkpt lat="45.8720726" lon="11.5105473"><ele>997.0</ele><time>2026-04-26T14:29:33.439Z</time></trkpt><trkpt lat="45.8720821" lon="11.5104573"><ele>996.9999999999999</ele><time>2026-04-26T14:29:34.445Z</time></trkpt><trkpt lat="45.872096" lon="11.5103025"><ele>997.0</ele><time>2026-04-26T14:29:36.437Z</time></trkpt><trkpt lat="45.8720614" lon="11.5101942"><ele>996.8333333333333</ele><time>2026-04-26T14:29:38.437Z</time></trkpt><trkpt lat="45.8719789" lon="11.5101741"><ele>996.6666666666666</ele><time>2026-04-26T14:29:40.437Z</time></trkpt><trkpt lat="45.8718965" lon="11.5101978"><ele>996.5</ele><time>2026-04-26T14:29:42.441Z</time></trkpt><trkpt lat="45.8718239" lon="11.5102337"><ele>996.3333333333333</ele><time>2026-04-26T14:29:44.436Z</time></trkpt><trkpt lat="45.8717396" lon="11.5102785"><ele>996.1666666666666</ele><time>2026-04-26T14:29:47.436Z</time></trkpt><trkpt lat="45.8716622" lon="11.5103318"><ele>996.0</ele><time>2026-04-26T14:29:49.438Z</time></trkpt><trkpt lat="45.8715693" lon="11.5103965"><ele>996.0</ele><time>2026-04-26T14:29:51.439Z</time></trkpt><trkpt lat="45.8714834" lon="11.5104558"><ele>996.0</ele><time>2026-04-26T14:29:53.439Z</time></trkpt><trkpt lat="45.871436" lon="11.5105204"><ele>996.0</ele><time>2026-04-26T14:29:55.436Z</time></trkpt><trkpt lat="45.8713758" lon="11.5105573"><ele>996.0</ele><time>2026-04-26T14:30:14.438Z</time></trkpt><trkpt lat="45.8713152" lon="11.5106786"><ele>996.0</ele><time>2026-04-26T14:30:16.441Z</time></trkpt><trkpt lat="45.8713101" lon="11.5107822"><ele>996.0</ele><time>2026-04-26T14:30:17.442Z</time></trkpt><trkpt lat="45.8713249" lon="11.5108993"><ele>996.0</ele><time>2026-04-26T14:30:18.438Z</time></trkpt><trkpt lat="45.8713403" lon="11.511009"><ele>995.9999999999999</ele><time>2026-04-26T14:30:19.437Z</time></trkpt><trkpt lat="45.8713582" lon="11.5111066"><ele>996.0</ele><time>2026-04-26T14:30:20.436Z</time></trkpt><trkpt lat="45.8713773" lon="11.5112107"><ele>996.0</ele><time>2026-04-26T14:30:21.438Z</time></trkpt><trkpt lat="45.8713891" lon="11.5113153"><ele>995.9999999999999</ele><time>2026-04-26T14:30:22.442Z</time></trkpt><trkpt lat="45.8714081" lon="11.5114127"><ele>996.0</ele><time>2026-04-26T14:30:23.438Z</time></trkpt><trkpt lat="45.8714219" lon="11.5115034"><ele>996.0</ele><time>2026-04-26T14:30:24.437Z</time></trkpt><trkpt lat="45.8714427" lon="11.5115928"><ele>996.1999999999999</ele><time>2026-04-26T14:30:25.439Z</time></trkpt><trkpt lat="45.8714743" lon="11.5116796"><ele>996.3999999999999</ele><time>2026-04-26T14:30:26.437Z</time></trkpt><trkpt lat="45.8715643" lon="11.5117753"><ele>996.6</ele><time>2026-04-26T14:30:28.438Z</time></trkpt><trkpt lat="45.8716786" lon="11.5117444"><ele>996.8</ele><time>2026-04-26T14:30:30.436Z</time></trkpt><trkpt lat="45.8717921" lon="11.5116776"><ele>997.0</ele><time>2026-04-26T14:30:32.438Z</time></trkpt><trkpt lat="45.8718442" lon="11.5116265"><ele>997.0</ele><time>2026-04-26T14:30:33.437Z</time></trkpt><trkpt lat="45.8719157" lon="11.5114821"><ele>997.0</ele><time>2026-04-26T14:30:35.441Z</time></trkpt><trkpt lat="45.8719414" lon="11.5113699"><ele>997.0</ele><time>2026-04-26T14:30:36.436Z</time></trkpt><trkpt lat="45.8719618" lon="11.5112494"><ele>997.0</ele><time>2026-04-26T14:30:37.442Z</time></trkpt><trkpt lat="45.8719833" lon="11.5111115"><ele>997.0</ele><time>2026-04-26T14:30:38.436Z</time></trkpt><trkpt lat="45.8720105" lon="11.5109778"><ele>997.0</ele><time>2026-04-26T14:30:39.436Z</time></trkpt><trkpt lat="45.8720302" lon="11.5108459"><ele>997.0</ele><time>2026-04-26T14:30:40.439Z</time></trkpt><trkpt lat="45.8720511" lon="11.5107084"><ele>997.0</ele><time>2026-04-26T14:30:41.439Z</time></trkpt><trkpt lat="45.8720716" lon="11.5105638"><ele>997.0</ele><time>2026-04-26T14:30:42.437Z</time></trkpt><trkpt lat="45.8720924" lon="11.5104262"><ele>997.0</ele><time>2026-04-26T14:30:43.437Z</time></trkpt><trkpt lat="45.8721125" lon="11.5102921"><ele>996.8</ele><time>2026-04-26T14:30:44.436Z</time></trkpt><trkpt lat="45.8721345" lon="11.510148"><ele>996.6</ele><time>2026-04-26T14:30:45.439Z</time></trkpt><trkpt lat="45.8721579" lon="11.5100026"><ele>996.3999999999999</ele><time>2026-04-26T14:30:46.436Z</time></trkpt><trkpt lat="45.8721823" lon="11.5098548"><ele>996.1999999999999</ele><time>2026-04-26T14:30:47.437Z</time></trkpt><trkpt lat="45.8722036" lon="11.5097145"><ele>996.0</ele><time>2026-04-26T14:30:48.441Z</time></trkpt><trkpt lat="45.8722265" lon="11.5095803"><ele>996.0</ele><time>2026-04-26T14:30:49.438Z</time></trkpt><trkpt lat="45.8722437" lon="11.5094323"><ele>995.9999999999999</ele><time>2026-04-26T14:30:50.438Z</time></trkpt><trkpt lat="45.8722674" lon="11.5092848"><ele>995.9999999999999</ele><time>2026-04-26T14:30:51.438Z</time></trkpt><trkpt lat="45.8722858" lon="11.5091532"><ele>996.0</ele><time>2026-04-26T14:30:52.439Z</time></trkpt><trkpt lat="45.8723073" lon="11.5090214"><ele>996.0</ele><time>2026-04-26T14:30:53.437Z</time></trkpt><trkpt lat="45.8723256" lon="11.5089049"><ele>996.0</ele><time>2026-04-26T14:30:54.44Z</time></trkpt><trkpt lat="45.8723381" lon="11.5088028"><ele>996.0</ele><time>2026-04-26T14:30:55.437Z</time></trkpt><trkpt lat="45.8723523" lon="11.5087094"><ele>996.0</ele><time>2026-04-26T14:30:56.438Z</time></trkpt><trkpt lat="45.8723775" lon="11.5085687"><ele>996.0</ele><time>2026-04-26T14:30:58.438Z</time></trkpt><trkpt lat="45.8723925" lon="11.5084679"><ele>996.0</ele><time>2026-04-26T14:31:00.438Z</time></trkpt><trkpt lat="45.8724107" lon="11.508375"><ele>996.0</ele><time>2026-04-26T14:31:02.439Z</time></trkpt><trkpt lat="45.8724153" lon="11.5082713"><ele>996.8</ele><time>2026-04-26T14:31:05.438Z</time></trkpt><trkpt lat="45.8724352" lon="11.5080998"><ele>997.5999999999999</ele><time>2026-04-26T14:32:07.442Z</time></trkpt><trkpt lat="45.8724526" lon="11.5079934"><ele>998.4</ele><time>2026-04-26T14:32:08.435Z</time></trkpt><trkpt lat="45.8724695" lon="11.5078756"><ele>999.2</ele><time>2026-04-26T14:32:09.437Z</time></trkpt><trkpt lat="45.8724876" lon="11.5077557"><ele>1000.0</ele><time>2026-04-26T14:32:10.442Z</time></trkpt><trkpt lat="45.8725073" lon="11.5076253"><ele>1000.0</ele><time>2026-04-26T14:32:11.437Z</time></trkpt><trkpt lat="45.8725283" lon="11.5074975"><ele>1000.0</ele><time>2026-04-26T14:32:12.437Z</time></trkpt><trkpt lat="45.8725563" lon="11.5073678"><ele>1000.0</ele><time>2026-04-26T14:32:13.437Z</time></trkpt><trkpt lat="45.8725947" lon="11.5072388"><ele>1000.0</ele><time>2026-04-26T14:32:14.436Z</time></trkpt><trkpt lat="45.8726448" lon="11.5071163"><ele>1000.0</ele><time>2026-04-26T14:32:15.439Z</time></trkpt><trkpt lat="45.8727156" lon="11.5070075"><ele>1000.75</ele><time>2026-04-26T14:32:16.437Z</time></trkpt><trkpt lat="45.8728018" lon="11.5068979"><ele>1001.5</ele><time>2026-04-26T14:32:17.437Z</time></trkpt><trkpt lat="45.8728829" lon="11.5067888"><ele>1002.25</ele><time>2026-04-26T14:32:18.437Z</time></trkpt><trkpt lat="45.8729685" lon="11.5066848"><ele>1003.0</ele><time>2026-04-26T14:32:19.436Z</time></trkpt><trkpt lat="45.8730546" lon="11.5065821"><ele>1003.0</ele><time>2026-04-26T14:32:20.435Z</time></trkpt><trkpt lat="45.8731357" lon="11.5064747"><ele>1003.0</ele><time>2026-04-26T14:32:21.446Z</time></trkpt><trkpt lat="45.8732094" lon="11.5063574"><ele>1003.0</ele><time>2026-04-26T14:32:22.436Z</time></trkpt><trkpt lat="45.8732652" lon="11.5062394"><ele>1003.0</ele><time>2026-04-26T14:32:23.436Z</time></trkpt><trkpt lat="45.8733111" lon="11.5061277"><ele>1003.0</ele><time>2026-04-26T14:32:24.436Z</time></trkpt><trkpt lat="45.8733492" lon="11.5060128"><ele>1003.3333333333333</ele><time>2026-04-26T14:32:25.437Z</time></trkpt><trkpt lat="45.8733893" lon="11.5059108"><ele>1003.6666666666666</ele><time>2026-04-26T14:32:26.437Z</time></trkpt><trkpt lat="45.8734395" lon="11.5058176"><ele>1004.0</ele><time>2026-04-26T14:32:27.436Z</time></trkpt><trkpt lat="45.8734917" lon="11.5057449"><ele>1004.3333333333333</ele><time>2026-04-26T14:32:28.435Z</time></trkpt><trkpt lat="45.8735298" lon="11.5056588"><ele>1004.6666666666666</ele><time>2026-04-26T14:32:29.44Z</time></trkpt><trkpt lat="45.8735437" lon="11.5055509"><ele>1005.0</ele><time>2026-04-26T14:32:30.437Z</time></trkpt><trkpt lat="45.8735284" lon="11.5054285"><ele>1006.0</ele><time>2026-04-26T14:32:31.437Z</time></trkpt><trkpt lat="45.8735025" lon="11.5053096"><ele>1007.0</ele><time>2026-04-26T14:32:32.443Z</time></trkpt><trkpt lat="45.8734767" lon="11.5051801"><ele>1008.0</ele><time>2026-04-26T14:32:33.436Z</time></trkpt><trkpt lat="45.8734465" lon="11.5050521"><ele>1009.0</ele><time>2026-04-26T14:32:34.44Z</time></trkpt><trkpt lat="45.8734119" lon="11.5049135"><ele>1010.0</ele><time>2026-04-26T14:32:35.442Z</time></trkpt><trkpt lat="45.8733739" lon="11.504771"><ele>1010.0</ele><time>2026-04-26T14:32:36.441Z</time></trkpt><trkpt lat="45.8733323" lon="11.5046239"><ele>1010.0</ele><time>2026-04-26T14:32:37.436Z</time></trkpt><trkpt lat="45.8732916" lon="11.5044798"><ele>1010.0</ele><time>2026-04-26T14:32:38.435Z</time></trkpt><trkpt lat="45.8732476" lon="11.5043315"><ele>1010.0</ele><time>2026-04-26T14:32:39.436Z</time></trkpt><trkpt lat="45.8732066" lon="11.5041816"><ele>1010.0</ele><time>2026-04-26T14:32:40.436Z</time></trkpt><trkpt lat="45.8731629" lon="11.5040292"><ele>1010.25</ele><time>2026-04-26T14:32:41.437Z</time></trkpt><trkpt lat="45.8731186" lon="11.5038753"><ele>1010.5</ele><time>2026-04-26T14:32:42.436Z</time></trkpt><trkpt lat="45.8730705" lon="11.5037226"><ele>1010.75</ele><time>2026-04-26T14:32:43.436Z</time></trkpt><trkpt lat="45.8730251" lon="11.5035724"><ele>1011.0</ele><time>2026-04-26T14:32:44.436Z</time></trkpt><trkpt lat="45.872979" lon="11.5034387"><ele>1011.1999999999999</ele><time>2026-04-26T14:32:45.437Z</time></trkpt><trkpt lat="45.8729348" lon="11.5033071"><ele>1011.3999999999999</ele><time>2026-04-26T14:32:46.436Z</time></trkpt><trkpt lat="45.8728854" lon="11.5031706"><ele>1011.6</ele><time>2026-04-26T14:32:47.435Z</time></trkpt><trkpt lat="45.8728358" lon="11.5030326"><ele>1011.8</ele><time>2026-04-26T14:32:48.436Z</time></trkpt><trkpt lat="45.8727853" lon="11.5028888"><ele>1012.0</ele><time>2026-04-26T14:32:49.436Z</time></trkpt><trkpt lat="45.8727303" lon="11.5027409"><ele>1012.4000000000001</ele><time>2026-04-26T14:32:50.436Z</time></trkpt><trkpt lat="45.8726795" lon="11.5026027"><ele>1012.8000000000001</ele><time>2026-04-26T14:32:51.439Z</time></trkpt><trkpt lat="45.8726253" lon="11.5024694"><ele>1013.2</ele><time>2026-04-26T14:32:52.44Z</time></trkpt><trkpt lat="45.8725739" lon="11.5023277"><ele>1013.6</ele><time>2026-04-26T14:32:53.438Z</time></trkpt><trkpt lat="45.8725136" lon="11.5021818"><ele>1014.0</ele><time>2026-04-26T14:32:54.436Z</time></trkpt><trkpt lat="45.8724542" lon="11.5020393"><ele>1012.2</ele><time>2026-04-26T14:32:55.445Z</time></trkpt><trkpt lat="45.8724021" lon="11.5019034"><ele>1010.4000000000001</ele><time>2026-04-26T14:32:56.438Z</time></trkpt><trkpt lat="45.8723455" lon="11.5017651"><ele>1008.6</ele><time>2026-04-26T14:32:57.438Z</time></trkpt><trkpt lat="45.8722849" lon="11.5016364"><ele>1006.8</ele><time>2026-04-26T14:32:58.437Z</time></trkpt><trkpt lat="45.872218" lon="11.501511"><ele>1005.0</ele><time>2026-04-26T14:32:59.436Z</time></trkpt><trkpt lat="45.8721436" lon="11.5013908"><ele>1005.0</ele><time>2026-04-26T14:33:00.436Z</time></trkpt><trkpt lat="45.8720686" lon="11.5012608"><ele>1005.0</ele><time>2026-04-26T14:33:01.437Z</time></trkpt><trkpt lat="45.8719858" lon="11.5011292"><ele>1005.0</ele><time>2026-04-26T14:33:02.437Z</time></trkpt><trkpt lat="45.8718924" lon="11.5009904"><ele>1005.0</ele><time>2026-04-26T14:33:03.436Z</time></trkpt><trkpt lat="45.8717904" lon="11.5008435"><ele>1002.3333333333333</ele><time>2026-04-26T14:33:04.436Z</time></trkpt><trkpt lat="45.871681" lon="11.500691"><ele>999.6666666666666</ele><time>2026-04-26T14:33:05.437Z</time></trkpt><trkpt lat="45.8715686" lon="11.5005274"><ele>997.0</ele><time>2026-04-26T14:33:06.436Z</time></trkpt><trkpt lat="45.8714606" lon="11.5003572"><ele>996.75</ele><time>2026-04-26T14:33:07.437Z</time></trkpt><trkpt lat="45.8713617" lon="11.5001965"><ele>996.5</ele><time>2026-04-26T14:33:08.436Z</time></trkpt><trkpt lat="45.8712621" lon="11.5000425"><ele>996.25</ele><time>2026-04-26T14:33:09.437Z</time></trkpt><trkpt lat="45.871163" lon="11.4998884"><ele>996.0</ele><time>2026-04-26T14:33:10.441Z</time></trkpt><trkpt lat="45.8710569" lon="11.4997318"><ele>994.0</ele><time>2026-04-26T14:33:11.437Z</time></trkpt><trkpt lat="45.8709403" lon="11.4995601"><ele>992.0</ele><time>2026-04-26T14:33:12.436Z</time></trkpt><trkpt lat="45.8708227" lon="11.4993732"><ele>990.0</ele><time>2026-04-26T14:33:13.437Z</time></trkpt><trkpt lat="45.8707042" lon="11.4991837"><ele>990.0</ele><time>2026-04-26T14:33:14.437Z</time></trkpt><trkpt lat="45.8705789" lon="11.4989848"><ele>990.0</ele><time>2026-04-26T14:33:15.436Z</time></trkpt><trkpt lat="45.8704529" lon="11.4987794"><ele>990.0</ele><time>2026-04-26T14:33:16.437Z</time></trkpt><trkpt lat="45.8703238" lon="11.4985836"><ele>990.6666666666667</ele><time>2026-04-26T14:33:17.438Z</time></trkpt><trkpt lat="45.8701996" lon="11.4983897"><ele>991.3333333333334</ele><time>2026-04-26T14:33:18.437Z</time></trkpt><trkpt lat="45.8700785" lon="11.4982015"><ele>992.0</ele><time>2026-04-26T14:33:19.436Z</time></trkpt><trkpt lat="45.8699617" lon="11.4980128"><ele>989.0</ele><time>2026-04-26T14:33:20.438Z</time></trkpt><trkpt lat="45.8698424" lon="11.4978297"><ele>986.0</ele><time>2026-04-26T14:33:21.437Z</time></trkpt><trkpt lat="45.8697321" lon="11.4976541"><ele>983.0</ele><time>2026-04-26T14:33:22.438Z</time></trkpt><trkpt lat="45.8696279" lon="11.4974899"><ele>983.0</ele><time>2026-04-26T14:33:23.438Z</time></trkpt><trkpt lat="45.8695263" lon="11.4973325"><ele>983.0</ele><time>2026-04-26T14:33:24.436Z</time></trkpt><trkpt lat="45.8694391" lon="11.4971893"><ele>983.0</ele><time>2026-04-26T14:33:25.435Z</time></trkpt><trkpt lat="45.8693524" lon="11.4970496"><ele>983.0</ele><time>2026-04-26T14:33:26.438Z</time></trkpt><trkpt lat="45.8692682" lon="11.4969149"><ele>982.75</ele><time>2026-04-26T14:33:27.438Z</time></trkpt><trkpt lat="45.8691888" lon="11.4967787"><ele>982.5</ele><time>2026-04-26T14:33:28.438Z</time></trkpt><trkpt lat="45.869106" lon="11.4966335"><ele>982.25</ele><time>2026-04-26T14:33:29.46Z</time></trkpt><trkpt lat="45.869024" lon="11.4964825"><ele>982.0</ele><time>2026-04-26T14:33:30.44Z</time></trkpt><trkpt lat="45.8689444" lon="11.4963276"><ele>983.3333333333333</ele><time>2026-04-26T14:33:31.436Z</time></trkpt><trkpt lat="45.868868" lon="11.4961558"><ele>984.6666666666667</ele><time>2026-04-26T14:33:32.437Z</time></trkpt><trkpt lat="45.8687886" lon="11.4959666"><ele>986.0</ele><time>2026-04-26T14:33:33.436Z</time></trkpt><trkpt lat="45.8687089" lon="11.4957587"><ele>986.0</ele><time>2026-04-26T14:33:34.438Z</time></trkpt><trkpt lat="45.8686273" lon="11.4955331"><ele>986.0</ele><time>2026-04-26T14:33:35.436Z</time></trkpt><trkpt lat="45.868542" lon="11.4952914"><ele>986.0</ele><time>2026-04-26T14:33:36.436Z</time></trkpt><trkpt lat="45.8684468" lon="11.4950301"><ele>987.0</ele><time>2026-04-26T14:33:37.44Z</time></trkpt><trkpt lat="45.8683528" lon="11.4947478"><ele>988.0</ele><time>2026-04-26T14:33:38.438Z</time></trkpt><trkpt lat="45.868265" lon="11.4944502"><ele>989.0</ele><time>2026-04-26T14:33:39.435Z</time></trkpt><trkpt lat="45.8682059" lon="11.4941596"><ele>991.6666666666667</ele><time>2026-04-26T14:33:40.436Z</time></trkpt><trkpt lat="45.8681633" lon="11.4938773"><ele>994.3333333333333</ele><time>2026-04-26T14:33:41.436Z</time></trkpt><trkpt lat="45.8681424" lon="11.493602"><ele>997.0</ele><time>2026-04-26T14:33:42.438Z</time></trkpt><trkpt lat="45.8681489" lon="11.4933326"><ele>998.6666666666666</ele><time>2026-04-26T14:33:43.436Z</time></trkpt><trkpt lat="45.8681759" lon="11.4930649"><ele>1000.3333333333333</ele><time>2026-04-26T14:33:44.437Z</time></trkpt><trkpt lat="45.8682263" lon="11.4928026"><ele>1002.0</ele><time>2026-04-26T14:33:45.436Z</time></trkpt><trkpt lat="45.8682992" lon="11.4925459"><ele>1003.0</ele><time>2026-04-26T14:33:46.438Z</time></trkpt><trkpt lat="45.8683938" lon="11.4923066"><ele>1004.0</ele><time>2026-04-26T14:33:47.436Z</time></trkpt><trkpt lat="45.8685021" lon="11.4920743"><ele>1005.0</ele><time>2026-04-26T14:33:48.438Z</time></trkpt><trkpt lat="45.8686139" lon="11.4918532"><ele>1005.0</ele><time>2026-04-26T14:33:49.44Z</time></trkpt><trkpt lat="45.8687145" lon="11.4916515"><ele>1005.0</ele><time>2026-04-26T14:33:50.436Z</time></trkpt><trkpt lat="45.8688106" lon="11.4914666"><ele>1005.0</ele><time>2026-04-26T14:33:51.435Z</time></trkpt><trkpt lat="45.8689" lon="11.4912888"><ele>1006.5</ele><time>2026-04-26T14:33:52.44Z</time></trkpt><trkpt lat="45.8689854" lon="11.4911161"><ele>1008.0</ele><time>2026-04-26T14:33:53.436Z</time></trkpt><trkpt lat="45.8690689" lon="11.4909414"><ele>1009.5</ele><time>2026-04-26T14:33:54.435Z</time></trkpt><trkpt lat="45.8691588" lon="11.4907617"><ele>1011.0</ele><time>2026-04-26T14:33:55.445Z</time></trkpt><trkpt lat="45.8692407" lon="11.4905907"><ele>1011.5</ele><time>2026-04-26T14:33:56.438Z</time></trkpt><trkpt lat="45.8693167" lon="11.4904357"><ele>1012.0</ele><time>2026-04-26T14:33:57.438Z</time></trkpt><trkpt lat="45.869394" lon="11.49028"><ele>1012.5</ele><time>2026-04-26T14:33:58.436Z</time></trkpt><trkpt lat="45.8694689" lon="11.4901266"><ele>1013.0</ele><time>2026-04-26T14:33:59.436Z</time></trkpt><trkpt lat="45.8695397" lon="11.4899759"><ele>1013.0</ele><time>2026-04-26T14:34:00.436Z</time></trkpt><trkpt lat="45.8696137" lon="11.4898302"><ele>1013.0</ele><time>2026-04-26T14:34:01.435Z</time></trkpt><trkpt lat="45.8696726" lon="11.4896893"><ele>1013.0</ele><time>2026-04-26T14:34:02.436Z</time></trkpt><trkpt lat="45.8697077" lon="11.4895469"><ele>1013.0</ele><time>2026-04-26T14:34:03.435Z</time></trkpt><trkpt lat="45.8697112" lon="11.4894078"><ele>1013.0</ele><time>2026-04-26T14:34:04.437Z</time></trkpt><trkpt lat="45.8696882" lon="11.4892732"><ele>1015.25</ele><time>2026-04-26T14:34:05.436Z</time></trkpt><trkpt lat="45.8696392" lon="11.4891354"><ele>1017.5</ele><time>2026-04-26T14:34:06.436Z</time></trkpt><trkpt lat="45.8695815" lon="11.4889912"><ele>1019.75</ele><time>2026-04-26T14:34:07.435Z</time></trkpt><trkpt lat="45.8695153" lon="11.4888422"><ele>1022.0</ele><time>2026-04-26T14:34:08.435Z</time></trkpt><trkpt lat="45.8694444" lon="11.4886881"><ele>1022.0</ele><time>2026-04-26T14:34:09.436Z</time></trkpt><trkpt lat="45.8693627" lon="11.4885149"><ele>1022.0</ele><time>2026-04-26T14:34:10.435Z</time></trkpt><trkpt lat="45.86927" lon="11.4883236"><ele>1022.0</ele><time>2026-04-26T14:34:11.443Z</time></trkpt><trkpt lat="45.8691646" lon="11.48811"><ele>1022.3333333333334</ele><time>2026-04-26T14:34:12.436Z</time></trkpt><trkpt lat="45.8690483" lon="11.4878771"><ele>1022.6666666666667</ele><time>2026-04-26T14:34:13.439Z</time></trkpt><trkpt lat="45.8689225" lon="11.4876249"><ele>1023.0</ele><time>2026-04-26T14:34:14.435Z</time></trkpt><trkpt lat="45.8688109" lon="11.487373"><ele>1023.0</ele><time>2026-04-26T14:34:15.436Z</time></trkpt><trkpt lat="45.8687089" lon="11.4871395"><ele>1023.0</ele><time>2026-04-26T14:34:16.435Z</time></trkpt><trkpt lat="45.8686071" lon="11.4869227"><ele>1023.0</ele><time>2026-04-26T14:34:17.436Z</time></trkpt><trkpt lat="45.8685183" lon="11.4867296"><ele>1022.0</ele><time>2026-04-26T14:34:18.441Z</time></trkpt><trkpt lat="45.8684398" lon="11.486557"><ele>1021.0</ele><time>2026-04-26T14:34:19.436Z</time></trkpt><trkpt lat="45.8683671" lon="11.4863915"><ele>1020.0</ele><time>2026-04-26T14:34:20.437Z</time></trkpt><trkpt lat="45.8683088" lon="11.4862287"><ele>1019.0</ele><time>2026-04-26T14:34:21.437Z</time></trkpt><trkpt lat="45.8682771" lon="11.4860608"><ele>1019.0</ele><time>2026-04-26T14:34:22.436Z</time></trkpt><trkpt lat="45.8682718" lon="11.48589"><ele>1019.0</ele><time>2026-04-26T14:34:23.436Z</time></trkpt><trkpt lat="45.8682977" lon="11.4857336"><ele>1019.0</ele><time>2026-04-26T14:34:24.437Z</time></trkpt><trkpt lat="45.8683777" lon="11.485589"><ele>1019.0</ele><time>2026-04-26T14:34:25.436Z</time></trkpt><trkpt lat="45.8684774" lon="11.4854411"><ele>1018.25</ele><time>2026-04-26T14:34:26.439Z</time></trkpt><trkpt lat="45.8685836" lon="11.4852965"><ele>1017.5</ele><time>2026-04-26T14:34:27.436Z</time></trkpt><trkpt lat="45.8686951" lon="11.4851469"><ele>1016.75</ele><time>2026-04-26T14:34:28.44Z</time></trkpt><trkpt lat="45.8688027" lon="11.4849998"><ele>1016.0</ele><time>2026-04-26T14:34:29.436Z</time></trkpt><trkpt lat="45.8689085" lon="11.4848549"><ele>1016.0</ele><time>2026-04-26T14:34:30.436Z</time></trkpt><trkpt lat="45.8690124" lon="11.4846991"><ele>1016.0</ele><time>2026-04-26T14:34:31.436Z</time></trkpt><trkpt lat="45.8691059" lon="11.4845337"><ele>1016.0</ele><time>2026-04-26T14:34:32.436Z</time></trkpt><trkpt lat="45.8691772" lon="11.4843454"><ele>1016.0</ele><time>2026-04-26T14:34:33.436Z</time></trkpt><trkpt lat="45.8692109" lon="11.4841362"><ele>1015.5</ele><time>2026-04-26T14:34:34.437Z</time></trkpt><trkpt lat="45.8692192" lon="11.4839146"><ele>1015.0</ele><time>2026-04-26T14:34:35.439Z</time></trkpt><trkpt lat="45.8692231" lon="11.4837067"><ele>1014.5</ele><time>2026-04-26T14:34:36.441Z</time></trkpt><trkpt lat="45.8692112" lon="11.4835083"><ele>1014.0</ele><time>2026-04-26T14:34:37.442Z</time></trkpt><trkpt lat="45.8691827" lon="11.4833178"><ele>1014.0</ele><time>2026-04-26T14:34:38.436Z</time></trkpt><trkpt lat="45.8691421" lon="11.4831465"><ele>1014.0</ele><time>2026-04-26T14:34:39.435Z</time></trkpt><trkpt lat="45.8690839" lon="11.4829788"><ele>1014.0</ele><time>2026-04-26T14:34:40.436Z</time></trkpt><trkpt lat="45.869019" lon="11.4828365"><ele>1014.0</ele><time>2026-04-26T14:34:41.436Z</time></trkpt><trkpt lat="45.8689503" lon="11.4827032"><ele>1014.0</ele><time>2026-04-26T14:34:42.437Z</time></trkpt><trkpt lat="45.868888" lon="11.4825752"><ele>1014.0000000000001</ele><time>2026-04-26T14:34:43.445Z</time></trkpt><trkpt lat="45.8688286" lon="11.4824448"><ele>1014.0000000000001</ele><time>2026-04-26T14:34:44.435Z</time></trkpt><trkpt lat="45.8687706" lon="11.4823186"><ele>1014.0</ele><time>2026-04-26T14:34:45.436Z</time></trkpt><trkpt lat="45.8687446" lon="11.4821643"><ele>1014.0</ele><time>2026-04-26T14:34:46.441Z</time></trkpt><trkpt lat="45.8687298" lon="11.4820121"><ele>1014.0</ele><time>2026-04-26T14:34:47.437Z</time></trkpt><trkpt lat="45.8687423" lon="11.4818483"><ele>1014.0</ele><time>2026-04-26T14:34:48.438Z</time></trkpt><trkpt lat="45.868782" lon="11.4816951"><ele>1014.0</ele><time>2026-04-26T14:34:49.438Z</time></trkpt><trkpt lat="45.8688402" lon="11.4815634"><ele>1014.0</ele><time>2026-04-26T14:34:50.437Z</time></trkpt><trkpt lat="45.8689138" lon="11.4814331"><ele>1014.0</ele><time>2026-04-26T14:34:51.435Z</time></trkpt><trkpt lat="45.8689819" lon="11.4813086"><ele>1014.0000000000001</ele><time>2026-04-26T14:34:52.441Z</time></trkpt><trkpt lat="45.8690506" lon="11.4811842"><ele>1014.0000000000001</ele><time>2026-04-26T14:34:53.435Z</time></trkpt><trkpt lat="45.8691274" lon="11.4810618"><ele>1014.0</ele><time>2026-04-26T14:34:54.437Z</time></trkpt><trkpt lat="45.8691993" lon="11.4809435"><ele>1014.0</ele><time>2026-04-26T14:34:55.437Z</time></trkpt><trkpt lat="45.8692645" lon="11.4808263"><ele>1013.2</ele><time>2026-04-26T14:34:56.437Z</time></trkpt><trkpt lat="45.8693314" lon="11.4807055"><ele>1012.4000000000001</ele><time>2026-04-26T14:34:57.436Z</time></trkpt><trkpt lat="45.8693899" lon="11.4806274"><ele>1011.6</ele><time>2026-04-26T14:34:58.436Z</time></trkpt><trkpt lat="45.8694436" lon="11.4805244"><ele>1010.8</ele><time>2026-04-26T14:34:59.435Z</time></trkpt><trkpt lat="45.8694987" lon="11.4804244"><ele>1010.0</ele><time>2026-04-26T14:35:00.437Z</time></trkpt><trkpt lat="45.869552" lon="11.4803297"><ele>1009.3333333333334</ele><time>2026-04-26T14:35:01.437Z</time></trkpt><trkpt lat="45.8696003" lon="11.4802274"><ele>1008.6666666666667</ele><time>2026-04-26T14:35:02.441Z</time></trkpt><trkpt lat="45.8696427" lon="11.480126"><ele>1008.0</ele><time>2026-04-26T14:35:03.438Z</time></trkpt><trkpt lat="45.8696871" lon="11.4800275"><ele>1007.3333333333333</ele><time>2026-04-26T14:35:04.437Z</time></trkpt><trkpt lat="45.8697302" lon="11.4799388"><ele>1006.6666666666666</ele><time>2026-04-26T14:35:05.436Z</time></trkpt><trkpt lat="45.8697563" lon="11.4798458"><ele>1006.0</ele><time>2026-04-26T14:35:06.436Z</time></trkpt><trkpt lat="45.8697517" lon="11.4797409"><ele>1005.9999999999999</ele><time>2026-04-26T14:35:07.438Z</time></trkpt><trkpt lat="45.8697148" lon="11.47965"><ele>1006.0</ele><time>2026-04-26T14:35:08.435Z</time></trkpt><trkpt lat="45.8696611" lon="11.4795703"><ele>1006.0</ele><time>2026-04-26T14:35:09.437Z</time></trkpt><trkpt lat="45.8696041" lon="11.4794948"><ele>1006.0</ele><time>2026-04-26T14:35:10.436Z</time></trkpt><trkpt lat="45.869553" lon="11.4794131"><ele>1005.9999999999999</ele><time>2026-04-26T14:35:11.438Z</time></trkpt><trkpt lat="45.8695002" lon="11.4793365"><ele>1006.0</ele><time>2026-04-26T14:35:12.437Z</time></trkpt><trkpt lat="45.869441" lon="11.4792599"><ele>1006.0</ele><time>2026-04-26T14:35:13.438Z</time></trkpt><trkpt lat="45.8693685" lon="11.4791807"><ele>1005.9999999999999</ele><time>2026-04-26T14:35:14.436Z</time></trkpt><trkpt lat="45.8692895" lon="11.4790919"><ele>1005.9999999999999</ele><time>2026-04-26T14:35:15.438Z</time></trkpt><trkpt lat="45.8692018" lon="11.4790028"><ele>1006.0</ele><time>2026-04-26T14:35:16.436Z</time></trkpt><trkpt lat="45.8691111" lon="11.4789126"><ele>1006.0</ele><time>2026-04-26T14:35:17.436Z</time></trkpt><trkpt lat="45.8690195" lon="11.4788165"><ele>1004.1999999999999</ele><time>2026-04-26T14:35:18.437Z</time></trkpt><trkpt lat="45.8689259" lon="11.4787186"><ele>1002.3999999999999</ele><time>2026-04-26T14:35:19.436Z</time></trkpt><trkpt lat="45.8688404" lon="11.4786291"><ele>1000.6</ele><time>2026-04-26T14:35:20.436Z</time></trkpt><trkpt lat="45.8687578" lon="11.478545"><ele>998.8</ele><time>2026-04-26T14:35:21.437Z</time></trkpt><trkpt lat="45.8686762" lon="11.4784598"><ele>997.0</ele><time>2026-04-26T14:35:22.447Z</time></trkpt><trkpt lat="45.8685989" lon="11.4783769"><ele>997.0</ele><time>2026-04-26T14:35:23.44Z</time></trkpt><trkpt lat="45.8685182" lon="11.4782946"><ele>997.0</ele><time>2026-04-26T14:35:24.448Z</time></trkpt><trkpt lat="45.868442" lon="11.4782143"><ele>997.0</ele><time>2026-04-26T14:35:25.437Z</time></trkpt><trkpt lat="45.8683694" lon="11.4781353"><ele>997.0</ele><time>2026-04-26T14:35:26.437Z</time></trkpt><trkpt lat="45.8683006" lon="11.4780604"><ele>997.0</ele><time>2026-04-26T14:35:27.436Z</time></trkpt><trkpt lat="45.86823" lon="11.4779828"><ele>997.6</ele><time>2026-04-26T14:35:28.437Z</time></trkpt><trkpt lat="45.868154" lon="11.4779061"><ele>998.2</ele><time>2026-04-26T14:35:29.436Z</time></trkpt><trkpt lat="45.8680726" lon="11.4778195"><ele>998.8</ele><time>2026-04-26T14:35:30.443Z</time></trkpt><trkpt lat="45.8679909" lon="11.4777341"><ele>999.4</ele><time>2026-04-26T14:35:31.436Z</time></trkpt><trkpt lat="45.8679075" lon="11.4776459"><ele>1000.0</ele><time>2026-04-26T14:35:32.437Z</time></trkpt><trkpt lat="45.8678259" lon="11.477563"><ele>1000.0</ele><time>2026-04-26T14:35:33.436Z</time></trkpt><trkpt lat="45.8677416" lon="11.4774755"><ele>1000.0</ele><time>2026-04-26T14:35:34.438Z</time></trkpt><trkpt lat="45.8676592" lon="11.4773839"><ele>1000.0</ele><time>2026-04-26T14:35:35.436Z</time></trkpt><trkpt lat="45.8675748" lon="11.4772927"><ele>1000.0</ele><time>2026-04-26T14:35:36.436Z</time></trkpt><trkpt lat="45.8674903" lon="11.477204"><ele>1000.0</ele><time>2026-04-26T14:35:37.44Z</time></trkpt><trkpt lat="45.867405" lon="11.4771132"><ele>999.2</ele><time>2026-04-26T14:35:38.438Z</time></trkpt><trkpt lat="45.8673251" lon="11.4770278"><ele>998.4</ele><time>2026-04-26T14:35:39.436Z</time></trkpt><trkpt lat="45.8672487" lon="11.4769394"><ele>997.5999999999999</ele><time>2026-04-26T14:35:40.436Z</time></trkpt><trkpt lat="45.8671711" lon="11.4768602"><ele>996.8</ele><time>2026-04-26T14:35:41.436Z</time></trkpt><trkpt lat="45.8670955" lon="11.4767796"><ele>996.0</ele><time>2026-04-26T14:35:42.436Z</time></trkpt><trkpt lat="45.8670189" lon="11.476699"><ele>996.0</ele><time>2026-04-26T14:35:43.438Z</time></trkpt><trkpt lat="45.8669383" lon="11.4766179"><ele>995.9999999999999</ele><time>2026-04-26T14:35:44.437Z</time></trkpt><trkpt lat="45.8668623" lon="11.4765386"><ele>995.9999999999999</ele><time>2026-04-26T14:35:45.435Z</time></trkpt><trkpt lat="45.8667864" lon="11.4764635"><ele>996.0</ele><time>2026-04-26T14:35:46.436Z</time></trkpt><trkpt lat="45.86671" lon="11.476383"><ele>996.0</ele><time>2026-04-26T14:35:47.436Z</time></trkpt><trkpt lat="45.8666351" lon="11.4763003"><ele>996.4</ele><time>2026-04-26T14:35:48.435Z</time></trkpt><trkpt lat="45.8665564" lon="11.4762114"><ele>996.8</ele><time>2026-04-26T14:35:49.436Z</time></trkpt><trkpt lat="45.8664727" lon="11.4761236"><ele>997.1999999999999</ele><time>2026-04-26T14:35:50.441Z</time></trkpt><trkpt lat="45.8663938" lon="11.4760413"><ele>997.5999999999999</ele><time>2026-04-26T14:35:51.439Z</time></trkpt><trkpt lat="45.8663188" lon="11.4759667"><ele>998.0</ele><time>2026-04-26T14:35:52.435Z</time></trkpt><trkpt lat="45.8662457" lon="11.4758894"><ele>998.0</ele><time>2026-04-26T14:35:53.437Z</time></trkpt><trkpt lat="45.8661729" lon="11.4758168"><ele>998.0</ele><time>2026-04-26T14:35:54.44Z</time></trkpt><trkpt lat="45.8660968" lon="11.4757428"><ele>998.0</ele><time>2026-04-26T14:35:55.435Z</time></trkpt><trkpt lat="45.8660259" lon="11.4756728"><ele>998.0</ele><time>2026-04-26T14:35:56.439Z</time></trkpt><trkpt lat="45.8659634" lon="11.4756083"><ele>998.0</ele><time>2026-04-26T14:35:57.439Z</time></trkpt><trkpt lat="45.8658727" lon="11.4755125"><ele>997.8333333333334</ele><time>2026-04-26T14:35:59.442Z</time></trkpt><trkpt lat="45.8658081" lon="11.4754474"><ele>997.6666666666667</ele><time>2026-04-26T14:36:01.437Z</time></trkpt><trkpt lat="45.8657557" lon="11.4753842"><ele>997.5</ele><time>2026-04-26T14:36:05.441Z</time></trkpt><trkpt lat="45.8656927" lon="11.4753123"><ele>997.3333333333333</ele><time>2026-04-26T14:36:08.437Z</time></trkpt><trkpt lat="45.8656357" lon="11.4752549"><ele>997.1666666666666</ele><time>2026-04-26T14:36:13.436Z</time></trkpt><trkpt lat="45.8655723" lon="11.4751737"><ele>997.0</ele><time>2026-04-26T14:36:16.437Z</time></trkpt><trkpt lat="45.8654904" lon="11.4750881"><ele>996.8571428571427</ele><time>2026-04-26T14:36:18.439Z</time></trkpt><trkpt lat="45.865406" lon="11.4750099"><ele>996.7142857142857</ele><time>2026-04-26T14:36:20.436Z</time></trkpt><trkpt lat="45.8653548" lon="11.4749556"><ele>996.5714285714284</ele><time>2026-04-26T14:36:21.438Z</time></trkpt><trkpt lat="45.8652965" lon="11.4748987"><ele>996.4285714285713</ele><time>2026-04-26T14:36:22.437Z</time></trkpt><trkpt lat="45.8652437" lon="11.4748329"><ele>996.2857142857142</ele><time>2026-04-26T14:36:23.437Z</time></trkpt><trkpt lat="45.8651851" lon="11.4747738"><ele>996.1428571428571</ele><time>2026-04-26T14:36:24.436Z</time></trkpt><trkpt lat="45.8651295" lon="11.4747138"><ele>996.0</ele><time>2026-04-26T14:36:25.436Z</time></trkpt><trkpt lat="45.8650355" lon="11.4746061"><ele>996.0</ele><time>2026-04-26T14:36:27.438Z</time></trkpt><trkpt lat="45.8649459" lon="11.4745111"><ele>996.0</ele><time>2026-04-26T14:36:29.436Z</time></trkpt><trkpt lat="45.8648911" lon="11.474446"><ele>996.0</ele><time>2026-04-26T14:36:30.437Z</time></trkpt><trkpt lat="45.8648273" lon="11.4743724"><ele>996.0</ele><time>2026-04-26T14:36:31.435Z</time></trkpt><trkpt lat="45.8647599" lon="11.4742951"><ele>996.0</ele><time>2026-04-26T14:36:32.439Z</time></trkpt><trkpt lat="45.8646837" lon="11.4742147"><ele>996.0</ele><time>2026-04-26T14:36:33.44Z</time></trkpt><trkpt lat="45.8646101" lon="11.4741333"><ele>996.0</ele><time>2026-04-26T14:36:34.438Z</time></trkpt><trkpt lat="45.8645344" lon="11.4740491"><ele>995.9999999999999</ele><time>2026-04-26T14:36:35.44Z</time></trkpt><trkpt lat="45.8644555" lon="11.4739625"><ele>995.9999999999999</ele><time>2026-04-26T14:36:36.437Z</time></trkpt><trkpt lat="45.8643805" lon="11.4738695"><ele>996.0</ele><time>2026-04-26T14:36:37.442Z</time></trkpt><trkpt lat="45.8643073" lon="11.4737753"><ele>996.0</ele><time>2026-04-26T14:36:38.437Z</time></trkpt><trkpt lat="45.8642339" lon="11.4736733"><ele>995.8333333333334</ele><time>2026-04-26T14:36:39.442Z</time></trkpt><trkpt lat="45.8641637" lon="11.4735794"><ele>995.6666666666667</ele><time>2026-04-26T14:36:40.436Z</time></trkpt><trkpt lat="45.8641094" lon="11.4734772"><ele>995.5</ele><time>2026-04-26T14:36:41.437Z</time></trkpt><trkpt lat="45.8640625" lon="11.4733836"><ele>995.3333333333334</ele><time>2026-04-26T14:36:42.438Z</time></trkpt><trkpt lat="45.8640289" lon="11.4732729"><ele>995.1666666666667</ele><time>2026-04-26T14:36:43.437Z</time></trkpt><trkpt lat="45.8639878" lon="11.4731686"><ele>995.0</ele><time>2026-04-26T14:36:44.436Z</time></trkpt><trkpt lat="45.8639375" lon="11.4730705"><ele>995.0000000000001</ele><time>2026-04-26T14:36:45.439Z</time></trkpt><trkpt lat="45.8638763" lon="11.4729849"><ele>995.0</ele><time>2026-04-26T14:36:46.436Z</time></trkpt><trkpt lat="45.8638041" lon="11.4729127"><ele>995.0</ele><time>2026-04-26T14:36:47.435Z</time></trkpt><trkpt lat="45.863728" lon="11.4728535"><ele>995.0</ele><time>2026-04-26T14:36:48.441Z</time></trkpt><trkpt lat="45.8636549" lon="11.4727989"><ele>995.0000000000001</ele><time>2026-04-26T14:36:49.437Z</time></trkpt><trkpt lat="45.8635835" lon="11.472747"><ele>995.0</ele><time>2026-04-26T14:36:50.436Z</time></trkpt><trkpt lat="45.8635107" lon="11.4726903"><ele>994.3333333333334</ele><time>2026-04-26T14:36:51.44Z</time></trkpt><trkpt lat="45.8634335" lon="11.4726391"><ele>993.6666666666667</ele><time>2026-04-26T14:36:52.458Z</time></trkpt><trkpt lat="45.8633563" lon="11.4725873"><ele>993.0</ele><time>2026-04-26T14:36:53.437Z</time></trkpt><trkpt lat="45.8632816" lon="11.4725447"><ele>992.3333333333333</ele><time>2026-04-26T14:36:54.435Z</time></trkpt><trkpt lat="45.8632067" lon="11.4724995"><ele>991.6666666666666</ele><time>2026-04-26T14:36:55.435Z</time></trkpt><trkpt lat="45.8631361" lon="11.4724557"><ele>991.0</ele><time>2026-04-26T14:36:56.436Z</time></trkpt><trkpt lat="45.8630707" lon="11.4724199"><ele>990.9999999999999</ele><time>2026-04-26T14:36:57.437Z</time></trkpt><trkpt lat="45.8630078" lon="11.4723842"><ele>991.0</ele><time>2026-04-26T14:36:58.436Z</time></trkpt><trkpt lat="45.8629455" lon="11.4723491"><ele>991.0</ele><time>2026-04-26T14:36:59.437Z</time></trkpt><trkpt lat="45.8628459" lon="11.4722378"><ele>991.0</ele><time>2026-04-26T14:37:01.441Z</time></trkpt><trkpt lat="45.8627825" lon="11.4721653"><ele>990.9999999999999</ele><time>2026-04-26T14:37:02.44Z</time></trkpt><trkpt lat="45.8627346" lon="11.4720685"><ele>991.0</ele><time>2026-04-26T14:37:03.437Z</time></trkpt><trkpt lat="45.8626873" lon="11.4719671"><ele>989.0</ele><time>2026-04-26T14:37:04.435Z</time></trkpt><trkpt lat="45.8626824" lon="11.4718204"><ele>987.0</ele><time>2026-04-26T14:37:05.44Z</time></trkpt><trkpt lat="45.8627075" lon="11.4716268"><ele>985.0</ele><time>2026-04-26T14:37:06.437Z</time></trkpt><trkpt lat="45.8627224" lon="11.4714557"><ele>983.0</ele><time>2026-04-26T14:37:07.436Z</time></trkpt><trkpt lat="45.862745" lon="11.4712735"><ele>980.5</ele><time>2026-04-26T14:37:08.436Z</time></trkpt><trkpt lat="45.8627663" lon="11.4710814"><ele>978.0</ele><time>2026-04-26T14:37:09.439Z</time></trkpt><trkpt lat="45.8627941" lon="11.4708885"><ele>975.5</ele><time>2026-04-26T14:37:10.437Z</time></trkpt><trkpt lat="45.8628191" lon="11.4706948"><ele>973.0</ele><time>2026-04-26T14:37:11.435Z</time></trkpt><trkpt lat="45.8628465" lon="11.4704934"><ele>973.5</ele><time>2026-04-26T14:37:12.435Z</time></trkpt><trkpt lat="45.8628767" lon="11.4702821"><ele>974.0</ele><time>2026-04-26T14:37:13.439Z</time></trkpt><trkpt lat="45.8629073" lon="11.4700818"><ele>974.5</ele><time>2026-04-26T14:37:14.445Z</time></trkpt><trkpt lat="45.8629398" lon="11.4698966"><ele>975.0</ele><time>2026-04-26T14:37:15.436Z</time></trkpt><trkpt lat="45.8629582" lon="11.4697175"><ele>975.5</ele><time>2026-04-26T14:37:16.435Z</time></trkpt><trkpt lat="45.8629792" lon="11.4695385"><ele>976.0</ele><time>2026-04-26T14:37:17.436Z</time></trkpt><trkpt lat="45.8630029" lon="11.469354"><ele>976.5</ele><time>2026-04-26T14:37:18.439Z</time></trkpt><trkpt lat="45.863026" lon="11.4691688"><ele>977.0</ele><time>2026-04-26T14:37:19.437Z</time></trkpt><trkpt lat="45.8630502" lon="11.4689929"><ele>977.0</ele><time>2026-04-26T14:37:20.437Z</time></trkpt><trkpt lat="45.8630794" lon="11.4688298"><ele>977.0</ele><time>2026-04-26T14:37:21.437Z</time></trkpt><trkpt lat="45.8630967" lon="11.4686706"><ele>977.0</ele><time>2026-04-26T14:37:22.444Z</time></trkpt><trkpt lat="45.8631193" lon="11.4685066"><ele>977.0</ele><time>2026-04-26T14:37:23.436Z</time></trkpt><trkpt lat="45.8631416" lon="11.468344"><ele>976.5</ele><time>2026-04-26T14:37:24.438Z</time></trkpt><trkpt lat="45.8631574" lon="11.4681703"><ele>976.0</ele><time>2026-04-26T14:37:25.438Z</time></trkpt><trkpt lat="45.8631666" lon="11.4679844"><ele>975.5</ele><time>2026-04-26T14:37:26.437Z</time></trkpt><trkpt lat="45.863164" lon="11.4677892"><ele>975.0</ele><time>2026-04-26T14:37:27.44Z</time></trkpt><trkpt lat="45.86315" lon="11.4675864"><ele>974.6666666666667</ele><time>2026-04-26T14:37:28.437Z</time></trkpt><trkpt lat="45.8631261" lon="11.4673751"><ele>974.3333333333334</ele><time>2026-04-26T14:37:29.436Z</time></trkpt><trkpt lat="45.8630912" lon="11.4671622"><ele>974.0</ele><time>2026-04-26T14:37:30.436Z</time></trkpt><trkpt lat="45.8630461" lon="11.4669553"><ele>974.0</ele><time>2026-04-26T14:37:31.443Z</time></trkpt><trkpt lat="45.8630047" lon="11.4667718"><ele>974.0</ele><time>2026-04-26T14:37:32.437Z</time></trkpt><trkpt lat="45.8629561" lon="11.4666154"><ele>974.0</ele><time>2026-04-26T14:37:33.437Z</time></trkpt><trkpt lat="45.8629174" lon="11.4664705"><ele>974.0</ele><time>2026-04-26T14:37:34.437Z</time></trkpt><trkpt lat="45.8628816" lon="11.4663398"><ele>973.6</ele><time>2026-04-26T14:37:35.441Z</time></trkpt><trkpt lat="45.8628552" lon="11.4662201"><ele>973.2</ele><time>2026-04-26T14:37:36.444Z</time></trkpt><trkpt lat="45.8628222" lon="11.4661024"><ele>972.8000000000001</ele><time>2026-04-26T14:37:37.439Z</time></trkpt><trkpt lat="45.8627775" lon="11.4659869"><ele>972.4000000000001</ele><time>2026-04-26T14:37:38.44Z</time></trkpt><trkpt lat="45.8627172" lon="11.4658749"><ele>972.0</ele><time>2026-04-26T14:37:39.436Z</time></trkpt><trkpt lat="45.8626401" lon="11.4657673"><ele>972.25</ele><time>2026-04-26T14:37:40.436Z</time></trkpt><trkpt lat="45.862556" lon="11.4656628"><ele>972.5</ele><time>2026-04-26T14:37:41.436Z</time></trkpt><trkpt lat="45.8624821" lon="11.465561"><ele>972.75</ele><time>2026-04-26T14:37:42.438Z</time></trkpt><trkpt lat="45.8623763" lon="11.4654558"><ele>973.0</ele><time>2026-04-26T14:37:43.438Z</time></trkpt><trkpt lat="45.8622684" lon="11.4653522"><ele>973.0</ele><time>2026-04-26T14:37:44.439Z</time></trkpt><trkpt lat="45.8621792" lon="11.4652541"><ele>973.0</ele><time>2026-04-26T14:37:45.438Z</time></trkpt><trkpt lat="45.8620969" lon="11.4651552"><ele>973.0</ele><time>2026-04-26T14:37:46.437Z</time></trkpt><trkpt lat="45.8620288" lon="11.4650555"><ele>973.0</ele><time>2026-04-26T14:37:47.437Z</time></trkpt><trkpt lat="45.8619677" lon="11.4649393"><ele>973.0</ele><time>2026-04-26T14:37:48.436Z</time></trkpt><trkpt lat="45.8619141" lon="11.4648105"><ele>973.0</ele><time>2026-04-26T14:37:49.44Z</time></trkpt><trkpt lat="45.8618731" lon="11.4646606"><ele>973.0</ele><time>2026-04-26T14:37:50.436Z</time></trkpt><trkpt lat="45.8618373" lon="11.4645029"><ele>973.0</ele><time>2026-04-26T14:37:51.437Z</time></trkpt><trkpt lat="45.8617972" lon="11.4643507"><ele>973.0</ele><time>2026-04-26T14:37:52.438Z</time></trkpt><trkpt lat="45.8617465" lon="11.4642038"><ele>971.5</ele><time>2026-04-26T14:37:53.438Z</time></trkpt><trkpt lat="45.8616714" lon="11.4640662"><ele>970.0</ele><time>2026-04-26T14:37:54.437Z</time></trkpt><trkpt lat="45.8615782" lon="11.4639356"><ele>968.5</ele><time>2026-04-26T14:37:55.437Z</time></trkpt><trkpt lat="45.8614772" lon="11.46381"><ele>967.0</ele><time>2026-04-26T14:37:56.437Z</time></trkpt><trkpt lat="45.8613685" lon="11.4636969"><ele>967.0</ele><time>2026-04-26T14:37:57.436Z</time></trkpt><trkpt lat="45.8612383" lon="11.463588"><ele>967.0</ele><time>2026-04-26T14:37:58.437Z</time></trkpt><trkpt lat="45.8610959" lon="11.4634867"><ele>967.0</ele><time>2026-04-26T14:37:59.437Z</time></trkpt><trkpt lat="45.8609544" lon="11.463411"><ele>965.75</ele><time>2026-04-26T14:38:00.436Z</time></trkpt><trkpt lat="45.8608178" lon="11.4633502"><ele>964.5</ele><time>2026-04-26T14:38:01.436Z</time></trkpt><trkpt lat="45.8606904" lon="11.4632956"><ele>963.25</ele><time>2026-04-26T14:38:02.437Z</time></trkpt><trkpt lat="45.8605791" lon="11.4632238"><ele>962.0</ele><time>2026-04-26T14:38:03.438Z</time></trkpt><trkpt lat="45.8604906" lon="11.4631437"><ele>962.0000000000001</ele><time>2026-04-26T14:38:04.447Z</time></trkpt><trkpt lat="45.860418" lon="11.4630416"><ele>962.0</ele><time>2026-04-26T14:38:05.438Z</time></trkpt><trkpt lat="45.8603603" lon="11.4629434"><ele>962.0</ele><time>2026-04-26T14:38:06.439Z</time></trkpt><trkpt lat="45.8603286" lon="11.4628323"><ele>962.0</ele><time>2026-04-26T14:38:07.438Z</time></trkpt><trkpt lat="45.8603204" lon="11.4627203"><ele>962.0000000000001</ele><time>2026-04-26T14:38:08.437Z</time></trkpt><trkpt lat="45.8603301" lon="11.4626156"><ele>962.0</ele><time>2026-04-26T14:38:09.438Z</time></trkpt><trkpt lat="45.8603537" lon="11.4625169"><ele>962.5000000000001</ele><time>2026-04-26T14:38:10.437Z</time></trkpt><trkpt lat="45.8603779" lon="11.4624247"><ele>963.0</ele><time>2026-04-26T14:38:11.438Z</time></trkpt><trkpt lat="45.8604082" lon="11.4623309"><ele>963.5</ele><time>2026-04-26T14:38:12.436Z</time></trkpt><trkpt lat="45.8604448" lon="11.4622296"><ele>964.0</ele><time>2026-04-26T14:38:13.437Z</time></trkpt><trkpt lat="45.8604874" lon="11.4621191"><ele>964.5000000000001</ele><time>2026-04-26T14:38:14.435Z</time></trkpt><trkpt lat="45.8605244" lon="11.4620058"><ele>965.0</ele><time>2026-04-26T14:38:15.436Z</time></trkpt><trkpt lat="45.8605702" lon="11.4618896"><ele>963.4</ele><time>2026-04-26T14:38:16.44Z</time></trkpt><trkpt lat="45.8606138" lon="11.4617691"><ele>961.8</ele><time>2026-04-26T14:38:17.44Z</time></trkpt><trkpt lat="45.8606535" lon="11.4616389"><ele>960.2</ele><time>2026-04-26T14:38:18.439Z</time></trkpt><trkpt lat="45.8606942" lon="11.4615105"><ele>958.6</ele><time>2026-04-26T14:38:19.451Z</time></trkpt><trkpt lat="45.860736" lon="11.4613889"><ele>957.0</ele><time>2026-04-26T14:38:20.437Z</time></trkpt><trkpt lat="45.8607776" lon="11.4612691"><ele>956.2</ele><time>2026-04-26T14:38:21.435Z</time></trkpt><trkpt lat="45.8608183" lon="11.4611381"><ele>955.4000000000001</ele><time>2026-04-26T14:38:22.438Z</time></trkpt><trkpt lat="45.8608633" lon="11.4610003"><ele>954.5999999999999</ele><time>2026-04-26T14:38:23.436Z</time></trkpt><trkpt lat="45.8608997" lon="11.4608552"><ele>953.8</ele><time>2026-04-26T14:38:24.436Z</time></trkpt><trkpt lat="45.8609186" lon="11.4607054"><ele>953.0</ele><time>2026-04-26T14:38:25.438Z</time></trkpt><trkpt lat="45.8609238" lon="11.460551"><ele>953.75</ele><time>2026-04-26T14:38:26.437Z</time></trkpt><trkpt lat="45.8609078" lon="11.4603937"><ele>954.5</ele><time>2026-04-26T14:38:27.435Z</time></trkpt><trkpt lat="45.8608773" lon="11.4602199"><ele>955.25</ele><time>2026-04-26T14:38:28.437Z</time></trkpt><trkpt lat="45.86082" lon="11.4600133"><ele>956.0</ele><time>2026-04-26T14:38:29.438Z</time></trkpt><trkpt lat="45.8607804" lon="11.45981"><ele>956.0</ele><time>2026-04-26T14:38:30.435Z</time></trkpt><trkpt lat="45.8607454" lon="11.4596198"><ele>956.0</ele><time>2026-04-26T14:38:31.436Z</time></trkpt><trkpt lat="45.8607134" lon="11.4594471"><ele>956.0</ele><time>2026-04-26T14:38:32.437Z</time></trkpt><trkpt lat="45.8606838" lon="11.4592998"><ele>956.0</ele><time>2026-04-26T14:38:33.437Z</time></trkpt><trkpt lat="45.8606555" lon="11.4591639"><ele>956.1999999999999</ele><time>2026-04-26T14:38:34.436Z</time></trkpt><trkpt lat="45.8606271" lon="11.4590314"><ele>956.3999999999999</ele><time>2026-04-26T14:38:35.436Z</time></trkpt><trkpt lat="45.860595" lon="11.4588857"><ele>956.6</ele><time>2026-04-26T14:38:36.438Z</time></trkpt><trkpt lat="45.8605564" lon="11.4587371"><ele>956.8</ele><time>2026-04-26T14:38:37.442Z</time></trkpt><trkpt lat="45.860509" lon="11.4585876"><ele>957.0</ele><time>2026-04-26T14:38:38.437Z</time></trkpt><trkpt lat="45.8604547" lon="11.4584388"><ele>956.0</ele><time>2026-04-26T14:38:39.442Z</time></trkpt><trkpt lat="45.8603874" lon="11.4582921"><ele>955.0</ele><time>2026-04-26T14:38:40.437Z</time></trkpt><trkpt lat="45.860317" lon="11.4581493"><ele>954.0</ele><time>2026-04-26T14:38:41.44Z</time></trkpt><trkpt lat="45.8602474" lon="11.4580159"><ele>953.0</ele><time>2026-04-26T14:38:42.437Z</time></trkpt><trkpt lat="45.8601755" lon="11.4578841"><ele>950.5</ele><time>2026-04-26T14:38:43.437Z</time></trkpt><trkpt lat="45.8601033" lon="11.4577544"><ele>948.0</ele><time>2026-04-26T14:38:44.438Z</time></trkpt><trkpt lat="45.8600266" lon="11.4576199"><ele>945.5</ele><time>2026-04-26T14:38:45.436Z</time></trkpt><trkpt lat="45.8599519" lon="11.4574869"><ele>943.0</ele><time>2026-04-26T14:38:46.436Z</time></trkpt><trkpt lat="45.8598746" lon="11.4573706"><ele>943.0</ele><time>2026-04-26T14:38:47.438Z</time></trkpt><trkpt lat="45.8597901" lon="11.4572651"><ele>943.0</ele><time>2026-04-26T14:38:48.436Z</time></trkpt><trkpt lat="45.8596956" lon="11.4571774"><ele>943.0</ele><time>2026-04-26T14:38:49.436Z</time></trkpt><trkpt lat="45.8595878" lon="11.4571202"><ele>943.0</ele><time>2026-04-26T14:38:50.44Z</time></trkpt><trkpt lat="45.859459" lon="11.457106"><ele>943.0</ele><time>2026-04-26T14:38:51.437Z</time></trkpt><trkpt lat="45.8593058" lon="11.4571251"><ele>943.0</ele><time>2026-04-26T14:38:52.436Z</time></trkpt><trkpt lat="45.8591453" lon="11.4571531"><ele>943.0</ele><time>2026-04-26T14:38:53.438Z</time></trkpt><trkpt lat="45.8589937" lon="11.4571714"><ele>941.0</ele><time>2026-04-26T14:38:54.436Z</time></trkpt><trkpt lat="45.8588541" lon="11.4571829"><ele>939.0</ele><time>2026-04-26T14:38:55.437Z</time></trkpt><trkpt lat="45.8587057" lon="11.4571997"><ele>937.0</ele><time>2026-04-26T14:38:56.437Z</time></trkpt><trkpt lat="45.8585371" lon="11.4571895"><ele>937.0</ele><time>2026-04-26T14:38:57.436Z</time></trkpt><trkpt lat="45.8583646" lon="11.4571545"><ele>937.0</ele><time>2026-04-26T14:38:58.436Z</time></trkpt><trkpt lat="45.8582021" lon="11.4571304"><ele>937.0</ele><time>2026-04-26T14:38:59.436Z</time></trkpt><trkpt lat="45.8580352" lon="11.457126"><ele>937.0</ele><time>2026-04-26T14:39:00.443Z</time></trkpt><trkpt lat="45.8578513" lon="11.4571496"><ele>937.0</ele><time>2026-04-26T14:39:01.435Z</time></trkpt><trkpt lat="45.8576489" lon="11.4571944"><ele>937.0</ele><time>2026-04-26T14:39:02.437Z</time></trkpt><trkpt lat="45.8574458" lon="11.4572232"><ele>935.0</ele><time>2026-04-26T14:39:03.437Z</time></trkpt><trkpt lat="45.8572517" lon="11.4572538"><ele>933.0</ele><time>2026-04-26T14:39:04.436Z</time></trkpt><trkpt lat="45.8570678" lon="11.4572801"><ele>931.0</ele><time>2026-04-26T14:39:05.438Z</time></trkpt><trkpt lat="45.8568909" lon="11.4573075"><ele>929.25</ele><time>2026-04-26T14:39:06.44Z</time></trkpt><trkpt lat="45.8567391" lon="11.4573248"><ele>927.5</ele><time>2026-04-26T14:39:07.436Z</time></trkpt><trkpt lat="45.8566032" lon="11.4573049"><ele>925.75</ele><time>2026-04-26T14:39:08.437Z</time></trkpt><trkpt lat="45.8564922" lon="11.4572379"><ele>924.0</ele><time>2026-04-26T14:39:09.436Z</time></trkpt><trkpt lat="45.8564048" lon="11.4571331"><ele>926.3333333333333</ele><time>2026-04-26T14:39:10.438Z</time></trkpt><trkpt lat="45.8562982" lon="11.4569993"><ele>928.6666666666666</ele><time>2026-04-26T14:39:11.439Z</time></trkpt><trkpt lat="45.8562621" lon="11.4567393"><ele>931.0</ele><time>2026-04-26T14:39:12.44Z</time></trkpt><trkpt lat="45.8561797" lon="11.456567"><ele>931.0</ele><time>2026-04-26T14:39:13.436Z</time></trkpt><trkpt lat="45.856071" lon="11.4564475"><ele>931.0</ele><time>2026-04-26T14:39:14.439Z</time></trkpt><trkpt lat="45.855935" lon="11.4564074"><ele>931.0</ele><time>2026-04-26T14:39:15.437Z</time></trkpt><trkpt lat="45.8557792" lon="11.4564226"><ele>931.0</ele><time>2026-04-26T14:39:16.437Z</time></trkpt><trkpt lat="45.8556063" lon="11.4564476"><ele>926.3333333333333</ele><time>2026-04-26T14:39:17.438Z</time></trkpt><trkpt lat="45.855424" lon="11.4564892"><ele>921.6666666666667</ele><time>2026-04-26T14:39:18.436Z</time></trkpt><trkpt lat="45.8552444" lon="11.456537"><ele>917.0</ele><time>2026-04-26T14:39:19.437Z</time></trkpt><trkpt lat="45.8550756" lon="11.4565903"><ele>916.6666666666667</ele><time>2026-04-26T14:39:20.437Z</time></trkpt><trkpt lat="45.8549134" lon="11.4566493"><ele>916.3333333333333</ele><time>2026-04-26T14:39:21.436Z</time></trkpt><trkpt lat="45.8547592" lon="11.4567107"><ele>916.0</ele><time>2026-04-26T14:39:22.436Z</time></trkpt><trkpt lat="45.8546104" lon="11.4567644"><ele>916.0</ele><time>2026-04-26T14:39:23.436Z</time></trkpt><trkpt lat="45.8544628" lon="11.4567844"><ele>916.0</ele><time>2026-04-26T14:39:24.445Z</time></trkpt><trkpt lat="45.8543059" lon="11.4567589"><ele>916.0</ele><time>2026-04-26T14:39:25.438Z</time></trkpt><trkpt lat="45.8541406" lon="11.4567068"><ele>913.3333333333333</ele><time>2026-04-26T14:39:26.438Z</time></trkpt><trkpt lat="45.8539868" lon="11.4566225"><ele>910.6666666666667</ele><time>2026-04-26T14:39:27.436Z</time></trkpt><trkpt lat="45.8538465" lon="11.4565257"><ele>908.0</ele><time>2026-04-26T14:39:28.438Z</time></trkpt><trkpt lat="45.8537154" lon="11.4564177"><ele>908.0</ele><time>2026-04-26T14:39:29.437Z</time></trkpt><trkpt lat="45.8535841" lon="11.4563"><ele>908.0</ele><time>2026-04-26T14:39:30.44Z</time></trkpt><trkpt lat="45.8534493" lon="11.4561947"><ele>908.0</ele><time>2026-04-26T14:39:31.439Z</time></trkpt><trkpt lat="45.8533129" lon="11.4561103"><ele>910.6666666666667</ele><time>2026-04-26T14:39:32.436Z</time></trkpt><trkpt lat="45.8531721" lon="11.4560672"><ele>913.3333333333333</ele><time>2026-04-26T14:39:33.439Z</time></trkpt><trkpt lat="45.8530196" lon="11.456076"><ele>916.0</ele><time>2026-04-26T14:39:34.443Z</time></trkpt><trkpt lat="45.8528639" lon="11.4561252"><ele>916.0</ele><time>2026-04-26T14:39:35.443Z</time></trkpt><trkpt lat="45.8527028" lon="11.4562087"><ele>916.0</ele><time>2026-04-26T14:39:36.437Z</time></trkpt><trkpt lat="45.8525225" lon="11.4563037"><ele>916.0</ele><time>2026-04-26T14:39:37.439Z</time></trkpt><trkpt lat="45.8523265" lon="11.4563949"><ele>910.0</ele><time>2026-04-26T14:39:38.436Z</time></trkpt><trkpt lat="45.8521195" lon="11.4564857"><ele>904.0</ele><time>2026-04-26T14:39:39.44Z</time></trkpt><trkpt lat="45.8519247" lon="11.4565757"><ele>898.0</ele><time>2026-04-26T14:39:40.436Z</time></trkpt><trkpt lat="45.8517421" lon="11.4566519"><ele>898.0</ele><time>2026-04-26T14:39:41.439Z</time></trkpt><trkpt lat="45.8515704" lon="11.4567202"><ele>898.0</ele><time>2026-04-26T14:39:42.436Z</time></trkpt><trkpt lat="45.8514096" lon="11.4567689"><ele>898.0</ele><time>2026-04-26T14:39:43.442Z</time></trkpt><trkpt lat="45.8512604" lon="11.4567691"><ele>898.0</ele><time>2026-04-26T14:39:44.438Z</time></trkpt><trkpt lat="45.8511377" lon="11.4567098"><ele>898.0</ele><time>2026-04-26T14:39:45.441Z</time></trkpt><trkpt lat="45.8510299" lon="11.4565994"><ele>898.0</ele><time>2026-04-26T14:39:46.436Z</time></trkpt><trkpt lat="45.8509298" lon="11.4564653"><ele>898.0</ele><time>2026-04-26T14:39:47.437Z</time></trkpt><trkpt lat="45.8508406" lon="11.4563062"><ele>902.0</ele><time>2026-04-26T14:39:48.437Z</time></trkpt><trkpt lat="45.850836" lon="11.4560159"><ele>906.0</ele><time>2026-04-26T14:39:49.435Z</time></trkpt><trkpt lat="45.8507783" lon="11.4557897"><ele>910.0</ele><time>2026-04-26T14:39:50.437Z</time></trkpt><trkpt lat="45.8506948" lon="11.4555695"><ele>908.3333333333333</ele><time>2026-04-26T14:39:51.439Z</time></trkpt><trkpt lat="45.8505883" lon="11.4553666"><ele>906.6666666666667</ele><time>2026-04-26T14:39:52.437Z</time></trkpt><trkpt lat="45.8504988" lon="11.4551442"><ele>905.0</ele><time>2026-04-26T14:39:53.437Z</time></trkpt><trkpt lat="45.8504108" lon="11.4549151"><ele>905.0</ele><time>2026-04-26T14:39:54.436Z</time></trkpt><trkpt lat="45.8503154" lon="11.454695"><ele>905.0</ele><time>2026-04-26T14:39:55.437Z</time></trkpt><trkpt lat="45.8501989" lon="11.4544894"><ele>905.0</ele><time>2026-04-26T14:39:56.436Z</time></trkpt><trkpt lat="45.8500807" lon="11.4542806"><ele>909.0</ele><time>2026-04-26T14:39:57.437Z</time></trkpt><trkpt lat="45.8499775" lon="11.4540632"><ele>913.0</ele><time>2026-04-26T14:39:58.441Z</time></trkpt><trkpt lat="45.8498753" lon="11.4538302"><ele>917.0</ele><time>2026-04-26T14:39:59.439Z</time></trkpt><trkpt lat="45.8497862" lon="11.4536165"><ele>917.0</ele><time>2026-04-26T14:40:00.436Z</time></trkpt><trkpt lat="45.8496847" lon="11.4534313"><ele>917.0</ele><time>2026-04-26T14:40:01.437Z</time></trkpt><trkpt lat="45.8495593" lon="11.4533125"><ele>917.0</ele><time>2026-04-26T14:40:02.435Z</time></trkpt><trkpt lat="45.8494046" lon="11.4532552"><ele>919.3333333333334</ele><time>2026-04-26T14:40:03.435Z</time></trkpt><trkpt lat="45.8492363" lon="11.4532474"><ele>921.6666666666667</ele><time>2026-04-26T14:40:04.441Z</time></trkpt><trkpt lat="45.8490771" lon="11.4532866"><ele>924.0</ele><time>2026-04-26T14:40:05.436Z</time></trkpt><trkpt lat="45.8489305" lon="11.4533413"><ele>924.0</ele><time>2026-04-26T14:40:06.437Z</time></trkpt><trkpt lat="45.8487944" lon="11.4533944"><ele>924.0</ele><time>2026-04-26T14:40:07.436Z</time></trkpt><trkpt lat="45.8486686" lon="11.4534113"><ele>924.0</ele><time>2026-04-26T14:40:08.437Z</time></trkpt><trkpt lat="45.8485763" lon="11.4533571"><ele>924.0</ele><time>2026-04-26T14:40:09.439Z</time></trkpt><trkpt lat="45.8485006" lon="11.4533032"><ele>924.0</ele><time>2026-04-26T14:40:10.436Z</time></trkpt><trkpt lat="45.8485219" lon="11.4531994"><ele>924.0</ele><time>2026-04-26T14:40:11.449Z</time></trkpt><trkpt lat="45.848536" lon="11.4531023"><ele>924.0</ele><time>2026-04-26T14:40:12.436Z</time></trkpt><trkpt lat="45.8485856" lon="11.4530128"><ele>924.0</ele><time>2026-04-26T14:40:13.438Z</time></trkpt><trkpt lat="45.848638" lon="11.452909"><ele>924.0</ele><time>2026-04-26T14:40:14.437Z</time></trkpt><trkpt lat="45.848671" lon="11.4527722"><ele>924.0</ele><time>2026-04-26T14:40:15.437Z</time></trkpt><trkpt lat="45.8486989" lon="11.4526019"><ele>923.25</ele><time>2026-04-26T14:40:16.439Z</time></trkpt><trkpt lat="45.8487225" lon="11.4524129"><ele>922.5</ele><time>2026-04-26T14:40:17.438Z</time></trkpt><trkpt lat="45.848739" lon="11.4522028"><ele>921.75</ele><time>2026-04-26T14:40:18.437Z</time></trkpt><trkpt lat="45.8487192" lon="11.4519941"><ele>921.0</ele><time>2026-04-26T14:40:19.435Z</time></trkpt><trkpt lat="45.848659" lon="11.4517964"><ele>921.0</ele><time>2026-04-26T14:40:20.439Z</time></trkpt><trkpt lat="45.8485549" lon="11.4516222"><ele>921.0</ele><time>2026-04-26T14:40:21.436Z</time></trkpt><trkpt lat="45.8484318" lon="11.4514643"><ele>921.0</ele><time>2026-04-26T14:40:22.44Z</time></trkpt><trkpt lat="45.8482995" lon="11.4513055"><ele>922.3333333333333</ele><time>2026-04-26T14:40:23.436Z</time></trkpt><trkpt lat="45.8481633" lon="11.4511414"><ele>923.6666666666666</ele><time>2026-04-26T14:40:24.437Z</time></trkpt><trkpt lat="45.8480195" lon="11.4509712"><ele>925.0</ele><time>2026-04-26T14:40:25.436Z</time></trkpt><trkpt lat="45.8478729" lon="11.4508039"><ele>925.0</ele><time>2026-04-26T14:40:26.435Z</time></trkpt><trkpt lat="45.8477315" lon="11.4506438"><ele>925.0</ele><time>2026-04-26T14:40:27.436Z</time></trkpt><trkpt lat="45.8475835" lon="11.4504839"><ele>925.0</ele><time>2026-04-26T14:40:28.437Z</time></trkpt><trkpt lat="45.8474279" lon="11.4503449"><ele>927.6666666666666</ele><time>2026-04-26T14:40:29.435Z</time></trkpt><trkpt lat="45.8472631" lon="11.4502218"><ele>930.3333333333333</ele><time>2026-04-26T14:40:30.438Z</time></trkpt><trkpt lat="45.8470908" lon="11.4501159"><ele>933.0</ele><time>2026-04-26T14:40:31.437Z</time></trkpt><trkpt lat="45.8469164" lon="11.4500176"><ele>936.3333333333333</ele><time>2026-04-26T14:40:32.436Z</time></trkpt><trkpt lat="45.8467395" lon="11.4499258"><ele>939.6666666666666</ele><time>2026-04-26T14:40:33.436Z</time></trkpt><trkpt lat="45.8465618" lon="11.4498235"><ele>943.0</ele><time>2026-04-26T14:40:34.436Z</time></trkpt><trkpt lat="45.8463932" lon="11.4497041"><ele>942.3333333333333</ele><time>2026-04-26T14:40:35.436Z</time></trkpt><trkpt lat="45.8462485" lon="11.4495651"><ele>941.6666666666667</ele><time>2026-04-26T14:40:36.436Z</time></trkpt><trkpt lat="45.84613" lon="11.4494142"><ele>941.0</ele><time>2026-04-26T14:40:37.436Z</time></trkpt><trkpt lat="45.8460385" lon="11.4492553"><ele>941.0</ele><time>2026-04-26T14:40:38.436Z</time></trkpt><trkpt lat="45.8459836" lon="11.4490915"><ele>941.0</ele><time>2026-04-26T14:40:39.438Z</time></trkpt><trkpt lat="45.8459757" lon="11.4489304"><ele>941.0</ele><time>2026-04-26T14:40:40.44Z</time></trkpt><trkpt lat="45.8460131" lon="11.4487873"><ele>941.0</ele><time>2026-04-26T14:40:41.437Z</time></trkpt><trkpt lat="45.8461115" lon="11.4486578"><ele>944.3333333333334</ele><time>2026-04-26T14:40:42.436Z</time></trkpt><trkpt lat="45.8462357" lon="11.4485417"><ele>947.6666666666667</ele><time>2026-04-26T14:40:43.436Z</time></trkpt><trkpt lat="45.846371" lon="11.4484141"><ele>951.0</ele><time>2026-04-26T14:40:44.436Z</time></trkpt><trkpt lat="45.8464958" lon="11.4482599"><ele>951.0</ele><time>2026-04-26T14:40:45.437Z</time></trkpt><trkpt lat="45.846605" lon="11.4480745"><ele>951.0</ele><time>2026-04-26T14:40:46.437Z</time></trkpt><trkpt lat="45.8467117" lon="11.4478703"><ele>951.0</ele><time>2026-04-26T14:40:47.437Z</time></trkpt><trkpt lat="45.8468164" lon="11.4476648"><ele>952.0</ele><time>2026-04-26T14:40:48.436Z</time></trkpt><trkpt lat="45.8469074" lon="11.447475"><ele>953.0</ele><time>2026-04-26T14:40:49.436Z</time></trkpt><trkpt lat="45.8469906" lon="11.4473003"><ele>954.0</ele><time>2026-04-26T14:40:50.439Z</time></trkpt><trkpt lat="45.8470722" lon="11.4471362"><ele>955.0</ele><time>2026-04-26T14:40:51.436Z</time></trkpt><trkpt lat="45.847155" lon="11.4469901"><ele>957.75</ele><time>2026-04-26T14:40:52.436Z</time></trkpt><trkpt lat="45.847248" lon="11.4468679"><ele>960.5</ele><time>2026-04-26T14:40:53.437Z</time></trkpt><trkpt lat="45.8473551" lon="11.446801"><ele>963.25</ele><time>2026-04-26T14:40:54.437Z</time></trkpt><trkpt lat="45.8474694" lon="11.4467991"><ele>966.0</ele><time>2026-04-26T14:40:55.436Z</time></trkpt><trkpt lat="45.8475793" lon="11.4468649"><ele>965.25</ele><time>2026-04-26T14:40:56.438Z</time></trkpt><trkpt lat="45.8476824" lon="11.4469628"><ele>964.5</ele><time>2026-04-26T14:40:57.436Z</time></trkpt><trkpt lat="45.8477824" lon="11.4470672"><ele>963.75</ele><time>2026-04-26T14:40:58.44Z</time></trkpt><trkpt lat="45.847888" lon="11.4471674"><ele>963.0</ele><time>2026-04-26T14:40:59.436Z</time></trkpt><trkpt lat="45.8479945" lon="11.4472597"><ele>963.0</ele><time>2026-04-26T14:41:00.436Z</time></trkpt><trkpt lat="45.8481011" lon="11.4473402"><ele>963.0</ele><time>2026-04-26T14:41:01.436Z</time></trkpt><trkpt lat="45.8482124" lon="11.4474053"><ele>963.0</ele><time>2026-04-26T14:41:02.437Z</time></trkpt><trkpt lat="45.8483159" lon="11.4474559"><ele>963.0</ele><time>2026-04-26T14:41:03.437Z</time></trkpt><trkpt lat="45.8484134" lon="11.4474948"><ele>964.1666666666666</ele><time>2026-04-26T14:41:04.437Z</time></trkpt><trkpt lat="45.8484998" lon="11.4475186"><ele>965.3333333333333</ele><time>2026-04-26T14:41:05.439Z</time></trkpt><trkpt lat="45.8485783" lon="11.4475222"><ele>966.5</ele><time>2026-04-26T14:41:06.437Z</time></trkpt><trkpt lat="45.8486507" lon="11.4474822"><ele>967.6666666666666</ele><time>2026-04-26T14:41:07.441Z</time></trkpt><trkpt lat="45.8487037" lon="11.4473982"><ele>968.8333333333333</ele><time>2026-04-26T14:41:08.437Z</time></trkpt><trkpt lat="45.8487132" lon="11.4472848"><ele>970.0</ele><time>2026-04-26T14:41:09.438Z</time></trkpt><trkpt lat="45.848689" lon="11.4471805"><ele>971.0</ele><time>2026-04-26T14:41:10.438Z</time></trkpt><trkpt lat="45.8486082" lon="11.4470956"><ele>972.0</ele><time>2026-04-26T14:41:11.438Z</time></trkpt><trkpt lat="45.8485152" lon="11.4470395"><ele>973.0</ele><time>2026-04-26T14:41:12.439Z</time></trkpt><trkpt lat="45.8484229" lon="11.4470023"><ele>974.0</ele><time>2026-04-26T14:41:13.435Z</time></trkpt><trkpt lat="45.8483294" lon="11.4469591"><ele>975.0</ele><time>2026-04-26T14:41:14.437Z</time></trkpt><trkpt lat="45.8482407" lon="11.4469161"><ele>975.4</ele><time>2026-04-26T14:41:15.436Z</time></trkpt><trkpt lat="45.8481572" lon="11.4468722"><ele>975.8</ele><time>2026-04-26T14:41:16.437Z</time></trkpt><trkpt lat="45.8480709" lon="11.446814"><ele>976.2</ele><time>2026-04-26T14:41:17.436Z</time></trkpt><trkpt lat="45.8479722" lon="11.4467311"><ele>976.6</ele><time>2026-04-26T14:41:18.436Z</time></trkpt><trkpt lat="45.847878" lon="11.4466232"><ele>977.0</ele><time>2026-04-26T14:41:19.45Z</time></trkpt><trkpt lat="45.8477872" lon="11.4464686"><ele>978.0</ele><time>2026-04-26T14:41:20.438Z</time></trkpt><trkpt lat="45.8477184" lon="11.4462724"><ele>979.0</ele><time>2026-04-26T14:41:21.436Z</time></trkpt><trkpt lat="45.8476649" lon="11.4460546"><ele>980.0</ele><time>2026-04-26T14:41:22.438Z</time></trkpt><trkpt lat="45.8475769" lon="11.4458713"><ele>980.0</ele><time>2026-04-26T14:41:23.437Z</time></trkpt><trkpt lat="45.8474504" lon="11.4457266"><ele>980.0</ele><time>2026-04-26T14:41:24.435Z</time></trkpt><trkpt lat="45.8472943" lon="11.4456389"><ele>980.0</ele><time>2026-04-26T14:41:25.436Z</time></trkpt><trkpt lat="45.8471177" lon="11.4455676"><ele>980.0</ele><time>2026-04-26T14:41:26.436Z</time></trkpt><trkpt lat="45.8469412" lon="11.4454939"><ele>980.0</ele><time>2026-04-26T14:41:27.438Z</time></trkpt><trkpt lat="45.8467837" lon="11.445422"><ele>980.0</ele><time>2026-04-26T14:41:28.437Z</time></trkpt><trkpt lat="45.8466425" lon="11.4453588"><ele>981.75</ele><time>2026-04-26T14:41:29.438Z</time></trkpt><trkpt lat="45.8465239" lon="11.4452913"><ele>983.5</ele><time>2026-04-26T14:41:30.438Z</time></trkpt><trkpt lat="45.8464379" lon="11.4451968"><ele>985.25</ele><time>2026-04-26T14:41:31.437Z</time></trkpt><trkpt lat="45.8463771" lon="11.4450735"><ele>987.0</ele><time>2026-04-26T14:41:32.435Z</time></trkpt><trkpt lat="45.8463346" lon="11.444913"><ele>987.0</ele><time>2026-04-26T14:41:33.436Z</time></trkpt><trkpt lat="45.846273" lon="11.4447247"><ele>987.0</ele><time>2026-04-26T14:41:34.44Z</time></trkpt><trkpt lat="45.8461945" lon="11.444532"><ele>987.0</ele><time>2026-04-26T14:41:35.435Z</time></trkpt><trkpt lat="45.8460985" lon="11.4443822"><ele>987.0</ele><time>2026-04-26T14:41:36.438Z</time></trkpt><trkpt lat="45.8459939" lon="11.4442797"><ele>988.2</ele><time>2026-04-26T14:41:37.443Z</time></trkpt><trkpt lat="45.8458899" lon="11.444218"><ele>989.4000000000001</ele><time>2026-04-26T14:41:38.436Z</time></trkpt><trkpt lat="45.8457984" lon="11.4441654"><ele>990.5999999999999</ele><time>2026-04-26T14:41:39.434Z</time></trkpt><trkpt lat="45.8457138" lon="11.4441002"><ele>991.8</ele><time>2026-04-26T14:41:40.434Z</time></trkpt><trkpt lat="45.8456354" lon="11.4440295"><ele>993.0</ele><time>2026-04-26T14:41:41.435Z</time></trkpt><trkpt lat="45.845566" lon="11.4439417"><ele>993.4</ele><time>2026-04-26T14:41:42.439Z</time></trkpt><trkpt lat="45.8455439" lon="11.4437741"><ele>993.8</ele><time>2026-04-26T14:41:43.435Z</time></trkpt><trkpt lat="45.8455234" lon="11.4436266"><ele>994.2</ele><time>2026-04-26T14:41:44.435Z</time></trkpt><trkpt lat="45.8455051" lon="11.4434775"><ele>994.6</ele><time>2026-04-26T14:41:45.436Z</time></trkpt><trkpt lat="45.8454786" lon="11.4433379"><ele>995.0</ele><time>2026-04-26T14:41:46.437Z</time></trkpt><trkpt lat="45.8454363" lon="11.4432115"><ele>995.0</ele><time>2026-04-26T14:41:47.436Z</time></trkpt><trkpt lat="45.8453693" lon="11.4431012"><ele>995.0</ele><time>2026-04-26T14:41:48.45Z</time></trkpt><trkpt lat="45.8452837" lon="11.4430186"><ele>995.0</ele><time>2026-04-26T14:41:49.435Z</time></trkpt><trkpt lat="45.8451876" lon="11.4429721"><ele>995.0</ele><time>2026-04-26T14:41:50.436Z</time></trkpt><trkpt lat="45.8450886" lon="11.4429712"><ele>995.0</ele><time>2026-04-26T14:41:51.437Z</time></trkpt><trkpt lat="45.8449979" lon="11.4430015"><ele>995.8</ele><time>2026-04-26T14:41:52.435Z</time></trkpt><trkpt lat="45.8449054" lon="11.443064"><ele>996.6</ele><time>2026-04-26T14:41:53.435Z</time></trkpt><trkpt lat="45.8448258" lon="11.4431433"><ele>997.4000000000001</ele><time>2026-04-26T14:41:54.436Z</time></trkpt><trkpt lat="45.8447473" lon="11.4432192"><ele>998.2</ele><time>2026-04-26T14:41:55.436Z</time></trkpt><trkpt lat="45.8446692" lon="11.4432895"><ele>999.0</ele><time>2026-04-26T14:41:56.446Z</time></trkpt><trkpt lat="45.8445889" lon="11.4433634"><ele>999.0</ele><time>2026-04-26T14:41:57.435Z</time></trkpt><trkpt lat="45.8445044" lon="11.4434366"><ele>999.0000000000001</ele><time>2026-04-26T14:41:58.438Z</time></trkpt><trkpt lat="45.8444117" lon="11.4434816"><ele>999.0000000000001</ele><time>2026-04-26T14:41:59.437Z</time></trkpt><trkpt lat="45.84432" lon="11.44351"><ele>999.0</ele><time>2026-04-26T14:42:00.436Z</time></trkpt><trkpt lat="45.8442274" lon="11.4434996"><ele>999.0</ele><time>2026-04-26T14:42:01.436Z</time></trkpt><trkpt lat="45.8441352" lon="11.4434673"><ele>999.6</ele><time>2026-04-26T14:42:02.434Z</time></trkpt><trkpt lat="45.8440546" lon="11.443393"><ele>1000.2</ele><time>2026-04-26T14:42:03.436Z</time></trkpt><trkpt lat="45.843994" lon="11.4432876"><ele>1000.8000000000001</ele><time>2026-04-26T14:42:04.436Z</time></trkpt><trkpt lat="45.8439562" lon="11.4431631"><ele>1001.4000000000001</ele><time>2026-04-26T14:42:05.434Z</time></trkpt><trkpt lat="45.8439336" lon="11.4430046"><ele>1002.0</ele><time>2026-04-26T14:42:06.437Z</time></trkpt><trkpt lat="45.8439129" lon="11.4428214"><ele>1004.0</ele><time>2026-04-26T14:42:07.437Z</time></trkpt><trkpt lat="45.8438953" lon="11.4426205"><ele>1006.0</ele><time>2026-04-26T14:42:08.436Z</time></trkpt><trkpt lat="45.8438828" lon="11.442415"><ele>1008.0</ele><time>2026-04-26T14:42:09.435Z</time></trkpt><trkpt lat="45.8438706" lon="11.442223"><ele>1010.0</ele><time>2026-04-26T14:42:10.436Z</time></trkpt><trkpt lat="45.8438568" lon="11.4420539"><ele>1010.75</ele><time>2026-04-26T14:42:11.435Z</time></trkpt><trkpt lat="45.8438501" lon="11.4418887"><ele>1011.5</ele><time>2026-04-26T14:42:12.437Z</time></trkpt><trkpt lat="45.8438394" lon="11.4417226"><ele>1012.25</ele><time>2026-04-26T14:42:13.436Z</time></trkpt><trkpt lat="45.8438298" lon="11.4415581"><ele>1013.0</ele><time>2026-04-26T14:42:14.434Z</time></trkpt><trkpt lat="45.8438184" lon="11.441407"><ele>1013.6666666666667</ele><time>2026-04-26T14:42:15.438Z</time></trkpt><trkpt lat="45.8438133" lon="11.4412766"><ele>1014.3333333333334</ele><time>2026-04-26T14:42:16.435Z</time></trkpt><trkpt lat="45.8438081" lon="11.4411544"><ele>1015.0</ele><time>2026-04-26T14:42:17.436Z</time></trkpt><trkpt lat="45.8437882" lon="11.4410448"><ele>1015.6666666666667</ele><time>2026-04-26T14:42:18.438Z</time></trkpt><trkpt lat="45.8437482" lon="11.4409562"><ele>1016.3333333333334</ele><time>2026-04-26T14:42:19.443Z</time></trkpt><trkpt lat="45.8436873" lon="11.4408964"><ele>1017.0</ele><time>2026-04-26T14:42:20.435Z</time></trkpt><trkpt lat="45.8436097" lon="11.4408752"><ele>1017.0</ele><time>2026-04-26T14:42:21.435Z</time></trkpt><trkpt lat="45.8435133" lon="11.4408961"><ele>1017.0</ele><time>2026-04-26T14:42:22.44Z</time></trkpt><trkpt lat="45.8433966" lon="11.44095"><ele>1017.0</ele><time>2026-04-26T14:42:23.434Z</time></trkpt><trkpt lat="45.8432807" lon="11.4410102"><ele>1017.0</ele><time>2026-04-26T14:42:24.436Z</time></trkpt><trkpt lat="45.8431637" lon="11.4410712"><ele>1018.6</ele><time>2026-04-26T14:42:25.436Z</time></trkpt><trkpt lat="45.8430538" lon="11.4411286"><ele>1020.2</ele><time>2026-04-26T14:42:26.437Z</time></trkpt><trkpt lat="45.8429523" lon="11.4411809"><ele>1021.8</ele><time>2026-04-26T14:42:27.435Z</time></trkpt><trkpt lat="45.8428558" lon="11.441219"><ele>1023.4</ele><time>2026-04-26T14:42:28.437Z</time></trkpt><trkpt lat="45.8427624" lon="11.4412381"><ele>1025.0</ele><time>2026-04-26T14:42:29.436Z</time></trkpt><trkpt lat="45.8426786" lon="11.4412174"><ele>1026.2</ele><time>2026-04-26T14:42:30.435Z</time></trkpt><trkpt lat="45.8426109" lon="11.4411684"><ele>1027.4</ele><time>2026-04-26T14:42:31.435Z</time></trkpt><trkpt lat="45.8425569" lon="11.441093"><ele>1028.6</ele><time>2026-04-26T14:42:32.436Z</time></trkpt><trkpt lat="45.8425731" lon="11.4409409"><ele>1029.8</ele><time>2026-04-26T14:42:33.44Z</time></trkpt><trkpt lat="45.8425863" lon="11.4407863"><ele>1031.0</ele><time>2026-04-26T14:42:34.435Z</time></trkpt><trkpt lat="45.8426127" lon="11.4406121"><ele>1031.6666666666667</ele><time>2026-04-26T14:42:35.435Z</time></trkpt><trkpt lat="45.8426574" lon="11.4404148"><ele>1032.3333333333333</ele><time>2026-04-26T14:42:36.435Z</time></trkpt><trkpt lat="45.8427044" lon="11.4402052"><ele>1033.0</ele><time>2026-04-26T14:42:37.447Z</time></trkpt><trkpt lat="45.8427588" lon="11.4399855"><ele>1033.0</ele><time>2026-04-26T14:42:38.436Z</time></trkpt><trkpt lat="45.8428101" lon="11.4397607"><ele>1033.0</ele><time>2026-04-26T14:42:39.435Z</time></trkpt><trkpt lat="45.8428581" lon="11.4395291"><ele>1033.0</ele><time>2026-04-26T14:42:40.436Z</time></trkpt><trkpt lat="45.8429078" lon="11.4393012"><ele>1034.3333333333333</ele><time>2026-04-26T14:42:41.436Z</time></trkpt><trkpt lat="45.8429549" lon="11.4390757"><ele>1035.6666666666667</ele><time>2026-04-26T14:42:42.435Z</time></trkpt><trkpt lat="45.8430014" lon="11.4388447"><ele>1037.0</ele><time>2026-04-26T14:42:43.435Z</time></trkpt><trkpt lat="45.8430415" lon="11.4386155"><ele>1038.3333333333335</ele><time>2026-04-26T14:42:44.437Z</time></trkpt><trkpt lat="45.8430914" lon="11.4383894"><ele>1039.6666666666667</ele><time>2026-04-26T14:42:45.434Z</time></trkpt><trkpt lat="45.8431321" lon="11.438169"><ele>1041.0</ele><time>2026-04-26T14:42:46.439Z</time></trkpt><trkpt lat="45.8431699" lon="11.4379498"><ele>1043.3333333333333</ele><time>2026-04-26T14:42:47.435Z</time></trkpt><trkpt lat="45.8432168" lon="11.4377348"><ele>1045.6666666666665</ele><time>2026-04-26T14:42:48.449Z</time></trkpt><trkpt lat="45.8432612" lon="11.4375225"><ele>1048.0</ele><time>2026-04-26T14:42:49.436Z</time></trkpt><trkpt lat="45.8433061" lon="11.4373137"><ele>1049.0</ele><time>2026-04-26T14:42:50.435Z</time></trkpt><trkpt lat="45.8433504" lon="11.4371247"><ele>1050.0</ele><time>2026-04-26T14:42:51.436Z</time></trkpt><trkpt lat="45.8433839" lon="11.4369541"><ele>1051.0</ele><time>2026-04-26T14:42:52.435Z</time></trkpt><trkpt lat="45.8434165" lon="11.4368033"><ele>1052.0</ele><time>2026-04-26T14:42:53.435Z</time></trkpt><trkpt lat="45.843437" lon="11.4366641"><ele>1052.0</ele><time>2026-04-26T14:42:54.436Z</time></trkpt><trkpt lat="45.8434509" lon="11.436541"><ele>1052.0</ele><time>2026-04-26T14:42:55.436Z</time></trkpt><trkpt lat="45.8434569" lon="11.4364266"><ele>1052.0</ele><time>2026-04-26T14:42:56.437Z</time></trkpt><trkpt lat="45.8434538" lon="11.4363165"><ele>1052.0</ele><time>2026-04-26T14:42:57.437Z</time></trkpt><trkpt lat="45.84344" lon="11.4362223"><ele>1052.0</ele><time>2026-04-26T14:42:58.437Z</time></trkpt><trkpt lat="45.8434043" lon="11.4361156"><ele>1052.0</ele><time>2026-04-26T14:42:59.435Z</time></trkpt><trkpt lat="45.8433293" lon="11.4360008"><ele>1051.5</ele><time>2026-04-26T14:43:00.434Z</time></trkpt><trkpt lat="45.8432341" lon="11.4358914"><ele>1051.0</ele><time>2026-04-26T14:43:01.435Z</time></trkpt><trkpt lat="45.843121" lon="11.4357813"><ele>1050.5</ele><time>2026-04-26T14:43:02.435Z</time></trkpt><trkpt lat="45.8429897" lon="11.4356568"><ele>1050.0</ele><time>2026-04-26T14:43:03.44Z</time></trkpt><trkpt lat="45.842854" lon="11.4355197"><ele>1050.3333333333333</ele><time>2026-04-26T14:43:04.436Z</time></trkpt><trkpt lat="45.8427193" lon="11.435372"><ele>1050.6666666666665</ele><time>2026-04-26T14:43:05.434Z</time></trkpt><trkpt lat="45.8425802" lon="11.4352217"><ele>1051.0</ele><time>2026-04-26T14:43:06.435Z</time></trkpt><trkpt lat="45.8424444" lon="11.4350769"><ele>1051.0</ele><time>2026-04-26T14:43:07.434Z</time></trkpt><trkpt lat="45.8423099" lon="11.4349343"><ele>1051.0</ele><time>2026-04-26T14:43:08.436Z</time></trkpt><trkpt lat="45.8421768" lon="11.4348015"><ele>1051.0</ele><time>2026-04-26T14:43:09.436Z</time></trkpt><trkpt lat="45.8420513" lon="11.4346701"><ele>1051.0</ele><time>2026-04-26T14:43:10.436Z</time></trkpt><trkpt lat="45.8419268" lon="11.4345404"><ele>1051.0</ele><time>2026-04-26T14:43:11.436Z</time></trkpt><trkpt lat="45.8418092" lon="11.4344159"><ele>1051.0</ele><time>2026-04-26T14:43:12.435Z</time></trkpt><trkpt lat="45.8416926" lon="11.4342969"><ele>1051.0</ele><time>2026-04-26T14:43:13.435Z</time></trkpt><trkpt lat="45.84158" lon="11.4341756"><ele>1051.0</ele><time>2026-04-26T14:43:14.434Z</time></trkpt><trkpt lat="45.8414635" lon="11.4340569"><ele>1051.0</ele><time>2026-04-26T14:43:15.435Z</time></trkpt><trkpt lat="45.8413495" lon="11.4339396"><ele>1051.0</ele><time>2026-04-26T14:43:16.437Z</time></trkpt><trkpt lat="45.8412325" lon="11.4338156"><ele>1051.0</ele><time>2026-04-26T14:43:17.434Z</time></trkpt><trkpt lat="45.8411123" lon="11.4336981"><ele>1051.25</ele><time>2026-04-26T14:43:18.442Z</time></trkpt><trkpt lat="45.8409858" lon="11.4335915"><ele>1051.5</ele><time>2026-04-26T14:43:19.441Z</time></trkpt><trkpt lat="45.8408522" lon="11.4335069"><ele>1051.75</ele><time>2026-04-26T14:43:20.437Z</time></trkpt><trkpt lat="45.8407179" lon="11.4334497"><ele>1052.0</ele><time>2026-04-26T14:43:21.434Z</time></trkpt><trkpt lat="45.8405854" lon="11.4333943"><ele>1050.6666666666667</ele><time>2026-04-26T14:43:22.436Z</time></trkpt><trkpt lat="45.8404483" lon="11.4333211"><ele>1049.3333333333333</ele><time>2026-04-26T14:43:23.436Z</time></trkpt><trkpt lat="45.8403141" lon="11.4332204"><ele>1048.0</ele><time>2026-04-26T14:43:24.434Z</time></trkpt><trkpt lat="45.8401803" lon="11.4331082"><ele>1048.3333333333333</ele><time>2026-04-26T14:43:25.436Z</time></trkpt><trkpt lat="45.8400453" lon="11.432987"><ele>1048.6666666666667</ele><time>2026-04-26T14:43:26.438Z</time></trkpt><trkpt lat="45.8399202" lon="11.4328758"><ele>1049.0</ele><time>2026-04-26T14:43:27.435Z</time></trkpt><trkpt lat="45.839791" lon="11.4327624"><ele>1049.25</ele><time>2026-04-26T14:43:28.434Z</time></trkpt><trkpt lat="45.8396668" lon="11.4326577"><ele>1049.5</ele><time>2026-04-26T14:43:29.434Z</time></trkpt><trkpt lat="45.8395414" lon="11.4325629"><ele>1049.75</ele><time>2026-04-26T14:43:30.436Z</time></trkpt><trkpt lat="45.8394087" lon="11.4324732"><ele>1050.0</ele><time>2026-04-26T14:43:31.434Z</time></trkpt><trkpt lat="45.8392654" lon="11.4323941"><ele>1050.3333333333333</ele><time>2026-04-26T14:43:32.438Z</time></trkpt><trkpt lat="45.8391144" lon="11.4323315"><ele>1050.6666666666665</ele><time>2026-04-26T14:43:33.436Z</time></trkpt><trkpt lat="45.8389568" lon="11.4322897"><ele>1051.0</ele><time>2026-04-26T14:43:34.436Z</time></trkpt><trkpt lat="45.8387978" lon="11.432254"><ele>1051.0</ele><time>2026-04-26T14:43:35.434Z</time></trkpt><trkpt lat="45.838637" lon="11.4322197"><ele>1051.0</ele><time>2026-04-26T14:43:36.435Z</time></trkpt><trkpt lat="45.8384798" lon="11.4321884"><ele>1051.0</ele><time>2026-04-26T14:43:37.435Z</time></trkpt><trkpt lat="45.8383256" lon="11.4321564"><ele>1050.5</ele><time>2026-04-26T14:43:38.435Z</time></trkpt><trkpt lat="45.8381773" lon="11.4321285"><ele>1050.0</ele><time>2026-04-26T14:43:39.435Z</time></trkpt><trkpt lat="45.8380314" lon="11.4321088"><ele>1049.5</ele><time>2026-04-26T14:43:40.437Z</time></trkpt><trkpt lat="45.8378858" lon="11.4321019"><ele>1049.0</ele><time>2026-04-26T14:43:41.435Z</time></trkpt><trkpt lat="45.8377346" lon="11.4321131"><ele>1049.6666666666667</ele><time>2026-04-26T14:43:42.435Z</time></trkpt><trkpt lat="45.8375799" lon="11.4321548"><ele>1050.3333333333333</ele><time>2026-04-26T14:43:43.437Z</time></trkpt><trkpt lat="45.8374158" lon="11.4322115"><ele>1051.0</ele><time>2026-04-26T14:43:44.435Z</time></trkpt><trkpt lat="45.837247" lon="11.4322887"><ele>1051.0</ele><time>2026-04-26T14:43:45.435Z</time></trkpt><trkpt lat="45.8370753" lon="11.4323737"><ele>1051.0</ele><time>2026-04-26T14:43:46.435Z</time></trkpt><trkpt lat="45.8369005" lon="11.432458"><ele>1051.0</ele><time>2026-04-26T14:43:47.442Z</time></trkpt><trkpt lat="45.8367246" lon="11.43254"><ele>1049.0</ele><time>2026-04-26T14:43:48.435Z</time></trkpt><trkpt lat="45.8365522" lon="11.4326231"><ele>1047.0</ele><time>2026-04-26T14:43:49.434Z</time></trkpt><trkpt lat="45.8363782" lon="11.4327009"><ele>1045.0</ele><time>2026-04-26T14:43:50.435Z</time></trkpt><trkpt lat="45.836204" lon="11.4327747"><ele>1045.0</ele><time>2026-04-26T14:43:51.44Z</time></trkpt><trkpt lat="45.8360276" lon="11.4328392"><ele>1045.0</ele><time>2026-04-26T14:43:52.435Z</time></trkpt><trkpt lat="45.8358492" lon="11.432885"><ele>1045.0</ele><time>2026-04-26T14:43:53.44Z</time></trkpt><trkpt lat="45.8356686" lon="11.4329114"><ele>1045.0</ele><time>2026-04-26T14:43:54.435Z</time></trkpt><trkpt lat="45.8354872" lon="11.4329233"><ele>1045.0</ele><time>2026-04-26T14:43:55.436Z</time></trkpt><trkpt lat="45.8353051" lon="11.432929"><ele>1045.0</ele><time>2026-04-26T14:43:56.435Z</time></trkpt><trkpt lat="45.8351205" lon="11.4329321"><ele>1044.3333333333333</ele><time>2026-04-26T14:43:57.434Z</time></trkpt><trkpt lat="45.8349277" lon="11.4329393"><ele>1043.6666666666667</ele><time>2026-04-26T14:43:58.435Z</time></trkpt><trkpt lat="45.834732" lon="11.4329703"><ele>1043.0</ele><time>2026-04-26T14:43:59.435Z</time></trkpt><trkpt lat="45.8345356" lon="11.4330284"><ele>1043.0</ele><time>2026-04-26T14:44:00.442Z</time></trkpt><trkpt lat="45.8343404" lon="11.4331183"><ele>1043.0</ele><time>2026-04-26T14:44:01.436Z</time></trkpt><trkpt lat="45.8341522" lon="11.4332416"><ele>1043.0</ele><time>2026-04-26T14:44:02.435Z</time></trkpt><trkpt lat="45.8339723" lon="11.4334009"><ele>1041.3333333333335</ele><time>2026-04-26T14:44:03.435Z</time></trkpt><trkpt lat="45.8338" lon="11.4335856"><ele>1039.6666666666667</ele><time>2026-04-26T14:44:04.436Z</time></trkpt><trkpt lat="45.8336303" lon="11.4337839"><ele>1038.0</ele><time>2026-04-26T14:44:05.443Z</time></trkpt><trkpt lat="45.8334613" lon="11.4339794"><ele>1036.6666666666667</ele><time>2026-04-26T14:44:06.435Z</time></trkpt><trkpt lat="45.8332893" lon="11.4341738"><ele>1035.3333333333335</ele><time>2026-04-26T14:44:07.434Z</time></trkpt><trkpt lat="45.8331183" lon="11.4343691"><ele>1034.0</ele><time>2026-04-26T14:44:08.434Z</time></trkpt><trkpt lat="45.8329464" lon="11.434553"><ele>1035.0</ele><time>2026-04-26T14:44:09.436Z</time></trkpt><trkpt lat="45.8327651" lon="11.4347223"><ele>1036.0</ele><time>2026-04-26T14:44:10.435Z</time></trkpt><trkpt lat="45.8325755" lon="11.4348675"><ele>1037.0</ele><time>2026-04-26T14:44:11.434Z</time></trkpt><trkpt lat="45.8323842" lon="11.4349957"><ele>1037.0</ele><time>2026-04-26T14:44:12.434Z</time></trkpt><trkpt lat="45.8321847" lon="11.4351159"><ele>1037.0</ele><time>2026-04-26T14:44:13.439Z</time></trkpt><trkpt lat="45.8319778" lon="11.4352176"><ele>1037.0</ele><time>2026-04-26T14:44:14.441Z</time></trkpt><trkpt lat="45.8317588" lon="11.4352975"><ele>1036.5</ele><time>2026-04-26T14:44:15.436Z</time></trkpt><trkpt lat="45.831542" lon="11.4353813"><ele>1036.0</ele><time>2026-04-26T14:44:16.436Z</time></trkpt><trkpt lat="45.8313153" lon="11.4354645"><ele>1037.5</ele><time>2026-04-26T14:44:17.436Z</time></trkpt><trkpt lat="45.8310907" lon="11.4355336"><ele>1039.0</ele><time>2026-04-26T14:44:18.435Z</time></trkpt><trkpt lat="45.8308665" lon="11.4356117"><ele>1035.0</ele><time>2026-04-26T14:44:19.439Z</time></trkpt><trkpt lat="45.8306425" lon="11.4356613"><ele>1031.0</ele><time>2026-04-26T14:44:20.434Z</time></trkpt><trkpt lat="45.8304165" lon="11.4356971"><ele>1031.0</ele><time>2026-04-26T14:44:21.434Z</time></trkpt><trkpt lat="45.8301916" lon="11.4357392"><ele>1031.0</ele><time>2026-04-26T14:44:22.436Z</time></trkpt><trkpt lat="45.8299679" lon="11.4357821"><ele>1029.6666666666667</ele><time>2026-04-26T14:44:23.435Z</time></trkpt><trkpt lat="45.8297458" lon="11.4358371"><ele>1028.3333333333333</ele><time>2026-04-26T14:44:24.437Z</time></trkpt><trkpt lat="45.8295257" lon="11.4358976"><ele>1027.0</ele><time>2026-04-26T14:44:25.434Z</time></trkpt><trkpt lat="45.8293045" lon="11.4359656"><ele>1026.5</ele><time>2026-04-26T14:44:26.434Z</time></trkpt><trkpt lat="45.8290808" lon="11.4360391"><ele>1026.0</ele><time>2026-04-26T14:44:27.436Z</time></trkpt><trkpt lat="45.8288567" lon="11.436115"><ele>1026.0</ele><time>2026-04-26T14:44:28.435Z</time></trkpt><trkpt lat="45.8286526" lon="11.4361789"><ele>1026.0</ele><time>2026-04-26T14:44:29.436Z</time></trkpt><trkpt lat="45.8284676" lon="11.4362326"><ele>1026.0</ele><time>2026-04-26T14:44:30.435Z</time></trkpt><trkpt lat="45.8282778" lon="11.4362942"><ele>1023.0</ele><time>2026-04-26T14:44:31.435Z</time></trkpt><trkpt lat="45.8280842" lon="11.4363601"><ele>1020.0</ele><time>2026-04-26T14:44:32.436Z</time></trkpt><trkpt lat="45.8278858" lon="11.4364241"><ele>1017.0</ele><time>2026-04-26T14:44:33.438Z</time></trkpt><trkpt lat="45.8276831" lon="11.4364793"><ele>1017.6666666666667</ele><time>2026-04-26T14:44:34.435Z</time></trkpt><trkpt lat="45.8274791" lon="11.4365301"><ele>1018.3333333333334</ele><time>2026-04-26T14:44:35.441Z</time></trkpt><trkpt lat="45.8272593" lon="11.4365541"><ele>1019.0</ele><time>2026-04-26T14:44:36.436Z</time></trkpt><trkpt lat="45.8270416" lon="11.4365891"><ele>1019.0</ele><time>2026-04-26T14:44:37.434Z</time></trkpt><trkpt lat="45.8268264" lon="11.4366167"><ele>1019.0</ele><time>2026-04-26T14:44:38.436Z</time></trkpt><trkpt lat="45.8266073" lon="11.4366467"><ele>1019.0</ele><time>2026-04-26T14:44:39.436Z</time></trkpt><trkpt lat="45.8263883" lon="11.4366745"><ele>1018.6666666666667</ele><time>2026-04-26T14:44:40.434Z</time></trkpt><trkpt lat="45.8261663" lon="11.4367014"><ele>1018.3333333333333</ele><time>2026-04-26T14:44:41.437Z</time></trkpt><trkpt lat="45.8259429" lon="11.436733"><ele>1018.0</ele><time>2026-04-26T14:44:42.434Z</time></trkpt><trkpt lat="45.8257172" lon="11.4367684"><ele>1018.0</ele><time>2026-04-26T14:44:43.435Z</time></trkpt><trkpt lat="45.8255041" lon="11.4368101"><ele>1018.0</ele><time>2026-04-26T14:44:44.438Z</time></trkpt><trkpt lat="45.825292" lon="11.4369038"><ele>1018.0</ele><time>2026-04-26T14:44:45.434Z</time></trkpt><trkpt lat="45.8250865" lon="11.4370364"><ele>1015.5</ele><time>2026-04-26T14:44:46.434Z</time></trkpt><trkpt lat="45.8248845" lon="11.4371456"><ele>1013.0</ele><time>2026-04-26T14:44:47.437Z</time></trkpt><trkpt lat="45.8246894" lon="11.4373477"><ele>1013.0</ele><time>2026-04-26T14:44:48.436Z</time></trkpt><trkpt lat="45.8244901" lon="11.4375169"><ele>1013.0</ele><time>2026-04-26T14:44:49.436Z</time></trkpt><trkpt lat="45.8242845" lon="11.437673"><ele>1016.0</ele><time>2026-04-26T14:44:50.438Z</time></trkpt><trkpt lat="45.8240717" lon="11.4378087"><ele>1019.0</ele><time>2026-04-26T14:44:51.443Z</time></trkpt><trkpt lat="45.8238476" lon="11.4379369"><ele>1014.5</ele><time>2026-04-26T14:44:52.435Z</time></trkpt><trkpt lat="45.8236253" lon="11.4380561"><ele>1010.0</ele><time>2026-04-26T14:44:53.437Z</time></trkpt><trkpt lat="45.8234055" lon="11.4381642"><ele>1007.5</ele><time>2026-04-26T14:44:54.436Z</time></trkpt><trkpt lat="45.8231844" lon="11.4382823"><ele>1005.0</ele><time>2026-04-26T14:44:55.442Z</time></trkpt><trkpt lat="45.8229631" lon="11.4383965"><ele>1005.0</ele><time>2026-04-26T14:44:56.437Z</time></trkpt><trkpt lat="45.8227456" lon="11.4385059"><ele>1005.0</ele><time>2026-04-26T14:44:57.442Z</time></trkpt><trkpt lat="45.8225407" lon="11.4385867"><ele>1005.0</ele><time>2026-04-26T14:44:58.456Z</time></trkpt><trkpt lat="45.8223354" lon="11.4386321"><ele>1004.6666666666667</ele><time>2026-04-26T14:44:59.437Z</time></trkpt><trkpt lat="45.8221376" lon="11.4386363"><ele>1004.3333333333334</ele><time>2026-04-26T14:45:00.438Z</time></trkpt><trkpt lat="45.8219313" lon="11.4385982"><ele>1004.0</ele><time>2026-04-26T14:45:01.436Z</time></trkpt><trkpt lat="45.8217348" lon="11.4385298"><ele>1002.0</ele><time>2026-04-26T14:45:02.437Z</time></trkpt><trkpt lat="45.8215416" lon="11.4384365"><ele>1000.0</ele><time>2026-04-26T14:45:03.436Z</time></trkpt><trkpt lat="45.8213485" lon="11.4383223"><ele>998.0</ele><time>2026-04-26T14:45:04.437Z</time></trkpt><trkpt lat="45.8211604" lon="11.4381852"><ele>998.6666666666667</ele><time>2026-04-26T14:45:05.436Z</time></trkpt><trkpt lat="45.8209761" lon="11.4380374"><ele>999.3333333333333</ele><time>2026-04-26T14:45:06.445Z</time></trkpt><trkpt lat="45.8207878" lon="11.4378709"><ele>1000.0</ele><time>2026-04-26T14:45:07.437Z</time></trkpt><trkpt lat="45.8206031" lon="11.4376987"><ele>1001.0</ele><time>2026-04-26T14:45:08.435Z</time></trkpt><trkpt lat="45.8204164" lon="11.4375165"><ele>1002.0</ele><time>2026-04-26T14:45:09.435Z</time></trkpt><trkpt lat="45.8202282" lon="11.437332"><ele>1000.5</ele><time>2026-04-26T14:45:10.436Z</time></trkpt><trkpt lat="45.8200384" lon="11.4371367"><ele>999.0</ele><time>2026-04-26T14:45:11.438Z</time></trkpt><trkpt lat="45.8198451" lon="11.4369436"><ele>999.0</ele><time>2026-04-26T14:45:12.436Z</time></trkpt><trkpt lat="45.8196524" lon="11.4367499"><ele>999.0</ele><time>2026-04-26T14:45:13.435Z</time></trkpt><trkpt lat="45.8194678" lon="11.436562"><ele>996.6666666666667</ele><time>2026-04-26T14:45:14.436Z</time></trkpt><trkpt lat="45.8192861" lon="11.436387"><ele>994.3333333333334</ele><time>2026-04-26T14:45:15.436Z</time></trkpt><trkpt lat="45.8191031" lon="11.436229"><ele>992.0</ele><time>2026-04-26T14:45:16.434Z</time></trkpt><trkpt lat="45.8189139" lon="11.4360976"><ele>992.0</ele><time>2026-04-26T14:45:17.437Z</time></trkpt><trkpt lat="45.8187233" lon="11.4359812"><ele>992.0</ele><time>2026-04-26T14:45:18.435Z</time></trkpt><trkpt lat="45.8185416" lon="11.4358676"><ele>992.0</ele><time>2026-04-26T14:45:19.44Z</time></trkpt><trkpt lat="45.818367" lon="11.4357597"><ele>988.3333333333334</ele><time>2026-04-26T14:45:20.437Z</time></trkpt><trkpt lat="45.8182016" lon="11.4356585"><ele>984.6666666666667</ele><time>2026-04-26T14:45:21.437Z</time></trkpt><trkpt lat="45.8180386" lon="11.4355565"><ele>981.0</ele><time>2026-04-26T14:45:22.435Z</time></trkpt><trkpt lat="45.8178791" lon="11.4354552"><ele>981.6666666666667</ele><time>2026-04-26T14:45:23.436Z</time></trkpt><trkpt lat="45.8177199" lon="11.4353417"><ele>982.3333333333334</ele><time>2026-04-26T14:45:24.435Z</time></trkpt><trkpt lat="45.8175601" lon="11.4352125"><ele>983.0</ele><time>2026-04-26T14:45:25.436Z</time></trkpt><trkpt lat="45.8174097" lon="11.435058"><ele>983.0</ele><time>2026-04-26T14:45:26.436Z</time></trkpt><trkpt lat="45.8172628" lon="11.4348773"><ele>983.0</ele><time>2026-04-26T14:45:27.438Z</time></trkpt><trkpt lat="45.8171254" lon="11.4346693"><ele>983.0</ele><time>2026-04-26T14:45:28.438Z</time></trkpt><trkpt lat="45.8169926" lon="11.4344487"><ele>981.3333333333334</ele><time>2026-04-26T14:45:29.435Z</time></trkpt><trkpt lat="45.8168571" lon="11.434231"><ele>979.6666666666667</ele><time>2026-04-26T14:45:30.436Z</time></trkpt><trkpt lat="45.8167525" lon="11.4340191"><ele>978.0</ele><time>2026-04-26T14:45:31.435Z</time></trkpt><trkpt lat="45.8166461" lon="11.4338146"><ele>980.6666666666667</ele><time>2026-04-26T14:45:32.435Z</time></trkpt><trkpt lat="45.8165243" lon="11.4336076"><ele>983.3333333333334</ele><time>2026-04-26T14:45:33.438Z</time></trkpt><trkpt lat="45.8163978" lon="11.4334024"><ele>986.0</ele><time>2026-04-26T14:45:34.435Z</time></trkpt><trkpt lat="45.816292" lon="11.433194"><ele>986.0</ele><time>2026-04-26T14:45:35.437Z</time></trkpt><trkpt lat="45.8161813" lon="11.4329756"><ele>986.0</ele><time>2026-04-26T14:45:36.436Z</time></trkpt><trkpt lat="45.816075" lon="11.432747"><ele>986.0</ele><time>2026-04-26T14:45:37.435Z</time></trkpt><trkpt lat="45.8159807" lon="11.4325014"><ele>982.0</ele><time>2026-04-26T14:45:38.437Z</time></trkpt><trkpt lat="45.8158856" lon="11.4322275"><ele>978.0</ele><time>2026-04-26T14:45:39.435Z</time></trkpt><trkpt lat="45.8157902" lon="11.4319329"><ele>974.0</ele><time>2026-04-26T14:45:40.435Z</time></trkpt><trkpt lat="45.8157159" lon="11.4316122"><ele>973.5</ele><time>2026-04-26T14:45:41.437Z</time></trkpt><trkpt lat="45.8156325" lon="11.431292"><ele>973.0</ele><time>2026-04-26T14:45:42.435Z</time></trkpt><trkpt lat="45.8155512" lon="11.4309825"><ele>973.0</ele><time>2026-04-26T14:45:43.437Z</time></trkpt><trkpt lat="45.8154573" lon="11.4306805"><ele>973.0</ele><time>2026-04-26T14:45:44.437Z</time></trkpt><trkpt lat="45.8153861" lon="11.4304106"><ele>973.0</ele><time>2026-04-26T14:45:45.435Z</time></trkpt><trkpt lat="45.8153084" lon="11.4301476"><ele>976.0</ele><time>2026-04-26T14:45:46.434Z</time></trkpt><trkpt lat="45.8152266" lon="11.4299031"><ele>979.0</ele><time>2026-04-26T14:45:47.436Z</time></trkpt><trkpt lat="45.8151306" lon="11.4296779"><ele>982.0</ele><time>2026-04-26T14:45:48.436Z</time></trkpt><trkpt lat="45.8150222" lon="11.4294827"><ele>972.6666666666666</ele><time>2026-04-26T14:45:49.435Z</time></trkpt><trkpt lat="45.8149004" lon="11.4293132"><ele>963.3333333333333</ele><time>2026-04-26T14:45:50.436Z</time></trkpt><trkpt lat="45.8147616" lon="11.4291653"><ele>954.0</ele><time>2026-04-26T14:45:51.435Z</time></trkpt><trkpt lat="45.8146101" lon="11.4290355"><ele>954.0</ele><time>2026-04-26T14:45:52.439Z</time></trkpt><trkpt lat="45.8144579" lon="11.4289134"><ele>954.0</ele><time>2026-04-26T14:45:53.436Z</time></trkpt><trkpt lat="45.8143074" lon="11.4287974"><ele>954.0</ele><time>2026-04-26T14:45:54.434Z</time></trkpt><trkpt lat="45.8141578" lon="11.4286836"><ele>951.6666666666667</ele><time>2026-04-26T14:45:55.438Z</time></trkpt><trkpt lat="45.8140043" lon="11.4285675"><ele>949.3333333333334</ele><time>2026-04-26T14:45:56.434Z</time></trkpt><trkpt lat="45.8138498" lon="11.4284517"><ele>947.0</ele><time>2026-04-26T14:45:57.44Z</time></trkpt><trkpt lat="45.8136982" lon="11.4283304"><ele>947.0</ele><time>2026-04-26T14:45:58.441Z</time></trkpt><trkpt lat="45.8135499" lon="11.4282112"><ele>947.0</ele><time>2026-04-26T14:45:59.435Z</time></trkpt><trkpt lat="45.813398" lon="11.4280939"><ele>947.0</ele><time>2026-04-26T14:46:00.439Z</time></trkpt><trkpt lat="45.8132442" lon="11.4279746"><ele>946.0</ele><time>2026-04-26T14:46:01.434Z</time></trkpt><trkpt lat="45.8130843" lon="11.4278545"><ele>945.0</ele><time>2026-04-26T14:46:02.436Z</time></trkpt><trkpt lat="45.8129164" lon="11.427718"><ele>944.0</ele><time>2026-04-26T14:46:03.435Z</time></trkpt><trkpt lat="45.8127256" lon="11.4275742"><ele>940.0</ele><time>2026-04-26T14:46:04.437Z</time></trkpt><trkpt lat="45.8125204" lon="11.4274249"><ele>936.0</ele><time>2026-04-26T14:46:05.435Z</time></trkpt><trkpt lat="45.8123109" lon="11.4272662"><ele>935.5</ele><time>2026-04-26T14:46:06.435Z</time></trkpt><trkpt lat="45.8121064" lon="11.4271062"><ele>935.0</ele><time>2026-04-26T14:46:07.436Z</time></trkpt><trkpt lat="45.8119147" lon="11.4269488"><ele>932.3333333333334</ele><time>2026-04-26T14:46:08.435Z</time></trkpt><trkpt lat="45.8117291" lon="11.4268093"><ele>929.6666666666667</ele><time>2026-04-26T14:46:09.435Z</time></trkpt><trkpt lat="45.8115454" lon="11.4266717"><ele>927.0</ele><time>2026-04-26T14:46:10.435Z</time></trkpt><trkpt lat="45.8113557" lon="11.4265304"><ele>927.0</ele><time>2026-04-26T14:46:11.434Z</time></trkpt><trkpt lat="45.8111583" lon="11.4264073"><ele>927.0</ele><time>2026-04-26T14:46:12.434Z</time></trkpt><trkpt lat="45.8109542" lon="11.426311"><ele>927.0</ele><time>2026-04-26T14:46:13.435Z</time></trkpt><trkpt lat="45.8107376" lon="11.4262506"><ele>922.0</ele><time>2026-04-26T14:46:14.436Z</time></trkpt><trkpt lat="45.8105289" lon="11.4261977"><ele>917.0</ele><time>2026-04-26T14:46:15.435Z</time></trkpt><trkpt lat="45.8103279" lon="11.4261337"><ele>912.0</ele><time>2026-04-26T14:46:16.436Z</time></trkpt><trkpt lat="45.8101333" lon="11.4260476"><ele>910.6666666666667</ele><time>2026-04-26T14:46:17.442Z</time></trkpt><trkpt lat="45.8099234" lon="11.4259346"><ele>909.3333333333334</ele><time>2026-04-26T14:46:18.434Z</time></trkpt><trkpt lat="45.8097444" lon="11.4258179"><ele>908.0</ele><time>2026-04-26T14:46:19.436Z</time></trkpt><trkpt lat="45.8096009" lon="11.4256481"><ele>907.0</ele><time>2026-04-26T14:46:20.438Z</time></trkpt><trkpt lat="45.8094726" lon="11.4254174"><ele>906.0</ele><time>2026-04-26T14:46:21.435Z</time></trkpt><trkpt lat="45.8093341" lon="11.425241"><ele>905.0</ele><time>2026-04-26T14:46:22.435Z</time></trkpt><trkpt lat="45.8091902" lon="11.4250964"><ele>905.0</ele><time>2026-04-26T14:46:23.437Z</time></trkpt><trkpt lat="45.8090281" lon="11.4249962"><ele>905.0</ele><time>2026-04-26T14:46:24.436Z</time></trkpt><trkpt lat="45.8088513" lon="11.4249363"><ele>905.0</ele><time>2026-04-26T14:46:25.434Z</time></trkpt><trkpt lat="45.8086734" lon="11.4249212"><ele>905.0</ele><time>2026-04-26T14:46:26.438Z</time></trkpt><trkpt lat="45.8085002" lon="11.424906"><ele>905.0</ele><time>2026-04-26T14:46:27.436Z</time></trkpt><trkpt lat="45.8083285" lon="11.4248501"><ele>905.0</ele><time>2026-04-26T14:46:28.436Z</time></trkpt><trkpt lat="45.8081854" lon="11.4247881"><ele>906.3333333333334</ele><time>2026-04-26T14:46:29.438Z</time></trkpt><trkpt lat="45.8080608" lon="11.4246547"><ele>907.6666666666667</ele><time>2026-04-26T14:46:30.434Z</time></trkpt><trkpt lat="45.807937" lon="11.4245232"><ele>909.0</ele><time>2026-04-26T14:46:31.439Z</time></trkpt><trkpt lat="45.8078094" lon="11.4243907"><ele>904.0</ele><time>2026-04-26T14:46:32.435Z</time></trkpt><trkpt lat="45.8076787" lon="11.4242643"><ele>899.0</ele><time>2026-04-26T14:46:33.436Z</time></trkpt><trkpt lat="45.8075422" lon="11.4241517"><ele>894.0</ele><time>2026-04-26T14:46:34.436Z</time></trkpt><trkpt lat="45.8073863" lon="11.4240722"><ele>894.0</ele><time>2026-04-26T14:46:35.435Z</time></trkpt><trkpt lat="45.8072223" lon="11.4240222"><ele>894.0</ele><time>2026-04-26T14:46:36.436Z</time></trkpt><trkpt lat="45.8070583" lon="11.4239992"><ele>894.0</ele><time>2026-04-26T14:46:37.435Z</time></trkpt><trkpt lat="45.8068942" lon="11.4239658"><ele>896.3333333333333</ele><time>2026-04-26T14:46:38.435Z</time></trkpt><trkpt lat="45.8067322" lon="11.4239322"><ele>898.6666666666666</ele><time>2026-04-26T14:46:39.439Z</time></trkpt><trkpt lat="45.8065715" lon="11.4238634"><ele>901.0</ele><time>2026-04-26T14:46:40.437Z</time></trkpt><trkpt lat="45.8064149" lon="11.4237523"><ele>891.3333333333333</ele><time>2026-04-26T14:46:41.438Z</time></trkpt><trkpt lat="45.8062721" lon="11.4236127"><ele>881.6666666666667</ele><time>2026-04-26T14:46:42.436Z</time></trkpt><trkpt lat="45.8061372" lon="11.4234614"><ele>872.0</ele><time>2026-04-26T14:46:43.437Z</time></trkpt><trkpt lat="45.8060075" lon="11.4233154"><ele>867.6666666666667</ele><time>2026-04-26T14:46:44.436Z</time></trkpt><trkpt lat="45.8058651" lon="11.4231752"><ele>863.3333333333333</ele><time>2026-04-26T14:46:45.437Z</time></trkpt><trkpt lat="45.8057138" lon="11.4230561"><ele>859.0</ele><time>2026-04-26T14:46:46.437Z</time></trkpt><trkpt lat="45.8055417" lon="11.4229764"><ele>859.0</ele><time>2026-04-26T14:46:47.435Z</time></trkpt><trkpt lat="45.8053461" lon="11.4229476"><ele>859.0</ele><time>2026-04-26T14:46:48.437Z</time></trkpt><trkpt lat="45.8051297" lon="11.4229357"><ele>859.0</ele><time>2026-04-26T14:46:49.436Z</time></trkpt><trkpt lat="45.8048982" lon="11.4229262"><ele>860.5</ele><time>2026-04-26T14:46:50.435Z</time></trkpt><trkpt lat="45.8046572" lon="11.4228974"><ele>862.0</ele><time>2026-04-26T14:46:51.435Z</time></trkpt><trkpt lat="45.8044113" lon="11.4228585"><ele>860.0</ele><time>2026-04-26T14:46:52.444Z</time></trkpt><trkpt lat="45.8041636" lon="11.4228199"><ele>858.0</ele><time>2026-04-26T14:46:53.435Z</time></trkpt><trkpt lat="45.8039176" lon="11.4227785"><ele>858.0</ele><time>2026-04-26T14:46:54.437Z</time></trkpt><trkpt lat="45.8036752" lon="11.4227248"><ele>858.0</ele><time>2026-04-26T14:46:55.437Z</time></trkpt><trkpt lat="45.8034389" lon="11.422649"><ele>859.5</ele><time>2026-04-26T14:46:56.436Z</time></trkpt><trkpt lat="45.8032041" lon="11.4225747"><ele>861.0</ele><time>2026-04-26T14:46:57.438Z</time></trkpt><trkpt lat="45.8029828" lon="11.4225114"><ele>861.0</ele><time>2026-04-26T14:46:58.435Z</time></trkpt><trkpt lat="45.8027632" lon="11.422432"><ele>861.0</ele><time>2026-04-26T14:46:59.437Z</time></trkpt><trkpt lat="45.8025508" lon="11.4223592"><ele>861.0</ele><time>2026-04-26T14:47:00.436Z</time></trkpt><trkpt lat="45.8023372" lon="11.4223061"><ele>862.6666666666667</ele><time>2026-04-26T14:47:01.434Z</time></trkpt><trkpt lat="45.8021246" lon="11.4222917"><ele>864.3333333333334</ele><time>2026-04-26T14:47:02.435Z</time></trkpt><trkpt lat="45.8019242" lon="11.4223312"><ele>866.0</ele><time>2026-04-26T14:47:03.436Z</time></trkpt><trkpt lat="45.8017346" lon="11.4223957"><ele>862.3333333333334</ele><time>2026-04-26T14:47:04.434Z</time></trkpt><trkpt lat="45.801567" lon="11.4224971"><ele>858.6666666666667</ele><time>2026-04-26T14:47:05.434Z</time></trkpt><trkpt lat="45.8014382" lon="11.4226318"><ele>855.0</ele><time>2026-04-26T14:47:06.435Z</time></trkpt><trkpt lat="45.8013489" lon="11.4228049"><ele>858.25</ele><time>2026-04-26T14:47:07.437Z</time></trkpt><trkpt lat="45.8013066" lon="11.4230005"><ele>861.5</ele><time>2026-04-26T14:47:08.435Z</time></trkpt><trkpt lat="45.8013037" lon="11.4232088"><ele>864.75</ele><time>2026-04-26T14:47:09.435Z</time></trkpt><trkpt lat="45.8013314" lon="11.4234233"><ele>868.0</ele><time>2026-04-26T14:47:10.439Z</time></trkpt><trkpt lat="45.8013672" lon="11.4236253"><ele>868.75</ele><time>2026-04-26T14:47:11.437Z</time></trkpt><trkpt lat="45.8013961" lon="11.4238199"><ele>869.5</ele><time>2026-04-26T14:47:12.441Z</time></trkpt><trkpt lat="45.801405" lon="11.4240128"><ele>870.25</ele><time>2026-04-26T14:47:13.436Z</time></trkpt><trkpt lat="45.8013698" lon="11.4242032"><ele>871.0</ele><time>2026-04-26T14:47:14.434Z</time></trkpt><trkpt lat="45.8013027" lon="11.4243646"><ele>871.0</ele><time>2026-04-26T14:47:15.435Z</time></trkpt><trkpt lat="45.8012143" lon="11.4245088"><ele>871.0</ele><time>2026-04-26T14:47:16.436Z</time></trkpt><trkpt lat="45.8010989" lon="11.4246214"><ele>871.0</ele><time>2026-04-26T14:47:17.435Z</time></trkpt><trkpt lat="45.8009989" lon="11.4247364"><ele>871.0</ele><time>2026-04-26T14:47:18.438Z</time></trkpt><trkpt lat="45.8009199" lon="11.4248676"><ele>867.0</ele><time>2026-04-26T14:47:19.435Z</time></trkpt><trkpt lat="45.8008706" lon="11.4250198"><ele>863.0</ele><time>2026-04-26T14:47:20.435Z</time></trkpt><trkpt lat="45.8008446" lon="11.4251949"><ele>859.0</ele><time>2026-04-26T14:47:21.435Z</time></trkpt><trkpt lat="45.8008262" lon="11.4253712"><ele>855.0</ele><time>2026-04-26T14:47:22.435Z</time></trkpt><trkpt lat="45.8007973" lon="11.4255404"><ele>855.0</ele><time>2026-04-26T14:47:23.434Z</time></trkpt><trkpt lat="45.800739" lon="11.4256845"><ele>855.0</ele><time>2026-04-26T14:47:24.436Z</time></trkpt><trkpt lat="45.8006577" lon="11.4258024"><ele>855.0</ele><time>2026-04-26T14:47:25.447Z</time></trkpt><trkpt lat="45.8005577" lon="11.4258896"><ele>855.0</ele><time>2026-04-26T14:47:26.436Z</time></trkpt><trkpt lat="45.800442" lon="11.4259469"><ele>855.0</ele><time>2026-04-26T14:47:27.436Z</time></trkpt><trkpt lat="45.800331" lon="11.4260083"><ele>855.0</ele><time>2026-04-26T14:47:28.437Z</time></trkpt><trkpt lat="45.800228" lon="11.4260983"><ele>855.0</ele><time>2026-04-26T14:47:29.436Z</time></trkpt><trkpt lat="45.8001394" lon="11.4262283"><ele>855.0</ele><time>2026-04-26T14:47:30.437Z</time></trkpt><trkpt lat="45.8000809" lon="11.4263925"><ele>850.5</ele><time>2026-04-26T14:47:31.436Z</time></trkpt><trkpt lat="45.8000447" lon="11.4265702"><ele>846.0</ele><time>2026-04-26T14:47:32.437Z</time></trkpt><trkpt lat="45.8000056" lon="11.4267403"><ele>841.5</ele><time>2026-04-26T14:47:33.438Z</time></trkpt><trkpt lat="45.7999576" lon="11.4268903"><ele>837.0</ele><time>2026-04-26T14:47:34.436Z</time></trkpt><trkpt lat="45.7998792" lon="11.4270159"><ele>837.0</ele><time>2026-04-26T14:47:35.435Z</time></trkpt><trkpt lat="45.7997849" lon="11.4271348"><ele>837.0</ele><time>2026-04-26T14:47:36.436Z</time></trkpt><trkpt lat="45.7996877" lon="11.4272494"><ele>837.0</ele><time>2026-04-26T14:47:37.436Z</time></trkpt><trkpt lat="45.7996028" lon="11.4273608"><ele>837.0</ele><time>2026-04-26T14:47:38.435Z</time></trkpt><trkpt lat="45.799533" lon="11.4274892"><ele>840.25</ele><time>2026-04-26T14:47:39.436Z</time></trkpt><trkpt lat="45.7994922" lon="11.4276481"><ele>843.5</ele><time>2026-04-26T14:47:40.439Z</time></trkpt><trkpt lat="45.7994779" lon="11.427823"><ele>846.75</ele><time>2026-04-26T14:47:41.435Z</time></trkpt><trkpt lat="45.7994806" lon="11.4279989"><ele>850.0</ele><time>2026-04-26T14:47:42.436Z</time></trkpt><trkpt lat="45.7994776" lon="11.4281918"><ele>852.5</ele><time>2026-04-26T14:47:43.435Z</time></trkpt><trkpt lat="45.7994562" lon="11.4283904"><ele>855.0</ele><time>2026-04-26T14:47:44.435Z</time></trkpt><trkpt lat="45.7994218" lon="11.4285995"><ele>857.5</ele><time>2026-04-26T14:47:45.437Z</time></trkpt><trkpt lat="45.7993724" lon="11.4288082"><ele>860.0</ele><time>2026-04-26T14:47:46.436Z</time></trkpt><trkpt lat="45.7993158" lon="11.4290327"><ele>850.0</ele><time>2026-04-26T14:47:47.437Z</time></trkpt><trkpt lat="45.7992554" lon="11.4292666"><ele>840.0</ele><time>2026-04-26T14:47:48.435Z</time></trkpt><trkpt lat="45.7991801" lon="11.4294686"><ele>830.0</ele><time>2026-04-26T14:47:49.436Z</time></trkpt><trkpt lat="45.799105" lon="11.4296576"><ele>830.0</ele><time>2026-04-26T14:47:50.436Z</time></trkpt><trkpt lat="45.7990329" lon="11.4298342"><ele>830.0</ele><time>2026-04-26T14:47:51.438Z</time></trkpt><trkpt lat="45.7989527" lon="11.4300199"><ele>830.0</ele><time>2026-04-26T14:47:52.448Z</time></trkpt><trkpt lat="45.7988737" lon="11.4302039"><ele>830.0</ele><time>2026-04-26T14:47:53.439Z</time></trkpt><trkpt lat="45.7987942" lon="11.4303731"><ele>833.25</ele><time>2026-04-26T14:47:54.438Z</time></trkpt><trkpt lat="45.7987215" lon="11.4305407"><ele>836.5</ele><time>2026-04-26T14:47:55.438Z</time></trkpt><trkpt lat="45.7986564" lon="11.4307151"><ele>839.75</ele><time>2026-04-26T14:47:56.436Z</time></trkpt><trkpt lat="45.7986167" lon="11.4309039"><ele>843.0</ele><time>2026-04-26T14:47:57.437Z</time></trkpt><trkpt lat="45.7986007" lon="11.4310955"><ele>843.0</ele><time>2026-04-26T14:47:58.435Z</time></trkpt><trkpt lat="45.7985867" lon="11.4312865"><ele>843.0</ele><time>2026-04-26T14:47:59.435Z</time></trkpt><trkpt lat="45.7985578" lon="11.4314662"><ele>843.0</ele><time>2026-04-26T14:48:00.446Z</time></trkpt><trkpt lat="45.798504" lon="11.4316375"><ele>843.0</ele><time>2026-04-26T14:48:01.435Z</time></trkpt><trkpt lat="45.7984363" lon="11.4318051"><ele>837.5</ele><time>2026-04-26T14:48:02.435Z</time></trkpt><trkpt lat="45.7983644" lon="11.4319703"><ele>832.0</ele><time>2026-04-26T14:48:03.435Z</time></trkpt><trkpt lat="45.7982918" lon="11.432137"><ele>826.5</ele><time>2026-04-26T14:48:04.437Z</time></trkpt><trkpt lat="45.7982173" lon="11.4323042"><ele>821.0</ele><time>2026-04-26T14:48:05.443Z</time></trkpt><trkpt lat="45.7981407" lon="11.432476"><ele>821.0</ele><time>2026-04-26T14:48:06.437Z</time></trkpt><trkpt lat="45.7980685" lon="11.432654"><ele>821.0</ele><time>2026-04-26T14:48:07.437Z</time></trkpt><trkpt lat="45.7980008" lon="11.4328494"><ele>821.0</ele><time>2026-04-26T14:48:08.437Z</time></trkpt><trkpt lat="45.797949" lon="11.4330583"><ele>824.0</ele><time>2026-04-26T14:48:09.438Z</time></trkpt><trkpt lat="45.7979002" lon="11.4332833"><ele>827.0</ele><time>2026-04-26T14:48:10.438Z</time></trkpt><trkpt lat="45.7978561" lon="11.4335114"><ele>830.0</ele><time>2026-04-26T14:48:11.441Z</time></trkpt><trkpt lat="45.7978088" lon="11.4337343"><ele>834.0</ele><time>2026-04-26T14:48:12.436Z</time></trkpt><trkpt lat="45.7977568" lon="11.4339603"><ele>838.0</ele><time>2026-04-26T14:48:13.435Z</time></trkpt><trkpt lat="45.7977019" lon="11.434188"><ele>842.0</ele><time>2026-04-26T14:48:14.436Z</time></trkpt><trkpt lat="45.7976377" lon="11.4344062"><ele>827.3333333333334</ele><time>2026-04-26T14:48:15.437Z</time></trkpt><trkpt lat="45.7975737" lon="11.4346176"><ele>812.6666666666667</ele><time>2026-04-26T14:48:16.436Z</time></trkpt><trkpt lat="45.7975079" lon="11.4348187"><ele>798.0</ele><time>2026-04-26T14:48:17.436Z</time></trkpt><trkpt lat="45.7974482" lon="11.435015"><ele>798.0</ele><time>2026-04-26T14:48:18.436Z</time></trkpt><trkpt lat="45.7973871" lon="11.435203"><ele>798.0</ele><time>2026-04-26T14:48:19.436Z</time></trkpt><trkpt lat="45.7973317" lon="11.435389"><ele>798.0</ele><time>2026-04-26T14:48:20.436Z</time></trkpt><trkpt lat="45.7972746" lon="11.435577"><ele>798.0</ele><time>2026-04-26T14:48:21.437Z</time></trkpt><trkpt lat="45.797217" lon="11.4357602"><ele>800.0</ele><time>2026-04-26T14:48:22.436Z</time></trkpt><trkpt lat="45.7971625" lon="11.4359426"><ele>802.0</ele><time>2026-04-26T14:48:23.438Z</time></trkpt><trkpt lat="45.7971094" lon="11.4361173"><ele>804.0</ele><time>2026-04-26T14:48:24.435Z</time></trkpt><trkpt lat="45.7970582" lon="11.4362868"><ele>806.0</ele><time>2026-04-26T14:48:25.438Z</time></trkpt><trkpt lat="45.797007" lon="11.4364459"><ele>808.4</ele><time>2026-04-26T14:48:26.436Z</time></trkpt><trkpt lat="45.7969682" lon="11.4365986"><ele>810.8</ele><time>2026-04-26T14:48:27.438Z</time></trkpt><trkpt lat="45.7969344" lon="11.4367446"><ele>813.1999999999999</ele><time>2026-04-26T14:48:28.437Z</time></trkpt><trkpt lat="45.7969099" lon="11.4368707"><ele>815.5999999999999</ele><time>2026-04-26T14:48:29.436Z</time></trkpt><trkpt lat="45.7968797" lon="11.4369611"><ele>818.0</ele><time>2026-04-26T14:48:30.443Z</time></trkpt><trkpt lat="45.7967758" lon="11.4370318"><ele>818.0</ele><time>2026-04-26T14:48:32.436Z</time></trkpt><trkpt lat="45.7966809" lon="11.4369248"><ele>818.0</ele><time>2026-04-26T14:48:34.435Z</time></trkpt><trkpt lat="45.7966722" lon="11.4368236"><ele>818.0</ele><time>2026-04-26T14:48:35.436Z</time></trkpt><trkpt lat="45.7967097" lon="11.4367006"><ele>818.0</ele><time>2026-04-26T14:48:36.435Z</time></trkpt><trkpt lat="45.7967684" lon="11.43655"><ele>818.0</ele><time>2026-04-26T14:48:37.436Z</time></trkpt><trkpt lat="45.7968363" lon="11.4363692"><ele>814.0</ele><time>2026-04-26T14:48:38.435Z</time></trkpt><trkpt lat="45.7969042" lon="11.436152"><ele>810.0</ele><time>2026-04-26T14:48:39.439Z</time></trkpt><trkpt lat="45.7969702" lon="11.4359116"><ele>806.0</ele><time>2026-04-26T14:48:40.436Z</time></trkpt><trkpt lat="45.7970305" lon="11.4356511"><ele>803.3333333333334</ele><time>2026-04-26T14:48:41.435Z</time></trkpt><trkpt lat="45.7970855" lon="11.4353661"><ele>800.6666666666667</ele><time>2026-04-26T14:48:42.435Z</time></trkpt><trkpt lat="45.7971316" lon="11.4350703"><ele>798.0</ele><time>2026-04-26T14:48:43.445Z</time></trkpt><trkpt lat="45.797173" lon="11.4347611"><ele>796.6666666666667</ele><time>2026-04-26T14:48:44.436Z</time></trkpt><trkpt lat="45.7972174" lon="11.434439"><ele>795.3333333333334</ele><time>2026-04-26T14:48:45.434Z</time></trkpt><trkpt lat="45.7972577" lon="11.4341419"><ele>794.0</ele><time>2026-04-26T14:48:46.436Z</time></trkpt><trkpt lat="45.797301" lon="11.4338761"><ele>791.6666666666667</ele><time>2026-04-26T14:48:47.434Z</time></trkpt><trkpt lat="45.7973382" lon="11.4336233"><ele>789.3333333333333</ele><time>2026-04-26T14:48:48.436Z</time></trkpt><trkpt lat="45.7973673" lon="11.4333831"><ele>787.0</ele><time>2026-04-26T14:48:49.436Z</time></trkpt><trkpt lat="45.7973852" lon="11.4331564"><ele>783.3333333333333</ele><time>2026-04-26T14:48:50.437Z</time></trkpt><trkpt lat="45.7974031" lon="11.4329228"><ele>779.6666666666667</ele><time>2026-04-26T14:48:51.435Z</time></trkpt><trkpt lat="45.7974162" lon="11.4326896"><ele>776.0</ele><time>2026-04-26T14:48:52.436Z</time></trkpt><trkpt lat="45.7974367" lon="11.4324527"><ele>776.0</ele><time>2026-04-26T14:48:53.436Z</time></trkpt><trkpt lat="45.7974488" lon="11.4322243"><ele>776.0</ele><time>2026-04-26T14:48:54.436Z</time></trkpt><trkpt lat="45.7974757" lon="11.4320113"><ele>776.0</ele><time>2026-04-26T14:48:55.434Z</time></trkpt><trkpt lat="45.7975352" lon="11.4318281"><ele>773.5</ele><time>2026-04-26T14:48:56.436Z</time></trkpt><trkpt lat="45.7976058" lon="11.4316239"><ele>771.0</ele><time>2026-04-26T14:48:57.434Z</time></trkpt><trkpt lat="45.7976791" lon="11.4314425"><ele>768.5</ele><time>2026-04-26T14:48:58.436Z</time></trkpt><trkpt lat="45.7977446" lon="11.4312779"><ele>766.0</ele><time>2026-04-26T14:48:59.436Z</time></trkpt><trkpt lat="45.7977968" lon="11.4311086"><ele>770.75</ele><time>2026-04-26T14:49:00.434Z</time></trkpt><trkpt lat="45.7978338" lon="11.4309298"><ele>775.5</ele><time>2026-04-26T14:49:01.435Z</time></trkpt><trkpt lat="45.7978487" lon="11.4307375"><ele>780.25</ele><time>2026-04-26T14:49:02.437Z</time></trkpt><trkpt lat="45.7978537" lon="11.4305436"><ele>785.0</ele><time>2026-04-26T14:49:03.434Z</time></trkpt><trkpt lat="45.7978621" lon="11.4303413"><ele>785.0</ele><time>2026-04-26T14:49:04.435Z</time></trkpt><trkpt lat="45.7978835" lon="11.430157"><ele>785.0</ele><time>2026-04-26T14:49:05.435Z</time></trkpt><trkpt lat="45.7979221" lon="11.429986"><ele>785.0</ele><time>2026-04-26T14:49:06.437Z</time></trkpt><trkpt lat="45.7979665" lon="11.4298263"><ele>785.0</ele><time>2026-04-26T14:49:07.436Z</time></trkpt><trkpt lat="45.7980125" lon="11.4296776"><ele>783.0000000000001</ele><time>2026-04-26T14:49:08.434Z</time></trkpt><trkpt lat="45.7980523" lon="11.4295471"><ele>781.0</ele><time>2026-04-26T14:49:09.436Z</time></trkpt><trkpt lat="45.7980896" lon="11.4294336"><ele>779.0</ele><time>2026-04-26T14:49:10.45Z</time></trkpt><trkpt lat="45.7981194" lon="11.4293264"><ele>777.0</ele><time>2026-04-26T14:49:11.439Z</time></trkpt><trkpt lat="45.7981284" lon="11.4292236"><ele>775.0000000000001</ele><time>2026-04-26T14:49:12.436Z</time></trkpt><trkpt lat="45.7981088" lon="11.4291315"><ele>773.0</ele><time>2026-04-26T14:49:13.435Z</time></trkpt><trkpt lat="45.7980098" lon="11.4290342"><ele>773.0</ele><time>2026-04-26T14:49:15.439Z</time></trkpt><trkpt lat="45.7979358" lon="11.4290579"><ele>773.0</ele><time>2026-04-26T14:49:16.435Z</time></trkpt><trkpt lat="45.7978713" lon="11.4291413"><ele>773.0</ele><time>2026-04-26T14:49:17.436Z</time></trkpt><trkpt lat="45.7978253" lon="11.4292596"><ele>773.0</ele><time>2026-04-26T14:49:18.435Z</time></trkpt><trkpt lat="45.7977882" lon="11.4294008"><ele>773.0</ele><time>2026-04-26T14:49:19.436Z</time></trkpt><trkpt lat="45.7977517" lon="11.4295607"><ele>776.0</ele><time>2026-04-26T14:49:20.44Z</time></trkpt><trkpt lat="45.7977121" lon="11.4297348"><ele>779.0</ele><time>2026-04-26T14:49:21.435Z</time></trkpt><trkpt lat="45.797679" lon="11.4299228"><ele>782.0</ele><time>2026-04-26T14:49:22.435Z</time></trkpt><trkpt lat="45.7976427" lon="11.4301088"><ele>785.0</ele><time>2026-04-26T14:49:23.438Z</time></trkpt><trkpt lat="45.7976042" lon="11.4302963"><ele>776.75</ele><time>2026-04-26T14:49:24.45Z</time></trkpt><trkpt lat="45.7975661" lon="11.4304831"><ele>768.5</ele><time>2026-04-26T14:49:25.435Z</time></trkpt><trkpt lat="45.797523" lon="11.430664"><ele>760.25</ele><time>2026-04-26T14:49:26.434Z</time></trkpt><trkpt lat="45.7974717" lon="11.4308345"><ele>752.0</ele><time>2026-04-26T14:49:27.437Z</time></trkpt><trkpt lat="45.7974031" lon="11.4310021"><ele>752.0</ele><time>2026-04-26T14:49:28.436Z</time></trkpt><trkpt lat="45.7973179" lon="11.4311652"><ele>752.0</ele><time>2026-04-26T14:49:29.436Z</time></trkpt><trkpt lat="45.7972288" lon="11.4313209"><ele>752.0</ele><time>2026-04-26T14:49:30.435Z</time></trkpt><trkpt lat="45.7971457" lon="11.4314713"><ele>752.0</ele><time>2026-04-26T14:49:31.435Z</time></trkpt><trkpt lat="45.7970751" lon="11.4316302"><ele>755.5</ele><time>2026-04-26T14:49:32.437Z</time></trkpt><trkpt lat="45.7970202" lon="11.431809"><ele>759.0</ele><time>2026-04-26T14:49:33.442Z</time></trkpt><trkpt lat="45.7969803" lon="11.4319975"><ele>762.5</ele><time>2026-04-26T14:49:34.435Z</time></trkpt><trkpt lat="45.7969493" lon="11.4321883"><ele>766.0</ele><time>2026-04-26T14:49:35.437Z</time></trkpt><trkpt lat="45.7969211" lon="11.4323797"><ele>768.5</ele><time>2026-04-26T14:49:36.436Z</time></trkpt><trkpt lat="45.7968935" lon="11.4325563"><ele>771.0</ele><time>2026-04-26T14:49:37.435Z</time></trkpt><trkpt lat="45.7968661" lon="11.4327368"><ele>773.5</ele><time>2026-04-26T14:49:38.434Z</time></trkpt><trkpt lat="45.7968288" lon="11.4329127"><ele>776.0</ele><time>2026-04-26T14:49:39.436Z</time></trkpt><trkpt lat="45.7967867" lon="11.4330882"><ele>769.0</ele><time>2026-04-26T14:49:40.437Z</time></trkpt><trkpt lat="45.7967339" lon="11.4332609"><ele>762.0</ele><time>2026-04-26T14:49:41.435Z</time></trkpt><trkpt lat="45.7966785" lon="11.433445"><ele>755.0</ele><time>2026-04-26T14:49:42.436Z</time></trkpt><trkpt lat="45.7966103" lon="11.4336596"><ele>748.0</ele><time>2026-04-26T14:49:43.436Z</time></trkpt><trkpt lat="45.7965305" lon="11.4338949"><ele>748.0</ele><time>2026-04-26T14:49:44.436Z</time></trkpt><trkpt lat="45.7964486" lon="11.4341435"><ele>748.0</ele><time>2026-04-26T14:49:45.434Z</time></trkpt><trkpt lat="45.7963627" lon="11.4343846"><ele>748.0</ele><time>2026-04-26T14:49:46.435Z</time></trkpt><trkpt lat="45.7962758" lon="11.4346358"><ele>749.5</ele><time>2026-04-26T14:49:47.437Z</time></trkpt><trkpt lat="45.7962028" lon="11.4348599"><ele>751.0</ele><time>2026-04-26T14:49:48.436Z</time></trkpt><trkpt lat="45.7961374" lon="11.4350431"><ele>752.5</ele><time>2026-04-26T14:49:49.436Z</time></trkpt><trkpt lat="45.7960781" lon="11.4352092"><ele>754.0</ele><time>2026-04-26T14:49:50.435Z</time></trkpt><trkpt lat="45.796015" lon="11.4353924"><ele>747.75</ele><time>2026-04-26T14:49:51.435Z</time></trkpt><trkpt lat="45.7959387" lon="11.4355716"><ele>741.5</ele><time>2026-04-26T14:49:52.436Z</time></trkpt><trkpt lat="45.7958606" lon="11.4357249"><ele>735.25</ele><time>2026-04-26T14:49:53.445Z</time></trkpt><trkpt lat="45.7957815" lon="11.4358607"><ele>729.0</ele><time>2026-04-26T14:49:54.437Z</time></trkpt><trkpt lat="45.795708" lon="11.435981"><ele>729.0</ele><time>2026-04-26T14:49:55.436Z</time></trkpt><trkpt lat="45.7956448" lon="11.4360857"><ele>729.0</ele><time>2026-04-26T14:49:56.435Z</time></trkpt><trkpt lat="45.7955866" lon="11.4361711"><ele>729.0</ele><time>2026-04-26T14:49:57.436Z</time></trkpt><trkpt lat="45.795527" lon="11.4362317"><ele>729.0</ele><time>2026-04-26T14:49:58.434Z</time></trkpt><trkpt lat="45.7954622" lon="11.4362543"><ele>729.0</ele><time>2026-04-26T14:49:59.44Z</time></trkpt><trkpt lat="45.7953673" lon="11.4361388"><ele>729.0</ele><time>2026-04-26T14:50:01.436Z</time></trkpt><trkpt lat="45.7953623" lon="11.4360328"><ele>729.0</ele><time>2026-04-26T14:50:02.438Z</time></trkpt><trkpt lat="45.7954009" lon="11.4359387"><ele>729.0</ele><time>2026-04-26T14:50:03.436Z</time></trkpt><trkpt lat="45.7954651" lon="11.4358528"><ele>729.0</ele><time>2026-04-26T14:50:04.436Z</time></trkpt><trkpt lat="45.7955322" lon="11.435768"><ele>729.0</ele><time>2026-04-26T14:50:05.436Z</time></trkpt><trkpt lat="45.7956082" lon="11.4356692"><ele>729.0</ele><time>2026-04-26T14:50:06.435Z</time></trkpt><trkpt lat="45.7956826" lon="11.4355522"><ele>726.5</ele><time>2026-04-26T14:50:07.44Z</time></trkpt><trkpt lat="45.7957428" lon="11.4353965"><ele>724.0</ele><time>2026-04-26T14:50:08.437Z</time></trkpt><trkpt lat="45.7958019" lon="11.4352267"><ele>721.5</ele><time>2026-04-26T14:50:09.436Z</time></trkpt><trkpt lat="45.7958465" lon="11.4349731"><ele>719.0</ele><time>2026-04-26T14:50:10.444Z</time></trkpt><trkpt lat="45.7958996" lon="11.4347145"><ele>715.6666666666666</ele><time>2026-04-26T14:50:11.434Z</time></trkpt><trkpt lat="45.7959612" lon="11.4344301"><ele>712.3333333333334</ele><time>2026-04-26T14:50:12.435Z</time></trkpt><trkpt lat="45.7960229" lon="11.4341581"><ele>709.0</ele><time>2026-04-26T14:50:13.435Z</time></trkpt><trkpt lat="45.7960861" lon="11.4339029"><ele>718.3333333333334</ele><time>2026-04-26T14:50:14.437Z</time></trkpt><trkpt lat="45.7961408" lon="11.4336569"><ele>727.6666666666666</ele><time>2026-04-26T14:50:15.437Z</time></trkpt><trkpt lat="45.7961949" lon="11.433421"><ele>737.0</ele><time>2026-04-26T14:50:16.434Z</time></trkpt><trkpt lat="45.796246" lon="11.4331896"><ele>737.0</ele><time>2026-04-26T14:50:17.438Z</time></trkpt><trkpt lat="45.7962911" lon="11.4329769"><ele>737.0</ele><time>2026-04-26T14:50:18.437Z</time></trkpt><trkpt lat="45.7963241" lon="11.432762"><ele>737.0</ele><time>2026-04-26T14:50:19.436Z</time></trkpt><trkpt lat="45.7963273" lon="11.4325642"><ele>737.0</ele><time>2026-04-26T14:50:20.437Z</time></trkpt><trkpt lat="45.7963179" lon="11.4323576"><ele>734.25</ele><time>2026-04-26T14:50:21.435Z</time></trkpt><trkpt lat="45.7963036" lon="11.4321581"><ele>731.5</ele><time>2026-04-26T14:50:22.435Z</time></trkpt><trkpt lat="45.7962875" lon="11.4319621"><ele>728.75</ele><time>2026-04-26T14:50:23.436Z</time></trkpt><trkpt lat="45.7962849" lon="11.4317689"><ele>726.0</ele><time>2026-04-26T14:50:24.436Z</time></trkpt><trkpt lat="45.7962926" lon="11.4315761"><ele>724.5</ele><time>2026-04-26T14:50:25.443Z</time></trkpt><trkpt lat="45.7963157" lon="11.4313919"><ele>723.0</ele><time>2026-04-26T14:50:26.435Z</time></trkpt><trkpt lat="45.7963494" lon="11.4312083"><ele>721.5</ele><time>2026-04-26T14:50:27.434Z</time></trkpt><trkpt lat="45.7963874" lon="11.4310353"><ele>720.0</ele><time>2026-04-26T14:50:28.436Z</time></trkpt><trkpt lat="45.7964367" lon="11.4308471"><ele>717.0</ele><time>2026-04-26T14:50:29.436Z</time></trkpt><trkpt lat="45.7964986" lon="11.4306456"><ele>714.0</ele><time>2026-04-26T14:50:30.435Z</time></trkpt><trkpt lat="45.7965604" lon="11.430448"><ele>711.0</ele><time>2026-04-26T14:50:31.436Z</time></trkpt><trkpt lat="45.7966188" lon="11.4302616"><ele>708.0</ele><time>2026-04-26T14:50:32.436Z</time></trkpt><trkpt lat="45.7966572" lon="11.4300693"><ele>705.75</ele><time>2026-04-26T14:50:33.437Z</time></trkpt><trkpt lat="45.7966665" lon="11.4298665"><ele>703.5</ele><time>2026-04-26T14:50:34.435Z</time></trkpt><trkpt lat="45.796673" lon="11.4296634"><ele>701.25</ele><time>2026-04-26T14:50:35.434Z</time></trkpt><trkpt lat="45.7966797" lon="11.4294721"><ele>699.0</ele><time>2026-04-26T14:50:36.436Z</time></trkpt><trkpt lat="45.7966968" lon="11.4293063"><ele>697.6666666666666</ele><time>2026-04-26T14:50:37.442Z</time></trkpt><trkpt lat="45.7967165" lon="11.4291771"><ele>696.3333333333334</ele><time>2026-04-26T14:50:38.436Z</time></trkpt><trkpt lat="45.7967414" lon="11.429049"><ele>695.0</ele><time>2026-04-26T14:50:39.436Z</time></trkpt><trkpt lat="45.7967651" lon="11.4289427"><ele>693.6666666666667</ele><time>2026-04-26T14:50:40.436Z</time></trkpt><trkpt lat="45.7967888" lon="11.4288336"><ele>692.3333333333334</ele><time>2026-04-26T14:50:41.436Z</time></trkpt><trkpt lat="45.7968134" lon="11.4287272"><ele>691.0</ele><time>2026-04-26T14:50:42.435Z</time></trkpt><trkpt lat="45.7968412" lon="11.4286326"><ele>694.5</ele><time>2026-04-26T14:50:43.435Z</time></trkpt><trkpt lat="45.7968715" lon="11.4285372"><ele>698.0</ele><time>2026-04-26T14:50:44.435Z</time></trkpt><trkpt lat="45.7969196" lon="11.428434"><ele>701.5</ele><time>2026-04-26T14:50:45.435Z</time></trkpt><trkpt lat="45.7969742" lon="11.4283601"><ele>705.0</ele><time>2026-04-26T14:50:46.44Z</time></trkpt><trkpt lat="45.7970529" lon="11.4282671"><ele>708.5</ele><time>2026-04-26T14:50:48.436Z</time></trkpt><trkpt lat="45.7971184" lon="11.4281845"><ele>712.0</ele><time>2026-04-26T14:50:50.435Z</time></trkpt><trkpt lat="45.7971759" lon="11.4280921"><ele>712.0</ele><time>2026-04-26T14:50:52.435Z</time></trkpt><trkpt lat="45.797194" lon="11.4279507"><ele>712.0</ele><time>2026-04-26T14:50:54.436Z</time></trkpt><trkpt lat="45.7971254" lon="11.4278522"><ele>712.0</ele><time>2026-04-26T14:50:56.439Z</time></trkpt><trkpt lat="45.7970027" lon="11.4278513"><ele>712.0</ele><time>2026-04-26T14:50:58.434Z</time></trkpt><trkpt lat="45.7969458" lon="11.4279102"><ele>712.0</ele><time>2026-04-26T14:50:59.436Z</time></trkpt><trkpt lat="45.796907" lon="11.4280023"><ele>712.0</ele><time>2026-04-26T14:51:00.434Z</time></trkpt><trkpt lat="45.7968646" lon="11.428115"><ele>712.0</ele><time>2026-04-26T14:51:01.442Z</time></trkpt><trkpt lat="45.7968123" lon="11.4282275"><ele>712.0</ele><time>2026-04-26T14:51:02.437Z</time></trkpt><trkpt lat="45.7967577" lon="11.4283464"><ele>712.0</ele><time>2026-04-26T14:51:03.434Z</time></trkpt><trkpt lat="45.7967002" lon="11.4284827"><ele>712.0</ele><time>2026-04-26T14:51:04.441Z</time></trkpt><trkpt lat="45.7966386" lon="11.4286165"><ele>706.75</ele><time>2026-04-26T14:51:05.435Z</time></trkpt><trkpt lat="45.7965783" lon="11.4287505"><ele>701.5</ele><time>2026-04-26T14:51:06.436Z</time></trkpt><trkpt lat="45.7965256" lon="11.4288963"><ele>696.25</ele><time>2026-04-26T14:51:07.435Z</time></trkpt><trkpt lat="45.7964826" lon="11.4290397"><ele>691.0</ele><time>2026-04-26T14:51:08.437Z</time></trkpt><trkpt lat="45.7964363" lon="11.4291924"><ele>691.0</ele><time>2026-04-26T14:51:09.436Z</time></trkpt><trkpt lat="45.7963922" lon="11.4293419"><ele>691.0</ele><time>2026-04-26T14:51:10.435Z</time></trkpt><trkpt lat="45.7963524" lon="11.429496"><ele>691.0</ele><time>2026-04-26T14:51:11.434Z</time></trkpt><trkpt lat="45.7963096" lon="11.4296557"><ele>691.0</ele><time>2026-04-26T14:51:12.436Z</time></trkpt><trkpt lat="45.7962717" lon="11.4298143"><ele>692.5999999999999</ele><time>2026-04-26T14:51:13.437Z</time></trkpt><trkpt lat="45.7962269" lon="11.4299633"><ele>694.2</ele><time>2026-04-26T14:51:14.435Z</time></trkpt><trkpt lat="45.7961742" lon="11.4301058"><ele>695.8</ele><time>2026-04-26T14:51:15.435Z</time></trkpt><trkpt lat="45.7961146" lon="11.4302312"><ele>697.4000000000001</ele><time>2026-04-26T14:51:16.435Z</time></trkpt><trkpt lat="45.7960629" lon="11.4303444"><ele>699.0</ele><time>2026-04-26T14:51:17.434Z</time></trkpt><trkpt lat="45.7960008" lon="11.430449"><ele>693.4000000000001</ele><time>2026-04-26T14:51:18.439Z</time></trkpt><trkpt lat="45.7959407" lon="11.4305641"><ele>687.8</ele><time>2026-04-26T14:51:19.434Z</time></trkpt><trkpt lat="45.7958831" lon="11.4306829"><ele>682.2</ele><time>2026-04-26T14:51:20.435Z</time></trkpt><trkpt lat="45.7958246" lon="11.4308077"><ele>676.5999999999999</ele><time>2026-04-26T14:51:21.438Z</time></trkpt><trkpt lat="45.7957677" lon="11.4309448"><ele>671.0</ele><time>2026-04-26T14:51:22.437Z</time></trkpt><trkpt lat="45.7957202" lon="11.4311033"><ele>671.0</ele><time>2026-04-26T14:51:23.438Z</time></trkpt><trkpt lat="45.7956704" lon="11.4312767"><ele>671.0</ele><time>2026-04-26T14:51:24.437Z</time></trkpt><trkpt lat="45.7956261" lon="11.431458"><ele>671.0</ele><time>2026-04-26T14:51:25.439Z</time></trkpt><trkpt lat="45.7955865" lon="11.4316535"><ele>671.0</ele><time>2026-04-26T14:51:26.435Z</time></trkpt><trkpt lat="45.7955511" lon="11.4318551"><ele>672.5</ele><time>2026-04-26T14:51:27.436Z</time></trkpt><trkpt lat="45.7955089" lon="11.4320488"><ele>674.0</ele><time>2026-04-26T14:51:28.436Z</time></trkpt><trkpt lat="45.7954602" lon="11.4322356"><ele>675.5</ele><time>2026-04-26T14:51:29.434Z</time></trkpt><trkpt lat="45.7953977" lon="11.4324053"><ele>677.0</ele><time>2026-04-26T14:51:30.434Z</time></trkpt><trkpt lat="45.7953271" lon="11.4325709"><ele>679.0</ele><time>2026-04-26T14:51:31.435Z</time></trkpt><trkpt lat="45.7952462" lon="11.4327274"><ele>681.0</ele><time>2026-04-26T14:51:32.434Z</time></trkpt><trkpt lat="45.7951573" lon="11.4328754"><ele>683.0</ele><time>2026-04-26T14:51:33.435Z</time></trkpt><trkpt lat="45.7950712" lon="11.4330144"><ele>685.0</ele><time>2026-04-26T14:51:34.434Z</time></trkpt><trkpt lat="45.7949819" lon="11.433156"><ele>679.25</ele><time>2026-04-26T14:51:35.434Z</time></trkpt><trkpt lat="45.79489" lon="11.4332964"><ele>673.5</ele><time>2026-04-26T14:51:36.434Z</time></trkpt><trkpt lat="45.7947973" lon="11.4334427"><ele>667.75</ele><time>2026-04-26T14:51:37.434Z</time></trkpt><trkpt lat="45.7947069" lon="11.4335825"><ele>662.0</ele><time>2026-04-26T14:51:38.435Z</time></trkpt><trkpt lat="45.7946189" lon="11.433717"><ele>664.5</ele><time>2026-04-26T14:51:39.434Z</time></trkpt><trkpt lat="45.7945354" lon="11.4338476"><ele>667.0</ele><time>2026-04-26T14:51:40.435Z</time></trkpt><trkpt lat="45.7944562" lon="11.4339686"><ele>669.5</ele><time>2026-04-26T14:51:41.435Z</time></trkpt><trkpt lat="45.7943799" lon="11.434088"><ele>672.0</ele><time>2026-04-26T14:51:42.434Z</time></trkpt><trkpt lat="45.7943058" lon="11.4341988"><ele>668.6666666666666</ele><time>2026-04-26T14:51:43.433Z</time></trkpt><trkpt lat="45.7942424" lon="11.4343018"><ele>665.3333333333334</ele><time>2026-04-26T14:51:44.434Z</time></trkpt><trkpt lat="45.7941846" lon="11.4343847"><ele>662.0</ele><time>2026-04-26T14:51:45.434Z</time></trkpt><trkpt lat="45.7941275" lon="11.4344682"><ele>658.6666666666667</ele><time>2026-04-26T14:51:46.434Z</time></trkpt><trkpt lat="45.7940801" lon="11.4345405"><ele>655.3333333333334</ele><time>2026-04-26T14:51:47.437Z</time></trkpt><trkpt lat="45.7940067" lon="11.4346779"><ele>652.0</ele><time>2026-04-26T14:51:49.434Z</time></trkpt><trkpt lat="45.793946" lon="11.4348335"><ele>652.0</ele><time>2026-04-26T14:51:51.44Z</time></trkpt><trkpt lat="45.7938877" lon="11.4349701"><ele>652.0</ele><time>2026-04-26T14:51:53.436Z</time></trkpt><trkpt lat="45.793816" lon="11.4350597"><ele>652.0</ele><time>2026-04-26T14:51:55.434Z</time></trkpt><trkpt lat="45.7937146" lon="11.4350344"><ele>652.0</ele><time>2026-04-26T14:51:57.434Z</time></trkpt><trkpt lat="45.7936692" lon="11.4348995"><ele>652.0</ele><time>2026-04-26T14:51:59.436Z</time></trkpt><trkpt lat="45.7937468" lon="11.4347277"><ele>652.0</ele><time>2026-04-26T14:52:01.434Z</time></trkpt><trkpt lat="45.7938113" lon="11.4346415"><ele>652.0</ele><time>2026-04-26T14:52:02.435Z</time></trkpt><trkpt lat="45.793882" lon="11.4345544"><ele>652.0</ele><time>2026-04-26T14:52:03.433Z</time></trkpt><trkpt lat="45.7939592" lon="11.4344504"><ele>652.0</ele><time>2026-04-26T14:52:04.434Z</time></trkpt><trkpt lat="45.7940357" lon="11.4343392"><ele>652.0</ele><time>2026-04-26T14:52:05.434Z</time></trkpt><trkpt lat="45.7941209" lon="11.4342118"><ele>650.0</ele><time>2026-04-26T14:52:06.434Z</time></trkpt><trkpt lat="45.7942025" lon="11.4340486"><ele>648.0</ele><time>2026-04-26T14:52:07.435Z</time></trkpt><trkpt lat="45.7942787" lon="11.4338271"><ele>646.0</ele><time>2026-04-26T14:52:08.434Z</time></trkpt><trkpt lat="45.79436" lon="11.4335825"><ele>647.0</ele><time>2026-04-26T14:52:09.434Z</time></trkpt><trkpt lat="45.7944469" lon="11.433324"><ele>648.0</ele><time>2026-04-26T14:52:10.435Z</time></trkpt><trkpt lat="45.7945391" lon="11.4330813"><ele>649.0</ele><time>2026-04-26T14:52:11.434Z</time></trkpt><trkpt lat="45.7946225" lon="11.4328267"><ele>649.0</ele><time>2026-04-26T14:52:12.434Z</time></trkpt><trkpt lat="45.7946961" lon="11.4325721"><ele>649.0</ele><time>2026-04-26T14:52:13.434Z</time></trkpt><trkpt lat="45.7947603" lon="11.4323019"><ele>649.0</ele><time>2026-04-26T14:52:14.434Z</time></trkpt><trkpt lat="45.7948162" lon="11.4320354"><ele>645.3333333333334</ele><time>2026-04-26T14:52:15.439Z</time></trkpt><trkpt lat="45.7948618" lon="11.4317786"><ele>641.6666666666666</ele><time>2026-04-26T14:52:16.434Z</time></trkpt><trkpt lat="45.7949027" lon="11.4315333"><ele>638.0</ele><time>2026-04-26T14:52:17.434Z</time></trkpt><trkpt lat="45.7949383" lon="11.4312917"><ele>633.6666666666666</ele><time>2026-04-26T14:52:18.435Z</time></trkpt><trkpt lat="45.7949709" lon="11.4310411"><ele>629.3333333333334</ele><time>2026-04-26T14:52:19.435Z</time></trkpt><trkpt lat="45.7950089" lon="11.4307801"><ele>625.0</ele><time>2026-04-26T14:52:20.435Z</time></trkpt><trkpt lat="45.7950442" lon="11.4305188"><ele>622.3333333333334</ele><time>2026-04-26T14:52:21.433Z</time></trkpt><trkpt lat="45.7950796" lon="11.430251"><ele>619.6666666666666</ele><time>2026-04-26T14:52:22.434Z</time></trkpt><trkpt lat="45.7951178" lon="11.4299821"><ele>617.0</ele><time>2026-04-26T14:52:23.434Z</time></trkpt><trkpt lat="45.7951571" lon="11.429712"><ele>627.3333333333333</ele><time>2026-04-26T14:52:24.435Z</time></trkpt><trkpt lat="45.7951965" lon="11.4294477"><ele>637.6666666666666</ele><time>2026-04-26T14:52:25.438Z</time></trkpt><trkpt lat="45.7952301" lon="11.4291868"><ele>648.0</ele><time>2026-04-26T14:52:26.435Z</time></trkpt><trkpt lat="45.7952689" lon="11.4289333"><ele>643.0</ele><time>2026-04-26T14:52:27.434Z</time></trkpt><trkpt lat="45.7953046" lon="11.42869"><ele>638.0</ele><time>2026-04-26T14:52:28.434Z</time></trkpt><trkpt lat="45.7953448" lon="11.4284553"><ele>633.0</ele><time>2026-04-26T14:52:29.434Z</time></trkpt><trkpt lat="45.7953897" lon="11.4282283"><ele>633.0</ele><time>2026-04-26T14:52:30.435Z</time></trkpt><trkpt lat="45.795458" lon="11.4280238"><ele>633.0</ele><time>2026-04-26T14:52:31.437Z</time></trkpt><trkpt lat="45.7955402" lon="11.4278417"><ele>633.0</ele><time>2026-04-26T14:52:32.434Z</time></trkpt><trkpt lat="45.7956151" lon="11.4276657"><ele>629.75</ele><time>2026-04-26T14:52:33.436Z</time></trkpt><trkpt lat="45.7956759" lon="11.4274933"><ele>626.5</ele><time>2026-04-26T14:52:34.434Z</time></trkpt><trkpt lat="45.7957266" lon="11.4273223"><ele>623.25</ele><time>2026-04-26T14:52:35.434Z</time></trkpt><trkpt lat="45.7957757" lon="11.4271569"><ele>620.0</ele><time>2026-04-26T14:52:36.435Z</time></trkpt><trkpt lat="45.7958266" lon="11.4269991"><ele>624.25</ele><time>2026-04-26T14:52:37.436Z</time></trkpt><trkpt lat="45.7958743" lon="11.4268428"><ele>628.5</ele><time>2026-04-26T14:52:38.435Z</time></trkpt><trkpt lat="45.795931" lon="11.4266958"><ele>632.75</ele><time>2026-04-26T14:52:39.435Z</time></trkpt><trkpt lat="45.7959859" lon="11.4265526"><ele>637.0</ele><time>2026-04-26T14:52:40.434Z</time></trkpt><trkpt lat="45.7960574" lon="11.4264327"><ele>637.0</ele><time>2026-04-26T14:52:41.434Z</time></trkpt><trkpt lat="45.7961327" lon="11.4263204"><ele>637.0</ele><time>2026-04-26T14:52:42.434Z</time></trkpt><trkpt lat="45.7961976" lon="11.4262231"><ele>637.0</ele><time>2026-04-26T14:52:43.434Z</time></trkpt><trkpt lat="45.7962472" lon="11.426137"><ele>637.0</ele><time>2026-04-26T14:52:44.434Z</time></trkpt><trkpt lat="45.796278" lon="11.4260373"><ele>637.0</ele><time>2026-04-26T14:52:45.437Z</time></trkpt><trkpt lat="45.7962591" lon="11.4259373"><ele>637.0</ele><time>2026-04-26T14:52:46.434Z</time></trkpt><trkpt lat="45.7962179" lon="11.4258583"><ele>634.1666666666667</ele><time>2026-04-26T14:52:47.435Z</time></trkpt><trkpt lat="45.7961476" lon="11.4258216"><ele>631.3333333333334</ele><time>2026-04-26T14:52:48.435Z</time></trkpt><trkpt lat="45.7960722" lon="11.4258363"><ele>628.5</ele><time>2026-04-26T14:52:49.433Z</time></trkpt><trkpt lat="45.7960116" lon="11.4259116"><ele>625.6666666666666</ele><time>2026-04-26T14:52:50.434Z</time></trkpt><trkpt lat="45.7959633" lon="11.4260294"><ele>622.8333333333333</ele><time>2026-04-26T14:52:51.434Z</time></trkpt><trkpt lat="45.7959226" lon="11.4261706"><ele>620.0</ele><time>2026-04-26T14:52:52.438Z</time></trkpt><trkpt lat="45.7958641" lon="11.4263183"><ele>615.25</ele><time>2026-04-26T14:52:53.435Z</time></trkpt><trkpt lat="45.7957934" lon="11.4264767"><ele>610.5</ele><time>2026-04-26T14:52:54.434Z</time></trkpt><trkpt lat="45.795716" lon="11.4266339"><ele>605.75</ele><time>2026-04-26T14:52:55.434Z</time></trkpt><trkpt lat="45.7956345" lon="11.4267991"><ele>601.0</ele><time>2026-04-26T14:52:56.435Z</time></trkpt><trkpt lat="45.7955435" lon="11.4269723"><ele>601.0</ele><time>2026-04-26T14:52:57.436Z</time></trkpt><trkpt lat="45.7954476" lon="11.4271392"><ele>601.0</ele><time>2026-04-26T14:52:58.438Z</time></trkpt><trkpt lat="45.7953375" lon="11.4272866"><ele>601.0</ele><time>2026-04-26T14:52:59.434Z</time></trkpt><trkpt lat="45.7952252" lon="11.427421"><ele>601.0</ele><time>2026-04-26T14:53:00.439Z</time></trkpt><trkpt lat="45.7951087" lon="11.4275468"><ele>600.5</ele><time>2026-04-26T14:53:01.436Z</time></trkpt><trkpt lat="45.7950009" lon="11.4276776"><ele>600.0</ele><time>2026-04-26T14:53:02.436Z</time></trkpt><trkpt lat="45.7949086" lon="11.4278252"><ele>599.5</ele><time>2026-04-26T14:53:03.435Z</time></trkpt><trkpt lat="45.7948248" lon="11.4279975"><ele>599.0</ele><time>2026-04-26T14:53:04.437Z</time></trkpt><trkpt lat="45.7947448" lon="11.4281838"><ele>599.0</ele><time>2026-04-26T14:53:05.434Z</time></trkpt><trkpt lat="45.7946679" lon="11.4283782"><ele>599.0</ele><time>2026-04-26T14:53:06.434Z</time></trkpt><trkpt lat="45.7946032" lon="11.4285611"><ele>599.0</ele><time>2026-04-26T14:53:07.434Z</time></trkpt><trkpt lat="45.7945482" lon="11.4287245"><ele>599.0</ele><time>2026-04-26T14:53:08.435Z</time></trkpt><trkpt lat="45.7944915" lon="11.4288769"><ele>600.8</ele><time>2026-04-26T14:53:09.435Z</time></trkpt><trkpt lat="45.7944268" lon="11.4290232"><ele>602.5999999999999</ele><time>2026-04-26T14:53:10.435Z</time></trkpt><trkpt lat="45.7943665" lon="11.4291596"><ele>604.4</ele><time>2026-04-26T14:53:11.436Z</time></trkpt><trkpt lat="45.7943087" lon="11.4292839"><ele>606.1999999999999</ele><time>2026-04-26T14:53:12.434Z</time></trkpt><trkpt lat="45.7942528" lon="11.4293978"><ele>608.0</ele><time>2026-04-26T14:53:13.435Z</time></trkpt><trkpt lat="45.7941965" lon="11.4295011"><ele>603.1666666666666</ele><time>2026-04-26T14:53:14.435Z</time></trkpt><trkpt lat="45.794148" lon="11.4296089"><ele>598.3333333333333</ele><time>2026-04-26T14:53:15.434Z</time></trkpt><trkpt lat="45.7941056" lon="11.4297088"><ele>593.5</ele><time>2026-04-26T14:53:16.434Z</time></trkpt><trkpt lat="45.794066" lon="11.4298203"><ele>588.6666666666666</ele><time>2026-04-26T14:53:17.433Z</time></trkpt><trkpt lat="45.7940356" lon="11.4299272"><ele>583.8333333333334</ele><time>2026-04-26T14:53:18.434Z</time></trkpt><trkpt lat="45.7940183" lon="11.4300403"><ele>579.0</ele><time>2026-04-26T14:53:19.436Z</time></trkpt><trkpt lat="45.7939983" lon="11.4301469"><ele>579.0</ele><time>2026-04-26T14:53:20.435Z</time></trkpt><trkpt lat="45.7939844" lon="11.4302483"><ele>579.0</ele><time>2026-04-26T14:53:21.435Z</time></trkpt><trkpt lat="45.793979" lon="11.4303436"><ele>579.0</ele><time>2026-04-26T14:53:22.434Z</time></trkpt><trkpt lat="45.7939527" lon="11.4304914"><ele>579.0</ele><time>2026-04-26T14:53:24.434Z</time></trkpt><trkpt lat="45.7938643" lon="11.4305491"><ele>579.0</ele><time>2026-04-26T14:53:26.433Z</time></trkpt><trkpt lat="45.7937985" lon="11.4304758"><ele>579.0</ele><time>2026-04-26T14:53:28.436Z</time></trkpt><trkpt lat="45.7938088" lon="11.4303104"><ele>579.0</ele><time>2026-04-26T14:53:29.439Z</time></trkpt><trkpt lat="45.7938436" lon="11.4301281"><ele>579.0</ele><time>2026-04-26T14:53:30.433Z</time></trkpt><trkpt lat="45.7938897" lon="11.4299326"><ele>579.0</ele><time>2026-04-26T14:53:31.433Z</time></trkpt><trkpt lat="45.7939383" lon="11.4296948"><ele>579.0</ele><time>2026-04-26T14:53:32.434Z</time></trkpt><trkpt lat="45.7939886" lon="11.4294548"><ele>577.0</ele><time>2026-04-26T14:53:33.434Z</time></trkpt><trkpt lat="45.7940395" lon="11.4292062"><ele>575.0</ele><time>2026-04-26T14:53:34.441Z</time></trkpt><trkpt lat="45.7940928" lon="11.4289499"><ele>573.0</ele><time>2026-04-26T14:53:35.434Z</time></trkpt><trkpt lat="45.794148" lon="11.4287015"><ele>569.3333333333334</ele><time>2026-04-26T14:53:36.435Z</time></trkpt><trkpt lat="45.7941944" lon="11.4284667"><ele>565.6666666666667</ele><time>2026-04-26T14:53:37.434Z</time></trkpt><trkpt lat="45.7942297" lon="11.4282393"><ele>562.0</ele><time>2026-04-26T14:53:38.433Z</time></trkpt><trkpt lat="45.7942575" lon="11.4280314"><ele>559.0</ele><time>2026-04-26T14:53:39.433Z</time></trkpt><trkpt lat="45.7942798" lon="11.427843"><ele>556.0</ele><time>2026-04-26T14:53:40.44Z</time></trkpt><trkpt lat="45.7943054" lon="11.4276652"><ele>553.0</ele><time>2026-04-26T14:53:41.435Z</time></trkpt><trkpt lat="45.794343" lon="11.4274961"><ele>550.0</ele><time>2026-04-26T14:53:42.434Z</time></trkpt><trkpt lat="45.7943764" lon="11.4273272"><ele>554.25</ele><time>2026-04-26T14:53:43.434Z</time></trkpt><trkpt lat="45.7944319" lon="11.4271558"><ele>558.5</ele><time>2026-04-26T14:53:44.432Z</time></trkpt><trkpt lat="45.7945035" lon="11.4269944"><ele>562.75</ele><time>2026-04-26T14:53:45.434Z</time></trkpt><trkpt lat="45.79459" lon="11.4268467"><ele>567.0</ele><time>2026-04-26T14:53:46.439Z</time></trkpt><trkpt lat="45.7946779" lon="11.4267143"><ele>567.0</ele><time>2026-04-26T14:53:47.434Z</time></trkpt><trkpt lat="45.7947616" lon="11.4265791"><ele>567.0</ele><time>2026-04-26T14:53:48.435Z</time></trkpt><trkpt lat="45.7948422" lon="11.4264293"><ele>567.0</ele><time>2026-04-26T14:53:49.435Z</time></trkpt><trkpt lat="45.7949062" lon="11.4262614"><ele>567.0</ele><time>2026-04-26T14:53:50.433Z</time></trkpt><trkpt lat="45.7949604" lon="11.4260688"><ele>567.0</ele><time>2026-04-26T14:53:51.435Z</time></trkpt><trkpt lat="45.7950127" lon="11.4258774"><ele>567.0</ele><time>2026-04-26T14:53:52.433Z</time></trkpt><trkpt lat="45.7950749" lon="11.4257037"><ele>567.0</ele><time>2026-04-26T14:53:53.436Z</time></trkpt><trkpt lat="45.7951432" lon="11.4255496"><ele>567.0</ele><time>2026-04-26T14:53:54.435Z</time></trkpt><trkpt lat="45.7951817" lon="11.4254263"><ele>567.0</ele><time>2026-04-26T14:53:55.435Z</time></trkpt><trkpt lat="45.7952217" lon="11.4253144"><ele>567.0</ele><time>2026-04-26T14:53:56.433Z</time></trkpt><trkpt lat="45.7952631" lon="11.4252208"><ele>567.0</ele><time>2026-04-26T14:53:57.434Z</time></trkpt><trkpt lat="45.795313" lon="11.4250727"><ele>567.0</ele><time>2026-04-26T14:53:59.436Z</time></trkpt><trkpt lat="45.7952893" lon="11.4249175"><ele>567.0</ele><time>2026-04-26T14:54:01.437Z</time></trkpt><trkpt lat="45.7951741" lon="11.4248516"><ele>564.0</ele><time>2026-04-26T14:54:03.434Z</time></trkpt><trkpt lat="45.7951082" lon="11.4248938"><ele>561.0</ele><time>2026-04-26T14:54:04.434Z</time></trkpt><trkpt lat="45.7950632" lon="11.4250055"><ele>558.0</ele><time>2026-04-26T14:54:05.443Z</time></trkpt><trkpt lat="45.7950192" lon="11.4251573"><ele>555.0</ele><time>2026-04-26T14:54:06.435Z</time></trkpt><trkpt lat="45.7949533" lon="11.4253286"><ele>552.0</ele><time>2026-04-26T14:54:07.433Z</time></trkpt><trkpt lat="45.7948731" lon="11.425498"><ele>552.0</ele><time>2026-04-26T14:54:08.435Z</time></trkpt><trkpt lat="45.7947915" lon="11.4256613"><ele>552.0</ele><time>2026-04-26T14:54:09.437Z</time></trkpt><trkpt lat="45.7947053" lon="11.4258243"><ele>552.0</ele><time>2026-04-26T14:54:10.435Z</time></trkpt><trkpt lat="45.7946125" lon="11.4259845"><ele>552.0</ele><time>2026-04-26T14:54:11.433Z</time></trkpt><trkpt lat="45.7945103" lon="11.4261273"><ele>552.0</ele><time>2026-04-26T14:54:12.434Z</time></trkpt><trkpt lat="45.7943808" lon="11.4262486"><ele>552.0</ele><time>2026-04-26T14:54:13.437Z</time></trkpt><trkpt lat="45.7942397" lon="11.426406"><ele>552.0</ele><time>2026-04-26T14:54:14.434Z</time></trkpt><trkpt lat="45.7940872" lon="11.4265751"><ele>551.3333333333334</ele><time>2026-04-26T14:54:15.435Z</time></trkpt><trkpt lat="45.7939432" lon="11.4267695"><ele>550.6666666666667</ele><time>2026-04-26T14:54:16.437Z</time></trkpt><trkpt lat="45.793814" lon="11.4269889"><ele>550.0</ele><time>2026-04-26T14:54:17.435Z</time></trkpt><trkpt lat="45.7937045" lon="11.4272095"><ele>550.0</ele><time>2026-04-26T14:54:18.434Z</time></trkpt><trkpt lat="45.793607" lon="11.42742"><ele>550.0</ele><time>2026-04-26T14:54:19.434Z</time></trkpt><trkpt lat="45.7935118" lon="11.4276108"><ele>550.0</ele><time>2026-04-26T14:54:20.434Z</time></trkpt><trkpt lat="45.7934169" lon="11.4277894"><ele>543.75</ele><time>2026-04-26T14:54:21.434Z</time></trkpt><trkpt lat="45.7933202" lon="11.4279582"><ele>537.5</ele><time>2026-04-26T14:54:22.436Z</time></trkpt><trkpt lat="45.7932263" lon="11.4281152"><ele>531.25</ele><time>2026-04-26T14:54:23.436Z</time></trkpt><trkpt lat="45.7931392" lon="11.4282591"><ele>525.0</ele><time>2026-04-26T14:54:24.434Z</time></trkpt><trkpt lat="45.7930629" lon="11.4283981"><ele>525.0</ele><time>2026-04-26T14:54:25.435Z</time></trkpt><trkpt lat="45.7930042" lon="11.428575"><ele>525.0</ele><time>2026-04-26T14:54:26.437Z</time></trkpt><trkpt lat="45.7929467" lon="11.4287919"><ele>525.0</ele><time>2026-04-26T14:54:27.433Z</time></trkpt><trkpt lat="45.7928985" lon="11.4290328"><ele>529.3333333333334</ele><time>2026-04-26T14:54:28.434Z</time></trkpt><trkpt lat="45.7928547" lon="11.4292698"><ele>533.6666666666667</ele><time>2026-04-26T14:54:29.434Z</time></trkpt><trkpt lat="45.7928187" lon="11.4294909"><ele>538.0</ele><time>2026-04-26T14:54:30.433Z</time></trkpt><trkpt lat="45.7927841" lon="11.4296775"><ele>540.0</ele><time>2026-04-26T14:54:31.434Z</time></trkpt><trkpt lat="45.7927465" lon="11.4298458"><ele>542.0</ele><time>2026-04-26T14:54:32.436Z</time></trkpt><trkpt lat="45.7926958" lon="11.4300127"><ele>544.0</ele><time>2026-04-26T14:54:33.434Z</time></trkpt><trkpt lat="45.7926276" lon="11.4301496"><ele>546.0</ele><time>2026-04-26T14:54:34.435Z</time></trkpt><trkpt lat="45.7925549" lon="11.4302626"><ele>539.0</ele><time>2026-04-26T14:54:35.435Z</time></trkpt><trkpt lat="45.7924747" lon="11.4303559"><ele>532.0</ele><time>2026-04-26T14:54:36.446Z</time></trkpt><trkpt lat="45.792369" lon="11.4303993"><ele>525.0</ele><time>2026-04-26T14:54:37.434Z</time></trkpt><trkpt lat="45.7922683" lon="11.4304162"><ele>518.0</ele><time>2026-04-26T14:54:38.435Z</time></trkpt><trkpt lat="45.7921689" lon="11.4304034"><ele>511.0</ele><time>2026-04-26T14:54:39.434Z</time></trkpt><trkpt lat="45.7920829" lon="11.4303715"><ele>511.0</ele><time>2026-04-26T14:54:40.434Z</time></trkpt><trkpt lat="45.7919883" lon="11.4303098"><ele>511.0</ele><time>2026-04-26T14:54:41.433Z</time></trkpt><trkpt lat="45.7919084" lon="11.4302613"><ele>511.0</ele><time>2026-04-26T14:54:42.434Z</time></trkpt><trkpt lat="45.7918285" lon="11.430211"><ele>511.0</ele><time>2026-04-26T14:54:43.433Z</time></trkpt><trkpt lat="45.7917431" lon="11.4301743"><ele>511.0</ele><time>2026-04-26T14:54:44.438Z</time></trkpt><trkpt lat="45.7916538" lon="11.4301733"><ele>512.0</ele><time>2026-04-26T14:54:45.436Z</time></trkpt><trkpt lat="45.7915478" lon="11.43023"><ele>513.0</ele><time>2026-04-26T14:54:46.437Z</time></trkpt><trkpt lat="45.7914325" lon="11.4303316"><ele>514.0</ele><time>2026-04-26T14:54:47.435Z</time></trkpt><trkpt lat="45.7912913" lon="11.4304746"><ele>515.0</ele><time>2026-04-26T14:54:48.437Z</time></trkpt><trkpt lat="45.7911305" lon="11.4306346"><ele>509.0</ele><time>2026-04-26T14:54:49.435Z</time></trkpt><trkpt lat="45.7909519" lon="11.4307956"><ele>503.0</ele><time>2026-04-26T14:54:50.433Z</time></trkpt><trkpt lat="45.7907645" lon="11.4309905"><ele>497.0</ele><time>2026-04-26T14:54:51.434Z</time></trkpt><trkpt lat="45.7905654" lon="11.4312044"><ele>493.0</ele><time>2026-04-26T14:54:52.434Z</time></trkpt><trkpt lat="45.7903446" lon="11.4313743"><ele>489.0</ele><time>2026-04-26T14:54:53.439Z</time></trkpt><trkpt lat="45.7901359" lon="11.4315591"><ele>489.0</ele><time>2026-04-26T14:54:54.436Z</time></trkpt><trkpt lat="45.7899387" lon="11.4317457"><ele>489.0</ele><time>2026-04-26T14:54:55.433Z</time></trkpt><trkpt lat="45.7897429" lon="11.4319226"><ele>489.0</ele><time>2026-04-26T14:54:56.435Z</time></trkpt><trkpt lat="45.7895556" lon="11.4320929"><ele>489.0</ele><time>2026-04-26T14:54:57.434Z</time></trkpt><trkpt lat="45.7893636" lon="11.4322354"><ele>489.0</ele><time>2026-04-26T14:54:58.434Z</time></trkpt><trkpt lat="45.789166" lon="11.4323144"><ele>488.33333333333337</ele><time>2026-04-26T14:54:59.434Z</time></trkpt><trkpt lat="45.7889771" lon="11.4323837"><ele>487.6666666666667</ele><time>2026-04-26T14:55:00.435Z</time></trkpt><trkpt lat="45.7887909" lon="11.4324237"><ele>487.0</ele><time>2026-04-26T14:55:01.433Z</time></trkpt><trkpt lat="45.7885902" lon="11.4323508"><ele>481.6666666666667</ele><time>2026-04-26T14:55:02.436Z</time></trkpt><trkpt lat="45.7884043" lon="11.432422"><ele>476.33333333333337</ele><time>2026-04-26T14:55:03.435Z</time></trkpt><trkpt lat="45.7882356" lon="11.4325544"><ele>471.0</ele><time>2026-04-26T14:55:04.439Z</time></trkpt><trkpt lat="45.7880721" lon="11.4327389"><ele>471.0</ele><time>2026-04-26T14:55:05.436Z</time></trkpt><trkpt lat="45.7879285" lon="11.4329719"><ele>471.0</ele><time>2026-04-26T14:55:06.435Z</time></trkpt><trkpt lat="45.7877903" lon="11.4332229"><ele>471.0</ele><time>2026-04-26T14:55:07.44Z</time></trkpt><trkpt lat="45.7876589" lon="11.4334709"><ele>470.33333333333337</ele><time>2026-04-26T14:55:08.434Z</time></trkpt><trkpt lat="45.7875311" lon="11.4337074"><ele>469.6666666666667</ele><time>2026-04-26T14:55:09.434Z</time></trkpt><trkpt lat="45.787414" lon="11.4339483"><ele>469.0</ele><time>2026-04-26T14:55:10.437Z</time></trkpt><trkpt lat="45.7873199" lon="11.4342026"><ele>469.0</ele><time>2026-04-26T14:55:11.434Z</time></trkpt><trkpt lat="45.7872536" lon="11.4344562"><ele>469.0</ele><time>2026-04-26T14:55:12.436Z</time></trkpt><trkpt lat="45.7872105" lon="11.4347013"><ele>469.0</ele><time>2026-04-26T14:55:13.435Z</time></trkpt><trkpt lat="45.7871988" lon="11.4349338"><ele>468.33333333333337</ele><time>2026-04-26T14:55:14.434Z</time></trkpt><trkpt lat="45.7872341" lon="11.4351459"><ele>467.66666666666663</ele><time>2026-04-26T14:55:15.434Z</time></trkpt><trkpt lat="45.7873157" lon="11.4353471"><ele>467.0</ele><time>2026-04-26T14:55:16.435Z</time></trkpt><trkpt lat="45.7874244" lon="11.435505"><ele>466.3333333333333</ele><time>2026-04-26T14:55:17.433Z</time></trkpt><trkpt lat="45.7875696" lon="11.4355959"><ele>465.66666666666663</ele><time>2026-04-26T14:55:18.435Z</time></trkpt><trkpt lat="45.7877135" lon="11.4356387"><ele>465.0</ele><time>2026-04-26T14:55:19.433Z</time></trkpt><trkpt lat="45.7878652" lon="11.4356242"><ele>465.0</ele><time>2026-04-26T14:55:20.434Z</time></trkpt><trkpt lat="45.7880067" lon="11.435611"><ele>465.0</ele><time>2026-04-26T14:55:21.433Z</time></trkpt><trkpt lat="45.7881348" lon="11.4356406"><ele>465.0</ele><time>2026-04-26T14:55:22.433Z</time></trkpt><trkpt lat="45.788245" lon="11.4357269"><ele>465.0</ele><time>2026-04-26T14:55:23.434Z</time></trkpt><trkpt lat="45.7883309" lon="11.4358546"><ele>465.0</ele><time>2026-04-26T14:55:24.434Z</time></trkpt><trkpt lat="45.7883732" lon="11.4360331"><ele>465.0</ele><time>2026-04-26T14:55:25.436Z</time></trkpt><trkpt lat="45.7883733" lon="11.4362325"><ele>465.0</ele><time>2026-04-26T14:55:26.436Z</time></trkpt><trkpt lat="45.7883212" lon="11.4364269"><ele>465.0</ele><time>2026-04-26T14:55:27.434Z</time></trkpt><trkpt lat="45.7882241" lon="11.4366121"><ele>464.66666666666663</ele><time>2026-04-26T14:55:28.435Z</time></trkpt><trkpt lat="45.7880947" lon="11.4368152"><ele>464.3333333333333</ele><time>2026-04-26T14:55:29.437Z</time></trkpt><trkpt lat="45.7879588" lon="11.4370317"><ele>464.0</ele><time>2026-04-26T14:55:30.435Z</time></trkpt><trkpt lat="45.787816" lon="11.4372629"><ele>462.0</ele><time>2026-04-26T14:55:31.436Z</time></trkpt><trkpt lat="45.7876675" lon="11.4374929"><ele>460.0</ele><time>2026-04-26T14:55:32.434Z</time></trkpt><trkpt lat="45.7875193" lon="11.4377387"><ele>458.0</ele><time>2026-04-26T14:55:33.439Z</time></trkpt><trkpt lat="45.7873788" lon="11.4379822"><ele>458.0</ele><time>2026-04-26T14:55:34.441Z</time></trkpt><trkpt lat="45.7872392" lon="11.4382115"><ele>458.0</ele><time>2026-04-26T14:55:35.434Z</time></trkpt><trkpt lat="45.7871012" lon="11.4384334"><ele>458.0</ele><time>2026-04-26T14:55:36.436Z</time></trkpt><trkpt lat="45.7869509" lon="11.4386395"><ele>455.0</ele><time>2026-04-26T14:55:37.435Z</time></trkpt><trkpt lat="45.7867796" lon="11.4388312"><ele>452.0</ele><time>2026-04-26T14:55:38.439Z</time></trkpt><trkpt lat="45.7865908" lon="11.4390014"><ele>449.0</ele><time>2026-04-26T14:55:39.435Z</time></trkpt><trkpt lat="45.78639" lon="11.4391752"><ele>449.0</ele><time>2026-04-26T14:55:40.434Z</time></trkpt><trkpt lat="45.786167" lon="11.4393184"><ele>449.0</ele><time>2026-04-26T14:55:41.434Z</time></trkpt><trkpt lat="45.7859371" lon="11.439457"><ele>449.5</ele><time>2026-04-26T14:55:42.435Z</time></trkpt><trkpt lat="45.7857224" lon="11.439608"><ele>450.0</ele><time>2026-04-26T14:55:43.434Z</time></trkpt><trkpt lat="45.7855249" lon="11.4397583"><ele>450.0</ele><time>2026-04-26T14:55:44.434Z</time></trkpt><trkpt lat="45.7853551" lon="11.4399272"><ele>450.0</ele><time>2026-04-26T14:55:45.435Z</time></trkpt><trkpt lat="45.7851949" lon="11.4400937"><ele>450.0</ele><time>2026-04-26T14:55:46.436Z</time></trkpt><trkpt lat="45.7850438" lon="11.4402704"><ele>445.33333333333337</ele><time>2026-04-26T14:55:47.434Z</time></trkpt><trkpt lat="45.784905" lon="11.4404612"><ele>440.6666666666667</ele><time>2026-04-26T14:55:48.434Z</time></trkpt><trkpt lat="45.7847797" lon="11.4406803"><ele>436.0</ele><time>2026-04-26T14:55:49.435Z</time></trkpt><trkpt lat="45.7846593" lon="11.4409169"><ele>436.0</ele><time>2026-04-26T14:55:50.435Z</time></trkpt><trkpt lat="45.7845319" lon="11.4411624"><ele>436.0</ele><time>2026-04-26T14:55:51.435Z</time></trkpt><trkpt lat="45.7843949" lon="11.4414076"><ele>436.0</ele><time>2026-04-26T14:55:52.439Z</time></trkpt><trkpt lat="45.7842494" lon="11.4416504"><ele>435.0</ele><time>2026-04-26T14:55:53.434Z</time></trkpt><trkpt lat="45.7840935" lon="11.4418813"><ele>434.0</ele><time>2026-04-26T14:55:54.438Z</time></trkpt><trkpt lat="45.7839424" lon="11.4421091"><ele>433.0</ele><time>2026-04-26T14:55:55.434Z</time></trkpt><trkpt lat="45.7837992" lon="11.4423296"><ele>433.0</ele><time>2026-04-26T14:55:56.436Z</time></trkpt><trkpt lat="45.7836693" lon="11.4425543"><ele>433.0</ele><time>2026-04-26T14:55:57.434Z</time></trkpt><trkpt lat="45.7835524" lon="11.4427803"><ele>433.0</ele><time>2026-04-26T14:55:58.433Z</time></trkpt><trkpt lat="45.7834405" lon="11.443016"><ele>426.33333333333337</ele><time>2026-04-26T14:55:59.439Z</time></trkpt><trkpt lat="45.7833202" lon="11.4432524"><ele>419.66666666666663</ele><time>2026-04-26T14:56:00.435Z</time></trkpt><trkpt lat="45.7831951" lon="11.4434774"><ele>413.0</ele><time>2026-04-26T14:56:01.435Z</time></trkpt><trkpt lat="45.783072" lon="11.4436927"><ele>417.0</ele><time>2026-04-26T14:56:02.433Z</time></trkpt><trkpt lat="45.7829521" lon="11.4438991"><ele>421.0</ele><time>2026-04-26T14:56:03.433Z</time></trkpt><trkpt lat="45.7828415" lon="11.444106"><ele>425.0</ele><time>2026-04-26T14:56:04.443Z</time></trkpt><trkpt lat="45.7827443" lon="11.4443141"><ele>416.0</ele><time>2026-04-26T14:56:05.435Z</time></trkpt><trkpt lat="45.7826581" lon="11.4445086"><ele>407.0</ele><time>2026-04-26T14:56:06.435Z</time></trkpt><trkpt lat="45.7825953" lon="11.44472"><ele>398.0</ele><time>2026-04-26T14:56:07.434Z</time></trkpt><trkpt lat="45.7825384" lon="11.4449062"><ele>398.0</ele><time>2026-04-26T14:56:08.434Z</time></trkpt><trkpt lat="45.7824983" lon="11.4450557"><ele>398.0</ele><time>2026-04-26T14:56:09.433Z</time></trkpt><trkpt lat="45.7824472" lon="11.445169"><ele>398.0</ele><time>2026-04-26T14:56:10.435Z</time></trkpt><trkpt lat="45.782377" lon="11.4452184"><ele>398.0</ele><time>2026-04-26T14:56:11.435Z</time></trkpt><trkpt lat="45.78231" lon="11.4451917"><ele>398.0</ele><time>2026-04-26T14:56:12.435Z</time></trkpt><trkpt lat="45.7822765" lon="11.4449285"><ele>398.0</ele><time>2026-04-26T14:56:14.437Z</time></trkpt><trkpt lat="45.7823212" lon="11.4447476"><ele>398.0</ele><time>2026-04-26T14:56:15.435Z</time></trkpt><trkpt lat="45.7823689" lon="11.4445377"><ele>398.0</ele><time>2026-04-26T14:56:16.445Z</time></trkpt><trkpt lat="45.7824228" lon="11.4443045"><ele>396.3333333333333</ele><time>2026-04-26T14:56:17.437Z</time></trkpt><trkpt lat="45.7824819" lon="11.4440671"><ele>394.66666666666663</ele><time>2026-04-26T14:56:18.435Z</time></trkpt><trkpt lat="45.7825685" lon="11.4438336"><ele>393.0</ele><time>2026-04-26T14:56:19.438Z</time></trkpt><trkpt lat="45.7826998" lon="11.4436031"><ele>403.0</ele><time>2026-04-26T14:56:20.436Z</time></trkpt><trkpt lat="45.7828479" lon="11.4433733"><ele>413.0</ele><time>2026-04-26T14:56:21.437Z</time></trkpt><trkpt lat="45.7829982" lon="11.4431077"><ele>401.0</ele><time>2026-04-26T14:56:22.434Z</time></trkpt><trkpt lat="45.7831274" lon="11.442839"><ele>389.0</ele><time>2026-04-26T14:56:23.433Z</time></trkpt><trkpt lat="45.7832466" lon="11.4425452"><ele>389.0</ele><time>2026-04-26T14:56:24.434Z</time></trkpt><trkpt lat="45.7833622" lon="11.4422368"><ele>389.0</ele><time>2026-04-26T14:56:25.434Z</time></trkpt><trkpt lat="45.7834775" lon="11.441928"><ele>399.0</ele><time>2026-04-26T14:56:26.434Z</time></trkpt><trkpt lat="45.7835886" lon="11.4416211"><ele>409.0</ele><time>2026-04-26T14:56:27.455Z</time></trkpt><trkpt lat="45.783691" lon="11.4413307"><ele>403.0</ele><time>2026-04-26T14:56:28.434Z</time></trkpt><trkpt lat="45.7837757" lon="11.4410413"><ele>397.0</ele><time>2026-04-26T14:56:29.434Z</time></trkpt><trkpt lat="45.7838839" lon="11.440766"><ele>391.0</ele><time>2026-04-26T14:56:30.436Z</time></trkpt><trkpt lat="45.7839878" lon="11.440508"><ele>384.6666666666667</ele><time>2026-04-26T14:56:31.433Z</time></trkpt><trkpt lat="45.7841023" lon="11.4402482"><ele>378.33333333333337</ele><time>2026-04-26T14:56:32.434Z</time></trkpt><trkpt lat="45.7842089" lon="11.4399872"><ele>372.0</ele><time>2026-04-26T14:56:33.439Z</time></trkpt><trkpt lat="45.7843196" lon="11.4397443"><ele>376.66666666666663</ele><time>2026-04-26T14:56:34.437Z</time></trkpt><trkpt lat="45.7844175" lon="11.4394969"><ele>381.3333333333333</ele><time>2026-04-26T14:56:35.433Z</time></trkpt><trkpt lat="45.7844797" lon="11.4392214"><ele>386.0</ele><time>2026-04-26T14:56:36.434Z</time></trkpt><trkpt lat="45.7845162" lon="11.4389528"><ele>383.0</ele><time>2026-04-26T14:56:37.435Z</time></trkpt><trkpt lat="45.7845434" lon="11.4386894"><ele>380.0</ele><time>2026-04-26T14:56:38.435Z</time></trkpt><trkpt lat="45.7845768" lon="11.4384456"><ele>377.0</ele><time>2026-04-26T14:56:39.437Z</time></trkpt><trkpt lat="45.784608" lon="11.4382189"><ele>377.0</ele><time>2026-04-26T14:56:40.436Z</time></trkpt><trkpt lat="45.784623" lon="11.4380267"><ele>377.0</ele><time>2026-04-26T14:56:41.435Z</time></trkpt><trkpt lat="45.7845961" lon="11.4378612"><ele>377.0</ele><time>2026-04-26T14:56:42.435Z</time></trkpt><trkpt lat="45.7845254" lon="11.4377582"><ele>377.0</ele><time>2026-04-26T14:56:43.435Z</time></trkpt><trkpt lat="45.7844279" lon="11.4377307"><ele>371.25</ele><time>2026-04-26T14:56:44.434Z</time></trkpt><trkpt lat="45.784331" lon="11.4377958"><ele>365.5</ele><time>2026-04-26T14:56:45.434Z</time></trkpt><trkpt lat="45.7842614" lon="11.4379377"><ele>359.75</ele><time>2026-04-26T14:56:46.433Z</time></trkpt><trkpt lat="45.784231" lon="11.4381371"><ele>354.0</ele><time>2026-04-26T14:56:47.435Z</time></trkpt><trkpt lat="45.7842248" lon="11.4383672"><ele>354.0</ele><time>2026-04-26T14:56:48.438Z</time></trkpt><trkpt lat="45.7842207" lon="11.4386164"><ele>354.0</ele><time>2026-04-26T14:56:49.433Z</time></trkpt><trkpt lat="45.78419" lon="11.438885"><ele>354.0</ele><time>2026-04-26T14:56:50.435Z</time></trkpt><trkpt lat="45.7841531" lon="11.4391481"><ele>354.0</ele><time>2026-04-26T14:56:51.436Z</time></trkpt><trkpt lat="45.7840548" lon="11.4393986"><ele>354.0</ele><time>2026-04-26T14:56:52.435Z</time></trkpt><trkpt lat="45.7839225" lon="11.4396225"><ele>354.0</ele><time>2026-04-26T14:56:53.434Z</time></trkpt><trkpt lat="45.7837157" lon="11.43984"><ele>347.0</ele><time>2026-04-26T14:56:54.439Z</time></trkpt><trkpt lat="45.78353" lon="11.4400805"><ele>340.0</ele><time>2026-04-26T14:56:55.435Z</time></trkpt><trkpt lat="45.7833802" lon="11.4403154"><ele>344.66666666666663</ele><time>2026-04-26T14:56:56.434Z</time></trkpt><trkpt lat="45.7832424" lon="11.4405417"><ele>349.3333333333333</ele><time>2026-04-26T14:56:57.435Z</time></trkpt><trkpt lat="45.7831255" lon="11.440778"><ele>354.0</ele><time>2026-04-26T14:56:58.433Z</time></trkpt><trkpt lat="45.782997" lon="11.4409846"><ele>354.0</ele><time>2026-04-26T14:56:59.434Z</time></trkpt><trkpt lat="45.7828745" lon="11.4411828"><ele>354.0</ele><time>2026-04-26T14:57:00.435Z</time></trkpt><trkpt lat="45.782743" lon="11.4413571"><ele>354.0</ele><time>2026-04-26T14:57:01.434Z</time></trkpt><trkpt lat="45.7825885" lon="11.4415112"><ele>350.0</ele><time>2026-04-26T14:57:02.434Z</time></trkpt><trkpt lat="45.7824128" lon="11.4416329"><ele>346.0</ele><time>2026-04-26T14:57:03.434Z</time></trkpt><trkpt lat="45.7822332" lon="11.4417393"><ele>342.0</ele><time>2026-04-26T14:57:04.434Z</time></trkpt><trkpt lat="45.7820582" lon="11.4418479"><ele>342.0</ele><time>2026-04-26T14:57:05.434Z</time></trkpt><trkpt lat="45.7818955" lon="11.4419779"><ele>342.0</ele><time>2026-04-26T14:57:06.434Z</time></trkpt><trkpt lat="45.7817509" lon="11.4421247"><ele>342.0</ele><time>2026-04-26T14:57:07.433Z</time></trkpt><trkpt lat="45.7816191" lon="11.4422956"><ele>340.3333333333333</ele><time>2026-04-26T14:57:08.434Z</time></trkpt><trkpt lat="45.7815013" lon="11.4424889"><ele>338.66666666666663</ele><time>2026-04-26T14:57:09.434Z</time></trkpt><trkpt lat="45.7813932" lon="11.4426958"><ele>337.0</ele><time>2026-04-26T14:57:10.434Z</time></trkpt><trkpt lat="45.7812997" lon="11.4429093"><ele>341.0</ele><time>2026-04-26T14:57:11.437Z</time></trkpt><trkpt lat="45.7812078" lon="11.4431126"><ele>345.0</ele><time>2026-04-26T14:57:12.434Z</time></trkpt><trkpt lat="45.7811163" lon="11.4433118"><ele>349.0</ele><time>2026-04-26T14:57:13.437Z</time></trkpt><trkpt lat="45.7810262" lon="11.4435013"><ele>341.3333333333333</ele><time>2026-04-26T14:57:14.434Z</time></trkpt><trkpt lat="45.7809393" lon="11.4436919"><ele>333.6666666666667</ele><time>2026-04-26T14:57:15.435Z</time></trkpt><trkpt lat="45.7808648" lon="11.4438817"><ele>326.0</ele><time>2026-04-26T14:57:16.438Z</time></trkpt><trkpt lat="45.7807997" lon="11.4440816"><ele>326.0</ele><time>2026-04-26T14:57:17.435Z</time></trkpt><trkpt lat="45.7807387" lon="11.4442943"><ele>326.0</ele><time>2026-04-26T14:57:18.435Z</time></trkpt><trkpt lat="45.7806891" lon="11.4445041"><ele>326.0</ele><time>2026-04-26T14:57:19.438Z</time></trkpt><trkpt lat="45.7806474" lon="11.4447111"><ele>328.5</ele><time>2026-04-26T14:57:20.436Z</time></trkpt><trkpt lat="45.7806079" lon="11.4449148"><ele>331.0</ele><time>2026-04-26T14:57:21.436Z</time></trkpt><trkpt lat="45.7805689" lon="11.4451151"><ele>333.5</ele><time>2026-04-26T14:57:22.436Z</time></trkpt><trkpt lat="45.7805276" lon="11.4453125"><ele>336.0</ele><time>2026-04-26T14:57:23.435Z</time></trkpt><trkpt lat="45.7804886" lon="11.4455034"><ele>336.0</ele><time>2026-04-26T14:57:24.44Z</time></trkpt><trkpt lat="45.780452" lon="11.4456899"><ele>336.0</ele><time>2026-04-26T14:57:25.435Z</time></trkpt><trkpt lat="45.7804175" lon="11.445881"><ele>336.0</ele><time>2026-04-26T14:57:26.434Z</time></trkpt><trkpt lat="45.7803776" lon="11.446083"><ele>336.0</ele><time>2026-04-26T14:57:27.433Z</time></trkpt><trkpt lat="45.7803369" lon="11.4462767"><ele>337.0</ele><time>2026-04-26T14:57:28.435Z</time></trkpt><trkpt lat="45.7803022" lon="11.4464737"><ele>338.0</ele><time>2026-04-26T14:57:29.435Z</time></trkpt><trkpt lat="45.7802688" lon="11.4466764"><ele>339.0</ele><time>2026-04-26T14:57:30.435Z</time></trkpt><trkpt lat="45.7802288" lon="11.4468596"><ele>340.0</ele><time>2026-04-26T14:57:31.434Z</time></trkpt><trkpt lat="45.7801802" lon="11.4470438"><ele>333.0</ele><time>2026-04-26T14:57:32.435Z</time></trkpt><trkpt lat="45.7801223" lon="11.4472207"><ele>326.0</ele><time>2026-04-26T14:57:33.436Z</time></trkpt><trkpt lat="45.7800475" lon="11.4473945"><ele>319.0</ele><time>2026-04-26T14:57:34.434Z</time></trkpt><trkpt lat="45.7799491" lon="11.4475553"><ele>312.0</ele><time>2026-04-26T14:57:35.437Z</time></trkpt><trkpt lat="45.7798412" lon="11.4477022"><ele>312.0</ele><time>2026-04-26T14:57:36.434Z</time></trkpt><trkpt lat="45.7797179" lon="11.4478645"><ele>312.0</ele><time>2026-04-26T14:57:37.434Z</time></trkpt><trkpt lat="45.7795929" lon="11.4480258"><ele>312.0</ele><time>2026-04-26T14:57:38.435Z</time></trkpt><trkpt lat="45.779464" lon="11.4481863"><ele>306.6666666666667</ele><time>2026-04-26T14:57:39.436Z</time></trkpt><trkpt lat="45.779331" lon="11.448351"><ele>301.33333333333337</ele><time>2026-04-26T14:57:40.435Z</time></trkpt><trkpt lat="45.7791982" lon="11.4485207"><ele>296.0</ele><time>2026-04-26T14:57:41.435Z</time></trkpt><trkpt lat="45.7790607" lon="11.4486925"><ele>300.33333333333337</ele><time>2026-04-26T14:57:42.434Z</time></trkpt><trkpt lat="45.7789391" lon="11.4488504"><ele>304.6666666666667</ele><time>2026-04-26T14:57:43.434Z</time></trkpt><trkpt lat="45.778822" lon="11.4490029"><ele>309.0</ele><time>2026-04-26T14:57:44.433Z</time></trkpt><trkpt lat="45.7787071" lon="11.44915"><ele>309.0</ele><time>2026-04-26T14:57:45.437Z</time></trkpt><trkpt lat="45.7785947" lon="11.4492894"><ele>309.0</ele><time>2026-04-26T14:57:46.434Z</time></trkpt><trkpt lat="45.7784829" lon="11.449431"><ele>309.0</ele><time>2026-04-26T14:57:47.434Z</time></trkpt><trkpt lat="45.7783746" lon="11.4495664"><ele>309.0</ele><time>2026-04-26T14:57:48.433Z</time></trkpt><trkpt lat="45.7782701" lon="11.4496972"><ele>307.25</ele><time>2026-04-26T14:57:49.433Z</time></trkpt><trkpt lat="45.778164" lon="11.4498175"><ele>305.5</ele><time>2026-04-26T14:57:50.435Z</time></trkpt><trkpt lat="45.7780549" lon="11.4499279"><ele>303.75</ele><time>2026-04-26T14:57:51.435Z</time></trkpt><trkpt lat="45.7779429" lon="11.4500215"><ele>302.0</ele><time>2026-04-26T14:57:52.433Z</time></trkpt><trkpt lat="45.7778207" lon="11.4501094"><ele>302.0</ele><time>2026-04-26T14:57:53.435Z</time></trkpt><trkpt lat="45.7776856" lon="11.4501745"><ele>302.0</ele><time>2026-04-26T14:57:54.442Z</time></trkpt><trkpt lat="45.7775522" lon="11.4502295"><ele>302.0</ele><time>2026-04-26T14:57:55.434Z</time></trkpt><trkpt lat="45.7774256" lon="11.450264"><ele>302.0</ele><time>2026-04-26T14:57:56.435Z</time></trkpt><trkpt lat="45.7773036" lon="11.4502819"><ele>297.6</ele><time>2026-04-26T14:57:57.434Z</time></trkpt><trkpt lat="45.7771931" lon="11.4502913"><ele>293.2</ele><time>2026-04-26T14:57:58.434Z</time></trkpt><trkpt lat="45.7770969" lon="11.4502827"><ele>288.8</ele><time>2026-04-26T14:57:59.433Z</time></trkpt><trkpt lat="45.7770093" lon="11.4502661"><ele>284.4</ele><time>2026-04-26T14:58:00.435Z</time></trkpt><trkpt lat="45.776925" lon="11.4502436"><ele>280.0</ele><time>2026-04-26T14:58:01.433Z</time></trkpt><trkpt lat="45.7768425" lon="11.4502186"><ele>279.0</ele><time>2026-04-26T14:58:02.434Z</time></trkpt><trkpt lat="45.7767507" lon="11.4501846"><ele>278.0</ele><time>2026-04-26T14:58:03.434Z</time></trkpt><trkpt lat="45.7766592" lon="11.4501455"><ele>277.0</ele><time>2026-04-26T14:58:04.432Z</time></trkpt><trkpt lat="45.7765673" lon="11.4501034"><ele>276.0</ele><time>2026-04-26T14:58:05.435Z</time></trkpt><trkpt lat="45.7764799" lon="11.4500659"><ele>275.0</ele><time>2026-04-26T14:58:06.433Z</time></trkpt><trkpt lat="45.7763987" lon="11.4500327"><ele>275.0</ele><time>2026-04-26T14:58:07.434Z</time></trkpt><trkpt lat="45.77632" lon="11.4499976"><ele>275.0</ele><time>2026-04-26T14:58:08.437Z</time></trkpt><trkpt lat="45.7762447" lon="11.4499649"><ele>275.0</ele><time>2026-04-26T14:58:09.434Z</time></trkpt><trkpt lat="45.7761658" lon="11.4499349"><ele>275.0</ele><time>2026-04-26T14:58:10.433Z</time></trkpt><trkpt lat="45.7760661" lon="11.4499036"><ele>275.0</ele><time>2026-04-26T14:58:11.434Z</time></trkpt><trkpt lat="45.7759569" lon="11.4498609"><ele>274.6666666666667</ele><time>2026-04-26T14:58:12.433Z</time></trkpt><trkpt lat="45.7758521" lon="11.4498209"><ele>274.33333333333337</ele><time>2026-04-26T14:58:13.432Z</time></trkpt><trkpt lat="45.7757602" lon="11.4497805"><ele>274.0</ele><time>2026-04-26T14:58:14.434Z</time></trkpt><trkpt lat="45.7756797" lon="11.4497355"><ele>273.6666666666667</ele><time>2026-04-26T14:58:15.433Z</time></trkpt><trkpt lat="45.7756169" lon="11.4496861"><ele>273.3333333333333</ele><time>2026-04-26T14:58:16.435Z</time></trkpt><trkpt lat="45.7755713" lon="11.449607"><ele>273.0</ele><time>2026-04-26T14:58:17.434Z</time></trkpt><trkpt lat="45.7755428" lon="11.4494944"><ele>272.57142857142856</ele><time>2026-04-26T14:58:18.432Z</time></trkpt><trkpt lat="45.77552" lon="11.4494003"><ele>272.1428571428571</ele><time>2026-04-26T14:58:19.432Z</time></trkpt><trkpt lat="45.7754795" lon="11.4493257"><ele>271.7142857142857</ele><time>2026-04-26T14:58:20.434Z</time></trkpt><trkpt lat="45.7754188" lon="11.4492791"><ele>271.2857142857143</ele><time>2026-04-26T14:58:21.44Z</time></trkpt><trkpt lat="45.7753499" lon="11.4492707"><ele>270.85714285714283</ele><time>2026-04-26T14:58:22.434Z</time></trkpt><trkpt lat="45.7752794" lon="11.4492943"><ele>270.42857142857144</ele><time>2026-04-26T14:58:23.434Z</time></trkpt><trkpt lat="45.7752164" lon="11.449349"><ele>270.0</ele><time>2026-04-26T14:58:24.433Z</time></trkpt><trkpt lat="45.7751564" lon="11.4494156"><ele>269.0</ele><time>2026-04-26T14:58:25.435Z</time></trkpt><trkpt lat="45.7750886" lon="11.4494771"><ele>268.0</ele><time>2026-04-26T14:58:26.432Z</time></trkpt><trkpt lat="45.775011" lon="11.4495117"><ele>267.0</ele><time>2026-04-26T14:58:27.434Z</time></trkpt><trkpt lat="45.7749231" lon="11.4495426"><ele>266.0</ele><time>2026-04-26T14:58:28.441Z</time></trkpt><trkpt lat="45.7748298" lon="11.4495819"><ele>265.0</ele><time>2026-04-26T14:58:29.434Z</time></trkpt><trkpt lat="45.7747273" lon="11.4496465"><ele>265.0</ele><time>2026-04-26T14:58:30.436Z</time></trkpt><trkpt lat="45.7745099" lon="11.4498724"><ele>265.0</ele><time>2026-04-26T14:58:32.433Z</time></trkpt><trkpt lat="45.7743884" lon="11.4500192"><ele>265.0</ele><time>2026-04-26T14:58:33.434Z</time></trkpt><trkpt lat="45.7742606" lon="11.4501756"><ele>264.0</ele><time>2026-04-26T14:58:34.434Z</time></trkpt><trkpt lat="45.7741326" lon="11.4503253"><ele>263.0</ele><time>2026-04-26T14:58:35.434Z</time></trkpt><trkpt lat="45.7740107" lon="11.450469"><ele>262.0</ele><time>2026-04-26T14:58:36.435Z</time></trkpt><trkpt lat="45.7738923" lon="11.4506117"><ele>261.75</ele><time>2026-04-26T14:58:37.436Z</time></trkpt><trkpt lat="45.7737825" lon="11.450741"><ele>261.5</ele><time>2026-04-26T14:58:38.435Z</time></trkpt><trkpt lat="45.7736767" lon="11.4508684"><ele>261.25</ele><time>2026-04-26T14:58:39.434Z</time></trkpt><trkpt lat="45.7735744" lon="11.4509971"><ele>261.0</ele><time>2026-04-26T14:58:40.434Z</time></trkpt><trkpt lat="45.7734682" lon="11.451126"><ele>260.75</ele><time>2026-04-26T14:58:41.433Z</time></trkpt><trkpt lat="45.7733594" lon="11.4512587"><ele>260.5</ele><time>2026-04-26T14:58:42.434Z</time></trkpt><trkpt lat="45.7732502" lon="11.4513961"><ele>260.25</ele><time>2026-04-26T14:58:43.434Z</time></trkpt><trkpt lat="45.7731373" lon="11.4515292"><ele>260.0</ele><time>2026-04-26T14:58:44.433Z</time></trkpt><trkpt lat="45.773025" lon="11.4516689"><ele>259.75</ele><time>2026-04-26T14:58:45.434Z</time></trkpt><trkpt lat="45.7729122" lon="11.4518081"><ele>259.5</ele><time>2026-04-26T14:58:46.433Z</time></trkpt><trkpt lat="45.7727973" lon="11.4519438"><ele>259.25</ele><time>2026-04-26T14:58:47.435Z</time></trkpt><trkpt lat="45.7726836" lon="11.4520703"><ele>259.0</ele><time>2026-04-26T14:58:48.435Z</time></trkpt><trkpt lat="45.7725688" lon="11.4521773"><ele>256.75</ele><time>2026-04-26T14:58:49.433Z</time></trkpt><trkpt lat="45.7724458" lon="11.4522706"><ele>254.5</ele><time>2026-04-26T14:58:50.434Z</time></trkpt><trkpt lat="45.7723123" lon="11.4523595"><ele>252.25</ele><time>2026-04-26T14:58:51.435Z</time></trkpt><trkpt lat="45.7721705" lon="11.4524414"><ele>250.0</ele><time>2026-04-26T14:58:52.434Z</time></trkpt><trkpt lat="45.7720203" lon="11.4525124"><ele>250.0</ele><time>2026-04-26T14:58:53.434Z</time></trkpt><trkpt lat="45.7718644" lon="11.4525736"><ele>250.0</ele><time>2026-04-26T14:58:54.435Z</time></trkpt><trkpt lat="45.7717045" lon="11.4526315"><ele>250.0</ele><time>2026-04-26T14:58:55.433Z</time></trkpt><trkpt lat="45.7715445" lon="11.4526913"><ele>247.5</ele><time>2026-04-26T14:58:56.434Z</time></trkpt><trkpt lat="45.7713977" lon="11.4527514"><ele>245.0</ele><time>2026-04-26T14:58:57.432Z</time></trkpt><trkpt lat="45.7712623" lon="11.4528151"><ele>242.5</ele><time>2026-04-26T14:58:58.434Z</time></trkpt><trkpt lat="45.771136" lon="11.4528968"><ele>240.0</ele><time>2026-04-26T14:58:59.433Z</time></trkpt><trkpt lat="45.7710145" lon="11.4530124"><ele>238.5</ele><time>2026-04-26T14:59:00.434Z</time></trkpt><trkpt lat="45.7709008" lon="11.453155"><ele>237.0</ele><time>2026-04-26T14:59:01.434Z</time></trkpt><trkpt lat="45.7708069" lon="11.4533088"><ele>235.5</ele><time>2026-04-26T14:59:02.433Z</time></trkpt><trkpt lat="45.7707294" lon="11.453481"><ele>234.0</ele><time>2026-04-26T14:59:03.438Z</time></trkpt><trkpt lat="45.7706765" lon="11.4536762"><ele>235.0</ele><time>2026-04-26T14:59:04.432Z</time></trkpt><trkpt lat="45.7706545" lon="11.4538798"><ele>236.0</ele><time>2026-04-26T14:59:05.433Z</time></trkpt><trkpt lat="45.7706481" lon="11.4540957"><ele>237.0</ele><time>2026-04-26T14:59:06.434Z</time></trkpt><trkpt lat="45.7706618" lon="11.4543118"><ele>238.0</ele><time>2026-04-26T14:59:07.434Z</time></trkpt><trkpt lat="45.7706878" lon="11.4545251"><ele>237.0</ele><time>2026-04-26T14:59:08.433Z</time></trkpt><trkpt lat="45.7707143" lon="11.4547253"><ele>236.0</ele><time>2026-04-26T14:59:09.435Z</time></trkpt><trkpt lat="45.7707374" lon="11.4549153"><ele>235.0</ele><time>2026-04-26T14:59:10.434Z</time></trkpt><trkpt lat="45.7707513" lon="11.4551"><ele>234.0</ele><time>2026-04-26T14:59:11.434Z</time></trkpt><trkpt lat="45.7707498" lon="11.4552772"><ele>232.75</ele><time>2026-04-26T14:59:12.435Z</time></trkpt><trkpt lat="45.7707208" lon="11.4554541"><ele>231.5</ele><time>2026-04-26T14:59:13.433Z</time></trkpt><trkpt lat="45.770668" lon="11.455626"><ele>230.25</ele><time>2026-04-26T14:59:14.433Z</time></trkpt><trkpt lat="45.7705953" lon="11.4557985"><ele>229.0</ele><time>2026-04-26T14:59:15.435Z</time></trkpt><trkpt lat="45.7705116" lon="11.4559663"><ele>229.0</ele><time>2026-04-26T14:59:16.434Z</time></trkpt><trkpt lat="45.7704251" lon="11.4561399"><ele>229.0</ele><time>2026-04-26T14:59:17.433Z</time></trkpt><trkpt lat="45.7703334" lon="11.4563022"><ele>229.0</ele><time>2026-04-26T14:59:18.434Z</time></trkpt><trkpt lat="45.7702448" lon="11.4564605"><ele>229.0</ele><time>2026-04-26T14:59:19.434Z</time></trkpt><trkpt lat="45.7701539" lon="11.4566173"><ele>225.25</ele><time>2026-04-26T14:59:20.434Z</time></trkpt><trkpt lat="45.7700617" lon="11.4567739"><ele>221.5</ele><time>2026-04-26T14:59:21.435Z</time></trkpt><trkpt lat="45.7699662" lon="11.4569348"><ele>217.75</ele><time>2026-04-26T14:59:22.435Z</time></trkpt><trkpt lat="45.7698707" lon="11.4570929"><ele>214.0</ele><time>2026-04-26T14:59:23.435Z</time></trkpt><trkpt lat="45.7697799" lon="11.4572402"><ele>214.0</ele><time>2026-04-26T14:59:24.435Z</time></trkpt><trkpt lat="45.7696874" lon="11.4573709"><ele>214.0</ele><time>2026-04-26T14:59:25.435Z</time></trkpt><trkpt lat="45.7695855" lon="11.457487"><ele>214.0</ele><time>2026-04-26T14:59:26.434Z</time></trkpt><trkpt lat="45.7694745" lon="11.4575773"><ele>214.0</ele><time>2026-04-26T14:59:27.442Z</time></trkpt><trkpt lat="45.769361" lon="11.4576434"><ele>217.25</ele><time>2026-04-26T14:59:28.435Z</time></trkpt><trkpt lat="45.7692452" lon="11.4576724"><ele>220.5</ele><time>2026-04-26T14:59:29.434Z</time></trkpt><trkpt lat="45.7691274" lon="11.4576647"><ele>223.75</ele><time>2026-04-26T14:59:30.434Z</time></trkpt><trkpt lat="45.7690074" lon="11.4576175"><ele>227.0</ele><time>2026-04-26T14:59:31.435Z</time></trkpt><trkpt lat="45.7688834" lon="11.4575217"><ele>227.0</ele><time>2026-04-26T14:59:32.432Z</time></trkpt><trkpt lat="45.7687627" lon="11.4574244"><ele>227.0</ele><time>2026-04-26T14:59:33.436Z</time></trkpt><trkpt lat="45.7686369" lon="11.4573259"><ele>227.0</ele><time>2026-04-26T14:59:34.433Z</time></trkpt><trkpt lat="45.7685202" lon="11.4572339"><ele>227.0</ele><time>2026-04-26T14:59:35.434Z</time></trkpt><trkpt lat="45.7684108" lon="11.4571402"><ele>227.5</ele><time>2026-04-26T14:59:36.435Z</time></trkpt><trkpt lat="45.7683221" lon="11.4570192"><ele>228.0</ele><time>2026-04-26T14:59:37.434Z</time></trkpt><trkpt lat="45.7682567" lon="11.4568705"><ele>228.5</ele><time>2026-04-26T14:59:38.436Z</time></trkpt><trkpt lat="45.7682071" lon="11.4567239"><ele>229.0</ele><time>2026-04-26T14:59:39.435Z</time></trkpt><trkpt lat="45.7681706" lon="11.4565928"><ele>228.99999999999997</ele><time>2026-04-26T14:59:40.434Z</time></trkpt><trkpt lat="45.7681487" lon="11.4564923"><ele>229.0</ele><time>2026-04-26T14:59:41.434Z</time></trkpt><trkpt lat="45.7681285" lon="11.4563786"><ele>229.0</ele><time>2026-04-26T14:59:43.433Z</time></trkpt><trkpt lat="45.7680745" lon="11.4562787"><ele>229.0</ele><time>2026-04-26T14:59:46.452Z</time></trkpt><trkpt lat="45.7680219" lon="11.4562245"><ele>228.99999999999997</ele><time>2026-04-26T14:59:47.435Z</time></trkpt><trkpt lat="45.7679562" lon="11.4561647"><ele>229.0</ele><time>2026-04-26T14:59:48.434Z</time></trkpt><trkpt lat="45.767871" lon="11.4561055"><ele>229.79999999999998</ele><time>2026-04-26T14:59:49.435Z</time></trkpt><trkpt lat="45.7677744" lon="11.4560824"><ele>230.59999999999997</ele><time>2026-04-26T14:59:50.432Z</time></trkpt><trkpt lat="45.7676708" lon="11.4561216"><ele>231.4</ele><time>2026-04-26T14:59:51.432Z</time></trkpt><trkpt lat="45.7675875" lon="11.456214"><ele>232.2</ele><time>2026-04-26T14:59:52.432Z</time></trkpt><trkpt lat="45.7675426" lon="11.4563645"><ele>233.0</ele><time>2026-04-26T14:59:53.433Z</time></trkpt><trkpt lat="45.7675132" lon="11.4565257"><ele>234.25</ele><time>2026-04-26T14:59:54.432Z</time></trkpt><trkpt lat="45.7674969" lon="11.4566994"><ele>235.5</ele><time>2026-04-26T14:59:55.441Z</time></trkpt><trkpt lat="45.7674874" lon="11.4568727"><ele>236.75</ele><time>2026-04-26T14:59:56.434Z</time></trkpt><trkpt lat="45.7675108" lon="11.4570577"><ele>238.0</ele><time>2026-04-26T14:59:57.432Z</time></trkpt><trkpt lat="45.7675215" lon="11.4572139"><ele>238.75</ele><time>2026-04-26T14:59:58.435Z</time></trkpt><trkpt lat="45.7675296" lon="11.4573657"><ele>239.5</ele><time>2026-04-26T14:59:59.434Z</time></trkpt><trkpt lat="45.7675282" lon="11.4575251"><ele>240.25</ele><time>2026-04-26T15:00:00.432Z</time></trkpt><trkpt lat="45.7675217" lon="11.4576954"><ele>241.0</ele><time>2026-04-26T15:00:01.432Z</time></trkpt><trkpt lat="45.7675077" lon="11.457865"><ele>241.4</ele><time>2026-04-26T15:00:02.434Z</time></trkpt><trkpt lat="45.7674905" lon="11.4580334"><ele>241.8</ele><time>2026-04-26T15:00:03.433Z</time></trkpt><trkpt lat="45.7674516" lon="11.4581679"><ele>242.20000000000002</ele><time>2026-04-26T15:00:04.436Z</time></trkpt><trkpt lat="45.7674073" lon="11.4582929"><ele>242.60000000000002</ele><time>2026-04-26T15:00:05.432Z</time></trkpt><trkpt lat="45.7673384" lon="11.4583928"><ele>243.0</ele><time>2026-04-26T15:00:06.436Z</time></trkpt><trkpt lat="45.767253" lon="11.4584807"><ele>243.0</ele><time>2026-04-26T15:00:07.433Z</time></trkpt><trkpt lat="45.7671577" lon="11.4585463"><ele>243.0</ele><time>2026-04-26T15:00:08.433Z</time></trkpt><trkpt lat="45.7670587" lon="11.4585918"><ele>243.0</ele><time>2026-04-26T15:00:09.434Z</time></trkpt><trkpt lat="45.7669662" lon="11.4586063"><ele>243.0</ele><time>2026-04-26T15:00:10.44Z</time></trkpt><trkpt lat="45.76688" lon="11.4586172"><ele>243.0</ele><time>2026-04-26T15:00:11.444Z</time></trkpt><trkpt lat="45.7668013" lon="11.4586253"><ele>243.66666666666666</ele><time>2026-04-26T15:00:12.434Z</time></trkpt><trkpt lat="45.7667358" lon="11.4586462"><ele>244.33333333333331</ele><time>2026-04-26T15:00:13.436Z</time></trkpt><trkpt lat="45.7666424" lon="11.4586194"><ele>245.0</ele><time>2026-04-26T15:00:14.437Z</time></trkpt><trkpt lat="45.7665685" lon="11.458609"><ele>245.66666666666666</ele><time>2026-04-26T15:00:15.433Z</time></trkpt><trkpt lat="45.7664946" lon="11.4585824"><ele>246.33333333333331</ele><time>2026-04-26T15:00:16.433Z</time></trkpt><trkpt lat="45.7664301" lon="11.4585646"><ele>247.0</ele><time>2026-04-26T15:00:17.434Z</time></trkpt><trkpt lat="45.7663579" lon="11.458546"><ele>247.0</ele><time>2026-04-26T15:00:18.435Z</time></trkpt><trkpt lat="45.7662594" lon="11.4585459"><ele>247.0</ele><time>2026-04-26T15:00:19.433Z</time></trkpt><trkpt lat="45.7661477" lon="11.4585191"><ele>247.0</ele><time>2026-04-26T15:00:20.432Z</time></trkpt><trkpt lat="45.7660109" lon="11.4584794"><ele>247.0</ele><time>2026-04-26T15:00:21.434Z</time></trkpt><trkpt lat="45.7658701" lon="11.4584372"><ele>246.66666666666666</ele><time>2026-04-26T15:00:22.435Z</time></trkpt><trkpt lat="45.7657235" lon="11.458402"><ele>246.33333333333331</ele><time>2026-04-26T15:00:23.434Z</time></trkpt><trkpt lat="45.7655741" lon="11.4583734"><ele>246.0</ele><time>2026-04-26T15:00:24.433Z</time></trkpt><trkpt lat="45.76542" lon="11.458359"><ele>246.0</ele><time>2026-04-26T15:00:25.434Z</time></trkpt><trkpt lat="45.7652671" lon="11.458343"><ele>246.0</ele><time>2026-04-26T15:00:26.433Z</time></trkpt><trkpt lat="45.7651145" lon="11.4583355"><ele>246.0</ele><time>2026-04-26T15:00:27.433Z</time></trkpt><trkpt lat="45.7649629" lon="11.4583297"><ele>245.66666666666669</ele><time>2026-04-26T15:00:28.434Z</time></trkpt><trkpt lat="45.7648126" lon="11.458315"><ele>245.33333333333334</ele><time>2026-04-26T15:00:29.432Z</time></trkpt><trkpt lat="45.7646534" lon="11.4583112"><ele>245.0</ele><time>2026-04-26T15:00:30.432Z</time></trkpt><trkpt lat="45.7644983" lon="11.4582991"><ele>245.0</ele><time>2026-04-26T15:00:31.434Z</time></trkpt><trkpt lat="45.764343" lon="11.4582911"><ele>245.0</ele><time>2026-04-26T15:00:32.434Z</time></trkpt><trkpt lat="45.7641913" lon="11.4582826"><ele>245.0</ele><time>2026-04-26T15:00:33.434Z</time></trkpt><trkpt lat="45.7640367" lon="11.4582681"><ele>245.0</ele><time>2026-04-26T15:00:34.434Z</time></trkpt><trkpt lat="45.7638815" lon="11.4582524"><ele>245.0</ele><time>2026-04-26T15:00:35.436Z</time></trkpt><trkpt lat="45.7637273" lon="11.4582357"><ele>245.0</ele><time>2026-04-26T15:00:36.434Z</time></trkpt><trkpt lat="45.7635728" lon="11.4582235"><ele>244.66666666666669</ele><time>2026-04-26T15:00:37.434Z</time></trkpt><trkpt lat="45.7634183" lon="11.4582109"><ele>244.33333333333331</ele><time>2026-04-26T15:00:38.433Z</time></trkpt><trkpt lat="45.7632714" lon="11.4582026"><ele>244.0</ele><time>2026-04-26T15:00:39.433Z</time></trkpt><trkpt lat="45.7631229" lon="11.4581972"><ele>244.0</ele><time>2026-04-26T15:00:40.433Z</time></trkpt><trkpt lat="45.7629726" lon="11.458193"><ele>244.0</ele><time>2026-04-26T15:00:41.434Z</time></trkpt><trkpt lat="45.7628219" lon="11.4581907"><ele>244.0</ele><time>2026-04-26T15:00:42.434Z</time></trkpt><trkpt lat="45.7626738" lon="11.4581927"><ele>244.0</ele><time>2026-04-26T15:00:43.433Z</time></trkpt><trkpt lat="45.7625274" lon="11.4581913"><ele>243.75</ele><time>2026-04-26T15:00:44.434Z</time></trkpt><trkpt lat="45.7623831" lon="11.4581991"><ele>243.5</ele><time>2026-04-26T15:00:45.433Z</time></trkpt><trkpt lat="45.7622375" lon="11.4582001"><ele>243.25</ele><time>2026-04-26T15:00:46.435Z</time></trkpt><trkpt lat="45.7620942" lon="11.4582028"><ele>243.0</ele><time>2026-04-26T15:00:47.435Z</time></trkpt><trkpt lat="45.7619608" lon="11.4582086"><ele>242.5</ele><time>2026-04-26T15:00:48.433Z</time></trkpt><trkpt lat="45.761834" lon="11.4582119"><ele>242.0</ele><time>2026-04-26T15:00:49.434Z</time></trkpt><trkpt lat="45.7617149" lon="11.458215"><ele>241.5</ele><time>2026-04-26T15:00:50.435Z</time></trkpt><trkpt lat="45.7616064" lon="11.4582207"><ele>241.0</ele><time>2026-04-26T15:00:51.434Z</time></trkpt><trkpt lat="45.7615076" lon="11.4582237"><ele>241.0</ele><time>2026-04-26T15:00:52.435Z</time></trkpt><trkpt lat="45.7614152" lon="11.4582221"><ele>241.00000000000003</ele><time>2026-04-26T15:00:53.433Z</time></trkpt><trkpt lat="45.7613295" lon="11.4582133"><ele>241.00000000000003</ele><time>2026-04-26T15:00:54.436Z</time></trkpt><trkpt lat="45.7612447" lon="11.4581852"><ele>241.0</ele><time>2026-04-26T15:00:55.432Z</time></trkpt><trkpt lat="45.7611548" lon="11.458158"><ele>241.0</ele><time>2026-04-26T15:00:56.433Z</time></trkpt><trkpt lat="45.7610571" lon="11.4581612"><ele>241.0</ele><time>2026-04-26T15:00:57.434Z</time></trkpt><trkpt lat="45.7609463" lon="11.4581902"><ele>241.0</ele><time>2026-04-26T15:00:58.433Z</time></trkpt><trkpt lat="45.7608376" lon="11.458221"><ele>241.0</ele><time>2026-04-26T15:00:59.435Z</time></trkpt><trkpt lat="45.7607193" lon="11.4582532"><ele>241.0</ele><time>2026-04-26T15:01:00.432Z</time></trkpt><trkpt lat="45.7605973" lon="11.4582666"><ele>241.0</ele><time>2026-04-26T15:01:01.435Z</time></trkpt><trkpt lat="45.7604628" lon="11.4582776"><ele>241.0</ele><time>2026-04-26T15:01:02.432Z</time></trkpt><trkpt lat="45.7603226" lon="11.4582765"><ele>241.0</ele><time>2026-04-26T15:01:03.434Z</time></trkpt><trkpt lat="45.7601735" lon="11.458273"><ele>241.0</ele><time>2026-04-26T15:01:04.434Z</time></trkpt><trkpt lat="45.7600184" lon="11.4582687"><ele>241.0</ele><time>2026-04-26T15:01:05.432Z</time></trkpt><trkpt lat="45.7598621" lon="11.4582701"><ele>241.0</ele><time>2026-04-26T15:01:06.434Z</time></trkpt><trkpt lat="45.759704" lon="11.4582749"><ele>241.0</ele><time>2026-04-26T15:01:07.432Z</time></trkpt><trkpt lat="45.7595406" lon="11.4582791"><ele>241.0</ele><time>2026-04-26T15:01:08.436Z</time></trkpt><trkpt lat="45.7593779" lon="11.4582838"><ele>241.0</ele><time>2026-04-26T15:01:09.433Z</time></trkpt><trkpt lat="45.7592104" lon="11.458284"><ele>241.0</ele><time>2026-04-26T15:01:10.435Z</time></trkpt><trkpt lat="45.7590413" lon="11.458278"><ele>240.33333333333331</ele><time>2026-04-26T15:01:11.453Z</time></trkpt><trkpt lat="45.75887" lon="11.4582732"><ele>239.66666666666669</ele><time>2026-04-26T15:01:12.434Z</time></trkpt><trkpt lat="45.7586943" lon="11.4582633"><ele>239.0</ele><time>2026-04-26T15:01:13.433Z</time></trkpt><trkpt lat="45.7585142" lon="11.4582531"><ele>238.0</ele><time>2026-04-26T15:01:14.433Z</time></trkpt><trkpt lat="45.7583366" lon="11.4582454"><ele>237.0</ele><time>2026-04-26T15:01:15.435Z</time></trkpt><trkpt lat="45.7581543" lon="11.4582373"><ele>236.0</ele><time>2026-04-26T15:01:16.433Z</time></trkpt><trkpt lat="45.7579725" lon="11.4582246"><ele>236.0</ele><time>2026-04-26T15:01:17.434Z</time></trkpt><trkpt lat="45.7577915" lon="11.4582127"><ele>236.0</ele><time>2026-04-26T15:01:18.434Z</time></trkpt><trkpt lat="45.7576104" lon="11.4582038"><ele>236.0</ele><time>2026-04-26T15:01:19.433Z</time></trkpt><trkpt lat="45.7574292" lon="11.458194"><ele>235.66666666666669</ele><time>2026-04-26T15:01:20.432Z</time></trkpt><trkpt lat="45.7572492" lon="11.4581834"><ele>235.33333333333331</ele><time>2026-04-26T15:01:21.433Z</time></trkpt><trkpt lat="45.7570665" lon="11.4581735"><ele>235.0</ele><time>2026-04-26T15:01:22.433Z</time></trkpt><trkpt lat="45.7568857" lon="11.4581661"><ele>235.0</ele><time>2026-04-26T15:01:23.433Z</time></trkpt><trkpt lat="45.7567077" lon="11.4581587"><ele>235.0</ele><time>2026-04-26T15:01:24.434Z</time></trkpt><trkpt lat="45.7565294" lon="11.4581473"><ele>235.0</ele><time>2026-04-26T15:01:25.435Z</time></trkpt><trkpt lat="45.7563535" lon="11.4581363"><ele>235.0</ele><time>2026-04-26T15:01:26.432Z</time></trkpt><trkpt lat="45.756191" lon="11.4581186"><ele>235.0</ele><time>2026-04-26T15:01:27.432Z</time></trkpt><trkpt lat="45.7560389" lon="11.4580966"><ele>235.0</ele><time>2026-04-26T15:01:28.434Z</time></trkpt><trkpt lat="45.7558914" lon="11.4580788"><ele>235.0</ele><time>2026-04-26T15:01:29.434Z</time></trkpt><trkpt lat="45.755756" lon="11.4580565"><ele>235.0</ele><time>2026-04-26T15:01:30.433Z</time></trkpt><trkpt lat="45.7556319" lon="11.4580316"><ele>235.0</ele><time>2026-04-26T15:01:31.434Z</time></trkpt><trkpt lat="45.7555184" lon="11.4580012"><ele>235.0</ele><time>2026-04-26T15:01:32.433Z</time></trkpt><trkpt lat="45.7554127" lon="11.4579569"><ele>234.6</ele><time>2026-04-26T15:01:33.432Z</time></trkpt><trkpt lat="45.7553126" lon="11.4579054"><ele>234.2</ele><time>2026-04-26T15:01:34.434Z</time></trkpt><trkpt lat="45.7552156" lon="11.4578555"><ele>233.8</ele><time>2026-04-26T15:01:35.435Z</time></trkpt><trkpt lat="45.755112" lon="11.4578451"><ele>233.4</ele><time>2026-04-26T15:01:36.434Z</time></trkpt><trkpt lat="45.7549996" lon="11.4578781"><ele>233.0</ele><time>2026-04-26T15:01:37.433Z</time></trkpt><trkpt lat="45.7548745" lon="11.4578941"><ele>233.0</ele><time>2026-04-26T15:01:38.435Z</time></trkpt><trkpt lat="45.7547428" lon="11.4578834"><ele>233.0</ele><time>2026-04-26T15:01:39.433Z</time></trkpt><trkpt lat="45.7546046" lon="11.4578635"><ele>233.0</ele><time>2026-04-26T15:01:40.433Z</time></trkpt><trkpt lat="45.7544577" lon="11.4578395"><ele>233.0</ele><time>2026-04-26T15:01:41.435Z</time></trkpt><trkpt lat="45.7543121" lon="11.4578161"><ele>232.25</ele><time>2026-04-26T15:01:42.435Z</time></trkpt><trkpt lat="45.7541717" lon="11.4577931"><ele>231.5</ele><time>2026-04-26T15:01:43.433Z</time></trkpt><trkpt lat="45.7540335" lon="11.4577706"><ele>230.75</ele><time>2026-04-26T15:01:44.433Z</time></trkpt><trkpt lat="45.7539023" lon="11.4577435"><ele>230.0</ele><time>2026-04-26T15:01:45.434Z</time></trkpt><trkpt lat="45.7537706" lon="11.457719"><ele>230.0</ele><time>2026-04-26T15:01:46.433Z</time></trkpt><trkpt lat="45.7536394" lon="11.4576943"><ele>230.0</ele><time>2026-04-26T15:01:47.435Z</time></trkpt><trkpt lat="45.7535069" lon="11.4576715"><ele>230.0</ele><time>2026-04-26T15:01:48.435Z</time></trkpt><trkpt lat="45.7533739" lon="11.4576491"><ele>230.0</ele><time>2026-04-26T15:01:49.434Z</time></trkpt><trkpt lat="45.7532348" lon="11.4576237"><ele>229.5</ele><time>2026-04-26T15:01:50.433Z</time></trkpt><trkpt lat="45.7530922" lon="11.4575896"><ele>229.0</ele><time>2026-04-26T15:01:51.433Z</time></trkpt><trkpt lat="45.7529457" lon="11.4575541"><ele>228.5</ele><time>2026-04-26T15:01:52.434Z</time></trkpt><trkpt lat="45.7527985" lon="11.4575148"><ele>228.0</ele><time>2026-04-26T15:01:53.434Z</time></trkpt><trkpt lat="45.752647" lon="11.4574699"><ele>227.33333333333331</ele><time>2026-04-26T15:01:54.433Z</time></trkpt><trkpt lat="45.7524951" lon="11.4574206"><ele>226.66666666666666</ele><time>2026-04-26T15:01:55.434Z</time></trkpt><trkpt lat="45.752343" lon="11.4573688"><ele>226.0</ele><time>2026-04-26T15:01:56.433Z</time></trkpt><trkpt lat="45.7521951" lon="11.4573205"><ele>226.0</ele><time>2026-04-26T15:01:57.434Z</time></trkpt><trkpt lat="45.7520572" lon="11.457272"><ele>226.0</ele><time>2026-04-26T15:01:58.434Z</time></trkpt><trkpt lat="45.7519288" lon="11.4572281"><ele>226.0</ele><time>2026-04-26T15:01:59.434Z</time></trkpt><trkpt lat="45.7518047" lon="11.4571857"><ele>226.0</ele><time>2026-04-26T15:02:00.433Z</time></trkpt><trkpt lat="45.7516802" lon="11.4571425"><ele>226.0</ele><time>2026-04-26T15:02:01.433Z</time></trkpt><trkpt lat="45.7515535" lon="11.4571"><ele>226.0</ele><time>2026-04-26T15:02:02.434Z</time></trkpt><trkpt lat="45.7514258" lon="11.4570529"><ele>226.0</ele><time>2026-04-26T15:02:03.432Z</time></trkpt><trkpt lat="45.7512965" lon="11.4570106"><ele>226.0</ele><time>2026-04-26T15:02:04.433Z</time></trkpt><trkpt lat="45.7511652" lon="11.456971"><ele>226.33333333333331</ele><time>2026-04-26T15:02:05.434Z</time></trkpt><trkpt lat="45.7510238" lon="11.4569381"><ele>226.66666666666669</ele><time>2026-04-26T15:02:06.448Z</time></trkpt><trkpt lat="45.7508695" lon="11.4569085"><ele>227.0</ele><time>2026-04-26T15:02:07.433Z</time></trkpt><trkpt lat="45.7506977" lon="11.4568749"><ele>227.0</ele><time>2026-04-26T15:02:08.437Z</time></trkpt><trkpt lat="45.7505171" lon="11.4568438"><ele>227.0</ele><time>2026-04-26T15:02:09.433Z</time></trkpt><trkpt lat="45.7503382" lon="11.4568082"><ele>227.0</ele><time>2026-04-26T15:02:10.433Z</time></trkpt><trkpt lat="45.7501616" lon="11.456775"><ele>226.33333333333334</ele><time>2026-04-26T15:02:11.433Z</time></trkpt><trkpt lat="45.7499915" lon="11.4567456"><ele>225.66666666666669</ele><time>2026-04-26T15:02:12.446Z</time></trkpt><trkpt lat="45.7498357" lon="11.4567216"><ele>225.0</ele><time>2026-04-26T15:02:13.434Z</time></trkpt><trkpt lat="45.7496796" lon="11.4567041"><ele>225.0</ele><time>2026-04-26T15:02:14.432Z</time></trkpt><trkpt lat="45.7495348" lon="11.4566867"><ele>225.0</ele><time>2026-04-26T15:02:15.434Z</time></trkpt><trkpt lat="45.7494003" lon="11.4566737"><ele>225.0</ele><time>2026-04-26T15:02:16.433Z</time></trkpt><trkpt lat="45.7492732" lon="11.4566639"><ele>225.0</ele><time>2026-04-26T15:02:17.433Z</time></trkpt><trkpt lat="45.7491568" lon="11.4566546"><ele>224.75</ele><time>2026-04-26T15:02:18.434Z</time></trkpt><trkpt lat="45.7490324" lon="11.4566432"><ele>224.5</ele><time>2026-04-26T15:02:19.434Z</time></trkpt><trkpt lat="45.7489154" lon="11.4566372"><ele>224.25</ele><time>2026-04-26T15:02:20.434Z</time></trkpt><trkpt lat="45.7487997" lon="11.4566322"><ele>224.0</ele><time>2026-04-26T15:02:21.434Z</time></trkpt><trkpt lat="45.7486755" lon="11.4566125"><ele>224.0</ele><time>2026-04-26T15:02:22.433Z</time></trkpt><trkpt lat="45.7485469" lon="11.4565997"><ele>224.0</ele><time>2026-04-26T15:02:23.439Z</time></trkpt><trkpt lat="45.7484205" lon="11.4565849"><ele>224.0</ele><time>2026-04-26T15:02:24.432Z</time></trkpt><trkpt lat="45.7482919" lon="11.4565698"><ele>224.0</ele><time>2026-04-26T15:02:25.435Z</time></trkpt><trkpt lat="45.7481669" lon="11.456556"><ele>223.79999999999998</ele><time>2026-04-26T15:02:26.433Z</time></trkpt><trkpt lat="45.7480458" lon="11.4565456"><ele>223.59999999999997</ele><time>2026-04-26T15:02:27.433Z</time></trkpt><trkpt lat="45.7479327" lon="11.4565369"><ele>223.4</ele><time>2026-04-26T15:02:28.432Z</time></trkpt><trkpt lat="45.7478235" lon="11.4565303"><ele>223.2</ele><time>2026-04-26T15:02:29.433Z</time></trkpt><trkpt lat="45.7477227" lon="11.4565294"><ele>223.0</ele><time>2026-04-26T15:02:30.432Z</time></trkpt><trkpt lat="45.7476141" lon="11.456532"><ele>222.4</ele><time>2026-04-26T15:02:31.431Z</time></trkpt><trkpt lat="45.7475063" lon="11.4565402"><ele>221.8</ele><time>2026-04-26T15:02:32.433Z</time></trkpt><trkpt lat="45.7473974" lon="11.4565594"><ele>221.2</ele><time>2026-04-26T15:02:33.434Z</time></trkpt><trkpt lat="45.7472974" lon="11.4565776"><ele>220.6</ele><time>2026-04-26T15:02:34.434Z</time></trkpt><trkpt lat="45.7472081" lon="11.4566016"><ele>220.0</ele><time>2026-04-26T15:02:35.434Z</time></trkpt><trkpt lat="45.7471338" lon="11.456624"><ele>220.0</ele><time>2026-04-26T15:02:36.433Z</time></trkpt><trkpt lat="45.7470688" lon="11.4566504"><ele>220.0</ele><time>2026-04-26T15:02:37.434Z</time></trkpt><trkpt lat="45.7469537" lon="11.4566886"><ele>220.0</ele><time>2026-04-26T15:02:39.433Z</time></trkpt><trkpt lat="45.7468318" lon="11.4567231"><ele>220.0</ele><time>2026-04-26T15:02:41.434Z</time></trkpt><trkpt lat="45.7467586" lon="11.4567534"><ele>220.0</ele><time>2026-04-26T15:02:42.434Z</time></trkpt><trkpt lat="45.7466873" lon="11.4568197"><ele>220.0</ele><time>2026-04-26T15:02:43.435Z</time></trkpt><trkpt lat="45.7466092" lon="11.4568933"><ele>220.0</ele><time>2026-04-26T15:02:44.437Z</time></trkpt><trkpt lat="45.7465119" lon="11.4569711"><ele>220.0</ele><time>2026-04-26T15:02:45.432Z</time></trkpt><trkpt lat="45.7463946" lon="11.4570513"><ele>220.0</ele><time>2026-04-26T15:02:46.434Z</time></trkpt><trkpt lat="45.7462751" lon="11.4571377"><ele>220.0</ele><time>2026-04-26T15:02:47.436Z</time></trkpt><trkpt lat="45.7461513" lon="11.457232"><ele>220.0</ele><time>2026-04-26T15:02:48.433Z</time></trkpt><trkpt lat="45.7460254" lon="11.4573279"><ele>220.0</ele><time>2026-04-26T15:02:49.434Z</time></trkpt><trkpt lat="45.7459057" lon="11.4574232"><ele>220.0</ele><time>2026-04-26T15:02:50.432Z</time></trkpt><trkpt lat="45.7457919" lon="11.4575178"><ele>219.75</ele><time>2026-04-26T15:02:51.433Z</time></trkpt><trkpt lat="45.7456823" lon="11.4576125"><ele>219.5</ele><time>2026-04-26T15:02:52.434Z</time></trkpt><trkpt lat="45.7455752" lon="11.4577044"><ele>219.25</ele><time>2026-04-26T15:02:53.434Z</time></trkpt><trkpt lat="45.7454754" lon="11.4577917"><ele>219.0</ele><time>2026-04-26T15:02:54.432Z</time></trkpt><trkpt lat="45.7453802" lon="11.4578739"><ele>219.0</ele><time>2026-04-26T15:02:55.435Z</time></trkpt><trkpt lat="45.7453011" lon="11.4579466"><ele>219.0</ele><time>2026-04-26T15:02:56.433Z</time></trkpt><trkpt lat="45.7452404" lon="11.4580111"><ele>219.0</ele><time>2026-04-26T15:02:57.434Z</time></trkpt><trkpt lat="45.745179" lon="11.4580817"><ele>219.0</ele><time>2026-04-26T15:02:58.434Z</time></trkpt><trkpt lat="45.7451038" lon="11.4581604"><ele>219.0</ele><time>2026-04-26T15:02:59.434Z</time></trkpt><trkpt lat="45.7450219" lon="11.4582448"><ele>219.0</ele><time>2026-04-26T15:03:00.434Z</time></trkpt><trkpt lat="45.7449351" lon="11.4583391"><ele>218.5</ele><time>2026-04-26T15:03:01.433Z</time></trkpt><trkpt lat="45.744849" lon="11.458446"><ele>218.0</ele><time>2026-04-26T15:03:02.434Z</time></trkpt><trkpt lat="45.7447592" lon="11.4585574"><ele>217.5</ele><time>2026-04-26T15:03:03.436Z</time></trkpt><trkpt lat="45.7446595" lon="11.4586643"><ele>217.0</ele><time>2026-04-26T15:03:04.433Z</time></trkpt><trkpt lat="45.744549" lon="11.4587713"><ele>217.5</ele><time>2026-04-26T15:03:05.435Z</time></trkpt><trkpt lat="45.7444382" lon="11.4588734"><ele>218.0</ele><time>2026-04-26T15:03:06.433Z</time></trkpt><trkpt lat="45.7443302" lon="11.4589755"><ele>218.5</ele><time>2026-04-26T15:03:07.434Z</time></trkpt><trkpt lat="45.7442221" lon="11.4590843"><ele>219.0</ele><time>2026-04-26T15:03:08.434Z</time></trkpt><trkpt lat="45.7441171" lon="11.4592048"><ele>218.0</ele><time>2026-04-26T15:03:09.434Z</time></trkpt><trkpt lat="45.7440114" lon="11.4593382"><ele>217.0</ele><time>2026-04-26T15:03:10.434Z</time></trkpt><trkpt lat="45.7439068" lon="11.4594803"><ele>216.0</ele><time>2026-04-26T15:03:11.433Z</time></trkpt><trkpt lat="45.7438015" lon="11.4596289"><ele>215.0</ele><time>2026-04-26T15:03:12.436Z</time></trkpt><trkpt lat="45.7436938" lon="11.4597796"><ele>215.0</ele><time>2026-04-26T15:03:13.436Z</time></trkpt><trkpt lat="45.7435898" lon="11.4599314"><ele>215.0</ele><time>2026-04-26T15:03:14.432Z</time></trkpt><trkpt lat="45.7434845" lon="11.4600804"><ele>215.0</ele><time>2026-04-26T15:03:15.434Z</time></trkpt><trkpt lat="45.7433766" lon="11.4602345"><ele>215.0</ele><time>2026-04-26T15:03:16.433Z</time></trkpt><trkpt lat="45.7432709" lon="11.4603895"><ele>215.0</ele><time>2026-04-26T15:03:17.434Z</time></trkpt><trkpt lat="45.7431622" lon="11.4605466"><ele>215.0</ele><time>2026-04-26T15:03:18.433Z</time></trkpt><trkpt lat="45.743054" lon="11.4607035"><ele>215.0</ele><time>2026-04-26T15:03:19.434Z</time></trkpt><trkpt lat="45.7429478" lon="11.4608558"><ele>215.0</ele><time>2026-04-26T15:03:20.433Z</time></trkpt><trkpt lat="45.7428342" lon="11.4610135"><ele>215.0</ele><time>2026-04-26T15:03:21.443Z</time></trkpt><trkpt lat="45.742717" lon="11.461179"><ele>215.0</ele><time>2026-04-26T15:03:22.435Z</time></trkpt><trkpt lat="45.7425934" lon="11.4613465"><ele>214.0</ele><time>2026-04-26T15:03:23.433Z</time></trkpt><trkpt lat="45.7424686" lon="11.4615138"><ele>213.0</ele><time>2026-04-26T15:03:24.435Z</time></trkpt><trkpt lat="45.742341" lon="11.4616791"><ele>212.0</ele><time>2026-04-26T15:03:25.434Z</time></trkpt><trkpt lat="45.7422083" lon="11.4618315"><ele>212.0</ele><time>2026-04-26T15:03:26.434Z</time></trkpt><trkpt lat="45.7420699" lon="11.4619802"><ele>212.0</ele><time>2026-04-26T15:03:27.434Z</time></trkpt><trkpt lat="45.7419308" lon="11.4621161"><ele>212.0</ele><time>2026-04-26T15:03:28.433Z</time></trkpt><trkpt lat="45.7417901" lon="11.4622466"><ele>212.66666666666669</ele><time>2026-04-26T15:03:29.436Z</time></trkpt><trkpt lat="45.7416444" lon="11.4623709"><ele>213.33333333333331</ele><time>2026-04-26T15:03:30.433Z</time></trkpt><trkpt lat="45.7414974" lon="11.4624873"><ele>214.0</ele><time>2026-04-26T15:03:31.436Z</time></trkpt><trkpt lat="45.7413504" lon="11.4625914"><ele>214.0</ele><time>2026-04-26T15:03:32.438Z</time></trkpt><trkpt lat="45.7412018" lon="11.4626888"><ele>214.0</ele><time>2026-04-26T15:03:33.434Z</time></trkpt><trkpt lat="45.7410513" lon="11.4627792"><ele>214.0</ele><time>2026-04-26T15:03:34.433Z</time></trkpt><trkpt lat="45.7409044" lon="11.4628623"><ele>214.0</ele><time>2026-04-26T15:03:35.434Z</time></trkpt><trkpt lat="45.7407553" lon="11.4629405"><ele>214.0</ele><time>2026-04-26T15:03:36.434Z</time></trkpt><trkpt lat="45.7406084" lon="11.4630157"><ele>214.0</ele><time>2026-04-26T15:03:37.433Z</time></trkpt><trkpt lat="45.7404625" lon="11.4630925"><ele>213.66666666666666</ele><time>2026-04-26T15:03:38.434Z</time></trkpt><trkpt lat="45.7403146" lon="11.4631739"><ele>213.33333333333331</ele><time>2026-04-26T15:03:39.436Z</time></trkpt><trkpt lat="45.7401649" lon="11.4632503"><ele>213.0</ele><time>2026-04-26T15:03:40.431Z</time></trkpt><trkpt lat="45.7400156" lon="11.4633269"><ele>211.66666666666669</ele><time>2026-04-26T15:03:41.432Z</time></trkpt><trkpt lat="45.73987" lon="11.4633989"><ele>210.33333333333334</ele><time>2026-04-26T15:03:42.433Z</time></trkpt><trkpt lat="45.7397229" lon="11.4634726"><ele>209.0</ele><time>2026-04-26T15:03:43.433Z</time></trkpt><trkpt lat="45.7395778" lon="11.4635489"><ele>209.0</ele><time>2026-04-26T15:03:44.433Z</time></trkpt><trkpt lat="45.7394322" lon="11.4636262"><ele>209.0</ele><time>2026-04-26T15:03:45.431Z</time></trkpt><trkpt lat="45.7392863" lon="11.4637032"><ele>209.0</ele><time>2026-04-26T15:03:46.433Z</time></trkpt><trkpt lat="45.7391424" lon="11.4637841"><ele>208.66666666666669</ele><time>2026-04-26T15:03:47.432Z</time></trkpt><trkpt lat="45.7389965" lon="11.4638617"><ele>208.33333333333331</ele><time>2026-04-26T15:03:48.434Z</time></trkpt><trkpt lat="45.7388512" lon="11.4639369"><ele>208.0</ele><time>2026-04-26T15:03:49.433Z</time></trkpt><trkpt lat="45.7387058" lon="11.4640125"><ele>208.0</ele><time>2026-04-26T15:03:50.432Z</time></trkpt><trkpt lat="45.7385593" lon="11.4640828"><ele>208.0</ele><time>2026-04-26T15:03:51.433Z</time></trkpt><trkpt lat="45.7384097" lon="11.4641466"><ele>208.0</ele><time>2026-04-26T15:03:52.432Z</time></trkpt><trkpt lat="45.738263" lon="11.4642022"><ele>207.75</ele><time>2026-04-26T15:03:53.434Z</time></trkpt><trkpt lat="45.7381261" lon="11.4642536"><ele>207.5</ele><time>2026-04-26T15:03:54.432Z</time></trkpt><trkpt lat="45.7379918" lon="11.4642988"><ele>207.25</ele><time>2026-04-26T15:03:55.432Z</time></trkpt><trkpt lat="45.7378565" lon="11.4643346"><ele>207.0</ele><time>2026-04-26T15:03:56.432Z</time></trkpt><trkpt lat="45.7377264" lon="11.4643633"><ele>207.16666666666666</ele><time>2026-04-26T15:03:57.433Z</time></trkpt><trkpt lat="45.7376166" lon="11.4643759"><ele>207.33333333333331</ele><time>2026-04-26T15:03:58.432Z</time></trkpt><trkpt lat="45.7375295" lon="11.4643872"><ele>207.5</ele><time>2026-04-26T15:03:59.432Z</time></trkpt><trkpt lat="45.7374565" lon="11.4643915"><ele>207.66666666666666</ele><time>2026-04-26T15:04:00.431Z</time></trkpt><trkpt lat="45.7373879" lon="11.4643898"><ele>207.83333333333331</ele><time>2026-04-26T15:04:01.431Z</time></trkpt><trkpt lat="45.7373186" lon="11.4643942"><ele>208.0</ele><time>2026-04-26T15:04:02.432Z</time></trkpt><trkpt lat="45.737233" lon="11.4643968"><ele>208.0</ele><time>2026-04-26T15:04:03.434Z</time></trkpt><trkpt lat="45.7371372" lon="11.4644034"><ele>208.0</ele><time>2026-04-26T15:04:04.433Z</time></trkpt><trkpt lat="45.7370264" lon="11.4644047"><ele>208.0</ele><time>2026-04-26T15:04:05.431Z</time></trkpt><trkpt lat="45.7368962" lon="11.4644068"><ele>208.0</ele><time>2026-04-26T15:04:06.435Z</time></trkpt><trkpt lat="45.7367526" lon="11.4644115"><ele>206.33333333333331</ele><time>2026-04-26T15:04:07.44Z</time></trkpt><trkpt lat="45.7365987" lon="11.4644247"><ele>204.66666666666669</ele><time>2026-04-26T15:04:08.431Z</time></trkpt><trkpt lat="45.7364298" lon="11.4644357"><ele>203.0</ele><time>2026-04-26T15:04:09.431Z</time></trkpt><trkpt lat="45.7362369" lon="11.464449"><ele>202.33333333333334</ele><time>2026-04-26T15:04:10.432Z</time></trkpt><trkpt lat="45.7360255" lon="11.464451"><ele>201.66666666666669</ele><time>2026-04-26T15:04:11.435Z</time></trkpt><trkpt lat="45.7358028" lon="11.4644496"><ele>201.0</ele><time>2026-04-26T15:04:12.433Z</time></trkpt><trkpt lat="45.7355876" lon="11.4644389"><ele>201.0</ele><time>2026-04-26T15:04:13.431Z</time></trkpt><trkpt lat="45.73538" lon="11.4644351"><ele>201.0</ele><time>2026-04-26T15:04:14.433Z</time></trkpt><trkpt lat="45.7351736" lon="11.4644309"><ele>201.0</ele><time>2026-04-26T15:04:15.432Z</time></trkpt><trkpt lat="45.7349692" lon="11.4644308"><ele>200.66666666666669</ele><time>2026-04-26T15:04:16.431Z</time></trkpt><trkpt lat="45.734767" lon="11.464431"><ele>200.33333333333334</ele><time>2026-04-26T15:04:17.434Z</time></trkpt><trkpt lat="45.7345698" lon="11.464428"><ele>200.0</ele><time>2026-04-26T15:04:18.431Z</time></trkpt><trkpt lat="45.7343762" lon="11.4644263"><ele>199.0</ele><time>2026-04-26T15:04:19.432Z</time></trkpt><trkpt lat="45.7341823" lon="11.4644242"><ele>198.0</ele><time>2026-04-26T15:04:20.433Z</time></trkpt><trkpt lat="45.7339858" lon="11.4644208"><ele>197.0</ele><time>2026-04-26T15:04:21.432Z</time></trkpt><trkpt lat="45.7337881" lon="11.4644171"><ele>197.0</ele><time>2026-04-26T15:04:22.433Z</time></trkpt><trkpt lat="45.7335889" lon="11.4644154"><ele>197.0</ele><time>2026-04-26T15:04:23.433Z</time></trkpt><trkpt lat="45.7333857" lon="11.4644201"><ele>197.0</ele><time>2026-04-26T15:04:24.433Z</time></trkpt><trkpt lat="45.7331859" lon="11.4644331"><ele>196.66666666666669</ele><time>2026-04-26T15:04:25.434Z</time></trkpt><trkpt lat="45.7329843" lon="11.4644525"><ele>196.33333333333331</ele><time>2026-04-26T15:04:26.432Z</time></trkpt><trkpt lat="45.7327824" lon="11.4644838"><ele>196.0</ele><time>2026-04-26T15:04:27.432Z</time></trkpt><trkpt lat="45.7325801" lon="11.464527"><ele>195.33333333333331</ele><time>2026-04-26T15:04:28.436Z</time></trkpt><trkpt lat="45.7323786" lon="11.4645764"><ele>194.66666666666669</ele><time>2026-04-26T15:04:29.431Z</time></trkpt><trkpt lat="45.7321755" lon="11.4646282"><ele>194.0</ele><time>2026-04-26T15:04:30.432Z</time></trkpt><trkpt lat="45.7319743" lon="11.4646808"><ele>193.33333333333334</ele><time>2026-04-26T15:04:31.431Z</time></trkpt><trkpt lat="45.7317738" lon="11.4647352"><ele>192.66666666666669</ele><time>2026-04-26T15:04:32.431Z</time></trkpt><trkpt lat="45.7315715" lon="11.4647921"><ele>192.0</ele><time>2026-04-26T15:04:33.432Z</time></trkpt><trkpt lat="45.7313792" lon="11.4648499"><ele>192.0</ele><time>2026-04-26T15:04:34.434Z</time></trkpt><trkpt lat="45.7311944" lon="11.464899"><ele>192.0</ele><time>2026-04-26T15:04:35.431Z</time></trkpt><trkpt lat="45.731022" lon="11.464945"><ele>192.0</ele><time>2026-04-26T15:04:36.433Z</time></trkpt><trkpt lat="45.7308504" lon="11.4649969"><ele>191.33333333333334</ele><time>2026-04-26T15:04:37.432Z</time></trkpt><trkpt lat="45.7306791" lon="11.4650412"><ele>190.66666666666669</ele><time>2026-04-26T15:04:38.433Z</time></trkpt><trkpt lat="45.7305082" lon="11.4650948"><ele>190.0</ele><time>2026-04-26T15:04:39.432Z</time></trkpt><trkpt lat="45.7303377" lon="11.4651332"><ele>189.33333333333334</ele><time>2026-04-26T15:04:40.432Z</time></trkpt><trkpt lat="45.730171" lon="11.465175"><ele>188.66666666666666</ele><time>2026-04-26T15:04:41.432Z</time></trkpt><trkpt lat="45.7300065" lon="11.4652167"><ele>188.0</ele><time>2026-04-26T15:04:42.432Z</time></trkpt><trkpt lat="45.7298421" lon="11.4652631"><ele>188.0</ele><time>2026-04-26T15:04:43.432Z</time></trkpt><trkpt lat="45.7296801" lon="11.4653036"><ele>188.0</ele><time>2026-04-26T15:04:44.432Z</time></trkpt><trkpt lat="45.7295257" lon="11.4653478"><ele>188.0</ele><time>2026-04-26T15:04:45.432Z</time></trkpt><trkpt lat="45.7293749" lon="11.4653928"><ele>187.0</ele><time>2026-04-26T15:04:46.433Z</time></trkpt><trkpt lat="45.7292219" lon="11.4654356"><ele>186.0</ele><time>2026-04-26T15:04:47.432Z</time></trkpt><trkpt lat="45.7290695" lon="11.4654814"><ele>185.0</ele><time>2026-04-26T15:04:48.431Z</time></trkpt><trkpt lat="45.7289082" lon="11.4655243"><ele>185.0</ele><time>2026-04-26T15:04:49.433Z</time></trkpt><trkpt lat="45.7287535" lon="11.4655675"><ele>185.0</ele><time>2026-04-26T15:04:50.432Z</time></trkpt><trkpt lat="45.7285997" lon="11.4656119"><ele>185.0</ele><time>2026-04-26T15:04:51.431Z</time></trkpt><trkpt lat="45.7284461" lon="11.4656499"><ele>184.66666666666666</ele><time>2026-04-26T15:04:52.431Z</time></trkpt><trkpt lat="45.7282909" lon="11.4656918"><ele>184.33333333333334</ele><time>2026-04-26T15:04:53.434Z</time></trkpt><trkpt lat="45.7281343" lon="11.4657343"><ele>184.0</ele><time>2026-04-26T15:04:54.433Z</time></trkpt><trkpt lat="45.7279747" lon="11.4657771"><ele>184.0</ele><time>2026-04-26T15:04:55.433Z</time></trkpt><trkpt lat="45.7278151" lon="11.4658181"><ele>184.0</ele><time>2026-04-26T15:04:56.433Z</time></trkpt><trkpt lat="45.7276578" lon="11.4658648"><ele>184.0</ele><time>2026-04-26T15:04:57.433Z</time></trkpt><trkpt lat="45.7274985" lon="11.4659094"><ele>184.0</ele><time>2026-04-26T15:04:58.431Z</time></trkpt><trkpt lat="45.7273489" lon="11.4659507"><ele>184.0</ele><time>2026-04-26T15:04:59.433Z</time></trkpt><trkpt lat="45.7272017" lon="11.4659882"><ele>184.0</ele><time>2026-04-26T15:05:00.434Z</time></trkpt><trkpt lat="45.7270509" lon="11.4660251"><ele>184.0</ele><time>2026-04-26T15:05:01.432Z</time></trkpt><trkpt lat="45.7269002" lon="11.466066"><ele>184.0</ele><time>2026-04-26T15:05:02.432Z</time></trkpt><trkpt lat="45.7267478" lon="11.4661093"><ele>184.0</ele><time>2026-04-26T15:05:03.434Z</time></trkpt><trkpt lat="45.726598" lon="11.4661544"><ele>183.75</ele><time>2026-04-26T15:05:04.432Z</time></trkpt><trkpt lat="45.7264538" lon="11.4661938"><ele>183.5</ele><time>2026-04-26T15:05:05.433Z</time></trkpt><trkpt lat="45.7263122" lon="11.4662297"><ele>183.25</ele><time>2026-04-26T15:05:06.432Z</time></trkpt><trkpt lat="45.7261669" lon="11.4662727"><ele>183.0</ele><time>2026-04-26T15:05:07.435Z</time></trkpt><trkpt lat="45.7260216" lon="11.4663151"><ele>182.25</ele><time>2026-04-26T15:05:08.432Z</time></trkpt><trkpt lat="45.7258776" lon="11.4663551"><ele>181.5</ele><time>2026-04-26T15:05:09.432Z</time></trkpt><trkpt lat="45.7257385" lon="11.4663983"><ele>180.75</ele><time>2026-04-26T15:05:10.433Z</time></trkpt><trkpt lat="45.725607" lon="11.4664355"><ele>180.0</ele><time>2026-04-26T15:05:11.432Z</time></trkpt><trkpt lat="45.7254856" lon="11.4664745"><ele>180.0</ele><time>2026-04-26T15:05:12.431Z</time></trkpt><trkpt lat="45.7253803" lon="11.4665043"><ele>180.0</ele><time>2026-04-26T15:05:13.433Z</time></trkpt><trkpt lat="45.7252772" lon="11.4665299"><ele>180.0</ele><time>2026-04-26T15:05:14.433Z</time></trkpt><trkpt lat="45.7251838" lon="11.46655"><ele>180.0</ele><time>2026-04-26T15:05:15.432Z</time></trkpt><trkpt lat="45.7250902" lon="11.4665685"><ele>180.0</ele><time>2026-04-26T15:05:16.434Z</time></trkpt><trkpt lat="45.725012" lon="11.4665896"><ele>180.2</ele><time>2026-04-26T15:05:17.435Z</time></trkpt><trkpt lat="45.7249207" lon="11.4666132"><ele>180.4</ele><time>2026-04-26T15:05:19.433Z</time></trkpt><trkpt lat="45.7248304" lon="11.4666425"><ele>180.60000000000002</ele><time>2026-04-26T15:05:57.434Z</time></trkpt><trkpt lat="45.724746" lon="11.4666655"><ele>180.8</ele><time>2026-04-26T15:05:58.436Z</time></trkpt><trkpt lat="45.7246385" lon="11.4666962"><ele>181.0</ele><time>2026-04-26T15:05:59.435Z</time></trkpt><trkpt lat="45.7245211" lon="11.4667271"><ele>180.0</ele><time>2026-04-26T15:06:00.434Z</time></trkpt><trkpt lat="45.7243929" lon="11.4667682"><ele>179.0</ele><time>2026-04-26T15:06:01.431Z</time></trkpt><trkpt lat="45.7242467" lon="11.4668042"><ele>178.0</ele><time>2026-04-26T15:06:02.433Z</time></trkpt><trkpt lat="45.7240921" lon="11.4668468"><ele>177.0</ele><time>2026-04-26T15:06:03.434Z</time></trkpt><trkpt lat="45.7239277" lon="11.4668942"><ele>177.0</ele><time>2026-04-26T15:06:04.433Z</time></trkpt><trkpt lat="45.7237563" lon="11.4669427"><ele>177.0</ele><time>2026-04-26T15:06:05.432Z</time></trkpt><trkpt lat="45.7235775" lon="11.4669917"><ele>177.0</ele><time>2026-04-26T15:06:06.431Z</time></trkpt><trkpt lat="45.7233927" lon="11.4670411"><ele>176.66666666666666</ele><time>2026-04-26T15:06:07.434Z</time></trkpt><trkpt lat="45.7232021" lon="11.467095"><ele>176.33333333333331</ele><time>2026-04-26T15:06:08.431Z</time></trkpt><trkpt lat="45.7230053" lon="11.4671492"><ele>176.0</ele><time>2026-04-26T15:06:09.432Z</time></trkpt><trkpt lat="45.7228024" lon="11.4672062"><ele>174.66666666666666</ele><time>2026-04-26T15:06:10.432Z</time></trkpt><trkpt lat="45.7225945" lon="11.4672734"><ele>173.33333333333334</ele><time>2026-04-26T15:06:11.432Z</time></trkpt><trkpt lat="45.7223887" lon="11.4673426"><ele>172.0</ele><time>2026-04-26T15:06:12.435Z</time></trkpt><trkpt lat="45.7221824" lon="11.4674119"><ele>172.0</ele><time>2026-04-26T15:06:13.432Z</time></trkpt><trkpt lat="45.7219781" lon="11.4674924"><ele>172.0</ele><time>2026-04-26T15:06:14.432Z</time></trkpt><trkpt lat="45.7217755" lon="11.4675773"><ele>172.0</ele><time>2026-04-26T15:06:15.432Z</time></trkpt><trkpt lat="45.7215772" lon="11.4676738"><ele>172.33333333333334</ele><time>2026-04-26T15:06:16.432Z</time></trkpt><trkpt lat="45.7213781" lon="11.4677733"><ele>172.66666666666666</ele><time>2026-04-26T15:06:17.434Z</time></trkpt><trkpt lat="45.7211788" lon="11.4678783"><ele>173.0</ele><time>2026-04-26T15:06:18.431Z</time></trkpt><trkpt lat="45.7209837" lon="11.4679899"><ele>172.33333333333331</ele><time>2026-04-26T15:06:19.433Z</time></trkpt><trkpt lat="45.7207941" lon="11.4681053"><ele>171.66666666666666</ele><time>2026-04-26T15:06:20.433Z</time></trkpt><trkpt lat="45.7206075" lon="11.4682173"><ele>171.0</ele><time>2026-04-26T15:06:21.433Z</time></trkpt><trkpt lat="45.7204222" lon="11.4683264"><ele>171.0</ele><time>2026-04-26T15:06:22.433Z</time></trkpt><trkpt lat="45.7202396" lon="11.4684378"><ele>171.0</ele><time>2026-04-26T15:06:23.432Z</time></trkpt><trkpt lat="45.7200599" lon="11.4685493"><ele>171.0</ele><time>2026-04-26T15:06:24.432Z</time></trkpt><trkpt lat="45.7198789" lon="11.4686632"><ele>170.66666666666666</ele><time>2026-04-26T15:06:25.434Z</time></trkpt><trkpt lat="45.7196975" lon="11.4687789"><ele>170.33333333333331</ele><time>2026-04-26T15:06:26.439Z</time></trkpt><trkpt lat="45.7195179" lon="11.4688961"><ele>170.0</ele><time>2026-04-26T15:06:27.433Z</time></trkpt><trkpt lat="45.7193367" lon="11.4690082"><ele>169.33333333333331</ele><time>2026-04-26T15:06:28.431Z</time></trkpt><trkpt lat="45.7191565" lon="11.4691203"><ele>168.66666666666666</ele><time>2026-04-26T15:06:29.436Z</time></trkpt><trkpt lat="45.7189789" lon="11.4692289"><ele>168.0</ele><time>2026-04-26T15:06:30.432Z</time></trkpt><trkpt lat="45.7188076" lon="11.4693333"><ele>168.0</ele><time>2026-04-26T15:06:31.432Z</time></trkpt><trkpt lat="45.718641" lon="11.469434"><ele>168.0</ele><time>2026-04-26T15:06:32.433Z</time></trkpt><trkpt lat="45.7184752" lon="11.4695348"><ele>168.0</ele><time>2026-04-26T15:06:33.433Z</time></trkpt><trkpt lat="45.718311" lon="11.4696391"><ele>167.66666666666666</ele><time>2026-04-26T15:06:34.432Z</time></trkpt><trkpt lat="45.7181425" lon="11.4697426"><ele>167.33333333333331</ele><time>2026-04-26T15:06:35.432Z</time></trkpt><trkpt lat="45.7179724" lon="11.4698505"><ele>167.0</ele><time>2026-04-26T15:06:36.433Z</time></trkpt><trkpt lat="45.7177987" lon="11.469956"><ele>166.66666666666666</ele><time>2026-04-26T15:06:37.433Z</time></trkpt><trkpt lat="45.7176223" lon="11.4700649"><ele>166.33333333333334</ele><time>2026-04-26T15:06:38.432Z</time></trkpt><trkpt lat="45.717446" lon="11.4701726"><ele>166.0</ele><time>2026-04-26T15:06:39.432Z</time></trkpt><trkpt lat="45.717268" lon="11.470282"><ele>166.0</ele><time>2026-04-26T15:06:40.433Z</time></trkpt><trkpt lat="45.7170927" lon="11.4703856"><ele>166.0</ele><time>2026-04-26T15:06:41.433Z</time></trkpt><trkpt lat="45.7169296" lon="11.4704878"><ele>166.0</ele><time>2026-04-26T15:06:42.431Z</time></trkpt><trkpt lat="45.7167762" lon="11.4705771"><ele>165.0</ele><time>2026-04-26T15:06:43.432Z</time></trkpt><trkpt lat="45.7166319" lon="11.4706643"><ele>164.0</ele><time>2026-04-26T15:06:44.433Z</time></trkpt><trkpt lat="45.7164931" lon="11.470748"><ele>163.0</ele><time>2026-04-26T15:06:45.433Z</time></trkpt><trkpt lat="45.7163658" lon="11.4708227"><ele>162.0</ele><time>2026-04-26T15:06:46.434Z</time></trkpt><trkpt lat="45.7162489" lon="11.4708951"><ele>162.0</ele><time>2026-04-26T15:06:47.431Z</time></trkpt><trkpt lat="45.7161491" lon="11.4709555"><ele>162.0</ele><time>2026-04-26T15:06:48.432Z</time></trkpt><trkpt lat="45.7160531" lon="11.4710147"><ele>162.0</ele><time>2026-04-26T15:06:49.433Z</time></trkpt><trkpt lat="45.715976" lon="11.47106"><ele>162.0</ele><time>2026-04-26T15:06:50.433Z</time></trkpt><trkpt lat="45.7159084" lon="11.4711019"><ele>162.0</ele><time>2026-04-26T15:06:51.432Z</time></trkpt><trkpt lat="45.7158444" lon="11.4711312"><ele>162.0</ele><time>2026-04-26T15:06:52.436Z</time></trkpt><trkpt lat="45.7157197" lon="11.4711615"><ele>162.2</ele><time>2026-04-26T15:06:54.433Z</time></trkpt><trkpt lat="45.7156399" lon="11.4711599"><ele>162.39999999999998</ele><time>2026-04-26T15:06:55.432Z</time></trkpt><trkpt lat="45.7155474" lon="11.4711355"><ele>162.60000000000002</ele><time>2026-04-26T15:06:56.434Z</time></trkpt><trkpt lat="45.7154445" lon="11.4710839"><ele>162.8</ele><time>2026-04-26T15:06:57.434Z</time></trkpt><trkpt lat="45.7153339" lon="11.4709934"><ele>163.0</ele><time>2026-04-26T15:06:58.432Z</time></trkpt><trkpt lat="45.7152272" lon="11.4708771"><ele>162.5</ele><time>2026-04-26T15:06:59.431Z</time></trkpt><trkpt lat="45.7151147" lon="11.4707581"><ele>162.0</ele><time>2026-04-26T15:07:00.432Z</time></trkpt><trkpt lat="45.7150044" lon="11.470636"><ele>161.5</ele><time>2026-04-26T15:07:01.433Z</time></trkpt><trkpt lat="45.7148982" lon="11.4705196"><ele>161.0</ele><time>2026-04-26T15:07:02.435Z</time></trkpt><trkpt lat="45.7147984" lon="11.470407"><ele>161.0</ele><time>2026-04-26T15:07:03.432Z</time></trkpt><trkpt lat="45.7146972" lon="11.4702955"><ele>161.0</ele><time>2026-04-26T15:07:04.432Z</time></trkpt><trkpt lat="45.7145948" lon="11.4701798"><ele>161.0</ele><time>2026-04-26T15:07:05.432Z</time></trkpt><trkpt lat="45.7144853" lon="11.4700685"><ele>161.0</ele><time>2026-04-26T15:07:06.432Z</time></trkpt><trkpt lat="45.7143855" lon="11.4699535"><ele>160.75</ele><time>2026-04-26T15:07:07.432Z</time></trkpt><trkpt lat="45.714282" lon="11.4698339"><ele>160.5</ele><time>2026-04-26T15:07:08.433Z</time></trkpt><trkpt lat="45.7141796" lon="11.4697176"><ele>160.25</ele><time>2026-04-26T15:07:09.433Z</time></trkpt><trkpt lat="45.7140787" lon="11.4695996"><ele>160.0</ele><time>2026-04-26T15:07:10.432Z</time></trkpt><trkpt lat="45.7139833" lon="11.4694849"><ele>160.4</ele><time>2026-04-26T15:07:11.438Z</time></trkpt><trkpt lat="45.7138941" lon="11.4693812"><ele>160.8</ele><time>2026-04-26T15:07:12.432Z</time></trkpt><trkpt lat="45.713804" lon="11.4692813"><ele>161.2</ele><time>2026-04-26T15:07:13.432Z</time></trkpt><trkpt lat="45.7137229" lon="11.4691849"><ele>161.6</ele><time>2026-04-26T15:07:14.432Z</time></trkpt><trkpt lat="45.7136504" lon="11.4691001"><ele>162.0</ele><time>2026-04-26T15:07:15.435Z</time></trkpt><trkpt lat="45.7135988" lon="11.4690449"><ele>161.5</ele><time>2026-04-26T15:07:16.432Z</time></trkpt><trkpt lat="45.7135509" lon="11.468981"><ele>161.0</ele><time>2026-04-26T15:07:24.432Z</time></trkpt><trkpt lat="45.7134634" lon="11.468843"><ele>160.5</ele><time>2026-04-26T15:07:26.432Z</time></trkpt><trkpt lat="45.7134207" lon="11.4687585"><ele>160.0</ele><time>2026-04-26T15:07:27.434Z</time></trkpt><trkpt lat="45.7133641" lon="11.4686647"><ele>159.5</ele><time>2026-04-26T15:07:28.434Z</time></trkpt><trkpt lat="45.7132843" lon="11.4685988"><ele>159.0</ele><time>2026-04-26T15:07:29.433Z</time></trkpt><trkpt lat="45.7131856" lon="11.4685356"><ele>158.8</ele><time>2026-04-26T15:07:30.433Z</time></trkpt><trkpt lat="45.7130924" lon="11.4684578"><ele>158.60000000000002</ele><time>2026-04-26T15:07:31.433Z</time></trkpt><trkpt lat="45.7130056" lon="11.4683743"><ele>158.4</ele><time>2026-04-26T15:07:32.432Z</time></trkpt><trkpt lat="45.7129207" lon="11.4682888"><ele>158.20000000000002</ele><time>2026-04-26T15:07:33.432Z</time></trkpt><trkpt lat="45.7128361" lon="11.4681988"><ele>158.0</ele><time>2026-04-26T15:07:34.434Z</time></trkpt><trkpt lat="45.7127593" lon="11.4681143"><ele>158.0</ele><time>2026-04-26T15:07:35.434Z</time></trkpt><trkpt lat="45.7126917" lon="11.4680372"><ele>158.0</ele><time>2026-04-26T15:07:36.437Z</time></trkpt><trkpt lat="45.7126293" lon="11.467963"><ele>158.0</ele><time>2026-04-26T15:07:37.434Z</time></trkpt><trkpt lat="45.7125617" lon="11.4678866"><ele>158.0</ele><time>2026-04-26T15:07:38.433Z</time></trkpt><trkpt lat="45.7124938" lon="11.4678063"><ele>158.0</ele><time>2026-04-26T15:07:39.431Z</time></trkpt><trkpt lat="45.7124265" lon="11.4677305"><ele>158.0</ele><time>2026-04-26T15:07:40.431Z</time></trkpt><trkpt lat="45.7123639" lon="11.4676609"><ele>158.00000000000003</ele><time>2026-04-26T15:07:41.436Z</time></trkpt><trkpt lat="45.7123054" lon="11.4675966"><ele>158.0</ele><time>2026-04-26T15:07:42.433Z</time></trkpt><trkpt lat="45.712252" lon="11.467537"><ele>158.0</ele><time>2026-04-26T15:07:43.433Z</time></trkpt><trkpt lat="45.7121947" lon="11.4674766"><ele>158.0</ele><time>2026-04-26T15:07:44.434Z</time></trkpt><trkpt lat="45.7121428" lon="11.467425"><ele>158.0</ele><time>2026-04-26T15:07:45.435Z</time></trkpt><trkpt lat="45.7120595" lon="11.4673524"><ele>158.00000000000003</ele><time>2026-04-26T15:07:47.432Z</time></trkpt><trkpt lat="45.7119979" lon="11.4672958"><ele>158.0</ele><time>2026-04-26T15:07:49.433Z</time></trkpt><trkpt lat="45.7119331" lon="11.4672403"><ele>158.0</ele><time>2026-04-26T15:07:51.432Z</time></trkpt><trkpt lat="45.7118767" lon="11.4671862"><ele>158.0</ele><time>2026-04-26T15:07:53.434Z</time></trkpt><trkpt lat="45.7118163" lon="11.467135"><ele>158.0</ele><time>2026-04-26T15:07:55.433Z</time></trkpt><trkpt lat="45.7117309" lon="11.4670763"><ele>158.0</ele><time>2026-04-26T15:07:57.435Z</time></trkpt><trkpt lat="45.711648" lon="11.4669964"><ele>158.0</ele><time>2026-04-26T15:07:59.433Z</time></trkpt><trkpt lat="45.7115195" lon="11.4669832"><ele>158.0</ele><time>2026-04-26T15:08:01.432Z</time></trkpt><trkpt lat="45.7114384" lon="11.4670239"><ele>158.0</ele><time>2026-04-26T15:08:02.432Z</time></trkpt><trkpt lat="45.711345" lon="11.4670582"><ele>158.0</ele><time>2026-04-26T15:08:03.433Z</time></trkpt><trkpt lat="45.7112449" lon="11.46709"><ele>158.0</ele><time>2026-04-26T15:08:04.432Z</time></trkpt><trkpt lat="45.7111393" lon="11.4671154"><ele>158.0</ele><time>2026-04-26T15:08:05.433Z</time></trkpt><trkpt lat="45.7110362" lon="11.4671366"><ele>158.0</ele><time>2026-04-26T15:08:06.435Z</time></trkpt><trkpt lat="45.7109376" lon="11.4671588"><ele>158.0</ele><time>2026-04-26T15:08:07.432Z</time></trkpt><trkpt lat="45.7108365" lon="11.4671824"><ele>158.0</ele><time>2026-04-26T15:08:08.433Z</time></trkpt><trkpt lat="45.7107229" lon="11.4672101"><ele>158.0</ele><time>2026-04-26T15:08:09.434Z</time></trkpt><trkpt lat="45.7105983" lon="11.467238"><ele>158.0</ele><time>2026-04-26T15:08:10.434Z</time></trkpt><trkpt lat="45.7104605" lon="11.4672653"><ele>158.0</ele><time>2026-04-26T15:08:11.434Z</time></trkpt><trkpt lat="45.7103224" lon="11.467294"><ele>158.0</ele><time>2026-04-26T15:08:12.431Z</time></trkpt><trkpt lat="45.710194" lon="11.4673176"><ele>158.0</ele><time>2026-04-26T15:08:13.431Z</time></trkpt><trkpt lat="45.7100672" lon="11.4673411"><ele>158.0</ele><time>2026-04-26T15:08:14.431Z</time></trkpt><trkpt lat="45.7099474" lon="11.46736"><ele>157.25</ele><time>2026-04-26T15:08:15.433Z</time></trkpt><trkpt lat="45.7098272" lon="11.4673849"><ele>156.5</ele><time>2026-04-26T15:08:16.436Z</time></trkpt><trkpt lat="45.7097044" lon="11.4674075"><ele>155.75</ele><time>2026-04-26T15:08:17.435Z</time></trkpt><trkpt lat="45.7095817" lon="11.4674283"><ele>155.0</ele><time>2026-04-26T15:08:18.433Z</time></trkpt><trkpt lat="45.7094622" lon="11.4674484"><ele>154.5</ele><time>2026-04-26T15:08:19.434Z</time></trkpt><trkpt lat="45.7093475" lon="11.4674709"><ele>154.0</ele><time>2026-04-26T15:08:20.432Z</time></trkpt><trkpt lat="45.7092289" lon="11.4674979"><ele>153.5</ele><time>2026-04-26T15:08:21.433Z</time></trkpt><trkpt lat="45.7090948" lon="11.4675295"><ele>153.0</ele><time>2026-04-26T15:08:22.433Z</time></trkpt><trkpt lat="45.7089486" lon="11.4675609"><ele>153.0</ele><time>2026-04-26T15:08:23.432Z</time></trkpt><trkpt lat="45.7087942" lon="11.4675934"><ele>153.0</ele><time>2026-04-26T15:08:24.434Z</time></trkpt><trkpt lat="45.7086316" lon="11.4676214"><ele>153.0</ele><time>2026-04-26T15:08:25.433Z</time></trkpt><trkpt lat="45.7084644" lon="11.4676481"><ele>153.0</ele><time>2026-04-26T15:08:26.433Z</time></trkpt><trkpt lat="45.7082925" lon="11.4676784"><ele>153.0</ele><time>2026-04-26T15:08:27.432Z</time></trkpt><trkpt lat="45.7081251" lon="11.4677171"><ele>153.0</ele><time>2026-04-26T15:08:28.433Z</time></trkpt><trkpt lat="45.7079635" lon="11.4677748"><ele>153.0</ele><time>2026-04-26T15:08:29.435Z</time></trkpt><trkpt lat="45.707811" lon="11.4678642"><ele>153.0</ele><time>2026-04-26T15:08:30.432Z</time></trkpt><trkpt lat="45.7076675" lon="11.4679805"><ele>153.0</ele><time>2026-04-26T15:08:31.447Z</time></trkpt><trkpt lat="45.7075322" lon="11.4681204"><ele>152.0</ele><time>2026-04-26T15:08:32.432Z</time></trkpt><trkpt lat="45.7074104" lon="11.4682853"><ele>151.0</ele><time>2026-04-26T15:08:33.432Z</time></trkpt><trkpt lat="45.7072958" lon="11.468465"><ele>150.0</ele><time>2026-04-26T15:08:34.432Z</time></trkpt><trkpt lat="45.7071938" lon="11.4686591"><ele>150.0</ele><time>2026-04-26T15:08:35.432Z</time></trkpt><trkpt lat="45.7070944" lon="11.4688515"><ele>150.0</ele><time>2026-04-26T15:08:36.431Z</time></trkpt><trkpt lat="45.7069999" lon="11.4690314"><ele>150.0</ele><time>2026-04-26T15:08:37.432Z</time></trkpt><trkpt lat="45.7069106" lon="11.4692026"><ele>149.75</ele><time>2026-04-26T15:08:38.434Z</time></trkpt><trkpt lat="45.7068302" lon="11.4693583"><ele>149.5</ele><time>2026-04-26T15:08:39.455Z</time></trkpt><trkpt lat="45.7067563" lon="11.4695046"><ele>149.25</ele><time>2026-04-26T15:08:40.432Z</time></trkpt><trkpt lat="45.706687" lon="11.4696448"><ele>149.0</ele><time>2026-04-26T15:08:41.432Z</time></trkpt><trkpt lat="45.7066193" lon="11.4697831"><ele>149.0</ele><time>2026-04-26T15:08:42.433Z</time></trkpt><trkpt lat="45.706556" lon="11.4699175"><ele>149.0</ele><time>2026-04-26T15:08:43.433Z</time></trkpt><trkpt lat="45.7064965" lon="11.4700465"><ele>149.0</ele><time>2026-04-26T15:08:44.431Z</time></trkpt><trkpt lat="45.7064395" lon="11.4701618"><ele>149.0</ele><time>2026-04-26T15:08:45.432Z</time></trkpt><trkpt lat="45.7063883" lon="11.4702654"><ele>149.0</ele><time>2026-04-26T15:08:46.433Z</time></trkpt><trkpt lat="45.7063452" lon="11.4703529"><ele>148.83333333333331</ele><time>2026-04-26T15:08:47.433Z</time></trkpt><trkpt lat="45.7062835" lon="11.4704717"><ele>148.66666666666666</ele><time>2026-04-26T15:08:49.432Z</time></trkpt><trkpt lat="45.7062346" lon="11.4705306"><ele>148.5</ele><time>2026-04-26T15:08:53.432Z</time></trkpt><trkpt lat="45.7061916" lon="11.4706026"><ele>148.33333333333334</ele><time>2026-04-26T15:08:59.437Z</time></trkpt><trkpt lat="45.7061265" lon="11.4707255"><ele>148.16666666666669</ele><time>2026-04-26T15:09:01.434Z</time></trkpt><trkpt lat="45.7060888" lon="11.4707999"><ele>148.0</ele><time>2026-04-26T15:09:02.431Z</time></trkpt><trkpt lat="45.7060474" lon="11.470886"><ele>147.83333333333334</ele><time>2026-04-26T15:09:03.435Z</time></trkpt><trkpt lat="45.7060045" lon="11.4709653"><ele>147.66666666666669</ele><time>2026-04-26T15:09:04.433Z</time></trkpt><trkpt lat="45.7059632" lon="11.4710562"><ele>147.5</ele><time>2026-04-26T15:09:05.433Z</time></trkpt><trkpt lat="45.7059104" lon="11.4711555"><ele>147.33333333333334</ele><time>2026-04-26T15:09:06.432Z</time></trkpt><trkpt lat="45.7058572" lon="11.4712702"><ele>147.16666666666666</ele><time>2026-04-26T15:09:07.433Z</time></trkpt><trkpt lat="45.705793" lon="11.4713894"><ele>147.0</ele><time>2026-04-26T15:09:08.433Z</time></trkpt><trkpt lat="45.7057299" lon="11.4715134"><ele>147.0</ele><time>2026-04-26T15:09:09.431Z</time></trkpt><trkpt lat="45.7056709" lon="11.4716429"><ele>147.0</ele><time>2026-04-26T15:09:10.432Z</time></trkpt><trkpt lat="45.7056048" lon="11.4717637"><ele>147.0</ele><time>2026-04-26T15:09:11.431Z</time></trkpt><trkpt lat="45.7055431" lon="11.471893"><ele>147.0</ele><time>2026-04-26T15:09:12.431Z</time></trkpt><trkpt lat="45.7054832" lon="11.4720075"><ele>147.0</ele><time>2026-04-26T15:09:13.436Z</time></trkpt><trkpt lat="45.7054261" lon="11.4721178"><ele>147.0</ele><time>2026-04-26T15:09:14.43Z</time></trkpt><trkpt lat="45.7053723" lon="11.4722282"><ele>147.0</ele><time>2026-04-26T15:09:15.431Z</time></trkpt><trkpt lat="45.7053235" lon="11.4723395"><ele>147.0</ele><time>2026-04-26T15:09:16.43Z</time></trkpt><trkpt lat="45.7052707" lon="11.4724429"><ele>147.0</ele><time>2026-04-26T15:09:17.432Z</time></trkpt><trkpt lat="45.7052188" lon="11.4725456"><ele>147.0</ele><time>2026-04-26T15:09:18.433Z</time></trkpt><trkpt lat="45.705164" lon="11.472653"><ele>147.0</ele><time>2026-04-26T15:09:19.431Z</time></trkpt><trkpt lat="45.7051076" lon="11.4727609"><ele>147.0</ele><time>2026-04-26T15:09:20.43Z</time></trkpt><trkpt lat="45.705046" lon="11.4728746"><ele>147.0</ele><time>2026-04-26T15:09:21.431Z</time></trkpt><trkpt lat="45.7049869" lon="11.4729815"><ele>147.0</ele><time>2026-04-26T15:09:22.431Z</time></trkpt><trkpt lat="45.7049314" lon="11.4730969"><ele>147.0</ele><time>2026-04-26T15:09:23.431Z</time></trkpt><trkpt lat="45.7048736" lon="11.473207"><ele>146.79999999999998</ele><time>2026-04-26T15:09:24.432Z</time></trkpt><trkpt lat="45.7048143" lon="11.4733265"><ele>146.6</ele><time>2026-04-26T15:09:25.432Z</time></trkpt><trkpt lat="45.7047506" lon="11.4734446"><ele>146.39999999999998</ele><time>2026-04-26T15:09:26.43Z</time></trkpt><trkpt lat="45.7046903" lon="11.4735671"><ele>146.2</ele><time>2026-04-26T15:09:27.43Z</time></trkpt><trkpt lat="45.7046323" lon="11.4736805"><ele>146.0</ele><time>2026-04-26T15:09:28.432Z</time></trkpt><trkpt lat="45.7045793" lon="11.4737807"><ele>145.83333333333331</ele><time>2026-04-26T15:09:29.431Z</time></trkpt><trkpt lat="45.7045341" lon="11.4738655"><ele>145.66666666666666</ele><time>2026-04-26T15:09:30.431Z</time></trkpt><trkpt lat="45.7044926" lon="11.4739426"><ele>145.5</ele><time>2026-04-26T15:09:31.432Z</time></trkpt><trkpt lat="45.7044189" lon="11.4740697"><ele>145.33333333333334</ele><time>2026-04-26T15:09:33.433Z</time></trkpt><trkpt lat="45.7043639" lon="11.4741624"><ele>145.16666666666669</ele><time>2026-04-26T15:09:35.431Z</time></trkpt><trkpt lat="45.7043078" lon="11.4742349"><ele>145.0</ele><time>2026-04-26T15:09:40.433Z</time></trkpt><trkpt lat="45.7042229" lon="11.4742942"><ele>145.0</ele><time>2026-04-26T15:09:42.434Z</time></trkpt><trkpt lat="45.7041148" lon="11.4743833"><ele>145.0</ele><time>2026-04-26T15:09:44.444Z</time></trkpt><trkpt lat="45.7040672" lon="11.474444"><ele>145.0</ele><time>2026-04-26T15:09:45.431Z</time></trkpt><trkpt lat="45.7040271" lon="11.4745198"><ele>145.0</ele><time>2026-04-26T15:09:46.431Z</time></trkpt><trkpt lat="45.7039701" lon="11.4745713"><ele>145.0</ele><time>2026-04-26T15:09:47.435Z</time></trkpt><trkpt lat="45.7039091" lon="11.4746147"><ele>145.0</ele><time>2026-04-26T15:09:48.432Z</time></trkpt><trkpt lat="45.7038379" lon="11.4746634"><ele>145.0</ele><time>2026-04-26T15:09:49.431Z</time></trkpt><trkpt lat="45.7037635" lon="11.47472"><ele>145.0</ele><time>2026-04-26T15:09:50.431Z</time></trkpt><trkpt lat="45.7036668" lon="11.4747552"><ele>145.0</ele><time>2026-04-26T15:09:51.431Z</time></trkpt><trkpt lat="45.7035709" lon="11.474798"><ele>145.0</ele><time>2026-04-26T15:09:52.431Z</time></trkpt><trkpt lat="45.7034851" lon="11.4748433"><ele>145.0</ele><time>2026-04-26T15:09:53.434Z</time></trkpt><trkpt lat="45.7033972" lon="11.4748898"><ele>144.4</ele><time>2026-04-26T15:09:54.431Z</time></trkpt><trkpt lat="45.7033092" lon="11.4749377"><ele>143.8</ele><time>2026-04-26T15:09:55.431Z</time></trkpt><trkpt lat="45.7032173" lon="11.4749869"><ele>143.2</ele><time>2026-04-26T15:09:56.432Z</time></trkpt><trkpt lat="45.7031192" lon="11.4750389"><ele>142.6</ele><time>2026-04-26T15:09:57.431Z</time></trkpt><trkpt lat="45.7030314" lon="11.4750864"><ele>142.0</ele><time>2026-04-26T15:09:58.43Z</time></trkpt><trkpt lat="45.7029465" lon="11.4751268"><ele>142.0</ele><time>2026-04-26T15:09:59.432Z</time></trkpt><trkpt lat="45.7028504" lon="11.4751683"><ele>142.0</ele><time>2026-04-26T15:10:00.437Z</time></trkpt><trkpt lat="45.7027634" lon="11.4752209"><ele>142.0</ele><time>2026-04-26T15:10:01.441Z</time></trkpt><trkpt lat="45.702673" lon="11.475267"><ele>142.0</ele><time>2026-04-26T15:10:02.431Z</time></trkpt><trkpt lat="45.7025894" lon="11.4753056"><ele>142.0</ele><time>2026-04-26T15:10:03.432Z</time></trkpt><trkpt lat="45.7025063" lon="11.4753479"><ele>142.0</ele><time>2026-04-26T15:10:04.433Z</time></trkpt><trkpt lat="45.7024234" lon="11.4753916"><ele>142.0</ele><time>2026-04-26T15:10:05.431Z</time></trkpt><trkpt lat="45.702342" lon="11.4754312"><ele>142.0</ele><time>2026-04-26T15:10:06.435Z</time></trkpt><trkpt lat="45.7022591" lon="11.4754735"><ele>142.0</ele><time>2026-04-26T15:10:07.431Z</time></trkpt><trkpt lat="45.7021856" lon="11.4755143"><ele>142.0</ele><time>2026-04-26T15:10:08.432Z</time></trkpt><trkpt lat="45.7021175" lon="11.4755494"><ele>142.0</ele><time>2026-04-26T15:10:09.431Z</time></trkpt><trkpt lat="45.7020533" lon="11.4755775"><ele>142.0</ele><time>2026-04-26T15:10:10.432Z</time></trkpt><trkpt lat="45.7019268" lon="11.4755825"><ele>142.0</ele><time>2026-04-26T15:10:12.431Z</time></trkpt><trkpt lat="45.7018556" lon="11.4755719"><ele>142.0</ele><time>2026-04-26T15:10:13.431Z</time></trkpt><trkpt lat="45.7017761" lon="11.475573"><ele>142.0</ele><time>2026-04-26T15:10:14.432Z</time></trkpt><trkpt lat="45.7017011" lon="11.4755921"><ele>142.0</ele><time>2026-04-26T15:10:15.435Z</time></trkpt><trkpt lat="45.7015843" lon="11.4756432"><ele>141.5</ele><time>2026-04-26T15:10:17.431Z</time></trkpt><trkpt lat="45.7015233" lon="11.4756826"><ele>141.0</ele><time>2026-04-26T15:10:18.431Z</time></trkpt><trkpt lat="45.7014665" lon="11.4757413"><ele>140.5</ele><time>2026-04-26T15:10:19.432Z</time></trkpt><trkpt lat="45.7014091" lon="11.4758088"><ele>140.0</ele><time>2026-04-26T15:10:20.431Z</time></trkpt><trkpt lat="45.7013621" lon="11.475877"><ele>139.5</ele><time>2026-04-26T15:10:21.432Z</time></trkpt><trkpt lat="45.7012184" lon="11.4759926"><ele>139.0</ele><time>2026-04-26T15:10:23.431Z</time></trkpt><trkpt lat="45.7011236" lon="11.4760562"><ele>138.5</ele><time>2026-04-26T15:10:24.43Z</time></trkpt><trkpt lat="45.7010106" lon="11.47613"><ele>138.0</ele><time>2026-04-26T15:10:25.431Z</time></trkpt><trkpt lat="45.7008921" lon="11.4762136"><ele>137.5</ele><time>2026-04-26T15:10:26.431Z</time></trkpt><trkpt lat="45.7007798" lon="11.4762931"><ele>137.0</ele><time>2026-04-26T15:10:27.432Z</time></trkpt><trkpt lat="45.7006768" lon="11.4763752"><ele>137.0</ele><time>2026-04-26T15:10:28.43Z</time></trkpt><trkpt lat="45.700574" lon="11.4764634"><ele>137.0</ele><time>2026-04-26T15:10:29.432Z</time></trkpt><trkpt lat="45.7004757" lon="11.4765569"><ele>137.0</ele><time>2026-04-26T15:10:30.432Z</time></trkpt><trkpt lat="45.7003853" lon="11.4766524"><ele>137.0</ele><time>2026-04-26T15:10:31.432Z</time></trkpt><trkpt lat="45.7003072" lon="11.4767478"><ele>136.83333333333331</ele><time>2026-04-26T15:10:32.431Z</time></trkpt><trkpt lat="45.700239" lon="11.4768416"><ele>136.66666666666666</ele><time>2026-04-26T15:10:33.435Z</time></trkpt><trkpt lat="45.7001784" lon="11.476934"><ele>136.5</ele><time>2026-04-26T15:10:34.431Z</time></trkpt><trkpt lat="45.7001249" lon="11.4770252"><ele>136.33333333333334</ele><time>2026-04-26T15:10:35.431Z</time></trkpt><trkpt lat="45.7000711" lon="11.4771157"><ele>136.16666666666669</ele><time>2026-04-26T15:10:36.433Z</time></trkpt><trkpt lat="45.7000198" lon="11.4772097"><ele>136.0</ele><time>2026-04-26T15:10:37.432Z</time></trkpt><trkpt lat="45.6999706" lon="11.4772951"><ele>135.83333333333334</ele><time>2026-04-26T15:10:38.43Z</time></trkpt><trkpt lat="45.6999203" lon="11.4774106"><ele>135.66666666666669</ele><time>2026-04-26T15:10:39.43Z</time></trkpt><trkpt lat="45.6998681" lon="11.4775107"><ele>135.5</ele><time>2026-04-26T15:10:40.431Z</time></trkpt><trkpt lat="45.6998161" lon="11.4776089"><ele>135.33333333333334</ele><time>2026-04-26T15:10:41.435Z</time></trkpt><trkpt lat="45.6997714" lon="11.4777089"><ele>135.16666666666666</ele><time>2026-04-26T15:10:42.431Z</time></trkpt><trkpt lat="45.6997257" lon="11.4778035"><ele>135.0</ele><time>2026-04-26T15:10:43.431Z</time></trkpt><trkpt lat="45.6996833" lon="11.4778921"><ele>134.66666666666666</ele><time>2026-04-26T15:10:44.433Z</time></trkpt><trkpt lat="45.6996416" lon="11.4779753"><ele>134.33333333333334</ele><time>2026-04-26T15:10:45.431Z</time></trkpt><trkpt lat="45.6995956" lon="11.4780652"><ele>134.0</ele><time>2026-04-26T15:10:46.431Z</time></trkpt><trkpt lat="45.6995453" lon="11.478156"><ele>133.66666666666669</ele><time>2026-04-26T15:10:47.432Z</time></trkpt><trkpt lat="45.6995032" lon="11.4782494"><ele>133.33333333333334</ele><time>2026-04-26T15:10:48.43Z</time></trkpt><trkpt lat="45.6994381" lon="11.4783627"><ele>133.0</ele><time>2026-04-26T15:10:49.432Z</time></trkpt><trkpt lat="45.6993779" lon="11.4784741"><ele>133.0</ele><time>2026-04-26T15:10:50.433Z</time></trkpt><trkpt lat="45.6993108" lon="11.4785864"><ele>133.0</ele><time>2026-04-26T15:10:51.432Z</time></trkpt><trkpt lat="45.6992382" lon="11.4786951"><ele>133.0</ele><time>2026-04-26T15:10:52.431Z</time></trkpt><trkpt lat="45.6991653" lon="11.4788079"><ele>133.0</ele><time>2026-04-26T15:10:53.433Z</time></trkpt><trkpt lat="45.6990945" lon="11.4789141"><ele>133.0</ele><time>2026-04-26T15:10:54.431Z</time></trkpt><trkpt lat="45.6990272" lon="11.4790172"><ele>132.6</ele><time>2026-04-26T15:10:55.432Z</time></trkpt><trkpt lat="45.6989605" lon="11.4791195"><ele>132.20000000000002</ele><time>2026-04-26T15:10:56.432Z</time></trkpt><trkpt lat="45.6988918" lon="11.4792254"><ele>131.8</ele><time>2026-04-26T15:10:57.432Z</time></trkpt><trkpt lat="45.6988292" lon="11.4793187"><ele>131.4</ele><time>2026-04-26T15:10:58.432Z</time></trkpt><trkpt lat="45.6987668" lon="11.4794117"><ele>131.0</ele><time>2026-04-26T15:10:59.433Z</time></trkpt><trkpt lat="45.6987036" lon="11.4795034"><ele>131.0</ele><time>2026-04-26T15:11:00.433Z</time></trkpt><trkpt lat="45.6986393" lon="11.4795959"><ele>131.0</ele><time>2026-04-26T15:11:01.43Z</time></trkpt><trkpt lat="45.6985787" lon="11.4796864"><ele>131.0</ele><time>2026-04-26T15:11:02.431Z</time></trkpt><trkpt lat="45.6985181" lon="11.4797816"><ele>131.0</ele><time>2026-04-26T15:11:03.433Z</time></trkpt><trkpt lat="45.6984608" lon="11.4798854"><ele>131.0</ele><time>2026-04-26T15:11:04.433Z</time></trkpt><trkpt lat="45.6984073" lon="11.479973"><ele>131.0</ele><time>2026-04-26T15:11:05.431Z</time></trkpt><trkpt lat="45.6983553" lon="11.4800557"><ele>131.0</ele><time>2026-04-26T15:11:06.439Z</time></trkpt><trkpt lat="45.6982992" lon="11.4801537"><ele>131.0</ele><time>2026-04-26T15:11:07.431Z</time></trkpt><trkpt lat="45.6982392" lon="11.4802491"><ele>131.0</ele><time>2026-04-26T15:11:08.431Z</time></trkpt><trkpt lat="45.6981704" lon="11.4803496"><ele>131.0</ele><time>2026-04-26T15:11:09.432Z</time></trkpt><trkpt lat="45.6980988" lon="11.4804562"><ele>131.0</ele><time>2026-04-26T15:11:10.432Z</time></trkpt><trkpt lat="45.6980311" lon="11.4805569"><ele>130.8</ele><time>2026-04-26T15:11:11.431Z</time></trkpt><trkpt lat="45.6979553" lon="11.4806604"><ele>130.6</ele><time>2026-04-26T15:11:12.431Z</time></trkpt><trkpt lat="45.6978807" lon="11.4807733"><ele>130.4</ele><time>2026-04-26T15:11:13.431Z</time></trkpt><trkpt lat="45.6978138" lon="11.4808811"><ele>130.2</ele><time>2026-04-26T15:11:14.432Z</time></trkpt><trkpt lat="45.6977468" lon="11.4809835"><ele>130.0</ele><time>2026-04-26T15:11:15.432Z</time></trkpt><trkpt lat="45.6976812" lon="11.4810802"><ele>130.0</ele><time>2026-04-26T15:11:16.431Z</time></trkpt><trkpt lat="45.6976133" lon="11.481174"><ele>130.0</ele><time>2026-04-26T15:11:17.433Z</time></trkpt><trkpt lat="45.6975469" lon="11.4812795"><ele>130.0</ele><time>2026-04-26T15:11:18.432Z</time></trkpt><trkpt lat="45.6974735" lon="11.4813868"><ele>130.0</ele><time>2026-04-26T15:11:19.432Z</time></trkpt><trkpt lat="45.6974016" lon="11.4814941"><ele>130.0</ele><time>2026-04-26T15:11:20.432Z</time></trkpt><trkpt lat="45.6973267" lon="11.4816136"><ele>129.6</ele><time>2026-04-26T15:11:21.431Z</time></trkpt><trkpt lat="45.6972593" lon="11.4817207"><ele>129.2</ele><time>2026-04-26T15:11:22.433Z</time></trkpt><trkpt lat="45.6971973" lon="11.481825"><ele>128.8</ele><time>2026-04-26T15:11:23.43Z</time></trkpt><trkpt lat="45.6971349" lon="11.4819158"><ele>128.4</ele><time>2026-04-26T15:11:24.431Z</time></trkpt><trkpt lat="45.697076" lon="11.4819988"><ele>128.0</ele><time>2026-04-26T15:11:25.432Z</time></trkpt><trkpt lat="45.6970208" lon="11.482085"><ele>127.83333333333333</ele><time>2026-04-26T15:11:26.431Z</time></trkpt><trkpt lat="45.6969613" lon="11.4821758"><ele>127.66666666666666</ele><time>2026-04-26T15:11:27.431Z</time></trkpt><trkpt lat="45.6968991" lon="11.4822644"><ele>127.5</ele><time>2026-04-26T15:11:28.431Z</time></trkpt><trkpt lat="45.6968356" lon="11.4823508"><ele>127.33333333333334</ele><time>2026-04-26T15:11:29.432Z</time></trkpt><trkpt lat="45.6967771" lon="11.4824335"><ele>127.16666666666667</ele><time>2026-04-26T15:11:30.431Z</time></trkpt><trkpt lat="45.6967205" lon="11.4825145"><ele>127.0</ele><time>2026-04-26T15:11:31.432Z</time></trkpt><trkpt lat="45.6966649" lon="11.4825887"><ele>127.00000000000001</ele><time>2026-04-26T15:11:32.43Z</time></trkpt><trkpt lat="45.6966046" lon="11.4826684"><ele>127.0</ele><time>2026-04-26T15:11:33.434Z</time></trkpt><trkpt lat="45.6965486" lon="11.4827417"><ele>127.0</ele><time>2026-04-26T15:11:34.432Z</time></trkpt><trkpt lat="45.6964813" lon="11.482818"><ele>127.0</ele><time>2026-04-26T15:11:35.431Z</time></trkpt><trkpt lat="45.6964008" lon="11.4828894"><ele>127.00000000000001</ele><time>2026-04-26T15:11:36.44Z</time></trkpt><trkpt lat="45.6963071" lon="11.4829613"><ele>127.0</ele><time>2026-04-26T15:11:37.438Z</time></trkpt><trkpt lat="45.6961913" lon="11.483015"><ele>127.19999999999999</ele><time>2026-04-26T15:11:38.431Z</time></trkpt><trkpt lat="45.6960812" lon="11.4830555"><ele>127.39999999999999</ele><time>2026-04-26T15:11:39.43Z</time></trkpt><trkpt lat="45.6959713" lon="11.4830712"><ele>127.60000000000001</ele><time>2026-04-26T15:11:40.431Z</time></trkpt><trkpt lat="45.6958652" lon="11.483076"><ele>127.80000000000001</ele><time>2026-04-26T15:11:41.43Z</time></trkpt><trkpt lat="45.6957613" lon="11.4830758"><ele>128.0</ele><time>2026-04-26T15:11:42.433Z</time></trkpt><trkpt lat="45.6956524" lon="11.4830752"><ele>128.0</ele><time>2026-04-26T15:11:43.431Z</time></trkpt><trkpt lat="45.6955452" lon="11.4830743"><ele>128.0</ele><time>2026-04-26T15:11:44.432Z</time></trkpt><trkpt lat="45.6954422" lon="11.483063"><ele>128.0</ele><time>2026-04-26T15:11:45.431Z</time></trkpt><trkpt lat="45.6953488" lon="11.4830569"><ele>128.0</ele><time>2026-04-26T15:11:46.43Z</time></trkpt><trkpt lat="45.6952572" lon="11.4830552"><ele>128.0</ele><time>2026-04-26T15:11:47.434Z</time></trkpt><trkpt lat="45.6951612" lon="11.4830467"><ele>127.33333333333333</ele><time>2026-04-26T15:11:48.435Z</time></trkpt><trkpt lat="45.6950776" lon="11.4830401"><ele>126.66666666666666</ele><time>2026-04-26T15:11:49.433Z</time></trkpt><trkpt lat="45.6949974" lon="11.4830313"><ele>126.0</ele><time>2026-04-26T15:11:50.432Z</time></trkpt><trkpt lat="45.6949209" lon="11.4830235"><ele>125.33333333333334</ele><time>2026-04-26T15:11:51.434Z</time></trkpt><trkpt lat="45.6948426" lon="11.4830165"><ele>124.66666666666667</ele><time>2026-04-26T15:11:52.431Z</time></trkpt><trkpt lat="45.6947683" lon="11.4830147"><ele>124.0</ele><time>2026-04-26T15:11:53.441Z</time></trkpt><trkpt lat="45.6946917" lon="11.483015"><ele>124.0</ele><time>2026-04-26T15:11:54.431Z</time></trkpt><trkpt lat="45.6946212" lon="11.4830134"><ele>124.00000000000001</ele><time>2026-04-26T15:11:55.432Z</time></trkpt><trkpt lat="45.694551" lon="11.4830059"><ele>124.0</ele><time>2026-04-26T15:11:56.432Z</time></trkpt><trkpt lat="45.6944802" lon="11.4829903"><ele>124.0</ele><time>2026-04-26T15:11:57.432Z</time></trkpt><trkpt lat="45.6944047" lon="11.4829756"><ele>124.00000000000001</ele><time>2026-04-26T15:11:58.431Z</time></trkpt><trkpt lat="45.694333" lon="11.482953"><ele>124.0</ele><time>2026-04-26T15:11:59.431Z</time></trkpt><trkpt lat="45.6942552" lon="11.4829259"><ele>124.0</ele><time>2026-04-26T15:12:00.433Z</time></trkpt><trkpt lat="45.6941749" lon="11.4828908"><ele>123.80000000000001</ele><time>2026-04-26T15:12:01.431Z</time></trkpt><trkpt lat="45.6940946" lon="11.4828513"><ele>123.60000000000001</ele><time>2026-04-26T15:12:02.431Z</time></trkpt><trkpt lat="45.6940169" lon="11.4828009"><ele>123.4</ele><time>2026-04-26T15:12:03.435Z</time></trkpt><trkpt lat="45.6939412" lon="11.4827381"><ele>123.2</ele><time>2026-04-26T15:12:04.431Z</time></trkpt><trkpt lat="45.6938623" lon="11.482661"><ele>123.0</ele><time>2026-04-26T15:12:05.43Z</time></trkpt><trkpt lat="45.6937837" lon="11.4825764"><ele>123.0</ele><time>2026-04-26T15:12:06.432Z</time></trkpt><trkpt lat="45.6937006" lon="11.4824858"><ele>123.00000000000001</ele><time>2026-04-26T15:12:07.431Z</time></trkpt><trkpt lat="45.6936158" lon="11.4823923"><ele>123.00000000000001</ele><time>2026-04-26T15:12:08.433Z</time></trkpt><trkpt lat="45.6935296" lon="11.4822997"><ele>123.0</ele><time>2026-04-26T15:12:09.433Z</time></trkpt><trkpt lat="45.693442" lon="11.4822092"><ele>123.0</ele><time>2026-04-26T15:12:10.432Z</time></trkpt><trkpt lat="45.6933593" lon="11.4821135"><ele>122.80000000000001</ele><time>2026-04-26T15:12:11.433Z</time></trkpt><trkpt lat="45.6932773" lon="11.4820244"><ele>122.60000000000001</ele><time>2026-04-26T15:12:12.432Z</time></trkpt><trkpt lat="45.6931942" lon="11.4819291"><ele>122.39999999999999</ele><time>2026-04-26T15:12:13.431Z</time></trkpt><trkpt lat="45.6931015" lon="11.4818315"><ele>122.19999999999999</ele><time>2026-04-26T15:12:14.432Z</time></trkpt><trkpt lat="45.6930087" lon="11.4817246"><ele>122.0</ele><time>2026-04-26T15:12:15.433Z</time></trkpt><trkpt lat="45.6929117" lon="11.4816192"><ele>122.0</ele><time>2026-04-26T15:12:16.431Z</time></trkpt><trkpt lat="45.6928122" lon="11.4815097"><ele>122.0</ele><time>2026-04-26T15:12:17.432Z</time></trkpt><trkpt lat="45.6927092" lon="11.4814037"><ele>122.0</ele><time>2026-04-26T15:12:18.431Z</time></trkpt><trkpt lat="45.6926032" lon="11.4812967"><ele>122.0</ele><time>2026-04-26T15:12:19.433Z</time></trkpt><trkpt lat="45.6924919" lon="11.4812005"><ele>122.0</ele><time>2026-04-26T15:12:20.431Z</time></trkpt><trkpt lat="45.6923744" lon="11.4811113"><ele>122.0</ele><time>2026-04-26T15:12:21.43Z</time></trkpt><trkpt lat="45.6922489" lon="11.4810342"><ele>122.0</ele><time>2026-04-26T15:12:22.43Z</time></trkpt><trkpt lat="45.6921208" lon="11.4809815"><ele>122.0</ele><time>2026-04-26T15:12:23.43Z</time></trkpt><trkpt lat="45.6919907" lon="11.4809462"><ele>121.25</ele><time>2026-04-26T15:12:24.431Z</time></trkpt><trkpt lat="45.6918714" lon="11.4809243"><ele>120.5</ele><time>2026-04-26T15:12:25.431Z</time></trkpt><trkpt lat="45.6917547" lon="11.4809079"><ele>119.75</ele><time>2026-04-26T15:12:26.431Z</time></trkpt><trkpt lat="45.6916383" lon="11.4808904"><ele>119.0</ele><time>2026-04-26T15:12:27.432Z</time></trkpt><trkpt lat="45.6915306" lon="11.4808831"><ele>119.0</ele><time>2026-04-26T15:12:28.432Z</time></trkpt><trkpt lat="45.6914328" lon="11.4808756"><ele>119.0</ele><time>2026-04-26T15:12:29.429Z</time></trkpt><trkpt lat="45.6913388" lon="11.480871"><ele>119.0</ele><time>2026-04-26T15:12:30.431Z</time></trkpt><trkpt lat="45.6912463" lon="11.480859"><ele>119.0</ele><time>2026-04-26T15:12:31.432Z</time></trkpt><trkpt lat="45.6911525" lon="11.4808506"><ele>119.0</ele><time>2026-04-26T15:12:32.432Z</time></trkpt><trkpt lat="45.6910591" lon="11.4808411"><ele>118.6</ele><time>2026-04-26T15:12:33.431Z</time></trkpt><trkpt lat="45.6909635" lon="11.4808277"><ele>118.2</ele><time>2026-04-26T15:12:34.433Z</time></trkpt><trkpt lat="45.6908724" lon="11.4808178"><ele>117.79999999999998</ele><time>2026-04-26T15:12:35.431Z</time></trkpt><trkpt lat="45.6907755" lon="11.480811"><ele>117.39999999999999</ele><time>2026-04-26T15:12:36.43Z</time></trkpt><trkpt lat="45.6906843" lon="11.4808026"><ele>117.0</ele><time>2026-04-26T15:12:37.434Z</time></trkpt><trkpt lat="45.690588" lon="11.4807985"><ele>117.0</ele><time>2026-04-26T15:12:38.431Z</time></trkpt><trkpt lat="45.6904933" lon="11.4808079"><ele>116.99999999999999</ele><time>2026-04-26T15:12:39.431Z</time></trkpt><trkpt lat="45.6904014" lon="11.4808269"><ele>116.99999999999999</ele><time>2026-04-26T15:12:40.431Z</time></trkpt><trkpt lat="45.6903092" lon="11.4808571"><ele>117.0</ele><time>2026-04-26T15:12:41.431Z</time></trkpt><trkpt lat="45.6902254" lon="11.4808957"><ele>117.0</ele><time>2026-04-26T15:12:42.43Z</time></trkpt><trkpt lat="45.6901436" lon="11.4809531"><ele>117.0</ele><time>2026-04-26T15:12:43.431Z</time></trkpt><trkpt lat="45.6900592" lon="11.4810148"><ele>116.99999999999999</ele><time>2026-04-26T15:12:44.43Z</time></trkpt><trkpt lat="45.6899823" lon="11.4810859"><ele>116.99999999999999</ele><time>2026-04-26T15:12:45.432Z</time></trkpt><trkpt lat="45.689921" lon="11.4811504"><ele>117.0</ele><time>2026-04-26T15:12:46.431Z</time></trkpt><trkpt lat="45.6898324" lon="11.4812218"><ele>117.0</ele><time>2026-04-26T15:12:47.431Z</time></trkpt><trkpt lat="45.6897354" lon="11.4813128"><ele>116.8</ele><time>2026-04-26T15:12:48.431Z</time></trkpt><trkpt lat="45.6896468" lon="11.4813974"><ele>116.6</ele><time>2026-04-26T15:12:49.432Z</time></trkpt><trkpt lat="45.6895656" lon="11.4814808"><ele>116.39999999999999</ele><time>2026-04-26T15:12:50.432Z</time></trkpt><trkpt lat="45.6894893" lon="11.4815539"><ele>116.19999999999999</ele><time>2026-04-26T15:12:51.431Z</time></trkpt><trkpt lat="45.6894244" lon="11.4816191"><ele>116.0</ele><time>2026-04-26T15:12:52.433Z</time></trkpt><trkpt lat="45.689334" lon="11.4817066"><ele>116.16666666666666</ele><time>2026-04-26T15:12:54.431Z</time></trkpt><trkpt lat="45.689264" lon="11.4817725"><ele>116.33333333333333</ele><time>2026-04-26T15:12:56.432Z</time></trkpt><trkpt lat="45.6892037" lon="11.4818213"><ele>116.5</ele><time>2026-04-26T15:12:58.434Z</time></trkpt><trkpt lat="45.6891453" lon="11.4818639"><ele>116.66666666666666</ele><time>2026-04-26T15:15:31.429Z</time></trkpt><trkpt lat="45.6890762" lon="11.482002"><ele>116.83333333333333</ele><time>2026-04-26T15:15:40.434Z</time></trkpt><trkpt lat="45.6890273" lon="11.4820699"><ele>117.0</ele><time>2026-04-26T15:15:41.431Z</time></trkpt><trkpt lat="45.688964" lon="11.4821497"><ele>117.0</ele><time>2026-04-26T15:15:42.43Z</time></trkpt><trkpt lat="45.688885" lon="11.4822501"><ele>117.0</ele><time>2026-04-26T15:15:43.433Z</time></trkpt><trkpt lat="45.6887989" lon="11.4823559"><ele>117.0</ele><time>2026-04-26T15:15:44.431Z</time></trkpt><trkpt lat="45.6887041" lon="11.4824667"><ele>117.0</ele><time>2026-04-26T15:15:45.431Z</time></trkpt><trkpt lat="45.688598" lon="11.4825801"><ele>116.33333333333334</ele><time>2026-04-26T15:15:46.432Z</time></trkpt><trkpt lat="45.6884766" lon="11.4827003"><ele>115.66666666666667</ele><time>2026-04-26T15:15:47.433Z</time></trkpt><trkpt lat="45.6883494" lon="11.4828126"><ele>115.0</ele><time>2026-04-26T15:15:48.434Z</time></trkpt><trkpt lat="45.688209" lon="11.4829247"><ele>115.33333333333334</ele><time>2026-04-26T15:15:49.432Z</time></trkpt><trkpt lat="45.6880631" lon="11.4830373"><ele>115.66666666666666</ele><time>2026-04-26T15:15:50.433Z</time></trkpt><trkpt lat="45.6879099" lon="11.4831478"><ele>116.0</ele><time>2026-04-26T15:15:51.43Z</time></trkpt><trkpt lat="45.6877495" lon="11.4832577"><ele>115.0</ele><time>2026-04-26T15:15:52.43Z</time></trkpt><trkpt lat="45.6875911" lon="11.4833695"><ele>114.0</ele><time>2026-04-26T15:15:53.431Z</time></trkpt><trkpt lat="45.687426" lon="11.4834834"><ele>113.0</ele><time>2026-04-26T15:15:54.435Z</time></trkpt><trkpt lat="45.6872617" lon="11.483588"><ele>113.0</ele><time>2026-04-26T15:15:55.433Z</time></trkpt><trkpt lat="45.6870886" lon="11.4836847"><ele>113.0</ele><time>2026-04-26T15:15:56.431Z</time></trkpt><trkpt lat="45.6869115" lon="11.4837655"><ele>113.0</ele><time>2026-04-26T15:15:57.432Z</time></trkpt><trkpt lat="45.6867303" lon="11.4838361"><ele>112.66666666666666</ele><time>2026-04-26T15:15:58.43Z</time></trkpt><trkpt lat="45.6865498" lon="11.4838962"><ele>112.33333333333334</ele><time>2026-04-26T15:15:59.43Z</time></trkpt><trkpt lat="45.6863729" lon="11.4839511"><ele>112.0</ele><time>2026-04-26T15:16:00.431Z</time></trkpt><trkpt lat="45.6861986" lon="11.4840054"><ele>112.66666666666667</ele><time>2026-04-26T15:16:01.43Z</time></trkpt><trkpt lat="45.6860267" lon="11.4840603"><ele>113.33333333333334</ele><time>2026-04-26T15:16:02.431Z</time></trkpt><trkpt lat="45.6858546" lon="11.4841131"><ele>114.0</ele><time>2026-04-26T15:16:03.432Z</time></trkpt><trkpt lat="45.6856852" lon="11.4841647"><ele>114.0</ele><time>2026-04-26T15:16:04.432Z</time></trkpt><trkpt lat="45.6855239" lon="11.4842163"><ele>114.0</ele><time>2026-04-26T15:16:05.43Z</time></trkpt><trkpt lat="45.6853648" lon="11.4842614"><ele>114.0</ele><time>2026-04-26T15:16:06.432Z</time></trkpt><trkpt lat="45.6852237" lon="11.4843121"><ele>113.5</ele><time>2026-04-26T15:16:07.43Z</time></trkpt><trkpt lat="45.6850875" lon="11.484363"><ele>113.0</ele><time>2026-04-26T15:16:08.43Z</time></trkpt><trkpt lat="45.6849624" lon="11.4844122"><ele>112.5</ele><time>2026-04-26T15:16:09.431Z</time></trkpt><trkpt lat="45.6848547" lon="11.4844508"><ele>112.0</ele><time>2026-04-26T15:16:10.432Z</time></trkpt><trkpt lat="45.6847574" lon="11.4844831"><ele>112.0</ele><time>2026-04-26T15:16:11.43Z</time></trkpt><trkpt lat="45.684662" lon="11.4845024"><ele>111.99999999999999</ele><time>2026-04-26T15:16:12.429Z</time></trkpt><trkpt lat="45.6845701" lon="11.4845097"><ele>111.99999999999999</ele><time>2026-04-26T15:16:13.43Z</time></trkpt><trkpt lat="45.6844841" lon="11.4845059"><ele>112.0</ele><time>2026-04-26T15:16:14.43Z</time></trkpt><trkpt lat="45.6843941" lon="11.4845161"><ele>112.0</ele><time>2026-04-26T15:16:15.431Z</time></trkpt><trkpt lat="45.6842945" lon="11.4845707"><ele>111.5</ele><time>2026-04-26T15:16:16.43Z</time></trkpt><trkpt lat="45.684172" lon="11.4846476"><ele>111.0</ele><time>2026-04-26T15:16:17.43Z</time></trkpt><trkpt lat="45.6840305" lon="11.4847115"><ele>110.5</ele><time>2026-04-26T15:16:18.432Z</time></trkpt><trkpt lat="45.6838808" lon="11.4847554"><ele>110.0</ele><time>2026-04-26T15:16:19.431Z</time></trkpt><trkpt lat="45.6837221" lon="11.484802"><ele>110.0</ele><time>2026-04-26T15:16:20.431Z</time></trkpt><trkpt lat="45.6835558" lon="11.4848437"><ele>110.0</ele><time>2026-04-26T15:16:21.432Z</time></trkpt><trkpt lat="45.6833825" lon="11.4848919"><ele>110.0</ele><time>2026-04-26T15:16:22.431Z</time></trkpt><trkpt lat="45.6832116" lon="11.4849448"><ele>110.0</ele><time>2026-04-26T15:16:23.431Z</time></trkpt><trkpt lat="45.6830381" lon="11.4849974"><ele>110.0</ele><time>2026-04-26T15:16:24.43Z</time></trkpt><trkpt lat="45.6828626" lon="11.4850563"><ele>110.0</ele><time>2026-04-26T15:16:25.43Z</time></trkpt><trkpt lat="45.6826835" lon="11.4851166"><ele>109.33333333333333</ele><time>2026-04-26T15:16:26.429Z</time></trkpt><trkpt lat="45.6824997" lon="11.4851692"><ele>108.66666666666666</ele><time>2026-04-26T15:16:27.432Z</time></trkpt><trkpt lat="45.6823161" lon="11.485221"><ele>108.0</ele><time>2026-04-26T15:16:28.43Z</time></trkpt><trkpt lat="45.6821295" lon="11.485281"><ele>108.0</ele><time>2026-04-26T15:16:29.429Z</time></trkpt><trkpt lat="45.6819388" lon="11.4853424"><ele>108.0</ele><time>2026-04-26T15:16:30.429Z</time></trkpt><trkpt lat="45.6817442" lon="11.4854028"><ele>108.0</ele><time>2026-04-26T15:16:31.429Z</time></trkpt><trkpt lat="45.6815489" lon="11.4854634"><ele>107.0</ele><time>2026-04-26T15:16:32.43Z</time></trkpt><trkpt lat="45.6813522" lon="11.4855255"><ele>106.0</ele><time>2026-04-26T15:16:33.433Z</time></trkpt><trkpt lat="45.6811557" lon="11.4855849"><ele>105.0</ele><time>2026-04-26T15:16:34.434Z</time></trkpt><trkpt lat="45.6809547" lon="11.4856446"><ele>105.0</ele><time>2026-04-26T15:16:35.432Z</time></trkpt><trkpt lat="45.6807486" lon="11.4857054"><ele>105.0</ele><time>2026-04-26T15:16:36.43Z</time></trkpt><trkpt lat="45.6805437" lon="11.4857705"><ele>105.0</ele><time>2026-04-26T15:16:37.431Z</time></trkpt><trkpt lat="45.6803375" lon="11.4858371"><ele>104.33333333333334</ele><time>2026-04-26T15:16:38.434Z</time></trkpt><trkpt lat="45.6801286" lon="11.4858987"><ele>103.66666666666667</ele><time>2026-04-26T15:16:39.43Z</time></trkpt><trkpt lat="45.6799222" lon="11.4859614"><ele>103.0</ele><time>2026-04-26T15:16:40.43Z</time></trkpt><trkpt lat="45.6797135" lon="11.4860301"><ele>103.0</ele><time>2026-04-26T15:16:41.432Z</time></trkpt><trkpt lat="45.6795045" lon="11.4860971"><ele>103.0</ele><time>2026-04-26T15:16:42.431Z</time></trkpt><trkpt lat="45.6792929" lon="11.4861651"><ele>103.0</ele><time>2026-04-26T15:16:43.431Z</time></trkpt><trkpt lat="45.6790775" lon="11.4862267"><ele>102.66666666666667</ele><time>2026-04-26T15:16:44.432Z</time></trkpt><trkpt lat="45.6788637" lon="11.4862926"><ele>102.33333333333334</ele><time>2026-04-26T15:16:45.431Z</time></trkpt><trkpt lat="45.6786507" lon="11.4863598"><ele>102.0</ele><time>2026-04-26T15:16:46.431Z</time></trkpt><trkpt lat="45.678435" lon="11.486427"><ele>102.0</ele><time>2026-04-26T15:16:47.431Z</time></trkpt><trkpt lat="45.678219" lon="11.486496"><ele>102.0</ele><time>2026-04-26T15:16:48.43Z</time></trkpt><trkpt lat="45.6780079" lon="11.4865668"><ele>102.0</ele><time>2026-04-26T15:16:49.43Z</time></trkpt><trkpt lat="45.6778032" lon="11.486634"><ele>101.33333333333334</ele><time>2026-04-26T15:16:50.432Z</time></trkpt><trkpt lat="45.677599" lon="11.486697"><ele>100.66666666666667</ele><time>2026-04-26T15:16:51.429Z</time></trkpt><trkpt lat="45.6774008" lon="11.4867558"><ele>100.0</ele><time>2026-04-26T15:16:52.432Z</time></trkpt><trkpt lat="45.6771974" lon="11.4868193"><ele>100.0</ele><time>2026-04-26T15:16:53.43Z</time></trkpt><trkpt lat="45.6769975" lon="11.4868818"><ele>100.0</ele><time>2026-04-26T15:16:54.43Z</time></trkpt><trkpt lat="45.6767996" lon="11.4869406"><ele>100.0</ele><time>2026-04-26T15:16:55.431Z</time></trkpt><trkpt lat="45.6766041" lon="11.4870037"><ele>99.66666666666667</ele><time>2026-04-26T15:16:56.429Z</time></trkpt><trkpt lat="45.6764078" lon="11.4870636"><ele>99.33333333333334</ele><time>2026-04-26T15:16:57.431Z</time></trkpt><trkpt lat="45.6762219" lon="11.4871197"><ele>99.0</ele><time>2026-04-26T15:16:58.432Z</time></trkpt><trkpt lat="45.676045" lon="11.4871753"><ele>98.33333333333334</ele><time>2026-04-26T15:16:59.432Z</time></trkpt><trkpt lat="45.6758776" lon="11.4872302"><ele>97.66666666666667</ele><time>2026-04-26T15:17:00.433Z</time></trkpt><trkpt lat="45.675711" lon="11.4872824"><ele>97.0</ele><time>2026-04-26T15:17:01.431Z</time></trkpt><trkpt lat="45.6755403" lon="11.4873344"><ele>97.0</ele><time>2026-04-26T15:17:02.434Z</time></trkpt><trkpt lat="45.6753691" lon="11.4873913"><ele>97.0</ele><time>2026-04-26T15:17:03.431Z</time></trkpt><trkpt lat="45.6752138" lon="11.487441"><ele>97.0</ele><time>2026-04-26T15:17:04.432Z</time></trkpt><trkpt lat="45.6750652" lon="11.4874864"><ele>96.66666666666667</ele><time>2026-04-26T15:17:05.433Z</time></trkpt><trkpt lat="45.6749131" lon="11.4875335"><ele>96.33333333333334</ele><time>2026-04-26T15:17:06.431Z</time></trkpt><trkpt lat="45.6747621" lon="11.4875797"><ele>96.0</ele><time>2026-04-26T15:17:07.429Z</time></trkpt><trkpt lat="45.6746092" lon="11.4876351"><ele>96.0</ele><time>2026-04-26T15:17:08.432Z</time></trkpt><trkpt lat="45.6744547" lon="11.4876821"><ele>96.0</ele><time>2026-04-26T15:17:09.434Z</time></trkpt><trkpt lat="45.6743006" lon="11.48773"><ele>96.0</ele><time>2026-04-26T15:17:10.431Z</time></trkpt><trkpt lat="45.6741405" lon="11.4877851"><ele>95.66666666666667</ele><time>2026-04-26T15:17:11.431Z</time></trkpt><trkpt lat="45.6739797" lon="11.4878349"><ele>95.33333333333334</ele><time>2026-04-26T15:17:12.432Z</time></trkpt><trkpt lat="45.6738244" lon="11.4878905"><ele>95.0</ele><time>2026-04-26T15:17:13.43Z</time></trkpt><trkpt lat="45.6736612" lon="11.4879412"><ele>94.66666666666667</ele><time>2026-04-26T15:17:14.43Z</time></trkpt><trkpt lat="45.6734913" lon="11.4879999"><ele>94.33333333333333</ele><time>2026-04-26T15:17:15.432Z</time></trkpt><trkpt lat="45.6733215" lon="11.4880538"><ele>94.0</ele><time>2026-04-26T15:17:16.432Z</time></trkpt><trkpt lat="45.6731492" lon="11.4881032"><ele>94.0</ele><time>2026-04-26T15:17:17.431Z</time></trkpt><trkpt lat="45.6729722" lon="11.4881602"><ele>94.0</ele><time>2026-04-26T15:17:18.43Z</time></trkpt><trkpt lat="45.6727978" lon="11.4882079"><ele>94.0</ele><time>2026-04-26T15:17:19.431Z</time></trkpt><trkpt lat="45.6726235" lon="11.488258"><ele>94.33333333333333</ele><time>2026-04-26T15:17:20.433Z</time></trkpt><trkpt lat="45.6724561" lon="11.4883073"><ele>94.66666666666667</ele><time>2026-04-26T15:17:21.433Z</time></trkpt><trkpt lat="45.6722954" lon="11.4883502"><ele>95.0</ele><time>2026-04-26T15:17:22.432Z</time></trkpt><trkpt lat="45.672144" lon="11.4883865"><ele>95.0</ele><time>2026-04-26T15:17:23.43Z</time></trkpt><trkpt lat="45.6719879" lon="11.488428"><ele>95.0</ele><time>2026-04-26T15:17:24.43Z</time></trkpt><trkpt lat="45.6718347" lon="11.4884721"><ele>95.0</ele><time>2026-04-26T15:17:25.431Z</time></trkpt><trkpt lat="45.6716794" lon="11.488516"><ele>94.0</ele><time>2026-04-26T15:17:26.431Z</time></trkpt><trkpt lat="45.6715305" lon="11.4885609"><ele>93.0</ele><time>2026-04-26T15:17:27.432Z</time></trkpt><trkpt lat="45.6713709" lon="11.4886113"><ele>92.0</ele><time>2026-04-26T15:17:28.43Z</time></trkpt><trkpt lat="45.6712098" lon="11.4886723"><ele>91.66666666666667</ele><time>2026-04-26T15:17:29.431Z</time></trkpt><trkpt lat="45.6710419" lon="11.4887384"><ele>91.33333333333333</ele><time>2026-04-26T15:17:30.43Z</time></trkpt><trkpt lat="45.6708722" lon="11.4888011"><ele>91.0</ele><time>2026-04-26T15:17:31.431Z</time></trkpt><trkpt lat="45.6707046" lon="11.4888665"><ele>91.0</ele><time>2026-04-26T15:17:32.431Z</time></trkpt><trkpt lat="45.6705266" lon="11.4889347"><ele>91.0</ele><time>2026-04-26T15:17:33.43Z</time></trkpt><trkpt lat="45.6703455" lon="11.488996"><ele>91.0</ele><time>2026-04-26T15:17:34.433Z</time></trkpt><trkpt lat="45.6701671" lon="11.4890584"><ele>90.66666666666666</ele><time>2026-04-26T15:17:35.43Z</time></trkpt><trkpt lat="45.6699843" lon="11.4891176"><ele>90.33333333333333</ele><time>2026-04-26T15:17:36.43Z</time></trkpt><trkpt lat="45.6698029" lon="11.4891711"><ele>90.0</ele><time>2026-04-26T15:17:37.43Z</time></trkpt><trkpt lat="45.6696231" lon="11.4892295"><ele>90.0</ele><time>2026-04-26T15:17:38.43Z</time></trkpt><trkpt lat="45.6694444" lon="11.489286"><ele>90.0</ele><time>2026-04-26T15:17:39.428Z</time></trkpt><trkpt lat="45.6692642" lon="11.4893435"><ele>90.0</ele><time>2026-04-26T15:17:40.431Z</time></trkpt><trkpt lat="45.6690865" lon="11.489402"><ele>88.66666666666667</ele><time>2026-04-26T15:17:41.43Z</time></trkpt><trkpt lat="45.6689005" lon="11.4894602"><ele>87.33333333333334</ele><time>2026-04-26T15:17:42.43Z</time></trkpt><trkpt lat="45.6687236" lon="11.4895177"><ele>86.0</ele><time>2026-04-26T15:17:43.433Z</time></trkpt><trkpt lat="45.6685471" lon="11.4895729"><ele>85.66666666666667</ele><time>2026-04-26T15:17:44.43Z</time></trkpt><trkpt lat="45.66837" lon="11.4896298"><ele>85.33333333333333</ele><time>2026-04-26T15:17:45.43Z</time></trkpt><trkpt lat="45.6681966" lon="11.4896851"><ele>85.0</ele><time>2026-04-26T15:17:46.43Z</time></trkpt><trkpt lat="45.6680239" lon="11.4897409"><ele>85.0</ele><time>2026-04-26T15:17:47.429Z</time></trkpt><trkpt lat="45.6678507" lon="11.4897968"><ele>85.0</ele><time>2026-04-26T15:17:48.43Z</time></trkpt><trkpt lat="45.6676768" lon="11.4898491"><ele>85.0</ele><time>2026-04-26T15:17:49.429Z</time></trkpt><trkpt lat="45.6675097" lon="11.4899078"><ele>84.66666666666666</ele><time>2026-04-26T15:17:50.442Z</time></trkpt><trkpt lat="45.6673453" lon="11.4899574"><ele>84.33333333333333</ele><time>2026-04-26T15:17:51.43Z</time></trkpt><trkpt lat="45.6671879" lon="11.4900081"><ele>84.0</ele><time>2026-04-26T15:17:52.432Z</time></trkpt><trkpt lat="45.6670364" lon="11.4900549"><ele>85.0</ele><time>2026-04-26T15:17:53.43Z</time></trkpt><trkpt lat="45.6668829" lon="11.4901071"><ele>86.0</ele><time>2026-04-26T15:17:54.432Z</time></trkpt><trkpt lat="45.6667311" lon="11.4901588"><ele>87.0</ele><time>2026-04-26T15:17:55.432Z</time></trkpt><trkpt lat="45.6665837" lon="11.4902014"><ele>87.0</ele><time>2026-04-26T15:17:56.43Z</time></trkpt><trkpt lat="45.6664352" lon="11.4902441"><ele>87.0</ele><time>2026-04-26T15:17:57.431Z</time></trkpt><trkpt lat="45.6662782" lon="11.4903059"><ele>87.0</ele><time>2026-04-26T15:17:58.43Z</time></trkpt><trkpt lat="45.6661333" lon="11.4903605"><ele>86.5</ele><time>2026-04-26T15:17:59.43Z</time></trkpt><trkpt lat="45.6659976" lon="11.4904046"><ele>86.0</ele><time>2026-04-26T15:18:00.429Z</time></trkpt><trkpt lat="45.6658674" lon="11.4904494"><ele>85.5</ele><time>2026-04-26T15:18:01.432Z</time></trkpt><trkpt lat="45.6657402" lon="11.4904957"><ele>85.0</ele><time>2026-04-26T15:18:02.431Z</time></trkpt><trkpt lat="45.6656135" lon="11.4905388"><ele>85.0</ele><time>2026-04-26T15:18:03.432Z</time></trkpt><trkpt lat="45.6654921" lon="11.4905806"><ele>85.0</ele><time>2026-04-26T15:18:04.431Z</time></trkpt><trkpt lat="45.6653645" lon="11.4906219"><ele>85.0</ele><time>2026-04-26T15:18:05.434Z</time></trkpt><trkpt lat="45.6652369" lon="11.4906601"><ele>85.0</ele><time>2026-04-26T15:18:06.436Z</time></trkpt><trkpt lat="45.6651066" lon="11.490703"><ele>84.5</ele><time>2026-04-26T15:18:07.433Z</time></trkpt><trkpt lat="45.6649725" lon="11.4907423"><ele>84.0</ele><time>2026-04-26T15:18:08.43Z</time></trkpt><trkpt lat="45.6648342" lon="11.4907885"><ele>83.5</ele><time>2026-04-26T15:18:09.433Z</time></trkpt><trkpt lat="45.6646976" lon="11.4908363"><ele>83.0</ele><time>2026-04-26T15:18:10.437Z</time></trkpt><trkpt lat="45.6645595" lon="11.4908777"><ele>82.75</ele><time>2026-04-26T15:18:11.43Z</time></trkpt><trkpt lat="45.6644187" lon="11.4909186"><ele>82.5</ele><time>2026-04-26T15:18:12.429Z</time></trkpt><trkpt lat="45.6642859" lon="11.4909558"><ele>82.25</ele><time>2026-04-26T15:18:13.43Z</time></trkpt><trkpt lat="45.6641555" lon="11.4909906"><ele>82.0</ele><time>2026-04-26T15:18:14.429Z</time></trkpt><trkpt lat="45.6640302" lon="11.4910245"><ele>82.0</ele><time>2026-04-26T15:18:15.43Z</time></trkpt><trkpt lat="45.6639116" lon="11.4910492"><ele>82.0</ele><time>2026-04-26T15:18:16.43Z</time></trkpt><trkpt lat="45.6637934" lon="11.4910732"><ele>82.0</ele><time>2026-04-26T15:18:17.43Z</time></trkpt><trkpt lat="45.6636748" lon="11.4910952"><ele>82.0</ele><time>2026-04-26T15:18:18.43Z</time></trkpt><trkpt lat="45.6635569" lon="11.4911166"><ele>82.0</ele><time>2026-04-26T15:18:19.429Z</time></trkpt><trkpt lat="45.6634355" lon="11.4911338"><ele>82.0</ele><time>2026-04-26T15:18:20.429Z</time></trkpt><trkpt lat="45.6633158" lon="11.4911508"><ele>82.0</ele><time>2026-04-26T15:18:21.43Z</time></trkpt><trkpt lat="45.6632015" lon="11.4911685"><ele>82.0</ele><time>2026-04-26T15:18:22.431Z</time></trkpt><trkpt lat="45.66309" lon="11.4911863"><ele>82.0</ele><time>2026-04-26T15:18:23.432Z</time></trkpt><trkpt lat="45.6629844" lon="11.491205"><ele>82.0</ele><time>2026-04-26T15:18:24.43Z</time></trkpt><trkpt lat="45.6628819" lon="11.4912269"><ele>82.0</ele><time>2026-04-26T15:18:25.43Z</time></trkpt><trkpt lat="45.6627841" lon="11.4912456"><ele>82.0</ele><time>2026-04-26T15:18:26.429Z</time></trkpt><trkpt lat="45.662689" lon="11.4912656"><ele>82.0</ele><time>2026-04-26T15:18:27.43Z</time></trkpt><trkpt lat="45.6625955" lon="11.4912869"><ele>81.8</ele><time>2026-04-26T15:18:28.43Z</time></trkpt><trkpt lat="45.6625116" lon="11.4913104"><ele>81.6</ele><time>2026-04-26T15:18:29.431Z</time></trkpt><trkpt lat="45.6624384" lon="11.4913254"><ele>81.39999999999999</ele><time>2026-04-26T15:18:30.43Z</time></trkpt><trkpt lat="45.6623174" lon="11.4913424"><ele>81.19999999999999</ele><time>2026-04-26T15:18:32.43Z</time></trkpt><trkpt lat="45.662202" lon="11.4913223"><ele>81.0</ele><time>2026-04-26T15:18:34.429Z</time></trkpt><trkpt lat="45.6621326" lon="11.4913056"><ele>81.0</ele><time>2026-04-26T15:18:35.432Z</time></trkpt><trkpt lat="45.6620602" lon="11.4913015"><ele>81.0</ele><time>2026-04-26T15:18:36.43Z</time></trkpt><trkpt lat="45.6619839" lon="11.4913313"><ele>81.0</ele><time>2026-04-26T15:18:37.431Z</time></trkpt><trkpt lat="45.6619182" lon="11.4913865"><ele>81.0</ele><time>2026-04-26T15:18:38.43Z</time></trkpt><trkpt lat="45.6618581" lon="11.4914575"><ele>81.0</ele><time>2026-04-26T15:18:39.43Z</time></trkpt><trkpt lat="45.6617912" lon="11.4915221"><ele>81.0</ele><time>2026-04-26T15:18:40.43Z</time></trkpt><trkpt lat="45.6617104" lon="11.4915718"><ele>80.5</ele><time>2026-04-26T15:18:41.432Z</time></trkpt><trkpt lat="45.6616225" lon="11.4916193"><ele>80.0</ele><time>2026-04-26T15:18:42.429Z</time></trkpt><trkpt lat="45.6615242" lon="11.4916644"><ele>79.5</ele><time>2026-04-26T15:18:43.43Z</time></trkpt><trkpt lat="45.661406" lon="11.4917176"><ele>79.0</ele><time>2026-04-26T15:18:44.43Z</time></trkpt><trkpt lat="45.6612754" lon="11.4917694"><ele>79.0</ele><time>2026-04-26T15:18:45.435Z</time></trkpt><trkpt lat="45.6611309" lon="11.4918117"><ele>79.0</ele><time>2026-04-26T15:18:46.43Z</time></trkpt><trkpt lat="45.660996" lon="11.4918616"><ele>79.0</ele><time>2026-04-26T15:18:47.43Z</time></trkpt><trkpt lat="45.6608591" lon="11.4919099"><ele>79.0</ele><time>2026-04-26T15:18:48.43Z</time></trkpt><trkpt lat="45.6607234" lon="11.4919677"><ele>78.5</ele><time>2026-04-26T15:18:49.43Z</time></trkpt><trkpt lat="45.6605876" lon="11.4920244"><ele>78.0</ele><time>2026-04-26T15:18:50.43Z</time></trkpt><trkpt lat="45.6604446" lon="11.4920906"><ele>77.5</ele><time>2026-04-26T15:18:51.431Z</time></trkpt><trkpt lat="45.6603029" lon="11.4921504"><ele>77.0</ele><time>2026-04-26T15:18:52.43Z</time></trkpt><trkpt lat="45.660156" lon="11.4922037"><ele>76.75</ele><time>2026-04-26T15:18:53.429Z</time></trkpt><trkpt lat="45.6600139" lon="11.492255"><ele>76.5</ele><time>2026-04-26T15:18:54.43Z</time></trkpt><trkpt lat="45.6598794" lon="11.4923086"><ele>76.25</ele><time>2026-04-26T15:18:55.429Z</time></trkpt><trkpt lat="45.6597529" lon="11.4923565"><ele>76.0</ele><time>2026-04-26T15:18:56.429Z</time></trkpt><trkpt lat="45.6596308" lon="11.4924014"><ele>76.0</ele><time>2026-04-26T15:18:57.433Z</time></trkpt><trkpt lat="45.659509" lon="11.4924502"><ele>76.0</ele><time>2026-04-26T15:18:58.431Z</time></trkpt><trkpt lat="45.6593891" lon="11.492499"><ele>76.0</ele><time>2026-04-26T15:18:59.43Z</time></trkpt><trkpt lat="45.6592703" lon="11.4925434"><ele>76.0</ele><time>2026-04-26T15:19:00.43Z</time></trkpt><trkpt lat="45.6591637" lon="11.4925891"><ele>76.0</ele><time>2026-04-26T15:19:01.433Z</time></trkpt><trkpt lat="45.6590617" lon="11.4926309"><ele>76.0</ele><time>2026-04-26T15:19:02.431Z</time></trkpt><trkpt lat="45.6589765" lon="11.4926663"><ele>76.0</ele><time>2026-04-26T15:19:03.43Z</time></trkpt><trkpt lat="45.6588997" lon="11.4926942"><ele>76.0</ele><time>2026-04-26T15:19:04.43Z</time></trkpt><trkpt lat="45.6588227" lon="11.4927218"><ele>76.0</ele><time>2026-04-26T15:19:05.43Z</time></trkpt><trkpt lat="45.6587559" lon="11.4927573"><ele>76.0</ele><time>2026-04-26T15:19:06.431Z</time></trkpt><trkpt lat="45.6586911" lon="11.4927809"><ele>76.0</ele><time>2026-04-26T15:19:07.432Z</time></trkpt><trkpt lat="45.658628" lon="11.4928052"><ele>76.0</ele><time>2026-04-26T15:19:08.431Z</time></trkpt><trkpt lat="45.6585311" lon="11.492846"><ele>76.0</ele><time>2026-04-26T15:19:10.431Z</time></trkpt><trkpt lat="45.658414" lon="11.4928967"><ele>76.0</ele><time>2026-04-26T15:19:12.43Z</time></trkpt><trkpt lat="45.6582886" lon="11.4929499"><ele>76.0</ele><time>2026-04-26T15:19:14.434Z</time></trkpt><trkpt lat="45.6582111" lon="11.4929813"><ele>76.0</ele><time>2026-04-26T15:19:15.43Z</time></trkpt><trkpt lat="45.6581278" lon="11.4930169"><ele>76.0</ele><time>2026-04-26T15:19:16.429Z</time></trkpt><trkpt lat="45.6580342" lon="11.4930573"><ele>76.0</ele><time>2026-04-26T15:19:17.429Z</time></trkpt><trkpt lat="45.6579254" lon="11.4931091"><ele>76.0</ele><time>2026-04-26T15:19:18.429Z</time></trkpt><trkpt lat="45.6578024" lon="11.4931591"><ele>76.0</ele><time>2026-04-26T15:19:19.428Z</time></trkpt><trkpt lat="45.6576844" lon="11.4932048"><ele>76.5</ele><time>2026-04-26T15:19:20.43Z</time></trkpt><trkpt lat="45.6575605" lon="11.4932538"><ele>77.0</ele><time>2026-04-26T15:19:21.429Z</time></trkpt><trkpt lat="45.6574327" lon="11.4933049"><ele>77.5</ele><time>2026-04-26T15:19:22.429Z</time></trkpt><trkpt lat="45.6573037" lon="11.4933567"><ele>78.0</ele><time>2026-04-26T15:19:23.43Z</time></trkpt><trkpt lat="45.65718" lon="11.4934021"><ele>78.0</ele><time>2026-04-26T15:19:24.429Z</time></trkpt><trkpt lat="45.6570569" lon="11.4934544"><ele>78.0</ele><time>2026-04-26T15:19:25.431Z</time></trkpt><trkpt lat="45.6569372" lon="11.4934877"><ele>78.0</ele><time>2026-04-26T15:19:26.433Z</time></trkpt><trkpt lat="45.6568202" lon="11.493529"><ele>78.0</ele><time>2026-04-26T15:19:27.434Z</time></trkpt><trkpt lat="45.6567086" lon="11.4935696"><ele>77.8</ele><time>2026-04-26T15:19:28.429Z</time></trkpt><trkpt lat="45.6566009" lon="11.4936032"><ele>77.6</ele><time>2026-04-26T15:19:29.434Z</time></trkpt><trkpt lat="45.6564973" lon="11.4936363"><ele>77.4</ele><time>2026-04-26T15:19:30.43Z</time></trkpt><trkpt lat="45.6563876" lon="11.4936676"><ele>77.2</ele><time>2026-04-26T15:19:31.431Z</time></trkpt><trkpt lat="45.656277" lon="11.4936971"><ele>77.0</ele><time>2026-04-26T15:19:32.43Z</time></trkpt><trkpt lat="45.6561673" lon="11.4937274"><ele>76.6</ele><time>2026-04-26T15:19:33.431Z</time></trkpt><trkpt lat="45.6560607" lon="11.4937573"><ele>76.2</ele><time>2026-04-26T15:19:34.429Z</time></trkpt><trkpt lat="45.6559533" lon="11.4937886"><ele>75.8</ele><time>2026-04-26T15:19:35.43Z</time></trkpt><trkpt lat="45.6558499" lon="11.4938159"><ele>75.4</ele><time>2026-04-26T15:19:36.43Z</time></trkpt><trkpt lat="45.6557511" lon="11.4938388"><ele>75.0</ele><time>2026-04-26T15:19:37.431Z</time></trkpt><trkpt lat="45.655653" lon="11.4938588"><ele>75.0</ele><time>2026-04-26T15:19:38.429Z</time></trkpt><trkpt lat="45.6555516" lon="11.4938894"><ele>75.0</ele><time>2026-04-26T15:19:39.43Z</time></trkpt><trkpt lat="45.655451" lon="11.493914"><ele>75.0</ele><time>2026-04-26T15:19:40.43Z</time></trkpt><trkpt lat="45.655346" lon="11.4939361"><ele>75.0</ele><time>2026-04-26T15:19:41.431Z</time></trkpt><trkpt lat="45.6552478" lon="11.493969"><ele>75.0</ele><time>2026-04-26T15:19:42.429Z</time></trkpt><trkpt lat="45.6551496" lon="11.4939978"><ele>75.0</ele><time>2026-04-26T15:19:43.431Z</time></trkpt><trkpt lat="45.6550522" lon="11.494024"><ele>75.0</ele><time>2026-04-26T15:19:44.428Z</time></trkpt><trkpt lat="45.6549543" lon="11.4940524"><ele>75.0</ele><time>2026-04-26T15:19:45.431Z</time></trkpt><trkpt lat="45.6548525" lon="11.4940807"><ele>75.0</ele><time>2026-04-26T15:19:46.431Z</time></trkpt><trkpt lat="45.6547422" lon="11.4941094"><ele>75.0</ele><time>2026-04-26T15:19:47.432Z</time></trkpt><trkpt lat="45.6546381" lon="11.4941405"><ele>75.0</ele><time>2026-04-26T15:19:48.432Z</time></trkpt><trkpt lat="45.6545278" lon="11.4941698"><ele>75.0</ele><time>2026-04-26T15:19:49.43Z</time></trkpt><trkpt lat="45.6544214" lon="11.4941916"><ele>75.0</ele><time>2026-04-26T15:19:50.431Z</time></trkpt><trkpt lat="45.6543189" lon="11.4942124"><ele>75.0</ele><time>2026-04-26T15:19:51.428Z</time></trkpt><trkpt lat="45.6542198" lon="11.4942308"><ele>75.0</ele><time>2026-04-26T15:19:52.43Z</time></trkpt><trkpt lat="45.6541215" lon="11.4942402"><ele>75.0</ele><time>2026-04-26T15:19:53.432Z</time></trkpt><trkpt lat="45.654025" lon="11.4942534"><ele>75.0</ele><time>2026-04-26T15:19:54.43Z</time></trkpt><trkpt lat="45.6539244" lon="11.4942621"><ele>75.0</ele><time>2026-04-26T15:19:55.431Z</time></trkpt><trkpt lat="45.6538182" lon="11.4942805"><ele>75.0</ele><time>2026-04-26T15:19:56.43Z</time></trkpt><trkpt lat="45.653706" lon="11.4943061"><ele>75.0</ele><time>2026-04-26T15:19:57.429Z</time></trkpt><trkpt lat="45.6535902" lon="11.4943462"><ele>74.5</ele><time>2026-04-26T15:19:58.429Z</time></trkpt><trkpt lat="45.6534771" lon="11.49439"><ele>74.0</ele><time>2026-04-26T15:19:59.428Z</time></trkpt><trkpt lat="45.6533652" lon="11.4944221"><ele>73.5</ele><time>2026-04-26T15:20:00.434Z</time></trkpt><trkpt lat="45.6532496" lon="11.4944535"><ele>73.0</ele><time>2026-04-26T15:20:01.429Z</time></trkpt><trkpt lat="45.6531315" lon="11.4944882"><ele>73.0</ele><time>2026-04-26T15:20:02.431Z</time></trkpt><trkpt lat="45.6530159" lon="11.4945214"><ele>73.0</ele><time>2026-04-26T15:20:03.429Z</time></trkpt><trkpt lat="45.6529019" lon="11.4945527"><ele>73.0</ele><time>2026-04-26T15:20:04.431Z</time></trkpt><trkpt lat="45.6527916" lon="11.4945788"><ele>73.0</ele><time>2026-04-26T15:20:05.43Z</time></trkpt><trkpt lat="45.6526786" lon="11.4946061"><ele>73.25</ele><time>2026-04-26T15:20:06.431Z</time></trkpt><trkpt lat="45.6525634" lon="11.4946259"><ele>73.5</ele><time>2026-04-26T15:20:07.428Z</time></trkpt><trkpt lat="45.6524454" lon="11.4946485"><ele>73.75</ele><time>2026-04-26T15:20:08.43Z</time></trkpt><trkpt lat="45.6523282" lon="11.4946659"><ele>74.0</ele><time>2026-04-26T15:20:09.43Z</time></trkpt><trkpt lat="45.6522136" lon="11.4946831"><ele>74.0</ele><time>2026-04-26T15:20:10.429Z</time></trkpt><trkpt lat="45.652103" lon="11.4946906"><ele>74.0</ele><time>2026-04-26T15:20:11.43Z</time></trkpt><trkpt lat="45.6519898" lon="11.4946888"><ele>74.0</ele><time>2026-04-26T15:20:12.429Z</time></trkpt><trkpt lat="45.6518748" lon="11.4946783"><ele>74.0</ele><time>2026-04-26T15:20:13.429Z</time></trkpt><trkpt lat="45.6517653" lon="11.494648"><ele>74.2</ele><time>2026-04-26T15:20:14.433Z</time></trkpt><trkpt lat="45.6516701" lon="11.4945976"><ele>74.4</ele><time>2026-04-26T15:20:15.43Z</time></trkpt><trkpt lat="45.6515833" lon="11.4945304"><ele>74.6</ele><time>2026-04-26T15:20:16.431Z</time></trkpt><trkpt lat="45.6515129" lon="11.4944661"><ele>74.8</ele><time>2026-04-26T15:20:17.43Z</time></trkpt><trkpt lat="45.6514247" lon="11.4943787"><ele>75.0</ele><time>2026-04-26T15:20:19.43Z</time></trkpt><trkpt lat="45.6513461" lon="11.4943168"><ele>75.2</ele><time>2026-04-26T15:20:21.429Z</time></trkpt><trkpt lat="45.6512686" lon="11.4942655"><ele>75.4</ele><time>2026-04-26T15:20:23.429Z</time></trkpt><trkpt lat="45.6511563" lon="11.4941932"><ele>75.6</ele><time>2026-04-26T15:20:25.43Z</time></trkpt><trkpt lat="45.6510854" lon="11.4941514"><ele>75.8</ele><time>2026-04-26T15:20:26.43Z</time></trkpt><trkpt lat="45.6510067" lon="11.4941168"><ele>76.0</ele><time>2026-04-26T15:20:27.43Z</time></trkpt><trkpt lat="45.650924" lon="11.4940831"><ele>75.5</ele><time>2026-04-26T15:20:28.431Z</time></trkpt><trkpt lat="45.6508411" lon="11.4940528"><ele>75.0</ele><time>2026-04-26T15:20:29.43Z</time></trkpt><trkpt lat="45.650757" lon="11.4940217"><ele>74.5</ele><time>2026-04-26T15:20:30.43Z</time></trkpt><trkpt lat="45.6506797" lon="11.4939854"><ele>74.0</ele><time>2026-04-26T15:20:31.428Z</time></trkpt><trkpt lat="45.6505994" lon="11.4939524"><ele>73.5</ele><time>2026-04-26T15:20:32.43Z</time></trkpt><trkpt lat="45.650525" lon="11.4939208"><ele>73.0</ele><time>2026-04-26T15:20:33.433Z</time></trkpt><trkpt lat="45.6504578" lon="11.4938962"><ele>73.0</ele><time>2026-04-26T15:20:34.431Z</time></trkpt><trkpt lat="45.6503292" lon="11.4938436"><ele>73.0</ele><time>2026-04-26T15:20:36.429Z</time></trkpt><trkpt lat="45.6502521" lon="11.4938116"><ele>73.0</ele><time>2026-04-26T15:20:37.43Z</time></trkpt><trkpt lat="45.6501454" lon="11.4937898"><ele>73.0</ele><time>2026-04-26T15:20:38.43Z</time></trkpt><trkpt lat="45.650035" lon="11.4937653"><ele>73.0</ele><time>2026-04-26T15:20:39.431Z</time></trkpt><trkpt lat="45.6499237" lon="11.4937368"><ele>72.8</ele><time>2026-04-26T15:20:40.43Z</time></trkpt><trkpt lat="45.649816" lon="11.4937055"><ele>72.6</ele><time>2026-04-26T15:20:41.43Z</time></trkpt><trkpt lat="45.6497118" lon="11.4936784"><ele>72.4</ele><time>2026-04-26T15:20:42.43Z</time></trkpt><trkpt lat="45.6496052" lon="11.4936546"><ele>72.2</ele><time>2026-04-26T15:20:43.429Z</time></trkpt><trkpt lat="45.6495017" lon="11.4936343"><ele>72.0</ele><time>2026-04-26T15:20:44.429Z</time></trkpt><trkpt lat="45.6493972" lon="11.4936152"><ele>71.6</ele><time>2026-04-26T15:20:45.43Z</time></trkpt><trkpt lat="45.6492929" lon="11.4935957"><ele>71.2</ele><time>2026-04-26T15:20:46.428Z</time></trkpt><trkpt lat="45.6491822" lon="11.4935791"><ele>70.8</ele><time>2026-04-26T15:20:47.43Z</time></trkpt><trkpt lat="45.649071" lon="11.4935632"><ele>70.4</ele><time>2026-04-26T15:20:48.432Z</time></trkpt><trkpt lat="45.6489567" lon="11.4935471"><ele>70.0</ele><time>2026-04-26T15:20:49.43Z</time></trkpt><trkpt lat="45.6488421" lon="11.4935318"><ele>70.0</ele><time>2026-04-26T15:20:50.431Z</time></trkpt><trkpt lat="45.6487261" lon="11.4935184"><ele>70.0</ele><time>2026-04-26T15:20:51.433Z</time></trkpt><trkpt lat="45.6486097" lon="11.4935049"><ele>70.0</ele><time>2026-04-26T15:20:52.431Z</time></trkpt><trkpt lat="45.6484917" lon="11.4934939"><ele>70.0</ele><time>2026-04-26T15:20:53.431Z</time></trkpt><trkpt lat="45.6483749" lon="11.493478"><ele>70.0</ele><time>2026-04-26T15:20:54.43Z</time></trkpt><trkpt lat="45.6482577" lon="11.4934574"><ele>70.0</ele><time>2026-04-26T15:20:55.429Z</time></trkpt><trkpt lat="45.6481391" lon="11.4934462"><ele>70.0</ele><time>2026-04-26T15:20:56.43Z</time></trkpt><trkpt lat="45.648015" lon="11.4934299"><ele>70.0</ele><time>2026-04-26T15:20:57.432Z</time></trkpt><trkpt lat="45.6478945" lon="11.4934152"><ele>69.75</ele><time>2026-04-26T15:20:58.43Z</time></trkpt><trkpt lat="45.6477689" lon="11.4933971"><ele>69.5</ele><time>2026-04-26T15:20:59.43Z</time></trkpt><trkpt lat="45.6476428" lon="11.4933816"><ele>69.25</ele><time>2026-04-26T15:21:00.431Z</time></trkpt><trkpt lat="45.6475168" lon="11.4933629"><ele>69.0</ele><time>2026-04-26T15:21:01.43Z</time></trkpt><trkpt lat="45.6473886" lon="11.4933478"><ele>69.0</ele><time>2026-04-26T15:21:02.43Z</time></trkpt><trkpt lat="45.6472556" lon="11.4933313"><ele>69.0</ele><time>2026-04-26T15:21:03.429Z</time></trkpt><trkpt lat="45.6471211" lon="11.4933214"><ele>69.0</ele><time>2026-04-26T15:21:04.436Z</time></trkpt><trkpt lat="45.6469666" lon="11.4933098"><ele>69.0</ele><time>2026-04-26T15:21:05.43Z</time></trkpt><trkpt lat="45.6467947" lon="11.4932936"><ele>69.33333333333333</ele><time>2026-04-26T15:21:06.43Z</time></trkpt><trkpt lat="45.6466134" lon="11.4932634"><ele>69.66666666666666</ele><time>2026-04-26T15:21:07.43Z</time></trkpt><trkpt lat="45.6464334" lon="11.4932286"><ele>70.0</ele><time>2026-04-26T15:21:08.43Z</time></trkpt><trkpt lat="45.6462529" lon="11.4932006"><ele>70.0</ele><time>2026-04-26T15:21:09.431Z</time></trkpt><trkpt lat="45.646073" lon="11.4931806"><ele>70.0</ele><time>2026-04-26T15:21:10.43Z</time></trkpt><trkpt lat="45.6458938" lon="11.493157"><ele>70.0</ele><time>2026-04-26T15:21:11.43Z</time></trkpt><trkpt lat="45.6457135" lon="11.4931338"><ele>70.0</ele><time>2026-04-26T15:21:12.434Z</time></trkpt><trkpt lat="45.6455421" lon="11.4931098"><ele>70.0</ele><time>2026-04-26T15:21:13.431Z</time></trkpt><trkpt lat="45.6453821" lon="11.4930871"><ele>70.0</ele><time>2026-04-26T15:21:14.429Z</time></trkpt><trkpt lat="45.6452282" lon="11.4930673"><ele>69.66666666666666</ele><time>2026-04-26T15:21:15.429Z</time></trkpt><trkpt lat="45.6450738" lon="11.4930465"><ele>69.33333333333333</ele><time>2026-04-26T15:21:16.429Z</time></trkpt><trkpt lat="45.6449162" lon="11.4930276"><ele>69.0</ele><time>2026-04-26T15:21:17.43Z</time></trkpt><trkpt lat="45.6447694" lon="11.4930083"><ele>69.0</ele><time>2026-04-26T15:21:18.429Z</time></trkpt><trkpt lat="45.6446337" lon="11.4929896"><ele>69.0</ele><time>2026-04-26T15:21:19.432Z</time></trkpt><trkpt lat="45.6445094" lon="11.4929743"><ele>69.0</ele><time>2026-04-26T15:21:20.429Z</time></trkpt><trkpt lat="45.6443956" lon="11.4929638"><ele>69.0</ele><time>2026-04-26T15:21:21.429Z</time></trkpt><trkpt lat="45.6442891" lon="11.4929539"><ele>68.83333333333333</ele><time>2026-04-26T15:21:22.429Z</time></trkpt><trkpt lat="45.6441864" lon="11.4929419"><ele>68.66666666666667</ele><time>2026-04-26T15:21:23.43Z</time></trkpt><trkpt lat="45.6440928" lon="11.4929299"><ele>68.5</ele><time>2026-04-26T15:21:24.433Z</time></trkpt><trkpt lat="45.6440106" lon="11.4929051"><ele>68.33333333333334</ele><time>2026-04-26T15:21:25.432Z</time></trkpt><trkpt lat="45.6439385" lon="11.492862"><ele>68.16666666666667</ele><time>2026-04-26T15:21:26.429Z</time></trkpt><trkpt lat="45.6438836" lon="11.4928065"><ele>68.0</ele><time>2026-04-26T15:21:27.429Z</time></trkpt><trkpt lat="45.6438087" lon="11.4926558"><ele>68.0</ele><time>2026-04-26T15:21:29.432Z</time></trkpt><trkpt lat="45.6437747" lon="11.4925468"><ele>68.0</ele><time>2026-04-26T15:21:30.432Z</time></trkpt><trkpt lat="45.6437327" lon="11.4924315"><ele>68.0</ele><time>2026-04-26T15:21:31.433Z</time></trkpt><trkpt lat="45.6436814" lon="11.4923213"><ele>68.0</ele><time>2026-04-26T15:21:32.43Z</time></trkpt><trkpt lat="45.6436066" lon="11.4922297"><ele>68.0</ele><time>2026-04-26T15:21:33.429Z</time></trkpt><trkpt lat="45.6435159" lon="11.4921768"><ele>68.2</ele><time>2026-04-26T15:21:34.429Z</time></trkpt><trkpt lat="45.6434193" lon="11.4921794"><ele>68.4</ele><time>2026-04-26T15:21:35.429Z</time></trkpt><trkpt lat="45.6433266" lon="11.4922208"><ele>68.60000000000001</ele><time>2026-04-26T15:21:36.435Z</time></trkpt><trkpt lat="45.6432555" lon="11.4922976"><ele>68.8</ele><time>2026-04-26T15:21:37.429Z</time></trkpt><trkpt lat="45.6431958" lon="11.4924054"><ele>69.0</ele><time>2026-04-26T15:21:38.429Z</time></trkpt><trkpt lat="45.6431268" lon="11.4925216"><ele>69.0</ele><time>2026-04-26T15:21:39.431Z</time></trkpt><trkpt lat="45.6430538" lon="11.4926302"><ele>69.0</ele><time>2026-04-26T15:21:40.43Z</time></trkpt><trkpt lat="45.6429589" lon="11.4927014"><ele>69.0</ele><time>2026-04-26T15:21:41.431Z</time></trkpt><trkpt lat="45.642843" lon="11.4927514"><ele>69.0</ele><time>2026-04-26T15:21:42.431Z</time></trkpt><trkpt lat="45.6426987" lon="11.4927631"><ele>68.0</ele><time>2026-04-26T15:21:43.43Z</time></trkpt><trkpt lat="45.6425423" lon="11.4927471"><ele>67.0</ele><time>2026-04-26T15:21:44.43Z</time></trkpt><trkpt lat="45.6423663" lon="11.4927094"><ele>66.0</ele><time>2026-04-26T15:21:45.431Z</time></trkpt><trkpt lat="45.6421846" lon="11.4926652"><ele>66.0</ele><time>2026-04-26T15:21:46.43Z</time></trkpt><trkpt lat="45.6419972" lon="11.4926204"><ele>66.0</ele><time>2026-04-26T15:21:47.429Z</time></trkpt><trkpt lat="45.641805" lon="11.4925702"><ele>66.0</ele><time>2026-04-26T15:21:48.428Z</time></trkpt><trkpt lat="45.6416058" lon="11.4925189"><ele>66.33333333333333</ele><time>2026-04-26T15:21:49.433Z</time></trkpt><trkpt lat="45.6414014" lon="11.4924678"><ele>66.66666666666666</ele><time>2026-04-26T15:21:50.434Z</time></trkpt><trkpt lat="45.6411942" lon="11.4924203"><ele>67.0</ele><time>2026-04-26T15:21:51.429Z</time></trkpt><trkpt lat="45.6409833" lon="11.4923696"><ele>67.0</ele><time>2026-04-26T15:21:52.428Z</time></trkpt><trkpt lat="45.6407715" lon="11.4923196"><ele>67.0</ele><time>2026-04-26T15:21:53.429Z</time></trkpt><trkpt lat="45.6405563" lon="11.4922688"><ele>67.0</ele><time>2026-04-26T15:21:54.43Z</time></trkpt><trkpt lat="45.6403401" lon="11.4922176"><ele>66.66666666666666</ele><time>2026-04-26T15:21:55.429Z</time></trkpt><trkpt lat="45.6401259" lon="11.4921642"><ele>66.33333333333333</ele><time>2026-04-26T15:21:56.431Z</time></trkpt><trkpt lat="45.6399067" lon="11.4921157"><ele>66.0</ele><time>2026-04-26T15:21:57.43Z</time></trkpt><trkpt lat="45.6396873" lon="11.492068"><ele>66.0</ele><time>2026-04-26T15:21:58.43Z</time></trkpt><trkpt lat="45.639467" lon="11.4920225"><ele>66.0</ele><time>2026-04-26T15:21:59.429Z</time></trkpt><trkpt lat="45.6392494" lon="11.4919799"><ele>66.0</ele><time>2026-04-26T15:22:00.43Z</time></trkpt><trkpt lat="45.6390274" lon="11.4919373"><ele>66.0</ele><time>2026-04-26T15:22:01.428Z</time></trkpt><trkpt lat="45.6388065" lon="11.4918923"><ele>66.0</ele><time>2026-04-26T15:22:02.431Z</time></trkpt><trkpt lat="45.6385851" lon="11.4918444"><ele>66.0</ele><time>2026-04-26T15:22:03.43Z</time></trkpt><trkpt lat="45.6383646" lon="11.4918023"><ele>65.33333333333333</ele><time>2026-04-26T15:22:04.43Z</time></trkpt><trkpt lat="45.638145" lon="11.4917558"><ele>64.66666666666666</ele><time>2026-04-26T15:22:05.428Z</time></trkpt><trkpt lat="45.6379256" lon="11.4917187"><ele>64.0</ele><time>2026-04-26T15:22:06.437Z</time></trkpt><trkpt lat="45.6377085" lon="11.4916775"><ele>64.0</ele><time>2026-04-26T15:22:07.43Z</time></trkpt><trkpt lat="45.63749" lon="11.4916376"><ele>64.0</ele><time>2026-04-26T15:22:08.429Z</time></trkpt><trkpt lat="45.6372723" lon="11.4915986"><ele>64.0</ele><time>2026-04-26T15:22:09.433Z</time></trkpt><trkpt lat="45.6370509" lon="11.491562"><ele>64.0</ele><time>2026-04-26T15:22:10.43Z</time></trkpt><trkpt lat="45.6368287" lon="11.4915245"><ele>64.0</ele><time>2026-04-26T15:22:11.429Z</time></trkpt><trkpt lat="45.6366104" lon="11.491486"><ele>64.0</ele><time>2026-04-26T15:22:12.43Z</time></trkpt><trkpt lat="45.6363959" lon="11.4914491"><ele>64.0</ele><time>2026-04-26T15:22:13.429Z</time></trkpt><trkpt lat="45.6361754" lon="11.4914162"><ele>64.0</ele><time>2026-04-26T15:22:14.428Z</time></trkpt><trkpt lat="45.6359567" lon="11.4913995"><ele>64.0</ele><time>2026-04-26T15:22:15.429Z</time></trkpt><trkpt lat="45.6357363" lon="11.4914004"><ele>64.0</ele><time>2026-04-26T15:22:16.43Z</time></trkpt><trkpt lat="45.6355208" lon="11.4914119"><ele>64.0</ele><time>2026-04-26T15:22:17.43Z</time></trkpt><trkpt lat="45.6353035" lon="11.4914328"><ele>64.0</ele><time>2026-04-26T15:22:18.43Z</time></trkpt><trkpt lat="45.6350849" lon="11.4914575"><ele>64.0</ele><time>2026-04-26T15:22:19.428Z</time></trkpt><trkpt lat="45.6348732" lon="11.491484"><ele>64.0</ele><time>2026-04-26T15:22:20.43Z</time></trkpt><trkpt lat="45.6346741" lon="11.4915053"><ele>64.0</ele><time>2026-04-26T15:22:21.431Z</time></trkpt><trkpt lat="45.6344856" lon="11.4915277"><ele>64.0</ele><time>2026-04-26T15:22:22.432Z</time></trkpt><trkpt lat="45.6342998" lon="11.4915499"><ele>64.0</ele><time>2026-04-26T15:22:23.432Z</time></trkpt><trkpt lat="45.634126" lon="11.4915738"><ele>64.0</ele><time>2026-04-26T15:22:24.429Z</time></trkpt><trkpt lat="45.6339606" lon="11.4915978"><ele>64.0</ele><time>2026-04-26T15:22:25.43Z</time></trkpt><trkpt lat="45.6338072" lon="11.4916144"><ele>64.0</ele><time>2026-04-26T15:22:26.43Z</time></trkpt><trkpt lat="45.6336603" lon="11.4916322"><ele>64.0</ele><time>2026-04-26T15:22:27.429Z</time></trkpt><trkpt lat="45.6335236" lon="11.4916515"><ele>64.0</ele><time>2026-04-26T15:22:28.429Z</time></trkpt><trkpt lat="45.6333979" lon="11.4916651"><ele>64.2</ele><time>2026-04-26T15:22:29.43Z</time></trkpt><trkpt lat="45.6332797" lon="11.4916753"><ele>64.4</ele><time>2026-04-26T15:22:30.43Z</time></trkpt><trkpt lat="45.6331672" lon="11.4916855"><ele>64.6</ele><time>2026-04-26T15:22:31.428Z</time></trkpt><trkpt lat="45.6330628" lon="11.4916897"><ele>64.8</ele><time>2026-04-26T15:22:32.429Z</time></trkpt><trkpt lat="45.6329607" lon="11.4916914"><ele>65.0</ele><time>2026-04-26T15:22:33.428Z</time></trkpt><trkpt lat="45.6328614" lon="11.4916813"><ele>64.8</ele><time>2026-04-26T15:22:34.429Z</time></trkpt><trkpt lat="45.63277" lon="11.4916472"><ele>64.6</ele><time>2026-04-26T15:22:35.43Z</time></trkpt><trkpt lat="45.6326813" lon="11.491587"><ele>64.4</ele><time>2026-04-26T15:22:36.432Z</time></trkpt><trkpt lat="45.6325952" lon="11.4915306"><ele>64.2</ele><time>2026-04-26T15:22:37.429Z</time></trkpt><trkpt lat="45.6325065" lon="11.4915131"><ele>64.0</ele><time>2026-04-26T15:22:38.427Z</time></trkpt><trkpt lat="45.6324111" lon="11.4915246"><ele>64.0</ele><time>2026-04-26T15:22:39.429Z</time></trkpt><trkpt lat="45.6323137" lon="11.491566"><ele>64.0</ele><time>2026-04-26T15:22:40.432Z</time></trkpt><trkpt lat="45.632213" lon="11.4916105"><ele>64.0</ele><time>2026-04-26T15:22:41.432Z</time></trkpt><trkpt lat="45.6321085" lon="11.4916416"><ele>64.0</ele><time>2026-04-26T15:22:42.43Z</time></trkpt><trkpt lat="45.6319973" lon="11.4916556"><ele>64.0</ele><time>2026-04-26T15:22:43.432Z</time></trkpt><trkpt lat="45.6318815" lon="11.4916522"><ele>64.0</ele><time>2026-04-26T15:22:44.432Z</time></trkpt><trkpt lat="45.6317573" lon="11.4916492"><ele>64.0</ele><time>2026-04-26T15:22:45.43Z</time></trkpt><trkpt lat="45.6316251" lon="11.4916434"><ele>64.0</ele><time>2026-04-26T15:22:46.429Z</time></trkpt><trkpt lat="45.6314822" lon="11.4916306"><ele>64.0</ele><time>2026-04-26T15:22:47.429Z</time></trkpt><trkpt lat="45.6313343" lon="11.491624"><ele>64.0</ele><time>2026-04-26T15:22:48.428Z</time></trkpt><trkpt lat="45.6311806" lon="11.4916155"><ele>64.0</ele><time>2026-04-26T15:22:49.428Z</time></trkpt><trkpt lat="45.6310113" lon="11.4916164"><ele>64.0</ele><time>2026-04-26T15:22:50.429Z</time></trkpt><trkpt lat="45.6308314" lon="11.4916207"><ele>63.666666666666664</ele><time>2026-04-26T15:22:51.429Z</time></trkpt><trkpt lat="45.6306218" lon="11.4916075"><ele>63.33333333333333</ele><time>2026-04-26T15:22:52.43Z</time></trkpt><trkpt lat="45.6304149" lon="11.4915905"><ele>63.0</ele><time>2026-04-26T15:22:53.429Z</time></trkpt><trkpt lat="45.6302073" lon="11.4915665"><ele>62.33333333333333</ele><time>2026-04-26T15:22:54.431Z</time></trkpt><trkpt lat="45.6299945" lon="11.4915481"><ele>61.666666666666664</ele><time>2026-04-26T15:22:55.431Z</time></trkpt><trkpt lat="45.6297869" lon="11.4915318"><ele>61.0</ele><time>2026-04-26T15:22:56.43Z</time></trkpt><trkpt lat="45.6295854" lon="11.4915202"><ele>60.666666666666664</ele><time>2026-04-26T15:22:57.428Z</time></trkpt><trkpt lat="45.6293874" lon="11.491508"><ele>60.33333333333333</ele><time>2026-04-26T15:22:58.428Z</time></trkpt><trkpt lat="45.62919" lon="11.4914956"><ele>60.0</ele><time>2026-04-26T15:22:59.431Z</time></trkpt><trkpt lat="45.6290042" lon="11.4914872"><ele>60.0</ele><time>2026-04-26T15:23:00.433Z</time></trkpt><trkpt lat="45.6288143" lon="11.4914744"><ele>60.0</ele><time>2026-04-26T15:23:01.436Z</time></trkpt><trkpt lat="45.6286258" lon="11.4914604"><ele>60.0</ele><time>2026-04-26T15:23:02.43Z</time></trkpt><trkpt lat="45.6284416" lon="11.4914457"><ele>60.0</ele><time>2026-04-26T15:23:03.429Z</time></trkpt><trkpt lat="45.6282695" lon="11.4914363"><ele>60.0</ele><time>2026-04-26T15:23:04.429Z</time></trkpt><trkpt lat="45.6281006" lon="11.491429"><ele>60.0</ele><time>2026-04-26T15:23:05.432Z</time></trkpt><trkpt lat="45.6279341" lon="11.4914225"><ele>59.66666666666667</ele><time>2026-04-26T15:23:06.428Z</time></trkpt><trkpt lat="45.6277722" lon="11.4914107"><ele>59.333333333333336</ele><time>2026-04-26T15:23:07.43Z</time></trkpt><trkpt lat="45.6276025" lon="11.4914017"><ele>59.0</ele><time>2026-04-26T15:23:08.43Z</time></trkpt><trkpt lat="45.6274344" lon="11.4913882"><ele>59.0</ele><time>2026-04-26T15:23:09.43Z</time></trkpt><trkpt lat="45.627265" lon="11.4913774"><ele>59.0</ele><time>2026-04-26T15:23:10.428Z</time></trkpt><trkpt lat="45.6270924" lon="11.4913659"><ele>59.0</ele><time>2026-04-26T15:23:11.431Z</time></trkpt><trkpt lat="45.6269131" lon="11.4913613"><ele>59.0</ele><time>2026-04-26T15:23:12.428Z</time></trkpt><trkpt lat="45.6267217" lon="11.4913624"><ele>59.0</ele><time>2026-04-26T15:23:13.428Z</time></trkpt><trkpt lat="45.626518" lon="11.4913609"><ele>59.0</ele><time>2026-04-26T15:23:14.429Z</time></trkpt><trkpt lat="45.6263025" lon="11.4913635"><ele>59.5</ele><time>2026-04-26T15:23:15.429Z</time></trkpt><trkpt lat="45.6260806" lon="11.491368"><ele>60.0</ele><time>2026-04-26T15:23:16.433Z</time></trkpt><trkpt lat="45.6258484" lon="11.4913763"><ele>60.0</ele><time>2026-04-26T15:23:17.431Z</time></trkpt><trkpt lat="45.6256118" lon="11.4913821"><ele>60.0</ele><time>2026-04-26T15:23:18.43Z</time></trkpt><trkpt lat="45.6253701" lon="11.4913794"><ele>60.5</ele><time>2026-04-26T15:23:19.43Z</time></trkpt><trkpt lat="45.625126" lon="11.491377"><ele>61.0</ele><time>2026-04-26T15:23:20.431Z</time></trkpt><trkpt lat="45.6248868" lon="11.4913799"><ele>61.0</ele><time>2026-04-26T15:23:21.429Z</time></trkpt><trkpt lat="45.6246476" lon="11.4913856"><ele>61.0</ele><time>2026-04-26T15:23:22.428Z</time></trkpt><trkpt lat="45.6244114" lon="11.4913931"><ele>60.5</ele><time>2026-04-26T15:23:23.429Z</time></trkpt><trkpt lat="45.6241767" lon="11.4914017"><ele>60.0</ele><time>2026-04-26T15:23:24.429Z</time></trkpt><trkpt lat="45.6239464" lon="11.4914074"><ele>60.0</ele><time>2026-04-26T15:23:25.434Z</time></trkpt><trkpt lat="45.6237159" lon="11.4914177"><ele>60.0</ele><time>2026-04-26T15:23:26.43Z</time></trkpt><trkpt lat="45.6234908" lon="11.4914248"><ele>59.66666666666667</ele><time>2026-04-26T15:23:27.43Z</time></trkpt><trkpt lat="45.6232682" lon="11.4914321"><ele>59.333333333333336</ele><time>2026-04-26T15:23:28.429Z</time></trkpt><trkpt lat="45.6230489" lon="11.4914379"><ele>59.0</ele><time>2026-04-26T15:23:29.434Z</time></trkpt><trkpt lat="45.6228299" lon="11.4914465"><ele>59.333333333333336</ele><time>2026-04-26T15:23:30.428Z</time></trkpt><trkpt lat="45.6226115" lon="11.4914518"><ele>59.66666666666667</ele><time>2026-04-26T15:23:31.43Z</time></trkpt><trkpt lat="45.62239" lon="11.4914565"><ele>60.0</ele><time>2026-04-26T15:23:32.43Z</time></trkpt><trkpt lat="45.6221729" lon="11.4914643"><ele>60.33333333333333</ele><time>2026-04-26T15:23:33.43Z</time></trkpt><trkpt lat="45.6219538" lon="11.4914733"><ele>60.666666666666664</ele><time>2026-04-26T15:23:34.429Z</time></trkpt><trkpt lat="45.6217394" lon="11.4914805"><ele>61.0</ele><time>2026-04-26T15:23:35.432Z</time></trkpt><trkpt lat="45.6215251" lon="11.4914851"><ele>61.0</ele><time>2026-04-26T15:23:36.431Z</time></trkpt><trkpt lat="45.6213107" lon="11.4914896"><ele>61.0</ele><time>2026-04-26T15:23:37.43Z</time></trkpt><trkpt lat="45.6210959" lon="11.4914939"><ele>61.0</ele><time>2026-04-26T15:23:38.43Z</time></trkpt><trkpt lat="45.6208862" lon="11.4914948"><ele>60.33333333333333</ele><time>2026-04-26T15:23:39.432Z</time></trkpt><trkpt lat="45.6206737" lon="11.4914967"><ele>59.66666666666667</ele><time>2026-04-26T15:23:40.434Z</time></trkpt><trkpt lat="45.6204729" lon="11.4914994"><ele>59.0</ele><time>2026-04-26T15:23:41.43Z</time></trkpt><trkpt lat="45.6202867" lon="11.491496"><ele>58.66666666666667</ele><time>2026-04-26T15:23:42.433Z</time></trkpt><trkpt lat="45.6201087" lon="11.4914852"><ele>58.33333333333333</ele><time>2026-04-26T15:23:43.429Z</time></trkpt><trkpt lat="45.619935" lon="11.4914605"><ele>58.0</ele><time>2026-04-26T15:23:44.43Z</time></trkpt><trkpt lat="45.6197661" lon="11.4914149"><ele>58.0</ele><time>2026-04-26T15:23:45.43Z</time></trkpt><trkpt lat="45.6195998" lon="11.4913437"><ele>58.0</ele><time>2026-04-26T15:23:46.428Z</time></trkpt><trkpt lat="45.6194365" lon="11.4912313"><ele>58.0</ele><time>2026-04-26T15:23:47.431Z</time></trkpt><trkpt lat="45.619281" lon="11.4911004"><ele>57.666666666666664</ele><time>2026-04-26T15:23:48.428Z</time></trkpt><trkpt lat="45.6191236" lon="11.4909585"><ele>57.33333333333333</ele><time>2026-04-26T15:23:49.43Z</time></trkpt><trkpt lat="45.618959" lon="11.4908182"><ele>57.0</ele><time>2026-04-26T15:23:50.429Z</time></trkpt><trkpt lat="45.6187859" lon="11.4906851"><ele>57.33333333333333</ele><time>2026-04-26T15:23:51.429Z</time></trkpt><trkpt lat="45.6185983" lon="11.4905774"><ele>57.666666666666664</ele><time>2026-04-26T15:23:52.43Z</time></trkpt><trkpt lat="45.6184012" lon="11.4905227"><ele>58.0</ele><time>2026-04-26T15:23:53.43Z</time></trkpt><trkpt lat="45.6182003" lon="11.490504"><ele>58.0</ele><time>2026-04-26T15:23:54.43Z</time></trkpt><trkpt lat="45.6179927" lon="11.4905017"><ele>58.0</ele><time>2026-04-26T15:23:55.432Z</time></trkpt><trkpt lat="45.6177841" lon="11.4905009"><ele>58.0</ele><time>2026-04-26T15:23:56.428Z</time></trkpt><trkpt lat="45.6175823" lon="11.4904926"><ele>57.666666666666664</ele><time>2026-04-26T15:23:57.429Z</time></trkpt><trkpt lat="45.6173763" lon="11.4904843"><ele>57.33333333333333</ele><time>2026-04-26T15:23:58.429Z</time></trkpt><trkpt lat="45.6171669" lon="11.4904829"><ele>57.0</ele><time>2026-04-26T15:23:59.429Z</time></trkpt><trkpt lat="45.6169574" lon="11.4904803"><ele>57.0</ele><time>2026-04-26T15:24:00.428Z</time></trkpt><trkpt lat="45.616749" lon="11.4904737"><ele>57.0</ele><time>2026-04-26T15:24:01.43Z</time></trkpt><trkpt lat="45.6165397" lon="11.4904712"><ele>57.0</ele><time>2026-04-26T15:24:02.43Z</time></trkpt><trkpt lat="45.6163286" lon="11.4904691"><ele>57.0</ele><time>2026-04-26T15:24:03.431Z</time></trkpt><trkpt lat="45.6161155" lon="11.4904624"><ele>57.0</ele><time>2026-04-26T15:24:04.429Z</time></trkpt><trkpt lat="45.6159027" lon="11.4904567"><ele>57.0</ele><time>2026-04-26T15:24:05.428Z</time></trkpt><trkpt lat="45.6156864" lon="11.4904529"><ele>57.0</ele><time>2026-04-26T15:24:06.429Z</time></trkpt><trkpt lat="45.6154648" lon="11.4904487"><ele>57.0</ele><time>2026-04-26T15:24:07.43Z</time></trkpt><trkpt lat="45.6152421" lon="11.4904464"><ele>57.0</ele><time>2026-04-26T15:24:08.428Z</time></trkpt><trkpt lat="45.6150189" lon="11.4904383"><ele>56.33333333333333</ele><time>2026-04-26T15:24:09.429Z</time></trkpt><trkpt lat="45.6147964" lon="11.4904343"><ele>55.666666666666664</ele><time>2026-04-26T15:24:10.43Z</time></trkpt><trkpt lat="45.6145769" lon="11.4904274"><ele>55.0</ele><time>2026-04-26T15:24:11.429Z</time></trkpt><trkpt lat="45.6143602" lon="11.4904287"><ele>54.666666666666664</ele><time>2026-04-26T15:24:12.43Z</time></trkpt><trkpt lat="45.6141474" lon="11.4904235"><ele>54.33333333333333</ele><time>2026-04-26T15:24:13.434Z</time></trkpt><trkpt lat="45.6139342" lon="11.4904208"><ele>54.0</ele><time>2026-04-26T15:24:14.432Z</time></trkpt><trkpt lat="45.6137233" lon="11.4904177"><ele>53.33333333333333</ele><time>2026-04-26T15:24:15.43Z</time></trkpt><trkpt lat="45.6135133" lon="11.4904134"><ele>52.666666666666664</ele><time>2026-04-26T15:24:16.432Z</time></trkpt><trkpt lat="45.6133053" lon="11.4904081"><ele>52.0</ele><time>2026-04-26T15:24:17.428Z</time></trkpt><trkpt lat="45.6130983" lon="11.4904046"><ele>52.0</ele><time>2026-04-26T15:24:18.444Z</time></trkpt><trkpt lat="45.6128936" lon="11.4904007"><ele>52.0</ele><time>2026-04-26T15:24:19.429Z</time></trkpt><trkpt lat="45.6126926" lon="11.490401"><ele>52.0</ele><time>2026-04-26T15:24:20.428Z</time></trkpt><trkpt lat="45.6124919" lon="11.4903966"><ele>52.0</ele><time>2026-04-26T15:24:21.428Z</time></trkpt><trkpt lat="45.6122917" lon="11.4903916"><ele>52.0</ele><time>2026-04-26T15:24:22.429Z</time></trkpt><trkpt lat="45.6121012" lon="11.490385"><ele>52.0</ele><time>2026-04-26T15:24:23.43Z</time></trkpt><trkpt lat="45.6119188" lon="11.4903851"><ele>52.0</ele><time>2026-04-26T15:24:24.429Z</time></trkpt><trkpt lat="45.6117478" lon="11.4903811"><ele>52.0</ele><time>2026-04-26T15:24:25.431Z</time></trkpt><trkpt lat="45.6115865" lon="11.4903765"><ele>52.0</ele><time>2026-04-26T15:24:26.431Z</time></trkpt><trkpt lat="45.6114249" lon="11.4903748"><ele>52.0</ele><time>2026-04-26T15:24:27.43Z</time></trkpt><trkpt lat="45.6112646" lon="11.4903718"><ele>52.0</ele><time>2026-04-26T15:24:28.429Z</time></trkpt><trkpt lat="45.6111068" lon="11.4903773"><ele>52.0</ele><time>2026-04-26T15:24:29.432Z</time></trkpt><trkpt lat="45.6109514" lon="11.49039"><ele>52.33333333333333</ele><time>2026-04-26T15:24:30.434Z</time></trkpt><trkpt lat="45.6107919" lon="11.4904199"><ele>52.66666666666667</ele><time>2026-04-26T15:24:31.429Z</time></trkpt><trkpt lat="45.6106254" lon="11.4904824"><ele>53.0</ele><time>2026-04-26T15:24:32.429Z</time></trkpt><trkpt lat="45.6104483" lon="11.4905653"><ele>53.0</ele><time>2026-04-26T15:24:33.429Z</time></trkpt><trkpt lat="45.610261" lon="11.490651"><ele>53.0</ele><time>2026-04-26T15:24:34.432Z</time></trkpt><trkpt lat="45.6100625" lon="11.4907309"><ele>53.0</ele><time>2026-04-26T15:24:35.429Z</time></trkpt><trkpt lat="45.6098571" lon="11.4908161"><ele>53.0</ele><time>2026-04-26T15:24:36.429Z</time></trkpt><trkpt lat="45.6096584" lon="11.4908995"><ele>53.0</ele><time>2026-04-26T15:24:37.429Z</time></trkpt><trkpt lat="45.6094559" lon="11.4909836"><ele>53.0</ele><time>2026-04-26T15:24:38.435Z</time></trkpt><trkpt lat="45.6092586" lon="11.4910666"><ele>53.0</ele><time>2026-04-26T15:24:39.431Z</time></trkpt><trkpt lat="45.6090607" lon="11.4911515"><ele>53.0</ele><time>2026-04-26T15:24:40.429Z</time></trkpt><trkpt lat="45.6088652" lon="11.4912381"><ele>53.0</ele><time>2026-04-26T15:24:41.429Z</time></trkpt><trkpt lat="45.6086725" lon="11.4913231"><ele>52.333333333333336</ele><time>2026-04-26T15:24:42.429Z</time></trkpt><trkpt lat="45.6084796" lon="11.4914102"><ele>51.66666666666667</ele><time>2026-04-26T15:24:43.425Z</time></trkpt><trkpt lat="45.6082905" lon="11.4914962"><ele>51.0</ele><time>2026-04-26T15:24:44.43Z</time></trkpt><trkpt lat="45.6080999" lon="11.4915785"><ele>51.0</ele><time>2026-04-26T15:24:45.429Z</time></trkpt><trkpt lat="45.6079089" lon="11.4916572"><ele>51.0</ele><time>2026-04-26T15:24:46.428Z</time></trkpt><trkpt lat="45.6077192" lon="11.4917434"><ele>51.0</ele><time>2026-04-26T15:24:47.429Z</time></trkpt><trkpt lat="45.6075324" lon="11.4918258"><ele>51.33333333333333</ele><time>2026-04-26T15:24:48.428Z</time></trkpt><trkpt lat="45.6073436" lon="11.491911"><ele>51.666666666666664</ele><time>2026-04-26T15:24:49.428Z</time></trkpt><trkpt lat="45.6071589" lon="11.4919911"><ele>52.0</ele><time>2026-04-26T15:24:50.428Z</time></trkpt><trkpt lat="45.6069715" lon="11.4920717"><ele>51.666666666666664</ele><time>2026-04-26T15:24:51.428Z</time></trkpt><trkpt lat="45.6067924" lon="11.4921454"><ele>51.33333333333333</ele><time>2026-04-26T15:24:52.431Z</time></trkpt><trkpt lat="45.6066269" lon="11.4922269"><ele>51.0</ele><time>2026-04-26T15:24:53.428Z</time></trkpt><trkpt lat="45.606475" lon="11.4922934"><ele>51.0</ele><time>2026-04-26T15:24:54.43Z</time></trkpt><trkpt lat="45.6063359" lon="11.4923522"><ele>51.0</ele><time>2026-04-26T15:24:55.432Z</time></trkpt><trkpt lat="45.6062055" lon="11.4924162"><ele>51.0</ele><time>2026-04-26T15:24:56.428Z</time></trkpt><trkpt lat="45.6060818" lon="11.4924783"><ele>51.0</ele><time>2026-04-26T15:24:57.43Z</time></trkpt><trkpt lat="45.6059594" lon="11.4925305"><ele>51.25</ele><time>2026-04-26T15:24:58.429Z</time></trkpt><trkpt lat="45.6058343" lon="11.4925855"><ele>51.5</ele><time>2026-04-26T15:24:59.43Z</time></trkpt><trkpt lat="45.6057114" lon="11.4926384"><ele>51.75</ele><time>2026-04-26T15:25:00.429Z</time></trkpt><trkpt lat="45.6055867" lon="11.4926927"><ele>52.0</ele><time>2026-04-26T15:25:01.439Z</time></trkpt><trkpt lat="45.605469" lon="11.4927458"><ele>52.0</ele><time>2026-04-26T15:25:02.428Z</time></trkpt><trkpt lat="45.6053522" lon="11.4927945"><ele>52.0</ele><time>2026-04-26T15:25:03.434Z</time></trkpt><trkpt lat="45.6052368" lon="11.4928372"><ele>52.0</ele><time>2026-04-26T15:25:04.428Z</time></trkpt><trkpt lat="45.6051309" lon="11.4928918"><ele>52.0</ele><time>2026-04-26T15:25:05.43Z</time></trkpt><trkpt lat="45.6050277" lon="11.4929364"><ele>52.2</ele><time>2026-04-26T15:25:06.428Z</time></trkpt><trkpt lat="45.6049323" lon="11.492976"><ele>52.400000000000006</ele><time>2026-04-26T15:25:07.431Z</time></trkpt><trkpt lat="45.6048348" lon="11.4930149"><ele>52.599999999999994</ele><time>2026-04-26T15:25:08.43Z</time></trkpt><trkpt lat="45.6047469" lon="11.4930483"><ele>52.8</ele><time>2026-04-26T15:25:09.428Z</time></trkpt><trkpt lat="45.6046668" lon="11.4930676"><ele>53.0</ele><time>2026-04-26T15:25:10.434Z</time></trkpt><trkpt lat="45.6045586" lon="11.4930117"><ele>53.0</ele><time>2026-04-26T15:25:12.428Z</time></trkpt><trkpt lat="45.6045192" lon="11.4929387"><ele>53.0</ele><time>2026-04-26T15:25:13.43Z</time></trkpt><trkpt lat="45.6044859" lon="11.4928454"><ele>53.0</ele><time>2026-04-26T15:25:14.429Z</time></trkpt><trkpt lat="45.6044498" lon="11.4927597"><ele>53.0</ele><time>2026-04-26T15:25:15.429Z</time></trkpt><trkpt lat="45.6044019" lon="11.492674"><ele>53.0</ele><time>2026-04-26T15:25:16.434Z</time></trkpt><trkpt lat="45.6043404" lon="11.4926092"><ele>53.0</ele><time>2026-04-26T15:25:17.428Z</time></trkpt><trkpt lat="45.6042672" lon="11.4925676"><ele>53.0</ele><time>2026-04-26T15:25:18.429Z</time></trkpt><trkpt lat="45.6041785" lon="11.4925845"><ele>52.8</ele><time>2026-04-26T15:25:19.437Z</time></trkpt><trkpt lat="45.6040894" lon="11.4926135"><ele>52.599999999999994</ele><time>2026-04-26T15:25:20.437Z</time></trkpt><trkpt lat="45.6040001" lon="11.4926576"><ele>52.400000000000006</ele><time>2026-04-26T15:25:21.435Z</time></trkpt><trkpt lat="45.6039033" lon="11.4927026"><ele>52.2</ele><time>2026-04-26T15:25:22.434Z</time></trkpt><trkpt lat="45.6038065" lon="11.4927445"><ele>52.0</ele><time>2026-04-26T15:25:23.427Z</time></trkpt><trkpt lat="45.6037115" lon="11.4927964"><ele>52.0</ele><time>2026-04-26T15:25:24.429Z</time></trkpt><trkpt lat="45.6036173" lon="11.4928516"><ele>52.0</ele><time>2026-04-26T15:25:25.428Z</time></trkpt><trkpt lat="45.6035335" lon="11.4929163"><ele>52.0</ele><time>2026-04-26T15:25:26.428Z</time></trkpt><trkpt lat="45.6034698" lon="11.4930106"><ele>52.0</ele><time>2026-04-26T15:25:27.429Z</time></trkpt><trkpt lat="45.6034293" lon="11.4931335"><ele>52.0</ele><time>2026-04-26T15:25:28.428Z</time></trkpt><trkpt lat="45.603385" lon="11.4932674"><ele>52.0</ele><time>2026-04-26T15:25:29.432Z</time></trkpt><trkpt lat="45.6033267" lon="11.4933971"><ele>52.0</ele><time>2026-04-26T15:25:30.428Z</time></trkpt><trkpt lat="45.6032485" lon="11.4935093"><ele>52.0</ele><time>2026-04-26T15:25:31.432Z</time></trkpt><trkpt lat="45.6031503" lon="11.493605"><ele>52.0</ele><time>2026-04-26T15:25:32.429Z</time></trkpt><trkpt lat="45.6029217" lon="11.4937625"><ele>51.5</ele><time>2026-04-26T15:25:34.428Z</time></trkpt><trkpt lat="45.6027954" lon="11.4938199"><ele>51.0</ele><time>2026-04-26T15:25:35.428Z</time></trkpt><trkpt lat="45.6026742" lon="11.4938711"><ele>50.5</ele><time>2026-04-26T15:25:36.428Z</time></trkpt><trkpt lat="45.6025588" lon="11.4939206"><ele>50.0</ele><time>2026-04-26T15:25:37.427Z</time></trkpt><trkpt lat="45.602438" lon="11.4939725"><ele>50.0</ele><time>2026-04-26T15:25:38.43Z</time></trkpt><trkpt lat="45.6023212" lon="11.4940175"><ele>50.0</ele><time>2026-04-26T15:25:39.428Z</time></trkpt><trkpt lat="45.6022079" lon="11.494065"><ele>50.0</ele><time>2026-04-26T15:25:40.429Z</time></trkpt><trkpt lat="45.6020945" lon="11.4941135"><ele>50.0</ele><time>2026-04-26T15:25:41.431Z</time></trkpt><trkpt lat="45.6019871" lon="11.4941596"><ele>49.8</ele><time>2026-04-26T15:25:42.429Z</time></trkpt><trkpt lat="45.6018794" lon="11.4942047"><ele>49.6</ele><time>2026-04-26T15:25:43.43Z</time></trkpt><trkpt lat="45.6017758" lon="11.4942492"><ele>49.400000000000006</ele><time>2026-04-26T15:25:44.429Z</time></trkpt><trkpt lat="45.6016668" lon="11.4942953"><ele>49.2</ele><time>2026-04-26T15:25:45.429Z</time></trkpt><trkpt lat="45.6015675" lon="11.4943319"><ele>49.0</ele><time>2026-04-26T15:25:46.428Z</time></trkpt><trkpt lat="45.6014771" lon="11.4943644"><ele>49.0</ele><time>2026-04-26T15:25:47.428Z</time></trkpt><trkpt lat="45.6013901" lon="11.4943951"><ele>49.0</ele><time>2026-04-26T15:25:48.429Z</time></trkpt><trkpt lat="45.6013038" lon="11.4944312"><ele>49.0</ele><time>2026-04-26T15:25:49.428Z</time></trkpt><trkpt lat="45.6012123" lon="11.4944632"><ele>49.0</ele><time>2026-04-26T15:25:50.432Z</time></trkpt><trkpt lat="45.6011174" lon="11.4944996"><ele>49.0</ele><time>2026-04-26T15:25:51.43Z</time></trkpt><trkpt lat="45.6010166" lon="11.4945463"><ele>49.0</ele><time>2026-04-26T15:25:52.434Z</time></trkpt><trkpt lat="45.6008987" lon="11.4946006"><ele>49.0</ele><time>2026-04-26T15:25:53.43Z</time></trkpt><trkpt lat="45.6007807" lon="11.4946493"><ele>49.0</ele><time>2026-04-26T15:25:54.427Z</time></trkpt><trkpt lat="45.6006716" lon="11.4946897"><ele>49.0</ele><time>2026-04-26T15:25:55.431Z</time></trkpt><trkpt lat="45.6005733" lon="11.4947158"><ele>49.0</ele><time>2026-04-26T15:25:56.432Z</time></trkpt><trkpt lat="45.6004926" lon="11.4947503"><ele>49.0</ele><time>2026-04-26T15:25:57.428Z</time></trkpt><trkpt lat="45.6004224" lon="11.4947771"><ele>49.0</ele><time>2026-04-26T15:25:58.428Z</time></trkpt><trkpt lat="45.6003605" lon="11.4947975"><ele>49.0</ele><time>2026-04-26T15:25:59.434Z</time></trkpt><trkpt lat="45.6002834" lon="11.4948221"><ele>49.0</ele><time>2026-04-26T15:26:01.43Z</time></trkpt><trkpt lat="45.6002174" lon="11.4948382"><ele>49.0</ele><time>2026-04-26T15:26:03.432Z</time></trkpt><trkpt lat="45.6001468" lon="11.4948378"><ele>49.0</ele><time>2026-04-26T15:26:07.43Z</time></trkpt><trkpt lat="45.6000495" lon="11.4948268"><ele>48.83333333333333</ele><time>2026-04-26T15:26:09.427Z</time></trkpt><trkpt lat="45.599932" lon="11.4948894"><ele>48.666666666666664</ele><time>2026-04-26T15:26:11.428Z</time></trkpt><trkpt lat="45.5998768" lon="11.4949566"><ele>48.5</ele><time>2026-04-26T15:26:12.428Z</time></trkpt><trkpt lat="45.5998178" lon="11.4950066"><ele>48.33333333333333</ele><time>2026-04-26T15:26:13.428Z</time></trkpt><trkpt lat="45.5997553" lon="11.49504"><ele>48.166666666666664</ele><time>2026-04-26T15:26:14.433Z</time></trkpt><trkpt lat="45.5996936" lon="11.4950669"><ele>48.0</ele><time>2026-04-26T15:26:15.428Z</time></trkpt><trkpt lat="45.5996285" lon="11.4950928"><ele>48.0</ele><time>2026-04-26T15:26:16.428Z</time></trkpt><trkpt lat="45.5995188" lon="11.4951286"><ele>48.0</ele><time>2026-04-26T15:26:18.429Z</time></trkpt><trkpt lat="45.5994069" lon="11.4951637"><ele>48.0</ele><time>2026-04-26T15:26:20.428Z</time></trkpt><trkpt lat="45.5993454" lon="11.4951872"><ele>48.0</ele><time>2026-04-26T15:26:21.429Z</time></trkpt><trkpt lat="45.5992263" lon="11.4952258"><ele>48.0</ele><time>2026-04-26T15:26:23.429Z</time></trkpt><trkpt lat="45.5991589" lon="11.4952472"><ele>48.333333333333336</ele><time>2026-04-26T15:26:24.431Z</time></trkpt><trkpt lat="45.5990898" lon="11.4952697"><ele>48.66666666666667</ele><time>2026-04-26T15:26:25.429Z</time></trkpt><trkpt lat="45.5990167" lon="11.495297"><ele>49.0</ele><time>2026-04-26T15:26:26.432Z</time></trkpt><trkpt lat="45.5989447" lon="11.495323"><ele>49.333333333333336</ele><time>2026-04-26T15:26:27.429Z</time></trkpt><trkpt lat="45.598867" lon="11.4953514"><ele>49.66666666666667</ele><time>2026-04-26T15:26:28.427Z</time></trkpt><trkpt lat="45.5987884" lon="11.4953811"><ele>50.0</ele><time>2026-04-26T15:26:29.429Z</time></trkpt><trkpt lat="45.5987144" lon="11.4954119"><ele>50.28571428571429</ele><time>2026-04-26T15:26:30.428Z</time></trkpt><trkpt lat="45.5986432" lon="11.4954407"><ele>50.57142857142857</ele><time>2026-04-26T15:26:31.428Z</time></trkpt><trkpt lat="45.5985748" lon="11.4954766"><ele>50.85714285714286</ele><time>2026-04-26T15:26:32.428Z</time></trkpt><trkpt lat="45.5985014" lon="11.4955033"><ele>51.142857142857146</ele><time>2026-04-26T15:26:33.432Z</time></trkpt><trkpt lat="45.5984305" lon="11.4955308"><ele>51.42857142857143</ele><time>2026-04-26T15:26:34.428Z</time></trkpt><trkpt lat="45.5983631" lon="11.4955547"><ele>51.714285714285715</ele><time>2026-04-26T15:26:35.432Z</time></trkpt><trkpt lat="45.5982884" lon="11.4955873"><ele>52.0</ele><time>2026-04-26T15:26:36.435Z</time></trkpt><trkpt lat="45.598213" lon="11.4956122"><ele>52.0</ele><time>2026-04-26T15:26:37.428Z</time></trkpt><trkpt lat="45.5981356" lon="11.4956396"><ele>52.0</ele><time>2026-04-26T15:26:38.431Z</time></trkpt><trkpt lat="45.5980517" lon="11.4956653"><ele>52.0</ele><time>2026-04-26T15:26:39.428Z</time></trkpt><trkpt lat="45.5979576" lon="11.4956974"><ele>52.0</ele><time>2026-04-26T15:26:40.431Z</time></trkpt><trkpt lat="45.5978566" lon="11.4957289"><ele>52.0</ele><time>2026-04-26T15:26:41.427Z</time></trkpt><trkpt lat="45.5977505" lon="11.4957703"><ele>51.6</ele><time>2026-04-26T15:26:42.43Z</time></trkpt><trkpt lat="45.5976404" lon="11.495813"><ele>51.2</ele><time>2026-04-26T15:26:43.43Z</time></trkpt><trkpt lat="45.5975321" lon="11.4958502"><ele>50.8</ele><time>2026-04-26T15:26:44.431Z</time></trkpt><trkpt lat="45.597427" lon="11.4958826"><ele>50.4</ele><time>2026-04-26T15:26:45.428Z</time></trkpt><trkpt lat="45.5973215" lon="11.4959171"><ele>50.0</ele><time>2026-04-26T15:26:46.429Z</time></trkpt><trkpt lat="45.5972122" lon="11.4959553"><ele>50.0</ele><time>2026-04-26T15:26:47.428Z</time></trkpt><trkpt lat="45.5971002" lon="11.4959954"><ele>50.0</ele><time>2026-04-26T15:26:48.429Z</time></trkpt><trkpt lat="45.5969893" lon="11.4960371"><ele>50.0</ele><time>2026-04-26T15:26:49.431Z</time></trkpt><trkpt lat="45.596881" lon="11.4960738"><ele>50.0</ele><time>2026-04-26T15:26:50.429Z</time></trkpt><trkpt lat="45.5967751" lon="11.4961137"><ele>49.8</ele><time>2026-04-26T15:26:51.431Z</time></trkpt><trkpt lat="45.5966673" lon="11.4961457"><ele>49.6</ele><time>2026-04-26T15:26:52.432Z</time></trkpt><trkpt lat="45.5965658" lon="11.4961906"><ele>49.400000000000006</ele><time>2026-04-26T15:26:53.428Z</time></trkpt><trkpt lat="45.5964681" lon="11.4962294"><ele>49.2</ele><time>2026-04-26T15:26:54.427Z</time></trkpt><trkpt lat="45.5963698" lon="11.4962686"><ele>49.0</ele><time>2026-04-26T15:26:55.428Z</time></trkpt><trkpt lat="45.5962725" lon="11.4963059"><ele>48.99999999999999</ele><time>2026-04-26T15:26:56.43Z</time></trkpt><trkpt lat="45.5961774" lon="11.4963401"><ele>49.0</ele><time>2026-04-26T15:26:57.429Z</time></trkpt><trkpt lat="45.5960855" lon="11.496373"><ele>49.0</ele><time>2026-04-26T15:26:58.429Z</time></trkpt><trkpt lat="45.5959991" lon="11.4964067"><ele>49.0</ele><time>2026-04-26T15:26:59.429Z</time></trkpt><trkpt lat="45.595922" lon="11.4964319"><ele>48.99999999999999</ele><time>2026-04-26T15:27:00.427Z</time></trkpt><trkpt lat="45.5958487" lon="11.4964636"><ele>49.0</ele><time>2026-04-26T15:27:01.43Z</time></trkpt><trkpt lat="45.5957786" lon="11.4964923"><ele>49.0</ele><time>2026-04-26T15:27:02.43Z</time></trkpt><trkpt lat="45.5957151" lon="11.4965118"><ele>49.0</ele><time>2026-04-26T15:27:03.43Z</time></trkpt><trkpt lat="45.5956184" lon="11.4965444"><ele>49.0</ele><time>2026-04-26T15:27:05.434Z</time></trkpt><trkpt lat="45.5955014" lon="11.4966017"><ele>49.0</ele><time>2026-04-26T15:27:07.43Z</time></trkpt><trkpt lat="45.5954244" lon="11.4966357"><ele>49.0</ele><time>2026-04-26T15:27:08.43Z</time></trkpt><trkpt lat="45.595345" lon="11.496665"><ele>48.666666666666664</ele><time>2026-04-26T15:27:09.428Z</time></trkpt><trkpt lat="45.5952597" lon="11.4966999"><ele>48.33333333333333</ele><time>2026-04-26T15:27:10.435Z</time></trkpt><trkpt lat="45.5951726" lon="11.4967367"><ele>48.0</ele><time>2026-04-26T15:27:11.431Z</time></trkpt><trkpt lat="45.5950956" lon="11.496767"><ele>47.666666666666664</ele><time>2026-04-26T15:27:12.429Z</time></trkpt><trkpt lat="45.5950066" lon="11.4968019"><ele>47.33333333333333</ele><time>2026-04-26T15:27:13.428Z</time></trkpt><trkpt lat="45.5949156" lon="11.4968169"><ele>47.0</ele><time>2026-04-26T15:27:14.432Z</time></trkpt><trkpt lat="45.594816" lon="11.4968307"><ele>47.0</ele><time>2026-04-26T15:27:15.432Z</time></trkpt><trkpt lat="45.5947053" lon="11.4968456"><ele>47.0</ele><time>2026-04-26T15:27:16.428Z</time></trkpt><trkpt lat="45.5945853" lon="11.4968566"><ele>47.0</ele><time>2026-04-26T15:27:17.43Z</time></trkpt><trkpt lat="45.594457" lon="11.4968755"><ele>47.0</ele><time>2026-04-26T15:27:18.428Z</time></trkpt><trkpt lat="45.5943243" lon="11.4969056"><ele>46.75</ele><time>2026-04-26T15:27:19.43Z</time></trkpt><trkpt lat="45.5941911" lon="11.4969259"><ele>46.5</ele><time>2026-04-26T15:27:20.43Z</time></trkpt><trkpt lat="45.5940526" lon="11.4969483"><ele>46.25</ele><time>2026-04-26T15:27:21.428Z</time></trkpt><trkpt lat="45.5939137" lon="11.4969732"><ele>46.0</ele><time>2026-04-26T15:27:22.428Z</time></trkpt><trkpt lat="45.593769" lon="11.4969955"><ele>45.75</ele><time>2026-04-26T15:27:23.429Z</time></trkpt><trkpt lat="45.5936217" lon="11.4970203"><ele>45.5</ele><time>2026-04-26T15:27:24.428Z</time></trkpt><trkpt lat="45.5934741" lon="11.4970485"><ele>45.25</ele><time>2026-04-26T15:27:25.429Z</time></trkpt><trkpt lat="45.593327" lon="11.4970765"><ele>45.0</ele><time>2026-04-26T15:27:26.428Z</time></trkpt><trkpt lat="45.5931855" lon="11.4971019"><ele>45.75</ele><time>2026-04-26T15:27:27.428Z</time></trkpt><trkpt lat="45.5930512" lon="11.4971272"><ele>46.5</ele><time>2026-04-26T15:27:28.428Z</time></trkpt><trkpt lat="45.5929334" lon="11.4971547"><ele>47.25</ele><time>2026-04-26T15:27:29.429Z</time></trkpt><trkpt lat="45.592817" lon="11.4971926"><ele>48.0</ele><time>2026-04-26T15:27:30.431Z</time></trkpt><trkpt lat="45.5927152" lon="11.4972378"><ele>48.2</ele><time>2026-04-26T15:27:31.43Z</time></trkpt><trkpt lat="45.5926167" lon="11.4972824"><ele>48.4</ele><time>2026-04-26T15:27:32.43Z</time></trkpt><trkpt lat="45.5925217" lon="11.4973287"><ele>48.6</ele><time>2026-04-26T15:27:33.427Z</time></trkpt><trkpt lat="45.5924384" lon="11.4973682"><ele>48.800000000000004</ele><time>2026-04-26T15:27:34.429Z</time></trkpt><trkpt lat="45.5923622" lon="11.4974066"><ele>49.0</ele><time>2026-04-26T15:27:35.434Z</time></trkpt><trkpt lat="45.5922871" lon="11.4974449"><ele>49.0</ele><time>2026-04-26T15:27:36.427Z</time></trkpt><trkpt lat="45.5922039" lon="11.4974678"><ele>49.0</ele><time>2026-04-26T15:27:37.428Z</time></trkpt><trkpt lat="45.592102" lon="11.4974857"><ele>49.0</ele><time>2026-04-26T15:27:38.43Z</time></trkpt><trkpt lat="45.5919961" lon="11.4975426"><ele>49.0</ele><time>2026-04-26T15:27:39.43Z</time></trkpt><trkpt lat="45.591902" lon="11.4976665"><ele>49.0</ele><time>2026-04-26T15:27:40.428Z</time></trkpt><trkpt lat="45.5918212" lon="11.4978002"><ele>48.0</ele><time>2026-04-26T15:27:41.428Z</time></trkpt><trkpt lat="45.5917174" lon="11.4979266"><ele>47.0</ele><time>2026-04-26T15:27:42.427Z</time></trkpt><trkpt lat="45.5916068" lon="11.4980421"><ele>46.0</ele><time>2026-04-26T15:27:43.43Z</time></trkpt><trkpt lat="45.5914895" lon="11.4981484"><ele>45.0</ele><time>2026-04-26T15:27:44.428Z</time></trkpt><trkpt lat="45.5913775" lon="11.498249"><ele>45.0</ele><time>2026-04-26T15:27:45.429Z</time></trkpt><trkpt lat="45.5912624" lon="11.498353"><ele>45.0</ele><time>2026-04-26T15:27:46.429Z</time></trkpt><trkpt lat="45.5911448" lon="11.4984592"><ele>45.0</ele><time>2026-04-26T15:27:47.428Z</time></trkpt><trkpt lat="45.5910179" lon="11.4985742"><ele>45.0</ele><time>2026-04-26T15:27:48.429Z</time></trkpt><trkpt lat="45.5908847" lon="11.4987049"><ele>45.0</ele><time>2026-04-26T15:27:49.427Z</time></trkpt><trkpt lat="45.5907413" lon="11.4988343"><ele>45.0</ele><time>2026-04-26T15:27:50.428Z</time></trkpt><trkpt lat="45.5905955" lon="11.4989613"><ele>45.0</ele><time>2026-04-26T15:27:51.43Z</time></trkpt><trkpt lat="45.5904454" lon="11.4990851"><ele>45.0</ele><time>2026-04-26T15:27:52.427Z</time></trkpt><trkpt lat="45.5902938" lon="11.4992143"><ele>45.0</ele><time>2026-04-26T15:27:53.428Z</time></trkpt><trkpt lat="45.5901396" lon="11.4993443"><ele>45.0</ele><time>2026-04-26T15:27:54.427Z</time></trkpt><trkpt lat="45.589983" lon="11.4994757"><ele>45.666666666666664</ele><time>2026-04-26T15:27:55.428Z</time></trkpt><trkpt lat="45.5898316" lon="11.499603"><ele>46.33333333333333</ele><time>2026-04-26T15:27:56.426Z</time></trkpt><trkpt lat="45.5896772" lon="11.4997305"><ele>47.0</ele><time>2026-04-26T15:27:57.43Z</time></trkpt><trkpt lat="45.5895256" lon="11.4998611"><ele>47.0</ele><time>2026-04-26T15:27:58.429Z</time></trkpt><trkpt lat="45.589378" lon="11.4999868"><ele>47.0</ele><time>2026-04-26T15:27:59.426Z</time></trkpt><trkpt lat="45.5892314" lon="11.500111"><ele>47.0</ele><time>2026-04-26T15:28:00.426Z</time></trkpt><trkpt lat="45.5890868" lon="11.5002333"><ele>47.0</ele><time>2026-04-26T15:28:01.428Z</time></trkpt><trkpt lat="45.5889428" lon="11.5003558"><ele>47.0</ele><time>2026-04-26T15:28:02.428Z</time></trkpt><trkpt lat="45.5887991" lon="11.500482"><ele>47.0</ele><time>2026-04-26T15:28:03.428Z</time></trkpt><trkpt lat="45.5886575" lon="11.5006027"><ele>46.33333333333333</ele><time>2026-04-26T15:28:04.427Z</time></trkpt><trkpt lat="45.5885137" lon="11.5007253"><ele>45.666666666666664</ele><time>2026-04-26T15:28:05.43Z</time></trkpt><trkpt lat="45.5883703" lon="11.5008475"><ele>45.0</ele><time>2026-04-26T15:28:06.434Z</time></trkpt><trkpt lat="45.588226" lon="11.5009727"><ele>45.0</ele><time>2026-04-26T15:28:07.427Z</time></trkpt><trkpt lat="45.5880764" lon="11.5010949"><ele>45.0</ele><time>2026-04-26T15:28:08.428Z</time></trkpt><trkpt lat="45.5879271" lon="11.5012222"><ele>45.0</ele><time>2026-04-26T15:28:09.429Z</time></trkpt><trkpt lat="45.5877773" lon="11.5013526"><ele>44.666666666666664</ele><time>2026-04-26T15:28:10.428Z</time></trkpt><trkpt lat="45.5876315" lon="11.5014779"><ele>44.33333333333333</ele><time>2026-04-26T15:28:11.428Z</time></trkpt><trkpt lat="45.5874852" lon="11.5016052"><ele>44.0</ele><time>2026-04-26T15:28:12.431Z</time></trkpt><trkpt lat="45.5873417" lon="11.5017316"><ele>44.0</ele><time>2026-04-26T15:28:13.428Z</time></trkpt><trkpt lat="45.5871961" lon="11.5018587"><ele>44.0</ele><time>2026-04-26T15:28:14.43Z</time></trkpt><trkpt lat="45.5870474" lon="11.5019897"><ele>44.0</ele><time>2026-04-26T15:28:15.428Z</time></trkpt><trkpt lat="45.5868995" lon="11.5021169"><ele>44.0</ele><time>2026-04-26T15:28:16.429Z</time></trkpt><trkpt lat="45.5867537" lon="11.5022422"><ele>44.0</ele><time>2026-04-26T15:28:17.426Z</time></trkpt><trkpt lat="45.5866093" lon="11.5023658"><ele>44.0</ele><time>2026-04-26T15:28:18.429Z</time></trkpt><trkpt lat="45.5864656" lon="11.5024891"><ele>44.0</ele><time>2026-04-26T15:28:19.43Z</time></trkpt><trkpt lat="45.5863213" lon="11.5026121"><ele>44.0</ele><time>2026-04-26T15:28:20.432Z</time></trkpt><trkpt lat="45.5861776" lon="11.5027379"><ele>44.0</ele><time>2026-04-26T15:28:21.427Z</time></trkpt><trkpt lat="45.586032" lon="11.5028605"><ele>43.666666666666664</ele><time>2026-04-26T15:28:22.429Z</time></trkpt><trkpt lat="45.5858863" lon="11.5029847"><ele>43.333333333333336</ele><time>2026-04-26T15:28:23.428Z</time></trkpt><trkpt lat="45.5857411" lon="11.5031058"><ele>43.0</ele><time>2026-04-26T15:28:24.432Z</time></trkpt><trkpt lat="45.5856017" lon="11.5032286"><ele>43.0</ele><time>2026-04-26T15:28:25.426Z</time></trkpt><trkpt lat="45.5854626" lon="11.5033498"><ele>43.0</ele><time>2026-04-26T15:28:26.43Z</time></trkpt><trkpt lat="45.58532" lon="11.5034732"><ele>43.0</ele><time>2026-04-26T15:28:27.428Z</time></trkpt><trkpt lat="45.5851774" lon="11.503592"><ele>43.0</ele><time>2026-04-26T15:28:28.428Z</time></trkpt><trkpt lat="45.5850332" lon="11.5037134"><ele>43.0</ele><time>2026-04-26T15:28:29.428Z</time></trkpt><trkpt lat="45.5848893" lon="11.5038394"><ele>43.0</ele><time>2026-04-26T15:28:30.429Z</time></trkpt><trkpt lat="45.5847433" lon="11.5039672"><ele>43.0</ele><time>2026-04-26T15:28:31.428Z</time></trkpt><trkpt lat="45.584594" lon="11.5040943"><ele>43.0</ele><time>2026-04-26T15:28:32.427Z</time></trkpt><trkpt lat="45.5844478" lon="11.5042215"><ele>43.0</ele><time>2026-04-26T15:28:33.428Z</time></trkpt><trkpt lat="45.5843014" lon="11.5043472"><ele>43.0</ele><time>2026-04-26T15:28:34.434Z</time></trkpt><trkpt lat="45.5841506" lon="11.5044728"><ele>43.0</ele><time>2026-04-26T15:28:35.429Z</time></trkpt><trkpt lat="45.5840015" lon="11.5045991"><ele>43.0</ele><time>2026-04-26T15:28:36.437Z</time></trkpt><trkpt lat="45.583851" lon="11.5047219"><ele>43.0</ele><time>2026-04-26T15:28:37.434Z</time></trkpt><trkpt lat="45.5837014" lon="11.5048501"><ele>43.0</ele><time>2026-04-26T15:28:38.428Z</time></trkpt><trkpt lat="45.5835572" lon="11.504977"><ele>43.0</ele><time>2026-04-26T15:28:39.433Z</time></trkpt><trkpt lat="45.5834228" lon="11.5050941"><ele>43.0</ele><time>2026-04-26T15:28:40.43Z</time></trkpt><trkpt lat="45.5832937" lon="11.505208"><ele>43.0</ele><time>2026-04-26T15:28:41.428Z</time></trkpt><trkpt lat="45.5831731" lon="11.5053162"><ele>43.0</ele><time>2026-04-26T15:28:42.429Z</time></trkpt><trkpt lat="45.5830573" lon="11.5054154"><ele>43.0</ele><time>2026-04-26T15:28:43.427Z</time></trkpt><trkpt lat="45.5829531" lon="11.5055085"><ele>42.4</ele><time>2026-04-26T15:28:44.429Z</time></trkpt><trkpt lat="45.5828513" lon="11.505591"><ele>41.8</ele><time>2026-04-26T15:28:45.429Z</time></trkpt><trkpt lat="45.5827557" lon="11.5056746"><ele>41.2</ele><time>2026-04-26T15:28:46.428Z</time></trkpt><trkpt lat="45.5826674" lon="11.5057576"><ele>40.6</ele><time>2026-04-26T15:28:47.427Z</time></trkpt><trkpt lat="45.5825853" lon="11.505834"><ele>40.0</ele><time>2026-04-26T15:28:48.427Z</time></trkpt><trkpt lat="45.5825112" lon="11.5059106"><ele>39.833333333333336</ele><time>2026-04-26T15:28:49.428Z</time></trkpt><trkpt lat="45.5824448" lon="11.5059833"><ele>39.66666666666667</ele><time>2026-04-26T15:28:50.429Z</time></trkpt><trkpt lat="45.5823843" lon="11.5060501"><ele>39.5</ele><time>2026-04-26T15:28:51.428Z</time></trkpt><trkpt lat="45.5823298" lon="11.5061128"><ele>39.333333333333336</ele><time>2026-04-26T15:28:52.428Z</time></trkpt><trkpt lat="45.5822754" lon="11.5061751"><ele>39.166666666666664</ele><time>2026-04-26T15:28:53.427Z</time></trkpt><trkpt lat="45.5821618" lon="11.5062436"><ele>39.0</ele><time>2026-04-26T15:28:55.427Z</time></trkpt><trkpt lat="45.5820952" lon="11.5062586"><ele>39.285714285714285</ele><time>2026-04-26T15:28:56.427Z</time></trkpt><trkpt lat="45.5820264" lon="11.5062627"><ele>39.57142857142857</ele><time>2026-04-26T15:28:57.427Z</time></trkpt><trkpt lat="45.5819618" lon="11.5062781"><ele>39.857142857142854</ele><time>2026-04-26T15:28:58.43Z</time></trkpt><trkpt lat="45.5819003" lon="11.5063128"><ele>40.14285714285714</ele><time>2026-04-26T15:28:59.427Z</time></trkpt><trkpt lat="45.5818467" lon="11.5063711"><ele>40.42857142857143</ele><time>2026-04-26T15:29:00.426Z</time></trkpt><trkpt lat="45.5818079" lon="11.5064535"><ele>40.71428571428571</ele><time>2026-04-26T15:29:01.431Z</time></trkpt><trkpt lat="45.5817892" lon="11.5065526"><ele>41.0</ele><time>2026-04-26T15:29:02.427Z</time></trkpt><trkpt lat="45.5817897" lon="11.5066607"><ele>41.0</ele><time>2026-04-26T15:29:03.427Z</time></trkpt><trkpt lat="45.5818146" lon="11.5067676"><ele>41.0</ele><time>2026-04-26T15:29:04.435Z</time></trkpt><trkpt lat="45.5818598" lon="11.5068623"><ele>41.0</ele><time>2026-04-26T15:29:05.429Z</time></trkpt><trkpt lat="45.5819074" lon="11.5069586"><ele>41.0</ele><time>2026-04-26T15:29:06.43Z</time></trkpt><trkpt lat="45.5819409" lon="11.5070561"><ele>41.0</ele><time>2026-04-26T15:29:07.432Z</time></trkpt><trkpt lat="45.5819582" lon="11.5071698"><ele>41.0</ele><time>2026-04-26T15:29:08.435Z</time></trkpt><trkpt lat="45.5819554" lon="11.5073019"><ele>41.0</ele><time>2026-04-26T15:29:09.427Z</time></trkpt><trkpt lat="45.5819385" lon="11.5074423"><ele>41.0</ele><time>2026-04-26T15:29:10.429Z</time></trkpt><trkpt lat="45.5819097" lon="11.507588"><ele>41.0</ele><time>2026-04-26T15:29:11.427Z</time></trkpt><trkpt lat="45.5818719" lon="11.507735"><ele>41.0</ele><time>2026-04-26T15:29:12.428Z</time></trkpt><trkpt lat="45.5818245" lon="11.5078742"><ele>41.0</ele><time>2026-04-26T15:29:13.427Z</time></trkpt><trkpt lat="45.5817663" lon="11.5080106"><ele>40.5</ele><time>2026-04-26T15:29:14.427Z</time></trkpt><trkpt lat="45.5816971" lon="11.5081362"><ele>40.0</ele><time>2026-04-26T15:29:15.429Z</time></trkpt><trkpt lat="45.5816209" lon="11.5082572"><ele>39.5</ele><time>2026-04-26T15:29:16.43Z</time></trkpt><trkpt lat="45.5815331" lon="11.5083719"><ele>39.0</ele><time>2026-04-26T15:29:17.427Z</time></trkpt><trkpt lat="45.5814488" lon="11.5084868"><ele>39.0</ele><time>2026-04-26T15:29:18.427Z</time></trkpt><trkpt lat="45.5813548" lon="11.5086033"><ele>39.0</ele><time>2026-04-26T15:29:19.428Z</time></trkpt><trkpt lat="45.5812613" lon="11.5087215"><ele>39.0</ele><time>2026-04-26T15:29:20.429Z</time></trkpt><trkpt lat="45.5811598" lon="11.5088431"><ele>39.0</ele><time>2026-04-26T15:29:21.427Z</time></trkpt><trkpt lat="45.5810607" lon="11.5089635"><ele>39.2</ele><time>2026-04-26T15:29:22.426Z</time></trkpt><trkpt lat="45.5809594" lon="11.5090773"><ele>39.4</ele><time>2026-04-26T15:29:23.428Z</time></trkpt><trkpt lat="45.5808655" lon="11.5091689"><ele>39.6</ele><time>2026-04-26T15:29:24.428Z</time></trkpt><trkpt lat="45.5807695" lon="11.5092294"><ele>39.8</ele><time>2026-04-26T15:29:25.434Z</time></trkpt><trkpt lat="45.5806715" lon="11.5092309"><ele>40.0</ele><time>2026-04-26T15:29:26.427Z</time></trkpt><trkpt lat="45.5805805" lon="11.50917"><ele>40.0</ele><time>2026-04-26T15:29:27.428Z</time></trkpt><trkpt lat="45.58048" lon="11.5090708"><ele>40.0</ele><time>2026-04-26T15:29:28.428Z</time></trkpt><trkpt lat="45.580362" lon="11.5089796"><ele>40.0</ele><time>2026-04-26T15:29:29.427Z</time></trkpt><trkpt lat="45.5802349" lon="11.5088969"><ele>40.0</ele><time>2026-04-26T15:29:30.43Z</time></trkpt><trkpt lat="45.5801081" lon="11.5088177"><ele>40.0</ele><time>2026-04-26T15:29:31.427Z</time></trkpt><trkpt lat="45.5800157" lon="11.5086754"><ele>40.0</ele><time>2026-04-26T15:29:32.427Z</time></trkpt><trkpt lat="45.5799432" lon="11.5085023"><ele>40.0</ele><time>2026-04-26T15:29:33.427Z</time></trkpt><trkpt lat="45.5798656" lon="11.5083045"><ele>40.0</ele><time>2026-04-26T15:29:34.426Z</time></trkpt><trkpt lat="45.5797829" lon="11.5080558"><ele>40.0</ele><time>2026-04-26T15:29:35.43Z</time></trkpt><trkpt lat="45.5796834" lon="11.5078001"><ele>40.0</ele><time>2026-04-26T15:29:36.428Z</time></trkpt><trkpt lat="45.5795827" lon="11.5075382"><ele>40.0</ele><time>2026-04-26T15:29:37.426Z</time></trkpt><trkpt lat="45.5794757" lon="11.5072687"><ele>40.0</ele><time>2026-04-26T15:29:38.43Z</time></trkpt><trkpt lat="45.5793696" lon="11.50699"><ele>40.0</ele><time>2026-04-26T15:29:39.428Z</time></trkpt><trkpt lat="45.5792509" lon="11.5067118"><ele>40.0</ele><time>2026-04-26T15:29:40.431Z</time></trkpt><trkpt lat="45.57913" lon="11.5064281"><ele>40.0</ele><time>2026-04-26T15:29:41.429Z</time></trkpt><trkpt lat="45.5789855" lon="11.5061593"><ele>40.0</ele><time>2026-04-26T15:29:42.427Z</time></trkpt><trkpt lat="45.5788408" lon="11.5058891"><ele>40.0</ele><time>2026-04-26T15:29:43.428Z</time></trkpt><trkpt lat="45.5786899" lon="11.5056201"><ele>39.5</ele><time>2026-04-26T15:29:44.432Z</time></trkpt><trkpt lat="45.5785409" lon="11.5053496"><ele>39.0</ele><time>2026-04-26T15:29:45.427Z</time></trkpt><trkpt lat="45.5783884" lon="11.5050803"><ele>39.0</ele><time>2026-04-26T15:29:46.427Z</time></trkpt><trkpt lat="45.5782382" lon="11.5048077"><ele>39.0</ele><time>2026-04-26T15:29:47.426Z</time></trkpt><trkpt lat="45.5780867" lon="11.5045375"><ele>38.5</ele><time>2026-04-26T15:29:48.427Z</time></trkpt><trkpt lat="45.5779324" lon="11.50427"><ele>38.0</ele><time>2026-04-26T15:29:49.427Z</time></trkpt><trkpt lat="45.5777794" lon="11.5040058"><ele>38.5</ele><time>2026-04-26T15:29:50.427Z</time></trkpt><trkpt lat="45.5776274" lon="11.5037393"><ele>39.0</ele><time>2026-04-26T15:29:51.425Z</time></trkpt><trkpt lat="45.5774744" lon="11.5034715"><ele>39.0</ele><time>2026-04-26T15:29:52.427Z</time></trkpt><trkpt lat="45.577322" lon="11.503203"><ele>39.0</ele><time>2026-04-26T15:29:53.431Z</time></trkpt><trkpt lat="45.5771675" lon="11.5029315"><ele>38.5</ele><time>2026-04-26T15:29:54.427Z</time></trkpt><trkpt lat="45.5770118" lon="11.5026522"><ele>38.0</ele><time>2026-04-26T15:29:55.428Z</time></trkpt><trkpt lat="45.5768542" lon="11.5023737"><ele>38.0</ele><time>2026-04-26T15:29:56.427Z</time></trkpt><trkpt lat="45.576692" lon="11.502099"><ele>38.0</ele><time>2026-04-26T15:29:57.428Z</time></trkpt><trkpt lat="45.5765353" lon="11.5018179"><ele>38.0</ele><time>2026-04-26T15:29:58.428Z</time></trkpt><trkpt lat="45.5763803" lon="11.5015347"><ele>38.0</ele><time>2026-04-26T15:29:59.43Z</time></trkpt><trkpt lat="45.5762211" lon="11.5012492"><ele>38.5</ele><time>2026-04-26T15:30:00.427Z</time></trkpt><trkpt lat="45.5760621" lon="11.5009632"><ele>39.0</ele><time>2026-04-26T15:30:01.427Z</time></trkpt><trkpt lat="45.5759022" lon="11.5006796"><ele>39.5</ele><time>2026-04-26T15:30:02.427Z</time></trkpt><trkpt lat="45.5757384" lon="11.5003989"><ele>40.0</ele><time>2026-04-26T15:30:03.428Z</time></trkpt><trkpt lat="45.5755754" lon="11.5001146"><ele>40.0</ele><time>2026-04-26T15:30:04.427Z</time></trkpt><trkpt lat="45.5754141" lon="11.4998306"><ele>40.0</ele><time>2026-04-26T15:30:05.428Z</time></trkpt><trkpt lat="45.5752601" lon="11.4995554"><ele>39.0</ele><time>2026-04-26T15:30:06.428Z</time></trkpt><trkpt lat="45.5751098" lon="11.4992876"><ele>38.0</ele><time>2026-04-26T15:30:07.427Z</time></trkpt><trkpt lat="45.5749621" lon="11.499027"><ele>38.0</ele><time>2026-04-26T15:30:08.426Z</time></trkpt><trkpt lat="45.5748159" lon="11.498769"><ele>38.0</ele><time>2026-04-26T15:30:09.434Z</time></trkpt><trkpt lat="45.5746731" lon="11.4985186"><ele>38.0</ele><time>2026-04-26T15:30:10.427Z</time></trkpt><trkpt lat="45.5745337" lon="11.4982775"><ele>38.0</ele><time>2026-04-26T15:30:11.427Z</time></trkpt><trkpt lat="45.5743902" lon="11.4980315"><ele>38.0</ele><time>2026-04-26T15:30:12.43Z</time></trkpt><trkpt lat="45.5742404" lon="11.4977825"><ele>38.0</ele><time>2026-04-26T15:30:13.426Z</time></trkpt><trkpt lat="45.5740895" lon="11.497528"><ele>38.0</ele><time>2026-04-26T15:30:14.428Z</time></trkpt><trkpt lat="45.5739308" lon="11.4972748"><ele>38.0</ele><time>2026-04-26T15:30:15.428Z</time></trkpt><trkpt lat="45.5737645" lon="11.4970257"><ele>38.0</ele><time>2026-04-26T15:30:16.427Z</time></trkpt><trkpt lat="45.5735914" lon="11.4967825"><ele>38.0</ele><time>2026-04-26T15:30:17.433Z</time></trkpt><trkpt lat="45.5734088" lon="11.4965476"><ele>38.0</ele><time>2026-04-26T15:30:18.427Z</time></trkpt><trkpt lat="45.5732195" lon="11.4963183"><ele>38.0</ele><time>2026-04-26T15:30:19.427Z</time></trkpt><trkpt lat="45.5730237" lon="11.4960983"><ele>38.0</ele><time>2026-04-26T15:30:20.428Z</time></trkpt><trkpt lat="45.5728211" lon="11.4958821"><ele>38.0</ele><time>2026-04-26T15:30:21.428Z</time></trkpt><trkpt lat="45.5726111" lon="11.4956774"><ele>38.0</ele><time>2026-04-26T15:30:22.426Z</time></trkpt><trkpt lat="45.5723961" lon="11.4954839"><ele>38.0</ele><time>2026-04-26T15:30:23.427Z</time></trkpt><trkpt lat="45.5721747" lon="11.4952939"><ele>38.0</ele><time>2026-04-26T15:30:24.427Z</time></trkpt><trkpt lat="45.5719475" lon="11.4951147"><ele>37.0</ele><time>2026-04-26T15:30:25.43Z</time></trkpt><trkpt lat="45.571717" lon="11.494953"><ele>36.0</ele><time>2026-04-26T15:30:26.429Z</time></trkpt><trkpt lat="45.5714809" lon="11.4948023"><ele>36.0</ele><time>2026-04-26T15:30:27.428Z</time></trkpt><trkpt lat="45.5712418" lon="11.4946656"><ele>36.0</ele><time>2026-04-26T15:30:28.428Z</time></trkpt><trkpt lat="45.5709997" lon="11.4945378"><ele>37.0</ele><time>2026-04-26T15:30:29.427Z</time></trkpt><trkpt lat="45.5707565" lon="11.4944244"><ele>38.0</ele><time>2026-04-26T15:30:30.428Z</time></trkpt><trkpt lat="45.5705112" lon="11.4943266"><ele>38.0</ele><time>2026-04-26T15:30:31.428Z</time></trkpt><trkpt lat="45.5702638" lon="11.4942399"><ele>38.0</ele><time>2026-04-26T15:30:32.426Z</time></trkpt><trkpt lat="45.5700168" lon="11.4941641"><ele>38.0</ele><time>2026-04-26T15:30:33.428Z</time></trkpt><trkpt lat="45.569767" lon="11.4941"><ele>38.0</ele><time>2026-04-26T15:30:34.427Z</time></trkpt><trkpt lat="45.5695193" lon="11.4940511"><ele>38.0</ele><time>2026-04-26T15:30:35.427Z</time></trkpt><trkpt lat="45.5692692" lon="11.4940155"><ele>38.0</ele><time>2026-04-26T15:30:36.427Z</time></trkpt><trkpt lat="45.5690167" lon="11.4939941"><ele>38.0</ele><time>2026-04-26T15:30:37.43Z</time></trkpt><trkpt lat="45.5687664" lon="11.4939923"><ele>38.0</ele><time>2026-04-26T15:30:38.428Z</time></trkpt><trkpt lat="45.5685118" lon="11.494001"><ele>37.0</ele><time>2026-04-26T15:30:39.432Z</time></trkpt><trkpt lat="45.5682552" lon="11.4940132"><ele>36.0</ele><time>2026-04-26T15:30:40.433Z</time></trkpt><trkpt lat="45.5680015" lon="11.4940362"><ele>36.5</ele><time>2026-04-26T15:30:41.427Z</time></trkpt><trkpt lat="45.5677472" lon="11.4940611"><ele>37.0</ele><time>2026-04-26T15:30:42.428Z</time></trkpt><trkpt lat="45.5674922" lon="11.4940932"><ele>37.0</ele><time>2026-04-26T15:30:43.429Z</time></trkpt><trkpt lat="45.5672381" lon="11.4941287"><ele>37.0</ele><time>2026-04-26T15:30:44.426Z</time></trkpt><trkpt lat="45.5669825" lon="11.4941606"><ele>37.5</ele><time>2026-04-26T15:30:45.429Z</time></trkpt><trkpt lat="45.5667296" lon="11.4941947"><ele>38.0</ele><time>2026-04-26T15:30:46.427Z</time></trkpt><trkpt lat="45.5664749" lon="11.4942316"><ele>38.0</ele><time>2026-04-26T15:30:47.427Z</time></trkpt><trkpt lat="45.5662228" lon="11.494268"><ele>38.0</ele><time>2026-04-26T15:30:48.427Z</time></trkpt><trkpt lat="45.5659686" lon="11.4943006"><ele>37.0</ele><time>2026-04-26T15:30:49.428Z</time></trkpt><trkpt lat="45.5657123" lon="11.4943322"><ele>36.0</ele><time>2026-04-26T15:30:50.428Z</time></trkpt><trkpt lat="45.5654552" lon="11.494367"><ele>35.5</ele><time>2026-04-26T15:30:51.429Z</time></trkpt><trkpt lat="45.5651999" lon="11.494403"><ele>35.0</ele><time>2026-04-26T15:30:52.428Z</time></trkpt><trkpt lat="45.5649405" lon="11.4944393"><ele>35.0</ele><time>2026-04-26T15:30:53.427Z</time></trkpt><trkpt lat="45.5646844" lon="11.4944734"><ele>35.0</ele><time>2026-04-26T15:30:54.426Z</time></trkpt><trkpt lat="45.5644235" lon="11.4945126"><ele>35.5</ele><time>2026-04-26T15:30:55.426Z</time></trkpt><trkpt lat="45.5641678" lon="11.4945506"><ele>36.0</ele><time>2026-04-26T15:30:56.427Z</time></trkpt><trkpt lat="45.5639096" lon="11.4945903"><ele>36.0</ele><time>2026-04-26T15:30:57.43Z</time></trkpt><trkpt lat="45.5636514" lon="11.494628"><ele>36.0</ele><time>2026-04-26T15:30:58.431Z</time></trkpt><trkpt lat="45.5633951" lon="11.494665"><ele>36.0</ele><time>2026-04-26T15:30:59.428Z</time></trkpt><trkpt lat="45.5631375" lon="11.4947016"><ele>36.0</ele><time>2026-04-26T15:31:00.426Z</time></trkpt><trkpt lat="45.5628802" lon="11.4947378"><ele>35.5</ele><time>2026-04-26T15:31:01.429Z</time></trkpt><trkpt lat="45.5626208" lon="11.4947797"><ele>35.0</ele><time>2026-04-26T15:31:02.429Z</time></trkpt><trkpt lat="45.5623631" lon="11.4948219"><ele>35.0</ele><time>2026-04-26T15:31:03.428Z</time></trkpt><trkpt lat="45.5621042" lon="11.4948737"><ele>35.0</ele><time>2026-04-26T15:31:04.427Z</time></trkpt><trkpt lat="45.561847" lon="11.4949307"><ele>36.5</ele><time>2026-04-26T15:31:05.426Z</time></trkpt><trkpt lat="45.5615921" lon="11.4949948"><ele>38.0</ele><time>2026-04-26T15:31:06.428Z</time></trkpt><trkpt lat="45.5613382" lon="11.4950696"><ele>36.5</ele><time>2026-04-26T15:31:07.429Z</time></trkpt><trkpt lat="45.5610841" lon="11.4951577"><ele>35.0</ele><time>2026-04-26T15:31:08.428Z</time></trkpt><trkpt lat="45.5608323" lon="11.4952525"><ele>35.0</ele><time>2026-04-26T15:31:09.428Z</time></trkpt><trkpt lat="45.5605845" lon="11.4953598"><ele>35.0</ele><time>2026-04-26T15:31:10.428Z</time></trkpt><trkpt lat="45.5603401" lon="11.4954804"><ele>33.5</ele><time>2026-04-26T15:31:11.428Z</time></trkpt><trkpt lat="45.5600941" lon="11.4956113"><ele>32.0</ele><time>2026-04-26T15:31:12.428Z</time></trkpt><trkpt lat="45.5598489" lon="11.4957482"><ele>32.0</ele><time>2026-04-26T15:31:13.426Z</time></trkpt><trkpt lat="45.5596071" lon="11.4958926"><ele>32.0</ele><time>2026-04-26T15:31:14.428Z</time></trkpt><trkpt lat="45.5593644" lon="11.4960424"><ele>33.0</ele><time>2026-04-26T15:31:15.44Z</time></trkpt><trkpt lat="45.559122" lon="11.4961915"><ele>34.0</ele><time>2026-04-26T15:31:16.427Z</time></trkpt><trkpt lat="45.558878" lon="11.4963423"><ele>34.0</ele><time>2026-04-26T15:31:17.426Z</time></trkpt><trkpt lat="45.558634" lon="11.4964963"><ele>34.0</ele><time>2026-04-26T15:31:18.427Z</time></trkpt><trkpt lat="45.5583875" lon="11.4966518"><ele>34.0</ele><time>2026-04-26T15:31:19.428Z</time></trkpt><trkpt lat="45.5581435" lon="11.4968087"><ele>34.0</ele><time>2026-04-26T15:31:20.428Z</time></trkpt><trkpt lat="45.5578999" lon="11.4969629"><ele>34.0</ele><time>2026-04-26T15:31:21.428Z</time></trkpt><trkpt lat="45.5576558" lon="11.4971167"><ele>34.0</ele><time>2026-04-26T15:31:22.427Z</time></trkpt><trkpt lat="45.5574118" lon="11.4972722"><ele>34.0</ele><time>2026-04-26T15:31:23.427Z</time></trkpt><trkpt lat="45.5571692" lon="11.4974322"><ele>34.0</ele><time>2026-04-26T15:31:24.429Z</time></trkpt><trkpt lat="45.5569267" lon="11.4975886"><ele>33.5</ele><time>2026-04-26T15:31:25.428Z</time></trkpt><trkpt lat="45.5566836" lon="11.4977446"><ele>33.0</ele><time>2026-04-26T15:31:26.428Z</time></trkpt><trkpt lat="45.5564418" lon="11.4979036"><ele>34.0</ele><time>2026-04-26T15:31:27.429Z</time></trkpt><trkpt lat="45.556203" lon="11.4980582"><ele>35.0</ele><time>2026-04-26T15:31:28.428Z</time></trkpt><trkpt lat="45.5559633" lon="11.4982166"><ele>35.0</ele><time>2026-04-26T15:31:29.433Z</time></trkpt><trkpt lat="45.555727" lon="11.4983711"><ele>35.0</ele><time>2026-04-26T15:31:30.427Z</time></trkpt><trkpt lat="45.555489" lon="11.4985343"><ele>35.0</ele><time>2026-04-26T15:31:31.427Z</time></trkpt><trkpt lat="45.5552546" lon="11.4986948"><ele>35.0</ele><time>2026-04-26T15:31:32.429Z</time></trkpt><trkpt lat="45.5550187" lon="11.4988502"><ele>34.5</ele><time>2026-04-26T15:31:33.432Z</time></trkpt><trkpt lat="45.5547844" lon="11.4990128"><ele>34.0</ele><time>2026-04-26T15:31:34.427Z</time></trkpt><trkpt lat="45.554551" lon="11.4991665"><ele>33.5</ele><time>2026-04-26T15:31:35.427Z</time></trkpt><trkpt lat="45.5543171" lon="11.4993217"><ele>33.0</ele><time>2026-04-26T15:31:36.428Z</time></trkpt><trkpt lat="45.5540794" lon="11.4994839"><ele>32.5</ele><time>2026-04-26T15:31:37.427Z</time></trkpt><trkpt lat="45.5538439" lon="11.4996446"><ele>32.0</ele><time>2026-04-26T15:31:38.428Z</time></trkpt><trkpt lat="45.5536095" lon="11.4998052"><ele>33.0</ele><time>2026-04-26T15:31:39.43Z</time></trkpt><trkpt lat="45.5533759" lon="11.4999642"><ele>34.0</ele><time>2026-04-26T15:31:40.427Z</time></trkpt><trkpt lat="45.5531399" lon="11.500124"><ele>34.0</ele><time>2026-04-26T15:31:41.433Z</time></trkpt><trkpt lat="45.5529043" lon="11.5002822"><ele>34.0</ele><time>2026-04-26T15:31:42.43Z</time></trkpt><trkpt lat="45.5526705" lon="11.5004399"><ele>33.0</ele><time>2026-04-26T15:31:43.427Z</time></trkpt><trkpt lat="45.5524329" lon="11.5006063"><ele>32.0</ele><time>2026-04-26T15:31:44.428Z</time></trkpt><trkpt lat="45.5521962" lon="11.5007749"><ele>32.5</ele><time>2026-04-26T15:31:45.428Z</time></trkpt><trkpt lat="45.551958" lon="11.5009335"><ele>33.0</ele><time>2026-04-26T15:31:46.437Z</time></trkpt><trkpt lat="45.551722" lon="11.5010937"><ele>33.0</ele><time>2026-04-26T15:31:47.428Z</time></trkpt><trkpt lat="45.5514824" lon="11.5012525"><ele>33.0</ele><time>2026-04-26T15:31:48.428Z</time></trkpt><trkpt lat="45.5512455" lon="11.5014163"><ele>33.0</ele><time>2026-04-26T15:31:49.435Z</time></trkpt><trkpt lat="45.5510097" lon="11.5015759"><ele>33.0</ele><time>2026-04-26T15:31:50.429Z</time></trkpt><trkpt lat="45.5507693" lon="11.5017405"><ele>33.0</ele><time>2026-04-26T15:31:51.427Z</time></trkpt><trkpt lat="45.5505297" lon="11.5019021"><ele>33.0</ele><time>2026-04-26T15:31:52.428Z</time></trkpt><trkpt lat="45.5502905" lon="11.5020606"><ele>32.5</ele><time>2026-04-26T15:31:53.429Z</time></trkpt><trkpt lat="45.5500487" lon="11.5022239"><ele>32.0</ele><time>2026-04-26T15:31:54.432Z</time></trkpt><trkpt lat="45.5498082" lon="11.5023875"><ele>32.0</ele><time>2026-04-26T15:31:55.428Z</time></trkpt><trkpt lat="45.5495655" lon="11.5025506"><ele>32.0</ele><time>2026-04-26T15:31:56.429Z</time></trkpt><trkpt lat="45.5493229" lon="11.5027138"><ele>31.5</ele><time>2026-04-26T15:31:57.431Z</time></trkpt><trkpt lat="45.5490816" lon="11.5028744"><ele>31.0</ele><time>2026-04-26T15:31:58.428Z</time></trkpt><trkpt lat="45.5488378" lon="11.50304"><ele>31.5</ele><time>2026-04-26T15:31:59.428Z</time></trkpt><trkpt lat="45.5485943" lon="11.5032091"><ele>32.0</ele><time>2026-04-26T15:32:00.426Z</time></trkpt><trkpt lat="45.5483521" lon="11.503378"><ele>32.0</ele><time>2026-04-26T15:32:01.427Z</time></trkpt><trkpt lat="45.5481144" lon="11.5035515"><ele>32.0</ele><time>2026-04-26T15:32:02.428Z</time></trkpt><trkpt lat="45.5478783" lon="11.5037341"><ele>31.5</ele><time>2026-04-26T15:32:03.428Z</time></trkpt><trkpt lat="45.5476476" lon="11.5039225"><ele>31.0</ele><time>2026-04-26T15:32:04.428Z</time></trkpt><trkpt lat="45.5474222" lon="11.5041155"><ele>31.0</ele><time>2026-04-26T15:32:05.428Z</time></trkpt><trkpt lat="45.5472012" lon="11.5043178"><ele>31.0</ele><time>2026-04-26T15:32:06.429Z</time></trkpt><trkpt lat="45.546988" lon="11.5045246"><ele>32.0</ele><time>2026-04-26T15:32:07.428Z</time></trkpt><trkpt lat="45.5467715" lon="11.5047407"><ele>33.0</ele><time>2026-04-26T15:32:08.428Z</time></trkpt><trkpt lat="45.5465583" lon="11.5049579"><ele>33.0</ele><time>2026-04-26T15:32:09.428Z</time></trkpt><trkpt lat="45.5463432" lon="11.505181"><ele>33.0</ele><time>2026-04-26T15:32:10.43Z</time></trkpt><trkpt lat="45.5461356" lon="11.5054001"><ele>34.0</ele><time>2026-04-26T15:32:11.432Z</time></trkpt><trkpt lat="45.5459289" lon="11.5056153"><ele>35.0</ele><time>2026-04-26T15:32:12.428Z</time></trkpt><trkpt lat="45.5457277" lon="11.5058272"><ele>35.0</ele><time>2026-04-26T15:32:13.428Z</time></trkpt><trkpt lat="45.5455137" lon="11.5060332"><ele>35.0</ele><time>2026-04-26T15:32:14.427Z</time></trkpt><trkpt lat="45.5453005" lon="11.5062309"><ele>33.5</ele><time>2026-04-26T15:32:15.427Z</time></trkpt><trkpt lat="45.5450891" lon="11.5064145"><ele>32.0</ele><time>2026-04-26T15:32:16.427Z</time></trkpt><trkpt lat="45.544876" lon="11.5065901"><ele>32.0</ele><time>2026-04-26T15:32:17.427Z</time></trkpt><trkpt lat="45.5446628" lon="11.5067527"><ele>32.0</ele><time>2026-04-26T15:32:18.427Z</time></trkpt><trkpt lat="45.5444528" lon="11.5069068"><ele>31.0</ele><time>2026-04-26T15:32:19.427Z</time></trkpt><trkpt lat="45.5442424" lon="11.5070499"><ele>30.0</ele><time>2026-04-26T15:32:20.429Z</time></trkpt><trkpt lat="45.5440351" lon="11.5071842"><ele>30.666666666666664</ele><time>2026-04-26T15:32:21.428Z</time></trkpt><trkpt lat="45.5438264" lon="11.5073001"><ele>31.333333333333332</ele><time>2026-04-26T15:32:22.427Z</time></trkpt><trkpt lat="45.5436165" lon="11.5074166"><ele>32.0</ele><time>2026-04-26T15:32:23.431Z</time></trkpt><trkpt lat="45.543417" lon="11.5075214"><ele>32.0</ele><time>2026-04-26T15:32:24.429Z</time></trkpt><trkpt lat="45.5432181" lon="11.5076116"><ele>32.0</ele><time>2026-04-26T15:32:25.433Z</time></trkpt><trkpt lat="45.5430164" lon="11.507701"><ele>32.0</ele><time>2026-04-26T15:32:26.431Z</time></trkpt><trkpt lat="45.5428133" lon="11.5077803"><ele>31.666666666666664</ele><time>2026-04-26T15:32:27.428Z</time></trkpt><trkpt lat="45.542605" lon="11.5078529"><ele>31.333333333333336</ele><time>2026-04-26T15:32:28.428Z</time></trkpt><trkpt lat="45.5423922" lon="11.507917"><ele>31.0</ele><time>2026-04-26T15:32:29.435Z</time></trkpt><trkpt lat="45.5421745" lon="11.5079809"><ele>31.0</ele><time>2026-04-26T15:32:30.43Z</time></trkpt><trkpt lat="45.5419541" lon="11.5080379"><ele>31.0</ele><time>2026-04-26T15:32:31.432Z</time></trkpt><trkpt lat="45.5417266" lon="11.5080903"><ele>31.0</ele><time>2026-04-26T15:32:32.427Z</time></trkpt><trkpt lat="45.5414881" lon="11.508136"><ele>31.0</ele><time>2026-04-26T15:32:33.427Z</time></trkpt><trkpt lat="45.5412476" lon="11.5081644"><ele>30.5</ele><time>2026-04-26T15:32:34.426Z</time></trkpt><trkpt lat="45.5410073" lon="11.5081812"><ele>30.0</ele><time>2026-04-26T15:32:35.426Z</time></trkpt><trkpt lat="45.5407692" lon="11.5081924"><ele>30.0</ele><time>2026-04-26T15:32:36.428Z</time></trkpt><trkpt lat="45.5405304" lon="11.5081974"><ele>30.0</ele><time>2026-04-26T15:32:37.436Z</time></trkpt><trkpt lat="45.5402928" lon="11.5081975"><ele>30.5</ele><time>2026-04-26T15:32:38.429Z</time></trkpt><trkpt lat="45.5400571" lon="11.5081895"><ele>31.0</ele><time>2026-04-26T15:32:39.426Z</time></trkpt><trkpt lat="45.5398277" lon="11.5081648"><ele>31.0</ele><time>2026-04-26T15:32:40.427Z</time></trkpt><trkpt lat="45.5395949" lon="11.5081412"><ele>31.0</ele><time>2026-04-26T15:32:41.427Z</time></trkpt><trkpt lat="45.5393629" lon="11.508115"><ele>31.333333333333336</ele><time>2026-04-26T15:32:42.427Z</time></trkpt><trkpt lat="45.5391405" lon="11.5080829"><ele>31.666666666666664</ele><time>2026-04-26T15:32:43.428Z</time></trkpt><trkpt lat="45.5389247" lon="11.5080575"><ele>32.0</ele><time>2026-04-26T15:32:44.429Z</time></trkpt><trkpt lat="45.5387109" lon="11.5080276"><ele>33.0</ele><time>2026-04-26T15:32:45.428Z</time></trkpt><trkpt lat="45.5384963" lon="11.5079954"><ele>34.0</ele><time>2026-04-26T15:32:46.428Z</time></trkpt><trkpt lat="45.5382853" lon="11.5079609"><ele>35.0</ele><time>2026-04-26T15:32:47.431Z</time></trkpt><trkpt lat="45.5380718" lon="11.5079306"><ele>35.33333333333333</ele><time>2026-04-26T15:32:48.429Z</time></trkpt><trkpt lat="45.5378611" lon="11.5079073"><ele>35.666666666666664</ele><time>2026-04-26T15:32:49.432Z</time></trkpt><trkpt lat="45.537653" lon="11.5078757"><ele>36.0</ele><time>2026-04-26T15:32:50.431Z</time></trkpt><trkpt lat="45.5374441" lon="11.5078432"><ele>36.0</ele><time>2026-04-26T15:32:51.427Z</time></trkpt><trkpt lat="45.537233" lon="11.507817"><ele>36.0</ele><time>2026-04-26T15:32:52.428Z</time></trkpt><trkpt lat="45.5370192" lon="11.5077897"><ele>36.0</ele><time>2026-04-26T15:32:53.429Z</time></trkpt><trkpt lat="45.5368134" lon="11.5077638"><ele>36.0</ele><time>2026-04-26T15:32:54.427Z</time></trkpt><trkpt lat="45.5366079" lon="11.507752"><ele>36.0</ele><time>2026-04-26T15:32:55.427Z</time></trkpt><trkpt lat="45.5363995" lon="11.507753"><ele>36.0</ele><time>2026-04-26T15:32:56.428Z</time></trkpt><trkpt lat="45.5361879" lon="11.5077672"><ele>36.0</ele><time>2026-04-26T15:32:57.429Z</time></trkpt><trkpt lat="45.5359761" lon="11.5077819"><ele>36.0</ele><time>2026-04-26T15:32:58.427Z</time></trkpt><trkpt lat="45.5357596" lon="11.5078045"><ele>36.0</ele><time>2026-04-26T15:32:59.428Z</time></trkpt><trkpt lat="45.5355407" lon="11.5078269"><ele>35.0</ele><time>2026-04-26T15:33:00.427Z</time></trkpt><trkpt lat="45.5353248" lon="11.5078515"><ele>34.0</ele><time>2026-04-26T15:33:01.428Z</time></trkpt><trkpt lat="45.5351123" lon="11.5078711"><ele>33.0</ele><time>2026-04-26T15:33:02.426Z</time></trkpt><trkpt lat="45.5349025" lon="11.5078979"><ele>33.333333333333336</ele><time>2026-04-26T15:33:03.429Z</time></trkpt><trkpt lat="45.5346933" lon="11.5079242"><ele>33.66666666666667</ele><time>2026-04-26T15:33:04.427Z</time></trkpt><trkpt lat="45.534486" lon="11.5079532"><ele>34.0</ele><time>2026-04-26T15:33:05.428Z</time></trkpt><trkpt lat="45.5342781" lon="11.5079835"><ele>34.0</ele><time>2026-04-26T15:33:06.429Z</time></trkpt><trkpt lat="45.5340805" lon="11.5080139"><ele>34.0</ele><time>2026-04-26T15:33:07.428Z</time></trkpt><trkpt lat="45.5338954" lon="11.5080592"><ele>34.0</ele><time>2026-04-26T15:33:08.427Z</time></trkpt><trkpt lat="45.5337236" lon="11.5081297"><ele>34.333333333333336</ele><time>2026-04-26T15:33:09.428Z</time></trkpt><trkpt lat="45.5335547" lon="11.5082253"><ele>34.666666666666664</ele><time>2026-04-26T15:33:10.429Z</time></trkpt><trkpt lat="45.5333855" lon="11.5083238"><ele>35.0</ele><time>2026-04-26T15:33:11.431Z</time></trkpt><trkpt lat="45.5332167" lon="11.5084367"><ele>35.0</ele><time>2026-04-26T15:33:12.426Z</time></trkpt><trkpt lat="45.5330464" lon="11.5085503"><ele>35.0</ele><time>2026-04-26T15:33:13.428Z</time></trkpt><trkpt lat="45.5328739" lon="11.5086705"><ele>35.0</ele><time>2026-04-26T15:33:14.428Z</time></trkpt><trkpt lat="45.5327027" lon="11.5087908"><ele>34.33333333333333</ele><time>2026-04-26T15:33:15.427Z</time></trkpt><trkpt lat="45.53253" lon="11.5089121"><ele>33.666666666666664</ele><time>2026-04-26T15:33:16.426Z</time></trkpt><trkpt lat="45.5323506" lon="11.5090394"><ele>33.0</ele><time>2026-04-26T15:33:17.427Z</time></trkpt><trkpt lat="45.5321641" lon="11.5091705"><ele>33.333333333333336</ele><time>2026-04-26T15:33:18.425Z</time></trkpt><trkpt lat="45.5319805" lon="11.5092936"><ele>33.66666666666667</ele><time>2026-04-26T15:33:19.427Z</time></trkpt><trkpt lat="45.5318052" lon="11.5094079"><ele>34.0</ele><time>2026-04-26T15:33:20.43Z</time></trkpt><trkpt lat="45.5316277" lon="11.5095131"><ele>33.333333333333336</ele><time>2026-04-26T15:33:21.428Z</time></trkpt><trkpt lat="45.5314544" lon="11.5096135"><ele>32.666666666666664</ele><time>2026-04-26T15:33:22.435Z</time></trkpt><trkpt lat="45.5312601" lon="11.5096848"><ele>32.0</ele><time>2026-04-26T15:33:23.427Z</time></trkpt><trkpt lat="45.5310636" lon="11.5097339"><ele>31.0</ele><time>2026-04-26T15:33:24.427Z</time></trkpt><trkpt lat="45.5308611" lon="11.5097631"><ele>30.0</ele><time>2026-04-26T15:33:25.431Z</time></trkpt><trkpt lat="45.5306542" lon="11.5097718"><ele>29.0</ele><time>2026-04-26T15:33:26.427Z</time></trkpt><trkpt lat="45.5304411" lon="11.5097541"><ele>29.333333333333332</ele><time>2026-04-26T15:33:27.432Z</time></trkpt><trkpt lat="45.5302337" lon="11.5097117"><ele>29.666666666666664</ele><time>2026-04-26T15:33:28.428Z</time></trkpt><trkpt lat="45.5300344" lon="11.5096592"><ele>30.0</ele><time>2026-04-26T15:33:29.429Z</time></trkpt><trkpt lat="45.5298389" lon="11.5095872"><ele>30.333333333333336</ele><time>2026-04-26T15:33:30.427Z</time></trkpt><trkpt lat="45.5296472" lon="11.5095152"><ele>30.666666666666668</ele><time>2026-04-26T15:33:31.427Z</time></trkpt><trkpt lat="45.5294617" lon="11.5094444"><ele>31.0</ele><time>2026-04-26T15:33:32.44Z</time></trkpt><trkpt lat="45.5292789" lon="11.5093727"><ele>31.333333333333336</ele><time>2026-04-26T15:33:33.427Z</time></trkpt><trkpt lat="45.5290946" lon="11.5093011"><ele>31.666666666666664</ele><time>2026-04-26T15:33:34.428Z</time></trkpt><trkpt lat="45.528909" lon="11.5092213"><ele>32.0</ele><time>2026-04-26T15:33:35.428Z</time></trkpt><trkpt lat="45.5287203" lon="11.5091272"><ele>32.0</ele><time>2026-04-26T15:33:36.427Z</time></trkpt><trkpt lat="45.5285397" lon="11.5090264"><ele>32.0</ele><time>2026-04-26T15:33:37.426Z</time></trkpt><trkpt lat="45.5283805" lon="11.5089391"><ele>32.0</ele><time>2026-04-26T15:33:38.428Z</time></trkpt><trkpt lat="45.528221" lon="11.5088573"><ele>32.0</ele><time>2026-04-26T15:33:39.428Z</time></trkpt><trkpt lat="45.528062" lon="11.508791"><ele>32.0</ele><time>2026-04-26T15:33:40.428Z</time></trkpt><trkpt lat="45.5279062" lon="11.5087182"><ele>32.0</ele><time>2026-04-26T15:33:41.428Z</time></trkpt><trkpt lat="45.5277501" lon="11.5086632"><ele>31.75</ele><time>2026-04-26T15:33:42.428Z</time></trkpt><trkpt lat="45.5276053" lon="11.508602"><ele>31.5</ele><time>2026-04-26T15:33:43.427Z</time></trkpt><trkpt lat="45.5274684" lon="11.5085449"><ele>31.25</ele><time>2026-04-26T15:33:44.427Z</time></trkpt><trkpt lat="45.5273435" lon="11.5084913"><ele>31.0</ele><time>2026-04-26T15:33:45.427Z</time></trkpt><trkpt lat="45.5272191" lon="11.508448"><ele>31.0</ele><time>2026-04-26T15:33:46.427Z</time></trkpt><trkpt lat="45.5271008" lon="11.5084055"><ele>31.0</ele><time>2026-04-26T15:33:47.429Z</time></trkpt><trkpt lat="45.5269898" lon="11.5083662"><ele>31.0</ele><time>2026-04-26T15:33:48.429Z</time></trkpt><trkpt lat="45.5268863" lon="11.5083259"><ele>31.0</ele><time>2026-04-26T15:33:49.436Z</time></trkpt><trkpt lat="45.5267896" lon="11.5082927"><ele>31.0</ele><time>2026-04-26T15:33:50.426Z</time></trkpt><trkpt lat="45.5266959" lon="11.5082551"><ele>31.333333333333336</ele><time>2026-04-26T15:33:51.425Z</time></trkpt><trkpt lat="45.5266081" lon="11.5082186"><ele>31.666666666666668</ele><time>2026-04-26T15:33:52.428Z</time></trkpt><trkpt lat="45.5265255" lon="11.5081861"><ele>32.0</ele><time>2026-04-26T15:33:53.429Z</time></trkpt><trkpt lat="45.526449" lon="11.5081524"><ele>32.333333333333336</ele><time>2026-04-26T15:33:54.427Z</time></trkpt><trkpt lat="45.5263787" lon="11.5081196"><ele>32.666666666666664</ele><time>2026-04-26T15:33:55.427Z</time></trkpt><trkpt lat="45.5263116" lon="11.5080615"><ele>33.0</ele><time>2026-04-26T15:33:56.427Z</time></trkpt><trkpt lat="45.5262551" lon="11.5079808"><ele>33.166666666666664</ele><time>2026-04-26T15:33:57.429Z</time></trkpt><trkpt lat="45.5262137" lon="11.5078999"><ele>33.333333333333336</ele><time>2026-04-26T15:33:58.432Z</time></trkpt><trkpt lat="45.526181" lon="11.5077367"><ele>33.5</ele><time>2026-04-26T15:34:00.428Z</time></trkpt><trkpt lat="45.5261786" lon="11.5076448"><ele>33.66666666666667</ele><time>2026-04-26T15:34:01.43Z</time></trkpt><trkpt lat="45.526185" lon="11.5075449"><ele>33.833333333333336</ele><time>2026-04-26T15:34:02.426Z</time></trkpt><trkpt lat="45.5261898" lon="11.5074348"><ele>34.0</ele><time>2026-04-26T15:34:03.426Z</time></trkpt><trkpt lat="45.5262035" lon="11.5073068"><ele>34.0</ele><time>2026-04-26T15:34:04.427Z</time></trkpt><trkpt lat="45.5262177" lon="11.5071798"><ele>34.0</ele><time>2026-04-26T15:34:05.428Z</time></trkpt><trkpt lat="45.5262376" lon="11.5070618"><ele>34.0</ele><time>2026-04-26T15:34:06.428Z</time></trkpt><trkpt lat="45.526256" lon="11.5069442"><ele>34.0</ele><time>2026-04-26T15:34:07.427Z</time></trkpt><trkpt lat="45.5262779" lon="11.5068113"><ele>34.0</ele><time>2026-04-26T15:34:08.426Z</time></trkpt><trkpt lat="45.5262937" lon="11.5066778"><ele>34.4</ele><time>2026-04-26T15:34:09.428Z</time></trkpt><trkpt lat="45.5263125" lon="11.5065391"><ele>34.8</ele><time>2026-04-26T15:34:10.427Z</time></trkpt><trkpt lat="45.5263406" lon="11.5064003"><ele>35.2</ele><time>2026-04-26T15:34:11.435Z</time></trkpt><trkpt lat="45.5263704" lon="11.5062548"><ele>35.6</ele><time>2026-04-26T15:34:12.427Z</time></trkpt><trkpt lat="45.5264002" lon="11.5060954"><ele>36.0</ele><time>2026-04-26T15:34:13.428Z</time></trkpt><trkpt lat="45.5264323" lon="11.5059242"><ele>35.0</ele><time>2026-04-26T15:34:14.429Z</time></trkpt><trkpt lat="45.5264658" lon="11.5057439"><ele>34.0</ele><time>2026-04-26T15:34:15.428Z</time></trkpt><trkpt lat="45.5265008" lon="11.5055531"><ele>33.0</ele><time>2026-04-26T15:34:16.427Z</time></trkpt><trkpt lat="45.5265275" lon="11.505356"><ele>32.0</ele><time>2026-04-26T15:34:17.427Z</time></trkpt><trkpt lat="45.5265439" lon="11.5051581"><ele>32.0</ele><time>2026-04-26T15:34:18.427Z</time></trkpt><trkpt lat="45.526549" lon="11.504956"><ele>32.0</ele><time>2026-04-26T15:34:19.426Z</time></trkpt><trkpt lat="45.5265423" lon="11.5047577"><ele>32.0</ele><time>2026-04-26T15:34:20.425Z</time></trkpt><trkpt lat="45.5265253" lon="11.5045575"><ele>32.0</ele><time>2026-04-26T15:34:21.426Z</time></trkpt><trkpt lat="45.5265024" lon="11.5043578"><ele>32.25</ele><time>2026-04-26T15:34:22.427Z</time></trkpt><trkpt lat="45.5264746" lon="11.5041623"><ele>32.5</ele><time>2026-04-26T15:34:23.429Z</time></trkpt><trkpt lat="45.526441" lon="11.5039639"><ele>32.75</ele><time>2026-04-26T15:34:24.427Z</time></trkpt><trkpt lat="45.5264017" lon="11.5037738"><ele>33.0</ele><time>2026-04-26T15:34:25.427Z</time></trkpt><trkpt lat="45.5263537" lon="11.5035822"><ele>33.0</ele><time>2026-04-26T15:34:26.435Z</time></trkpt><trkpt lat="45.5263041" lon="11.5034016"><ele>33.0</ele><time>2026-04-26T15:34:27.427Z</time></trkpt><trkpt lat="45.5262548" lon="11.5032392"><ele>33.0</ele><time>2026-04-26T15:34:28.427Z</time></trkpt><trkpt lat="45.526217" lon="11.50309"><ele>33.0</ele><time>2026-04-26T15:34:29.427Z</time></trkpt><trkpt lat="45.5261905" lon="11.5029473"><ele>33.0</ele><time>2026-04-26T15:34:30.426Z</time></trkpt><trkpt lat="45.5261842" lon="11.5028048"><ele>33.0</ele><time>2026-04-26T15:34:31.427Z</time></trkpt><trkpt lat="45.5262039" lon="11.502682"><ele>33.0</ele><time>2026-04-26T15:34:32.429Z</time></trkpt><trkpt lat="45.5262582" lon="11.5025693"><ele>33.0</ele><time>2026-04-26T15:34:33.428Z</time></trkpt><trkpt lat="45.526349" lon="11.5024653"><ele>33.0</ele><time>2026-04-26T15:34:34.427Z</time></trkpt><trkpt lat="45.526466" lon="11.5023665"><ele>33.0</ele><time>2026-04-26T15:34:35.429Z</time></trkpt><trkpt lat="45.5265985" lon="11.502256"><ele>33.0</ele><time>2026-04-26T15:34:36.427Z</time></trkpt><trkpt lat="45.5267434" lon="11.5021355"><ele>33.0</ele><time>2026-04-26T15:34:37.428Z</time></trkpt><trkpt lat="45.5268813" lon="11.5020134"><ele>33.0</ele><time>2026-04-26T15:34:38.428Z</time></trkpt><trkpt lat="45.5270067" lon="11.5018991"><ele>33.0</ele><time>2026-04-26T15:34:39.426Z</time></trkpt><trkpt lat="45.5271182" lon="11.5017943"><ele>33.0</ele><time>2026-04-26T15:34:40.429Z</time></trkpt><trkpt lat="45.5272031" lon="11.5017107"><ele>33.0</ele><time>2026-04-26T15:34:41.425Z</time></trkpt><trkpt lat="45.5272753" lon="11.5016442"><ele>33.0</ele><time>2026-04-26T15:34:42.427Z</time></trkpt><trkpt lat="45.5273327" lon="11.5015714"><ele>33.0</ele><time>2026-04-26T15:34:43.426Z</time></trkpt><trkpt lat="45.5273599" lon="11.5014745"><ele>33.0</ele><time>2026-04-26T15:34:44.429Z</time></trkpt><trkpt lat="45.5273419" lon="11.501351"><ele>33.0</ele><time>2026-04-26T15:34:45.428Z</time></trkpt><trkpt lat="45.5272897" lon="11.5012253"><ele>33.0</ele><time>2026-04-26T15:34:46.428Z</time></trkpt><trkpt lat="45.5272104" lon="11.5010784"><ele>33.0</ele><time>2026-04-26T15:34:47.432Z</time></trkpt><trkpt lat="45.5271213" lon="11.5009164"><ele>33.0</ele><time>2026-04-26T15:34:48.428Z</time></trkpt><trkpt lat="45.5270327" lon="11.5007395"><ele>33.0</ele><time>2026-04-26T15:34:49.427Z</time></trkpt><trkpt lat="45.5269333" lon="11.5005502"><ele>32.666666666666664</ele><time>2026-04-26T15:34:50.428Z</time></trkpt><trkpt lat="45.5268268" lon="11.5003561"><ele>32.33333333333333</ele><time>2026-04-26T15:34:51.427Z</time></trkpt><trkpt lat="45.5267228" lon="11.5001556"><ele>32.0</ele><time>2026-04-26T15:34:52.427Z</time></trkpt><trkpt lat="45.5266269" lon="11.4999493"><ele>32.0</ele><time>2026-04-26T15:34:53.429Z</time></trkpt><trkpt lat="45.5265259" lon="11.499747"><ele>32.0</ele><time>2026-04-26T15:34:54.428Z</time></trkpt><trkpt lat="45.5264258" lon="11.499543"><ele>32.0</ele><time>2026-04-26T15:34:55.427Z</time></trkpt><trkpt lat="45.5263273" lon="11.4993436"><ele>32.666666666666664</ele><time>2026-04-26T15:34:56.427Z</time></trkpt><trkpt lat="45.5262329" lon="11.499163"><ele>33.333333333333336</ele><time>2026-04-26T15:34:57.429Z</time></trkpt><trkpt lat="45.5261425" lon="11.4989881"><ele>34.0</ele><time>2026-04-26T15:34:58.428Z</time></trkpt><trkpt lat="45.5260674" lon="11.4988201"><ele>33.75</ele><time>2026-04-26T15:34:59.428Z</time></trkpt><trkpt lat="45.5259851" lon="11.4986776"><ele>33.5</ele><time>2026-04-26T15:35:00.428Z</time></trkpt><trkpt lat="45.5259167" lon="11.4985224"><ele>33.25</ele><time>2026-04-26T15:35:01.428Z</time></trkpt><trkpt lat="45.5258382" lon="11.4984169"><ele>33.0</ele><time>2026-04-26T15:35:02.428Z</time></trkpt><trkpt lat="45.5257437" lon="11.4983553"><ele>33.0</ele><time>2026-04-26T15:35:03.436Z</time></trkpt><trkpt lat="45.5256303" lon="11.498376"><ele>33.0</ele><time>2026-04-26T15:35:04.428Z</time></trkpt><trkpt lat="45.5255253" lon="11.4984163"><ele>33.0</ele><time>2026-04-26T15:35:05.426Z</time></trkpt><trkpt lat="45.5254205" lon="11.4984877"><ele>33.0</ele><time>2026-04-26T15:35:06.427Z</time></trkpt><trkpt lat="45.5253257" lon="11.4985555"><ele>33.0</ele><time>2026-04-26T15:35:07.426Z</time></trkpt><trkpt lat="45.5252332" lon="11.4986253"><ele>33.4</ele><time>2026-04-26T15:35:08.426Z</time></trkpt><trkpt lat="45.5251364" lon="11.4987018"><ele>33.8</ele><time>2026-04-26T15:35:09.431Z</time></trkpt><trkpt lat="45.5250498" lon="11.4987709"><ele>34.2</ele><time>2026-04-26T15:35:10.429Z</time></trkpt><trkpt lat="45.5249629" lon="11.4988407"><ele>34.6</ele><time>2026-04-26T15:35:11.426Z</time></trkpt><trkpt lat="45.5248825" lon="11.498903"><ele>35.0</ele><time>2026-04-26T15:35:12.426Z</time></trkpt><trkpt lat="45.5248099" lon="11.498953"><ele>35.0</ele><time>2026-04-26T15:35:13.427Z</time></trkpt><trkpt lat="45.5247394" lon="11.4989823"><ele>35.0</ele><time>2026-04-26T15:35:14.429Z</time></trkpt><trkpt lat="45.5246681" lon="11.4989642"><ele>35.0</ele><time>2026-04-26T15:35:15.428Z</time></trkpt><trkpt lat="45.5246056" lon="11.4989001"><ele>35.0</ele><time>2026-04-26T15:35:16.426Z</time></trkpt><trkpt lat="45.5245388" lon="11.4987977"><ele>35.0</ele><time>2026-04-26T15:35:17.427Z</time></trkpt><trkpt lat="45.5244717" lon="11.4986485"><ele>35.0</ele><time>2026-04-26T15:35:18.429Z</time></trkpt><trkpt lat="45.5243984" lon="11.498473"><ele>34.666666666666664</ele><time>2026-04-26T15:35:19.433Z</time></trkpt><trkpt lat="45.524323" lon="11.4982806"><ele>34.333333333333336</ele><time>2026-04-26T15:35:20.429Z</time></trkpt><trkpt lat="45.5242431" lon="11.4980734"><ele>34.0</ele><time>2026-04-26T15:35:21.427Z</time></trkpt><trkpt lat="45.5241629" lon="11.4978573"><ele>34.0</ele><time>2026-04-26T15:35:22.426Z</time></trkpt><trkpt lat="45.5240808" lon="11.4976386"><ele>34.0</ele><time>2026-04-26T15:35:23.427Z</time></trkpt><trkpt lat="45.5239934" lon="11.4974094"><ele>34.0</ele><time>2026-04-26T15:35:24.428Z</time></trkpt><trkpt lat="45.5239056" lon="11.4971724"><ele>34.333333333333336</ele><time>2026-04-26T15:35:25.428Z</time></trkpt><trkpt lat="45.5238177" lon="11.4969368"><ele>34.666666666666664</ele><time>2026-04-26T15:35:26.43Z</time></trkpt><trkpt lat="45.5237284" lon="11.4967039"><ele>35.0</ele><time>2026-04-26T15:35:27.427Z</time></trkpt><trkpt lat="45.52364" lon="11.4964734"><ele>34.0</ele><time>2026-04-26T15:35:28.426Z</time></trkpt><trkpt lat="45.5235591" lon="11.4962365"><ele>33.0</ele><time>2026-04-26T15:35:29.428Z</time></trkpt><trkpt lat="45.5234757" lon="11.4959849"><ele>32.0</ele><time>2026-04-26T15:35:30.426Z</time></trkpt><trkpt lat="45.5233838" lon="11.4957719"><ele>32.0</ele><time>2026-04-26T15:35:31.427Z</time></trkpt><trkpt lat="45.5232951" lon="11.4955554"><ele>32.0</ele><time>2026-04-26T15:35:32.428Z</time></trkpt><trkpt lat="45.5232054" lon="11.4953289"><ele>32.0</ele><time>2026-04-26T15:35:33.426Z</time></trkpt><trkpt lat="45.5231191" lon="11.4951066"><ele>32.33333333333333</ele><time>2026-04-26T15:35:34.426Z</time></trkpt><trkpt lat="45.5230311" lon="11.4948916"><ele>32.666666666666664</ele><time>2026-04-26T15:35:35.429Z</time></trkpt><trkpt lat="45.5229453" lon="11.4946717"><ele>33.0</ele><time>2026-04-26T15:35:36.428Z</time></trkpt><trkpt lat="45.522864" lon="11.4944437"><ele>32.0</ele><time>2026-04-26T15:35:37.427Z</time></trkpt><trkpt lat="45.5227777" lon="11.4942157"><ele>31.0</ele><time>2026-04-26T15:35:38.428Z</time></trkpt><trkpt lat="45.5226965" lon="11.4939807"><ele>30.0</ele><time>2026-04-26T15:35:39.428Z</time></trkpt><trkpt lat="45.5226124" lon="11.4937435"><ele>30.0</ele><time>2026-04-26T15:35:40.427Z</time></trkpt><trkpt lat="45.5225362" lon="11.4935056"><ele>30.0</ele><time>2026-04-26T15:35:41.428Z</time></trkpt><trkpt lat="45.5224701" lon="11.4932663"><ele>30.0</ele><time>2026-04-26T15:35:42.426Z</time></trkpt><trkpt lat="45.5224075" lon="11.4930377"><ele>30.0</ele><time>2026-04-26T15:35:43.429Z</time></trkpt><trkpt lat="45.5223562" lon="11.4928186"><ele>30.0</ele><time>2026-04-26T15:35:44.428Z</time></trkpt><trkpt lat="45.5223109" lon="11.4926014"><ele>30.0</ele><time>2026-04-26T15:35:45.427Z</time></trkpt><trkpt lat="45.5222675" lon="11.4923852"><ele>30.0</ele><time>2026-04-26T15:35:46.427Z</time></trkpt><trkpt lat="45.5222292" lon="11.492159"><ele>30.0</ele><time>2026-04-26T15:35:47.427Z</time></trkpt><trkpt lat="45.5221965" lon="11.4919351"><ele>30.0</ele><time>2026-04-26T15:35:48.428Z</time></trkpt><trkpt lat="45.5221689" lon="11.4917191"><ele>30.25</ele><time>2026-04-26T15:35:49.429Z</time></trkpt><trkpt lat="45.5221436" lon="11.4915127"><ele>30.5</ele><time>2026-04-26T15:35:50.428Z</time></trkpt><trkpt lat="45.5221168" lon="11.4913118"><ele>30.75</ele><time>2026-04-26T15:35:51.427Z</time></trkpt><trkpt lat="45.5220939" lon="11.491125"><ele>31.0</ele><time>2026-04-26T15:35:52.428Z</time></trkpt><trkpt lat="45.5220722" lon="11.490952"><ele>31.4</ele><time>2026-04-26T15:35:53.427Z</time></trkpt><trkpt lat="45.5220538" lon="11.4907918"><ele>31.8</ele><time>2026-04-26T15:35:54.427Z</time></trkpt><trkpt lat="45.5220424" lon="11.4906479"><ele>32.199999999999996</ele><time>2026-04-26T15:35:55.427Z</time></trkpt><trkpt lat="45.52204" lon="11.4905089"><ele>32.6</ele><time>2026-04-26T15:35:56.429Z</time></trkpt><trkpt lat="45.5220505" lon="11.4903735"><ele>33.0</ele><time>2026-04-26T15:35:57.426Z</time></trkpt><trkpt lat="45.5220751" lon="11.4902454"><ele>33.199999999999996</ele><time>2026-04-26T15:35:58.427Z</time></trkpt><trkpt lat="45.5221075" lon="11.4901098"><ele>33.4</ele><time>2026-04-26T15:35:59.429Z</time></trkpt><trkpt lat="45.5221424" lon="11.4899705"><ele>33.599999999999994</ele><time>2026-04-26T15:36:00.429Z</time></trkpt><trkpt lat="45.5221581" lon="11.4898176"><ele>33.8</ele><time>2026-04-26T15:36:01.427Z</time></trkpt><trkpt lat="45.5221418" lon="11.4896547"><ele>34.0</ele><time>2026-04-26T15:36:02.426Z</time></trkpt><trkpt lat="45.5220971" lon="11.4894847"><ele>34.0</ele><time>2026-04-26T15:36:03.432Z</time></trkpt><trkpt lat="45.5220427" lon="11.489312"><ele>34.0</ele><time>2026-04-26T15:36:04.427Z</time></trkpt><trkpt lat="45.5219878" lon="11.4891436"><ele>34.0</ele><time>2026-04-26T15:36:05.431Z</time></trkpt><trkpt lat="45.5219372" lon="11.488992"><ele>34.0</ele><time>2026-04-26T15:36:06.428Z</time></trkpt><trkpt lat="45.5218882" lon="11.4888383"><ele>34.0</ele><time>2026-04-26T15:36:07.43Z</time></trkpt><trkpt lat="45.5218396" lon="11.4886771"><ele>34.0</ele><time>2026-04-26T15:36:08.428Z</time></trkpt><trkpt lat="45.5217928" lon="11.4885133"><ele>34.0</ele><time>2026-04-26T15:36:09.427Z</time></trkpt><trkpt lat="45.5217571" lon="11.4883431"><ele>34.0</ele><time>2026-04-26T15:36:10.426Z</time></trkpt><trkpt lat="45.5217198" lon="11.4881519"><ele>34.0</ele><time>2026-04-26T15:36:11.428Z</time></trkpt><trkpt lat="45.5216847" lon="11.4879468"><ele>34.0</ele><time>2026-04-26T15:36:12.427Z</time></trkpt><trkpt lat="45.5216415" lon="11.4877311"><ele>34.0</ele><time>2026-04-26T15:36:13.427Z</time></trkpt><trkpt lat="45.521589" lon="11.4875001"><ele>34.0</ele><time>2026-04-26T15:36:14.428Z</time></trkpt><trkpt lat="45.5215335" lon="11.4872729"><ele>34.0</ele><time>2026-04-26T15:36:15.427Z</time></trkpt><trkpt lat="45.5214622" lon="11.4870431"><ele>34.0</ele><time>2026-04-26T15:36:16.428Z</time></trkpt><trkpt lat="45.5213907" lon="11.4868091"><ele>34.0</ele><time>2026-04-26T15:36:17.426Z</time></trkpt><trkpt lat="45.521316" lon="11.4865632"><ele>34.0</ele><time>2026-04-26T15:36:18.426Z</time></trkpt><trkpt lat="45.5212442" lon="11.4863146"><ele>34.0</ele><time>2026-04-26T15:36:19.427Z</time></trkpt><trkpt lat="45.5211705" lon="11.4860614"><ele>34.333333333333336</ele><time>2026-04-26T15:36:20.427Z</time></trkpt><trkpt lat="45.521095" lon="11.4858036"><ele>34.666666666666664</ele><time>2026-04-26T15:36:21.43Z</time></trkpt><trkpt lat="45.5210149" lon="11.4855375"><ele>35.0</ele><time>2026-04-26T15:36:22.429Z</time></trkpt><trkpt lat="45.5209327" lon="11.4852661"><ele>35.0</ele><time>2026-04-26T15:36:23.432Z</time></trkpt><trkpt lat="45.5208531" lon="11.4849853"><ele>35.0</ele><time>2026-04-26T15:36:24.426Z</time></trkpt><trkpt lat="45.5207682" lon="11.4847055"><ele>35.0</ele><time>2026-04-26T15:36:25.428Z</time></trkpt><trkpt lat="45.5206822" lon="11.4844187"><ele>35.0</ele><time>2026-04-26T15:36:26.427Z</time></trkpt><trkpt lat="45.5205949" lon="11.4841278"><ele>35.0</ele><time>2026-04-26T15:36:27.427Z</time></trkpt><trkpt lat="45.5205115" lon="11.4838338"><ele>35.0</ele><time>2026-04-26T15:36:28.427Z</time></trkpt><trkpt lat="45.5204269" lon="11.4835374"><ele>33.0</ele><time>2026-04-26T15:36:29.428Z</time></trkpt><trkpt lat="45.520343" lon="11.4832358"><ele>31.0</ele><time>2026-04-26T15:36:30.427Z</time></trkpt><trkpt lat="45.5202566" lon="11.4829311"><ele>33.0</ele><time>2026-04-26T15:36:31.428Z</time></trkpt><trkpt lat="45.5201707" lon="11.482624"><ele>35.0</ele><time>2026-04-26T15:36:32.428Z</time></trkpt><trkpt lat="45.5200842" lon="11.4823118"><ele>35.5</ele><time>2026-04-26T15:36:33.431Z</time></trkpt><trkpt lat="45.5199971" lon="11.4820008"><ele>36.0</ele><time>2026-04-26T15:36:34.428Z</time></trkpt><trkpt lat="45.5199053" lon="11.4816876"><ele>36.0</ele><time>2026-04-26T15:36:35.426Z</time></trkpt><trkpt lat="45.5198141" lon="11.4813804"><ele>36.0</ele><time>2026-04-26T15:36:36.428Z</time></trkpt><trkpt lat="45.5197221" lon="11.4810696"><ele>36.0</ele><time>2026-04-26T15:36:37.427Z</time></trkpt><trkpt lat="45.5196318" lon="11.4807561"><ele>36.0</ele><time>2026-04-26T15:36:38.427Z</time></trkpt><trkpt lat="45.5195368" lon="11.4804506"><ele>35.0</ele><time>2026-04-26T15:36:39.436Z</time></trkpt><trkpt lat="45.5194462" lon="11.4801422"><ele>34.0</ele><time>2026-04-26T15:36:40.427Z</time></trkpt><trkpt lat="45.5193547" lon="11.4798337"><ele>34.0</ele><time>2026-04-26T15:36:41.427Z</time></trkpt><trkpt lat="45.5192601" lon="11.4795257"><ele>34.0</ele><time>2026-04-26T15:36:42.428Z</time></trkpt><trkpt lat="45.5191707" lon="11.4792135"><ele>34.0</ele><time>2026-04-26T15:36:43.428Z</time></trkpt><trkpt lat="45.5190804" lon="11.4789055"><ele>34.0</ele><time>2026-04-26T15:36:44.428Z</time></trkpt><trkpt lat="45.5189915" lon="11.4785961"><ele>33.5</ele><time>2026-04-26T15:36:45.429Z</time></trkpt><trkpt lat="45.5189017" lon="11.4782824"><ele>33.0</ele><time>2026-04-26T15:36:46.426Z</time></trkpt><trkpt lat="45.5188131" lon="11.4779663"><ele>34.0</ele><time>2026-04-26T15:36:47.426Z</time></trkpt><trkpt lat="45.5187194" lon="11.4776544"><ele>35.0</ele><time>2026-04-26T15:36:48.428Z</time></trkpt><trkpt lat="45.5186225" lon="11.477338"><ele>35.0</ele><time>2026-04-26T15:36:49.427Z</time></trkpt><trkpt lat="45.5185278" lon="11.4770201"><ele>35.0</ele><time>2026-04-26T15:36:50.427Z</time></trkpt><trkpt lat="45.5184353" lon="11.4767084"><ele>35.0</ele><time>2026-04-26T15:36:51.429Z</time></trkpt><trkpt lat="45.5183425" lon="11.4763936"><ele>35.0</ele><time>2026-04-26T15:36:52.427Z</time></trkpt><trkpt lat="45.5182506" lon="11.4760776"><ele>36.0</ele><time>2026-04-26T15:36:53.427Z</time></trkpt><trkpt lat="45.5181548" lon="11.4757684"><ele>37.0</ele><time>2026-04-26T15:36:54.429Z</time></trkpt><trkpt lat="45.518065" lon="11.4754594"><ele>37.0</ele><time>2026-04-26T15:36:55.427Z</time></trkpt><trkpt lat="45.5179699" lon="11.4751503"><ele>37.0</ele><time>2026-04-26T15:36:56.427Z</time></trkpt><trkpt lat="45.51788" lon="11.4748379"><ele>38.0</ele><time>2026-04-26T15:36:57.427Z</time></trkpt><trkpt lat="45.5177866" lon="11.4745283"><ele>39.0</ele><time>2026-04-26T15:36:58.428Z</time></trkpt><trkpt lat="45.5176971" lon="11.4742137"><ele>39.0</ele><time>2026-04-26T15:36:59.428Z</time></trkpt><trkpt lat="45.5176071" lon="11.4739032"><ele>39.0</ele><time>2026-04-26T15:37:00.427Z</time></trkpt><trkpt lat="45.5175148" lon="11.4735932"><ele>39.0</ele><time>2026-04-26T15:37:01.427Z</time></trkpt><trkpt lat="45.5174221" lon="11.4732862"><ele>39.0</ele><time>2026-04-26T15:37:02.427Z</time></trkpt><trkpt lat="45.5173312" lon="11.4729788"><ele>37.5</ele><time>2026-04-26T15:37:03.427Z</time></trkpt><trkpt lat="45.5172377" lon="11.4726656"><ele>36.0</ele><time>2026-04-26T15:37:04.428Z</time></trkpt><trkpt lat="45.5171463" lon="11.4723539"><ele>38.5</ele><time>2026-04-26T15:37:05.428Z</time></trkpt><trkpt lat="45.5170552" lon="11.4720449"><ele>41.0</ele><time>2026-04-26T15:37:06.428Z</time></trkpt><trkpt lat="45.5169616" lon="11.4717365"><ele>41.0</ele><time>2026-04-26T15:37:07.427Z</time></trkpt><trkpt lat="45.5168698" lon="11.471431"><ele>41.0</ele><time>2026-04-26T15:37:08.427Z</time></trkpt><trkpt lat="45.5167772" lon="11.4711243"><ele>41.0</ele><time>2026-04-26T15:37:09.428Z</time></trkpt><trkpt lat="45.5166869" lon="11.4708143"><ele>41.0</ele><time>2026-04-26T15:37:10.427Z</time></trkpt><trkpt lat="45.5165975" lon="11.4704993"><ele>42.0</ele><time>2026-04-26T15:37:11.427Z</time></trkpt><trkpt lat="45.5165105" lon="11.470182"><ele>43.0</ele><time>2026-04-26T15:37:12.427Z</time></trkpt><trkpt lat="45.5164193" lon="11.4698658"><ele>42.5</ele><time>2026-04-26T15:37:13.428Z</time></trkpt><trkpt lat="45.5163277" lon="11.4695569"><ele>42.0</ele><time>2026-04-26T15:37:14.429Z</time></trkpt><trkpt lat="45.5162357" lon="11.4692491"><ele>43.0</ele><time>2026-04-26T15:37:15.427Z</time></trkpt><trkpt lat="45.5161442" lon="11.468943"><ele>44.0</ele><time>2026-04-26T15:37:16.427Z</time></trkpt><trkpt lat="45.5160546" lon="11.4686279"><ele>44.0</ele><time>2026-04-26T15:37:17.427Z</time></trkpt><trkpt lat="45.5159626" lon="11.4683222"><ele>44.0</ele><time>2026-04-26T15:37:18.427Z</time></trkpt><trkpt lat="45.5158729" lon="11.4680088"><ele>43.5</ele><time>2026-04-26T15:37:19.426Z</time></trkpt><trkpt lat="45.5157826" lon="11.4676956"><ele>43.0</ele><time>2026-04-26T15:37:20.426Z</time></trkpt><trkpt lat="45.5156892" lon="11.4673733"><ele>42.0</ele><time>2026-04-26T15:37:21.428Z</time></trkpt><trkpt lat="45.5155952" lon="11.4670638"><ele>41.0</ele><time>2026-04-26T15:37:22.426Z</time></trkpt><trkpt lat="45.5155011" lon="11.4667496"><ele>41.0</ele><time>2026-04-26T15:37:23.427Z</time></trkpt><trkpt lat="45.5154082" lon="11.4664371"><ele>41.0</ele><time>2026-04-26T15:37:24.431Z</time></trkpt><trkpt lat="45.5153152" lon="11.4661216"><ele>40.5</ele><time>2026-04-26T15:37:25.428Z</time></trkpt><trkpt lat="45.5152227" lon="11.4658104"><ele>40.0</ele><time>2026-04-26T15:37:26.427Z</time></trkpt><trkpt lat="45.515132" lon="11.4654946"><ele>40.0</ele><time>2026-04-26T15:37:27.429Z</time></trkpt><trkpt lat="45.5150413" lon="11.4651803"><ele>40.0</ele><time>2026-04-26T15:37:28.427Z</time></trkpt><trkpt lat="45.5149511" lon="11.4648678"><ele>40.0</ele><time>2026-04-26T15:37:29.427Z</time></trkpt><trkpt lat="45.5148593" lon="11.4645564"><ele>40.0</ele><time>2026-04-26T15:37:30.427Z</time></trkpt><trkpt lat="45.5147667" lon="11.4642384"><ele>40.0</ele><time>2026-04-26T15:37:31.427Z</time></trkpt><trkpt lat="45.5146735" lon="11.4639238"><ele>40.0</ele><time>2026-04-26T15:37:32.429Z</time></trkpt><trkpt lat="45.514583" lon="11.4636119"><ele>40.333333333333336</ele><time>2026-04-26T15:37:33.43Z</time></trkpt><trkpt lat="45.5144967" lon="11.4633056"><ele>40.666666666666664</ele><time>2026-04-26T15:37:34.427Z</time></trkpt><trkpt lat="45.5144135" lon="11.4630208"><ele>41.0</ele><time>2026-04-26T15:37:35.426Z</time></trkpt><trkpt lat="45.514333" lon="11.4627452"><ele>41.33333333333333</ele><time>2026-04-26T15:37:36.428Z</time></trkpt><trkpt lat="45.514253" lon="11.4624725"><ele>41.666666666666664</ele><time>2026-04-26T15:37:37.427Z</time></trkpt><trkpt lat="45.5141716" lon="11.4621974"><ele>42.0</ele><time>2026-04-26T15:37:38.427Z</time></trkpt><trkpt lat="45.5140891" lon="11.461932"><ele>42.333333333333336</ele><time>2026-04-26T15:37:39.428Z</time></trkpt><trkpt lat="45.5140138" lon="11.4616769"><ele>42.66666666666667</ele><time>2026-04-26T15:37:40.427Z</time></trkpt><trkpt lat="45.5139449" lon="11.4614385"><ele>43.0</ele><time>2026-04-26T15:37:41.428Z</time></trkpt><trkpt lat="45.5138743" lon="11.4611988"><ele>43.333333333333336</ele><time>2026-04-26T15:37:42.427Z</time></trkpt><trkpt lat="45.5138026" lon="11.4609591"><ele>43.666666666666664</ele><time>2026-04-26T15:37:43.43Z</time></trkpt><trkpt lat="45.5137314" lon="11.460728"><ele>44.0</ele><time>2026-04-26T15:37:44.425Z</time></trkpt><trkpt lat="45.5136637" lon="11.4604943"><ele>44.0</ele><time>2026-04-26T15:37:45.429Z</time></trkpt><trkpt lat="45.5135954" lon="11.4602659"><ele>44.0</ele><time>2026-04-26T15:37:46.426Z</time></trkpt><trkpt lat="45.5135267" lon="11.4600328"><ele>44.0</ele><time>2026-04-26T15:37:47.426Z</time></trkpt><trkpt lat="45.5134584" lon="11.4597962"><ele>44.666666666666664</ele><time>2026-04-26T15:37:48.426Z</time></trkpt><trkpt lat="45.5133885" lon="11.4595552"><ele>45.333333333333336</ele><time>2026-04-26T15:37:49.426Z</time></trkpt><trkpt lat="45.5133246" lon="11.4593192"><ele>46.0</ele><time>2026-04-26T15:37:50.425Z</time></trkpt><trkpt lat="45.5132586" lon="11.4590966"><ele>46.0</ele><time>2026-04-26T15:37:51.428Z</time></trkpt><trkpt lat="45.5131972" lon="11.4588906"><ele>46.0</ele><time>2026-04-26T15:37:52.428Z</time></trkpt><trkpt lat="45.5131449" lon="11.4586974"><ele>46.0</ele><time>2026-04-26T15:37:53.425Z</time></trkpt><trkpt lat="45.5130948" lon="11.4585178"><ele>46.0</ele><time>2026-04-26T15:37:54.426Z</time></trkpt><trkpt lat="45.5130529" lon="11.4583629"><ele>45.833333333333336</ele><time>2026-04-26T15:37:55.426Z</time></trkpt><trkpt lat="45.5130161" lon="11.4582352"><ele>45.66666666666667</ele><time>2026-04-26T15:37:56.427Z</time></trkpt><trkpt lat="45.5129845" lon="11.4581306"><ele>45.5</ele><time>2026-04-26T15:37:57.426Z</time></trkpt><trkpt lat="45.5129492" lon="11.45804"><ele>45.333333333333336</ele><time>2026-04-26T15:37:58.427Z</time></trkpt><trkpt lat="45.5129076" lon="11.4579578"><ele>45.166666666666664</ele><time>2026-04-26T15:37:59.425Z</time></trkpt><trkpt lat="45.5128722" lon="11.4578828"><ele>45.0</ele><time>2026-04-26T15:38:00.426Z</time></trkpt><trkpt lat="45.5128397" lon="11.4577982"><ele>45.0</ele><time>2026-04-26T15:38:01.425Z</time></trkpt><trkpt lat="45.5128053" lon="11.4576991"><ele>45.0</ele><time>2026-04-26T15:38:02.427Z</time></trkpt><trkpt lat="45.5127646" lon="11.4575786"><ele>45.0</ele><time>2026-04-26T15:38:03.428Z</time></trkpt><trkpt lat="45.5127208" lon="11.4574514"><ele>45.0</ele><time>2026-04-26T15:38:04.425Z</time></trkpt><trkpt lat="45.5126691" lon="11.4573139"><ele>45.0</ele><time>2026-04-26T15:38:05.426Z</time></trkpt><trkpt lat="45.5126152" lon="11.4571618"><ele>45.25</ele><time>2026-04-26T15:38:06.428Z</time></trkpt><trkpt lat="45.5125634" lon="11.457001"><ele>45.5</ele><time>2026-04-26T15:38:07.431Z</time></trkpt><trkpt lat="45.5125085" lon="11.4568382"><ele>45.75</ele><time>2026-04-26T15:38:08.426Z</time></trkpt><trkpt lat="45.5124469" lon="11.4566698"><ele>46.0</ele><time>2026-04-26T15:38:09.428Z</time></trkpt><trkpt lat="45.5123775" lon="11.4565066"><ele>46.0</ele><time>2026-04-26T15:38:10.425Z</time></trkpt><trkpt lat="45.5122972" lon="11.4563451"><ele>46.0</ele><time>2026-04-26T15:38:11.426Z</time></trkpt><trkpt lat="45.5122114" lon="11.4561855"><ele>46.0</ele><time>2026-04-26T15:38:12.426Z</time></trkpt><trkpt lat="45.5121316" lon="11.4560251"><ele>46.0</ele><time>2026-04-26T15:38:13.427Z</time></trkpt><trkpt lat="45.5120505" lon="11.4558672"><ele>45.75</ele><time>2026-04-26T15:38:14.425Z</time></trkpt><trkpt lat="45.5119642" lon="11.4557039"><ele>45.5</ele><time>2026-04-26T15:38:15.426Z</time></trkpt><trkpt lat="45.5118832" lon="11.455541"><ele>45.25</ele><time>2026-04-26T15:38:16.428Z</time></trkpt><trkpt lat="45.511789" lon="11.4553918"><ele>45.0</ele><time>2026-04-26T15:38:17.435Z</time></trkpt><trkpt lat="45.5116931" lon="11.4552457"><ele>45.0</ele><time>2026-04-26T15:38:18.427Z</time></trkpt><trkpt lat="45.5115936" lon="11.455098"><ele>45.0</ele><time>2026-04-26T15:38:19.425Z</time></trkpt><trkpt lat="45.5114859" lon="11.454952"><ele>45.0</ele><time>2026-04-26T15:38:20.424Z</time></trkpt><trkpt lat="45.5113815" lon="11.454801"><ele>45.0</ele><time>2026-04-26T15:38:21.427Z</time></trkpt><trkpt lat="45.5112773" lon="11.4546497"><ele>45.333333333333336</ele><time>2026-04-26T15:38:22.427Z</time></trkpt><trkpt lat="45.5111726" lon="11.4544862"><ele>45.66666666666667</ele><time>2026-04-26T15:38:23.427Z</time></trkpt><trkpt lat="45.5110692" lon="11.4543196"><ele>46.0</ele><time>2026-04-26T15:38:24.425Z</time></trkpt><trkpt lat="45.5109671" lon="11.4541675"><ele>46.0</ele><time>2026-04-26T15:38:25.426Z</time></trkpt><trkpt lat="45.5108676" lon="11.454015"><ele>46.0</ele><time>2026-04-26T15:38:26.427Z</time></trkpt><trkpt lat="45.5107705" lon="11.453867"><ele>46.0</ele><time>2026-04-26T15:38:27.424Z</time></trkpt><trkpt lat="45.5106667" lon="11.4537131"><ele>46.0</ele><time>2026-04-26T15:38:28.425Z</time></trkpt><trkpt lat="45.5105655" lon="11.4535673"><ele>46.0</ele><time>2026-04-26T15:38:29.426Z</time></trkpt><trkpt lat="45.5104593" lon="11.4534208"><ele>46.0</ele><time>2026-04-26T15:38:30.429Z</time></trkpt><trkpt lat="45.5103487" lon="11.4532863"><ele>46.0</ele><time>2026-04-26T15:38:31.438Z</time></trkpt><trkpt lat="45.510236" lon="11.4531528"><ele>46.0</ele><time>2026-04-26T15:38:32.432Z</time></trkpt><trkpt lat="45.510126" lon="11.4530258"><ele>46.0</ele><time>2026-04-26T15:38:33.426Z</time></trkpt><trkpt lat="45.5100199" lon="11.4529035"><ele>46.0</ele><time>2026-04-26T15:38:34.424Z</time></trkpt><trkpt lat="45.509912" lon="11.4527957"><ele>46.0</ele><time>2026-04-26T15:38:35.425Z</time></trkpt><trkpt lat="45.5097989" lon="11.4526975"><ele>46.0</ele><time>2026-04-26T15:38:36.425Z</time></trkpt><trkpt lat="45.5096786" lon="11.4526042"><ele>45.75</ele><time>2026-04-26T15:38:37.428Z</time></trkpt><trkpt lat="45.5095657" lon="11.4525138"><ele>45.5</ele><time>2026-04-26T15:38:38.425Z</time></trkpt><trkpt lat="45.5094496" lon="11.452428"><ele>45.25</ele><time>2026-04-26T15:38:39.425Z</time></trkpt><trkpt lat="45.5093363" lon="11.4523324"><ele>45.0</ele><time>2026-04-26T15:38:40.427Z</time></trkpt><trkpt lat="45.509228" lon="11.4522385"><ele>45.0</ele><time>2026-04-26T15:38:41.424Z</time></trkpt><trkpt lat="45.5091282" lon="11.452146"><ele>45.0</ele><time>2026-04-26T15:38:42.426Z</time></trkpt><trkpt lat="45.5090349" lon="11.4520529"><ele>45.0</ele><time>2026-04-26T15:38:43.426Z</time></trkpt><trkpt lat="45.5089459" lon="11.4519509"><ele>45.0</ele><time>2026-04-26T15:38:44.427Z</time></trkpt><trkpt lat="45.5088563" lon="11.4518498"><ele>45.0</ele><time>2026-04-26T15:38:45.426Z</time></trkpt><trkpt lat="45.5087639" lon="11.4517536"><ele>45.0</ele><time>2026-04-26T15:38:46.426Z</time></trkpt><trkpt lat="45.5086607" lon="11.451661"><ele>45.0</ele><time>2026-04-26T15:38:47.426Z</time></trkpt><trkpt lat="45.5085548" lon="11.4515738"><ele>45.0</ele><time>2026-04-26T15:38:48.425Z</time></trkpt><trkpt lat="45.5084458" lon="11.4514906"><ele>45.0</ele><time>2026-04-26T15:38:49.425Z</time></trkpt><trkpt lat="45.508335" lon="11.4514095"><ele>45.0</ele><time>2026-04-26T15:38:50.431Z</time></trkpt><trkpt lat="45.508225" lon="11.4513273"><ele>45.0</ele><time>2026-04-26T15:38:51.427Z</time></trkpt><trkpt lat="45.5081136" lon="11.4512406"><ele>45.0</ele><time>2026-04-26T15:38:52.428Z</time></trkpt><trkpt lat="45.5080031" lon="11.4511466"><ele>45.5</ele><time>2026-04-26T15:38:53.426Z</time></trkpt><trkpt lat="45.5078868" lon="11.451059"><ele>46.0</ele><time>2026-04-26T15:38:54.426Z</time></trkpt><trkpt lat="45.5077641" lon="11.4509722"><ele>46.5</ele><time>2026-04-26T15:38:55.427Z</time></trkpt><trkpt lat="45.5076415" lon="11.4508785"><ele>47.0</ele><time>2026-04-26T15:38:56.428Z</time></trkpt><trkpt lat="45.5075141" lon="11.4507822"><ele>47.0</ele><time>2026-04-26T15:38:57.426Z</time></trkpt><trkpt lat="45.5073732" lon="11.4506832"><ele>47.0</ele><time>2026-04-26T15:38:58.43Z</time></trkpt><trkpt lat="45.5072223" lon="11.4505782"><ele>47.0</ele><time>2026-04-26T15:38:59.428Z</time></trkpt><trkpt lat="45.5070577" lon="11.4504672"><ele>47.666666666666664</ele><time>2026-04-26T15:39:00.425Z</time></trkpt><trkpt lat="45.5068852" lon="11.4503475"><ele>48.33333333333333</ele><time>2026-04-26T15:39:01.425Z</time></trkpt><trkpt lat="45.5067165" lon="11.4502134"><ele>49.0</ele><time>2026-04-26T15:39:02.424Z</time></trkpt><trkpt lat="45.5065421" lon="11.4500809"><ele>49.0</ele><time>2026-04-26T15:39:03.427Z</time></trkpt><trkpt lat="45.5063638" lon="11.4499441"><ele>49.0</ele><time>2026-04-26T15:39:04.426Z</time></trkpt><trkpt lat="45.5061798" lon="11.4498057"><ele>49.0</ele><time>2026-04-26T15:39:05.426Z</time></trkpt><trkpt lat="45.5059822" lon="11.4496653"><ele>49.0</ele><time>2026-04-26T15:39:06.426Z</time></trkpt><trkpt lat="45.5057829" lon="11.4495214"><ele>49.0</ele><time>2026-04-26T15:39:07.424Z</time></trkpt><trkpt lat="45.505598" lon="11.4493729"><ele>49.0</ele><time>2026-04-26T15:39:08.428Z</time></trkpt><trkpt lat="45.505417" lon="11.4492259"><ele>49.33333333333333</ele><time>2026-04-26T15:39:09.425Z</time></trkpt><trkpt lat="45.505238" lon="11.4490818"><ele>49.66666666666667</ele><time>2026-04-26T15:39:10.426Z</time></trkpt><trkpt lat="45.5050623" lon="11.4489451"><ele>50.0</ele><time>2026-04-26T15:39:11.433Z</time></trkpt><trkpt lat="45.5048896" lon="11.4488108"><ele>50.333333333333336</ele><time>2026-04-26T15:39:12.424Z</time></trkpt><trkpt lat="45.5047186" lon="11.4486757"><ele>50.66666666666667</ele><time>2026-04-26T15:39:13.427Z</time></trkpt><trkpt lat="45.504552" lon="11.4485489"><ele>51.0</ele><time>2026-04-26T15:39:14.428Z</time></trkpt><trkpt lat="45.5043859" lon="11.4484211"><ele>51.0</ele><time>2026-04-26T15:39:15.425Z</time></trkpt><trkpt lat="45.5042172" lon="11.4482985"><ele>51.0</ele><time>2026-04-26T15:39:16.426Z</time></trkpt><trkpt lat="45.5040479" lon="11.448182"><ele>51.0</ele><time>2026-04-26T15:39:17.427Z</time></trkpt><trkpt lat="45.5038841" lon="11.4480605"><ele>50.0</ele><time>2026-04-26T15:39:18.426Z</time></trkpt><trkpt lat="45.5037175" lon="11.4479332"><ele>49.0</ele><time>2026-04-26T15:39:19.426Z</time></trkpt><trkpt lat="45.5035551" lon="11.4478147"><ele>48.0</ele><time>2026-04-26T15:39:20.426Z</time></trkpt><trkpt lat="45.5033916" lon="11.4476934"><ele>48.0</ele><time>2026-04-26T15:39:21.425Z</time></trkpt><trkpt lat="45.5032288" lon="11.4475741"><ele>48.0</ele><time>2026-04-26T15:39:22.435Z</time></trkpt><trkpt lat="45.5030675" lon="11.4474545"><ele>48.0</ele><time>2026-04-26T15:39:23.425Z</time></trkpt><trkpt lat="45.502908" lon="11.4473349"><ele>47.666666666666664</ele><time>2026-04-26T15:39:24.424Z</time></trkpt><trkpt lat="45.5027481" lon="11.44722"><ele>47.33333333333333</ele><time>2026-04-26T15:39:25.426Z</time></trkpt><trkpt lat="45.5025899" lon="11.4471005"><ele>47.0</ele><time>2026-04-26T15:39:26.426Z</time></trkpt><trkpt lat="45.5024366" lon="11.446981"><ele>47.0</ele><time>2026-04-26T15:39:27.427Z</time></trkpt><trkpt lat="45.5022857" lon="11.4468695"><ele>47.0</ele><time>2026-04-26T15:39:28.426Z</time></trkpt><trkpt lat="45.5021368" lon="11.4467569"><ele>47.0</ele><time>2026-04-26T15:39:29.426Z</time></trkpt><trkpt lat="45.5019876" lon="11.4466499"><ele>47.666666666666664</ele><time>2026-04-26T15:39:30.425Z</time></trkpt><trkpt lat="45.5018436" lon="11.44654"><ele>48.33333333333333</ele><time>2026-04-26T15:39:31.429Z</time></trkpt><trkpt lat="45.5017003" lon="11.4464343"><ele>49.0</ele><time>2026-04-26T15:39:32.426Z</time></trkpt><trkpt lat="45.5015554" lon="11.446332"><ele>49.33333333333333</ele><time>2026-04-26T15:39:33.426Z</time></trkpt><trkpt lat="45.5014148" lon="11.446229"><ele>49.66666666666667</ele><time>2026-04-26T15:39:34.424Z</time></trkpt><trkpt lat="45.5012744" lon="11.4461232"><ele>50.0</ele><time>2026-04-26T15:39:35.425Z</time></trkpt><trkpt lat="45.5011269" lon="11.446016"><ele>50.333333333333336</ele><time>2026-04-26T15:39:36.426Z</time></trkpt><trkpt lat="45.5009813" lon="11.445905"><ele>50.66666666666667</ele><time>2026-04-26T15:39:37.426Z</time></trkpt><trkpt lat="45.5008321" lon="11.4457987"><ele>51.0</ele><time>2026-04-26T15:39:38.427Z</time></trkpt><trkpt lat="45.5006812" lon="11.4456887"><ele>51.0</ele><time>2026-04-26T15:39:39.426Z</time></trkpt><trkpt lat="45.5005332" lon="11.4455791"><ele>51.0</ele><time>2026-04-26T15:39:40.425Z</time></trkpt><trkpt lat="45.500381" lon="11.4454686"><ele>51.0</ele><time>2026-04-26T15:39:41.425Z</time></trkpt><trkpt lat="45.5002271" lon="11.4453577"><ele>51.33333333333333</ele><time>2026-04-26T15:39:42.429Z</time></trkpt><trkpt lat="45.5000768" lon="11.4452464"><ele>51.666666666666664</ele><time>2026-04-26T15:39:43.425Z</time></trkpt><trkpt lat="45.4999279" lon="11.445137"><ele>52.0</ele><time>2026-04-26T15:39:44.426Z</time></trkpt><trkpt lat="45.4997787" lon="11.4450222"><ele>52.0</ele><time>2026-04-26T15:39:45.425Z</time></trkpt><trkpt lat="45.4996364" lon="11.4449159"><ele>52.0</ele><time>2026-04-26T15:39:46.426Z</time></trkpt><trkpt lat="45.4994914" lon="11.4448093"><ele>52.0</ele><time>2026-04-26T15:39:47.426Z</time></trkpt><trkpt lat="45.4993469" lon="11.4446982"><ele>52.33333333333333</ele><time>2026-04-26T15:39:48.427Z</time></trkpt><trkpt lat="45.4992049" lon="11.4445925"><ele>52.66666666666667</ele><time>2026-04-26T15:39:49.426Z</time></trkpt><trkpt lat="45.4990606" lon="11.444486"><ele>53.0</ele><time>2026-04-26T15:39:50.425Z</time></trkpt><trkpt lat="45.4989153" lon="11.4443841"><ele>53.0</ele><time>2026-04-26T15:39:51.426Z</time></trkpt><trkpt lat="45.4987724" lon="11.4442822"><ele>53.0</ele><time>2026-04-26T15:39:52.426Z</time></trkpt><trkpt lat="45.4986344" lon="11.4441781"><ele>53.0</ele><time>2026-04-26T15:39:53.426Z</time></trkpt><trkpt lat="45.4984958" lon="11.4440796"><ele>53.0</ele><time>2026-04-26T15:39:54.436Z</time></trkpt><trkpt lat="45.4983595" lon="11.4439838"><ele>53.0</ele><time>2026-04-26T15:39:55.426Z</time></trkpt><trkpt lat="45.4982239" lon="11.4438939"><ele>53.0</ele><time>2026-04-26T15:39:56.424Z</time></trkpt><trkpt lat="45.4980915" lon="11.4438113"><ele>53.0</ele><time>2026-04-26T15:39:57.426Z</time></trkpt><trkpt lat="45.4979622" lon="11.4437226"><ele>53.75</ele><time>2026-04-26T15:39:58.425Z</time></trkpt><trkpt lat="45.4978357" lon="11.4436406"><ele>54.5</ele><time>2026-04-26T15:39:59.425Z</time></trkpt><trkpt lat="45.4977149" lon="11.4435611"><ele>55.25</ele><time>2026-04-26T15:40:00.425Z</time></trkpt><trkpt lat="45.4975984" lon="11.4434913"><ele>56.0</ele><time>2026-04-26T15:40:01.424Z</time></trkpt><trkpt lat="45.4974872" lon="11.4434217"><ele>56.0</ele><time>2026-04-26T15:40:02.425Z</time></trkpt><trkpt lat="45.4973815" lon="11.4433528"><ele>56.0</ele><time>2026-04-26T15:40:03.426Z</time></trkpt><trkpt lat="45.4972766" lon="11.4432766"><ele>56.0</ele><time>2026-04-26T15:40:04.425Z</time></trkpt><trkpt lat="45.4971669" lon="11.4432081"><ele>56.0</ele><time>2026-04-26T15:40:05.425Z</time></trkpt><trkpt lat="45.4970574" lon="11.4431369"><ele>54.75</ele><time>2026-04-26T15:40:06.424Z</time></trkpt><trkpt lat="45.4969469" lon="11.443069"><ele>53.5</ele><time>2026-04-26T15:40:07.424Z</time></trkpt><trkpt lat="45.4968348" lon="11.4429942"><ele>52.25</ele><time>2026-04-26T15:40:08.426Z</time></trkpt><trkpt lat="45.4967166" lon="11.442917"><ele>51.0</ele><time>2026-04-26T15:40:09.425Z</time></trkpt><trkpt lat="45.4965911" lon="11.4428251"><ele>51.0</ele><time>2026-04-26T15:40:10.426Z</time></trkpt><trkpt lat="45.4964547" lon="11.4427341"><ele>51.0</ele><time>2026-04-26T15:40:11.427Z</time></trkpt><trkpt lat="45.4963172" lon="11.4426422"><ele>51.0</ele><time>2026-04-26T15:40:12.426Z</time></trkpt><trkpt lat="45.4961869" lon="11.4425535"><ele>51.0</ele><time>2026-04-26T15:40:13.425Z</time></trkpt><trkpt lat="45.4960702" lon="11.4424775"><ele>51.0</ele><time>2026-04-26T15:40:14.424Z</time></trkpt><trkpt lat="45.4959655" lon="11.4424049"><ele>51.0</ele><time>2026-04-26T15:40:15.425Z</time></trkpt><trkpt lat="45.495872" lon="11.4423444"><ele>51.0</ele><time>2026-04-26T15:40:16.426Z</time></trkpt><trkpt lat="45.4957914" lon="11.4422855"><ele>51.0</ele><time>2026-04-26T15:40:17.426Z</time></trkpt><trkpt lat="45.4957271" lon="11.44224"><ele>51.0</ele><time>2026-04-26T15:40:18.425Z</time></trkpt><trkpt lat="45.4956443" lon="11.4421599"><ele>51.199999999999996</ele><time>2026-04-26T15:40:20.425Z</time></trkpt><trkpt lat="45.4955761" lon="11.4420413"><ele>51.4</ele><time>2026-04-26T15:40:22.429Z</time></trkpt><trkpt lat="45.4954673" lon="11.4419663"><ele>51.6</ele><time>2026-04-26T15:40:24.425Z</time></trkpt><trkpt lat="45.495391" lon="11.441958"><ele>51.8</ele><time>2026-04-26T15:40:25.425Z</time></trkpt><trkpt lat="45.4953054" lon="11.4419354"><ele>52.0</ele><time>2026-04-26T15:40:26.424Z</time></trkpt><trkpt lat="45.4952134" lon="11.441891"><ele>52.0</ele><time>2026-04-26T15:40:27.425Z</time></trkpt><trkpt lat="45.4951044" lon="11.4418326"><ele>52.0</ele><time>2026-04-26T15:40:28.426Z</time></trkpt><trkpt lat="45.494992" lon="11.4417673"><ele>52.0</ele><time>2026-04-26T15:40:29.425Z</time></trkpt><trkpt lat="45.4948764" lon="11.4416968"><ele>52.0</ele><time>2026-04-26T15:40:30.425Z</time></trkpt><trkpt lat="45.4947496" lon="11.4416201"><ele>52.0</ele><time>2026-04-26T15:40:31.43Z</time></trkpt><trkpt lat="45.4946262" lon="11.4415367"><ele>52.0</ele><time>2026-04-26T15:40:32.426Z</time></trkpt><trkpt lat="45.4944967" lon="11.4414456"><ele>52.0</ele><time>2026-04-26T15:40:33.43Z</time></trkpt><trkpt lat="45.4943599" lon="11.4413577"><ele>52.0</ele><time>2026-04-26T15:40:34.426Z</time></trkpt><trkpt lat="45.4942148" lon="11.4412535"><ele>51.666666666666664</ele><time>2026-04-26T15:40:35.425Z</time></trkpt><trkpt lat="45.4940642" lon="11.4411528"><ele>51.33333333333333</ele><time>2026-04-26T15:40:36.434Z</time></trkpt><trkpt lat="45.4939158" lon="11.4410548"><ele>51.0</ele><time>2026-04-26T15:40:37.426Z</time></trkpt><trkpt lat="45.493765" lon="11.4409596"><ele>52.33333333333333</ele><time>2026-04-26T15:40:38.425Z</time></trkpt><trkpt lat="45.4936136" lon="11.4408624"><ele>53.666666666666664</ele><time>2026-04-26T15:40:39.427Z</time></trkpt><trkpt lat="45.4934644" lon="11.4407613"><ele>55.0</ele><time>2026-04-26T15:40:40.425Z</time></trkpt><trkpt lat="45.4933124" lon="11.4406651"><ele>55.0</ele><time>2026-04-26T15:40:41.424Z</time></trkpt><trkpt lat="45.4931626" lon="11.4405683"><ele>55.0</ele><time>2026-04-26T15:40:42.434Z</time></trkpt><trkpt lat="45.4930067" lon="11.4404672"><ele>55.0</ele><time>2026-04-26T15:40:43.425Z</time></trkpt><trkpt lat="45.4928539" lon="11.440363"><ele>53.33333333333333</ele><time>2026-04-26T15:40:44.426Z</time></trkpt><trkpt lat="45.4926957" lon="11.4402609"><ele>51.66666666666667</ele><time>2026-04-26T15:40:45.425Z</time></trkpt><trkpt lat="45.4925378" lon="11.4401517"><ele>50.0</ele><time>2026-04-26T15:40:46.435Z</time></trkpt><trkpt lat="45.4923761" lon="11.4400428"><ele>50.0</ele><time>2026-04-26T15:40:47.425Z</time></trkpt><trkpt lat="45.4922161" lon="11.4399337"><ele>50.0</ele><time>2026-04-26T15:40:48.425Z</time></trkpt><trkpt lat="45.4920534" lon="11.4398259"><ele>50.0</ele><time>2026-04-26T15:40:49.424Z</time></trkpt><trkpt lat="45.4918932" lon="11.4397181"><ele>51.333333333333336</ele><time>2026-04-26T15:40:50.433Z</time></trkpt><trkpt lat="45.4917401" lon="11.4396192"><ele>52.66666666666667</ele><time>2026-04-26T15:40:51.426Z</time></trkpt><trkpt lat="45.4915917" lon="11.4395207"><ele>54.0</ele><time>2026-04-26T15:40:52.446Z</time></trkpt><trkpt lat="45.4914459" lon="11.4394233"><ele>54.0</ele><time>2026-04-26T15:40:53.425Z</time></trkpt><trkpt lat="45.491302" lon="11.439322"><ele>54.0</ele><time>2026-04-26T15:40:54.425Z</time></trkpt><trkpt lat="45.4911595" lon="11.4392236"><ele>54.0</ele><time>2026-04-26T15:40:55.426Z</time></trkpt><trkpt lat="45.4910203" lon="11.4391237"><ele>53.75</ele><time>2026-04-26T15:40:56.428Z</time></trkpt><trkpt lat="45.4908835" lon="11.4390253"><ele>53.5</ele><time>2026-04-26T15:40:57.425Z</time></trkpt><trkpt lat="45.4907552" lon="11.4389349"><ele>53.25</ele><time>2026-04-26T15:40:58.424Z</time></trkpt><trkpt lat="45.4906318" lon="11.4388479"><ele>53.0</ele><time>2026-04-26T15:40:59.426Z</time></trkpt><trkpt lat="45.490518" lon="11.4387674"><ele>52.599999999999994</ele><time>2026-04-26T15:41:00.426Z</time></trkpt><trkpt lat="45.4904134" lon="11.4386901"><ele>52.199999999999996</ele><time>2026-04-26T15:41:01.424Z</time></trkpt><trkpt lat="45.4903147" lon="11.4386181"><ele>51.8</ele><time>2026-04-26T15:41:02.427Z</time></trkpt><trkpt lat="45.4902172" lon="11.4385471"><ele>51.4</ele><time>2026-04-26T15:41:03.425Z</time></trkpt><trkpt lat="45.4901196" lon="11.4384875"><ele>51.0</ele><time>2026-04-26T15:41:04.427Z</time></trkpt><trkpt lat="45.4900221" lon="11.4384464"><ele>51.0</ele><time>2026-04-26T15:41:05.433Z</time></trkpt><trkpt lat="45.489927" lon="11.4384197"><ele>51.0</ele><time>2026-04-26T15:41:06.425Z</time></trkpt><trkpt lat="45.489841" lon="11.4384002"><ele>51.0</ele><time>2026-04-26T15:41:07.425Z</time></trkpt><trkpt lat="45.4897682" lon="11.4383867"><ele>51.0</ele><time>2026-04-26T15:41:08.424Z</time></trkpt><trkpt lat="45.489701" lon="11.4383708"><ele>51.0</ele><time>2026-04-26T15:41:09.429Z</time></trkpt><trkpt lat="45.4896412" lon="11.4383406"><ele>51.0</ele><time>2026-04-26T15:41:10.425Z</time></trkpt><trkpt lat="45.4895782" lon="11.4382743"><ele>51.333333333333336</ele><time>2026-04-26T15:41:12.427Z</time></trkpt><trkpt lat="45.4895227" lon="11.4381903"><ele>51.66666666666667</ele><time>2026-04-26T15:41:16.424Z</time></trkpt><trkpt lat="45.4895027" lon="11.4380538"><ele>52.0</ele><time>2026-04-26T15:41:18.425Z</time></trkpt><trkpt lat="45.4895014" lon="11.4379608"><ele>52.333333333333336</ele><time>2026-04-26T15:41:19.424Z</time></trkpt><trkpt lat="45.4895004" lon="11.4378406"><ele>52.66666666666667</ele><time>2026-04-26T15:41:20.426Z</time></trkpt><trkpt lat="45.4894948" lon="11.4376822"><ele>53.0</ele><time>2026-04-26T15:41:21.425Z</time></trkpt><trkpt lat="45.4894699" lon="11.4375168"><ele>53.0</ele><time>2026-04-26T15:41:22.424Z</time></trkpt><trkpt lat="45.4894118" lon="11.4373486"><ele>53.0</ele><time>2026-04-26T15:41:23.428Z</time></trkpt><trkpt lat="45.4893124" lon="11.4372061"><ele>53.0</ele><time>2026-04-26T15:41:24.426Z</time></trkpt><trkpt lat="45.4891849" lon="11.4371166"><ele>53.0</ele><time>2026-04-26T15:41:25.424Z</time></trkpt><trkpt lat="45.4890433" lon="11.4370881"><ele>53.0</ele><time>2026-04-26T15:41:26.424Z</time></trkpt><trkpt lat="45.4888964" lon="11.4371099"><ele>53.0</ele><time>2026-04-26T15:41:27.437Z</time></trkpt><trkpt lat="45.4887653" lon="11.4371168"><ele>53.0</ele><time>2026-04-26T15:41:28.425Z</time></trkpt><trkpt lat="45.4886488" lon="11.4370564"><ele>53.0</ele><time>2026-04-26T15:41:29.428Z</time></trkpt><trkpt lat="45.4885372" lon="11.4369298"><ele>53.333333333333336</ele><time>2026-04-26T15:41:30.424Z</time></trkpt><trkpt lat="45.4884181" lon="11.4367824"><ele>53.66666666666667</ele><time>2026-04-26T15:41:31.427Z</time></trkpt><trkpt lat="45.4882868" lon="11.4366173"><ele>54.0</ele><time>2026-04-26T15:41:32.424Z</time></trkpt><trkpt lat="45.4881515" lon="11.4364371"><ele>54.33333333333333</ele><time>2026-04-26T15:41:33.426Z</time></trkpt><trkpt lat="45.4880106" lon="11.4362537"><ele>54.666666666666664</ele><time>2026-04-26T15:41:34.425Z</time></trkpt><trkpt lat="45.4878731" lon="11.436053"><ele>55.0</ele><time>2026-04-26T15:41:35.424Z</time></trkpt><trkpt lat="45.4877352" lon="11.4358397"><ele>53.666666666666664</ele><time>2026-04-26T15:41:36.425Z</time></trkpt><trkpt lat="45.4875938" lon="11.4356358"><ele>52.33333333333333</ele><time>2026-04-26T15:41:37.426Z</time></trkpt><trkpt lat="45.4874518" lon="11.4354309"><ele>51.0</ele><time>2026-04-26T15:41:38.425Z</time></trkpt><trkpt lat="45.4873103" lon="11.4352359"><ele>51.33333333333333</ele><time>2026-04-26T15:41:39.425Z</time></trkpt><trkpt lat="45.4871716" lon="11.4350379"><ele>51.666666666666664</ele><time>2026-04-26T15:41:40.426Z</time></trkpt><trkpt lat="45.4870437" lon="11.4348323"><ele>52.0</ele><time>2026-04-26T15:41:41.427Z</time></trkpt><trkpt lat="45.4869352" lon="11.43462"><ele>52.0</ele><time>2026-04-26T15:41:42.427Z</time></trkpt><trkpt lat="45.4868461" lon="11.4343933"><ele>52.0</ele><time>2026-04-26T15:41:43.427Z</time></trkpt><trkpt lat="45.4867776" lon="11.4341594"><ele>52.0</ele><time>2026-04-26T15:41:44.425Z</time></trkpt><trkpt lat="45.4867329" lon="11.4339199"><ele>51.0</ele><time>2026-04-26T15:41:45.427Z</time></trkpt><trkpt lat="45.4867161" lon="11.4336792"><ele>50.0</ele><time>2026-04-26T15:41:46.425Z</time></trkpt><trkpt lat="45.4867219" lon="11.4334502"><ele>49.0</ele><time>2026-04-26T15:41:47.43Z</time></trkpt><trkpt lat="45.4867414" lon="11.4332341"><ele>49.0</ele><time>2026-04-26T15:41:48.425Z</time></trkpt><trkpt lat="45.4867689" lon="11.4330205"><ele>49.0</ele><time>2026-04-26T15:41:49.425Z</time></trkpt><trkpt lat="45.4867977" lon="11.4328067"><ele>49.0</ele><time>2026-04-26T15:41:50.425Z</time></trkpt><trkpt lat="45.4868238" lon="11.4325942"><ele>49.0</ele><time>2026-04-26T15:41:51.426Z</time></trkpt><trkpt lat="45.486852" lon="11.4323861"><ele>49.0</ele><time>2026-04-26T15:41:52.426Z</time></trkpt><trkpt lat="45.4868606" lon="11.4321798"><ele>49.0</ele><time>2026-04-26T15:41:53.439Z</time></trkpt><trkpt lat="45.4868374" lon="11.4319916"><ele>49.0</ele><time>2026-04-26T15:41:54.426Z</time></trkpt><trkpt lat="45.4868082" lon="11.4317997"><ele>49.33333333333333</ele><time>2026-04-26T15:41:55.425Z</time></trkpt><trkpt lat="45.4867623" lon="11.4316071"><ele>49.66666666666667</ele><time>2026-04-26T15:41:56.427Z</time></trkpt><trkpt lat="45.4866882" lon="11.4314242"><ele>50.0</ele><time>2026-04-26T15:41:57.425Z</time></trkpt><trkpt lat="45.4865797" lon="11.4312399"><ele>50.333333333333336</ele><time>2026-04-26T15:41:58.425Z</time></trkpt><trkpt lat="45.48646" lon="11.4310602"><ele>50.66666666666667</ele><time>2026-04-26T15:41:59.424Z</time></trkpt><trkpt lat="45.486317" lon="11.4308901"><ele>51.0</ele><time>2026-04-26T15:42:00.424Z</time></trkpt><trkpt lat="45.4861614" lon="11.4307241"><ele>51.0</ele><time>2026-04-26T15:42:01.425Z</time></trkpt><trkpt lat="45.4859945" lon="11.4305665"><ele>51.0</ele><time>2026-04-26T15:42:02.425Z</time></trkpt><trkpt lat="45.4858235" lon="11.4304117"><ele>51.0</ele><time>2026-04-26T15:42:03.426Z</time></trkpt><trkpt lat="45.4856595" lon="11.43026"><ele>51.33333333333333</ele><time>2026-04-26T15:42:04.425Z</time></trkpt><trkpt lat="45.4854999" lon="11.430118"><ele>51.666666666666664</ele><time>2026-04-26T15:42:05.427Z</time></trkpt><trkpt lat="45.4853561" lon="11.4299708"><ele>52.0</ele><time>2026-04-26T15:42:06.425Z</time></trkpt><trkpt lat="45.4852213" lon="11.4298258"><ele>51.33333333333333</ele><time>2026-04-26T15:42:07.425Z</time></trkpt><trkpt lat="45.4851012" lon="11.4296565"><ele>50.66666666666667</ele><time>2026-04-26T15:42:08.43Z</time></trkpt><trkpt lat="45.4849967" lon="11.4294742"><ele>50.0</ele><time>2026-04-26T15:42:09.427Z</time></trkpt><trkpt lat="45.4849129" lon="11.4292792"><ele>50.0</ele><time>2026-04-26T15:42:10.425Z</time></trkpt><trkpt lat="45.4848524" lon="11.4290736"><ele>50.0</ele><time>2026-04-26T15:42:11.426Z</time></trkpt><trkpt lat="45.484813" lon="11.4288426"><ele>50.0</ele><time>2026-04-26T15:42:12.426Z</time></trkpt><trkpt lat="45.484795" lon="11.4285907"><ele>50.333333333333336</ele><time>2026-04-26T15:42:13.424Z</time></trkpt><trkpt lat="45.4848026" lon="11.4283264"><ele>50.66666666666667</ele><time>2026-04-26T15:42:14.424Z</time></trkpt><trkpt lat="45.4848477" lon="11.4280609"><ele>51.0</ele><time>2026-04-26T15:42:15.428Z</time></trkpt><trkpt lat="45.4849337" lon="11.4278232"><ele>51.33333333333333</ele><time>2026-04-26T15:42:16.427Z</time></trkpt><trkpt lat="45.4850517" lon="11.427607"><ele>51.666666666666664</ele><time>2026-04-26T15:42:17.428Z</time></trkpt><trkpt lat="45.4851783" lon="11.4274058"><ele>52.0</ele><time>2026-04-26T15:42:18.431Z</time></trkpt><trkpt lat="45.485297" lon="11.427212"><ele>52.0</ele><time>2026-04-26T15:42:19.425Z</time></trkpt><trkpt lat="45.4853915" lon="11.4270116"><ele>52.0</ele><time>2026-04-26T15:42:20.427Z</time></trkpt><trkpt lat="45.4854429" lon="11.4268059"><ele>52.0</ele><time>2026-04-26T15:42:21.43Z</time></trkpt><trkpt lat="45.4854436" lon="11.4265919"><ele>52.0</ele><time>2026-04-26T15:42:22.426Z</time></trkpt><trkpt lat="45.4853898" lon="11.4264025"><ele>52.0</ele><time>2026-04-26T15:42:23.43Z</time></trkpt><trkpt lat="45.4853234" lon="11.4262423"><ele>52.0</ele><time>2026-04-26T15:42:24.426Z</time></trkpt><trkpt lat="45.485286" lon="11.4260759"><ele>52.0</ele><time>2026-04-26T15:42:25.428Z</time></trkpt><trkpt lat="45.4852832" lon="11.4258935"><ele>52.0</ele><time>2026-04-26T15:42:26.426Z</time></trkpt><trkpt lat="45.4853018" lon="11.4256992"><ele>52.0</ele><time>2026-04-26T15:42:27.426Z</time></trkpt><trkpt lat="45.4853253" lon="11.4254894"><ele>52.0</ele><time>2026-04-26T15:42:28.432Z</time></trkpt><trkpt lat="45.4853402" lon="11.4252725"><ele>52.0</ele><time>2026-04-26T15:42:29.425Z</time></trkpt><trkpt lat="45.4853499" lon="11.4250418"><ele>51.666666666666664</ele><time>2026-04-26T15:42:30.427Z</time></trkpt><trkpt lat="45.4853798" lon="11.4248151"><ele>51.33333333333333</ele><time>2026-04-26T15:42:31.427Z</time></trkpt><trkpt lat="45.4854324" lon="11.4245938"><ele>51.0</ele><time>2026-04-26T15:42:32.427Z</time></trkpt><trkpt lat="45.4855009" lon="11.4243928"><ele>50.25</ele><time>2026-04-26T15:42:33.427Z</time></trkpt><trkpt lat="45.4855784" lon="11.4242215"><ele>49.5</ele><time>2026-04-26T15:42:34.429Z</time></trkpt><trkpt lat="45.485662" lon="11.4240716"><ele>48.75</ele><time>2026-04-26T15:42:35.426Z</time></trkpt><trkpt lat="45.4857532" lon="11.4239424"><ele>48.0</ele><time>2026-04-26T15:42:36.427Z</time></trkpt><trkpt lat="45.4858664" lon="11.423844"><ele>48.66666666666667</ele><time>2026-04-26T15:42:37.437Z</time></trkpt><trkpt lat="45.485997" lon="11.4237666"><ele>49.333333333333336</ele><time>2026-04-26T15:42:38.429Z</time></trkpt><trkpt lat="45.4861331" lon="11.4236683"><ele>50.0</ele><time>2026-04-26T15:42:39.426Z</time></trkpt><trkpt lat="45.4862625" lon="11.4235417"><ele>50.75</ele><time>2026-04-26T15:42:40.426Z</time></trkpt><trkpt lat="45.4863628" lon="11.4233815"><ele>51.5</ele><time>2026-04-26T15:42:41.426Z</time></trkpt><trkpt lat="45.4864256" lon="11.4231926"><ele>52.25</ele><time>2026-04-26T15:42:42.427Z</time></trkpt><trkpt lat="45.4864548" lon="11.42299"><ele>53.0</ele><time>2026-04-26T15:42:43.425Z</time></trkpt><trkpt lat="45.4864372" lon="11.4227862"><ele>53.0</ele><time>2026-04-26T15:42:44.426Z</time></trkpt><trkpt lat="45.4863797" lon="11.4225895"><ele>53.0</ele><time>2026-04-26T15:42:45.428Z</time></trkpt><trkpt lat="45.4862908" lon="11.4224262"><ele>53.0</ele><time>2026-04-26T15:42:46.428Z</time></trkpt><trkpt lat="45.4861761" lon="11.4223065"><ele>53.0</ele><time>2026-04-26T15:42:47.433Z</time></trkpt><trkpt lat="45.4860419" lon="11.4222316"><ele>53.0</ele><time>2026-04-26T15:42:48.426Z</time></trkpt><trkpt lat="45.4859005" lon="11.4221918"><ele>53.0</ele><time>2026-04-26T15:42:49.426Z</time></trkpt><trkpt lat="45.485749" lon="11.4222023"><ele>53.0</ele><time>2026-04-26T15:42:50.425Z</time></trkpt><trkpt lat="45.4855986" lon="11.4221708"><ele>53.0</ele><time>2026-04-26T15:42:51.426Z</time></trkpt><trkpt lat="45.4854461" lon="11.4220856"><ele>52.333333333333336</ele><time>2026-04-26T15:42:52.426Z</time></trkpt><trkpt lat="45.4852903" lon="11.4219528"><ele>51.66666666666667</ele><time>2026-04-26T15:42:53.426Z</time></trkpt><trkpt lat="45.4851347" lon="11.4218104"><ele>51.0</ele><time>2026-04-26T15:42:54.429Z</time></trkpt><trkpt lat="45.4849786" lon="11.4216615"><ele>51.0</ele><time>2026-04-26T15:42:55.43Z</time></trkpt><trkpt lat="45.4848199" lon="11.4215093"><ele>51.0</ele><time>2026-04-26T15:42:56.425Z</time></trkpt><trkpt lat="45.4846532" lon="11.421358"><ele>51.0</ele><time>2026-04-26T15:42:57.428Z</time></trkpt><trkpt lat="45.4844857" lon="11.4212024"><ele>52.0</ele><time>2026-04-26T15:42:58.427Z</time></trkpt><trkpt lat="45.4843151" lon="11.4210455"><ele>53.0</ele><time>2026-04-26T15:42:59.427Z</time></trkpt><trkpt lat="45.4841476" lon="11.4208869"><ele>54.0</ele><time>2026-04-26T15:43:00.426Z</time></trkpt><trkpt lat="45.483976" lon="11.4207217"><ele>54.0</ele><time>2026-04-26T15:43:01.429Z</time></trkpt><trkpt lat="45.4838031" lon="11.4205624"><ele>54.0</ele><time>2026-04-26T15:43:02.426Z</time></trkpt><trkpt lat="45.4836256" lon="11.4204"><ele>54.0</ele><time>2026-04-26T15:43:03.426Z</time></trkpt><trkpt lat="45.483446" lon="11.4202415"><ele>54.33333333333333</ele><time>2026-04-26T15:43:04.426Z</time></trkpt><trkpt lat="45.4832675" lon="11.4200786"><ele>54.666666666666664</ele><time>2026-04-26T15:43:05.435Z</time></trkpt><trkpt lat="45.4830904" lon="11.4199235"><ele>55.0</ele><time>2026-04-26T15:43:06.426Z</time></trkpt><trkpt lat="45.4829047" lon="11.4197879"><ele>55.0</ele><time>2026-04-26T15:43:07.426Z</time></trkpt><trkpt lat="45.482724" lon="11.4196702"><ele>55.0</ele><time>2026-04-26T15:43:08.426Z</time></trkpt><trkpt lat="45.4825505" lon="11.4195712"><ele>55.0</ele><time>2026-04-26T15:43:09.424Z</time></trkpt><trkpt lat="45.4823912" lon="11.419464"><ele>54.666666666666664</ele><time>2026-04-26T15:43:10.426Z</time></trkpt><trkpt lat="45.4822441" lon="11.4193515"><ele>54.33333333333333</ele><time>2026-04-26T15:43:11.426Z</time></trkpt><trkpt lat="45.4821135" lon="11.4192206"><ele>54.0</ele><time>2026-04-26T15:43:12.435Z</time></trkpt><trkpt lat="45.4820121" lon="11.4190662"><ele>54.0</ele><time>2026-04-26T15:43:13.426Z</time></trkpt><trkpt lat="45.4819196" lon="11.4188955"><ele>54.0</ele><time>2026-04-26T15:43:14.426Z</time></trkpt><trkpt lat="45.4818048" lon="11.418755"><ele>54.0</ele><time>2026-04-26T15:43:15.428Z</time></trkpt><trkpt lat="45.4816649" lon="11.4186459"><ele>53.66666666666667</ele><time>2026-04-26T15:43:16.427Z</time></trkpt><trkpt lat="45.4815328" lon="11.4185003"><ele>53.333333333333336</ele><time>2026-04-26T15:43:17.429Z</time></trkpt><trkpt lat="45.4814143" lon="11.418324"><ele>53.0</ele><time>2026-04-26T15:43:18.425Z</time></trkpt><trkpt lat="45.481285" lon="11.4181536"><ele>53.333333333333336</ele><time>2026-04-26T15:43:19.43Z</time></trkpt><trkpt lat="45.4811407" lon="11.4180064"><ele>53.66666666666667</ele><time>2026-04-26T15:43:20.424Z</time></trkpt><trkpt lat="45.4809854" lon="11.4178648"><ele>54.0</ele><time>2026-04-26T15:43:21.425Z</time></trkpt><trkpt lat="45.4808295" lon="11.4177171"><ele>54.66666666666667</ele><time>2026-04-26T15:43:22.425Z</time></trkpt><trkpt lat="45.480673" lon="11.4175638"><ele>55.333333333333336</ele><time>2026-04-26T15:43:23.423Z</time></trkpt><trkpt lat="45.4805098" lon="11.4174169"><ele>56.0</ele><time>2026-04-26T15:43:24.426Z</time></trkpt><trkpt lat="45.4803455" lon="11.4172655"><ele>56.66666666666667</ele><time>2026-04-26T15:43:25.427Z</time></trkpt><trkpt lat="45.48018" lon="11.4171088"><ele>57.33333333333333</ele><time>2026-04-26T15:43:26.427Z</time></trkpt><trkpt lat="45.4800142" lon="11.4169515"><ele>58.0</ele><time>2026-04-26T15:43:27.427Z</time></trkpt><trkpt lat="45.4798442" lon="11.4167936"><ele>58.0</ele><time>2026-04-26T15:43:28.425Z</time></trkpt><trkpt lat="45.4796755" lon="11.4166287"><ele>58.0</ele><time>2026-04-26T15:43:29.425Z</time></trkpt><trkpt lat="45.4795011" lon="11.4164699"><ele>58.0</ele><time>2026-04-26T15:43:30.425Z</time></trkpt><trkpt lat="45.4793311" lon="11.416304"><ele>56.33333333333333</ele><time>2026-04-26T15:43:31.424Z</time></trkpt><trkpt lat="45.4791608" lon="11.4161408"><ele>54.66666666666667</ele><time>2026-04-26T15:43:32.425Z</time></trkpt><trkpt lat="45.4789885" lon="11.4159827"><ele>53.0</ele><time>2026-04-26T15:43:33.424Z</time></trkpt><trkpt lat="45.4788182" lon="11.415822"><ele>53.0</ele><time>2026-04-26T15:43:34.425Z</time></trkpt><trkpt lat="45.4786501" lon="11.4156647"><ele>53.0</ele><time>2026-04-26T15:43:35.425Z</time></trkpt><trkpt lat="45.4784813" lon="11.4155036"><ele>53.0</ele><time>2026-04-26T15:43:36.434Z</time></trkpt><trkpt lat="45.478313" lon="11.4153445"><ele>53.0</ele><time>2026-04-26T15:43:37.425Z</time></trkpt><trkpt lat="45.4781457" lon="11.4151822"><ele>53.0</ele><time>2026-04-26T15:43:38.427Z</time></trkpt><trkpt lat="45.4779799" lon="11.415022"><ele>53.0</ele><time>2026-04-26T15:43:39.424Z</time></trkpt><trkpt lat="45.4778122" lon="11.4148653"><ele>53.66666666666667</ele><time>2026-04-26T15:43:40.424Z</time></trkpt><trkpt lat="45.4776411" lon="11.4147037"><ele>54.33333333333333</ele><time>2026-04-26T15:43:41.431Z</time></trkpt><trkpt lat="45.4774735" lon="11.4145442"><ele>55.0</ele><time>2026-04-26T15:43:42.425Z</time></trkpt><trkpt lat="45.4773032" lon="11.4143854"><ele>55.0</ele><time>2026-04-26T15:43:43.427Z</time></trkpt><trkpt lat="45.4771356" lon="11.4142256"><ele>55.0</ele><time>2026-04-26T15:43:44.426Z</time></trkpt><trkpt lat="45.4769705" lon="11.4140667"><ele>55.0</ele><time>2026-04-26T15:43:45.425Z</time></trkpt><trkpt lat="45.4768077" lon="11.4139059"><ele>53.666666666666664</ele><time>2026-04-26T15:43:46.425Z</time></trkpt><trkpt lat="45.4766433" lon="11.4137417"><ele>52.33333333333333</ele><time>2026-04-26T15:43:47.425Z</time></trkpt><trkpt lat="45.4764757" lon="11.4135826"><ele>51.0</ele><time>2026-04-26T15:43:48.426Z</time></trkpt><trkpt lat="45.4763113" lon="11.4134271"><ele>51.66666666666667</ele><time>2026-04-26T15:43:49.428Z</time></trkpt><trkpt lat="45.4761559" lon="11.4132832"><ele>52.333333333333336</ele><time>2026-04-26T15:43:50.425Z</time></trkpt><trkpt lat="45.4760033" lon="11.4131403"><ele>53.0</ele><time>2026-04-26T15:43:51.425Z</time></trkpt><trkpt lat="45.4758502" lon="11.4129995"><ele>53.0</ele><time>2026-04-26T15:43:52.426Z</time></trkpt><trkpt lat="45.4756963" lon="11.4128584"><ele>53.0</ele><time>2026-04-26T15:43:53.426Z</time></trkpt><trkpt lat="45.4755442" lon="11.4127138"><ele>53.0</ele><time>2026-04-26T15:43:54.426Z</time></trkpt><trkpt lat="45.4753896" lon="11.4125695"><ele>53.0</ele><time>2026-04-26T15:43:55.425Z</time></trkpt><trkpt lat="45.4752358" lon="11.4124239"><ele>53.0</ele><time>2026-04-26T15:43:56.426Z</time></trkpt><trkpt lat="45.4750789" lon="11.4122773"><ele>53.0</ele><time>2026-04-26T15:43:57.425Z</time></trkpt><trkpt lat="45.4749256" lon="11.4121293"><ele>53.0</ele><time>2026-04-26T15:43:58.425Z</time></trkpt><trkpt lat="45.4747734" lon="11.4119827"><ele>53.0</ele><time>2026-04-26T15:43:59.425Z</time></trkpt><trkpt lat="45.4746213" lon="11.4118388"><ele>53.0</ele><time>2026-04-26T15:44:00.433Z</time></trkpt><trkpt lat="45.4744734" lon="11.4117021"><ele>53.0</ele><time>2026-04-26T15:44:01.425Z</time></trkpt><trkpt lat="45.4743316" lon="11.4115642"><ele>53.0</ele><time>2026-04-26T15:44:02.425Z</time></trkpt><trkpt lat="45.4741888" lon="11.4114241"><ele>53.0</ele><time>2026-04-26T15:44:03.425Z</time></trkpt><trkpt lat="45.4740431" lon="11.4112856"><ele>53.0</ele><time>2026-04-26T15:44:04.426Z</time></trkpt><trkpt lat="45.4738926" lon="11.4111377"><ele>53.0</ele><time>2026-04-26T15:44:05.425Z</time></trkpt><trkpt lat="45.4737395" lon="11.4109834"><ele>53.0</ele><time>2026-04-26T15:44:06.424Z</time></trkpt><trkpt lat="45.4735784" lon="11.4108215"><ele>53.0</ele><time>2026-04-26T15:44:07.426Z</time></trkpt><trkpt lat="45.4734105" lon="11.4106546"><ele>53.0</ele><time>2026-04-26T15:44:08.424Z</time></trkpt><trkpt lat="45.4732262" lon="11.4104862"><ele>53.0</ele><time>2026-04-26T15:44:09.425Z</time></trkpt><trkpt lat="45.4730418" lon="11.4103124"><ele>53.0</ele><time>2026-04-26T15:44:10.429Z</time></trkpt><trkpt lat="45.4728505" lon="11.4101305"><ele>53.0</ele><time>2026-04-26T15:44:11.428Z</time></trkpt><trkpt lat="45.4726604" lon="11.4099473"><ele>53.0</ele><time>2026-04-26T15:44:12.424Z</time></trkpt><trkpt lat="45.4724696" lon="11.409767"><ele>53.0</ele><time>2026-04-26T15:44:13.43Z</time></trkpt><trkpt lat="45.4722795" lon="11.4095953"><ele>53.333333333333336</ele><time>2026-04-26T15:44:14.425Z</time></trkpt><trkpt lat="45.4720847" lon="11.4094393"><ele>53.66666666666667</ele><time>2026-04-26T15:44:15.426Z</time></trkpt><trkpt lat="45.4718893" lon="11.4092932"><ele>54.0</ele><time>2026-04-26T15:44:16.424Z</time></trkpt><trkpt lat="45.4716879" lon="11.4091638"><ele>54.0</ele><time>2026-04-26T15:44:17.425Z</time></trkpt><trkpt lat="45.4714861" lon="11.4090366"><ele>54.0</ele><time>2026-04-26T15:44:18.425Z</time></trkpt><trkpt lat="45.4712872" lon="11.4089123"><ele>54.0</ele><time>2026-04-26T15:44:19.424Z</time></trkpt><trkpt lat="45.4710855" lon="11.4087824"><ele>53.33333333333333</ele><time>2026-04-26T15:44:20.424Z</time></trkpt><trkpt lat="45.4708881" lon="11.40866"><ele>52.666666666666664</ele><time>2026-04-26T15:44:21.425Z</time></trkpt><trkpt lat="45.470692" lon="11.4085413"><ele>52.0</ele><time>2026-04-26T15:44:22.424Z</time></trkpt><trkpt lat="45.4704934" lon="11.4084214"><ele>53.33333333333333</ele><time>2026-04-26T15:44:23.424Z</time></trkpt><trkpt lat="45.4702933" lon="11.4083028"><ele>54.66666666666667</ele><time>2026-04-26T15:44:24.43Z</time></trkpt><trkpt lat="45.4700949" lon="11.4081889"><ele>56.0</ele><time>2026-04-26T15:44:25.425Z</time></trkpt><trkpt lat="45.4698948" lon="11.4080711"><ele>55.333333333333336</ele><time>2026-04-26T15:44:26.424Z</time></trkpt><trkpt lat="45.4696947" lon="11.4079542"><ele>54.66666666666667</ele><time>2026-04-26T15:44:27.426Z</time></trkpt><trkpt lat="45.4694934" lon="11.4078339"><ele>54.0</ele><time>2026-04-26T15:44:28.426Z</time></trkpt><trkpt lat="45.4692934" lon="11.4077144"><ele>53.66666666666667</ele><time>2026-04-26T15:44:29.434Z</time></trkpt><trkpt lat="45.4690945" lon="11.4075935"><ele>53.333333333333336</ele><time>2026-04-26T15:44:30.424Z</time></trkpt><trkpt lat="45.4688932" lon="11.4074757"><ele>53.0</ele><time>2026-04-26T15:44:31.426Z</time></trkpt><trkpt lat="45.4686937" lon="11.4073593"><ele>53.0</ele><time>2026-04-26T15:44:32.424Z</time></trkpt><trkpt lat="45.4684927" lon="11.4072428"><ele>53.0</ele><time>2026-04-26T15:44:33.426Z</time></trkpt><trkpt lat="45.4682923" lon="11.4071248"><ele>53.0</ele><time>2026-04-26T15:44:34.426Z</time></trkpt><trkpt lat="45.468093" lon="11.4070081"><ele>53.0</ele><time>2026-04-26T15:44:35.425Z</time></trkpt><trkpt lat="45.4678912" lon="11.4068893"><ele>53.0</ele><time>2026-04-26T15:44:36.426Z</time></trkpt><trkpt lat="45.4676915" lon="11.4067755"><ele>53.0</ele><time>2026-04-26T15:44:37.424Z</time></trkpt><trkpt lat="45.4674914" lon="11.4066595"><ele>53.0</ele><time>2026-04-26T15:44:38.426Z</time></trkpt><trkpt lat="45.4672911" lon="11.4065432"><ele>53.0</ele><time>2026-04-26T15:44:39.424Z</time></trkpt><trkpt lat="45.4670889" lon="11.4064233"><ele>53.0</ele><time>2026-04-26T15:44:40.425Z</time></trkpt><trkpt lat="45.4668864" lon="11.4063067"><ele>52.66666666666667</ele><time>2026-04-26T15:44:41.424Z</time></trkpt><trkpt lat="45.4666865" lon="11.4061899"><ele>52.33333333333333</ele><time>2026-04-26T15:44:42.435Z</time></trkpt><trkpt lat="45.4664903" lon="11.406075"><ele>52.0</ele><time>2026-04-26T15:44:43.425Z</time></trkpt><trkpt lat="45.4662958" lon="11.4059565"><ele>53.0</ele><time>2026-04-26T15:44:44.426Z</time></trkpt><trkpt lat="45.4661056" lon="11.4058444"><ele>54.0</ele><time>2026-04-26T15:44:45.431Z</time></trkpt><trkpt lat="45.4659169" lon="11.4057334"><ele>55.0</ele><time>2026-04-26T15:44:46.425Z</time></trkpt><trkpt lat="45.4657336" lon="11.4056227"><ele>55.0</ele><time>2026-04-26T15:44:47.435Z</time></trkpt><trkpt lat="45.4655514" lon="11.4055163"><ele>55.0</ele><time>2026-04-26T15:44:48.425Z</time></trkpt><trkpt lat="45.4653683" lon="11.4054103"><ele>55.0</ele><time>2026-04-26T15:44:49.425Z</time></trkpt><trkpt lat="45.4651862" lon="11.4053086"><ele>55.0</ele><time>2026-04-26T15:44:50.424Z</time></trkpt><trkpt lat="45.4650091" lon="11.4052073"><ele>55.0</ele><time>2026-04-26T15:44:51.425Z</time></trkpt><trkpt lat="45.464833" lon="11.4051064"><ele>55.0</ele><time>2026-04-26T15:44:52.426Z</time></trkpt><trkpt lat="45.4646544" lon="11.4050095"><ele>54.666666666666664</ele><time>2026-04-26T15:44:53.424Z</time></trkpt><trkpt lat="45.4644766" lon="11.4049045"><ele>54.33333333333333</ele><time>2026-04-26T15:44:54.424Z</time></trkpt><trkpt lat="45.4643016" lon="11.404802"><ele>54.0</ele><time>2026-04-26T15:44:55.424Z</time></trkpt><trkpt lat="45.4641268" lon="11.404701"><ele>54.0</ele><time>2026-04-26T15:44:56.423Z</time></trkpt><trkpt lat="45.4639497" lon="11.4046047"><ele>54.0</ele><time>2026-04-26T15:44:57.424Z</time></trkpt><trkpt lat="45.4637752" lon="11.4045072"><ele>54.0</ele><time>2026-04-26T15:44:58.424Z</time></trkpt><trkpt lat="45.4636008" lon="11.4043993"><ele>54.0</ele><time>2026-04-26T15:44:59.424Z</time></trkpt><trkpt lat="45.4634354" lon="11.404281"><ele>54.0</ele><time>2026-04-26T15:45:00.428Z</time></trkpt><trkpt lat="45.4632754" lon="11.4041406"><ele>54.0</ele><time>2026-04-26T15:45:01.442Z</time></trkpt><trkpt lat="45.463125" lon="11.4039927"><ele>54.0</ele><time>2026-04-26T15:45:02.424Z</time></trkpt><trkpt lat="45.4629899" lon="11.4038316"><ele>54.0</ele><time>2026-04-26T15:45:03.427Z</time></trkpt><trkpt lat="45.4628672" lon="11.4036541"><ele>54.0</ele><time>2026-04-26T15:45:04.425Z</time></trkpt><trkpt lat="45.4627545" lon="11.4034693"><ele>54.0</ele><time>2026-04-26T15:45:05.426Z</time></trkpt><trkpt lat="45.4626547" lon="11.403271"><ele>54.0</ele><time>2026-04-26T15:45:06.426Z</time></trkpt><trkpt lat="45.4625622" lon="11.4030616"><ele>54.0</ele><time>2026-04-26T15:45:07.424Z</time></trkpt><trkpt lat="45.4624819" lon="11.4028495"><ele>54.0</ele><time>2026-04-26T15:45:08.425Z</time></trkpt><trkpt lat="45.4624135" lon="11.4026344"><ele>54.0</ele><time>2026-04-26T15:45:09.424Z</time></trkpt><trkpt lat="45.4623635" lon="11.4024113"><ele>54.0</ele><time>2026-04-26T15:45:10.425Z</time></trkpt><trkpt lat="45.4623221" lon="11.4021891"><ele>55.0</ele><time>2026-04-26T15:45:11.424Z</time></trkpt><trkpt lat="45.4622871" lon="11.4019666"><ele>56.0</ele><time>2026-04-26T15:45:12.424Z</time></trkpt><trkpt lat="45.4622558" lon="11.401742"><ele>57.0</ele><time>2026-04-26T15:45:13.424Z</time></trkpt><trkpt lat="45.462225" lon="11.4015206"><ele>57.0</ele><time>2026-04-26T15:45:14.425Z</time></trkpt><trkpt lat="45.4621944" lon="11.401309"><ele>57.0</ele><time>2026-04-26T15:45:15.425Z</time></trkpt><trkpt lat="45.4621689" lon="11.4011188"><ele>57.0</ele><time>2026-04-26T15:45:16.425Z</time></trkpt><trkpt lat="45.4621422" lon="11.4009414"><ele>57.0</ele><time>2026-04-26T15:45:17.425Z</time></trkpt><trkpt lat="45.4621186" lon="11.4007709"><ele>56.75</ele><time>2026-04-26T15:45:18.424Z</time></trkpt><trkpt lat="45.4620947" lon="11.4006008"><ele>56.5</ele><time>2026-04-26T15:45:19.425Z</time></trkpt><trkpt lat="45.462072" lon="11.4004322"><ele>56.25</ele><time>2026-04-26T15:45:20.424Z</time></trkpt><trkpt lat="45.4620448" lon="11.4002618"><ele>56.0</ele><time>2026-04-26T15:45:21.425Z</time></trkpt><trkpt lat="45.4620205" lon="11.400087"><ele>56.0</ele><time>2026-04-26T15:45:22.425Z</time></trkpt><trkpt lat="45.4619955" lon="11.3999068"><ele>56.0</ele><time>2026-04-26T15:45:23.424Z</time></trkpt><trkpt lat="45.4619687" lon="11.3997212"><ele>56.0</ele><time>2026-04-26T15:45:24.426Z</time></trkpt><trkpt lat="45.4619399" lon="11.3995335"><ele>56.0</ele><time>2026-04-26T15:45:25.425Z</time></trkpt><trkpt lat="45.4619017" lon="11.3993376"><ele>55.5</ele><time>2026-04-26T15:45:26.425Z</time></trkpt><trkpt lat="45.4618605" lon="11.3991379"><ele>55.0</ele><time>2026-04-26T15:45:27.427Z</time></trkpt><trkpt lat="45.4618115" lon="11.3989449"><ele>54.5</ele><time>2026-04-26T15:45:28.426Z</time></trkpt><trkpt lat="45.4617573" lon="11.3987628"><ele>54.0</ele><time>2026-04-26T15:45:29.424Z</time></trkpt><trkpt lat="45.4616923" lon="11.3985795"><ele>53.66666666666667</ele><time>2026-04-26T15:45:30.425Z</time></trkpt><trkpt lat="45.4616142" lon="11.398399"><ele>53.333333333333336</ele><time>2026-04-26T15:45:31.424Z</time></trkpt><trkpt lat="45.4615189" lon="11.3982174"><ele>53.0</ele><time>2026-04-26T15:45:32.424Z</time></trkpt><trkpt lat="45.4614112" lon="11.3980158"><ele>53.333333333333336</ele><time>2026-04-26T15:45:33.424Z</time></trkpt><trkpt lat="45.4613046" lon="11.3977987"><ele>53.66666666666667</ele><time>2026-04-26T15:45:34.425Z</time></trkpt><trkpt lat="45.4611994" lon="11.3975822"><ele>54.0</ele><time>2026-04-26T15:45:35.427Z</time></trkpt><trkpt lat="45.4610936" lon="11.3973658"><ele>53.33333333333333</ele><time>2026-04-26T15:45:36.425Z</time></trkpt><trkpt lat="45.4609924" lon="11.3971611"><ele>52.666666666666664</ele><time>2026-04-26T15:45:37.43Z</time></trkpt><trkpt lat="45.46089" lon="11.396958"><ele>52.0</ele><time>2026-04-26T15:45:38.424Z</time></trkpt><trkpt lat="45.4607879" lon="11.3967579"><ele>52.0</ele><time>2026-04-26T15:45:39.426Z</time></trkpt><trkpt lat="45.460678" lon="11.3965533"><ele>52.0</ele><time>2026-04-26T15:45:40.425Z</time></trkpt><trkpt lat="45.4605615" lon="11.3963464"><ele>52.0</ele><time>2026-04-26T15:45:41.426Z</time></trkpt><trkpt lat="45.4604406" lon="11.39613"><ele>52.0</ele><time>2026-04-26T15:45:42.429Z</time></trkpt><trkpt lat="45.460319" lon="11.3959033"><ele>52.0</ele><time>2026-04-26T15:45:43.424Z</time></trkpt><trkpt lat="45.4602038" lon="11.3956629"><ele>52.0</ele><time>2026-04-26T15:45:44.424Z</time></trkpt><trkpt lat="45.4600836" lon="11.3954181"><ele>51.33333333333333</ele><time>2026-04-26T15:45:45.425Z</time></trkpt><trkpt lat="45.4599606" lon="11.3951758"><ele>50.66666666666667</ele><time>2026-04-26T15:45:46.427Z</time></trkpt><trkpt lat="45.4598353" lon="11.3949281"><ele>50.0</ele><time>2026-04-26T15:45:47.425Z</time></trkpt><trkpt lat="45.4597062" lon="11.394683"><ele>49.66666666666667</ele><time>2026-04-26T15:45:48.425Z</time></trkpt><trkpt lat="45.4595814" lon="11.3944311"><ele>49.33333333333333</ele><time>2026-04-26T15:45:49.426Z</time></trkpt><trkpt lat="45.459457" lon="11.3941868"><ele>49.0</ele><time>2026-04-26T15:45:50.425Z</time></trkpt><trkpt lat="45.4593286" lon="11.3939425"><ele>49.666666666666664</ele><time>2026-04-26T15:45:51.425Z</time></trkpt><trkpt lat="45.4592046" lon="11.3936982"><ele>50.33333333333333</ele><time>2026-04-26T15:45:52.425Z</time></trkpt><trkpt lat="45.4590775" lon="11.3934539"><ele>51.0</ele><time>2026-04-26T15:45:53.425Z</time></trkpt><trkpt lat="45.4589522" lon="11.3932089"><ele>51.0</ele><time>2026-04-26T15:45:54.427Z</time></trkpt><trkpt lat="45.4588281" lon="11.392967"><ele>51.0</ele><time>2026-04-26T15:45:55.425Z</time></trkpt><trkpt lat="45.4587059" lon="11.3927221"><ele>51.0</ele><time>2026-04-26T15:45:56.426Z</time></trkpt><trkpt lat="45.4585892" lon="11.3924839"><ele>51.66666666666667</ele><time>2026-04-26T15:45:57.424Z</time></trkpt><trkpt lat="45.4584798" lon="11.3922682"><ele>52.333333333333336</ele><time>2026-04-26T15:45:58.425Z</time></trkpt><trkpt lat="45.4583767" lon="11.392063"><ele>53.0</ele><time>2026-04-26T15:45:59.425Z</time></trkpt><trkpt lat="45.4582836" lon="11.3918655"><ele>53.0</ele><time>2026-04-26T15:46:00.428Z</time></trkpt><trkpt lat="45.4582082" lon="11.3916707"><ele>53.0</ele><time>2026-04-26T15:46:01.427Z</time></trkpt><trkpt lat="45.4581485" lon="11.39148"><ele>53.0</ele><time>2026-04-26T15:46:02.426Z</time></trkpt><trkpt lat="45.4580979" lon="11.3912949"><ele>53.0</ele><time>2026-04-26T15:46:03.425Z</time></trkpt><trkpt lat="45.4580564" lon="11.3911192"><ele>53.25</ele><time>2026-04-26T15:46:04.425Z</time></trkpt><trkpt lat="45.4580215" lon="11.3909511"><ele>53.5</ele><time>2026-04-26T15:46:05.425Z</time></trkpt><trkpt lat="45.4579935" lon="11.3907861"><ele>53.75</ele><time>2026-04-26T15:46:06.424Z</time></trkpt><trkpt lat="45.4579808" lon="11.3906194"><ele>54.0</ele><time>2026-04-26T15:46:07.43Z</time></trkpt><trkpt lat="45.4579885" lon="11.3904679"><ele>54.6</ele><time>2026-04-26T15:46:08.428Z</time></trkpt><trkpt lat="45.4580091" lon="11.3903138"><ele>55.2</ele><time>2026-04-26T15:46:09.426Z</time></trkpt><trkpt lat="45.4580251" lon="11.3901705"><ele>55.800000000000004</ele><time>2026-04-26T15:46:10.425Z</time></trkpt><trkpt lat="45.4580221" lon="11.3900379"><ele>56.400000000000006</ele><time>2026-04-26T15:46:11.425Z</time></trkpt><trkpt lat="45.4579995" lon="11.3899138"><ele>57.0</ele><time>2026-04-26T15:46:12.426Z</time></trkpt><trkpt lat="45.4579547" lon="11.389813"><ele>56.6</ele><time>2026-04-26T15:46:13.426Z</time></trkpt><trkpt lat="45.4578884" lon="11.3897397"><ele>56.2</ele><time>2026-04-26T15:46:14.425Z</time></trkpt><trkpt lat="45.4578025" lon="11.3896978"><ele>55.8</ele><time>2026-04-26T15:46:15.424Z</time></trkpt><trkpt lat="45.4577003" lon="11.3896899"><ele>55.4</ele><time>2026-04-26T15:46:16.432Z</time></trkpt><trkpt lat="45.4576097" lon="11.3897011"><ele>55.0</ele><time>2026-04-26T15:46:17.428Z</time></trkpt><trkpt lat="45.4575145" lon="11.3897183"><ele>55.0</ele><time>2026-04-26T15:46:18.425Z</time></trkpt><trkpt lat="45.4574124" lon="11.3897176"><ele>55.0</ele><time>2026-04-26T15:46:19.425Z</time></trkpt><trkpt lat="45.4572815" lon="11.3897166"><ele>55.0</ele><time>2026-04-26T15:46:20.425Z</time></trkpt><trkpt lat="45.4571488" lon="11.3897201"><ele>55.0</ele><time>2026-04-26T15:46:21.427Z</time></trkpt><trkpt lat="45.4570191" lon="11.3897303"><ele>54.75</ele><time>2026-04-26T15:46:22.426Z</time></trkpt><trkpt lat="45.4568909" lon="11.3897466"><ele>54.5</ele><time>2026-04-26T15:46:23.425Z</time></trkpt><trkpt lat="45.456762" lon="11.389768"><ele>54.25</ele><time>2026-04-26T15:46:24.428Z</time></trkpt><trkpt lat="45.456643" lon="11.3897877"><ele>54.0</ele><time>2026-04-26T15:46:25.425Z</time></trkpt><trkpt lat="45.4565342" lon="11.3898129"><ele>54.0</ele><time>2026-04-26T15:46:26.425Z</time></trkpt><trkpt lat="45.4564206" lon="11.3898395"><ele>54.0</ele><time>2026-04-26T15:46:27.427Z</time></trkpt><trkpt lat="45.4563013" lon="11.3898691"><ele>54.0</ele><time>2026-04-26T15:46:28.426Z</time></trkpt><trkpt lat="45.45618" lon="11.3898948"><ele>54.0</ele><time>2026-04-26T15:46:29.429Z</time></trkpt><trkpt lat="45.4560588" lon="11.3899242"><ele>53.75</ele><time>2026-04-26T15:46:30.433Z</time></trkpt><trkpt lat="45.455926" lon="11.3899661"><ele>53.5</ele><time>2026-04-26T15:46:31.427Z</time></trkpt><trkpt lat="45.4557805" lon="11.3900025"><ele>53.25</ele><time>2026-04-26T15:46:32.425Z</time></trkpt><trkpt lat="45.4556311" lon="11.3900331"><ele>53.0</ele><time>2026-04-26T15:46:33.424Z</time></trkpt><trkpt lat="45.455486" lon="11.3900555"><ele>53.0</ele><time>2026-04-26T15:46:34.424Z</time></trkpt><trkpt lat="45.4553491" lon="11.3900721"><ele>53.0</ele><time>2026-04-26T15:46:35.424Z</time></trkpt><trkpt lat="45.4552131" lon="11.3900697"><ele>53.0</ele><time>2026-04-26T15:46:36.425Z</time></trkpt><trkpt lat="45.4550806" lon="11.39003"><ele>53.0</ele><time>2026-04-26T15:46:37.426Z</time></trkpt><trkpt lat="45.4549545" lon="11.38997"><ele>53.0</ele><time>2026-04-26T15:46:38.426Z</time></trkpt><trkpt lat="45.4548371" lon="11.3898905"><ele>53.0</ele><time>2026-04-26T15:46:39.424Z</time></trkpt><trkpt lat="45.4547241" lon="11.389801"><ele>53.0</ele><time>2026-04-26T15:46:40.425Z</time></trkpt><trkpt lat="45.4546096" lon="11.3896916"><ele>53.0</ele><time>2026-04-26T15:46:41.426Z</time></trkpt><trkpt lat="45.4544922" lon="11.3895646"><ele>53.0</ele><time>2026-04-26T15:46:42.426Z</time></trkpt><trkpt lat="45.4543665" lon="11.3894185"><ele>53.0</ele><time>2026-04-26T15:46:43.439Z</time></trkpt><trkpt lat="45.4542354" lon="11.3892556"><ele>53.0</ele><time>2026-04-26T15:46:44.426Z</time></trkpt><trkpt lat="45.4540939" lon="11.3890922"><ele>53.0</ele><time>2026-04-26T15:46:45.424Z</time></trkpt><trkpt lat="45.4539543" lon="11.3889178"><ele>53.0</ele><time>2026-04-26T15:46:46.427Z</time></trkpt><trkpt lat="45.4538089" lon="11.3887358"><ele>53.0</ele><time>2026-04-26T15:46:47.425Z</time></trkpt><trkpt lat="45.453662" lon="11.3885427"><ele>53.0</ele><time>2026-04-26T15:46:48.425Z</time></trkpt><trkpt lat="45.4535139" lon="11.3883437"><ele>53.0</ele><time>2026-04-26T15:46:49.428Z</time></trkpt><trkpt lat="45.4533636" lon="11.3881433"><ele>53.0</ele><time>2026-04-26T15:46:50.425Z</time></trkpt><trkpt lat="45.4532095" lon="11.3879471"><ele>53.0</ele><time>2026-04-26T15:46:51.426Z</time></trkpt><trkpt lat="45.453057" lon="11.3877447"><ele>53.0</ele><time>2026-04-26T15:46:52.425Z</time></trkpt><trkpt lat="45.4529031" lon="11.3875442"><ele>53.0</ele><time>2026-04-26T15:46:53.428Z</time></trkpt><trkpt lat="45.452753" lon="11.3873571"><ele>53.0</ele><time>2026-04-26T15:46:54.427Z</time></trkpt><trkpt lat="45.4526125" lon="11.3871718"><ele>53.0</ele><time>2026-04-26T15:46:55.424Z</time></trkpt><trkpt lat="45.4524751" lon="11.3869924"><ele>53.0</ele><time>2026-04-26T15:46:56.424Z</time></trkpt><trkpt lat="45.4523399" lon="11.3868164"><ele>53.0</ele><time>2026-04-26T15:46:57.426Z</time></trkpt><trkpt lat="45.4522056" lon="11.3866483"><ele>53.0</ele><time>2026-04-26T15:46:58.431Z</time></trkpt><trkpt lat="45.4520725" lon="11.3864844"><ele>53.0</ele><time>2026-04-26T15:46:59.424Z</time></trkpt><trkpt lat="45.4519447" lon="11.3863187"><ele>52.66666666666667</ele><time>2026-04-26T15:47:00.436Z</time></trkpt><trkpt lat="45.4518137" lon="11.386154"><ele>52.33333333333333</ele><time>2026-04-26T15:47:01.426Z</time></trkpt><trkpt lat="45.4516848" lon="11.385982"><ele>52.0</ele><time>2026-04-26T15:47:02.424Z</time></trkpt><trkpt lat="45.451559" lon="11.3858036"><ele>52.0</ele><time>2026-04-26T15:47:03.425Z</time></trkpt><trkpt lat="45.4514347" lon="11.3856185"><ele>52.0</ele><time>2026-04-26T15:47:04.424Z</time></trkpt><trkpt lat="45.4513085" lon="11.385431"><ele>52.0</ele><time>2026-04-26T15:47:05.425Z</time></trkpt><trkpt lat="45.4511847" lon="11.3852333"><ele>51.0</ele><time>2026-04-26T15:47:06.424Z</time></trkpt><trkpt lat="45.4510597" lon="11.3850364"><ele>50.0</ele><time>2026-04-26T15:47:07.425Z</time></trkpt><trkpt lat="45.4509382" lon="11.3848341"><ele>49.0</ele><time>2026-04-26T15:47:08.425Z</time></trkpt><trkpt lat="45.4508175" lon="11.3846335"><ele>49.0</ele><time>2026-04-26T15:47:09.424Z</time></trkpt><trkpt lat="45.4507077" lon="11.384446"><ele>49.0</ele><time>2026-04-26T15:47:10.427Z</time></trkpt><trkpt lat="45.4505983" lon="11.38426"><ele>49.0</ele><time>2026-04-26T15:47:11.426Z</time></trkpt><trkpt lat="45.4504873" lon="11.384065"><ele>48.666666666666664</ele><time>2026-04-26T15:47:12.425Z</time></trkpt><trkpt lat="45.4503719" lon="11.3838717"><ele>48.33333333333333</ele><time>2026-04-26T15:47:13.424Z</time></trkpt><trkpt lat="45.4502524" lon="11.3836735"><ele>48.0</ele><time>2026-04-26T15:47:14.426Z</time></trkpt><trkpt lat="45.4501169" lon="11.3834668"><ele>48.0</ele><time>2026-04-26T15:47:15.425Z</time></trkpt><trkpt lat="45.4499741" lon="11.3832469"><ele>48.0</ele><time>2026-04-26T15:47:16.43Z</time></trkpt><trkpt lat="45.4498281" lon="11.3830139"><ele>48.0</ele><time>2026-04-26T15:47:17.424Z</time></trkpt><trkpt lat="45.449679" lon="11.3827712"><ele>48.0</ele><time>2026-04-26T15:47:18.424Z</time></trkpt><trkpt lat="45.44952" lon="11.3825382"><ele>48.0</ele><time>2026-04-26T15:47:19.425Z</time></trkpt><trkpt lat="45.4493671" lon="11.3823195"><ele>48.0</ele><time>2026-04-26T15:47:20.424Z</time></trkpt><trkpt lat="45.4492211" lon="11.3821195"><ele>47.333333333333336</ele><time>2026-04-26T15:47:21.425Z</time></trkpt><trkpt lat="45.4490808" lon="11.3819298"><ele>46.66666666666667</ele><time>2026-04-26T15:47:22.424Z</time></trkpt><trkpt lat="45.4489482" lon="11.3817479"><ele>46.0</ele><time>2026-04-26T15:47:23.425Z</time></trkpt><trkpt lat="45.4488117" lon="11.3815743"><ele>46.0</ele><time>2026-04-26T15:47:24.426Z</time></trkpt><trkpt lat="45.4486769" lon="11.3813935"><ele>46.0</ele><time>2026-04-26T15:47:25.428Z</time></trkpt><trkpt lat="45.4485413" lon="11.3812161"><ele>46.0</ele><time>2026-04-26T15:47:26.425Z</time></trkpt><trkpt lat="45.4484074" lon="11.3810407"><ele>46.333333333333336</ele><time>2026-04-26T15:47:27.427Z</time></trkpt><trkpt lat="45.448267" lon="11.380864"><ele>46.666666666666664</ele><time>2026-04-26T15:47:28.429Z</time></trkpt><trkpt lat="45.4481226" lon="11.3806728"><ele>47.0</ele><time>2026-04-26T15:47:29.424Z</time></trkpt><trkpt lat="45.4479706" lon="11.3804666"><ele>47.666666666666664</ele><time>2026-04-26T15:47:30.428Z</time></trkpt><trkpt lat="45.4478184" lon="11.3802434"><ele>48.33333333333333</ele><time>2026-04-26T15:47:31.429Z</time></trkpt><trkpt lat="45.4476653" lon="11.3800134"><ele>49.0</ele><time>2026-04-26T15:47:32.427Z</time></trkpt><trkpt lat="45.4475087" lon="11.3797875"><ele>48.33333333333333</ele><time>2026-04-26T15:47:33.425Z</time></trkpt><trkpt lat="45.4473552" lon="11.3795616"><ele>47.666666666666664</ele><time>2026-04-26T15:47:34.427Z</time></trkpt><trkpt lat="45.4471969" lon="11.3793334"><ele>47.0</ele><time>2026-04-26T15:47:35.426Z</time></trkpt><trkpt lat="45.4470409" lon="11.3791001"><ele>46.33333333333333</ele><time>2026-04-26T15:47:36.426Z</time></trkpt><trkpt lat="45.4468822" lon="11.3788852"><ele>45.666666666666664</ele><time>2026-04-26T15:47:37.427Z</time></trkpt><trkpt lat="45.4467241" lon="11.3786675"><ele>45.0</ele><time>2026-04-26T15:47:38.426Z</time></trkpt><trkpt lat="45.4465683" lon="11.3784473"><ele>44.666666666666664</ele><time>2026-04-26T15:47:39.425Z</time></trkpt><trkpt lat="45.4464108" lon="11.3782308"><ele>44.33333333333333</ele><time>2026-04-26T15:47:40.424Z</time></trkpt><trkpt lat="45.4462536" lon="11.3780109"><ele>44.0</ele><time>2026-04-26T15:47:41.425Z</time></trkpt><trkpt lat="45.446099" lon="11.3777924"><ele>44.0</ele><time>2026-04-26T15:47:42.426Z</time></trkpt><trkpt lat="45.4459463" lon="11.3775706"><ele>44.0</ele><time>2026-04-26T15:47:43.426Z</time></trkpt><trkpt lat="45.4457961" lon="11.3773441"><ele>44.0</ele><time>2026-04-26T15:47:44.424Z</time></trkpt><trkpt lat="45.4456508" lon="11.3771103"><ele>44.33333333333333</ele><time>2026-04-26T15:47:45.426Z</time></trkpt><trkpt lat="45.4455103" lon="11.376867"><ele>44.666666666666664</ele><time>2026-04-26T15:47:46.427Z</time></trkpt><trkpt lat="45.4453753" lon="11.3766283"><ele>45.0</ele><time>2026-04-26T15:47:47.424Z</time></trkpt><trkpt lat="45.4452437" lon="11.3763958"><ele>45.0</ele><time>2026-04-26T15:47:48.429Z</time></trkpt><trkpt lat="45.4451211" lon="11.3761783"><ele>45.0</ele><time>2026-04-26T15:47:49.426Z</time></trkpt><trkpt lat="45.4450032" lon="11.3759648"><ele>45.0</ele><time>2026-04-26T15:47:50.425Z</time></trkpt><trkpt lat="45.4448942" lon="11.3757587"><ele>45.0</ele><time>2026-04-26T15:47:51.425Z</time></trkpt><trkpt lat="45.4447909" lon="11.3755596"><ele>45.0</ele><time>2026-04-26T15:47:52.424Z</time></trkpt><trkpt lat="45.4446938" lon="11.3753757"><ele>45.0</ele><time>2026-04-26T15:47:53.426Z</time></trkpt><trkpt lat="45.4446059" lon="11.3752104"><ele>45.0</ele><time>2026-04-26T15:47:54.426Z</time></trkpt><trkpt lat="45.4445346" lon="11.3750686"><ele>45.0</ele><time>2026-04-26T15:47:55.426Z</time></trkpt><trkpt lat="45.4444923" lon="11.374938"><ele>45.0</ele><time>2026-04-26T15:47:56.427Z</time></trkpt><trkpt lat="45.4444772" lon="11.3748179"><ele>45.0</ele><time>2026-04-26T15:47:57.427Z</time></trkpt><trkpt lat="45.4444903" lon="11.3747034"><ele>45.0</ele><time>2026-04-26T15:47:58.424Z</time></trkpt><trkpt lat="45.4445205" lon="11.3745854"><ele>45.0</ele><time>2026-04-26T15:47:59.425Z</time></trkpt><trkpt lat="45.4445614" lon="11.3744414"><ele>45.0</ele><time>2026-04-26T15:48:00.424Z</time></trkpt><trkpt lat="45.4445772" lon="11.3742683"><ele>45.0</ele><time>2026-04-26T15:48:01.425Z</time></trkpt><trkpt lat="45.4445427" lon="11.3741175"><ele>45.0</ele><time>2026-04-26T15:48:02.425Z</time></trkpt><trkpt lat="45.4444668" lon="11.374015"><ele>45.0</ele><time>2026-04-26T15:48:03.428Z</time></trkpt><trkpt lat="45.4443627" lon="11.3739602"><ele>45.0</ele><time>2026-04-26T15:48:04.428Z</time></trkpt><trkpt lat="45.4442201" lon="11.3739615"><ele>45.0</ele><time>2026-04-26T15:48:05.43Z</time></trkpt><trkpt lat="45.4440944" lon="11.3739334"><ele>45.0</ele><time>2026-04-26T15:48:06.425Z</time></trkpt><trkpt lat="45.4439726" lon="11.37384"><ele>45.0</ele><time>2026-04-26T15:48:07.43Z</time></trkpt><trkpt lat="45.4438575" lon="11.3736915"><ele>45.333333333333336</ele><time>2026-04-26T15:48:08.43Z</time></trkpt><trkpt lat="45.4437483" lon="11.3735086"><ele>45.66666666666667</ele><time>2026-04-26T15:48:09.434Z</time></trkpt><trkpt lat="45.4436451" lon="11.3733128"><ele>46.0</ele><time>2026-04-26T15:48:10.427Z</time></trkpt><trkpt lat="45.4435399" lon="11.3731098"><ele>45.333333333333336</ele><time>2026-04-26T15:48:11.427Z</time></trkpt><trkpt lat="45.4434289" lon="11.3729073"><ele>44.666666666666664</ele><time>2026-04-26T15:48:12.425Z</time></trkpt><trkpt lat="45.4433139" lon="11.3726884"><ele>44.0</ele><time>2026-04-26T15:48:13.424Z</time></trkpt><trkpt lat="45.4432008" lon="11.3724737"><ele>44.0</ele><time>2026-04-26T15:48:14.427Z</time></trkpt><trkpt lat="45.4430855" lon="11.3722519"><ele>44.0</ele><time>2026-04-26T15:48:15.425Z</time></trkpt><trkpt lat="45.4429713" lon="11.3720301"><ele>44.0</ele><time>2026-04-26T15:48:16.424Z</time></trkpt><trkpt lat="45.4428526" lon="11.3718126"><ele>43.33333333333333</ele><time>2026-04-26T15:48:17.426Z</time></trkpt><trkpt lat="45.4427282" lon="11.3715999"><ele>42.666666666666664</ele><time>2026-04-26T15:48:18.425Z</time></trkpt><trkpt lat="45.4425911" lon="11.3714"><ele>42.0</ele><time>2026-04-26T15:48:19.424Z</time></trkpt><trkpt lat="45.4424419" lon="11.3712118"><ele>42.0</ele><time>2026-04-26T15:48:20.426Z</time></trkpt><trkpt lat="45.4422813" lon="11.3710345"><ele>42.0</ele><time>2026-04-26T15:48:21.426Z</time></trkpt><trkpt lat="45.4421125" lon="11.3708771"><ele>42.0</ele><time>2026-04-26T15:48:22.434Z</time></trkpt><trkpt lat="45.4419309" lon="11.3707345"><ele>42.0</ele><time>2026-04-26T15:48:23.425Z</time></trkpt><trkpt lat="45.4417392" lon="11.3706017"><ele>42.0</ele><time>2026-04-26T15:48:24.425Z</time></trkpt><trkpt lat="45.4415481" lon="11.3704688"><ele>42.0</ele><time>2026-04-26T15:48:25.425Z</time></trkpt><trkpt lat="45.441357" lon="11.3703327"><ele>42.666666666666664</ele><time>2026-04-26T15:48:26.429Z</time></trkpt><trkpt lat="45.4411643" lon="11.3701918"><ele>43.33333333333333</ele><time>2026-04-26T15:48:27.426Z</time></trkpt><trkpt lat="45.440972" lon="11.3700463"><ele>44.0</ele><time>2026-04-26T15:48:28.426Z</time></trkpt><trkpt lat="45.4408031" lon="11.3698666"><ele>43.0</ele><time>2026-04-26T15:48:29.426Z</time></trkpt><trkpt lat="45.4406402" lon="11.3696743"><ele>42.0</ele><time>2026-04-26T15:48:30.425Z</time></trkpt><trkpt lat="45.4404868" lon="11.3694661"><ele>41.0</ele><time>2026-04-26T15:48:31.425Z</time></trkpt><trkpt lat="45.440342" lon="11.3692426"><ele>41.0</ele><time>2026-04-26T15:48:32.425Z</time></trkpt><trkpt lat="45.4401924" lon="11.369008"><ele>41.0</ele><time>2026-04-26T15:48:33.427Z</time></trkpt><trkpt lat="45.4400442" lon="11.3687765"><ele>41.0</ele><time>2026-04-26T15:48:34.426Z</time></trkpt><trkpt lat="45.4398923" lon="11.368544"><ele>41.0</ele><time>2026-04-26T15:48:35.424Z</time></trkpt><trkpt lat="45.4397417" lon="11.3683055"><ele>41.0</ele><time>2026-04-26T15:48:36.425Z</time></trkpt><trkpt lat="45.439591" lon="11.3680702"><ele>41.0</ele><time>2026-04-26T15:48:37.426Z</time></trkpt><trkpt lat="45.4394422" lon="11.3678314"><ele>41.0</ele><time>2026-04-26T15:48:38.429Z</time></trkpt><trkpt lat="45.4392908" lon="11.3675947"><ele>41.0</ele><time>2026-04-26T15:48:39.425Z</time></trkpt><trkpt lat="45.4391434" lon="11.3673577"><ele>41.0</ele><time>2026-04-26T15:48:40.431Z</time></trkpt><trkpt lat="45.4390032" lon="11.3671199"><ele>40.666666666666664</ele><time>2026-04-26T15:48:41.424Z</time></trkpt><trkpt lat="45.4388738" lon="11.3668989"><ele>40.333333333333336</ele><time>2026-04-26T15:48:42.425Z</time></trkpt><trkpt lat="45.4387525" lon="11.3666839"><ele>40.0</ele><time>2026-04-26T15:48:43.426Z</time></trkpt><trkpt lat="45.4386374" lon="11.3664801"><ele>40.66666666666667</ele><time>2026-04-26T15:48:44.425Z</time></trkpt><trkpt lat="45.4385304" lon="11.3662863"><ele>41.333333333333336</ele><time>2026-04-26T15:48:45.429Z</time></trkpt><trkpt lat="45.4384223" lon="11.366093"><ele>42.0</ele><time>2026-04-26T15:48:46.426Z</time></trkpt><trkpt lat="45.4383137" lon="11.3658999"><ele>42.0</ele><time>2026-04-26T15:48:47.425Z</time></trkpt><trkpt lat="45.4382068" lon="11.3656917"><ele>42.0</ele><time>2026-04-26T15:48:48.424Z</time></trkpt><trkpt lat="45.438096" lon="11.3654889"><ele>42.0</ele><time>2026-04-26T15:48:49.426Z</time></trkpt><trkpt lat="45.4379842" lon="11.3652826"><ele>40.333333333333336</ele><time>2026-04-26T15:48:50.43Z</time></trkpt><trkpt lat="45.4378786" lon="11.3650807"><ele>38.66666666666667</ele><time>2026-04-26T15:48:51.425Z</time></trkpt><trkpt lat="45.4377737" lon="11.3648883"><ele>37.0</ele><time>2026-04-26T15:48:52.424Z</time></trkpt><trkpt lat="45.4376666" lon="11.3646942"><ele>36.333333333333336</ele><time>2026-04-26T15:48:53.426Z</time></trkpt><trkpt lat="45.4375583" lon="11.364499"><ele>35.666666666666664</ele><time>2026-04-26T15:48:54.425Z</time></trkpt><trkpt lat="45.4374458" lon="11.3643012"><ele>35.0</ele><time>2026-04-26T15:48:55.426Z</time></trkpt><trkpt lat="45.4373367" lon="11.3640978"><ele>35.0</ele><time>2026-04-26T15:48:56.424Z</time></trkpt><trkpt lat="45.4372248" lon="11.363889"><ele>35.0</ele><time>2026-04-26T15:48:57.424Z</time></trkpt><trkpt lat="45.4371105" lon="11.3636829"><ele>35.0</ele><time>2026-04-26T15:48:58.426Z</time></trkpt><trkpt lat="45.4369983" lon="11.3634704"><ele>36.0</ele><time>2026-04-26T15:48:59.425Z</time></trkpt><trkpt lat="45.4368847" lon="11.3632598"><ele>37.0</ele><time>2026-04-26T15:49:00.425Z</time></trkpt><trkpt lat="45.436774" lon="11.3630623"><ele>38.0</ele><time>2026-04-26T15:49:01.425Z</time></trkpt><trkpt lat="45.4366674" lon="11.362866"><ele>38.0</ele><time>2026-04-26T15:49:02.426Z</time></trkpt><trkpt lat="45.4365631" lon="11.362675"><ele>38.0</ele><time>2026-04-26T15:49:03.425Z</time></trkpt><trkpt lat="45.4364626" lon="11.3624935"><ele>38.0</ele><time>2026-04-26T15:49:04.425Z</time></trkpt><trkpt lat="45.4363626" lon="11.3623153"><ele>38.25</ele><time>2026-04-26T15:49:05.425Z</time></trkpt><trkpt lat="45.4362712" lon="11.3621482"><ele>38.5</ele><time>2026-04-26T15:49:06.425Z</time></trkpt><trkpt lat="45.4361852" lon="11.3619971"><ele>38.75</ele><time>2026-04-26T15:49:07.429Z</time></trkpt><trkpt lat="45.4361073" lon="11.3618503"><ele>39.0</ele><time>2026-04-26T15:49:08.425Z</time></trkpt><trkpt lat="45.4360301" lon="11.3617025"><ele>39.0</ele><time>2026-04-26T15:49:09.426Z</time></trkpt><trkpt lat="45.4359445" lon="11.3615476"><ele>39.0</ele><time>2026-04-26T15:49:10.426Z</time></trkpt><trkpt lat="45.4358609" lon="11.3613891"><ele>39.0</ele><time>2026-04-26T15:49:11.425Z</time></trkpt><trkpt lat="45.4357759" lon="11.3612282"><ele>39.0</ele><time>2026-04-26T15:49:12.428Z</time></trkpt><trkpt lat="45.4356898" lon="11.3610663"><ele>38.5</ele><time>2026-04-26T15:49:13.424Z</time></trkpt><trkpt lat="45.4356007" lon="11.3609023"><ele>38.0</ele><time>2026-04-26T15:49:14.43Z</time></trkpt><trkpt lat="45.4355098" lon="11.3607343"><ele>37.5</ele><time>2026-04-26T15:49:15.43Z</time></trkpt><trkpt lat="45.4354202" lon="11.360567"><ele>37.0</ele><time>2026-04-26T15:49:16.425Z</time></trkpt><trkpt lat="45.4353286" lon="11.3603961"><ele>37.0</ele><time>2026-04-26T15:49:17.426Z</time></trkpt><trkpt lat="45.4352346" lon="11.3602228"><ele>37.0</ele><time>2026-04-26T15:49:18.427Z</time></trkpt><trkpt lat="45.435133" lon="11.3600432"><ele>37.0</ele><time>2026-04-26T15:49:19.426Z</time></trkpt><trkpt lat="45.4350245" lon="11.3598461"><ele>36.66666666666667</ele><time>2026-04-26T15:49:20.424Z</time></trkpt><trkpt lat="45.4349095" lon="11.3596453"><ele>36.333333333333336</ele><time>2026-04-26T15:49:21.434Z</time></trkpt><trkpt lat="45.4347932" lon="11.3594412"><ele>36.0</ele><time>2026-04-26T15:49:22.424Z</time></trkpt><trkpt lat="45.4346709" lon="11.3592249"><ele>36.0</ele><time>2026-04-26T15:49:23.424Z</time></trkpt><trkpt lat="45.4345491" lon="11.3590057"><ele>36.0</ele><time>2026-04-26T15:49:24.424Z</time></trkpt><trkpt lat="45.4344254" lon="11.3587772"><ele>36.0</ele><time>2026-04-26T15:49:25.425Z</time></trkpt><trkpt lat="45.4343034" lon="11.3585414"><ele>37.0</ele><time>2026-04-26T15:49:26.429Z</time></trkpt><trkpt lat="45.434179" lon="11.3583054"><ele>38.0</ele><time>2026-04-26T15:49:27.425Z</time></trkpt><trkpt lat="45.4340553" lon="11.3580656"><ele>39.0</ele><time>2026-04-26T15:49:28.426Z</time></trkpt><trkpt lat="45.433929" lon="11.3578284"><ele>38.666666666666664</ele><time>2026-04-26T15:49:29.43Z</time></trkpt><trkpt lat="45.4338027" lon="11.3575831"><ele>38.33333333333333</ele><time>2026-04-26T15:49:30.424Z</time></trkpt><trkpt lat="45.433673" lon="11.3573428"><ele>38.0</ele><time>2026-04-26T15:49:31.425Z</time></trkpt><trkpt lat="45.4335403" lon="11.3571007"><ele>38.0</ele><time>2026-04-26T15:49:32.424Z</time></trkpt><trkpt lat="45.4334088" lon="11.3568593"><ele>38.0</ele><time>2026-04-26T15:49:33.424Z</time></trkpt><trkpt lat="45.4332775" lon="11.3566158"><ele>38.0</ele><time>2026-04-26T15:49:34.424Z</time></trkpt><trkpt lat="45.4331436" lon="11.3563655"><ele>38.0</ele><time>2026-04-26T15:49:35.424Z</time></trkpt><trkpt lat="45.4330085" lon="11.3561197"><ele>38.0</ele><time>2026-04-26T15:49:36.425Z</time></trkpt><trkpt lat="45.4328698" lon="11.3558684"><ele>38.0</ele><time>2026-04-26T15:49:37.427Z</time></trkpt><trkpt lat="45.4327304" lon="11.3556148"><ele>38.0</ele><time>2026-04-26T15:49:38.425Z</time></trkpt><trkpt lat="45.4325947" lon="11.3553554"><ele>38.0</ele><time>2026-04-26T15:49:39.424Z</time></trkpt><trkpt lat="45.4324581" lon="11.3550991"><ele>38.0</ele><time>2026-04-26T15:49:40.425Z</time></trkpt><trkpt lat="45.4323201" lon="11.3548425"><ele>38.0</ele><time>2026-04-26T15:49:41.425Z</time></trkpt><trkpt lat="45.4321815" lon="11.3545875"><ele>38.0</ele><time>2026-04-26T15:49:42.425Z</time></trkpt><trkpt lat="45.4320404" lon="11.3543293"><ele>38.0</ele><time>2026-04-26T15:49:43.426Z</time></trkpt><trkpt lat="45.4318998" lon="11.3540726"><ele>38.5</ele><time>2026-04-26T15:49:44.427Z</time></trkpt><trkpt lat="45.4317611" lon="11.3538139"><ele>39.0</ele><time>2026-04-26T15:49:45.425Z</time></trkpt><trkpt lat="45.4316196" lon="11.3535596"><ele>39.0</ele><time>2026-04-26T15:49:46.424Z</time></trkpt><trkpt lat="45.4314795" lon="11.353305"><ele>39.0</ele><time>2026-04-26T15:49:47.425Z</time></trkpt><trkpt lat="45.4313393" lon="11.3530467"><ele>38.5</ele><time>2026-04-26T15:49:48.423Z</time></trkpt><trkpt lat="45.4312007" lon="11.3527901"><ele>38.0</ele><time>2026-04-26T15:49:49.425Z</time></trkpt><trkpt lat="45.4310606" lon="11.3525345"><ele>38.0</ele><time>2026-04-26T15:49:50.423Z</time></trkpt><trkpt lat="45.4309196" lon="11.3522782"><ele>38.0</ele><time>2026-04-26T15:49:51.424Z</time></trkpt><trkpt lat="45.4307814" lon="11.3520287"><ele>38.0</ele><time>2026-04-26T15:49:52.423Z</time></trkpt><trkpt lat="45.4306437" lon="11.3517802"><ele>38.0</ele><time>2026-04-26T15:49:53.427Z</time></trkpt><trkpt lat="45.4305101" lon="11.3515324"><ele>38.0</ele><time>2026-04-26T15:49:54.425Z</time></trkpt><trkpt lat="45.4303804" lon="11.3512838"><ele>37.33333333333333</ele><time>2026-04-26T15:49:55.423Z</time></trkpt><trkpt lat="45.4302498" lon="11.3510403"><ele>36.666666666666664</ele><time>2026-04-26T15:49:56.423Z</time></trkpt><trkpt lat="45.4301173" lon="11.3507983"><ele>36.0</ele><time>2026-04-26T15:49:57.425Z</time></trkpt><trkpt lat="45.4299842" lon="11.3505499"><ele>36.333333333333336</ele><time>2026-04-26T15:49:58.424Z</time></trkpt><trkpt lat="45.4298484" lon="11.3503099"><ele>36.66666666666667</ele><time>2026-04-26T15:49:59.424Z</time></trkpt><trkpt lat="45.4297137" lon="11.3500661"><ele>37.0</ele><time>2026-04-26T15:50:00.423Z</time></trkpt><trkpt lat="45.4295799" lon="11.3498201"><ele>36.66666666666667</ele><time>2026-04-26T15:50:01.424Z</time></trkpt><trkpt lat="45.429447" lon="11.3495788"><ele>36.333333333333336</ele><time>2026-04-26T15:50:02.425Z</time></trkpt><trkpt lat="45.4293181" lon="11.3493399"><ele>36.0</ele><time>2026-04-26T15:50:03.429Z</time></trkpt><trkpt lat="45.4291893" lon="11.3490971"><ele>36.0</ele><time>2026-04-26T15:50:04.424Z</time></trkpt><trkpt lat="45.4290581" lon="11.348858"><ele>36.0</ele><time>2026-04-26T15:50:05.426Z</time></trkpt><trkpt lat="45.4289289" lon="11.3486226"><ele>36.0</ele><time>2026-04-26T15:50:06.425Z</time></trkpt><trkpt lat="45.4288079" lon="11.3484022"><ele>35.666666666666664</ele><time>2026-04-26T15:50:07.423Z</time></trkpt><trkpt lat="45.4286984" lon="11.3482066"><ele>35.33333333333333</ele><time>2026-04-26T15:50:08.425Z</time></trkpt><trkpt lat="45.4286042" lon="11.348031"><ele>35.0</ele><time>2026-04-26T15:50:09.424Z</time></trkpt><trkpt lat="45.4285185" lon="11.3478786"><ele>35.4</ele><time>2026-04-26T15:50:10.424Z</time></trkpt><trkpt lat="45.4284458" lon="11.3477478"><ele>35.8</ele><time>2026-04-26T15:50:11.423Z</time></trkpt><trkpt lat="45.4283868" lon="11.3476419"><ele>36.2</ele><time>2026-04-26T15:50:12.427Z</time></trkpt><trkpt lat="45.4283311" lon="11.3475415"><ele>36.6</ele><time>2026-04-26T15:50:13.425Z</time></trkpt><trkpt lat="45.4282698" lon="11.3474219"><ele>37.0</ele><time>2026-04-26T15:50:14.424Z</time></trkpt><trkpt lat="45.4281984" lon="11.3472901"><ele>36.75</ele><time>2026-04-26T15:50:15.425Z</time></trkpt><trkpt lat="45.4281179" lon="11.3471494"><ele>36.5</ele><time>2026-04-26T15:50:16.424Z</time></trkpt><trkpt lat="45.4280381" lon="11.3470006"><ele>36.25</ele><time>2026-04-26T15:50:17.425Z</time></trkpt><trkpt lat="45.4279541" lon="11.3468456"><ele>36.0</ele><time>2026-04-26T15:50:18.424Z</time></trkpt><trkpt lat="45.4278639" lon="11.3466782"><ele>36.0</ele><time>2026-04-26T15:50:19.425Z</time></trkpt><trkpt lat="45.4277674" lon="11.3464983"><ele>36.0</ele><time>2026-04-26T15:50:20.424Z</time></trkpt><trkpt lat="45.4276626" lon="11.3463096"><ele>36.0</ele><time>2026-04-26T15:50:21.428Z</time></trkpt><trkpt lat="45.4275569" lon="11.3461092"><ele>36.0</ele><time>2026-04-26T15:50:22.423Z</time></trkpt><trkpt lat="45.4274483" lon="11.3459095"><ele>36.0</ele><time>2026-04-26T15:50:23.425Z</time></trkpt><trkpt lat="45.4273379" lon="11.3457024"><ele>36.0</ele><time>2026-04-26T15:50:24.424Z</time></trkpt><trkpt lat="45.4272219" lon="11.3454896"><ele>36.0</ele><time>2026-04-26T15:50:25.426Z</time></trkpt><trkpt lat="45.4271012" lon="11.3452727"><ele>36.0</ele><time>2026-04-26T15:50:26.425Z</time></trkpt><trkpt lat="45.4269768" lon="11.3450476"><ele>36.0</ele><time>2026-04-26T15:50:27.425Z</time></trkpt><trkpt lat="45.4268482" lon="11.344814"><ele>36.0</ele><time>2026-04-26T15:50:28.425Z</time></trkpt><trkpt lat="45.4267205" lon="11.3445738"><ele>36.0</ele><time>2026-04-26T15:50:29.424Z</time></trkpt><trkpt lat="45.4265884" lon="11.3443343"><ele>36.0</ele><time>2026-04-26T15:50:30.423Z</time></trkpt><trkpt lat="45.4264547" lon="11.3440926"><ele>36.0</ele><time>2026-04-26T15:50:31.424Z</time></trkpt><trkpt lat="45.4263228" lon="11.3438446"><ele>36.0</ele><time>2026-04-26T15:50:32.425Z</time></trkpt><trkpt lat="45.4261881" lon="11.343596"><ele>36.0</ele><time>2026-04-26T15:50:33.424Z</time></trkpt><trkpt lat="45.4260536" lon="11.3433474"><ele>35.0</ele><time>2026-04-26T15:50:34.424Z</time></trkpt><trkpt lat="45.425919" lon="11.3430974"><ele>34.0</ele><time>2026-04-26T15:50:35.424Z</time></trkpt><trkpt lat="45.4257848" lon="11.3428483"><ele>33.0</ele><time>2026-04-26T15:50:36.424Z</time></trkpt><trkpt lat="45.4256524" lon="11.3425943"><ele>33.0</ele><time>2026-04-26T15:50:37.423Z</time></trkpt><trkpt lat="45.4255216" lon="11.3423524"><ele>33.0</ele><time>2026-04-26T15:50:38.424Z</time></trkpt><trkpt lat="45.4253909" lon="11.3421166"><ele>33.0</ele><time>2026-04-26T15:50:39.424Z</time></trkpt><trkpt lat="45.4252579" lon="11.3418753"><ele>33.666666666666664</ele><time>2026-04-26T15:50:40.424Z</time></trkpt><trkpt lat="45.4251241" lon="11.3416357"><ele>34.33333333333333</ele><time>2026-04-26T15:50:41.426Z</time></trkpt><trkpt lat="45.4249916" lon="11.341393"><ele>35.0</ele><time>2026-04-26T15:50:42.428Z</time></trkpt><trkpt lat="45.4248593" lon="11.3411547"><ele>35.0</ele><time>2026-04-26T15:50:43.423Z</time></trkpt><trkpt lat="45.4247294" lon="11.3409158"><ele>35.0</ele><time>2026-04-26T15:50:44.423Z</time></trkpt><trkpt lat="45.4246004" lon="11.3406729"><ele>35.0</ele><time>2026-04-26T15:50:45.424Z</time></trkpt><trkpt lat="45.4244687" lon="11.3404341"><ele>35.33333333333333</ele><time>2026-04-26T15:50:46.424Z</time></trkpt><trkpt lat="45.424339" lon="11.3401907"><ele>35.666666666666664</ele><time>2026-04-26T15:50:47.424Z</time></trkpt><trkpt lat="45.4242061" lon="11.3399473"><ele>36.0</ele><time>2026-04-26T15:50:48.424Z</time></trkpt><trkpt lat="45.4240663" lon="11.3397088"><ele>36.0</ele><time>2026-04-26T15:50:49.424Z</time></trkpt><trkpt lat="45.4239213" lon="11.3394737"><ele>36.0</ele><time>2026-04-26T15:50:50.424Z</time></trkpt><trkpt lat="45.4237684" lon="11.3392391"><ele>36.0</ele><time>2026-04-26T15:50:51.424Z</time></trkpt><trkpt lat="45.4236154" lon="11.3390049"><ele>36.0</ele><time>2026-04-26T15:50:52.423Z</time></trkpt><trkpt lat="45.4234624" lon="11.3387702"><ele>36.0</ele><time>2026-04-26T15:50:53.423Z</time></trkpt><trkpt lat="45.4233025" lon="11.338531"><ele>36.0</ele><time>2026-04-26T15:50:54.425Z</time></trkpt><trkpt lat="45.4231412" lon="11.3382826"><ele>36.0</ele><time>2026-04-26T15:50:55.424Z</time></trkpt><trkpt lat="45.4229729" lon="11.3380322"><ele>33.5</ele><time>2026-04-26T15:50:56.425Z</time></trkpt><trkpt lat="45.4228027" lon="11.3377771"><ele>31.0</ele><time>2026-04-26T15:50:57.424Z</time></trkpt><trkpt lat="45.4226316" lon="11.3375249"><ele>31.0</ele><time>2026-04-26T15:50:58.423Z</time></trkpt><trkpt lat="45.4224598" lon="11.3372712"><ele>31.0</ele><time>2026-04-26T15:50:59.425Z</time></trkpt><trkpt lat="45.4222872" lon="11.3370147"><ele>31.0</ele><time>2026-04-26T15:51:00.425Z</time></trkpt><trkpt lat="45.422117" lon="11.3367565"><ele>31.0</ele><time>2026-04-26T15:51:01.423Z</time></trkpt><trkpt lat="45.4219421" lon="11.336499"><ele>32.0</ele><time>2026-04-26T15:51:02.423Z</time></trkpt><trkpt lat="45.4217665" lon="11.3362413"><ele>33.0</ele><time>2026-04-26T15:51:03.423Z</time></trkpt><trkpt lat="45.4215954" lon="11.3359835"><ele>33.0</ele><time>2026-04-26T15:51:04.424Z</time></trkpt><trkpt lat="45.4214228" lon="11.3357298"><ele>33.0</ele><time>2026-04-26T15:51:05.423Z</time></trkpt><trkpt lat="45.4212529" lon="11.3354752"><ele>32.5</ele><time>2026-04-26T15:51:06.424Z</time></trkpt><trkpt lat="45.4210827" lon="11.3352243"><ele>32.0</ele><time>2026-04-26T15:51:07.425Z</time></trkpt><trkpt lat="45.4209133" lon="11.3349709"><ele>32.5</ele><time>2026-04-26T15:51:08.432Z</time></trkpt><trkpt lat="45.4207444" lon="11.3347175"><ele>33.0</ele><time>2026-04-26T15:51:09.424Z</time></trkpt><trkpt lat="45.4205772" lon="11.3344651"><ele>33.5</ele><time>2026-04-26T15:51:10.423Z</time></trkpt><trkpt lat="45.4204107" lon="11.334216"><ele>34.0</ele><time>2026-04-26T15:51:11.425Z</time></trkpt><trkpt lat="45.4202443" lon="11.3339703"><ele>33.5</ele><time>2026-04-26T15:51:12.424Z</time></trkpt><trkpt lat="45.4200764" lon="11.3337213"><ele>33.0</ele><time>2026-04-26T15:51:13.423Z</time></trkpt><trkpt lat="45.4199099" lon="11.3334736"><ele>33.0</ele><time>2026-04-26T15:51:14.424Z</time></trkpt><trkpt lat="45.4197442" lon="11.3332257"><ele>33.0</ele><time>2026-04-26T15:51:15.431Z</time></trkpt><trkpt lat="45.4195755" lon="11.3329769"><ele>33.0</ele><time>2026-04-26T15:51:16.423Z</time></trkpt><trkpt lat="45.4194077" lon="11.3327226"><ele>33.0</ele><time>2026-04-26T15:51:17.424Z</time></trkpt><trkpt lat="45.4192424" lon="11.3324731"><ele>33.0</ele><time>2026-04-26T15:51:18.425Z</time></trkpt><trkpt lat="45.4190747" lon="11.3322237"><ele>33.0</ele><time>2026-04-26T15:51:19.425Z</time></trkpt><trkpt lat="45.4189084" lon="11.3319784"><ele>32.0</ele><time>2026-04-26T15:51:20.424Z</time></trkpt><trkpt lat="45.4187427" lon="11.3317275"><ele>31.0</ele><time>2026-04-26T15:51:21.425Z</time></trkpt><trkpt lat="45.4185774" lon="11.3314759"><ele>31.0</ele><time>2026-04-26T15:51:22.424Z</time></trkpt><trkpt lat="45.4184096" lon="11.3312261"><ele>31.0</ele><time>2026-04-26T15:51:23.423Z</time></trkpt><trkpt lat="45.4182437" lon="11.3309794"><ele>31.0</ele><time>2026-04-26T15:51:24.424Z</time></trkpt><trkpt lat="45.4180785" lon="11.3307321"><ele>31.0</ele><time>2026-04-26T15:51:25.424Z</time></trkpt><trkpt lat="45.4179131" lon="11.3304876"><ele>30.5</ele><time>2026-04-26T15:51:26.423Z</time></trkpt><trkpt lat="45.4177483" lon="11.330244"><ele>30.0</ele><time>2026-04-26T15:51:27.422Z</time></trkpt><trkpt lat="45.4175865" lon="11.3300073"><ele>30.0</ele><time>2026-04-26T15:51:28.425Z</time></trkpt><trkpt lat="45.4174267" lon="11.3297727"><ele>30.0</ele><time>2026-04-26T15:51:29.425Z</time></trkpt><trkpt lat="45.4172694" lon="11.3295385"><ele>30.333333333333336</ele><time>2026-04-26T15:51:30.424Z</time></trkpt><trkpt lat="45.4171131" lon="11.3293111"><ele>30.666666666666668</ele><time>2026-04-26T15:51:31.423Z</time></trkpt><trkpt lat="45.4169578" lon="11.3290842"><ele>31.0</ele><time>2026-04-26T15:51:32.424Z</time></trkpt><trkpt lat="45.4168131" lon="11.328871"><ele>31.0</ele><time>2026-04-26T15:51:33.424Z</time></trkpt><trkpt lat="45.4166715" lon="11.3286625"><ele>31.0</ele><time>2026-04-26T15:51:34.425Z</time></trkpt><trkpt lat="45.4165312" lon="11.3284514"><ele>31.0</ele><time>2026-04-26T15:51:35.424Z</time></trkpt><trkpt lat="45.4163921" lon="11.3282432"><ele>31.0</ele><time>2026-04-26T15:51:36.423Z</time></trkpt><trkpt lat="45.4162563" lon="11.3280335"><ele>31.0</ele><time>2026-04-26T15:51:37.425Z</time></trkpt><trkpt lat="45.4161244" lon="11.3278186"><ele>31.0</ele><time>2026-04-26T15:51:38.423Z</time></trkpt><trkpt lat="45.4159979" lon="11.3275919"><ele>31.0</ele><time>2026-04-26T15:51:39.423Z</time></trkpt><trkpt lat="45.4158817" lon="11.3273596"><ele>31.0</ele><time>2026-04-26T15:51:40.424Z</time></trkpt><trkpt lat="45.4157769" lon="11.3271172"><ele>31.0</ele><time>2026-04-26T15:51:41.424Z</time></trkpt><trkpt lat="45.4156878" lon="11.3268747"><ele>31.0</ele><time>2026-04-26T15:51:42.423Z</time></trkpt><trkpt lat="45.4156075" lon="11.3266455"><ele>31.0</ele><time>2026-04-26T15:51:43.424Z</time></trkpt><trkpt lat="45.4155352" lon="11.3264253"><ele>31.0</ele><time>2026-04-26T15:51:44.423Z</time></trkpt><trkpt lat="45.4154648" lon="11.3262123"><ele>31.666666666666668</ele><time>2026-04-26T15:51:45.424Z</time></trkpt><trkpt lat="45.4153948" lon="11.3259948"><ele>32.333333333333336</ele><time>2026-04-26T15:51:46.425Z</time></trkpt><trkpt lat="45.4153267" lon="11.3257754"><ele>33.0</ele><time>2026-04-26T15:51:47.435Z</time></trkpt><trkpt lat="45.4152542" lon="11.3255532"><ele>33.0</ele><time>2026-04-26T15:51:48.425Z</time></trkpt><trkpt lat="45.4151906" lon="11.3253336"><ele>33.0</ele><time>2026-04-26T15:51:49.424Z</time></trkpt><trkpt lat="45.415129" lon="11.3251299"><ele>33.0</ele><time>2026-04-26T15:51:50.425Z</time></trkpt><trkpt lat="45.4150698" lon="11.324925"><ele>32.333333333333336</ele><time>2026-04-26T15:51:51.425Z</time></trkpt><trkpt lat="45.4150113" lon="11.3247173"><ele>31.666666666666668</ele><time>2026-04-26T15:51:52.424Z</time></trkpt><trkpt lat="45.4149518" lon="11.324513"><ele>31.0</ele><time>2026-04-26T15:51:53.424Z</time></trkpt><trkpt lat="45.4148895" lon="11.3243133"><ele>31.0</ele><time>2026-04-26T15:51:54.426Z</time></trkpt><trkpt lat="45.4148294" lon="11.3241088"><ele>31.0</ele><time>2026-04-26T15:51:55.425Z</time></trkpt><trkpt lat="45.4147675" lon="11.3239058"><ele>31.0</ele><time>2026-04-26T15:51:56.423Z</time></trkpt><trkpt lat="45.414708" lon="11.3236938"><ele>30.333333333333336</ele><time>2026-04-26T15:51:57.425Z</time></trkpt><trkpt lat="45.4146477" lon="11.3234809"><ele>29.666666666666664</ele><time>2026-04-26T15:51:58.424Z</time></trkpt><trkpt lat="45.4145815" lon="11.3232611"><ele>29.0</ele><time>2026-04-26T15:51:59.424Z</time></trkpt><trkpt lat="45.4145139" lon="11.3230396"><ele>29.0</ele><time>2026-04-26T15:52:00.425Z</time></trkpt><trkpt lat="45.4144506" lon="11.3228104"><ele>29.0</ele><time>2026-04-26T15:52:01.424Z</time></trkpt><trkpt lat="45.4143841" lon="11.3225781"><ele>29.0</ele><time>2026-04-26T15:52:02.423Z</time></trkpt><trkpt lat="45.4143136" lon="11.3223482"><ele>29.0</ele><time>2026-04-26T15:52:03.424Z</time></trkpt><trkpt lat="45.4142429" lon="11.3221122"><ele>29.0</ele><time>2026-04-26T15:52:04.425Z</time></trkpt><trkpt lat="45.4141747" lon="11.3218776"><ele>29.0</ele><time>2026-04-26T15:52:05.425Z</time></trkpt><trkpt lat="45.414104" lon="11.3216426"><ele>29.0</ele><time>2026-04-26T15:52:06.424Z</time></trkpt><trkpt lat="45.4140349" lon="11.3214056"><ele>29.0</ele><time>2026-04-26T15:52:07.425Z</time></trkpt><trkpt lat="45.4139675" lon="11.3211708"><ele>29.0</ele><time>2026-04-26T15:52:08.425Z</time></trkpt><trkpt lat="45.4139026" lon="11.320947"><ele>28.666666666666664</ele><time>2026-04-26T15:52:09.424Z</time></trkpt><trkpt lat="45.4138392" lon="11.3207283"><ele>28.333333333333336</ele><time>2026-04-26T15:52:10.423Z</time></trkpt><trkpt lat="45.4137745" lon="11.320505"><ele>28.0</ele><time>2026-04-26T15:52:11.425Z</time></trkpt><trkpt lat="45.4137068" lon="11.3202913"><ele>28.666666666666668</ele><time>2026-04-26T15:52:12.424Z</time></trkpt><trkpt lat="45.4136455" lon="11.3200771"><ele>29.333333333333336</ele><time>2026-04-26T15:52:13.425Z</time></trkpt><trkpt lat="45.4135844" lon="11.3198619"><ele>30.0</ele><time>2026-04-26T15:52:14.425Z</time></trkpt><trkpt lat="45.4135241" lon="11.3196516"><ele>30.333333333333336</ele><time>2026-04-26T15:52:15.425Z</time></trkpt><trkpt lat="45.4134599" lon="11.3194385"><ele>30.666666666666668</ele><time>2026-04-26T15:52:16.424Z</time></trkpt><trkpt lat="45.4133992" lon="11.3192226"><ele>31.0</ele><time>2026-04-26T15:52:17.424Z</time></trkpt><trkpt lat="45.4133391" lon="11.3190045"><ele>31.0</ele><time>2026-04-26T15:52:18.423Z</time></trkpt><trkpt lat="45.4132781" lon="11.3187853"><ele>31.0</ele><time>2026-04-26T15:52:19.424Z</time></trkpt><trkpt lat="45.4132133" lon="11.3185642"><ele>31.0</ele><time>2026-04-26T15:52:20.423Z</time></trkpt><trkpt lat="45.4131488" lon="11.3183449"><ele>31.0</ele><time>2026-04-26T15:52:21.425Z</time></trkpt><trkpt lat="45.4130874" lon="11.3181213"><ele>31.0</ele><time>2026-04-26T15:52:22.424Z</time></trkpt><trkpt lat="45.4130251" lon="11.3178992"><ele>31.0</ele><time>2026-04-26T15:52:23.423Z</time></trkpt><trkpt lat="45.4129557" lon="11.3176698"><ele>31.0</ele><time>2026-04-26T15:52:24.424Z</time></trkpt><trkpt lat="45.4128882" lon="11.3174417"><ele>31.0</ele><time>2026-04-26T15:52:25.425Z</time></trkpt><trkpt lat="45.4128223" lon="11.3172082"><ele>31.0</ele><time>2026-04-26T15:52:26.424Z</time></trkpt><trkpt lat="45.412752" lon="11.316979"><ele>30.666666666666668</ele><time>2026-04-26T15:52:27.424Z</time></trkpt><trkpt lat="45.4126855" lon="11.3167464"><ele>30.333333333333336</ele><time>2026-04-26T15:52:28.426Z</time></trkpt><trkpt lat="45.4126204" lon="11.3165134"><ele>30.0</ele><time>2026-04-26T15:52:29.424Z</time></trkpt><trkpt lat="45.412553" lon="11.3162822"><ele>30.0</ele><time>2026-04-26T15:52:30.423Z</time></trkpt><trkpt lat="45.412485" lon="11.3160491"><ele>30.0</ele><time>2026-04-26T15:52:31.424Z</time></trkpt><trkpt lat="45.4124171" lon="11.3158157"><ele>30.0</ele><time>2026-04-26T15:52:32.423Z</time></trkpt><trkpt lat="45.4123502" lon="11.315583"><ele>29.666666666666664</ele><time>2026-04-26T15:52:33.424Z</time></trkpt><trkpt lat="45.4122823" lon="11.3153533"><ele>29.333333333333332</ele><time>2026-04-26T15:52:34.424Z</time></trkpt><trkpt lat="45.412215" lon="11.3151243"><ele>29.0</ele><time>2026-04-26T15:52:35.424Z</time></trkpt><trkpt lat="45.4121465" lon="11.3148928"><ele>28.666666666666664</ele><time>2026-04-26T15:52:36.424Z</time></trkpt><trkpt lat="45.412079" lon="11.3146629"><ele>28.333333333333336</ele><time>2026-04-26T15:52:37.425Z</time></trkpt><trkpt lat="45.4120091" lon="11.3144309"><ele>28.0</ele><time>2026-04-26T15:52:38.424Z</time></trkpt><trkpt lat="45.4119439" lon="11.3141959"><ele>28.0</ele><time>2026-04-26T15:52:39.43Z</time></trkpt><trkpt lat="45.411877" lon="11.3139601"><ele>28.0</ele><time>2026-04-26T15:52:40.424Z</time></trkpt><trkpt lat="45.4118077" lon="11.3137247"><ele>28.0</ele><time>2026-04-26T15:52:41.423Z</time></trkpt><trkpt lat="45.4117412" lon="11.313486"><ele>28.0</ele><time>2026-04-26T15:52:42.424Z</time></trkpt><trkpt lat="45.4116686" lon="11.3132481"><ele>28.0</ele><time>2026-04-26T15:52:43.424Z</time></trkpt><trkpt lat="45.4115949" lon="11.3130118"><ele>28.0</ele><time>2026-04-26T15:52:44.426Z</time></trkpt><trkpt lat="45.4115215" lon="11.3127717"><ele>28.0</ele><time>2026-04-26T15:52:45.431Z</time></trkpt><trkpt lat="45.4114511" lon="11.3125294"><ele>28.0</ele><time>2026-04-26T15:52:46.424Z</time></trkpt><trkpt lat="45.411379" lon="11.3122867"><ele>28.0</ele><time>2026-04-26T15:52:47.425Z</time></trkpt><trkpt lat="45.4113069" lon="11.3120354"><ele>28.0</ele><time>2026-04-26T15:52:48.424Z</time></trkpt><trkpt lat="45.4112369" lon="11.3117892"><ele>28.0</ele><time>2026-04-26T15:52:49.424Z</time></trkpt><trkpt lat="45.4111666" lon="11.311545"><ele>28.0</ele><time>2026-04-26T15:52:50.425Z</time></trkpt><trkpt lat="45.4110947" lon="11.3113025"><ele>28.666666666666668</ele><time>2026-04-26T15:52:51.423Z</time></trkpt><trkpt lat="45.4110262" lon="11.3110711"><ele>29.333333333333336</ele><time>2026-04-26T15:52:52.425Z</time></trkpt><trkpt lat="45.4109585" lon="11.3108487"><ele>30.0</ele><time>2026-04-26T15:52:53.424Z</time></trkpt><trkpt lat="45.4108963" lon="11.3106238"><ele>30.666666666666664</ele><time>2026-04-26T15:52:54.423Z</time></trkpt><trkpt lat="45.41083" lon="11.3104057"><ele>31.333333333333332</ele><time>2026-04-26T15:52:55.424Z</time></trkpt><trkpt lat="45.4107656" lon="11.3101858"><ele>32.0</ele><time>2026-04-26T15:52:56.423Z</time></trkpt><trkpt lat="45.4107013" lon="11.3099717"><ele>32.0</ele><time>2026-04-26T15:52:57.425Z</time></trkpt><trkpt lat="45.4106412" lon="11.3097669"><ele>32.0</ele><time>2026-04-26T15:52:58.423Z</time></trkpt><trkpt lat="45.4105816" lon="11.3095581"><ele>32.0</ele><time>2026-04-26T15:52:59.423Z</time></trkpt><trkpt lat="45.4105255" lon="11.309357"><ele>31.0</ele><time>2026-04-26T15:53:00.425Z</time></trkpt><trkpt lat="45.4104673" lon="11.3091623"><ele>30.0</ele><time>2026-04-26T15:53:01.426Z</time></trkpt><trkpt lat="45.4104117" lon="11.3089726"><ele>29.0</ele><time>2026-04-26T15:53:02.424Z</time></trkpt><trkpt lat="45.4103609" lon="11.3087902"><ele>28.0</ele><time>2026-04-26T15:53:03.423Z</time></trkpt><trkpt lat="45.4103112" lon="11.3086171"><ele>28.0</ele><time>2026-04-26T15:53:04.423Z</time></trkpt><trkpt lat="45.410265" lon="11.3084499"><ele>28.0</ele><time>2026-04-26T15:53:05.423Z</time></trkpt><trkpt lat="45.4102183" lon="11.3082869"><ele>28.0</ele><time>2026-04-26T15:53:06.424Z</time></trkpt><trkpt lat="45.4101701" lon="11.3081306"><ele>28.0</ele><time>2026-04-26T15:53:07.423Z</time></trkpt><trkpt lat="45.4101275" lon="11.3079846"><ele>28.2</ele><time>2026-04-26T15:53:08.424Z</time></trkpt><trkpt lat="45.4100873" lon="11.3078412"><ele>28.4</ele><time>2026-04-26T15:53:09.424Z</time></trkpt><trkpt lat="45.4100469" lon="11.3077027"><ele>28.599999999999998</ele><time>2026-04-26T15:53:10.424Z</time></trkpt><trkpt lat="45.4100051" lon="11.3075622"><ele>28.799999999999997</ele><time>2026-04-26T15:53:11.424Z</time></trkpt><trkpt lat="45.4099667" lon="11.3074276"><ele>29.0</ele><time>2026-04-26T15:53:12.425Z</time></trkpt><trkpt lat="45.4099276" lon="11.3072859"><ele>29.0</ele><time>2026-04-26T15:53:13.428Z</time></trkpt><trkpt lat="45.4098822" lon="11.3071388"><ele>29.0</ele><time>2026-04-26T15:53:14.424Z</time></trkpt><trkpt lat="45.4098347" lon="11.3069771"><ele>29.0</ele><time>2026-04-26T15:53:15.423Z</time></trkpt><trkpt lat="45.4097832" lon="11.3068054"><ele>29.0</ele><time>2026-04-26T15:53:16.423Z</time></trkpt><trkpt lat="45.4097272" lon="11.3066245"><ele>29.0</ele><time>2026-04-26T15:53:17.425Z</time></trkpt><trkpt lat="45.4096707" lon="11.3064294"><ele>29.0</ele><time>2026-04-26T15:53:18.423Z</time></trkpt><trkpt lat="45.4096096" lon="11.3062198"><ele>29.0</ele><time>2026-04-26T15:53:19.424Z</time></trkpt><trkpt lat="45.4095488" lon="11.3060119"><ele>28.666666666666664</ele><time>2026-04-26T15:53:20.425Z</time></trkpt><trkpt lat="45.4094854" lon="11.305802"><ele>28.333333333333336</ele><time>2026-04-26T15:53:21.425Z</time></trkpt><trkpt lat="45.4094207" lon="11.3055825"><ele>28.0</ele><time>2026-04-26T15:53:22.424Z</time></trkpt><trkpt lat="45.4093539" lon="11.3053556"><ele>28.0</ele><time>2026-04-26T15:53:23.423Z</time></trkpt><trkpt lat="45.4092858" lon="11.3051253"><ele>28.0</ele><time>2026-04-26T15:53:24.423Z</time></trkpt><trkpt lat="45.4092146" lon="11.304883"><ele>28.0</ele><time>2026-04-26T15:53:25.425Z</time></trkpt><trkpt lat="45.4091424" lon="11.3046405"><ele>28.333333333333336</ele><time>2026-04-26T15:53:26.424Z</time></trkpt><trkpt lat="45.409067" lon="11.304381"><ele>28.666666666666664</ele><time>2026-04-26T15:53:27.424Z</time></trkpt><trkpt lat="45.4089949" lon="11.3041268"><ele>29.0</ele><time>2026-04-26T15:53:28.423Z</time></trkpt><trkpt lat="45.4089188" lon="11.3038708"><ele>29.0</ele><time>2026-04-26T15:53:29.422Z</time></trkpt><trkpt lat="45.408843" lon="11.3036137"><ele>29.0</ele><time>2026-04-26T15:53:30.425Z</time></trkpt><trkpt lat="45.4087671" lon="11.3033497"><ele>29.0</ele><time>2026-04-26T15:53:31.424Z</time></trkpt><trkpt lat="45.4086897" lon="11.3030907"><ele>29.0</ele><time>2026-04-26T15:53:32.422Z</time></trkpt><trkpt lat="45.4086182" lon="11.3028222"><ele>29.0</ele><time>2026-04-26T15:53:33.426Z</time></trkpt><trkpt lat="45.4085403" lon="11.3025574"><ele>29.0</ele><time>2026-04-26T15:53:34.423Z</time></trkpt><trkpt lat="45.4084636" lon="11.3022911"><ele>28.666666666666664</ele><time>2026-04-26T15:53:35.424Z</time></trkpt><trkpt lat="45.4083836" lon="11.302018"><ele>28.333333333333336</ele><time>2026-04-26T15:53:36.422Z</time></trkpt><trkpt lat="45.4083054" lon="11.3017468"><ele>28.0</ele><time>2026-04-26T15:53:37.424Z</time></trkpt><trkpt lat="45.4082282" lon="11.3014735"><ele>28.0</ele><time>2026-04-26T15:53:38.423Z</time></trkpt><trkpt lat="45.4081514" lon="11.3012064"><ele>28.0</ele><time>2026-04-26T15:53:39.424Z</time></trkpt><trkpt lat="45.4080753" lon="11.300944"><ele>28.0</ele><time>2026-04-26T15:53:40.423Z</time></trkpt><trkpt lat="45.4079989" lon="11.3006765"><ele>28.0</ele><time>2026-04-26T15:53:41.423Z</time></trkpt><trkpt lat="45.4079244" lon="11.3004188"><ele>28.0</ele><time>2026-04-26T15:53:42.423Z</time></trkpt><trkpt lat="45.4078521" lon="11.3001592"><ele>28.0</ele><time>2026-04-26T15:53:43.425Z</time></trkpt><trkpt lat="45.4077766" lon="11.2999023"><ele>28.0</ele><time>2026-04-26T15:53:44.424Z</time></trkpt><trkpt lat="45.4077041" lon="11.2996464"><ele>28.0</ele><time>2026-04-26T15:53:45.423Z</time></trkpt><trkpt lat="45.4076302" lon="11.2993953"><ele>28.0</ele><time>2026-04-26T15:53:46.423Z</time></trkpt><trkpt lat="45.4075564" lon="11.2991432"><ele>28.666666666666668</ele><time>2026-04-26T15:53:47.424Z</time></trkpt><trkpt lat="45.4074792" lon="11.2988921"><ele>29.333333333333336</ele><time>2026-04-26T15:53:48.422Z</time></trkpt><trkpt lat="45.4074102" lon="11.2986466"><ele>30.0</ele><time>2026-04-26T15:53:49.423Z</time></trkpt><trkpt lat="45.4073436" lon="11.2984193"><ele>30.0</ele><time>2026-04-26T15:53:50.425Z</time></trkpt><trkpt lat="45.4072806" lon="11.298205"><ele>30.0</ele><time>2026-04-26T15:53:51.423Z</time></trkpt><trkpt lat="45.4072252" lon="11.2980031"><ele>30.0</ele><time>2026-04-26T15:53:52.424Z</time></trkpt><trkpt lat="45.4071676" lon="11.2978049"><ele>29.75</ele><time>2026-04-26T15:53:53.424Z</time></trkpt><trkpt lat="45.4071079" lon="11.2976117"><ele>29.5</ele><time>2026-04-26T15:53:54.424Z</time></trkpt><trkpt lat="45.4070518" lon="11.297421"><ele>29.25</ele><time>2026-04-26T15:53:55.422Z</time></trkpt><trkpt lat="45.406999" lon="11.2972317"><ele>29.0</ele><time>2026-04-26T15:53:56.425Z</time></trkpt><trkpt lat="45.4069468" lon="11.2970552"><ele>29.0</ele><time>2026-04-26T15:53:57.424Z</time></trkpt><trkpt lat="45.4068927" lon="11.2968867"><ele>29.0</ele><time>2026-04-26T15:53:58.422Z</time></trkpt><trkpt lat="45.4068469" lon="11.296733"><ele>29.0</ele><time>2026-04-26T15:53:59.424Z</time></trkpt><trkpt lat="45.4068084" lon="11.2965989"><ele>29.0</ele><time>2026-04-26T15:54:00.422Z</time></trkpt><trkpt lat="45.4067874" lon="11.2964701"><ele>29.0</ele><time>2026-04-26T15:54:01.424Z</time></trkpt><trkpt lat="45.4067869" lon="11.2963499"><ele>28.999999999999996</ele><time>2026-04-26T15:54:02.424Z</time></trkpt><trkpt lat="45.4068033" lon="11.2962317"><ele>29.0</ele><time>2026-04-26T15:54:03.423Z</time></trkpt><trkpt lat="45.406818" lon="11.2961112"><ele>29.0</ele><time>2026-04-26T15:54:04.425Z</time></trkpt><trkpt lat="45.4068193" lon="11.295982"><ele>29.0</ele><time>2026-04-26T15:54:05.423Z</time></trkpt><trkpt lat="45.4067914" lon="11.2958618"><ele>28.999999999999996</ele><time>2026-04-26T15:54:06.423Z</time></trkpt><trkpt lat="45.4067374" lon="11.2957638"><ele>29.0</ele><time>2026-04-26T15:54:07.423Z</time></trkpt><trkpt lat="45.4066626" lon="11.2956866"><ele>29.0</ele><time>2026-04-26T15:54:08.424Z</time></trkpt><trkpt lat="45.4065968" lon="11.2956046"><ele>29.0</ele><time>2026-04-26T15:54:09.423Z</time></trkpt><trkpt lat="45.4065456" lon="11.295502"><ele>29.0</ele><time>2026-04-26T15:54:10.425Z</time></trkpt><trkpt lat="45.4065055" lon="11.2953727"><ele>29.0</ele><time>2026-04-26T15:54:11.431Z</time></trkpt><trkpt lat="45.4064702" lon="11.2952048"><ele>29.0</ele><time>2026-04-26T15:54:12.423Z</time></trkpt><trkpt lat="45.4064371" lon="11.2950022"><ele>29.666666666666664</ele><time>2026-04-26T15:54:13.425Z</time></trkpt><trkpt lat="45.4064111" lon="11.2947777"><ele>30.333333333333336</ele><time>2026-04-26T15:54:14.427Z</time></trkpt><trkpt lat="45.4063865" lon="11.2945357"><ele>31.0</ele><time>2026-04-26T15:54:15.422Z</time></trkpt><trkpt lat="45.4063651" lon="11.2942794"><ele>31.0</ele><time>2026-04-26T15:54:16.423Z</time></trkpt><trkpt lat="45.4063462" lon="11.2940112"><ele>31.0</ele><time>2026-04-26T15:54:17.423Z</time></trkpt><trkpt lat="45.4063254" lon="11.2937411"><ele>31.0</ele><time>2026-04-26T15:54:18.427Z</time></trkpt><trkpt lat="45.4063013" lon="11.2934717"><ele>31.0</ele><time>2026-04-26T15:54:19.429Z</time></trkpt><trkpt lat="45.4062773" lon="11.2932006"><ele>31.0</ele><time>2026-04-26T15:54:20.423Z</time></trkpt><trkpt lat="45.4062512" lon="11.2929341"><ele>31.0</ele><time>2026-04-26T15:54:21.423Z</time></trkpt><trkpt lat="45.4062265" lon="11.2926679"><ele>31.0</ele><time>2026-04-26T15:54:22.424Z</time></trkpt><trkpt lat="45.4062015" lon="11.2923999"><ele>31.0</ele><time>2026-04-26T15:54:23.425Z</time></trkpt><trkpt lat="45.4061793" lon="11.29213"><ele>31.0</ele><time>2026-04-26T15:54:24.423Z</time></trkpt><trkpt lat="45.4061531" lon="11.2918629"><ele>30.333333333333336</ele><time>2026-04-26T15:54:25.424Z</time></trkpt><trkpt lat="45.4061272" lon="11.2915986"><ele>29.666666666666664</ele><time>2026-04-26T15:54:26.425Z</time></trkpt><trkpt lat="45.4061054" lon="11.291333"><ele>29.0</ele><time>2026-04-26T15:54:27.423Z</time></trkpt><trkpt lat="45.4060832" lon="11.2910743"><ele>29.0</ele><time>2026-04-26T15:54:28.423Z</time></trkpt><trkpt lat="45.4060624" lon="11.2908237"><ele>29.0</ele><time>2026-04-26T15:54:29.423Z</time></trkpt><trkpt lat="45.4060404" lon="11.2905782"><ele>29.0</ele><time>2026-04-26T15:54:30.424Z</time></trkpt><trkpt lat="45.4060185" lon="11.2903342"><ele>29.333333333333332</ele><time>2026-04-26T15:54:31.423Z</time></trkpt><trkpt lat="45.4059967" lon="11.2900931"><ele>29.666666666666664</ele><time>2026-04-26T15:54:32.424Z</time></trkpt><trkpt lat="45.4059761" lon="11.2898564"><ele>30.0</ele><time>2026-04-26T15:54:33.424Z</time></trkpt><trkpt lat="45.4059568" lon="11.289624"><ele>30.0</ele><time>2026-04-26T15:54:34.423Z</time></trkpt><trkpt lat="45.4059332" lon="11.2893928"><ele>30.0</ele><time>2026-04-26T15:54:35.424Z</time></trkpt><trkpt lat="45.4059085" lon="11.2891601"><ele>30.0</ele><time>2026-04-26T15:54:36.424Z</time></trkpt><trkpt lat="45.4058873" lon="11.2889265"><ele>29.333333333333336</ele><time>2026-04-26T15:54:37.423Z</time></trkpt><trkpt lat="45.4058666" lon="11.2886907"><ele>28.666666666666668</ele><time>2026-04-26T15:54:38.424Z</time></trkpt><trkpt lat="45.4058447" lon="11.2884582"><ele>28.0</ele><time>2026-04-26T15:54:39.424Z</time></trkpt><trkpt lat="45.4058209" lon="11.2882227"><ele>28.666666666666668</ele><time>2026-04-26T15:54:40.427Z</time></trkpt><trkpt lat="45.4057991" lon="11.2879786"><ele>29.333333333333336</ele><time>2026-04-26T15:54:41.424Z</time></trkpt><trkpt lat="45.4057739" lon="11.2877309"><ele>30.0</ele><time>2026-04-26T15:54:42.422Z</time></trkpt><trkpt lat="45.4057504" lon="11.2874776"><ele>30.0</ele><time>2026-04-26T15:54:43.423Z</time></trkpt><trkpt lat="45.4057244" lon="11.2872146"><ele>30.0</ele><time>2026-04-26T15:54:44.425Z</time></trkpt><trkpt lat="45.4056922" lon="11.2869491"><ele>30.0</ele><time>2026-04-26T15:54:45.422Z</time></trkpt><trkpt lat="45.4056609" lon="11.2866782"><ele>29.666666666666664</ele><time>2026-04-26T15:54:46.425Z</time></trkpt><trkpt lat="45.4056302" lon="11.2864024"><ele>29.333333333333332</ele><time>2026-04-26T15:54:47.422Z</time></trkpt><trkpt lat="45.4056026" lon="11.2861248"><ele>29.0</ele><time>2026-04-26T15:54:48.423Z</time></trkpt><trkpt lat="45.4055784" lon="11.2858394"><ele>29.333333333333332</ele><time>2026-04-26T15:54:49.425Z</time></trkpt><trkpt lat="45.4055552" lon="11.2855479"><ele>29.666666666666664</ele><time>2026-04-26T15:54:50.422Z</time></trkpt><trkpt lat="45.4055327" lon="11.2852498"><ele>30.0</ele><time>2026-04-26T15:54:51.424Z</time></trkpt><trkpt lat="45.4055085" lon="11.2849534"><ele>30.333333333333336</ele><time>2026-04-26T15:54:52.424Z</time></trkpt><trkpt lat="45.4054851" lon="11.284654"><ele>30.666666666666668</ele><time>2026-04-26T15:54:53.423Z</time></trkpt><trkpt lat="45.4054595" lon="11.2843533"><ele>31.0</ele><time>2026-04-26T15:54:54.422Z</time></trkpt><trkpt lat="45.4054343" lon="11.2840477"><ele>31.0</ele><time>2026-04-26T15:54:55.424Z</time></trkpt><trkpt lat="45.4054082" lon="11.2837452"><ele>31.0</ele><time>2026-04-26T15:54:56.423Z</time></trkpt><trkpt lat="45.405379" lon="11.2834467"><ele>31.0</ele><time>2026-04-26T15:54:57.424Z</time></trkpt><trkpt lat="45.4053498" lon="11.2831449"><ele>31.0</ele><time>2026-04-26T15:54:58.424Z</time></trkpt><trkpt lat="45.4053259" lon="11.2828382"><ele>31.0</ele><time>2026-04-26T15:54:59.426Z</time></trkpt><trkpt lat="45.4053009" lon="11.2825413"><ele>31.0</ele><time>2026-04-26T15:55:00.423Z</time></trkpt><trkpt lat="45.4052728" lon="11.282241"><ele>30.666666666666668</ele><time>2026-04-26T15:55:01.423Z</time></trkpt><trkpt lat="45.4052443" lon="11.2819521"><ele>30.333333333333336</ele><time>2026-04-26T15:55:02.423Z</time></trkpt><trkpt lat="45.4052148" lon="11.2816586"><ele>30.0</ele><time>2026-04-26T15:55:03.425Z</time></trkpt><trkpt lat="45.4051874" lon="11.2813664"><ele>30.0</ele><time>2026-04-26T15:55:04.425Z</time></trkpt><trkpt lat="45.4051583" lon="11.2810783"><ele>30.0</ele><time>2026-04-26T15:55:05.424Z</time></trkpt><trkpt lat="45.4051324" lon="11.2807878"><ele>30.0</ele><time>2026-04-26T15:55:06.423Z</time></trkpt><trkpt lat="45.4051093" lon="11.2805003"><ele>30.0</ele><time>2026-04-26T15:55:07.425Z</time></trkpt><trkpt lat="45.4050823" lon="11.280218"><ele>30.0</ele><time>2026-04-26T15:55:08.423Z</time></trkpt><trkpt lat="45.4050574" lon="11.2799294"><ele>30.0</ele><time>2026-04-26T15:55:09.424Z</time></trkpt><trkpt lat="45.4050297" lon="11.2796424"><ele>30.333333333333336</ele><time>2026-04-26T15:55:10.423Z</time></trkpt><trkpt lat="45.4050018" lon="11.2793558"><ele>30.666666666666668</ele><time>2026-04-26T15:55:11.424Z</time></trkpt><trkpt lat="45.4049733" lon="11.2790677"><ele>31.0</ele><time>2026-04-26T15:55:12.424Z</time></trkpt><trkpt lat="45.4049451" lon="11.2787793"><ele>31.0</ele><time>2026-04-26T15:55:13.423Z</time></trkpt><trkpt lat="45.4049195" lon="11.2784945"><ele>31.0</ele><time>2026-04-26T15:55:14.424Z</time></trkpt><trkpt lat="45.4048942" lon="11.278207"><ele>31.0</ele><time>2026-04-26T15:55:15.424Z</time></trkpt><trkpt lat="45.4048677" lon="11.2779155"><ele>30.666666666666668</ele><time>2026-04-26T15:55:16.424Z</time></trkpt><trkpt lat="45.4048459" lon="11.2776253"><ele>30.333333333333336</ele><time>2026-04-26T15:55:17.431Z</time></trkpt><trkpt lat="45.4048238" lon="11.2773412"><ele>30.0</ele><time>2026-04-26T15:55:18.425Z</time></trkpt><trkpt lat="45.4047962" lon="11.2770552"><ele>30.0</ele><time>2026-04-26T15:55:19.423Z</time></trkpt><trkpt lat="45.40477" lon="11.2767686"><ele>30.0</ele><time>2026-04-26T15:55:20.423Z</time></trkpt><trkpt lat="45.404741" lon="11.2764751"><ele>30.0</ele><time>2026-04-26T15:55:21.423Z</time></trkpt><trkpt lat="45.4047126" lon="11.2761769"><ele>30.0</ele><time>2026-04-26T15:55:22.424Z</time></trkpt><trkpt lat="45.4046868" lon="11.2758893"><ele>30.0</ele><time>2026-04-26T15:55:23.424Z</time></trkpt><trkpt lat="45.4046632" lon="11.2755998"><ele>30.0</ele><time>2026-04-26T15:55:24.422Z</time></trkpt><trkpt lat="45.4046381" lon="11.2753094"><ele>30.0</ele><time>2026-04-26T15:55:25.424Z</time></trkpt><trkpt lat="45.4046135" lon="11.2750215"><ele>30.0</ele><time>2026-04-26T15:55:26.423Z</time></trkpt><trkpt lat="45.4045886" lon="11.2747415"><ele>30.0</ele><time>2026-04-26T15:55:27.424Z</time></trkpt><trkpt lat="45.404565" lon="11.2744735"><ele>30.0</ele><time>2026-04-26T15:55:28.425Z</time></trkpt><trkpt lat="45.4045409" lon="11.2742092"><ele>30.0</ele><time>2026-04-26T15:55:29.424Z</time></trkpt><trkpt lat="45.4045185" lon="11.2739458"><ele>30.0</ele><time>2026-04-26T15:55:30.424Z</time></trkpt><trkpt lat="45.4044955" lon="11.2736825"><ele>30.0</ele><time>2026-04-26T15:55:31.425Z</time></trkpt><trkpt lat="45.4044695" lon="11.2734204"><ele>30.0</ele><time>2026-04-26T15:55:32.423Z</time></trkpt><trkpt lat="45.4044469" lon="11.273156"><ele>30.0</ele><time>2026-04-26T15:55:33.423Z</time></trkpt><trkpt lat="45.4044241" lon="11.2728935"><ele>30.0</ele><time>2026-04-26T15:55:34.432Z</time></trkpt><trkpt lat="45.4044012" lon="11.2726311"><ele>30.0</ele><time>2026-04-26T15:55:35.425Z</time></trkpt><trkpt lat="45.4043793" lon="11.2723703"><ele>30.0</ele><time>2026-04-26T15:55:36.423Z</time></trkpt><trkpt lat="45.4043575" lon="11.2721064"><ele>30.333333333333336</ele><time>2026-04-26T15:55:37.425Z</time></trkpt><trkpt lat="45.4043338" lon="11.271839"><ele>30.666666666666668</ele><time>2026-04-26T15:55:38.423Z</time></trkpt><trkpt lat="45.404313" lon="11.2715795"><ele>31.0</ele><time>2026-04-26T15:55:39.427Z</time></trkpt><trkpt lat="45.40429" lon="11.2713173"><ele>31.0</ele><time>2026-04-26T15:55:40.426Z</time></trkpt><trkpt lat="45.4042681" lon="11.2710592"><ele>31.0</ele><time>2026-04-26T15:55:41.423Z</time></trkpt><trkpt lat="45.4042466" lon="11.2708024"><ele>31.0</ele><time>2026-04-26T15:55:42.424Z</time></trkpt><trkpt lat="45.4042218" lon="11.2705517"><ele>30.666666666666668</ele><time>2026-04-26T15:55:43.424Z</time></trkpt><trkpt lat="45.4041973" lon="11.2702924"><ele>30.333333333333336</ele><time>2026-04-26T15:55:44.426Z</time></trkpt><trkpt lat="45.4041732" lon="11.2700403"><ele>30.0</ele><time>2026-04-26T15:55:45.425Z</time></trkpt><trkpt lat="45.4041484" lon="11.2697897"><ele>29.666666666666664</ele><time>2026-04-26T15:55:46.428Z</time></trkpt><trkpt lat="45.4041251" lon="11.2695395"><ele>29.333333333333332</ele><time>2026-04-26T15:55:47.422Z</time></trkpt><trkpt lat="45.4041044" lon="11.2692893"><ele>29.0</ele><time>2026-04-26T15:55:48.424Z</time></trkpt><trkpt lat="45.4040815" lon="11.269041"><ele>29.666666666666664</ele><time>2026-04-26T15:55:49.426Z</time></trkpt><trkpt lat="45.4040579" lon="11.26879"><ele>30.333333333333336</ele><time>2026-04-26T15:55:50.424Z</time></trkpt><trkpt lat="45.4040378" lon="11.2685351"><ele>31.0</ele><time>2026-04-26T15:55:51.423Z</time></trkpt><trkpt lat="45.4040157" lon="11.2682851"><ele>31.333333333333336</ele><time>2026-04-26T15:55:52.425Z</time></trkpt><trkpt lat="45.4039945" lon="11.2680338"><ele>31.666666666666664</ele><time>2026-04-26T15:55:53.424Z</time></trkpt><trkpt lat="45.4039755" lon="11.2677837"><ele>32.0</ele><time>2026-04-26T15:55:54.423Z</time></trkpt><trkpt lat="45.403959" lon="11.2675362"><ele>32.0</ele><time>2026-04-26T15:55:55.426Z</time></trkpt><trkpt lat="45.4039432" lon="11.2673048"><ele>32.0</ele><time>2026-04-26T15:55:56.423Z</time></trkpt><trkpt lat="45.4039272" lon="11.2670886"><ele>32.0</ele><time>2026-04-26T15:55:57.424Z</time></trkpt><trkpt lat="45.4039158" lon="11.2668885"><ele>31.75</ele><time>2026-04-26T15:55:58.425Z</time></trkpt><trkpt lat="45.4039068" lon="11.2666999"><ele>31.5</ele><time>2026-04-26T15:55:59.424Z</time></trkpt><trkpt lat="45.4038974" lon="11.2665254"><ele>31.25</ele><time>2026-04-26T15:56:00.422Z</time></trkpt><trkpt lat="45.4038822" lon="11.2663723"><ele>31.0</ele><time>2026-04-26T15:56:01.429Z</time></trkpt><trkpt lat="45.4038654" lon="11.2662306"><ele>31.0</ele><time>2026-04-26T15:56:02.423Z</time></trkpt><trkpt lat="45.4038526" lon="11.2660813"><ele>31.0</ele><time>2026-04-26T15:56:03.424Z</time></trkpt><trkpt lat="45.4038452" lon="11.2659224"><ele>31.0</ele><time>2026-04-26T15:56:04.423Z</time></trkpt><trkpt lat="45.4038223" lon="11.265759"><ele>31.0</ele><time>2026-04-26T15:56:05.425Z</time></trkpt><trkpt lat="45.4037848" lon="11.2655998"><ele>31.200000000000003</ele><time>2026-04-26T15:56:06.423Z</time></trkpt><trkpt lat="45.403741" lon="11.2654514"><ele>31.400000000000002</ele><time>2026-04-26T15:56:07.423Z</time></trkpt><trkpt lat="45.4037122" lon="11.2653085"><ele>31.6</ele><time>2026-04-26T15:56:08.423Z</time></trkpt><trkpt lat="45.4036928" lon="11.2651586"><ele>31.8</ele><time>2026-04-26T15:56:09.423Z</time></trkpt><trkpt lat="45.403677" lon="11.2649934"><ele>32.0</ele><time>2026-04-26T15:56:10.426Z</time></trkpt><trkpt lat="45.403659" lon="11.264808"><ele>31.75</ele><time>2026-04-26T15:56:11.425Z</time></trkpt><trkpt lat="45.4036371" lon="11.2646087"><ele>31.5</ele><time>2026-04-26T15:56:12.422Z</time></trkpt><trkpt lat="45.4035986" lon="11.2644005"><ele>31.25</ele><time>2026-04-26T15:56:13.422Z</time></trkpt><trkpt lat="45.4035442" lon="11.264192"><ele>31.0</ele><time>2026-04-26T15:56:14.429Z</time></trkpt><trkpt lat="45.4034836" lon="11.2639863"><ele>31.0</ele><time>2026-04-26T15:56:15.423Z</time></trkpt><trkpt lat="45.4034202" lon="11.2637792"><ele>31.0</ele><time>2026-04-26T15:56:16.422Z</time></trkpt><trkpt lat="45.4033585" lon="11.2635772"><ele>31.0</ele><time>2026-04-26T15:56:17.426Z</time></trkpt><trkpt lat="45.4033034" lon="11.2633849"><ele>31.0</ele><time>2026-04-26T15:56:18.423Z</time></trkpt><trkpt lat="45.4032588" lon="11.2631999"><ele>31.0</ele><time>2026-04-26T15:56:19.423Z</time></trkpt><trkpt lat="45.4032245" lon="11.2630312"><ele>31.0</ele><time>2026-04-26T15:56:20.422Z</time></trkpt><trkpt lat="45.4032117" lon="11.2628722"><ele>31.0</ele><time>2026-04-26T15:56:21.424Z</time></trkpt><trkpt lat="45.4032237" lon="11.262749"><ele>31.142857142857146</ele><time>2026-04-26T15:56:22.422Z</time></trkpt><trkpt lat="45.403245" lon="11.2626492"><ele>31.28571428571429</ele><time>2026-04-26T15:56:23.422Z</time></trkpt><trkpt lat="45.4032783" lon="11.2625713"><ele>31.42857142857143</ele><time>2026-04-26T15:56:24.423Z</time></trkpt><trkpt lat="45.4033148" lon="11.2624898"><ele>31.57142857142857</ele><time>2026-04-26T15:56:25.422Z</time></trkpt><trkpt lat="45.4033415" lon="11.262405"><ele>31.71428571428571</ele><time>2026-04-26T15:56:26.423Z</time></trkpt><trkpt lat="45.4033512" lon="11.2623043"><ele>31.857142857142854</ele><time>2026-04-26T15:56:27.422Z</time></trkpt><trkpt lat="45.4033401" lon="11.2621768"><ele>32.0</ele><time>2026-04-26T15:56:28.422Z</time></trkpt><trkpt lat="45.4033248" lon="11.2620481"><ele>31.999999999999996</ele><time>2026-04-26T15:56:29.424Z</time></trkpt><trkpt lat="45.40331" lon="11.2619271"><ele>32.0</ele><time>2026-04-26T15:56:30.423Z</time></trkpt><trkpt lat="45.403299" lon="11.261815"><ele>32.0</ele><time>2026-04-26T15:56:31.424Z</time></trkpt><trkpt lat="45.4032922" lon="11.261718"><ele>32.0</ele><time>2026-04-26T15:56:32.422Z</time></trkpt><trkpt lat="45.4032907" lon="11.2616273"><ele>31.999999999999996</ele><time>2026-04-26T15:56:33.425Z</time></trkpt><trkpt lat="45.4032914" lon="11.2614719"><ele>32.0</ele><time>2026-04-26T15:56:35.423Z</time></trkpt><trkpt lat="45.4033008" lon="11.261381"><ele>32.0</ele><time>2026-04-26T15:56:36.423Z</time></trkpt><trkpt lat="45.4033164" lon="11.2612718"><ele>32.0</ele><time>2026-04-26T15:56:37.422Z</time></trkpt><trkpt lat="45.4033421" lon="11.2611429"><ele>32.0</ele><time>2026-04-26T15:56:38.422Z</time></trkpt><trkpt lat="45.4033643" lon="11.2610097"><ele>32.0</ele><time>2026-04-26T15:56:39.423Z</time></trkpt><trkpt lat="45.4033907" lon="11.2608657"><ele>32.0</ele><time>2026-04-26T15:56:40.423Z</time></trkpt><trkpt lat="45.4034216" lon="11.2607183"><ele>31.25</ele><time>2026-04-26T15:56:41.422Z</time></trkpt><trkpt lat="45.403451" lon="11.2605643"><ele>30.5</ele><time>2026-04-26T15:56:42.422Z</time></trkpt><trkpt lat="45.4034799" lon="11.2604064"><ele>29.75</ele><time>2026-04-26T15:56:43.423Z</time></trkpt><trkpt lat="45.4035068" lon="11.2602428"><ele>29.0</ele><time>2026-04-26T15:56:44.425Z</time></trkpt><trkpt lat="45.4035346" lon="11.260085"><ele>29.0</ele><time>2026-04-26T15:56:45.424Z</time></trkpt><trkpt lat="45.4035625" lon="11.2599239"><ele>29.0</ele><time>2026-04-26T15:56:46.423Z</time></trkpt><trkpt lat="45.4035911" lon="11.2597582"><ele>29.0</ele><time>2026-04-26T15:56:47.424Z</time></trkpt><trkpt lat="45.4036208" lon="11.2595867"><ele>29.0</ele><time>2026-04-26T15:56:48.424Z</time></trkpt><trkpt lat="45.4036572" lon="11.2594081"><ele>28.5</ele><time>2026-04-26T15:56:49.423Z</time></trkpt><trkpt lat="45.4036949" lon="11.2592309"><ele>28.0</ele><time>2026-04-26T15:56:50.422Z</time></trkpt><trkpt lat="45.4037338" lon="11.259058"><ele>27.5</ele><time>2026-04-26T15:56:51.423Z</time></trkpt><trkpt lat="45.4037799" lon="11.2588784"><ele>27.0</ele><time>2026-04-26T15:56:52.422Z</time></trkpt><trkpt lat="45.4038218" lon="11.2587012"><ele>27.0</ele><time>2026-04-26T15:56:53.423Z</time></trkpt><trkpt lat="45.4038638" lon="11.2585297"><ele>27.0</ele><time>2026-04-26T15:56:54.433Z</time></trkpt><trkpt lat="45.4039051" lon="11.2583543"><ele>27.0</ele><time>2026-04-26T15:56:55.423Z</time></trkpt><trkpt lat="45.4039453" lon="11.2581798"><ele>27.0</ele><time>2026-04-26T15:56:56.423Z</time></trkpt><trkpt lat="45.4039812" lon="11.258002"><ele>26.5</ele><time>2026-04-26T15:56:57.424Z</time></trkpt><trkpt lat="45.4040205" lon="11.257827"><ele>26.0</ele><time>2026-04-26T15:56:58.423Z</time></trkpt><trkpt lat="45.4040615" lon="11.2576521"><ele>25.5</ele><time>2026-04-26T15:56:59.424Z</time></trkpt><trkpt lat="45.4041022" lon="11.2574762"><ele>25.0</ele><time>2026-04-26T15:57:00.423Z</time></trkpt><trkpt lat="45.4041398" lon="11.2573024"><ele>25.4</ele><time>2026-04-26T15:57:01.422Z</time></trkpt><trkpt lat="45.4041704" lon="11.2571376"><ele>25.8</ele><time>2026-04-26T15:57:02.423Z</time></trkpt><trkpt lat="45.4041929" lon="11.2569854"><ele>26.200000000000003</ele><time>2026-04-26T15:57:03.426Z</time></trkpt><trkpt lat="45.404213" lon="11.256838"><ele>26.6</ele><time>2026-04-26T15:57:04.423Z</time></trkpt><trkpt lat="45.4042306" lon="11.2566875"><ele>27.0</ele><time>2026-04-26T15:57:05.423Z</time></trkpt><trkpt lat="45.4042461" lon="11.2565297"><ele>26.6</ele><time>2026-04-26T15:57:06.421Z</time></trkpt><trkpt lat="45.404263" lon="11.2563701"><ele>26.200000000000003</ele><time>2026-04-26T15:57:07.422Z</time></trkpt><trkpt lat="45.4042813" lon="11.2562085"><ele>25.8</ele><time>2026-04-26T15:57:08.422Z</time></trkpt><trkpt lat="45.4043014" lon="11.2560486"><ele>25.4</ele><time>2026-04-26T15:57:09.423Z</time></trkpt><trkpt lat="45.4043201" lon="11.2558999"><ele>25.0</ele><time>2026-04-26T15:57:10.422Z</time></trkpt><trkpt lat="45.4043426" lon="11.2557704"><ele>25.0</ele><time>2026-04-26T15:57:11.424Z</time></trkpt><trkpt lat="45.4043644" lon="11.2556631"><ele>25.0</ele><time>2026-04-26T15:57:12.423Z</time></trkpt><trkpt lat="45.4044215" lon="11.2555338"><ele>25.0</ele><time>2026-04-26T15:57:14.422Z</time></trkpt><trkpt lat="45.4045255" lon="11.2554146"><ele>25.0</ele><time>2026-04-26T15:57:16.424Z</time></trkpt><trkpt lat="45.4046056" lon="11.2553308"><ele>25.0</ele><time>2026-04-26T15:57:17.421Z</time></trkpt><trkpt lat="45.4046763" lon="11.2552348"><ele>25.0</ele><time>2026-04-26T15:57:18.423Z</time></trkpt><trkpt lat="45.4047312" lon="11.2551233"><ele>25.0</ele><time>2026-04-26T15:57:19.423Z</time></trkpt><trkpt lat="45.4047719" lon="11.2549945"><ele>25.0</ele><time>2026-04-26T15:57:20.423Z</time></trkpt><trkpt lat="45.4047974" lon="11.2548561"><ele>25.0</ele><time>2026-04-26T15:57:21.424Z</time></trkpt><trkpt lat="45.4047994" lon="11.2547145"><ele>25.0</ele><time>2026-04-26T15:57:22.423Z</time></trkpt><trkpt lat="45.404782" lon="11.2545718"><ele>25.0</ele><time>2026-04-26T15:57:23.425Z</time></trkpt><trkpt lat="45.4047454" lon="11.2544363"><ele>25.0</ele><time>2026-04-26T15:57:24.422Z</time></trkpt><trkpt lat="45.4046777" lon="11.2543254"><ele>25.0</ele><time>2026-04-26T15:57:25.423Z</time></trkpt><trkpt lat="45.4045874" lon="11.2542388"><ele>25.0</ele><time>2026-04-26T15:57:26.423Z</time></trkpt><trkpt lat="45.4044896" lon="11.2541937"><ele>25.0</ele><time>2026-04-26T15:57:27.422Z</time></trkpt><trkpt lat="45.4043822" lon="11.2541861"><ele>24.6</ele><time>2026-04-26T15:57:28.423Z</time></trkpt><trkpt lat="45.4042721" lon="11.2542149"><ele>24.2</ele><time>2026-04-26T15:57:29.423Z</time></trkpt><trkpt lat="45.4041727" lon="11.2542827"><ele>23.799999999999997</ele><time>2026-04-26T15:57:30.425Z</time></trkpt><trkpt lat="45.4040822" lon="11.2543609"><ele>23.4</ele><time>2026-04-26T15:57:31.426Z</time></trkpt><trkpt lat="45.4039967" lon="11.2544248"><ele>23.0</ele><time>2026-04-26T15:57:32.423Z</time></trkpt><trkpt lat="45.4039077" lon="11.2544663"><ele>22.799999999999997</ele><time>2026-04-26T15:57:33.422Z</time></trkpt><trkpt lat="45.4038134" lon="11.2544733"><ele>22.6</ele><time>2026-04-26T15:57:34.423Z</time></trkpt><trkpt lat="45.4037197" lon="11.2544436"><ele>22.4</ele><time>2026-04-26T15:57:35.424Z</time></trkpt><trkpt lat="45.4036269" lon="11.2543793"><ele>22.200000000000003</ele><time>2026-04-26T15:57:36.422Z</time></trkpt><trkpt lat="45.403528" lon="11.2543012"><ele>22.0</ele><time>2026-04-26T15:57:37.421Z</time></trkpt><trkpt lat="45.4034207" lon="11.2542125"><ele>22.0</ele><time>2026-04-26T15:57:38.424Z</time></trkpt><trkpt lat="45.4033082" lon="11.2541189"><ele>22.0</ele><time>2026-04-26T15:57:39.425Z</time></trkpt><trkpt lat="45.4031815" lon="11.254025"><ele>22.0</ele><time>2026-04-26T15:57:40.423Z</time></trkpt><trkpt lat="45.4030401" lon="11.2539262"><ele>22.0</ele><time>2026-04-26T15:57:41.422Z</time></trkpt><trkpt lat="45.4028853" lon="11.2538083"><ele>22.666666666666664</ele><time>2026-04-26T15:57:42.426Z</time></trkpt><trkpt lat="45.4027218" lon="11.2536783"><ele>23.333333333333332</ele><time>2026-04-26T15:57:43.421Z</time></trkpt><trkpt lat="45.4025551" lon="11.2535383"><ele>24.0</ele><time>2026-04-26T15:57:44.423Z</time></trkpt><trkpt lat="45.402385" lon="11.2533934"><ele>24.0</ele><time>2026-04-26T15:57:45.422Z</time></trkpt><trkpt lat="45.4022104" lon="11.2532484"><ele>24.0</ele><time>2026-04-26T15:57:46.423Z</time></trkpt><trkpt lat="45.4020325" lon="11.253102"><ele>24.0</ele><time>2026-04-26T15:57:47.425Z</time></trkpt><trkpt lat="45.4018525" lon="11.2529526"><ele>25.0</ele><time>2026-04-26T15:57:48.424Z</time></trkpt><trkpt lat="45.4016809" lon="11.2527889"><ele>26.0</ele><time>2026-04-26T15:57:49.423Z</time></trkpt><trkpt lat="45.4015177" lon="11.2526083"><ele>27.0</ele><time>2026-04-26T15:57:50.422Z</time></trkpt><trkpt lat="45.4013641" lon="11.2524006"><ele>26.333333333333336</ele><time>2026-04-26T15:57:51.425Z</time></trkpt><trkpt lat="45.4012285" lon="11.2521726"><ele>25.666666666666668</ele><time>2026-04-26T15:57:52.425Z</time></trkpt><trkpt lat="45.4011153" lon="11.2519203"><ele>25.0</ele><time>2026-04-26T15:57:53.435Z</time></trkpt><trkpt lat="45.4010171" lon="11.2516534"><ele>25.0</ele><time>2026-04-26T15:57:54.422Z</time></trkpt><trkpt lat="45.4009383" lon="11.251371"><ele>25.0</ele><time>2026-04-26T15:57:55.422Z</time></trkpt><trkpt lat="45.4008705" lon="11.2510811"><ele>25.0</ele><time>2026-04-26T15:57:56.423Z</time></trkpt><trkpt lat="45.4008059" lon="11.2507855"><ele>24.666666666666668</ele><time>2026-04-26T15:57:57.422Z</time></trkpt><trkpt lat="45.4007428" lon="11.2504914"><ele>24.333333333333336</ele><time>2026-04-26T15:57:58.421Z</time></trkpt><trkpt lat="45.400675" lon="11.250199"><ele>24.0</ele><time>2026-04-26T15:57:59.422Z</time></trkpt><trkpt lat="45.4006018" lon="11.2499073"><ele>24.333333333333336</ele><time>2026-04-26T15:58:00.422Z</time></trkpt><trkpt lat="45.4005092" lon="11.2496257"><ele>24.666666666666668</ele><time>2026-04-26T15:58:01.424Z</time></trkpt><trkpt lat="45.4004014" lon="11.2493604"><ele>25.0</ele><time>2026-04-26T15:58:02.424Z</time></trkpt><trkpt lat="45.4002609" lon="11.2491166"><ele>24.333333333333336</ele><time>2026-04-26T15:58:03.423Z</time></trkpt><trkpt lat="45.4001073" lon="11.2488975"><ele>23.666666666666668</ele><time>2026-04-26T15:58:04.422Z</time></trkpt><trkpt lat="45.399931" lon="11.2487046"><ele>23.0</ele><time>2026-04-26T15:58:05.423Z</time></trkpt><trkpt lat="45.3997426" lon="11.2485461"><ele>23.0</ele><time>2026-04-26T15:58:06.43Z</time></trkpt><trkpt lat="45.3995402" lon="11.2484148"><ele>23.0</ele><time>2026-04-26T15:58:07.422Z</time></trkpt><trkpt lat="45.3993254" lon="11.2483296"><ele>23.0</ele><time>2026-04-26T15:58:08.423Z</time></trkpt><trkpt lat="45.3991089" lon="11.2482713"><ele>23.0</ele><time>2026-04-26T15:58:09.425Z</time></trkpt><trkpt lat="45.3988858" lon="11.2482374"><ele>23.0</ele><time>2026-04-26T15:58:10.421Z</time></trkpt><trkpt lat="45.3986681" lon="11.2482027"><ele>23.0</ele><time>2026-04-26T15:58:11.422Z</time></trkpt><trkpt lat="45.3984613" lon="11.2481733"><ele>23.0</ele><time>2026-04-26T15:58:12.424Z</time></trkpt><trkpt lat="45.3982676" lon="11.2481464"><ele>23.0</ele><time>2026-04-26T15:58:13.425Z</time></trkpt><trkpt lat="45.398086" lon="11.2481184"><ele>23.0</ele><time>2026-04-26T15:58:14.425Z</time></trkpt><trkpt lat="45.3979059" lon="11.2480924"><ele>23.0</ele><time>2026-04-26T15:58:15.423Z</time></trkpt><trkpt lat="45.3977282" lon="11.2480667"><ele>23.0</ele><time>2026-04-26T15:58:16.424Z</time></trkpt><trkpt lat="45.3975516" lon="11.2480369"><ele>23.0</ele><time>2026-04-26T15:58:17.421Z</time></trkpt><trkpt lat="45.3973795" lon="11.2480121"><ele>23.0</ele><time>2026-04-26T15:58:18.421Z</time></trkpt><trkpt lat="45.3972119" lon="11.2479878"><ele>23.0</ele><time>2026-04-26T15:58:19.428Z</time></trkpt><trkpt lat="45.3970466" lon="11.2479645"><ele>23.0</ele><time>2026-04-26T15:58:20.424Z</time></trkpt><trkpt lat="45.3968811" lon="11.247941"><ele>22.333333333333336</ele><time>2026-04-26T15:58:21.423Z</time></trkpt><trkpt lat="45.3967152" lon="11.2479155"><ele>21.666666666666668</ele><time>2026-04-26T15:58:22.428Z</time></trkpt><trkpt lat="45.3965509" lon="11.2478901"><ele>21.0</ele><time>2026-04-26T15:58:23.421Z</time></trkpt><trkpt lat="45.3963908" lon="11.2478695"><ele>20.666666666666668</ele><time>2026-04-26T15:58:24.422Z</time></trkpt><trkpt lat="45.3962337" lon="11.2478515"><ele>20.333333333333336</ele><time>2026-04-26T15:58:25.423Z</time></trkpt><trkpt lat="45.3960826" lon="11.2478272"><ele>20.0</ele><time>2026-04-26T15:58:26.422Z</time></trkpt><trkpt lat="45.3959388" lon="11.2478023"><ele>20.0</ele><time>2026-04-26T15:58:27.422Z</time></trkpt><trkpt lat="45.395799" lon="11.2477781"><ele>20.0</ele><time>2026-04-26T15:58:28.423Z</time></trkpt><trkpt lat="45.3956651" lon="11.2477533"><ele>20.0</ele><time>2026-04-26T15:58:29.421Z</time></trkpt><trkpt lat="45.395541" lon="11.2477276"><ele>20.0</ele><time>2026-04-26T15:58:30.425Z</time></trkpt><trkpt lat="45.3954266" lon="11.2477048"><ele>20.4</ele><time>2026-04-26T15:58:31.425Z</time></trkpt><trkpt lat="45.3953182" lon="11.247679"><ele>20.8</ele><time>2026-04-26T15:58:32.423Z</time></trkpt><trkpt lat="45.3952166" lon="11.2476527"><ele>21.200000000000003</ele><time>2026-04-26T15:58:33.422Z</time></trkpt><trkpt lat="45.3951245" lon="11.2476286"><ele>21.6</ele><time>2026-04-26T15:58:34.424Z</time></trkpt><trkpt lat="45.3950389" lon="11.2475931"><ele>22.0</ele><time>2026-04-26T15:58:35.422Z</time></trkpt><trkpt lat="45.3949602" lon="11.2475508"><ele>22.0</ele><time>2026-04-26T15:58:36.423Z</time></trkpt><trkpt lat="45.3948895" lon="11.2475105"><ele>22.0</ele><time>2026-04-26T15:58:37.423Z</time></trkpt><trkpt lat="45.3948271" lon="11.2474809"><ele>22.0</ele><time>2026-04-26T15:58:38.423Z</time></trkpt><trkpt lat="45.3947334" lon="11.2474638"><ele>22.0</ele><time>2026-04-26T15:58:40.424Z</time></trkpt><trkpt lat="45.394674" lon="11.247398"><ele>22.0</ele><time>2026-04-26T16:07:54.423Z</time></trkpt><trkpt lat="45.3945969" lon="11.2473532"><ele>22.0</ele><time>2026-04-26T16:07:56.423Z</time></trkpt><trkpt lat="45.3944774" lon="11.2473386"><ele>21.833333333333332</ele><time>2026-04-26T16:07:58.423Z</time></trkpt><trkpt lat="45.3944113" lon="11.2473445"><ele>21.666666666666664</ele><time>2026-04-26T16:07:59.423Z</time></trkpt><trkpt lat="45.3943364" lon="11.2473728"><ele>21.5</ele><time>2026-04-26T16:08:00.423Z</time></trkpt><trkpt lat="45.3942587" lon="11.2473896"><ele>21.333333333333332</ele><time>2026-04-26T16:08:01.423Z</time></trkpt><trkpt lat="45.3941822" lon="11.2473979"><ele>21.166666666666668</ele><time>2026-04-26T16:08:02.424Z</time></trkpt><trkpt lat="45.394096" lon="11.24739"><ele>21.0</ele><time>2026-04-26T16:08:03.423Z</time></trkpt><trkpt lat="45.3940219" lon="11.2473774"><ele>21.0</ele><time>2026-04-26T16:08:04.424Z</time></trkpt><trkpt lat="45.3939467" lon="11.2473632"><ele>21.0</ele><time>2026-04-26T16:08:05.423Z</time></trkpt><trkpt lat="45.3938676" lon="11.247355"><ele>21.0</ele><time>2026-04-26T16:08:06.423Z</time></trkpt><trkpt lat="45.3937788" lon="11.2473479"><ele>21.0</ele><time>2026-04-26T16:08:07.424Z</time></trkpt><trkpt lat="45.3936901" lon="11.2473289"><ele>21.0</ele><time>2026-04-26T16:08:08.423Z</time></trkpt><trkpt lat="45.3935957" lon="11.2473201"><ele>21.0</ele><time>2026-04-26T16:08:09.423Z</time></trkpt><trkpt lat="45.3934986" lon="11.2473091"><ele>20.8</ele><time>2026-04-26T16:08:10.423Z</time></trkpt><trkpt lat="45.3934042" lon="11.2472947"><ele>20.6</ele><time>2026-04-26T16:08:11.423Z</time></trkpt><trkpt lat="45.3932955" lon="11.2472857"><ele>20.4</ele><time>2026-04-26T16:08:12.424Z</time></trkpt><trkpt lat="45.393195" lon="11.247268"><ele>20.2</ele><time>2026-04-26T16:08:13.423Z</time></trkpt><trkpt lat="45.3930881" lon="11.2472495"><ele>20.0</ele><time>2026-04-26T16:08:14.424Z</time></trkpt><trkpt lat="45.3929676" lon="11.2472281"><ele>20.75</ele><time>2026-04-26T16:08:15.423Z</time></trkpt><trkpt lat="45.3928434" lon="11.2472031"><ele>21.5</ele><time>2026-04-26T16:08:16.423Z</time></trkpt><trkpt lat="45.3927098" lon="11.2471781"><ele>22.25</ele><time>2026-04-26T16:08:17.424Z</time></trkpt><trkpt lat="45.3925749" lon="11.2471544"><ele>23.0</ele><time>2026-04-26T16:08:18.423Z</time></trkpt><trkpt lat="45.3924376" lon="11.2471296"><ele>23.0</ele><time>2026-04-26T16:08:19.423Z</time></trkpt><trkpt lat="45.3922955" lon="11.2470975"><ele>23.0</ele><time>2026-04-26T16:08:20.424Z</time></trkpt><trkpt lat="45.3921503" lon="11.2470722"><ele>23.0</ele><time>2026-04-26T16:08:21.424Z</time></trkpt><trkpt lat="45.3920022" lon="11.2470426"><ele>23.0</ele><time>2026-04-26T16:08:22.423Z</time></trkpt><trkpt lat="45.3918494" lon="11.2470088"><ele>22.0</ele><time>2026-04-26T16:08:23.423Z</time></trkpt><trkpt lat="45.3916973" lon="11.2469802"><ele>21.0</ele><time>2026-04-26T16:08:24.423Z</time></trkpt><trkpt lat="45.391541" lon="11.2469474"><ele>20.0</ele><time>2026-04-26T16:08:25.424Z</time></trkpt><trkpt lat="45.3913858" lon="11.2469157"><ele>20.333333333333336</ele><time>2026-04-26T16:08:26.423Z</time></trkpt><trkpt lat="45.3912326" lon="11.2468855"><ele>20.666666666666668</ele><time>2026-04-26T16:08:27.423Z</time></trkpt><trkpt lat="45.3910835" lon="11.2468601"><ele>21.0</ele><time>2026-04-26T16:08:28.423Z</time></trkpt><trkpt lat="45.3909359" lon="11.2468348"><ele>21.0</ele><time>2026-04-26T16:08:29.423Z</time></trkpt><trkpt lat="45.3907876" lon="11.24681"><ele>21.0</ele><time>2026-04-26T16:08:30.423Z</time></trkpt><trkpt lat="45.3906466" lon="11.2467824"><ele>21.0</ele><time>2026-04-26T16:08:31.424Z</time></trkpt><trkpt lat="45.390502" lon="11.2467547"><ele>21.0</ele><time>2026-04-26T16:08:32.423Z</time></trkpt><trkpt lat="45.3903623" lon="11.2467263"><ele>21.25</ele><time>2026-04-26T16:08:33.423Z</time></trkpt><trkpt lat="45.3902224" lon="11.2466969"><ele>21.5</ele><time>2026-04-26T16:08:34.423Z</time></trkpt><trkpt lat="45.3900897" lon="11.2466702"><ele>21.75</ele><time>2026-04-26T16:08:35.424Z</time></trkpt><trkpt lat="45.3899583" lon="11.2466418"><ele>22.0</ele><time>2026-04-26T16:08:36.424Z</time></trkpt><trkpt lat="45.3898306" lon="11.246607"><ele>22.0</ele><time>2026-04-26T16:08:37.424Z</time></trkpt><trkpt lat="45.3897109" lon="11.2465781"><ele>22.0</ele><time>2026-04-26T16:08:38.423Z</time></trkpt><trkpt lat="45.389599" lon="11.2465481"><ele>22.0</ele><time>2026-04-26T16:08:39.423Z</time></trkpt><trkpt lat="45.3894928" lon="11.2465188"><ele>22.0</ele><time>2026-04-26T16:08:40.424Z</time></trkpt><trkpt lat="45.3893914" lon="11.2464856"><ele>22.0</ele><time>2026-04-26T16:08:41.423Z</time></trkpt><trkpt lat="45.3892945" lon="11.2464549"><ele>22.0</ele><time>2026-04-26T16:08:42.423Z</time></trkpt><trkpt lat="45.3891976" lon="11.2464327"><ele>22.0</ele><time>2026-04-26T16:08:43.423Z</time></trkpt><trkpt lat="45.3891084" lon="11.2464106"><ele>22.0</ele><time>2026-04-26T16:08:44.423Z</time></trkpt><trkpt lat="45.3890209" lon="11.2463845"><ele>22.0</ele><time>2026-04-26T16:08:45.423Z</time></trkpt><trkpt lat="45.3889401" lon="11.2463502"><ele>22.0</ele><time>2026-04-26T16:08:46.424Z</time></trkpt><trkpt lat="45.388872" lon="11.2463008"><ele>22.0</ele><time>2026-04-26T16:08:47.423Z</time></trkpt><trkpt lat="45.3888112" lon="11.2462397"><ele>21.666666666666664</ele><time>2026-04-26T16:08:48.424Z</time></trkpt><trkpt lat="45.3887626" lon="11.2461739"><ele>21.333333333333332</ele><time>2026-04-26T16:08:49.424Z</time></trkpt><trkpt lat="45.3887139" lon="11.2460937"><ele>21.0</ele><time>2026-04-26T16:08:50.423Z</time></trkpt><trkpt lat="45.3886646" lon="11.2459916"><ele>20.666666666666668</ele><time>2026-04-26T16:08:51.424Z</time></trkpt><trkpt lat="45.3886039" lon="11.2458772"><ele>20.333333333333336</ele><time>2026-04-26T16:08:52.423Z</time></trkpt><trkpt lat="45.3885378" lon="11.2457604"><ele>20.0</ele><time>2026-04-26T16:08:53.423Z</time></trkpt><trkpt lat="45.3884711" lon="11.2456367"><ele>20.0</ele><time>2026-04-26T16:08:54.423Z</time></trkpt><trkpt lat="45.3884096" lon="11.2454989"><ele>20.0</ele><time>2026-04-26T16:08:55.424Z</time></trkpt><trkpt lat="45.3883561" lon="11.2453359"><ele>20.0</ele><time>2026-04-26T16:08:56.423Z</time></trkpt><trkpt lat="45.3883212" lon="11.2451464"><ele>20.0</ele><time>2026-04-26T16:08:57.423Z</time></trkpt><trkpt lat="45.3883054" lon="11.244945"><ele>19.666666666666668</ele><time>2026-04-26T16:08:58.423Z</time></trkpt><trkpt lat="45.3883016" lon="11.244734"><ele>19.333333333333332</ele><time>2026-04-26T16:08:59.424Z</time></trkpt><trkpt lat="45.3883056" lon="11.2445126"><ele>19.0</ele><time>2026-04-26T16:09:00.423Z</time></trkpt><trkpt lat="45.3883093" lon="11.2442847"><ele>19.0</ele><time>2026-04-26T16:09:01.424Z</time></trkpt><trkpt lat="45.388316" lon="11.2440432"><ele>19.0</ele><time>2026-04-26T16:09:02.423Z</time></trkpt><trkpt lat="45.3883222" lon="11.2437982"><ele>19.0</ele><time>2026-04-26T16:09:03.424Z</time></trkpt><trkpt lat="45.3883295" lon="11.2435442"><ele>19.333333333333332</ele><time>2026-04-26T16:09:04.423Z</time></trkpt><trkpt lat="45.3883364" lon="11.2432831"><ele>19.666666666666668</ele><time>2026-04-26T16:09:05.423Z</time></trkpt><trkpt lat="45.3883454" lon="11.2430166"><ele>20.0</ele><time>2026-04-26T16:09:06.423Z</time></trkpt><trkpt lat="45.3883533" lon="11.2427453"><ele>20.0</ele><time>2026-04-26T16:09:07.423Z</time></trkpt><trkpt lat="45.3883581" lon="11.2424628"><ele>20.0</ele><time>2026-04-26T16:09:08.424Z</time></trkpt><trkpt lat="45.3883666" lon="11.2421769"><ele>20.0</ele><time>2026-04-26T16:09:09.423Z</time></trkpt><trkpt lat="45.3883734" lon="11.241883"><ele>20.0</ele><time>2026-04-26T16:09:10.423Z</time></trkpt><trkpt lat="45.388378" lon="11.2415832"><ele>20.0</ele><time>2026-04-26T16:09:11.423Z</time></trkpt><trkpt lat="45.3883856" lon="11.2412808"><ele>20.0</ele><time>2026-04-26T16:09:12.423Z</time></trkpt><trkpt lat="45.3883949" lon="11.2409749"><ele>20.0</ele><time>2026-04-26T16:09:13.423Z</time></trkpt><trkpt lat="45.388404" lon="11.2406624"><ele>20.0</ele><time>2026-04-26T16:09:14.424Z</time></trkpt><trkpt lat="45.3884145" lon="11.2403529"><ele>20.0</ele><time>2026-04-26T16:09:15.423Z</time></trkpt><trkpt lat="45.388424" lon="11.2400383"><ele>20.666666666666668</ele><time>2026-04-26T16:09:16.423Z</time></trkpt><trkpt lat="45.3884322" lon="11.2397229"><ele>21.333333333333332</ele><time>2026-04-26T16:09:17.424Z</time></trkpt><trkpt lat="45.3884384" lon="11.239405"><ele>22.0</ele><time>2026-04-26T16:09:18.424Z</time></trkpt><trkpt lat="45.3884443" lon="11.2390869"><ele>22.0</ele><time>2026-04-26T16:09:19.423Z</time></trkpt><trkpt lat="45.3884561" lon="11.2387662"><ele>22.0</ele><time>2026-04-26T16:09:20.423Z</time></trkpt><trkpt lat="45.3884723" lon="11.2384455"><ele>22.0</ele><time>2026-04-26T16:09:21.423Z</time></trkpt><trkpt lat="45.3884984" lon="11.2381182"><ele>22.0</ele><time>2026-04-26T16:09:22.424Z</time></trkpt><trkpt lat="45.3885315" lon="11.2377913"><ele>22.0</ele><time>2026-04-26T16:09:23.423Z</time></trkpt><trkpt lat="45.388577" lon="11.2374648"><ele>22.0</ele><time>2026-04-26T16:09:24.424Z</time></trkpt><trkpt lat="45.3886287" lon="11.2371367"><ele>21.5</ele><time>2026-04-26T16:09:25.424Z</time></trkpt><trkpt lat="45.3886895" lon="11.2368123"><ele>21.0</ele><time>2026-04-26T16:09:26.423Z</time></trkpt><trkpt lat="45.3887613" lon="11.2364932"><ele>21.0</ele><time>2026-04-26T16:09:27.424Z</time></trkpt><trkpt lat="45.3888427" lon="11.2361754"><ele>21.0</ele><time>2026-04-26T16:09:28.423Z</time></trkpt><trkpt lat="45.3889336" lon="11.2358632"><ele>21.0</ele><time>2026-04-26T16:09:29.423Z</time></trkpt><trkpt lat="45.3890379" lon="11.235556"><ele>21.0</ele><time>2026-04-26T16:09:30.424Z</time></trkpt><trkpt lat="45.3891449" lon="11.2352584"><ele>21.0</ele><time>2026-04-26T16:09:31.423Z</time></trkpt><trkpt lat="45.3892645" lon="11.2349601"><ele>21.0</ele><time>2026-04-26T16:09:32.423Z</time></trkpt><trkpt lat="45.3893803" lon="11.2346615"><ele>21.0</ele><time>2026-04-26T16:09:33.423Z</time></trkpt><trkpt lat="45.3894938" lon="11.2343605"><ele>21.0</ele><time>2026-04-26T16:09:34.423Z</time></trkpt><trkpt lat="45.3895948" lon="11.2340584"><ele>20.0</ele><time>2026-04-26T16:09:35.424Z</time></trkpt><trkpt lat="45.3896864" lon="11.2337489"><ele>19.0</ele><time>2026-04-26T16:09:36.424Z</time></trkpt><trkpt lat="45.3897723" lon="11.233431"><ele>19.5</ele><time>2026-04-26T16:09:37.424Z</time></trkpt><trkpt lat="45.3898455" lon="11.2331016"><ele>20.0</ele><time>2026-04-26T16:09:38.423Z</time></trkpt><trkpt lat="45.3899071" lon="11.2327657"><ele>20.0</ele><time>2026-04-26T16:09:39.423Z</time></trkpt><trkpt lat="45.3899591" lon="11.2324242"><ele>20.0</ele><time>2026-04-26T16:09:40.423Z</time></trkpt><trkpt lat="45.3900049" lon="11.2320827"><ele>20.5</ele><time>2026-04-26T16:09:41.424Z</time></trkpt><trkpt lat="45.3900454" lon="11.2317375"><ele>21.0</ele><time>2026-04-26T16:09:42.423Z</time></trkpt><trkpt lat="45.390085" lon="11.2313915"><ele>21.0</ele><time>2026-04-26T16:09:43.424Z</time></trkpt><trkpt lat="45.3901209" lon="11.2310495"><ele>21.0</ele><time>2026-04-26T16:09:44.424Z</time></trkpt><trkpt lat="45.3901573" lon="11.2307036"><ele>20.5</ele><time>2026-04-26T16:09:45.423Z</time></trkpt><trkpt lat="45.3901878" lon="11.2303589"><ele>20.0</ele><time>2026-04-26T16:09:46.423Z</time></trkpt><trkpt lat="45.3902184" lon="11.2300094"><ele>20.0</ele><time>2026-04-26T16:09:47.423Z</time></trkpt><trkpt lat="45.3902532" lon="11.2296625"><ele>20.0</ele><time>2026-04-26T16:09:48.424Z</time></trkpt><trkpt lat="45.3902857" lon="11.2293134"><ele>20.5</ele><time>2026-04-26T16:09:49.424Z</time></trkpt><trkpt lat="45.3903185" lon="11.2289608"><ele>21.0</ele><time>2026-04-26T16:09:50.423Z</time></trkpt><trkpt lat="45.3903489" lon="11.2286107"><ele>21.0</ele><time>2026-04-26T16:09:51.423Z</time></trkpt><trkpt lat="45.3903812" lon="11.2282555"><ele>21.0</ele><time>2026-04-26T16:09:52.424Z</time></trkpt><trkpt lat="45.3904149" lon="11.227904"><ele>20.5</ele><time>2026-04-26T16:09:53.423Z</time></trkpt><trkpt lat="45.3904491" lon="11.2275507"><ele>20.0</ele><time>2026-04-26T16:09:54.423Z</time></trkpt><trkpt lat="45.3904812" lon="11.2271938"><ele>20.0</ele><time>2026-04-26T16:09:55.424Z</time></trkpt><trkpt lat="45.390514" lon="11.2268417"><ele>20.0</ele><time>2026-04-26T16:09:56.424Z</time></trkpt><trkpt lat="45.3905435" lon="11.2264877"><ele>20.0</ele><time>2026-04-26T16:09:57.423Z</time></trkpt><trkpt lat="45.3905799" lon="11.226138"><ele>20.0</ele><time>2026-04-26T16:09:58.423Z</time></trkpt><trkpt lat="45.3906141" lon="11.2257904"><ele>19.5</ele><time>2026-04-26T16:09:59.423Z</time></trkpt><trkpt lat="45.3906485" lon="11.2254412"><ele>19.0</ele><time>2026-04-26T16:10:00.423Z</time></trkpt><trkpt lat="45.3906812" lon="11.2250983"><ele>19.0</ele><time>2026-04-26T16:10:01.423Z</time></trkpt><trkpt lat="45.3907137" lon="11.2247684"><ele>19.0</ele><time>2026-04-26T16:10:02.423Z</time></trkpt><trkpt lat="45.3907454" lon="11.224446"><ele>19.0</ele><time>2026-04-26T16:10:03.423Z</time></trkpt><trkpt lat="45.3907743" lon="11.2241289"><ele>19.0</ele><time>2026-04-26T16:10:04.423Z</time></trkpt><trkpt lat="45.3908043" lon="11.2238129"><ele>19.0</ele><time>2026-04-26T16:10:05.424Z</time></trkpt><trkpt lat="45.3908351" lon="11.2234924"><ele>19.5</ele><time>2026-04-26T16:10:06.423Z</time></trkpt><trkpt lat="45.3908696" lon="11.2231707"><ele>20.0</ele><time>2026-04-26T16:10:07.423Z</time></trkpt><trkpt lat="45.3909047" lon="11.2228468"><ele>20.0</ele><time>2026-04-26T16:10:08.423Z</time></trkpt><trkpt lat="45.3909403" lon="11.2225177"><ele>20.0</ele><time>2026-04-26T16:10:09.424Z</time></trkpt><trkpt lat="45.3909769" lon="11.2221871"><ele>20.0</ele><time>2026-04-26T16:10:10.424Z</time></trkpt><trkpt lat="45.3910139" lon="11.2218593"><ele>20.0</ele><time>2026-04-26T16:10:11.423Z</time></trkpt><trkpt lat="45.3910541" lon="11.2215286"><ele>20.5</ele><time>2026-04-26T16:10:12.423Z</time></trkpt><trkpt lat="45.3910946" lon="11.2211928"><ele>21.0</ele><time>2026-04-26T16:10:13.424Z</time></trkpt><trkpt lat="45.3911319" lon="11.220856"><ele>21.5</ele><time>2026-04-26T16:10:14.424Z</time></trkpt><trkpt lat="45.3911668" lon="11.2205157"><ele>22.0</ele><time>2026-04-26T16:10:15.423Z</time></trkpt><trkpt lat="45.3912035" lon="11.2201724"><ele>22.0</ele><time>2026-04-26T16:10:16.423Z</time></trkpt><trkpt lat="45.3912378" lon="11.2198305"><ele>22.0</ele><time>2026-04-26T16:10:17.423Z</time></trkpt><trkpt lat="45.3912723" lon="11.2194888"><ele>22.0</ele><time>2026-04-26T16:10:18.423Z</time></trkpt><trkpt lat="45.3913081" lon="11.2191504"><ele>22.0</ele><time>2026-04-26T16:10:19.423Z</time></trkpt><trkpt lat="45.3913472" lon="11.218801"><ele>21.5</ele><time>2026-04-26T16:10:20.423Z</time></trkpt><trkpt lat="45.3913858" lon="11.2184523"><ele>21.0</ele><time>2026-04-26T16:10:21.423Z</time></trkpt><trkpt lat="45.3914207" lon="11.2181002"><ele>21.0</ele><time>2026-04-26T16:10:22.423Z</time></trkpt><trkpt lat="45.3914592" lon="11.2177514"><ele>21.0</ele><time>2026-04-26T16:10:23.424Z</time></trkpt><trkpt lat="45.391499" lon="11.2174044"><ele>21.5</ele><time>2026-04-26T16:10:24.423Z</time></trkpt><trkpt lat="45.3915399" lon="11.2170627"><ele>22.0</ele><time>2026-04-26T16:10:25.423Z</time></trkpt><trkpt lat="45.3915716" lon="11.2167297"><ele>22.0</ele><time>2026-04-26T16:10:26.423Z</time></trkpt><trkpt lat="45.3915922" lon="11.2163966"><ele>22.0</ele><time>2026-04-26T16:10:27.423Z</time></trkpt><trkpt lat="45.3915974" lon="11.2160638"><ele>22.0</ele><time>2026-04-26T16:10:28.423Z</time></trkpt><trkpt lat="45.3915921" lon="11.2157438"><ele>22.0</ele><time>2026-04-26T16:10:29.424Z</time></trkpt><trkpt lat="45.3915732" lon="11.2154251"><ele>22.0</ele><time>2026-04-26T16:10:30.423Z</time></trkpt><trkpt lat="45.3915427" lon="11.2151225"><ele>22.0</ele><time>2026-04-26T16:10:31.423Z</time></trkpt><trkpt lat="45.3915073" lon="11.2148362"><ele>22.0</ele><time>2026-04-26T16:10:32.423Z</time></trkpt><trkpt lat="45.3914683" lon="11.2145712"><ele>22.0</ele><time>2026-04-26T16:10:33.424Z</time></trkpt><trkpt lat="45.3914269" lon="11.2143173"><ele>22.0</ele><time>2026-04-26T16:10:34.423Z</time></trkpt><trkpt lat="45.3913882" lon="11.2140864"><ele>22.0</ele><time>2026-04-26T16:10:35.423Z</time></trkpt><trkpt lat="45.391354" lon="11.2138713"><ele>22.0</ele><time>2026-04-26T16:10:36.424Z</time></trkpt><trkpt lat="45.3913205" lon="11.2136826"><ele>22.0</ele><time>2026-04-26T16:10:37.423Z</time></trkpt><trkpt lat="45.3912961" lon="11.2135238"><ele>22.0</ele><time>2026-04-26T16:10:38.423Z</time></trkpt><trkpt lat="45.3912755" lon="11.2133827"><ele>22.0</ele><time>2026-04-26T16:10:39.423Z</time></trkpt><trkpt lat="45.391254" lon="11.2132525"><ele>22.0</ele><time>2026-04-26T16:10:40.423Z</time></trkpt><trkpt lat="45.3912399" lon="11.2131465"><ele>22.0</ele><time>2026-04-26T16:10:41.423Z</time></trkpt><trkpt lat="45.3912315" lon="11.2129689"><ele>22.0</ele><time>2026-04-26T16:10:43.423Z</time></trkpt><trkpt lat="45.3912541" lon="11.212864"><ele>22.0</ele><time>2026-04-26T16:10:44.424Z</time></trkpt><trkpt lat="45.3912958" lon="11.2127446"><ele>22.0</ele><time>2026-04-26T16:10:45.423Z</time></trkpt><trkpt lat="45.3913425" lon="11.2126217"><ele>22.0</ele><time>2026-04-26T16:10:46.424Z</time></trkpt><trkpt lat="45.3913745" lon="11.2124853"><ele>22.0</ele><time>2026-04-26T16:10:47.423Z</time></trkpt><trkpt lat="45.3913789" lon="11.2123564"><ele>22.0</ele><time>2026-04-26T16:10:48.423Z</time></trkpt><trkpt lat="45.3913558" lon="11.2122385"><ele>22.0</ele><time>2026-04-26T16:10:49.424Z</time></trkpt><trkpt lat="45.3913132" lon="11.2121323"><ele>22.0</ele><time>2026-04-26T16:10:50.423Z</time></trkpt><trkpt lat="45.3912499" lon="11.2120377"><ele>22.0</ele><time>2026-04-26T16:10:51.423Z</time></trkpt><trkpt lat="45.3911802" lon="11.2119473"><ele>22.0</ele><time>2026-04-26T16:10:52.424Z</time></trkpt><trkpt lat="45.3911095" lon="11.2118434"><ele>22.25</ele><time>2026-04-26T16:10:53.423Z</time></trkpt><trkpt lat="45.3910721" lon="11.2116784"><ele>22.5</ele><time>2026-04-26T16:10:54.423Z</time></trkpt><trkpt lat="45.3910557" lon="11.2114842"><ele>22.75</ele><time>2026-04-26T16:10:55.423Z</time></trkpt><trkpt lat="45.3910473" lon="11.2112786"><ele>23.0</ele><time>2026-04-26T16:10:56.423Z</time></trkpt><trkpt lat="45.3910517" lon="11.2110606"><ele>23.0</ele><time>2026-04-26T16:10:57.423Z</time></trkpt><trkpt lat="45.3910611" lon="11.2108378"><ele>23.0</ele><time>2026-04-26T16:10:58.423Z</time></trkpt><trkpt lat="45.3910765" lon="11.2106091"><ele>23.0</ele><time>2026-04-26T16:10:59.423Z</time></trkpt><trkpt lat="45.3910981" lon="11.210373"><ele>22.666666666666668</ele><time>2026-04-26T16:11:00.424Z</time></trkpt><trkpt lat="45.3911256" lon="11.2101325"><ele>22.333333333333332</ele><time>2026-04-26T16:11:01.424Z</time></trkpt><trkpt lat="45.3911626" lon="11.209896"><ele>22.0</ele><time>2026-04-26T16:11:02.423Z</time></trkpt><trkpt lat="45.3912061" lon="11.2096548"><ele>22.0</ele><time>2026-04-26T16:11:03.423Z</time></trkpt><trkpt lat="45.391256" lon="11.2094109"><ele>22.0</ele><time>2026-04-26T16:11:04.423Z</time></trkpt><trkpt lat="45.39131" lon="11.2091762"><ele>22.0</ele><time>2026-04-26T16:11:05.423Z</time></trkpt><trkpt lat="45.3913647" lon="11.2089444"><ele>22.0</ele><time>2026-04-26T16:11:06.423Z</time></trkpt><trkpt lat="45.3914216" lon="11.2087137"><ele>22.0</ele><time>2026-04-26T16:11:07.423Z</time></trkpt><trkpt lat="45.3914761" lon="11.2084914"><ele>22.0</ele><time>2026-04-26T16:11:08.424Z</time></trkpt><trkpt lat="45.3915263" lon="11.2082646"><ele>21.666666666666664</ele><time>2026-04-26T16:11:09.424Z</time></trkpt><trkpt lat="45.3915796" lon="11.2080302"><ele>21.333333333333332</ele><time>2026-04-26T16:11:10.423Z</time></trkpt><trkpt lat="45.3916322" lon="11.2077964"><ele>21.0</ele><time>2026-04-26T16:11:11.424Z</time></trkpt><trkpt lat="45.3916834" lon="11.2075605"><ele>21.333333333333332</ele><time>2026-04-26T16:11:12.424Z</time></trkpt><trkpt lat="45.391732" lon="11.2073172"><ele>21.666666666666664</ele><time>2026-04-26T16:11:13.423Z</time></trkpt><trkpt lat="45.391778" lon="11.2070714"><ele>22.0</ele><time>2026-04-26T16:11:14.424Z</time></trkpt><trkpt lat="45.3918207" lon="11.2068229"><ele>22.0</ele><time>2026-04-26T16:11:15.424Z</time></trkpt><trkpt lat="45.3918621" lon="11.2065755"><ele>22.0</ele><time>2026-04-26T16:11:16.423Z</time></trkpt><trkpt lat="45.3918984" lon="11.2063197"><ele>22.0</ele><time>2026-04-26T16:11:17.424Z</time></trkpt><trkpt lat="45.3919346" lon="11.2060635"><ele>22.0</ele><time>2026-04-26T16:11:18.424Z</time></trkpt><trkpt lat="45.3919689" lon="11.205806"><ele>22.0</ele><time>2026-04-26T16:11:19.424Z</time></trkpt><trkpt lat="45.3920062" lon="11.2055488"><ele>22.0</ele><time>2026-04-26T16:11:20.423Z</time></trkpt><trkpt lat="45.3920423" lon="11.2052913"><ele>22.0</ele><time>2026-04-26T16:11:21.423Z</time></trkpt><trkpt lat="45.3920748" lon="11.2050321"><ele>22.0</ele><time>2026-04-26T16:11:22.423Z</time></trkpt><trkpt lat="45.3921097" lon="11.20477"><ele>22.0</ele><time>2026-04-26T16:11:23.424Z</time></trkpt><trkpt lat="45.3921455" lon="11.2045074"><ele>21.666666666666664</ele><time>2026-04-26T16:11:24.423Z</time></trkpt><trkpt lat="45.3921803" lon="11.2042436"><ele>21.333333333333332</ele><time>2026-04-26T16:11:25.423Z</time></trkpt><trkpt lat="45.3922168" lon="11.2039883"><ele>21.0</ele><time>2026-04-26T16:11:26.423Z</time></trkpt><trkpt lat="45.3922542" lon="11.2037324"><ele>21.0</ele><time>2026-04-26T16:11:27.423Z</time></trkpt><trkpt lat="45.3922914" lon="11.2034739"><ele>21.0</ele><time>2026-04-26T16:11:28.423Z</time></trkpt><trkpt lat="45.39233" lon="11.2032188"><ele>21.0</ele><time>2026-04-26T16:11:29.424Z</time></trkpt><trkpt lat="45.392368" lon="11.2029635"><ele>21.0</ele><time>2026-04-26T16:11:30.423Z</time></trkpt><trkpt lat="45.3924088" lon="11.2027139"><ele>21.0</ele><time>2026-04-26T16:11:31.423Z</time></trkpt><trkpt lat="45.3924497" lon="11.202463"><ele>21.0</ele><time>2026-04-26T16:11:32.423Z</time></trkpt><trkpt lat="45.3924889" lon="11.202208"><ele>20.666666666666668</ele><time>2026-04-26T16:11:33.423Z</time></trkpt><trkpt lat="45.3925314" lon="11.2019568"><ele>20.333333333333336</ele><time>2026-04-26T16:11:34.424Z</time></trkpt><trkpt lat="45.3925699" lon="11.2017001"><ele>20.0</ele><time>2026-04-26T16:11:35.423Z</time></trkpt><trkpt lat="45.3926134" lon="11.2014427"><ele>20.0</ele><time>2026-04-26T16:11:36.423Z</time></trkpt><trkpt lat="45.3926564" lon="11.2011819"><ele>20.0</ele><time>2026-04-26T16:11:37.423Z</time></trkpt><trkpt lat="45.3926991" lon="11.2009269"><ele>20.0</ele><time>2026-04-26T16:11:38.423Z</time></trkpt><trkpt lat="45.3927438" lon="11.2006719"><ele>21.0</ele><time>2026-04-26T16:11:39.424Z</time></trkpt><trkpt lat="45.3927872" lon="11.2004249"><ele>22.0</ele><time>2026-04-26T16:11:40.423Z</time></trkpt><trkpt lat="45.3928283" lon="11.2001825"><ele>23.0</ele><time>2026-04-26T16:11:41.423Z</time></trkpt><trkpt lat="45.392871" lon="11.1999492"><ele>23.0</ele><time>2026-04-26T16:11:42.424Z</time></trkpt><trkpt lat="45.3929075" lon="11.1997243"><ele>23.0</ele><time>2026-04-26T16:11:43.424Z</time></trkpt><trkpt lat="45.3929435" lon="11.1995084"><ele>23.0</ele><time>2026-04-26T16:11:44.423Z</time></trkpt><trkpt lat="45.3929775" lon="11.1992914"><ele>23.0</ele><time>2026-04-26T16:11:45.424Z</time></trkpt><trkpt lat="45.3930099" lon="11.1990888"><ele>23.0</ele><time>2026-04-26T16:11:46.423Z</time></trkpt><trkpt lat="45.3930425" lon="11.1988972"><ele>23.0</ele><time>2026-04-26T16:11:47.423Z</time></trkpt><trkpt lat="45.3930728" lon="11.1987209"><ele>23.0</ele><time>2026-04-26T16:11:48.423Z</time></trkpt><trkpt lat="45.3930984" lon="11.1985564"><ele>22.799999999999997</ele><time>2026-04-26T16:11:49.424Z</time></trkpt><trkpt lat="45.3931221" lon="11.1984172"><ele>22.6</ele><time>2026-04-26T16:11:50.424Z</time></trkpt><trkpt lat="45.393149" lon="11.1982971"><ele>22.4</ele><time>2026-04-26T16:11:51.423Z</time></trkpt><trkpt lat="45.3932039" lon="11.1981922"><ele>22.200000000000003</ele><time>2026-04-26T16:11:52.423Z</time></trkpt><trkpt lat="45.3932845" lon="11.1981069"><ele>22.0</ele><time>2026-04-26T16:11:53.423Z</time></trkpt><trkpt lat="45.3933754" lon="11.1980235"><ele>21.6</ele><time>2026-04-26T16:11:54.423Z</time></trkpt><trkpt lat="45.3934516" lon="11.1979143"><ele>21.200000000000003</ele><time>2026-04-26T16:11:55.424Z</time></trkpt><trkpt lat="45.3934935" lon="11.1977864"><ele>20.8</ele><time>2026-04-26T16:11:56.423Z</time></trkpt><trkpt lat="45.393501" lon="11.1976534"><ele>20.4</ele><time>2026-04-26T16:11:57.423Z</time></trkpt><trkpt lat="45.3934795" lon="11.1975216"><ele>20.0</ele><time>2026-04-26T16:11:58.423Z</time></trkpt><trkpt lat="45.393437" lon="11.1973947"><ele>20.25</ele><time>2026-04-26T16:11:59.423Z</time></trkpt><trkpt lat="45.3933888" lon="11.1972653"><ele>20.5</ele><time>2026-04-26T16:12:00.423Z</time></trkpt><trkpt lat="45.3933508" lon="11.1971157"><ele>20.75</ele><time>2026-04-26T16:12:01.423Z</time></trkpt><trkpt lat="45.3933415" lon="11.196947"><ele>21.0</ele><time>2026-04-26T16:12:02.424Z</time></trkpt><trkpt lat="45.3933592" lon="11.1967614"><ele>21.0</ele><time>2026-04-26T16:12:03.424Z</time></trkpt><trkpt lat="45.3933862" lon="11.1965776"><ele>21.0</ele><time>2026-04-26T16:12:04.424Z</time></trkpt><trkpt lat="45.3934143" lon="11.1963921"><ele>21.0</ele><time>2026-04-26T16:12:05.423Z</time></trkpt><trkpt lat="45.3934455" lon="11.1961969"><ele>21.0</ele><time>2026-04-26T16:12:06.424Z</time></trkpt><trkpt lat="45.3934775" lon="11.1959993"><ele>21.0</ele><time>2026-04-26T16:12:07.423Z</time></trkpt><trkpt lat="45.3935116" lon="11.1957889"><ele>21.0</ele><time>2026-04-26T16:12:08.424Z</time></trkpt><trkpt lat="45.3935435" lon="11.1955705"><ele>21.0</ele><time>2026-04-26T16:12:09.423Z</time></trkpt><trkpt lat="45.3935816" lon="11.1953458"><ele>21.333333333333332</ele><time>2026-04-26T16:12:10.424Z</time></trkpt><trkpt lat="45.3936241" lon="11.1951078"><ele>21.666666666666664</ele><time>2026-04-26T16:12:11.423Z</time></trkpt><trkpt lat="45.3936626" lon="11.1948595"><ele>22.0</ele><time>2026-04-26T16:12:12.424Z</time></trkpt><trkpt lat="45.3937009" lon="11.1946056"><ele>22.0</ele><time>2026-04-26T16:12:13.423Z</time></trkpt><trkpt lat="45.3937398" lon="11.1943402"><ele>22.0</ele><time>2026-04-26T16:12:14.423Z</time></trkpt><trkpt lat="45.3937811" lon="11.1940686"><ele>22.0</ele><time>2026-04-26T16:12:15.423Z</time></trkpt><trkpt lat="45.3938227" lon="11.1937905"><ele>22.0</ele><time>2026-04-26T16:12:16.423Z</time></trkpt><trkpt lat="45.3938673" lon="11.1935054"><ele>22.0</ele><time>2026-04-26T16:12:17.423Z</time></trkpt><trkpt lat="45.3939077" lon="11.1932101"><ele>22.0</ele><time>2026-04-26T16:12:18.424Z</time></trkpt><trkpt lat="45.3939488" lon="11.1929155"><ele>22.0</ele><time>2026-04-26T16:12:19.423Z</time></trkpt><trkpt lat="45.3939884" lon="11.1926161"><ele>22.0</ele><time>2026-04-26T16:12:20.424Z</time></trkpt><trkpt lat="45.3940371" lon="11.1923134"><ele>22.0</ele><time>2026-04-26T16:12:21.423Z</time></trkpt><trkpt lat="45.3940804" lon="11.1920066"><ele>22.0</ele><time>2026-04-26T16:12:22.424Z</time></trkpt><trkpt lat="45.3941194" lon="11.1916983"><ele>22.0</ele><time>2026-04-26T16:12:23.423Z</time></trkpt><trkpt lat="45.394162" lon="11.191388"><ele>22.0</ele><time>2026-04-26T16:12:24.423Z</time></trkpt><trkpt lat="45.3942018" lon="11.1910745"><ele>22.0</ele><time>2026-04-26T16:12:25.423Z</time></trkpt><trkpt lat="45.3942463" lon="11.1907605"><ele>22.0</ele><time>2026-04-26T16:12:26.424Z</time></trkpt><trkpt lat="45.3942859" lon="11.1904503"><ele>22.0</ele><time>2026-04-26T16:12:27.423Z</time></trkpt><trkpt lat="45.3943262" lon="11.1901374"><ele>22.0</ele><time>2026-04-26T16:12:28.423Z</time></trkpt><trkpt lat="45.3943641" lon="11.1898228"><ele>22.0</ele><time>2026-04-26T16:12:29.423Z</time></trkpt><trkpt lat="45.3944006" lon="11.1895106"><ele>22.0</ele><time>2026-04-26T16:12:30.423Z</time></trkpt><trkpt lat="45.3944318" lon="11.1892015"><ele>22.666666666666664</ele><time>2026-04-26T16:12:31.423Z</time></trkpt><trkpt lat="45.3944637" lon="11.1888966"><ele>23.333333333333332</ele><time>2026-04-26T16:12:32.424Z</time></trkpt><trkpt lat="45.39449" lon="11.1885939"><ele>24.0</ele><time>2026-04-26T16:12:33.423Z</time></trkpt><trkpt lat="45.3945128" lon="11.1882942"><ele>23.666666666666668</ele><time>2026-04-26T16:12:34.423Z</time></trkpt><trkpt lat="45.394534" lon="11.1879975"><ele>23.333333333333336</ele><time>2026-04-26T16:12:35.423Z</time></trkpt><trkpt lat="45.3945498" lon="11.1877061"><ele>23.0</ele><time>2026-04-26T16:12:36.423Z</time></trkpt><trkpt lat="45.3945647" lon="11.1874126"><ele>22.333333333333336</ele><time>2026-04-26T16:12:37.423Z</time></trkpt><trkpt lat="45.394577" lon="11.1871227"><ele>21.666666666666668</ele><time>2026-04-26T16:12:38.423Z</time></trkpt><trkpt lat="45.3945845" lon="11.1868398"><ele>21.0</ele><time>2026-04-26T16:12:39.424Z</time></trkpt><trkpt lat="45.3945927" lon="11.1865574"><ele>21.0</ele><time>2026-04-26T16:12:40.423Z</time></trkpt><trkpt lat="45.3946013" lon="11.1862807"><ele>21.0</ele><time>2026-04-26T16:12:41.423Z</time></trkpt><trkpt lat="45.3946133" lon="11.18601"><ele>21.0</ele><time>2026-04-26T16:12:42.423Z</time></trkpt><trkpt lat="45.3946223" lon="11.1857401"><ele>21.666666666666668</ele><time>2026-04-26T16:12:43.423Z</time></trkpt><trkpt lat="45.3946313" lon="11.1854754"><ele>22.333333333333336</ele><time>2026-04-26T16:12:44.424Z</time></trkpt><trkpt lat="45.3946374" lon="11.1852162"><ele>23.0</ele><time>2026-04-26T16:12:45.424Z</time></trkpt><trkpt lat="45.3946447" lon="11.1849596"><ele>22.666666666666668</ele><time>2026-04-26T16:12:46.424Z</time></trkpt><trkpt lat="45.3946536" lon="11.1847054"><ele>22.333333333333332</ele><time>2026-04-26T16:12:47.423Z</time></trkpt><trkpt lat="45.3946604" lon="11.1844544"><ele>22.0</ele><time>2026-04-26T16:12:48.423Z</time></trkpt><trkpt lat="45.3946709" lon="11.1842138"><ele>22.333333333333332</ele><time>2026-04-26T16:12:49.424Z</time></trkpt><trkpt lat="45.3946767" lon="11.1839865"><ele>22.666666666666668</ele><time>2026-04-26T16:12:50.423Z</time></trkpt><trkpt lat="45.3946877" lon="11.1837718"><ele>23.0</ele><time>2026-04-26T16:12:51.423Z</time></trkpt><trkpt lat="45.3946939" lon="11.1835681"><ele>23.0</ele><time>2026-04-26T16:12:52.423Z</time></trkpt><trkpt lat="45.3947034" lon="11.1833789"><ele>23.0</ele><time>2026-04-26T16:12:53.424Z</time></trkpt><trkpt lat="45.3947164" lon="11.1832009"><ele>23.0</ele><time>2026-04-26T16:12:54.423Z</time></trkpt><trkpt lat="45.3947287" lon="11.1830355"><ele>23.0</ele><time>2026-04-26T16:12:55.423Z</time></trkpt><trkpt lat="45.3947502" lon="11.1828855"><ele>23.0</ele><time>2026-04-26T16:12:56.423Z</time></trkpt><trkpt lat="45.3947805" lon="11.1827614"><ele>23.0</ele><time>2026-04-26T16:12:57.423Z</time></trkpt><trkpt lat="45.394819" lon="11.1826579"><ele>23.0</ele><time>2026-04-26T16:12:58.423Z</time></trkpt><trkpt lat="45.3948793" lon="11.1825674"><ele>23.0</ele><time>2026-04-26T16:12:59.424Z</time></trkpt><trkpt lat="45.3949441" lon="11.1824772"><ele>23.0</ele><time>2026-04-26T16:13:00.424Z</time></trkpt><trkpt lat="45.3950082" lon="11.1823786"><ele>23.0</ele><time>2026-04-26T16:13:01.424Z</time></trkpt><trkpt lat="45.3950608" lon="11.1822556"><ele>23.0</ele><time>2026-04-26T16:13:02.423Z</time></trkpt><trkpt lat="45.3950862" lon="11.1821108"><ele>23.0</ele><time>2026-04-26T16:13:03.423Z</time></trkpt><trkpt lat="45.3950796" lon="11.1819621"><ele>23.0</ele><time>2026-04-26T16:13:04.424Z</time></trkpt><trkpt lat="45.3950393" lon="11.1818145"><ele>23.0</ele><time>2026-04-26T16:13:05.424Z</time></trkpt><trkpt lat="45.3949954" lon="11.1816618"><ele>23.0</ele><time>2026-04-26T16:13:06.424Z</time></trkpt><trkpt lat="45.3949675" lon="11.1815044"><ele>23.25</ele><time>2026-04-26T16:13:07.423Z</time></trkpt><trkpt lat="45.3949672" lon="11.1813366"><ele>23.5</ele><time>2026-04-26T16:13:08.423Z</time></trkpt><trkpt lat="45.3949888" lon="11.1811661"><ele>23.75</ele><time>2026-04-26T16:13:09.423Z</time></trkpt><trkpt lat="45.3950264" lon="11.1809893"><ele>24.0</ele><time>2026-04-26T16:13:10.423Z</time></trkpt><trkpt lat="45.3950753" lon="11.1808059"><ele>24.25</ele><time>2026-04-26T16:13:11.423Z</time></trkpt><trkpt lat="45.3951289" lon="11.1806207"><ele>24.5</ele><time>2026-04-26T16:13:12.423Z</time></trkpt><trkpt lat="45.3951885" lon="11.1804309"><ele>24.75</ele><time>2026-04-26T16:13:13.423Z</time></trkpt><trkpt lat="45.3952521" lon="11.1802393"><ele>25.0</ele><time>2026-04-26T16:13:14.424Z</time></trkpt><trkpt lat="45.3953187" lon="11.1800408"><ele>24.333333333333336</ele><time>2026-04-26T16:13:15.424Z</time></trkpt><trkpt lat="45.3953916" lon="11.1798383"><ele>23.666666666666668</ele><time>2026-04-26T16:13:16.424Z</time></trkpt><trkpt lat="45.3954714" lon="11.1796314"><ele>23.0</ele><time>2026-04-26T16:13:17.423Z</time></trkpt><trkpt lat="45.3955602" lon="11.1794265"><ele>23.0</ele><time>2026-04-26T16:13:18.424Z</time></trkpt><trkpt lat="45.3956533" lon="11.1792263"><ele>23.0</ele><time>2026-04-26T16:13:19.424Z</time></trkpt><trkpt lat="45.3957483" lon="11.1790341"><ele>23.0</ele><time>2026-04-26T16:13:20.423Z</time></trkpt><trkpt lat="45.3958381" lon="11.1788465"><ele>23.333333333333336</ele><time>2026-04-26T16:13:21.423Z</time></trkpt><trkpt lat="45.3959342" lon="11.1786517"><ele>23.666666666666668</ele><time>2026-04-26T16:13:22.423Z</time></trkpt><trkpt lat="45.3960265" lon="11.1784545"><ele>24.0</ele><time>2026-04-26T16:13:23.423Z</time></trkpt><trkpt lat="45.39612" lon="11.1782534"><ele>23.666666666666668</ele><time>2026-04-26T16:13:24.423Z</time></trkpt><trkpt lat="45.3962149" lon="11.1780492"><ele>23.333333333333336</ele><time>2026-04-26T16:13:25.423Z</time></trkpt><trkpt lat="45.3963119" lon="11.1778453"><ele>23.0</ele><time>2026-04-26T16:13:26.423Z</time></trkpt><trkpt lat="45.396406" lon="11.1776348"><ele>23.0</ele><time>2026-04-26T16:13:27.423Z</time></trkpt><trkpt lat="45.396502" lon="11.17743"><ele>23.0</ele><time>2026-04-26T16:13:28.423Z</time></trkpt><trkpt lat="45.3965987" lon="11.1772293"><ele>23.0</ele><time>2026-04-26T16:13:29.423Z</time></trkpt><trkpt lat="45.3966941" lon="11.1770321"><ele>23.0</ele><time>2026-04-26T16:13:30.424Z</time></trkpt><trkpt lat="45.3967814" lon="11.1768394"><ele>23.0</ele><time>2026-04-26T16:13:31.424Z</time></trkpt><trkpt lat="45.3968723" lon="11.1766435"><ele>23.0</ele><time>2026-04-26T16:13:32.424Z</time></trkpt><trkpt lat="45.3969614" lon="11.1764535"><ele>23.333333333333336</ele><time>2026-04-26T16:13:33.424Z</time></trkpt><trkpt lat="45.3970519" lon="11.1762566"><ele>23.666666666666668</ele><time>2026-04-26T16:13:34.423Z</time></trkpt><trkpt lat="45.3971458" lon="11.1760582"><ele>24.0</ele><time>2026-04-26T16:13:35.423Z</time></trkpt><trkpt lat="45.3972424" lon="11.1758544"><ele>24.333333333333336</ele><time>2026-04-26T16:13:36.424Z</time></trkpt><trkpt lat="45.3973426" lon="11.1756493"><ele>24.666666666666668</ele><time>2026-04-26T16:13:37.423Z</time></trkpt><trkpt lat="45.3974439" lon="11.1754437"><ele>25.0</ele><time>2026-04-26T16:13:38.423Z</time></trkpt><trkpt lat="45.397542" lon="11.1752307"><ele>25.0</ele><time>2026-04-26T16:13:39.423Z</time></trkpt><trkpt lat="45.397642" lon="11.1750164"><ele>25.0</ele><time>2026-04-26T16:13:40.424Z</time></trkpt><trkpt lat="45.3977458" lon="11.1748031"><ele>25.0</ele><time>2026-04-26T16:13:41.424Z</time></trkpt><trkpt lat="45.3978479" lon="11.1745886"><ele>24.666666666666668</ele><time>2026-04-26T16:13:42.423Z</time></trkpt><trkpt lat="45.3979506" lon="11.17437"><ele>24.333333333333336</ele><time>2026-04-26T16:13:43.423Z</time></trkpt><trkpt lat="45.3980537" lon="11.1741423"><ele>24.0</ele><time>2026-04-26T16:13:44.424Z</time></trkpt><trkpt lat="45.3981598" lon="11.173895"><ele>23.5</ele><time>2026-04-26T16:13:45.423Z</time></trkpt><trkpt lat="45.3982712" lon="11.1736291"><ele>23.0</ele><time>2026-04-26T16:13:46.423Z</time></trkpt><trkpt lat="45.3983997" lon="11.1733424"><ele>24.5</ele><time>2026-04-26T16:13:47.424Z</time></trkpt><trkpt lat="45.3985436" lon="11.1730336"><ele>26.0</ele><time>2026-04-26T16:13:48.423Z</time></trkpt><trkpt lat="45.3986993" lon="11.1727098"><ele>25.5</ele><time>2026-04-26T16:13:49.424Z</time></trkpt><trkpt lat="45.3988616" lon="11.1723721"><ele>25.0</ele><time>2026-04-26T16:13:50.423Z</time></trkpt><trkpt lat="45.3990328" lon="11.1720331"><ele>25.0</ele><time>2026-04-26T16:13:51.424Z</time></trkpt><trkpt lat="45.3991981" lon="11.1717124"><ele>25.0</ele><time>2026-04-26T16:13:52.423Z</time></trkpt><trkpt lat="45.3993529" lon="11.1714026"><ele>24.0</ele><time>2026-04-26T16:13:53.423Z</time></trkpt><trkpt lat="45.3994987" lon="11.1710965"><ele>23.0</ele><time>2026-04-26T16:13:54.423Z</time></trkpt><trkpt lat="45.3996404" lon="11.1708015"><ele>22.5</ele><time>2026-04-26T16:13:55.424Z</time></trkpt><trkpt lat="45.3997792" lon="11.1705128"><ele>22.0</ele><time>2026-04-26T16:13:56.423Z</time></trkpt><trkpt lat="45.399914" lon="11.1702324"><ele>22.0</ele><time>2026-04-26T16:13:57.424Z</time></trkpt><trkpt lat="45.4000436" lon="11.169959"><ele>22.0</ele><time>2026-04-26T16:13:58.424Z</time></trkpt><trkpt lat="45.4001737" lon="11.1696869"><ele>22.666666666666664</ele><time>2026-04-26T16:13:59.423Z</time></trkpt><trkpt lat="45.400302" lon="11.169423"><ele>23.333333333333332</ele><time>2026-04-26T16:14:00.423Z</time></trkpt><trkpt lat="45.400429" lon="11.1691627"><ele>24.0</ele><time>2026-04-26T16:14:01.424Z</time></trkpt><trkpt lat="45.4005533" lon="11.1689099"><ele>25.0</ele><time>2026-04-26T16:14:02.423Z</time></trkpt><trkpt lat="45.4006781" lon="11.1686586"><ele>26.0</ele><time>2026-04-26T16:14:03.423Z</time></trkpt><trkpt lat="45.4008053" lon="11.1684151"><ele>27.0</ele><time>2026-04-26T16:14:04.424Z</time></trkpt><trkpt lat="45.4009304" lon="11.1681713"><ele>27.666666666666664</ele><time>2026-04-26T16:14:05.423Z</time></trkpt><trkpt lat="45.4010526" lon="11.1679308"><ele>28.333333333333332</ele><time>2026-04-26T16:14:06.423Z</time></trkpt><trkpt lat="45.4011768" lon="11.1676933"><ele>29.0</ele><time>2026-04-26T16:14:07.424Z</time></trkpt><trkpt lat="45.4012987" lon="11.1674557"><ele>28.333333333333332</ele><time>2026-04-26T16:14:08.423Z</time></trkpt><trkpt lat="45.4014185" lon="11.1672251"><ele>27.666666666666664</ele><time>2026-04-26T16:14:09.423Z</time></trkpt><trkpt lat="45.401538" lon="11.1669928"><ele>27.0</ele><time>2026-04-26T16:14:10.423Z</time></trkpt><trkpt lat="45.4016524" lon="11.1667573"><ele>27.333333333333336</ele><time>2026-04-26T16:14:11.423Z</time></trkpt><trkpt lat="45.4017591" lon="11.166515"><ele>27.666666666666668</ele><time>2026-04-26T16:14:12.423Z</time></trkpt><trkpt lat="45.4018609" lon="11.1662649"><ele>28.0</ele><time>2026-04-26T16:14:13.423Z</time></trkpt><trkpt lat="45.4019568" lon="11.1660144"><ele>28.0</ele><time>2026-04-26T16:14:14.423Z</time></trkpt><trkpt lat="45.4020407" lon="11.1657653"><ele>28.0</ele><time>2026-04-26T16:14:15.424Z</time></trkpt><trkpt lat="45.4021146" lon="11.1655219"><ele>28.0</ele><time>2026-04-26T16:14:16.423Z</time></trkpt><trkpt lat="45.4021764" lon="11.165287"><ele>28.25</ele><time>2026-04-26T16:14:17.423Z</time></trkpt><trkpt lat="45.4022301" lon="11.1650646"><ele>28.5</ele><time>2026-04-26T16:14:18.423Z</time></trkpt><trkpt lat="45.4022779" lon="11.1648729"><ele>28.75</ele><time>2026-04-26T16:14:19.423Z</time></trkpt><trkpt lat="45.4023195" lon="11.1647155"><ele>29.0</ele><time>2026-04-26T16:14:20.423Z</time></trkpt><trkpt lat="45.4023594" lon="11.1645865"><ele>28.999999999999996</ele><time>2026-04-26T16:14:21.424Z</time></trkpt><trkpt lat="45.4024071" lon="11.1644852"><ele>29.0</ele><time>2026-04-26T16:14:22.423Z</time></trkpt><trkpt lat="45.4024621" lon="11.1644142"><ele>29.0</ele><time>2026-04-26T16:14:23.424Z</time></trkpt><trkpt lat="45.4025281" lon="11.164352"><ele>29.0</ele><time>2026-04-26T16:14:24.423Z</time></trkpt><trkpt lat="45.4026063" lon="11.1643079"><ele>28.999999999999996</ele><time>2026-04-26T16:14:25.424Z</time></trkpt><trkpt lat="45.4026829" lon="11.1642469"><ele>29.0</ele><time>2026-04-26T16:14:26.423Z</time></trkpt><trkpt lat="45.4027506" lon="11.1641758"><ele>29.0</ele><time>2026-04-26T16:14:27.423Z</time></trkpt><trkpt lat="45.4027963" lon="11.1640836"><ele>29.0</ele><time>2026-04-26T16:14:28.424Z</time></trkpt><trkpt lat="45.402823" lon="11.1639646"><ele>29.0</ele><time>2026-04-26T16:14:29.423Z</time></trkpt><trkpt lat="45.4028228" lon="11.1638368"><ele>29.0</ele><time>2026-04-26T16:14:30.423Z</time></trkpt><trkpt lat="45.4028036" lon="11.1636975"><ele>29.0</ele><time>2026-04-26T16:14:31.423Z</time></trkpt><trkpt lat="45.4027803" lon="11.1635421"><ele>28.75</ele><time>2026-04-26T16:14:32.423Z</time></trkpt><trkpt lat="45.4027767" lon="11.1633755"><ele>28.5</ele><time>2026-04-26T16:14:33.423Z</time></trkpt><trkpt lat="45.4028033" lon="11.1631941"><ele>28.25</ele><time>2026-04-26T16:14:34.423Z</time></trkpt><trkpt lat="45.4028535" lon="11.1630058"><ele>28.0</ele><time>2026-04-26T16:14:35.423Z</time></trkpt><trkpt lat="45.4029086" lon="11.1628052"><ele>27.666666666666668</ele><time>2026-04-26T16:14:36.423Z</time></trkpt><trkpt lat="45.4029629" lon="11.162593"><ele>27.333333333333336</ele><time>2026-04-26T16:14:37.424Z</time></trkpt><trkpt lat="45.4030156" lon="11.1623815"><ele>27.0</ele><time>2026-04-26T16:14:38.423Z</time></trkpt><trkpt lat="45.4030715" lon="11.1621703"><ele>27.0</ele><time>2026-04-26T16:14:39.423Z</time></trkpt><trkpt lat="45.4031277" lon="11.1619618"><ele>27.0</ele><time>2026-04-26T16:14:40.423Z</time></trkpt><trkpt lat="45.4031861" lon="11.161746"><ele>27.0</ele><time>2026-04-26T16:14:41.424Z</time></trkpt><trkpt lat="45.4032449" lon="11.1615283"><ele>27.0</ele><time>2026-04-26T16:14:42.423Z</time></trkpt><trkpt lat="45.4033039" lon="11.1613027"><ele>27.0</ele><time>2026-04-26T16:14:43.424Z</time></trkpt><trkpt lat="45.4033637" lon="11.1610709"><ele>27.0</ele><time>2026-04-26T16:14:44.423Z</time></trkpt><trkpt lat="45.4034279" lon="11.1608321"><ele>27.333333333333336</ele><time>2026-04-26T16:14:45.423Z</time></trkpt><trkpt lat="45.4034911" lon="11.1605915"><ele>27.666666666666668</ele><time>2026-04-26T16:14:46.423Z</time></trkpt><trkpt lat="45.4035552" lon="11.1603488"><ele>28.0</ele><time>2026-04-26T16:14:47.423Z</time></trkpt><trkpt lat="45.4036203" lon="11.1600963"><ele>28.0</ele><time>2026-04-26T16:14:48.424Z</time></trkpt><trkpt lat="45.4036862" lon="11.1598465"><ele>28.0</ele><time>2026-04-26T16:14:49.424Z</time></trkpt><trkpt lat="45.4037567" lon="11.1595907"><ele>28.0</ele><time>2026-04-26T16:14:50.424Z</time></trkpt><trkpt lat="45.4038269" lon="11.1593323"><ele>28.0</ele><time>2026-04-26T16:14:51.423Z</time></trkpt><trkpt lat="45.403896" lon="11.1590708"><ele>28.0</ele><time>2026-04-26T16:14:52.424Z</time></trkpt><trkpt lat="45.4039658" lon="11.1588056"><ele>28.0</ele><time>2026-04-26T16:14:53.424Z</time></trkpt><trkpt lat="45.4040354" lon="11.1585374"><ele>28.0</ele><time>2026-04-26T16:14:54.423Z</time></trkpt><trkpt lat="45.4041076" lon="11.1582668"><ele>28.0</ele><time>2026-04-26T16:14:55.423Z</time></trkpt><trkpt lat="45.4041795" lon="11.1579941"><ele>28.0</ele><time>2026-04-26T16:14:56.423Z</time></trkpt><trkpt lat="45.4042517" lon="11.1577241"><ele>28.0</ele><time>2026-04-26T16:14:57.424Z</time></trkpt><trkpt lat="45.4043212" lon="11.1574522"><ele>28.0</ele><time>2026-04-26T16:14:58.423Z</time></trkpt><trkpt lat="45.4043966" lon="11.1571751"><ele>28.0</ele><time>2026-04-26T16:14:59.424Z</time></trkpt><trkpt lat="45.4044713" lon="11.1568984"><ele>27.666666666666668</ele><time>2026-04-26T16:15:00.423Z</time></trkpt><trkpt lat="45.4045443" lon="11.1566198"><ele>27.333333333333336</ele><time>2026-04-26T16:15:01.423Z</time></trkpt><trkpt lat="45.4046187" lon="11.1563482"><ele>27.0</ele><time>2026-04-26T16:15:02.424Z</time></trkpt><trkpt lat="45.40469" lon="11.1560749"><ele>27.333333333333336</ele><time>2026-04-26T16:15:03.423Z</time></trkpt><trkpt lat="45.4047607" lon="11.1558068"><ele>27.666666666666668</ele><time>2026-04-26T16:15:04.424Z</time></trkpt><trkpt lat="45.4048295" lon="11.1555422"><ele>28.0</ele><time>2026-04-26T16:15:05.423Z</time></trkpt><trkpt lat="45.4048981" lon="11.1552787"><ele>28.0</ele><time>2026-04-26T16:15:06.423Z</time></trkpt><trkpt lat="45.4049702" lon="11.1550158"><ele>28.0</ele><time>2026-04-26T16:15:07.424Z</time></trkpt><trkpt lat="45.4050405" lon="11.1547492"><ele>28.0</ele><time>2026-04-26T16:15:08.424Z</time></trkpt><trkpt lat="45.4051091" lon="11.1544841"><ele>28.333333333333336</ele><time>2026-04-26T16:15:09.423Z</time></trkpt><trkpt lat="45.4051779" lon="11.1542206"><ele>28.666666666666664</ele><time>2026-04-26T16:15:10.423Z</time></trkpt><trkpt lat="45.4052472" lon="11.1539581"><ele>29.0</ele><time>2026-04-26T16:15:11.423Z</time></trkpt><trkpt lat="45.4053127" lon="11.1537"><ele>29.0</ele><time>2026-04-26T16:15:12.423Z</time></trkpt><trkpt lat="45.4053828" lon="11.1534328"><ele>29.0</ele><time>2026-04-26T16:15:13.423Z</time></trkpt><trkpt lat="45.4054528" lon="11.1531615"><ele>29.0</ele><time>2026-04-26T16:15:14.424Z</time></trkpt><trkpt lat="45.4055222" lon="11.1528916"><ele>29.0</ele><time>2026-04-26T16:15:15.424Z</time></trkpt><trkpt lat="45.4055923" lon="11.152623"><ele>29.0</ele><time>2026-04-26T16:15:16.424Z</time></trkpt><trkpt lat="45.4056605" lon="11.1523564"><ele>29.0</ele><time>2026-04-26T16:15:17.423Z</time></trkpt><trkpt lat="45.4057286" lon="11.1520928"><ele>29.0</ele><time>2026-04-26T16:15:18.423Z</time></trkpt><trkpt lat="45.405797" lon="11.1518385"><ele>29.0</ele><time>2026-04-26T16:15:19.424Z</time></trkpt><trkpt lat="45.4058645" lon="11.1515875"><ele>29.0</ele><time>2026-04-26T16:15:20.423Z</time></trkpt><trkpt lat="45.4059331" lon="11.1513351"><ele>29.0</ele><time>2026-04-26T16:15:21.423Z</time></trkpt><trkpt lat="45.4059993" lon="11.1510828"><ele>29.0</ele><time>2026-04-26T16:15:22.424Z</time></trkpt><trkpt lat="45.4060671" lon="11.1508297"><ele>29.0</ele><time>2026-04-26T16:15:23.423Z</time></trkpt><trkpt lat="45.4061351" lon="11.150583"><ele>29.0</ele><time>2026-04-26T16:15:24.424Z</time></trkpt><trkpt lat="45.4061998" lon="11.1503333"><ele>29.0</ele><time>2026-04-26T16:15:25.423Z</time></trkpt><trkpt lat="45.4062656" lon="11.1500798"><ele>29.0</ele><time>2026-04-26T16:15:26.423Z</time></trkpt><trkpt lat="45.4063318" lon="11.149831"><ele>29.0</ele><time>2026-04-26T16:15:27.423Z</time></trkpt><trkpt lat="45.4063949" lon="11.1495804"><ele>29.0</ele><time>2026-04-26T16:15:28.423Z</time></trkpt><trkpt lat="45.4064565" lon="11.1493335"><ele>29.0</ele><time>2026-04-26T16:15:29.424Z</time></trkpt><trkpt lat="45.4065183" lon="11.1490845"><ele>29.333333333333332</ele><time>2026-04-26T16:15:30.423Z</time></trkpt><trkpt lat="45.4065814" lon="11.1488378"><ele>29.666666666666664</ele><time>2026-04-26T16:15:31.423Z</time></trkpt><trkpt lat="45.4066406" lon="11.1485893"><ele>30.0</ele><time>2026-04-26T16:15:32.423Z</time></trkpt><trkpt lat="45.4066989" lon="11.1483342"><ele>30.666666666666664</ele><time>2026-04-26T16:15:33.424Z</time></trkpt><trkpt lat="45.4067594" lon="11.1480777"><ele>31.333333333333332</ele><time>2026-04-26T16:15:34.423Z</time></trkpt><trkpt lat="45.4068158" lon="11.1478208"><ele>32.0</ele><time>2026-04-26T16:15:35.424Z</time></trkpt><trkpt lat="45.4068769" lon="11.147569"><ele>32.33333333333333</ele><time>2026-04-26T16:15:36.423Z</time></trkpt><trkpt lat="45.406937" lon="11.1473104"><ele>32.666666666666664</ele><time>2026-04-26T16:15:37.423Z</time></trkpt><trkpt lat="45.4069989" lon="11.1470555"><ele>33.0</ele><time>2026-04-26T16:15:38.423Z</time></trkpt><trkpt lat="45.4070645" lon="11.1468015"><ele>33.0</ele><time>2026-04-26T16:15:39.423Z</time></trkpt><trkpt lat="45.4071299" lon="11.1465562"><ele>33.0</ele><time>2026-04-26T16:15:40.423Z</time></trkpt><trkpt lat="45.4071968" lon="11.1463086"><ele>33.0</ele><time>2026-04-26T16:15:41.424Z</time></trkpt><trkpt lat="45.4072627" lon="11.146065"><ele>33.0</ele><time>2026-04-26T16:15:42.423Z</time></trkpt><trkpt lat="45.4073242" lon="11.1458322"><ele>33.0</ele><time>2026-04-26T16:15:43.423Z</time></trkpt><trkpt lat="45.4073871" lon="11.1456034"><ele>33.0</ele><time>2026-04-26T16:15:44.423Z</time></trkpt><trkpt lat="45.4074452" lon="11.1453881"><ele>33.0</ele><time>2026-04-26T16:15:45.423Z</time></trkpt><trkpt lat="45.4074981" lon="11.1451864"><ele>33.0</ele><time>2026-04-26T16:15:46.424Z</time></trkpt><trkpt lat="45.4075471" lon="11.1449939"><ele>33.0</ele><time>2026-04-26T16:15:47.424Z</time></trkpt><trkpt lat="45.4075906" lon="11.1448154"><ele>33.0</ele><time>2026-04-26T16:15:48.423Z</time></trkpt><trkpt lat="45.4076333" lon="11.144649"><ele>33.166666666666664</ele><time>2026-04-26T16:15:49.423Z</time></trkpt><trkpt lat="45.4076729" lon="11.1445073"><ele>33.333333333333336</ele><time>2026-04-26T16:15:50.423Z</time></trkpt><trkpt lat="45.4077063" lon="11.1443894"><ele>33.5</ele><time>2026-04-26T16:15:51.424Z</time></trkpt><trkpt lat="45.4077458" lon="11.1442844"><ele>33.66666666666667</ele><time>2026-04-26T16:15:52.423Z</time></trkpt><trkpt lat="45.4077938" lon="11.144202"><ele>33.833333333333336</ele><time>2026-04-26T16:15:53.423Z</time></trkpt><trkpt lat="45.4078674" lon="11.1441493"><ele>34.0</ele><time>2026-04-26T16:15:54.423Z</time></trkpt><trkpt lat="45.4079447" lon="11.1440954"><ele>33.8</ele><time>2026-04-26T16:15:55.423Z</time></trkpt><trkpt lat="45.4080238" lon="11.1440223"><ele>33.599999999999994</ele><time>2026-04-26T16:15:56.424Z</time></trkpt><trkpt lat="45.4080956" lon="11.1439265"><ele>33.4</ele><time>2026-04-26T16:15:57.424Z</time></trkpt><trkpt lat="45.4081427" lon="11.143805"><ele>33.199999999999996</ele><time>2026-04-26T16:15:58.423Z</time></trkpt><trkpt lat="45.4081523" lon="11.1436525"><ele>33.0</ele><time>2026-04-26T16:15:59.423Z</time></trkpt><trkpt lat="45.4081265" lon="11.1434877"><ele>33.0</ele><time>2026-04-26T16:16:00.424Z</time></trkpt><trkpt lat="45.4080936" lon="11.1433171"><ele>33.0</ele><time>2026-04-26T16:16:01.423Z</time></trkpt><trkpt lat="45.4080843" lon="11.1431375"><ele>33.0</ele><time>2026-04-26T16:16:02.423Z</time></trkpt><trkpt lat="45.4080995" lon="11.1429614"><ele>33.0</ele><time>2026-04-26T16:16:03.424Z</time></trkpt><trkpt lat="45.4081338" lon="11.1427871"><ele>33.5</ele><time>2026-04-26T16:16:04.423Z</time></trkpt><trkpt lat="45.4081792" lon="11.1426116"><ele>34.0</ele><time>2026-04-26T16:16:05.423Z</time></trkpt><trkpt lat="45.4082291" lon="11.142426"><ele>34.5</ele><time>2026-04-26T16:16:06.423Z</time></trkpt><trkpt lat="45.4082775" lon="11.1422346"><ele>35.0</ele><time>2026-04-26T16:16:07.423Z</time></trkpt><trkpt lat="45.4083303" lon="11.1420285"><ele>35.666666666666664</ele><time>2026-04-26T16:16:08.423Z</time></trkpt><trkpt lat="45.4083873" lon="11.141815"><ele>36.333333333333336</ele><time>2026-04-26T16:16:09.424Z</time></trkpt><trkpt lat="45.4084411" lon="11.1415957"><ele>37.0</ele><time>2026-04-26T16:16:10.423Z</time></trkpt><trkpt lat="45.4084971" lon="11.1413773"><ele>37.333333333333336</ele><time>2026-04-26T16:16:11.423Z</time></trkpt><trkpt lat="45.4085599" lon="11.141156"><ele>37.666666666666664</ele><time>2026-04-26T16:16:12.423Z</time></trkpt><trkpt lat="45.4086257" lon="11.1409293"><ele>38.0</ele><time>2026-04-26T16:16:13.424Z</time></trkpt><trkpt lat="45.4086954" lon="11.1407021"><ele>38.0</ele><time>2026-04-26T16:16:14.423Z</time></trkpt><trkpt lat="45.4087635" lon="11.1404738"><ele>38.0</ele><time>2026-04-26T16:16:15.424Z</time></trkpt><trkpt lat="45.4088395" lon="11.1402512"><ele>38.0</ele><time>2026-04-26T16:16:16.423Z</time></trkpt><trkpt lat="45.4089198" lon="11.1400306"><ele>37.666666666666664</ele><time>2026-04-26T16:16:17.423Z</time></trkpt><trkpt lat="45.4090032" lon="11.1398159"><ele>37.333333333333336</ele><time>2026-04-26T16:16:18.423Z</time></trkpt><trkpt lat="45.4090909" lon="11.1396051"><ele>37.0</ele><time>2026-04-26T16:16:19.424Z</time></trkpt><trkpt lat="45.4091788" lon="11.1393985"><ele>37.0</ele><time>2026-04-26T16:16:20.423Z</time></trkpt><trkpt lat="45.4092691" lon="11.1391948"><ele>37.0</ele><time>2026-04-26T16:16:21.423Z</time></trkpt><trkpt lat="45.4093612" lon="11.1389956"><ele>37.0</ele><time>2026-04-26T16:16:22.424Z</time></trkpt><trkpt lat="45.4094465" lon="11.1387939"><ele>36.333333333333336</ele><time>2026-04-26T16:16:23.424Z</time></trkpt><trkpt lat="45.4095331" lon="11.1385897"><ele>35.666666666666664</ele><time>2026-04-26T16:16:24.423Z</time></trkpt><trkpt lat="45.4096186" lon="11.1383905"><ele>35.0</ele><time>2026-04-26T16:16:25.423Z</time></trkpt><trkpt lat="45.409705" lon="11.1381928"><ele>35.0</ele><time>2026-04-26T16:16:26.424Z</time></trkpt><trkpt lat="45.4097868" lon="11.1379896"><ele>35.0</ele><time>2026-04-26T16:16:27.423Z</time></trkpt><trkpt lat="45.4098634" lon="11.1377781"><ele>35.0</ele><time>2026-04-26T16:16:28.423Z</time></trkpt><trkpt lat="45.4099365" lon="11.137561"><ele>34.666666666666664</ele><time>2026-04-26T16:16:29.423Z</time></trkpt><trkpt lat="45.4100062" lon="11.1373427"><ele>34.333333333333336</ele><time>2026-04-26T16:16:30.423Z</time></trkpt><trkpt lat="45.4100762" lon="11.1371245"><ele>34.0</ele><time>2026-04-26T16:16:31.423Z</time></trkpt><trkpt lat="45.4101425" lon="11.1369095"><ele>34.0</ele><time>2026-04-26T16:16:32.424Z</time></trkpt><trkpt lat="45.4102103" lon="11.1367"><ele>34.0</ele><time>2026-04-26T16:16:33.424Z</time></trkpt><trkpt lat="45.4102768" lon="11.1364914"><ele>34.0</ele><time>2026-04-26T16:16:34.423Z</time></trkpt><trkpt lat="45.4103388" lon="11.1362852"><ele>34.66666666666667</ele><time>2026-04-26T16:16:35.423Z</time></trkpt><trkpt lat="45.4104027" lon="11.1360843"><ele>35.333333333333336</ele><time>2026-04-26T16:16:36.423Z</time></trkpt><trkpt lat="45.410468" lon="11.1358883"><ele>36.0</ele><time>2026-04-26T16:16:37.423Z</time></trkpt><trkpt lat="45.4105301" lon="11.1356909"><ele>36.25</ele><time>2026-04-26T16:16:38.423Z</time></trkpt><trkpt lat="45.4105891" lon="11.1354982"><ele>36.5</ele><time>2026-04-26T16:16:39.423Z</time></trkpt><trkpt lat="45.4106497" lon="11.1353036"><ele>36.75</ele><time>2026-04-26T16:16:40.423Z</time></trkpt><trkpt lat="45.4107082" lon="11.1351195"><ele>37.0</ele><time>2026-04-26T16:16:41.423Z</time></trkpt><trkpt lat="45.4107627" lon="11.1349359"><ele>37.5</ele><time>2026-04-26T16:16:42.424Z</time></trkpt><trkpt lat="45.4108212" lon="11.1347609"><ele>38.0</ele><time>2026-04-26T16:16:43.423Z</time></trkpt><trkpt lat="45.4108782" lon="11.1345808"><ele>38.5</ele><time>2026-04-26T16:16:44.424Z</time></trkpt><trkpt lat="45.4109329" lon="11.1344055"><ele>39.0</ele><time>2026-04-26T16:16:45.423Z</time></trkpt><trkpt lat="45.4109914" lon="11.1342323"><ele>39.0</ele><time>2026-04-26T16:16:46.423Z</time></trkpt><trkpt lat="45.4110529" lon="11.1340588"><ele>39.0</ele><time>2026-04-26T16:16:47.423Z</time></trkpt><trkpt lat="45.4111102" lon="11.1338876"><ele>39.0</ele><time>2026-04-26T16:16:48.424Z</time></trkpt><trkpt lat="45.4111653" lon="11.1337145"><ele>39.0</ele><time>2026-04-26T16:16:49.424Z</time></trkpt><trkpt lat="45.4112178" lon="11.1335435"><ele>39.0</ele><time>2026-04-26T16:16:50.423Z</time></trkpt><trkpt lat="45.4112724" lon="11.1333672"><ele>39.0</ele><time>2026-04-26T16:16:51.423Z</time></trkpt><trkpt lat="45.4113242" lon="11.1331934"><ele>39.0</ele><time>2026-04-26T16:16:52.424Z</time></trkpt><trkpt lat="45.411373" lon="11.1330194"><ele>39.0</ele><time>2026-04-26T16:16:53.423Z</time></trkpt><trkpt lat="45.4114225" lon="11.1328505"><ele>39.0</ele><time>2026-04-26T16:16:54.423Z</time></trkpt><trkpt lat="45.4114658" lon="11.1326881"><ele>39.0</ele><time>2026-04-26T16:16:55.423Z</time></trkpt><trkpt lat="45.4115047" lon="11.1325376"><ele>39.0</ele><time>2026-04-26T16:16:56.424Z</time></trkpt><trkpt lat="45.4115424" lon="11.132392"><ele>39.0</ele><time>2026-04-26T16:16:57.423Z</time></trkpt><trkpt lat="45.4115772" lon="11.13226"><ele>39.0</ele><time>2026-04-26T16:16:58.423Z</time></trkpt><trkpt lat="45.4116101" lon="11.1321417"><ele>39.0</ele><time>2026-04-26T16:16:59.423Z</time></trkpt><trkpt lat="45.4116457" lon="11.1320307"><ele>39.0</ele><time>2026-04-26T16:17:00.423Z</time></trkpt><trkpt lat="45.4116807" lon="11.1319383"><ele>39.0</ele><time>2026-04-26T16:17:01.424Z</time></trkpt><trkpt lat="45.4117227" lon="11.1318495"><ele>39.0</ele><time>2026-04-26T16:17:02.423Z</time></trkpt><trkpt lat="45.4117678" lon="11.1317646"><ele>39.0</ele><time>2026-04-26T16:17:03.423Z</time></trkpt><trkpt lat="45.4118194" lon="11.1316867"><ele>39.0</ele><time>2026-04-26T16:17:04.424Z</time></trkpt><trkpt lat="45.4118748" lon="11.1316163"><ele>39.0</ele><time>2026-04-26T16:17:05.423Z</time></trkpt><trkpt lat="45.411934" lon="11.1315441"><ele>39.0</ele><time>2026-04-26T16:17:06.424Z</time></trkpt><trkpt lat="45.4120005" lon="11.1314663"><ele>39.0</ele><time>2026-04-26T16:17:07.423Z</time></trkpt><trkpt lat="45.4120613" lon="11.1313798"><ele>39.0</ele><time>2026-04-26T16:17:08.424Z</time></trkpt><trkpt lat="45.4121115" lon="11.131275"><ele>39.0</ele><time>2026-04-26T16:17:09.423Z</time></trkpt><trkpt lat="45.4121328" lon="11.1311519"><ele>39.0</ele><time>2026-04-26T16:17:10.423Z</time></trkpt><trkpt lat="45.4121243" lon="11.1310225"><ele>39.0</ele><time>2026-04-26T16:17:11.423Z</time></trkpt><trkpt lat="45.4120973" lon="11.1308945"><ele>39.0</ele><time>2026-04-26T16:17:12.424Z</time></trkpt><trkpt lat="45.4120624" lon="11.1307749"><ele>39.0</ele><time>2026-04-26T16:17:13.423Z</time></trkpt><trkpt lat="45.412038" lon="11.1306487"><ele>39.0</ele><time>2026-04-26T16:17:14.424Z</time></trkpt><trkpt lat="45.412035" lon="11.1305178"><ele>39.0</ele><time>2026-04-26T16:17:15.423Z</time></trkpt><trkpt lat="45.4120551" lon="11.1303892"><ele>39.0</ele><time>2026-04-26T16:17:16.424Z</time></trkpt><trkpt lat="45.4120957" lon="11.1302528"><ele>39.0</ele><time>2026-04-26T16:17:17.423Z</time></trkpt><trkpt lat="45.4121453" lon="11.1301088"><ele>39.0</ele><time>2026-04-26T16:17:18.423Z</time></trkpt><trkpt lat="45.4121974" lon="11.129952"><ele>39.0</ele><time>2026-04-26T16:17:19.423Z</time></trkpt><trkpt lat="45.4122507" lon="11.1297881"><ele>39.0</ele><time>2026-04-26T16:17:20.424Z</time></trkpt><trkpt lat="45.4123119" lon="11.1296057"><ele>39.0</ele><time>2026-04-26T16:17:21.423Z</time></trkpt><trkpt lat="45.4123753" lon="11.1294053"><ele>39.0</ele><time>2026-04-26T16:17:22.423Z</time></trkpt><trkpt lat="45.4124401" lon="11.1292015"><ele>39.0</ele><time>2026-04-26T16:17:23.423Z</time></trkpt><trkpt lat="45.4125028" lon="11.1289928"><ele>39.0</ele><time>2026-04-26T16:17:24.423Z</time></trkpt><trkpt lat="45.4125723" lon="11.1287735"><ele>39.0</ele><time>2026-04-26T16:17:25.423Z</time></trkpt><trkpt lat="45.4126435" lon="11.1285437"><ele>39.0</ele><time>2026-04-26T16:17:26.423Z</time></trkpt><trkpt lat="45.4127161" lon="11.1283094"><ele>39.0</ele><time>2026-04-26T16:17:27.423Z</time></trkpt><trkpt lat="45.4127889" lon="11.1280751"><ele>39.0</ele><time>2026-04-26T16:17:28.424Z</time></trkpt><trkpt lat="45.4128594" lon="11.1278428"><ele>39.333333333333336</ele><time>2026-04-26T16:17:29.423Z</time></trkpt><trkpt lat="45.4129284" lon="11.1276067"><ele>39.66666666666667</ele><time>2026-04-26T16:17:30.423Z</time></trkpt><trkpt lat="45.4129985" lon="11.12738"><ele>40.0</ele><time>2026-04-26T16:17:31.424Z</time></trkpt><trkpt lat="45.4130673" lon="11.127149"><ele>40.0</ele><time>2026-04-26T16:17:32.424Z</time></trkpt><trkpt lat="45.4131394" lon="11.1269133"><ele>40.0</ele><time>2026-04-26T16:17:33.423Z</time></trkpt><trkpt lat="45.413212" lon="11.126687"><ele>40.0</ele><time>2026-04-26T16:17:34.423Z</time></trkpt><trkpt lat="45.4132839" lon="11.1264584"><ele>39.66666666666667</ele><time>2026-04-26T16:17:35.423Z</time></trkpt><trkpt lat="45.4133562" lon="11.1262352"><ele>39.333333333333336</ele><time>2026-04-26T16:17:36.424Z</time></trkpt><trkpt lat="45.4134277" lon="11.1260106"><ele>39.0</ele><time>2026-04-26T16:17:37.423Z</time></trkpt><trkpt lat="45.4134986" lon="11.1257908"><ele>39.0</ele><time>2026-04-26T16:17:38.424Z</time></trkpt><trkpt lat="45.4135641" lon="11.1255806"><ele>39.0</ele><time>2026-04-26T16:17:39.423Z</time></trkpt><trkpt lat="45.4136311" lon="11.1253686"><ele>39.0</ele><time>2026-04-26T16:17:40.424Z</time></trkpt><trkpt lat="45.4136977" lon="11.1251653"><ele>39.0</ele><time>2026-04-26T16:17:41.424Z</time></trkpt><trkpt lat="45.4137622" lon="11.124961"><ele>39.0</ele><time>2026-04-26T16:17:42.423Z</time></trkpt><trkpt lat="45.4138264" lon="11.1247561"><ele>39.0</ele><time>2026-04-26T16:17:43.423Z</time></trkpt><trkpt lat="45.4138925" lon="11.1245521"><ele>39.666666666666664</ele><time>2026-04-26T16:17:44.424Z</time></trkpt><trkpt lat="45.4139586" lon="11.1243491"><ele>40.33333333333333</ele><time>2026-04-26T16:17:45.423Z</time></trkpt><trkpt lat="45.4140226" lon="11.1241453"><ele>41.0</ele><time>2026-04-26T16:17:46.423Z</time></trkpt><trkpt lat="45.4140874" lon="11.123942"><ele>41.0</ele><time>2026-04-26T16:17:47.423Z</time></trkpt><trkpt lat="45.4141527" lon="11.123734"><ele>41.0</ele><time>2026-04-26T16:17:48.423Z</time></trkpt><trkpt lat="45.4142196" lon="11.1235214"><ele>41.0</ele><time>2026-04-26T16:17:49.423Z</time></trkpt><trkpt lat="45.414287" lon="11.1233141"><ele>40.666666666666664</ele><time>2026-04-26T16:17:50.423Z</time></trkpt><trkpt lat="45.4143546" lon="11.1231034"><ele>40.333333333333336</ele><time>2026-04-26T16:17:51.424Z</time></trkpt><trkpt lat="45.4144199" lon="11.1228938"><ele>40.0</ele><time>2026-04-26T16:17:52.423Z</time></trkpt><trkpt lat="45.4144844" lon="11.1226867"><ele>40.0</ele><time>2026-04-26T16:17:53.423Z</time></trkpt><trkpt lat="45.4145507" lon="11.1224774"><ele>40.0</ele><time>2026-04-26T16:17:54.423Z</time></trkpt><trkpt lat="45.4146173" lon="11.1222749"><ele>40.0</ele><time>2026-04-26T16:17:55.423Z</time></trkpt><trkpt lat="45.4146822" lon="11.1220758"><ele>40.0</ele><time>2026-04-26T16:17:56.423Z</time></trkpt><trkpt lat="45.4147445" lon="11.1218786"><ele>40.0</ele><time>2026-04-26T16:17:57.424Z</time></trkpt><trkpt lat="45.4148079" lon="11.1216857"><ele>40.0</ele><time>2026-04-26T16:17:58.423Z</time></trkpt><trkpt lat="45.4148682" lon="11.1214977"><ele>40.0</ele><time>2026-04-26T16:17:59.423Z</time></trkpt><trkpt lat="45.4149255" lon="11.1213193"><ele>40.25</ele><time>2026-04-26T16:18:00.423Z</time></trkpt><trkpt lat="45.4149802" lon="11.1211519"><ele>40.5</ele><time>2026-04-26T16:18:01.423Z</time></trkpt><trkpt lat="45.4150289" lon="11.1209963"><ele>40.75</ele><time>2026-04-26T16:18:02.423Z</time></trkpt><trkpt lat="45.4150742" lon="11.1208548"><ele>41.0</ele><time>2026-04-26T16:18:03.423Z</time></trkpt><trkpt lat="45.415117" lon="11.1207257"><ele>41.0</ele><time>2026-04-26T16:18:04.423Z</time></trkpt><trkpt lat="45.4151613" lon="11.1206068"><ele>41.0</ele><time>2026-04-26T16:18:05.424Z</time></trkpt><trkpt lat="45.4152047" lon="11.120501"><ele>41.0</ele><time>2026-04-26T16:18:06.423Z</time></trkpt><trkpt lat="45.4152511" lon="11.1204132"><ele>41.0</ele><time>2026-04-26T16:18:07.424Z</time></trkpt><trkpt lat="45.4152965" lon="11.1203422"><ele>41.0</ele><time>2026-04-26T16:18:08.423Z</time></trkpt><trkpt lat="45.4153459" lon="11.1202779"><ele>41.0</ele><time>2026-04-26T16:18:09.424Z</time></trkpt><trkpt lat="45.4154141" lon="11.1202193"><ele>41.0</ele><time>2026-04-26T16:18:10.424Z</time></trkpt><trkpt lat="45.415486" lon="11.1201579"><ele>41.0</ele><time>2026-04-26T16:18:11.423Z</time></trkpt><trkpt lat="45.415554" lon="11.1200801"><ele>41.0</ele><time>2026-04-26T16:18:12.423Z</time></trkpt><trkpt lat="45.4155997" lon="11.1199801"><ele>41.0</ele><time>2026-04-26T16:18:13.423Z</time></trkpt><trkpt lat="45.4156196" lon="11.1198746"><ele>41.0</ele><time>2026-04-26T16:18:14.423Z</time></trkpt><trkpt lat="45.4156199" lon="11.1197596"><ele>41.0</ele><time>2026-04-26T16:18:15.424Z</time></trkpt><trkpt lat="45.4156047" lon="11.1196322"><ele>41.4</ele><time>2026-04-26T16:18:16.423Z</time></trkpt><trkpt lat="45.4155935" lon="11.1194945"><ele>41.8</ele><time>2026-04-26T16:18:17.423Z</time></trkpt><trkpt lat="45.4155985" lon="11.1193502"><ele>42.199999999999996</ele><time>2026-04-26T16:18:18.423Z</time></trkpt><trkpt lat="45.4156241" lon="11.1191976"><ele>42.599999999999994</ele><time>2026-04-26T16:18:19.423Z</time></trkpt><trkpt lat="45.4156621" lon="11.1190353"><ele>43.0</ele><time>2026-04-26T16:18:20.423Z</time></trkpt><trkpt lat="45.4157131" lon="11.1188714"><ele>43.0</ele><time>2026-04-26T16:18:21.424Z</time></trkpt><trkpt lat="45.4157664" lon="11.118703"><ele>43.0</ele><time>2026-04-26T16:18:22.423Z</time></trkpt><trkpt lat="45.4158255" lon="11.1185245"><ele>43.0</ele><time>2026-04-26T16:18:23.424Z</time></trkpt><trkpt lat="45.4158865" lon="11.1183267"><ele>43.0</ele><time>2026-04-26T16:18:24.423Z</time></trkpt><trkpt lat="45.415954" lon="11.1181225"><ele>42.333333333333336</ele><time>2026-04-26T16:18:25.423Z</time></trkpt><trkpt lat="45.4160263" lon="11.1179083"><ele>41.666666666666664</ele><time>2026-04-26T16:18:26.423Z</time></trkpt><trkpt lat="45.4160966" lon="11.1176892"><ele>41.0</ele><time>2026-04-26T16:18:27.423Z</time></trkpt><trkpt lat="45.4161728" lon="11.1174551"><ele>41.0</ele><time>2026-04-26T16:18:28.424Z</time></trkpt><trkpt lat="45.4162549" lon="11.1172086"><ele>41.0</ele><time>2026-04-26T16:18:29.423Z</time></trkpt><trkpt lat="45.4163357" lon="11.1169649"><ele>41.0</ele><time>2026-04-26T16:18:30.424Z</time></trkpt><trkpt lat="45.4164148" lon="11.1167192"><ele>41.666666666666664</ele><time>2026-04-26T16:18:31.423Z</time></trkpt><trkpt lat="45.416498" lon="11.116468"><ele>42.333333333333336</ele><time>2026-04-26T16:18:32.424Z</time></trkpt><trkpt lat="45.4165824" lon="11.1162101"><ele>43.0</ele><time>2026-04-26T16:18:33.424Z</time></trkpt><trkpt lat="45.4166677" lon="11.1159477"><ele>42.333333333333336</ele><time>2026-04-26T16:18:34.423Z</time></trkpt><trkpt lat="45.4167539" lon="11.1156915"><ele>41.666666666666664</ele><time>2026-04-26T16:18:35.423Z</time></trkpt><trkpt lat="45.4168348" lon="11.1154354"><ele>41.0</ele><time>2026-04-26T16:18:36.423Z</time></trkpt><trkpt lat="45.4169039" lon="11.1151858"><ele>41.0</ele><time>2026-04-26T16:18:37.423Z</time></trkpt><trkpt lat="45.4169565" lon="11.1149369"><ele>41.0</ele><time>2026-04-26T16:18:38.423Z</time></trkpt><trkpt lat="45.4169944" lon="11.1146879"><ele>41.0</ele><time>2026-04-26T16:18:39.423Z</time></trkpt><trkpt lat="45.417018" lon="11.1144328"><ele>41.0</ele><time>2026-04-26T16:18:40.423Z</time></trkpt><trkpt lat="45.4170261" lon="11.1141798"><ele>41.0</ele><time>2026-04-26T16:18:41.423Z</time></trkpt><trkpt lat="45.4170231" lon="11.1139271"><ele>41.0</ele><time>2026-04-26T16:18:42.424Z</time></trkpt><trkpt lat="45.417004" lon="11.1136789"><ele>41.0</ele><time>2026-04-26T16:18:43.423Z</time></trkpt><trkpt lat="45.4169705" lon="11.1134339"><ele>41.0</ele><time>2026-04-26T16:18:44.423Z</time></trkpt><trkpt lat="45.4169256" lon="11.1131953"><ele>41.0</ele><time>2026-04-26T16:18:45.423Z</time></trkpt><trkpt lat="45.4168691" lon="11.1129617"><ele>41.33333333333333</ele><time>2026-04-26T16:18:46.423Z</time></trkpt><trkpt lat="45.4167996" lon="11.1127357"><ele>41.666666666666664</ele><time>2026-04-26T16:18:47.423Z</time></trkpt><trkpt lat="45.4167225" lon="11.1125109"><ele>42.0</ele><time>2026-04-26T16:18:48.423Z</time></trkpt><trkpt lat="45.4166396" lon="11.1122834"><ele>42.0</ele><time>2026-04-26T16:18:49.423Z</time></trkpt><trkpt lat="45.4165553" lon="11.1120538"><ele>42.0</ele><time>2026-04-26T16:18:50.424Z</time></trkpt><trkpt lat="45.4164726" lon="11.1118181"><ele>42.0</ele><time>2026-04-26T16:18:51.423Z</time></trkpt><trkpt lat="45.416388" lon="11.1115808"><ele>41.333333333333336</ele><time>2026-04-26T16:18:52.424Z</time></trkpt><trkpt lat="45.4162979" lon="11.1113324"><ele>40.66666666666667</ele><time>2026-04-26T16:18:53.423Z</time></trkpt><trkpt lat="45.4162041" lon="11.1110761"><ele>40.0</ele><time>2026-04-26T16:18:54.423Z</time></trkpt><trkpt lat="45.4161115" lon="11.1108132"><ele>40.0</ele><time>2026-04-26T16:18:55.424Z</time></trkpt><trkpt lat="45.4160177" lon="11.110549"><ele>40.0</ele><time>2026-04-26T16:18:56.424Z</time></trkpt><trkpt lat="45.4159269" lon="11.1102796"><ele>40.0</ele><time>2026-04-26T16:18:57.424Z</time></trkpt><trkpt lat="45.4158373" lon="11.1100105"><ele>40.333333333333336</ele><time>2026-04-26T16:18:58.423Z</time></trkpt><trkpt lat="45.4157498" lon="11.1097395"><ele>40.666666666666664</ele><time>2026-04-26T16:18:59.424Z</time></trkpt><trkpt lat="45.4156643" lon="11.1094639"><ele>41.0</ele><time>2026-04-26T16:19:00.423Z</time></trkpt><trkpt lat="45.4155839" lon="11.1091966"><ele>41.0</ele><time>2026-04-26T16:19:01.423Z</time></trkpt><trkpt lat="45.4155028" lon="11.1089259"><ele>41.0</ele><time>2026-04-26T16:19:02.423Z</time></trkpt><trkpt lat="45.4154263" lon="11.1086574"><ele>41.0</ele><time>2026-04-26T16:19:03.423Z</time></trkpt><trkpt lat="45.4153568" lon="11.1083944"><ele>41.0</ele><time>2026-04-26T16:19:04.424Z</time></trkpt><trkpt lat="45.4152855" lon="11.1081333"><ele>41.0</ele><time>2026-04-26T16:19:05.424Z</time></trkpt><trkpt lat="45.4152136" lon="11.107871"><ele>41.0</ele><time>2026-04-26T16:19:06.423Z</time></trkpt><trkpt lat="45.4151442" lon="11.1076108"><ele>42.0</ele><time>2026-04-26T16:19:07.423Z</time></trkpt><trkpt lat="45.4150748" lon="11.1073551"><ele>43.0</ele><time>2026-04-26T16:19:08.423Z</time></trkpt><trkpt lat="45.4150081" lon="11.10711"><ele>44.0</ele><time>2026-04-26T16:19:09.423Z</time></trkpt><trkpt lat="45.4149419" lon="11.1068683"><ele>44.0</ele><time>2026-04-26T16:19:10.423Z</time></trkpt><trkpt lat="45.4148806" lon="11.1066329"><ele>44.0</ele><time>2026-04-26T16:19:11.424Z</time></trkpt><trkpt lat="45.4148221" lon="11.1064011"><ele>44.0</ele><time>2026-04-26T16:19:12.423Z</time></trkpt><trkpt lat="45.4147618" lon="11.1061813"><ele>44.0</ele><time>2026-04-26T16:19:13.423Z</time></trkpt><trkpt lat="45.4147085" lon="11.1059722"><ele>44.0</ele><time>2026-04-26T16:19:14.423Z</time></trkpt><trkpt lat="45.4146432" lon="11.1057644"><ele>44.0</ele><time>2026-04-26T16:19:15.423Z</time></trkpt><trkpt lat="45.4145787" lon="11.105556"><ele>44.0</ele><time>2026-04-26T16:19:16.424Z</time></trkpt><trkpt lat="45.4145028" lon="11.1053622"><ele>44.0</ele><time>2026-04-26T16:19:17.423Z</time></trkpt><trkpt lat="45.4144069" lon="11.1051783"><ele>44.0</ele><time>2026-04-26T16:19:18.424Z</time></trkpt><trkpt lat="45.4142922" lon="11.1050083"><ele>44.33333333333333</ele><time>2026-04-26T16:19:19.424Z</time></trkpt><trkpt lat="45.4141662" lon="11.1048475"><ele>44.666666666666664</ele><time>2026-04-26T16:19:20.424Z</time></trkpt><trkpt lat="45.4140365" lon="11.1046913"><ele>45.0</ele><time>2026-04-26T16:19:21.423Z</time></trkpt><trkpt lat="45.4139096" lon="11.1045335"><ele>43.333333333333336</ele><time>2026-04-26T16:19:22.423Z</time></trkpt><trkpt lat="45.4137924" lon="11.1043634"><ele>41.66666666666667</ele><time>2026-04-26T16:19:23.423Z</time></trkpt><trkpt lat="45.413692" lon="11.1041766"><ele>40.0</ele><time>2026-04-26T16:19:24.423Z</time></trkpt><trkpt lat="45.4136126" lon="11.1039616"><ele>39.66666666666667</ele><time>2026-04-26T16:19:25.423Z</time></trkpt><trkpt lat="45.4135556" lon="11.1037421"><ele>39.333333333333336</ele><time>2026-04-26T16:19:26.423Z</time></trkpt><trkpt lat="45.4135193" lon="11.1035295"><ele>39.0</ele><time>2026-04-26T16:19:27.423Z</time></trkpt><trkpt lat="45.413507" lon="11.1033249"><ele>39.5</ele><time>2026-04-26T16:19:28.424Z</time></trkpt><trkpt lat="45.4135087" lon="11.1031247"><ele>40.0</ele><time>2026-04-26T16:19:29.423Z</time></trkpt><trkpt lat="45.4135079" lon="11.1029309"><ele>40.5</ele><time>2026-04-26T16:19:30.424Z</time></trkpt><trkpt lat="45.4135062" lon="11.1027266"><ele>41.0</ele><time>2026-04-26T16:19:31.424Z</time></trkpt><trkpt lat="45.4134994" lon="11.1025023"><ele>42.0</ele><time>2026-04-26T16:19:32.423Z</time></trkpt><trkpt lat="45.4134914" lon="11.1022466"><ele>43.0</ele><time>2026-04-26T16:19:33.423Z</time></trkpt><trkpt lat="45.4134766" lon="11.1019645"><ele>44.0</ele><time>2026-04-26T16:19:34.424Z</time></trkpt><trkpt lat="45.413445" lon="11.1016793"><ele>43.666666666666664</ele><time>2026-04-26T16:19:35.423Z</time></trkpt><trkpt lat="45.413401" lon="11.1013892"><ele>43.333333333333336</ele><time>2026-04-26T16:19:36.424Z</time></trkpt><trkpt lat="45.4133401" lon="11.1010902"><ele>43.0</ele><time>2026-04-26T16:19:37.424Z</time></trkpt><trkpt lat="45.4132669" lon="11.1007837"><ele>43.5</ele><time>2026-04-26T16:19:38.423Z</time></trkpt><trkpt lat="45.4131889" lon="11.1004681"><ele>44.0</ele><time>2026-04-26T16:19:39.423Z</time></trkpt><trkpt lat="45.4131043" lon="11.1001518"><ele>45.0</ele><time>2026-04-26T16:19:40.423Z</time></trkpt><trkpt lat="45.4130214" lon="11.0998235"><ele>46.0</ele><time>2026-04-26T16:19:41.424Z</time></trkpt><trkpt lat="45.4129324" lon="11.0994896"><ele>44.5</ele><time>2026-04-26T16:19:42.424Z</time></trkpt><trkpt lat="45.4128443" lon="11.099153"><ele>43.0</ele><time>2026-04-26T16:19:43.423Z</time></trkpt><trkpt lat="45.4127538" lon="11.0988115"><ele>43.0</ele><time>2026-04-26T16:19:44.423Z</time></trkpt><trkpt lat="45.4126621" lon="11.098469"><ele>43.0</ele><time>2026-04-26T16:19:45.423Z</time></trkpt><trkpt lat="45.4125693" lon="11.098118"><ele>44.0</ele><time>2026-04-26T16:19:46.424Z</time></trkpt><trkpt lat="45.4124731" lon="11.0977676"><ele>45.0</ele><time>2026-04-26T16:19:47.424Z</time></trkpt><trkpt lat="45.4123806" lon="11.0974173"><ele>45.5</ele><time>2026-04-26T16:19:48.424Z</time></trkpt><trkpt lat="45.4122816" lon="11.0970664"><ele>46.0</ele><time>2026-04-26T16:19:49.423Z</time></trkpt><trkpt lat="45.4121801" lon="11.0967177"><ele>44.5</ele><time>2026-04-26T16:19:50.423Z</time></trkpt><trkpt lat="45.412077" lon="11.0963719"><ele>43.0</ele><time>2026-04-26T16:19:51.423Z</time></trkpt><trkpt lat="45.4119465" lon="11.0960433"><ele>45.5</ele><time>2026-04-26T16:19:52.423Z</time></trkpt><trkpt lat="45.4117979" lon="11.0957375"><ele>48.0</ele><time>2026-04-26T16:19:53.423Z</time></trkpt><trkpt lat="45.4116296" lon="11.095454"><ele>48.0</ele><time>2026-04-26T16:19:54.423Z</time></trkpt><trkpt lat="45.4114358" lon="11.0952002"><ele>48.0</ele><time>2026-04-26T16:19:55.423Z</time></trkpt><trkpt lat="45.4112211" lon="11.094982"><ele>45.5</ele><time>2026-04-26T16:19:56.424Z</time></trkpt><trkpt lat="45.4109909" lon="11.0948008"><ele>43.0</ele><time>2026-04-26T16:19:57.423Z</time></trkpt><trkpt lat="45.4107736" lon="11.0946405"><ele>43.0</ele><time>2026-04-26T16:19:58.424Z</time></trkpt><trkpt lat="45.4105654" lon="11.0944798"><ele>43.0</ele><time>2026-04-26T16:19:59.423Z</time></trkpt><trkpt lat="45.4103658" lon="11.0943237"><ele>42.5</ele><time>2026-04-26T16:20:00.424Z</time></trkpt><trkpt lat="45.4101735" lon="11.0941551"><ele>42.0</ele><time>2026-04-26T16:20:01.424Z</time></trkpt><trkpt lat="45.4099843" lon="11.0939594"><ele>42.0</ele><time>2026-04-26T16:20:02.423Z</time></trkpt><trkpt lat="45.409803" lon="11.0937226"><ele>42.0</ele><time>2026-04-26T16:20:03.424Z</time></trkpt><trkpt lat="45.4096347" lon="11.0934467"><ele>42.5</ele><time>2026-04-26T16:20:04.423Z</time></trkpt><trkpt lat="45.4094863" lon="11.0931309"><ele>43.0</ele><time>2026-04-26T16:20:05.423Z</time></trkpt><trkpt lat="45.4093717" lon="11.0927869"><ele>43.0</ele><time>2026-04-26T16:20:06.423Z</time></trkpt><trkpt lat="45.409295" lon="11.0924207"><ele>43.0</ele><time>2026-04-26T16:20:07.424Z</time></trkpt><trkpt lat="45.4092521" lon="11.0920563"><ele>43.0</ele><time>2026-04-26T16:20:08.423Z</time></trkpt><trkpt lat="45.4092352" lon="11.0917054"><ele>43.0</ele><time>2026-04-26T16:20:09.423Z</time></trkpt><trkpt lat="45.4092417" lon="11.0913763"><ele>44.0</ele><time>2026-04-26T16:20:10.424Z</time></trkpt><trkpt lat="45.4092659" lon="11.0910714"><ele>45.0</ele><time>2026-04-26T16:20:11.423Z</time></trkpt><trkpt lat="45.4093077" lon="11.0907877"><ele>46.0</ele><time>2026-04-26T16:20:12.423Z</time></trkpt><trkpt lat="45.4093661" lon="11.0905204"><ele>46.333333333333336</ele><time>2026-04-26T16:20:13.423Z</time></trkpt><trkpt lat="45.4094334" lon="11.0902753"><ele>46.666666666666664</ele><time>2026-04-26T16:20:14.424Z</time></trkpt><trkpt lat="45.4095011" lon="11.0900488"><ele>47.0</ele><time>2026-04-26T16:20:15.424Z</time></trkpt><trkpt lat="45.4095733" lon="11.0898493"><ele>46.25</ele><time>2026-04-26T16:20:16.423Z</time></trkpt><trkpt lat="45.4096599" lon="11.0896923"><ele>45.5</ele><time>2026-04-26T16:20:17.424Z</time></trkpt><trkpt lat="45.4097688" lon="11.089587"><ele>44.75</ele><time>2026-04-26T16:20:18.423Z</time></trkpt><trkpt lat="45.4098956" lon="11.0895411"><ele>44.0</ele><time>2026-04-26T16:20:19.424Z</time></trkpt><trkpt lat="45.4100301" lon="11.0895614"><ele>44.0</ele><time>2026-04-26T16:20:20.423Z</time></trkpt><trkpt lat="45.410146" lon="11.0896655"><ele>44.0</ele><time>2026-04-26T16:20:21.424Z</time></trkpt><trkpt lat="45.4102263" lon="11.089818"><ele>44.0</ele><time>2026-04-26T16:20:22.423Z</time></trkpt><trkpt lat="45.4102599" lon="11.089997"><ele>44.0</ele><time>2026-04-26T16:20:23.424Z</time></trkpt><trkpt lat="45.4102473" lon="11.0901813"><ele>44.25</ele><time>2026-04-26T16:20:24.423Z</time></trkpt><trkpt lat="45.4101926" lon="11.0903436"><ele>44.5</ele><time>2026-04-26T16:20:25.424Z</time></trkpt><trkpt lat="45.4100976" lon="11.0904694"><ele>44.75</ele><time>2026-04-26T16:20:26.424Z</time></trkpt><trkpt lat="45.4099825" lon="11.0905348"><ele>45.0</ele><time>2026-04-26T16:20:27.424Z</time></trkpt><trkpt lat="45.4098459" lon="11.0905414"><ele>45.0</ele><time>2026-04-26T16:20:28.423Z</time></trkpt><trkpt lat="45.4097044" lon="11.0904975"><ele>45.0</ele><time>2026-04-26T16:20:29.423Z</time></trkpt><trkpt lat="45.4095581" lon="11.0904238"><ele>45.0</ele><time>2026-04-26T16:20:30.424Z</time></trkpt><trkpt lat="45.4094131" lon="11.0903406"><ele>45.666666666666664</ele><time>2026-04-26T16:20:31.423Z</time></trkpt><trkpt lat="45.4092695" lon="11.0902678"><ele>46.33333333333333</ele><time>2026-04-26T16:20:32.423Z</time></trkpt><trkpt lat="45.409128" lon="11.0901589"><ele>47.0</ele><time>2026-04-26T16:20:33.424Z</time></trkpt><trkpt lat="45.4089983" lon="11.0900592"><ele>47.0</ele><time>2026-04-26T16:20:34.424Z</time></trkpt><trkpt lat="45.4088794" lon="11.0899437"><ele>47.0</ele><time>2026-04-26T16:20:35.424Z</time></trkpt><trkpt lat="45.408776" lon="11.0898097"><ele>47.0</ele><time>2026-04-26T16:20:36.423Z</time></trkpt><trkpt lat="45.4086903" lon="11.0896601"><ele>47.0</ele><time>2026-04-26T16:20:37.423Z</time></trkpt><trkpt lat="45.4086304" lon="11.0894941"><ele>47.0</ele><time>2026-04-26T16:20:38.423Z</time></trkpt><trkpt lat="45.408588" lon="11.089329"><ele>47.0</ele><time>2026-04-26T16:20:39.423Z</time></trkpt><trkpt lat="45.4085614" lon="11.0891573"><ele>47.0</ele><time>2026-04-26T16:20:40.424Z</time></trkpt><trkpt lat="45.4085512" lon="11.0889822"><ele>47.0</ele><time>2026-04-26T16:20:41.423Z</time></trkpt><trkpt lat="45.4085619" lon="11.0888038"><ele>45.75</ele><time>2026-04-26T16:20:42.424Z</time></trkpt><trkpt lat="45.4085919" lon="11.0886273"><ele>44.5</ele><time>2026-04-26T16:20:43.423Z</time></trkpt><trkpt lat="45.4086427" lon="11.0884557"><ele>43.25</ele><time>2026-04-26T16:20:44.423Z</time></trkpt><trkpt lat="45.4087081" lon="11.0882901"><ele>42.0</ele><time>2026-04-26T16:20:45.424Z</time></trkpt><trkpt lat="45.4087899" lon="11.0881297"><ele>43.0</ele><time>2026-04-26T16:20:46.423Z</time></trkpt><trkpt lat="45.4088883" lon="11.0879874"><ele>44.0</ele><time>2026-04-26T16:20:47.424Z</time></trkpt><trkpt lat="45.4090034" lon="11.0878718"><ele>45.0</ele><time>2026-04-26T16:20:48.423Z</time></trkpt><trkpt lat="45.4091324" lon="11.0877785"><ele>46.0</ele><time>2026-04-26T16:20:49.423Z</time></trkpt><trkpt lat="45.4092684" lon="11.0876968"><ele>46.0</ele><time>2026-04-26T16:20:50.424Z</time></trkpt><trkpt lat="45.4094076" lon="11.0876248"><ele>46.0</ele><time>2026-04-26T16:20:51.424Z</time></trkpt><trkpt lat="45.409545" lon="11.0875514"><ele>46.0</ele><time>2026-04-26T16:20:52.423Z</time></trkpt><trkpt lat="45.4096849" lon="11.0874707"><ele>46.0</ele><time>2026-04-26T16:20:53.424Z</time></trkpt><trkpt lat="45.4098238" lon="11.0873919"><ele>45.75</ele><time>2026-04-26T16:20:54.423Z</time></trkpt><trkpt lat="45.4099599" lon="11.0873155"><ele>45.5</ele><time>2026-04-26T16:20:55.423Z</time></trkpt><trkpt lat="45.4100926" lon="11.0872396"><ele>45.25</ele><time>2026-04-26T16:20:56.423Z</time></trkpt><trkpt lat="45.4102237" lon="11.0871688"><ele>45.0</ele><time>2026-04-26T16:20:57.424Z</time></trkpt><trkpt lat="45.4103558" lon="11.0871085"><ele>45.0</ele><time>2026-04-26T16:20:58.423Z</time></trkpt><trkpt lat="45.4104908" lon="11.0870587"><ele>45.0</ele><time>2026-04-26T16:20:59.423Z</time></trkpt><trkpt lat="45.4106294" lon="11.0870368"><ele>45.0</ele><time>2026-04-26T16:21:00.424Z</time></trkpt><trkpt lat="45.4107747" lon="11.0870363"><ele>45.0</ele><time>2026-04-26T16:21:01.423Z</time></trkpt><trkpt lat="45.4109153" lon="11.0870399"><ele>45.0</ele><time>2026-04-26T16:21:02.423Z</time></trkpt><trkpt lat="45.4110564" lon="11.0870567"><ele>45.0</ele><time>2026-04-26T16:21:03.424Z</time></trkpt><trkpt lat="45.411203" lon="11.0870676"><ele>45.0</ele><time>2026-04-26T16:21:04.423Z</time></trkpt><trkpt lat="45.4113492" lon="11.087085"><ele>45.0</ele><time>2026-04-26T16:21:05.423Z</time></trkpt><trkpt lat="45.4114957" lon="11.0870955"><ele>45.25</ele><time>2026-04-26T16:21:06.423Z</time></trkpt><trkpt lat="45.411637" lon="11.0871192"><ele>45.5</ele><time>2026-04-26T16:21:07.423Z</time></trkpt><trkpt lat="45.4117872" lon="11.0871114"><ele>45.75</ele><time>2026-04-26T16:21:08.423Z</time></trkpt><trkpt lat="45.411932" lon="11.0871043"><ele>46.0</ele><time>2026-04-26T16:21:09.423Z</time></trkpt><trkpt lat="45.4120794" lon="11.0870982"><ele>45.75</ele><time>2026-04-26T16:21:10.424Z</time></trkpt><trkpt lat="45.4122268" lon="11.0870935"><ele>45.5</ele><time>2026-04-26T16:21:11.424Z</time></trkpt><trkpt lat="45.4123749" lon="11.0870911"><ele>45.25</ele><time>2026-04-26T16:21:12.424Z</time></trkpt><trkpt lat="45.4125155" lon="11.0870822"><ele>45.0</ele><time>2026-04-26T16:21:13.423Z</time></trkpt><trkpt lat="45.4126503" lon="11.0870805"><ele>45.0</ele><time>2026-04-26T16:21:14.424Z</time></trkpt><trkpt lat="45.4127846" lon="11.0870896"><ele>45.0</ele><time>2026-04-26T16:21:15.423Z</time></trkpt><trkpt lat="45.4129177" lon="11.0871004"><ele>45.0</ele><time>2026-04-26T16:21:16.424Z</time></trkpt><trkpt lat="45.4130471" lon="11.0871162"><ele>45.0</ele><time>2026-04-26T16:21:17.423Z</time></trkpt><trkpt lat="45.4131822" lon="11.0871324"><ele>45.0</ele><time>2026-04-26T16:21:18.423Z</time></trkpt><trkpt lat="45.4133154" lon="11.0871533"><ele>45.0</ele><time>2026-04-26T16:21:19.423Z</time></trkpt><trkpt lat="45.4134497" lon="11.0871723"><ele>45.0</ele><time>2026-04-26T16:21:20.424Z</time></trkpt><trkpt lat="45.4135845" lon="11.0871952"><ele>45.0</ele><time>2026-04-26T16:21:21.423Z</time></trkpt><trkpt lat="45.4137163" lon="11.0872123"><ele>45.0</ele><time>2026-04-26T16:21:22.423Z</time></trkpt><trkpt lat="45.4138433" lon="11.08723"><ele>45.0</ele><time>2026-04-26T16:21:23.423Z</time></trkpt><trkpt lat="45.413966" lon="11.087246"><ele>45.0</ele><time>2026-04-26T16:21:24.424Z</time></trkpt><trkpt lat="45.4140886" lon="11.0872656"><ele>45.0</ele><time>2026-04-26T16:21:25.424Z</time></trkpt><trkpt lat="45.4142109" lon="11.0872717"><ele>47.0</ele><time>2026-04-26T16:21:26.424Z</time></trkpt><trkpt lat="45.4148558" lon="11.0865955"><ele>46.666666666666664</ele><time>2026-04-26T16:21:32.424Z</time></trkpt><trkpt lat="45.4149806" lon="11.086382"><ele>46.333333333333336</ele><time>2026-04-26T16:21:33.423Z</time></trkpt><trkpt lat="45.4150693" lon="11.0861998"><ele>46.0</ele><time>2026-04-26T16:21:34.424Z</time></trkpt><trkpt lat="45.4151668" lon="11.0860259"><ele>46.0</ele><time>2026-04-26T16:21:35.424Z</time></trkpt><trkpt lat="45.4152511" lon="11.0858458"><ele>46.0</ele><time>2026-04-26T16:21:36.423Z</time></trkpt><trkpt lat="45.4153484" lon="11.085682"><ele>46.0</ele><time>2026-04-26T16:21:37.423Z</time></trkpt><trkpt lat="45.4154358" lon="11.0855047"><ele>47.0</ele><time>2026-04-26T16:21:38.424Z</time></trkpt><trkpt lat="45.4155348" lon="11.0853416"><ele>48.0</ele><time>2026-04-26T16:21:39.423Z</time></trkpt><trkpt lat="45.4156139" lon="11.0851563"><ele>49.0</ele><time>2026-04-26T16:21:40.423Z</time></trkpt><trkpt lat="45.4156983" lon="11.0849814"><ele>48.33333333333333</ele><time>2026-04-26T16:21:41.423Z</time></trkpt><trkpt lat="45.4157807" lon="11.0848111"><ele>47.666666666666664</ele><time>2026-04-26T16:21:42.423Z</time></trkpt><trkpt lat="45.4158735" lon="11.0846351"><ele>47.0</ele><time>2026-04-26T16:21:43.423Z</time></trkpt><trkpt lat="45.4159701" lon="11.0844682"><ele>47.0</ele><time>2026-04-26T16:21:44.423Z</time></trkpt><trkpt lat="45.4160668" lon="11.0842869"><ele>47.0</ele><time>2026-04-26T16:21:45.423Z</time></trkpt><trkpt lat="45.4161647" lon="11.0841004"><ele>47.0</ele><time>2026-04-26T16:21:46.424Z</time></trkpt><trkpt lat="45.416266" lon="11.083912"><ele>48.0</ele><time>2026-04-26T16:21:47.424Z</time></trkpt><trkpt lat="45.4163659" lon="11.0837273"><ele>49.0</ele><time>2026-04-26T16:21:48.423Z</time></trkpt><trkpt lat="45.4164733" lon="11.0835466"><ele>50.0</ele><time>2026-04-26T16:21:49.423Z</time></trkpt><trkpt lat="45.4165785" lon="11.083362"><ele>49.333333333333336</ele><time>2026-04-26T16:21:50.424Z</time></trkpt><trkpt lat="45.4166782" lon="11.083187"><ele>48.66666666666667</ele><time>2026-04-26T16:21:51.423Z</time></trkpt><trkpt lat="45.4167767" lon="11.0830236"><ele>48.0</ele><time>2026-04-26T16:21:52.424Z</time></trkpt><trkpt lat="45.4168776" lon="11.0828651"><ele>48.0</ele><time>2026-04-26T16:21:53.423Z</time></trkpt><trkpt lat="45.416979" lon="11.0827106"><ele>48.0</ele><time>2026-04-26T16:21:54.423Z</time></trkpt><trkpt lat="45.4170725" lon="11.0825565"><ele>48.0</ele><time>2026-04-26T16:21:55.424Z</time></trkpt><trkpt lat="45.4171659" lon="11.0824022"><ele>48.0</ele><time>2026-04-26T16:21:56.423Z</time></trkpt><trkpt lat="45.4172588" lon="11.0822489"><ele>47.0</ele><time>2026-04-26T16:21:57.423Z</time></trkpt><trkpt lat="45.4173508" lon="11.0821006"><ele>46.0</ele><time>2026-04-26T16:21:58.423Z</time></trkpt><trkpt lat="45.4174402" lon="11.0819496"><ele>45.0</ele><time>2026-04-26T16:21:59.423Z</time></trkpt><trkpt lat="45.4175279" lon="11.0817996"><ele>44.0</ele><time>2026-04-26T16:22:00.424Z</time></trkpt><trkpt lat="45.417611" lon="11.0816634"><ele>43.5</ele><time>2026-04-26T16:22:01.423Z</time></trkpt><trkpt lat="45.4177024" lon="11.0815282"><ele>43.0</ele><time>2026-04-26T16:22:02.424Z</time></trkpt><trkpt lat="45.4177882" lon="11.0813961"><ele>42.5</ele><time>2026-04-26T16:22:03.423Z</time></trkpt><trkpt lat="45.4178718" lon="11.0812706"><ele>42.0</ele><time>2026-04-26T16:22:04.423Z</time></trkpt><trkpt lat="45.4179513" lon="11.081152"><ele>42.2</ele><time>2026-04-26T16:22:05.423Z</time></trkpt><trkpt lat="45.4180274" lon="11.0810423"><ele>42.400000000000006</ele><time>2026-04-26T16:22:06.423Z</time></trkpt><trkpt lat="45.418102" lon="11.0809435"><ele>42.599999999999994</ele><time>2026-04-26T16:22:07.423Z</time></trkpt><trkpt lat="45.4181804" lon="11.0808623"><ele>42.8</ele><time>2026-04-26T16:22:08.424Z</time></trkpt><trkpt lat="45.4182759" lon="11.080804"><ele>43.0</ele><time>2026-04-26T16:22:09.423Z</time></trkpt><trkpt lat="45.4183779" lon="11.0807573"><ele>43.0</ele><time>2026-04-26T16:22:10.424Z</time></trkpt><trkpt lat="45.4184744" lon="11.0806944"><ele>43.0</ele><time>2026-04-26T16:22:11.423Z</time></trkpt><trkpt lat="45.4185585" lon="11.0806002"><ele>43.0</ele><time>2026-04-26T16:22:12.423Z</time></trkpt><trkpt lat="45.4186169" lon="11.0804704"><ele>43.0</ele><time>2026-04-26T16:22:13.424Z</time></trkpt><trkpt lat="45.4186378" lon="11.0803166"><ele>43.0</ele><time>2026-04-26T16:22:14.424Z</time></trkpt><trkpt lat="45.4186458" lon="11.0801531"><ele>43.0</ele><time>2026-04-26T16:22:15.423Z</time></trkpt><trkpt lat="45.418669" lon="11.0799963"><ele>43.0</ele><time>2026-04-26T16:22:16.423Z</time></trkpt><trkpt lat="45.4187161" lon="11.0798398"><ele>43.0</ele><time>2026-04-26T16:22:17.423Z</time></trkpt><trkpt lat="45.4187848" lon="11.0796901"><ele>43.0</ele><time>2026-04-26T16:22:18.423Z</time></trkpt><trkpt lat="45.4188685" lon="11.0795306"><ele>43.0</ele><time>2026-04-26T16:22:19.424Z</time></trkpt><trkpt lat="45.4189553" lon="11.0793757"><ele>43.0</ele><time>2026-04-26T16:22:20.423Z</time></trkpt><trkpt lat="45.4190495" lon="11.0792181"><ele>43.0</ele><time>2026-04-26T16:22:21.423Z</time></trkpt><trkpt lat="45.4191511" lon="11.0790531"><ele>43.0</ele><time>2026-04-26T16:22:22.423Z</time></trkpt><trkpt lat="45.4192599" lon="11.0788669"><ele>43.0</ele><time>2026-04-26T16:22:23.424Z</time></trkpt><trkpt lat="45.4193846" lon="11.0786661"><ele>43.0</ele><time>2026-04-26T16:22:24.423Z</time></trkpt><trkpt lat="45.4195167" lon="11.0784528"><ele>43.0</ele><time>2026-04-26T16:22:25.423Z</time></trkpt><trkpt lat="45.4196515" lon="11.0782329"><ele>43.66666666666667</ele><time>2026-04-26T16:22:26.423Z</time></trkpt><trkpt lat="45.4197866" lon="11.0780042"><ele>44.333333333333336</ele><time>2026-04-26T16:22:27.423Z</time></trkpt><trkpt lat="45.4199297" lon="11.0777684"><ele>45.0</ele><time>2026-04-26T16:22:28.423Z</time></trkpt><trkpt lat="45.4200776" lon="11.0775274"><ele>44.5</ele><time>2026-04-26T16:22:29.423Z</time></trkpt><trkpt lat="45.4202288" lon="11.0772853"><ele>44.0</ele><time>2026-04-26T16:22:30.423Z</time></trkpt><trkpt lat="45.4203807" lon="11.0770371"><ele>44.0</ele><time>2026-04-26T16:22:31.424Z</time></trkpt><trkpt lat="45.4205328" lon="11.0767863"><ele>44.0</ele><time>2026-04-26T16:22:32.423Z</time></trkpt><trkpt lat="45.4206893" lon="11.0765325"><ele>44.5</ele><time>2026-04-26T16:22:33.423Z</time></trkpt><trkpt lat="45.4208448" lon="11.0762763"><ele>45.0</ele><time>2026-04-26T16:22:34.423Z</time></trkpt><trkpt lat="45.4210013" lon="11.0760191"><ele>45.5</ele><time>2026-04-26T16:22:35.423Z</time></trkpt><trkpt lat="45.4211568" lon="11.0757593"><ele>46.0</ele><time>2026-04-26T16:22:36.424Z</time></trkpt><trkpt lat="45.4213113" lon="11.0754949"><ele>46.5</ele><time>2026-04-26T16:22:37.423Z</time></trkpt><trkpt lat="45.421467" lon="11.0752302"><ele>47.0</ele><time>2026-04-26T16:22:38.423Z</time></trkpt><trkpt lat="45.4216244" lon="11.0749658"><ele>47.5</ele><time>2026-04-26T16:22:39.423Z</time></trkpt><trkpt lat="45.4217832" lon="11.0746967"><ele>48.0</ele><time>2026-04-26T16:22:40.424Z</time></trkpt><trkpt lat="45.4219418" lon="11.0744304"><ele>48.0</ele><time>2026-04-26T16:22:41.423Z</time></trkpt><trkpt lat="45.4221007" lon="11.07416"><ele>48.0</ele><time>2026-04-26T16:22:42.424Z</time></trkpt><trkpt lat="45.4222642" lon="11.0738954"><ele>47.5</ele><time>2026-04-26T16:22:43.423Z</time></trkpt><trkpt lat="45.4224251" lon="11.0736256"><ele>47.0</ele><time>2026-04-26T16:22:44.423Z</time></trkpt><trkpt lat="45.4225853" lon="11.0733595"><ele>46.5</ele><time>2026-04-26T16:22:45.423Z</time></trkpt><trkpt lat="45.4227424" lon="11.0730919"><ele>46.0</ele><time>2026-04-26T16:22:46.423Z</time></trkpt><trkpt lat="45.4228999" lon="11.0728205"><ele>47.0</ele><time>2026-04-26T16:22:47.424Z</time></trkpt><trkpt lat="45.4230571" lon="11.0725522"><ele>48.0</ele><time>2026-04-26T16:22:48.423Z</time></trkpt><trkpt lat="45.4232174" lon="11.0722834"><ele>48.0</ele><time>2026-04-26T16:22:49.423Z</time></trkpt><trkpt lat="45.423379" lon="11.0720133"><ele>48.0</ele><time>2026-04-26T16:22:50.423Z</time></trkpt><trkpt lat="45.423544" lon="11.0717435"><ele>48.5</ele><time>2026-04-26T16:22:51.423Z</time></trkpt><trkpt lat="45.4237093" lon="11.071469"><ele>49.0</ele><time>2026-04-26T16:22:52.424Z</time></trkpt><trkpt lat="45.4238782" lon="11.0711903"><ele>49.0</ele><time>2026-04-26T16:22:53.423Z</time></trkpt><trkpt lat="45.4240475" lon="11.0709094"><ele>49.0</ele><time>2026-04-26T16:22:54.423Z</time></trkpt><trkpt lat="45.424218" lon="11.0706297"><ele>48.0</ele><time>2026-04-26T16:22:55.424Z</time></trkpt><trkpt lat="45.4243855" lon="11.0703445"><ele>47.0</ele><time>2026-04-26T16:22:56.423Z</time></trkpt><trkpt lat="45.4245541" lon="11.0700611"><ele>47.0</ele><time>2026-04-26T16:22:57.423Z</time></trkpt><trkpt lat="45.4247281" lon="11.0697768"><ele>47.0</ele><time>2026-04-26T16:22:58.423Z</time></trkpt><trkpt lat="45.4248978" lon="11.069489"><ele>47.0</ele><time>2026-04-26T16:22:59.423Z</time></trkpt><trkpt lat="45.4250697" lon="11.0692023"><ele>47.0</ele><time>2026-04-26T16:23:00.424Z</time></trkpt><trkpt lat="45.4252399" lon="11.0689173"><ele>47.0</ele><time>2026-04-26T16:23:01.423Z</time></trkpt><trkpt lat="45.4254096" lon="11.0686313"><ele>47.0</ele><time>2026-04-26T16:23:02.423Z</time></trkpt><trkpt lat="45.4255812" lon="11.0683466"><ele>46.0</ele><time>2026-04-26T16:23:03.423Z</time></trkpt><trkpt lat="45.4257505" lon="11.0680662"><ele>45.0</ele><time>2026-04-26T16:23:04.423Z</time></trkpt><trkpt lat="45.4259195" lon="11.0677824"><ele>45.0</ele><time>2026-04-26T16:23:05.423Z</time></trkpt><trkpt lat="45.4260905" lon="11.0675014"><ele>45.0</ele><time>2026-04-26T16:23:06.423Z</time></trkpt><trkpt lat="45.4262629" lon="11.067215"><ele>47.0</ele><time>2026-04-26T16:23:07.423Z</time></trkpt><trkpt lat="45.4264376" lon="11.0669361"><ele>49.0</ele><time>2026-04-26T16:23:08.423Z</time></trkpt><trkpt lat="45.4266166" lon="11.0666618"><ele>48.5</ele><time>2026-04-26T16:23:09.423Z</time></trkpt><trkpt lat="45.4268024" lon="11.0664012"><ele>48.0</ele><time>2026-04-26T16:23:10.423Z</time></trkpt><trkpt lat="45.426993" lon="11.066149"><ele>49.0</ele><time>2026-04-26T16:23:11.423Z</time></trkpt><trkpt lat="45.4271933" lon="11.0659092"><ele>50.0</ele><time>2026-04-26T16:23:12.423Z</time></trkpt><trkpt lat="45.4274002" lon="11.0656807"><ele>50.5</ele><time>2026-04-26T16:23:13.423Z</time></trkpt><trkpt lat="45.4276169" lon="11.0654669"><ele>51.0</ele><time>2026-04-26T16:23:14.423Z</time></trkpt><trkpt lat="45.4278393" lon="11.0652623"><ele>51.0</ele><time>2026-04-26T16:23:15.424Z</time></trkpt><trkpt lat="45.4280703" lon="11.0650661"><ele>51.0</ele><time>2026-04-26T16:23:16.424Z</time></trkpt><trkpt lat="45.4283088" lon="11.0648852"><ele>49.5</ele><time>2026-04-26T16:23:17.423Z</time></trkpt><trkpt lat="45.4285517" lon="11.06472"><ele>48.0</ele><time>2026-04-26T16:23:18.423Z</time></trkpt><trkpt lat="45.4288005" lon="11.0645737"><ele>49.0</ele><time>2026-04-26T16:23:19.423Z</time></trkpt><trkpt lat="45.4290536" lon="11.0644417"><ele>50.0</ele><time>2026-04-26T16:23:20.424Z</time></trkpt><trkpt lat="45.4293118" lon="11.0643223"><ele>50.0</ele><time>2026-04-26T16:23:21.423Z</time></trkpt><trkpt lat="45.4295697" lon="11.0642048"><ele>50.0</ele><time>2026-04-26T16:23:22.423Z</time></trkpt><trkpt lat="45.4298276" lon="11.0641036"><ele>50.5</ele><time>2026-04-26T16:23:23.423Z</time></trkpt><trkpt lat="45.4300836" lon="11.0640015"><ele>51.0</ele><time>2026-04-26T16:23:24.424Z</time></trkpt><trkpt lat="45.4303399" lon="11.0638888"><ele>51.5</ele><time>2026-04-26T16:23:25.423Z</time></trkpt><trkpt lat="45.4305929" lon="11.0637593"><ele>52.0</ele><time>2026-04-26T16:23:26.424Z</time></trkpt><trkpt lat="45.430841" lon="11.0636078"><ele>52.0</ele><time>2026-04-26T16:23:27.423Z</time></trkpt><trkpt lat="45.4310858" lon="11.0634438"><ele>52.0</ele><time>2026-04-26T16:23:28.423Z</time></trkpt><trkpt lat="45.431327" lon="11.06327"><ele>53.5</ele><time>2026-04-26T16:23:29.423Z</time></trkpt><trkpt lat="45.4315675" lon="11.0630879"><ele>55.0</ele><time>2026-04-26T16:23:30.424Z</time></trkpt><trkpt lat="45.4318103" lon="11.0629022"><ele>55.0</ele><time>2026-04-26T16:23:31.423Z</time></trkpt><trkpt lat="45.4320484" lon="11.0627148"><ele>55.0</ele><time>2026-04-26T16:23:32.424Z</time></trkpt><trkpt lat="45.4322894" lon="11.0625312"><ele>56.0</ele><time>2026-04-26T16:23:33.424Z</time></trkpt><trkpt lat="45.4325295" lon="11.0623533"><ele>57.0</ele><time>2026-04-26T16:23:34.423Z</time></trkpt><trkpt lat="45.4327708" lon="11.0621759"><ele>56.5</ele><time>2026-04-26T16:23:35.423Z</time></trkpt><trkpt lat="45.4330124" lon="11.0619988"><ele>56.0</ele><time>2026-04-26T16:23:36.423Z</time></trkpt><trkpt lat="45.4332532" lon="11.0618235"><ele>56.0</ele><time>2026-04-26T16:23:37.424Z</time></trkpt><trkpt lat="45.4334915" lon="11.061644"><ele>56.0</ele><time>2026-04-26T16:23:38.423Z</time></trkpt><trkpt lat="45.4337307" lon="11.061465"><ele>55.5</ele><time>2026-04-26T16:23:39.423Z</time></trkpt><trkpt lat="45.4339654" lon="11.0612833"><ele>55.0</ele><time>2026-04-26T16:23:40.423Z</time></trkpt><trkpt lat="45.4342036" lon="11.0611071"><ele>55.0</ele><time>2026-04-26T16:23:41.423Z</time></trkpt><trkpt lat="45.4344433" lon="11.0609249"><ele>55.0</ele><time>2026-04-26T16:23:42.423Z</time></trkpt><trkpt lat="45.4346843" lon="11.0607461"><ele>55.5</ele><time>2026-04-26T16:23:43.423Z</time></trkpt><trkpt lat="45.4349233" lon="11.0605679"><ele>56.0</ele><time>2026-04-26T16:23:44.423Z</time></trkpt><trkpt lat="45.4351638" lon="11.0603847"><ele>56.0</ele><time>2026-04-26T16:23:45.423Z</time></trkpt><trkpt lat="45.4354035" lon="11.0602014"><ele>56.0</ele><time>2026-04-26T16:23:46.424Z</time></trkpt><trkpt lat="45.435647" lon="11.0600166"><ele>57.0</ele><time>2026-04-26T16:23:47.423Z</time></trkpt><trkpt lat="45.4358898" lon="11.0598242"><ele>58.0</ele><time>2026-04-26T16:23:48.423Z</time></trkpt><trkpt lat="45.4361313" lon="11.0596343"><ele>56.5</ele><time>2026-04-26T16:23:49.423Z</time></trkpt><trkpt lat="45.4363746" lon="11.0594454"><ele>55.0</ele><time>2026-04-26T16:23:50.423Z</time></trkpt><trkpt lat="45.4366158" lon="11.0592564"><ele>55.5</ele><time>2026-04-26T16:23:51.423Z</time></trkpt><trkpt lat="45.4368603" lon="11.0590689"><ele>56.0</ele><time>2026-04-26T16:23:52.423Z</time></trkpt><trkpt lat="45.4371052" lon="11.058882"><ele>55.5</ele><time>2026-04-26T16:23:53.423Z</time></trkpt><trkpt lat="45.437349" lon="11.0586928"><ele>55.0</ele><time>2026-04-26T16:23:54.423Z</time></trkpt><trkpt lat="45.4375933" lon="11.0585019"><ele>55.0</ele><time>2026-04-26T16:23:55.424Z</time></trkpt><trkpt lat="45.4378395" lon="11.0583118"><ele>55.0</ele><time>2026-04-26T16:23:56.423Z</time></trkpt><trkpt lat="45.438083" lon="11.058124"><ele>56.5</ele><time>2026-04-26T16:23:57.423Z</time></trkpt><trkpt lat="45.4383277" lon="11.0579367"><ele>58.0</ele><time>2026-04-26T16:23:58.423Z</time></trkpt><trkpt lat="45.4385746" lon="11.057747"><ele>58.0</ele><time>2026-04-26T16:23:59.423Z</time></trkpt><trkpt lat="45.4388195" lon="11.0575598"><ele>58.0</ele><time>2026-04-26T16:24:00.423Z</time></trkpt><trkpt lat="45.4390657" lon="11.0573749"><ele>58.0</ele><time>2026-04-26T16:24:01.423Z</time></trkpt><trkpt lat="45.4393113" lon="11.0571871"><ele>58.0</ele><time>2026-04-26T16:24:02.423Z</time></trkpt><trkpt lat="45.4395578" lon="11.057"><ele>57.5</ele><time>2026-04-26T16:24:03.423Z</time></trkpt><trkpt lat="45.4398035" lon="11.0568107"><ele>57.0</ele><time>2026-04-26T16:24:04.423Z</time></trkpt><trkpt lat="45.4400512" lon="11.0566201"><ele>56.0</ele><time>2026-04-26T16:24:05.423Z</time></trkpt><trkpt lat="45.4402996" lon="11.0564324"><ele>55.0</ele><time>2026-04-26T16:24:06.423Z</time></trkpt><trkpt lat="45.4405494" lon="11.0562465"><ele>55.0</ele><time>2026-04-26T16:24:07.423Z</time></trkpt><trkpt lat="45.4407925" lon="11.0560623"><ele>55.0</ele><time>2026-04-26T16:24:08.424Z</time></trkpt><trkpt lat="45.441039" lon="11.0558775"><ele>55.5</ele><time>2026-04-26T16:24:09.423Z</time></trkpt><trkpt lat="45.4412822" lon="11.0556951"><ele>56.0</ele><time>2026-04-26T16:24:10.424Z</time></trkpt><trkpt lat="45.4415261" lon="11.0555161"><ele>56.0</ele><time>2026-04-26T16:24:11.423Z</time></trkpt><trkpt lat="45.441768" lon="11.055333"><ele>56.0</ele><time>2026-04-26T16:24:12.423Z</time></trkpt><trkpt lat="45.4420114" lon="11.0551496"><ele>56.5</ele><time>2026-04-26T16:24:13.423Z</time></trkpt><trkpt lat="45.4422543" lon="11.0549681"><ele>57.0</ele><time>2026-04-26T16:24:14.424Z</time></trkpt><trkpt lat="45.4424955" lon="11.054781"><ele>57.0</ele><time>2026-04-26T16:24:15.423Z</time></trkpt><trkpt lat="45.4427362" lon="11.0545959"><ele>57.0</ele><time>2026-04-26T16:24:16.424Z</time></trkpt><trkpt lat="45.4429737" lon="11.0544116"><ele>57.5</ele><time>2026-04-26T16:24:17.423Z</time></trkpt><trkpt lat="45.443214" lon="11.0542302"><ele>58.0</ele><time>2026-04-26T16:24:18.423Z</time></trkpt><trkpt lat="45.4434552" lon="11.0540438"><ele>57.0</ele><time>2026-04-26T16:24:19.423Z</time></trkpt><trkpt lat="45.4436972" lon="11.0538569"><ele>56.0</ele><time>2026-04-26T16:24:20.423Z</time></trkpt><trkpt lat="45.443938" lon="11.053673"><ele>55.5</ele><time>2026-04-26T16:24:21.423Z</time></trkpt><trkpt lat="45.4441818" lon="11.0534864"><ele>55.0</ele><time>2026-04-26T16:24:22.423Z</time></trkpt><trkpt lat="45.444426" lon="11.0533039"><ele>56.5</ele><time>2026-04-26T16:24:23.423Z</time></trkpt><trkpt lat="45.4446674" lon="11.0531233"><ele>58.0</ele><time>2026-04-26T16:24:24.423Z</time></trkpt><trkpt lat="45.4449131" lon="11.0529395"><ele>58.0</ele><time>2026-04-26T16:24:25.423Z</time></trkpt><trkpt lat="45.4451559" lon="11.0527525"><ele>58.0</ele><time>2026-04-26T16:24:26.423Z</time></trkpt><trkpt lat="45.4454008" lon="11.0525674"><ele>58.5</ele><time>2026-04-26T16:24:27.424Z</time></trkpt><trkpt lat="45.4456447" lon="11.0523872"><ele>59.0</ele><time>2026-04-26T16:24:28.424Z</time></trkpt><trkpt lat="45.445893" lon="11.052201"><ele>59.0</ele><time>2026-04-26T16:24:29.423Z</time></trkpt><trkpt lat="45.4461326" lon="11.0520104"><ele>59.0</ele><time>2026-04-26T16:24:30.423Z</time></trkpt><trkpt lat="45.4463723" lon="11.0518193"><ele>59.5</ele><time>2026-04-26T16:24:31.423Z</time></trkpt><trkpt lat="45.4466143" lon="11.0516275"><ele>60.0</ele><time>2026-04-26T16:24:32.423Z</time></trkpt><trkpt lat="45.4468544" lon="11.0514325"><ele>60.0</ele><time>2026-04-26T16:24:33.423Z</time></trkpt><trkpt lat="45.4470967" lon="11.0512458"><ele>60.0</ele><time>2026-04-26T16:24:34.423Z</time></trkpt><trkpt lat="45.4473367" lon="11.0510666"><ele>60.0</ele><time>2026-04-26T16:24:35.424Z</time></trkpt><trkpt lat="45.4475777" lon="11.050886"><ele>60.0</ele><time>2026-04-26T16:24:36.423Z</time></trkpt><trkpt lat="45.4478208" lon="11.0507075"><ele>59.5</ele><time>2026-04-26T16:24:37.423Z</time></trkpt><trkpt lat="45.4480638" lon="11.0505253"><ele>59.0</ele><time>2026-04-26T16:24:38.424Z</time></trkpt><trkpt lat="45.4483082" lon="11.0503476"><ele>59.0</ele><time>2026-04-26T16:24:39.423Z</time></trkpt><trkpt lat="45.4485539" lon="11.0501706"><ele>59.0</ele><time>2026-04-26T16:24:40.423Z</time></trkpt><trkpt lat="45.4487991" lon="11.0499856"><ele>58.0</ele><time>2026-04-26T16:24:41.423Z</time></trkpt><trkpt lat="45.449041" lon="11.0497894"><ele>57.0</ele><time>2026-04-26T16:24:42.424Z</time></trkpt><trkpt lat="45.4492794" lon="11.0495811"><ele>57.0</ele><time>2026-04-26T16:24:43.423Z</time></trkpt><trkpt lat="45.4495146" lon="11.0493631"><ele>57.0</ele><time>2026-04-26T16:24:44.424Z</time></trkpt><trkpt lat="45.4497435" lon="11.0491314"><ele>57.0</ele><time>2026-04-26T16:24:45.423Z</time></trkpt><trkpt lat="45.4499641" lon="11.0488911"><ele>57.0</ele><time>2026-04-26T16:24:46.423Z</time></trkpt><trkpt lat="45.4501782" lon="11.048633"><ele>57.0</ele><time>2026-04-26T16:24:47.423Z</time></trkpt><trkpt lat="45.4503877" lon="11.0483714"><ele>57.0</ele><time>2026-04-26T16:24:48.424Z</time></trkpt><trkpt lat="45.4505902" lon="11.048098"><ele>57.0</ele><time>2026-04-26T16:24:49.424Z</time></trkpt><trkpt lat="45.4507875" lon="11.047813"><ele>57.0</ele><time>2026-04-26T16:24:50.423Z</time></trkpt><trkpt lat="45.4509819" lon="11.0475169"><ele>57.0</ele><time>2026-04-26T16:24:51.424Z</time></trkpt><trkpt lat="45.4511678" lon="11.047214"><ele>57.0</ele><time>2026-04-26T16:24:52.423Z</time></trkpt><trkpt lat="45.4513181" lon="11.0469263"><ele>56.0</ele><time>2026-04-26T16:24:53.423Z</time></trkpt><trkpt lat="45.4514745" lon="11.0466306"><ele>55.0</ele><time>2026-04-26T16:24:54.423Z</time></trkpt><trkpt lat="45.4516327" lon="11.0463493"><ele>55.0</ele><time>2026-04-26T16:24:55.423Z</time></trkpt><trkpt lat="45.4517668" lon="11.0460743"><ele>55.0</ele><time>2026-04-26T16:24:56.423Z</time></trkpt><trkpt lat="45.4518857" lon="11.0458145"><ele>55.33333333333333</ele><time>2026-04-26T16:24:57.423Z</time></trkpt><trkpt lat="45.4519969" lon="11.0455777"><ele>55.66666666666667</ele><time>2026-04-26T16:24:58.424Z</time></trkpt><trkpt lat="45.4520991" lon="11.0453499"><ele>56.0</ele><time>2026-04-26T16:24:59.424Z</time></trkpt><trkpt lat="45.452189" lon="11.0451294"><ele>55.66666666666667</ele><time>2026-04-26T16:25:00.423Z</time></trkpt><trkpt lat="45.4522721" lon="11.0449217"><ele>55.33333333333333</ele><time>2026-04-26T16:25:01.423Z</time></trkpt><trkpt lat="45.45235" lon="11.0447281"><ele>55.0</ele><time>2026-04-26T16:25:02.424Z</time></trkpt><trkpt lat="45.4524361" lon="11.0445677"><ele>55.0</ele><time>2026-04-26T16:25:03.423Z</time></trkpt><trkpt lat="45.4525457" lon="11.0444568"><ele>55.0</ele><time>2026-04-26T16:25:04.424Z</time></trkpt><trkpt lat="45.4526769" lon="11.0444085"><ele>55.0</ele><time>2026-04-26T16:25:05.423Z</time></trkpt><trkpt lat="45.4528151" lon="11.044433"><ele>55.0</ele><time>2026-04-26T16:25:06.424Z</time></trkpt><trkpt lat="45.4529358" lon="11.0445233"><ele>55.75</ele><time>2026-04-26T16:25:07.423Z</time></trkpt><trkpt lat="45.4530311" lon="11.0446841"><ele>56.5</ele><time>2026-04-26T16:25:08.423Z</time></trkpt><trkpt lat="45.4530829" lon="11.0448764"><ele>57.25</ele><time>2026-04-26T16:25:09.423Z</time></trkpt><trkpt lat="45.4530798" lon="11.0450829"><ele>58.0</ele><time>2026-04-26T16:25:10.424Z</time></trkpt><trkpt lat="45.4530217" lon="11.0452704"><ele>57.75</ele><time>2026-04-26T16:25:11.423Z</time></trkpt><trkpt lat="45.4529197" lon="11.0454133"><ele>57.5</ele><time>2026-04-26T16:25:12.423Z</time></trkpt><trkpt lat="45.4527902" lon="11.0454977"><ele>57.25</ele><time>2026-04-26T16:25:13.423Z</time></trkpt><trkpt lat="45.4526377" lon="11.0455036"><ele>57.0</ele><time>2026-04-26T16:25:14.423Z</time></trkpt><trkpt lat="45.4524931" lon="11.0454483"><ele>57.0</ele><time>2026-04-26T16:25:15.424Z</time></trkpt><trkpt lat="45.4523558" lon="11.0453485"><ele>57.0</ele><time>2026-04-26T16:25:16.423Z</time></trkpt><trkpt lat="45.4522202" lon="11.0452382"><ele>57.0</ele><time>2026-04-26T16:25:17.423Z</time></trkpt><trkpt lat="45.4520899" lon="11.0451333"><ele>56.75</ele><time>2026-04-26T16:25:18.424Z</time></trkpt><trkpt lat="45.4519688" lon="11.0450373"><ele>56.5</ele><time>2026-04-26T16:25:19.423Z</time></trkpt><trkpt lat="45.4518495" lon="11.0449395"><ele>56.25</ele><time>2026-04-26T16:25:20.423Z</time></trkpt><trkpt lat="45.4517317" lon="11.0448398"><ele>56.0</ele><time>2026-04-26T16:25:21.423Z</time></trkpt><trkpt lat="45.4516094" lon="11.0447431"><ele>56.5</ele><time>2026-04-26T16:25:22.423Z</time></trkpt><trkpt lat="45.4514862" lon="11.0446473"><ele>57.0</ele><time>2026-04-26T16:25:23.423Z</time></trkpt><trkpt lat="45.4513562" lon="11.0445707"><ele>57.5</ele><time>2026-04-26T16:25:24.423Z</time></trkpt><trkpt lat="45.4512182" lon="11.0445242"><ele>58.0</ele><time>2026-04-26T16:25:25.423Z</time></trkpt><trkpt lat="45.4510776" lon="11.0445124"><ele>58.25</ele><time>2026-04-26T16:25:26.423Z</time></trkpt><trkpt lat="45.450938" lon="11.0445385"><ele>58.5</ele><time>2026-04-26T16:25:27.423Z</time></trkpt><trkpt lat="45.4508089" lon="11.0445771"><ele>58.75</ele><time>2026-04-26T16:25:28.423Z</time></trkpt><trkpt lat="45.450691" lon="11.0446228"><ele>59.0</ele><time>2026-04-26T16:25:29.423Z</time></trkpt><trkpt lat="45.4505803" lon="11.0446627"><ele>59.00000000000001</ele><time>2026-04-26T16:25:30.423Z</time></trkpt><trkpt lat="45.4504936" lon="11.0446987"><ele>59.0</ele><time>2026-04-26T16:25:31.424Z</time></trkpt><trkpt lat="45.4504199" lon="11.0447246"><ele>59.0</ele><time>2026-04-26T16:25:32.423Z</time></trkpt><trkpt lat="45.450329" lon="11.0447482"><ele>59.0</ele><time>2026-04-26T16:25:34.424Z</time></trkpt><trkpt lat="45.4502417" lon="11.0447709"><ele>59.00000000000001</ele><time>2026-04-26T16:25:39.424Z</time></trkpt><trkpt lat="45.4501695" lon="11.0447805"><ele>59.0</ele><time>2026-04-26T16:25:46.424Z</time></trkpt><trkpt lat="45.4500817" lon="11.0448721"><ele>59.0</ele><time>2026-04-26T16:25:49.423Z</time></trkpt><trkpt lat="45.4500725" lon="11.0449631"><ele>59.00000000000001</ele><time>2026-04-26T16:25:50.423Z</time></trkpt><trkpt lat="45.4500885" lon="11.045081"><ele>59.00000000000001</ele><time>2026-04-26T16:25:51.423Z</time></trkpt><trkpt lat="45.4501238" lon="11.0452316"><ele>59.0</ele><time>2026-04-26T16:25:52.424Z</time></trkpt><trkpt lat="45.4501587" lon="11.045405"><ele>59.0</ele><time>2026-04-26T16:25:53.423Z</time></trkpt><trkpt lat="45.450198" lon="11.0456083"><ele>59.333333333333336</ele><time>2026-04-26T16:25:54.424Z</time></trkpt><trkpt lat="45.4502405" lon="11.0458126"><ele>59.66666666666667</ele><time>2026-04-26T16:25:55.424Z</time></trkpt><trkpt lat="45.4502846" lon="11.0460211"><ele>60.0</ele><time>2026-04-26T16:25:56.423Z</time></trkpt><trkpt lat="45.4503304" lon="11.0462326"><ele>60.0</ele><time>2026-04-26T16:25:57.423Z</time></trkpt><trkpt lat="45.4503863" lon="11.0464427"><ele>60.0</ele><time>2026-04-26T16:25:58.423Z</time></trkpt><trkpt lat="45.4504428" lon="11.0466531"><ele>60.0</ele><time>2026-04-26T16:25:59.424Z</time></trkpt><trkpt lat="45.4505027" lon="11.046859"><ele>59.25</ele><time>2026-04-26T16:26:00.423Z</time></trkpt><trkpt lat="45.4505652" lon="11.0470617"><ele>58.5</ele><time>2026-04-26T16:26:01.423Z</time></trkpt><trkpt lat="45.4506219" lon="11.0472508"><ele>57.75</ele><time>2026-04-26T16:26:02.423Z</time></trkpt><trkpt lat="45.4506814" lon="11.0474236"><ele>57.0</ele><time>2026-04-26T16:26:03.424Z</time></trkpt><trkpt lat="45.4507387" lon="11.0475873"><ele>57.0</ele><time>2026-04-26T16:26:04.423Z</time></trkpt><trkpt lat="45.4507947" lon="11.0477403"><ele>57.0</ele><time>2026-04-26T16:26:05.424Z</time></trkpt><trkpt lat="45.4508578" lon="11.0478903"><ele>57.0</ele><time>2026-04-26T16:26:06.423Z</time></trkpt><trkpt lat="45.45093" lon="11.0480364"><ele>57.0</ele><time>2026-04-26T16:26:07.423Z</time></trkpt><trkpt lat="45.4510155" lon="11.0481689"><ele>57.5</ele><time>2026-04-26T16:26:08.424Z</time></trkpt><trkpt lat="45.4511058" lon="11.0482959"><ele>58.0</ele><time>2026-04-26T16:26:09.424Z</time></trkpt><trkpt lat="45.4511998" lon="11.0484223"><ele>58.5</ele><time>2026-04-26T16:26:10.424Z</time></trkpt><trkpt lat="45.4513003" lon="11.0485433"><ele>59.0</ele><time>2026-04-26T16:26:11.423Z</time></trkpt><trkpt lat="45.4513932" lon="11.048671"><ele>59.5</ele><time>2026-04-26T16:26:12.423Z</time></trkpt><trkpt lat="45.4514799" lon="11.0488025"><ele>60.0</ele><time>2026-04-26T16:26:13.423Z</time></trkpt><trkpt lat="45.4515619" lon="11.0489412"><ele>60.5</ele><time>2026-04-26T16:26:14.423Z</time></trkpt><trkpt lat="45.4516355" lon="11.0490896"><ele>61.0</ele><time>2026-04-26T16:26:15.423Z</time></trkpt><trkpt lat="45.451706" lon="11.0492466"><ele>61.0</ele><time>2026-04-26T16:26:16.424Z</time></trkpt><trkpt lat="45.4517796" lon="11.0494073"><ele>61.0</ele><time>2026-04-26T16:26:17.423Z</time></trkpt><trkpt lat="45.4518572" lon="11.0495663"><ele>61.0</ele><time>2026-04-26T16:26:18.423Z</time></trkpt><trkpt lat="45.451934" lon="11.0497282"><ele>61.0</ele><time>2026-04-26T16:26:19.424Z</time></trkpt><trkpt lat="45.4520047" lon="11.0498967"><ele>60.75</ele><time>2026-04-26T16:26:20.423Z</time></trkpt><trkpt lat="45.4520715" lon="11.0500731"><ele>60.5</ele><time>2026-04-26T16:26:21.423Z</time></trkpt><trkpt lat="45.4521363" lon="11.0502535"><ele>60.25</ele><time>2026-04-26T16:26:22.423Z</time></trkpt><trkpt lat="45.4521924" lon="11.0504478"><ele>60.0</ele><time>2026-04-26T16:26:23.423Z</time></trkpt><trkpt lat="45.4522404" lon="11.0506423"><ele>61.33333333333333</ele><time>2026-04-26T16:26:24.423Z</time></trkpt><trkpt lat="45.4522881" lon="11.0508476"><ele>62.666666666666664</ele><time>2026-04-26T16:26:25.424Z</time></trkpt><trkpt lat="45.4523329" lon="11.0510515"><ele>64.0</ele><time>2026-04-26T16:26:26.423Z</time></trkpt><trkpt lat="45.452376" lon="11.0512585"><ele>64.0</ele><time>2026-04-26T16:26:27.423Z</time></trkpt><trkpt lat="45.4524246" lon="11.0514655"><ele>64.0</ele><time>2026-04-26T16:26:28.423Z</time></trkpt><trkpt lat="45.4524712" lon="11.0516771"><ele>64.0</ele><time>2026-04-26T16:26:29.423Z</time></trkpt><trkpt lat="45.4525152" lon="11.0518917"><ele>62.0</ele><time>2026-04-26T16:26:30.423Z</time></trkpt><trkpt lat="45.4525548" lon="11.0521052"><ele>60.0</ele><time>2026-04-26T16:26:31.424Z</time></trkpt><trkpt lat="45.4525963" lon="11.0523245"><ele>58.0</ele><time>2026-04-26T16:26:32.423Z</time></trkpt><trkpt lat="45.4526372" lon="11.0525481"><ele>58.0</ele><time>2026-04-26T16:26:33.424Z</time></trkpt><trkpt lat="45.4526775" lon="11.052766"><ele>58.0</ele><time>2026-04-26T16:26:34.423Z</time></trkpt><trkpt lat="45.4527193" lon="11.0529848"><ele>58.0</ele><time>2026-04-26T16:26:35.424Z</time></trkpt><trkpt lat="45.4527611" lon="11.0532082"><ele>58.33333333333333</ele><time>2026-04-26T16:26:36.423Z</time></trkpt><trkpt lat="45.4528068" lon="11.0534283"><ele>58.66666666666667</ele><time>2026-04-26T16:26:37.423Z</time></trkpt><trkpt lat="45.4528503" lon="11.0536512"><ele>59.0</ele><time>2026-04-26T16:26:38.423Z</time></trkpt><trkpt lat="45.4528923" lon="11.0538768"><ele>59.0</ele><time>2026-04-26T16:26:39.423Z</time></trkpt><trkpt lat="45.4529354" lon="11.054101"><ele>59.0</ele><time>2026-04-26T16:26:40.423Z</time></trkpt><trkpt lat="45.4529764" lon="11.0543287"><ele>59.0</ele><time>2026-04-26T16:26:41.423Z</time></trkpt><trkpt lat="45.4530178" lon="11.054556"><ele>60.66666666666667</ele><time>2026-04-26T16:26:42.423Z</time></trkpt><trkpt lat="45.4530564" lon="11.0547878"><ele>62.33333333333333</ele><time>2026-04-26T16:26:43.423Z</time></trkpt><trkpt lat="45.4531003" lon="11.0550168"><ele>64.0</ele><time>2026-04-26T16:26:44.423Z</time></trkpt><trkpt lat="45.4531419" lon="11.055245"><ele>64.33333333333333</ele><time>2026-04-26T16:26:45.423Z</time></trkpt><trkpt lat="45.4531854" lon="11.0554749"><ele>64.66666666666667</ele><time>2026-04-26T16:26:46.423Z</time></trkpt><trkpt lat="45.4532312" lon="11.0557025"><ele>65.0</ele><time>2026-04-26T16:26:47.423Z</time></trkpt><trkpt lat="45.4532835" lon="11.0559207"><ele>63.75</ele><time>2026-04-26T16:26:48.423Z</time></trkpt><trkpt lat="45.4533421" lon="11.0561254"><ele>62.5</ele><time>2026-04-26T16:26:49.423Z</time></trkpt><trkpt lat="45.4533997" lon="11.0563154"><ele>61.25</ele><time>2026-04-26T16:26:50.423Z</time></trkpt><trkpt lat="45.4534586" lon="11.0564999"><ele>60.0</ele><time>2026-04-26T16:26:51.424Z</time></trkpt><trkpt lat="45.4535184" lon="11.0566713"><ele>59.75</ele><time>2026-04-26T16:26:52.423Z</time></trkpt><trkpt lat="45.453572" lon="11.0568348"><ele>59.5</ele><time>2026-04-26T16:26:53.423Z</time></trkpt><trkpt lat="45.4536239" lon="11.0569851"><ele>59.25</ele><time>2026-04-26T16:26:54.423Z</time></trkpt><trkpt lat="45.4536791" lon="11.0571427"><ele>59.0</ele><time>2026-04-26T16:26:55.423Z</time></trkpt><trkpt lat="45.4537355" lon="11.0573074"><ele>58.75</ele><time>2026-04-26T16:26:56.423Z</time></trkpt><trkpt lat="45.4537933" lon="11.0574788"><ele>58.5</ele><time>2026-04-26T16:26:57.423Z</time></trkpt><trkpt lat="45.4538601" lon="11.0576502"><ele>58.25</ele><time>2026-04-26T16:26:58.423Z</time></trkpt><trkpt lat="45.4539332" lon="11.0578196"><ele>58.0</ele><time>2026-04-26T16:26:59.423Z</time></trkpt><trkpt lat="45.4540108" lon="11.0579863"><ele>58.0</ele><time>2026-04-26T16:27:00.424Z</time></trkpt><trkpt lat="45.4540958" lon="11.0581431"><ele>58.0</ele><time>2026-04-26T16:27:01.423Z</time></trkpt><trkpt lat="45.4541814" lon="11.0582905"><ele>58.0</ele><time>2026-04-26T16:27:02.423Z</time></trkpt><trkpt lat="45.4542706" lon="11.0584257"><ele>58.0</ele><time>2026-04-26T16:27:03.423Z</time></trkpt><trkpt lat="45.4543678" lon="11.0585438"><ele>57.599999999999994</ele><time>2026-04-26T16:27:04.424Z</time></trkpt><trkpt lat="45.4544712" lon="11.0586445"><ele>57.199999999999996</ele><time>2026-04-26T16:27:05.423Z</time></trkpt><trkpt lat="45.4545749" lon="11.0587263"><ele>56.8</ele><time>2026-04-26T16:27:06.423Z</time></trkpt><trkpt lat="45.4546707" lon="11.0587858"><ele>56.4</ele><time>2026-04-26T16:27:07.423Z</time></trkpt><trkpt lat="45.454756" lon="11.0588302"><ele>56.0</ele><time>2026-04-26T16:27:08.423Z</time></trkpt><trkpt lat="45.4548294" lon="11.0588678"><ele>56.00000000000001</ele><time>2026-04-26T16:27:09.423Z</time></trkpt><trkpt lat="45.4549011" lon="11.0589083"><ele>56.0</ele><time>2026-04-26T16:27:11.423Z</time></trkpt><trkpt lat="45.4549809" lon="11.0589587"><ele>56.0</ele><time>2026-04-26T16:27:16.423Z</time></trkpt><trkpt lat="45.4550564" lon="11.059036"><ele>56.0</ele><time>2026-04-26T16:27:18.423Z</time></trkpt><trkpt lat="45.4551072" lon="11.059095"><ele>56.00000000000001</ele><time>2026-04-26T16:27:19.424Z</time></trkpt><trkpt lat="45.4551774" lon="11.0591619"><ele>56.0</ele><time>2026-04-26T16:27:20.423Z</time></trkpt><trkpt lat="45.4552612" lon="11.0592144"><ele>56.199999999999996</ele><time>2026-04-26T16:27:21.424Z</time></trkpt><trkpt lat="45.4553525" lon="11.0592247"><ele>56.39999999999999</ele><time>2026-04-26T16:27:22.423Z</time></trkpt><trkpt lat="45.4554399" lon="11.0591703"><ele>56.6</ele><time>2026-04-26T16:27:23.424Z</time></trkpt><trkpt lat="45.4555032" lon="11.0590673"><ele>56.8</ele><time>2026-04-26T16:27:24.423Z</time></trkpt><trkpt lat="45.4555289" lon="11.0589448"><ele>57.0</ele><time>2026-04-26T16:27:25.423Z</time></trkpt><trkpt lat="45.4555133" lon="11.0588265"><ele>56.8</ele><time>2026-04-26T16:27:26.423Z</time></trkpt><trkpt lat="45.4554568" lon="11.0587222"><ele>56.6</ele><time>2026-04-26T16:27:27.424Z</time></trkpt><trkpt lat="45.455366" lon="11.0586596"><ele>56.39999999999999</ele><time>2026-04-26T16:27:28.423Z</time></trkpt><trkpt lat="45.4552654" lon="11.0586496"><ele>56.199999999999996</ele><time>2026-04-26T16:27:29.424Z</time></trkpt><trkpt lat="45.4551734" lon="11.0586502"><ele>56.0</ele><time>2026-04-26T16:27:30.423Z</time></trkpt><trkpt lat="45.4551009" lon="11.0586306"><ele>56.00000000000001</ele><time>2026-04-26T16:27:31.423Z</time></trkpt><trkpt lat="45.45505" lon="11.0585764"><ele>56.0</ele><time>2026-04-26T16:27:32.423Z</time></trkpt><trkpt lat="45.4550083" lon="11.05843"><ele>56.0</ele><time>2026-04-26T16:27:34.423Z</time></trkpt><trkpt lat="45.454991" lon="11.0582855"><ele>56.0</ele><time>2026-04-26T16:27:36.423Z</time></trkpt><trkpt lat="45.4549979" lon="11.0581911"><ele>56.00000000000001</ele><time>2026-04-26T16:27:51.423Z</time></trkpt><trkpt lat="45.4549962" lon="11.0580901"><ele>56.0</ele><time>2026-04-26T16:29:56.424Z</time></trkpt><trkpt lat="45.4549801" lon="11.0579999"><ele>56.57142857142857</ele><time>2026-04-26T16:30:05.423Z</time></trkpt><trkpt lat="45.4549878" lon="11.057901"><ele>57.14285714285714</ele><time>2026-04-26T16:30:12.423Z</time></trkpt><trkpt lat="45.4549873" lon="11.0578109"><ele>57.714285714285715</ele><time>2026-04-26T16:30:18.441Z</time></trkpt><trkpt lat="45.4549696" lon="11.0577132"><ele>58.285714285714285</ele><time>2026-04-26T16:30:24.42Z</time></trkpt><trkpt lat="45.4549545" lon="11.0576125"><ele>58.857142857142854</ele><time>2026-04-26T16:30:30.385Z</time></trkpt><trkpt lat="45.4549519" lon="11.0575141"><ele>59.42857142857143</ele><time>2026-04-26T16:30:36.446Z</time></trkpt><trkpt lat="45.4549443" lon="11.0574098"><ele>60.0</ele><time>2026-04-26T16:30:43.439Z</time></trkpt><trkpt lat="45.4549507" lon="11.0573198"><ele>75.0</ele><time>2026-04-26T16:30:49.42Z</time></trkpt><trkpt lat="45.4549646" lon="11.05722"><ele>75.0</ele><time>2026-04-26T16:30:57.417Z</time></trkpt><trkpt lat="45.4550222" lon="11.0571702"><ele>75.0</ele><time>2026-04-26T16:31:04.417Z</time></trkpt><trkpt lat="45.4550722" lon="11.0571147"><ele>75.0</ele><time>2026-04-26T16:31:13.446Z</time></trkpt></trkseg></trk></gpx>